<?xml version="1.0" encoding="UTF-8" standalone="no" ?>
<gpx xmlns="http://www.topografix.com/GPX/1/1" xmlns:xsi="http://www.w3.org/2001/XMLSchema-instance" xsi:schemaLocation="http://www.topografix.com/GPX/1/1 http://www.topografix.com/GPX/1/1/gpx.xsd" version="1.1" creator="VisuGPX - https://www.visugpx.com">
  <metadata>
    <name>NE-N-Ste Luce Carquefou St Mars Désert Le Cellier Nantes</name>
    <desc><![CDATA[NE-N-Ste Luce Carquefou St Mars Désert Le Cellier Nantes]]></desc>
  </metadata>
  <trk>
    <name><![CDATA[2021-05-19 16:38 +02:00]]></name>
    <trkseg>
      <trkpt lat="47.1679" lon="-1.62651">
        <ele>80</ele>
        <time>2021-05-19T14:38:00.000Z</time>
      </trkpt>
      <trkpt lat="47.16781" lon="-1.62647">
        <ele>70</ele>
        <time>2021-05-19T14:39:07.000Z</time>
      </trkpt>
      <trkpt lat="47.1679" lon="-1.62651">
        <ele>72</ele>
        <time>2021-05-19T14:39:30.000Z</time>
      </trkpt>
      <trkpt lat="47.16797" lon="-1.62636">
        <ele>70</ele>
        <time>2021-05-19T14:39:33.000Z</time>
      </trkpt>
      <trkpt lat="47.16805" lon="-1.62624">
        <ele>69</ele>
        <time>2021-05-19T14:39:35.000Z</time>
      </trkpt>
      <trkpt lat="47.16813" lon="-1.62611">
        <ele>68</ele>
        <time>2021-05-19T14:39:37.000Z</time>
      </trkpt>
      <trkpt lat="47.16821" lon="-1.62598">
        <ele>69</ele>
        <time>2021-05-19T14:39:39.000Z</time>
      </trkpt>
      <trkpt lat="47.16829" lon="-1.62584">
        <ele>68</ele>
        <time>2021-05-19T14:39:41.000Z</time>
      </trkpt>
      <trkpt lat="47.16827" lon="-1.62568">
        <ele>68</ele>
        <time>2021-05-19T14:39:43.000Z</time>
      </trkpt>
      <trkpt lat="47.16816" lon="-1.62555">
        <ele>68</ele>
        <time>2021-05-19T14:39:45.000Z</time>
      </trkpt>
      <trkpt lat="47.16805" lon="-1.62546">
        <ele>68</ele>
        <time>2021-05-19T14:39:47.000Z</time>
      </trkpt>
      <trkpt lat="47.16795" lon="-1.62538">
        <ele>67</ele>
        <time>2021-05-19T14:39:49.000Z</time>
      </trkpt>
      <trkpt lat="47.16783" lon="-1.62531">
        <ele>67</ele>
        <time>2021-05-19T14:39:51.000Z</time>
      </trkpt>
      <trkpt lat="47.16772" lon="-1.62524">
        <ele>67</ele>
        <time>2021-05-19T14:39:53.000Z</time>
      </trkpt>
      <trkpt lat="47.1676" lon="-1.62516">
        <ele>67</ele>
        <time>2021-05-19T14:39:55.000Z</time>
      </trkpt>
      <trkpt lat="47.16749" lon="-1.6251">
        <ele>67</ele>
        <time>2021-05-19T14:39:57.000Z</time>
      </trkpt>
      <trkpt lat="47.16737" lon="-1.62505">
        <ele>67</ele>
        <time>2021-05-19T14:39:59.000Z</time>
      </trkpt>
      <trkpt lat="47.16725" lon="-1.625">
        <ele>67</ele>
        <time>2021-05-19T14:40:01.000Z</time>
      </trkpt>
      <trkpt lat="47.16715" lon="-1.62495">
        <ele>67</ele>
        <time>2021-05-19T14:40:03.000Z</time>
      </trkpt>
      <trkpt lat="47.16711" lon="-1.62481">
        <ele>67</ele>
        <time>2021-05-19T14:40:05.000Z</time>
      </trkpt>
      <trkpt lat="47.16713" lon="-1.62465">
        <ele>67</ele>
        <time>2021-05-19T14:40:07.000Z</time>
      </trkpt>
      <trkpt lat="47.16715" lon="-1.6245">
        <ele>67</ele>
        <time>2021-05-19T14:40:09.000Z</time>
      </trkpt>
      <trkpt lat="47.16718" lon="-1.62431">
        <ele>67</ele>
        <time>2021-05-19T14:40:11.000Z</time>
      </trkpt>
      <trkpt lat="47.16724" lon="-1.62411">
        <ele>67</ele>
        <time>2021-05-19T14:40:13.000Z</time>
      </trkpt>
      <trkpt lat="47.1673" lon="-1.62391">
        <ele>66</ele>
        <time>2021-05-19T14:40:15.000Z</time>
      </trkpt>
      <trkpt lat="47.16737" lon="-1.62371">
        <ele>66</ele>
        <time>2021-05-19T14:40:17.000Z</time>
      </trkpt>
      <trkpt lat="47.16749" lon="-1.62355">
        <ele>66</ele>
        <time>2021-05-19T14:40:19.000Z</time>
      </trkpt>
      <trkpt lat="47.16762" lon="-1.62343">
        <ele>67</ele>
        <time>2021-05-19T14:40:21.000Z</time>
      </trkpt>
      <trkpt lat="47.16777" lon="-1.62334">
        <ele>67</ele>
        <time>2021-05-19T14:40:23.000Z</time>
      </trkpt>
      <trkpt lat="47.16791" lon="-1.62328">
        <ele>68</ele>
        <time>2021-05-19T14:40:25.000Z</time>
      </trkpt>
      <trkpt lat="47.16805" lon="-1.6232">
        <ele>68</ele>
        <time>2021-05-19T14:40:27.000Z</time>
      </trkpt>
      <trkpt lat="47.16818" lon="-1.6231">
        <ele>68</ele>
        <time>2021-05-19T14:40:29.000Z</time>
      </trkpt>
      <trkpt lat="47.1683" lon="-1.62298">
        <ele>69</ele>
        <time>2021-05-19T14:40:31.000Z</time>
      </trkpt>
      <trkpt lat="47.16842" lon="-1.62285">
        <ele>69</ele>
        <time>2021-05-19T14:40:33.000Z</time>
      </trkpt>
      <trkpt lat="47.16854" lon="-1.62271">
        <ele>68</ele>
        <time>2021-05-19T14:40:35.000Z</time>
      </trkpt>
      <trkpt lat="47.16866" lon="-1.62256">
        <ele>69</ele>
        <time>2021-05-19T14:40:37.000Z</time>
      </trkpt>
      <trkpt lat="47.16878" lon="-1.62241">
        <ele>69</ele>
        <time>2021-05-19T14:40:39.000Z</time>
      </trkpt>
      <trkpt lat="47.16889" lon="-1.62227">
        <ele>69</ele>
        <time>2021-05-19T14:40:41.000Z</time>
      </trkpt>
      <trkpt lat="47.169" lon="-1.6221">
        <ele>69</ele>
        <time>2021-05-19T14:40:43.000Z</time>
      </trkpt>
      <trkpt lat="47.16911" lon="-1.62194">
        <ele>69</ele>
        <time>2021-05-19T14:40:45.000Z</time>
      </trkpt>
      <trkpt lat="47.16921" lon="-1.62176">
        <ele>69</ele>
        <time>2021-05-19T14:40:47.000Z</time>
      </trkpt>
      <trkpt lat="47.16931" lon="-1.62158">
        <ele>69</ele>
        <time>2021-05-19T14:40:49.000Z</time>
      </trkpt>
      <trkpt lat="47.1694" lon="-1.62139">
        <ele>69</ele>
        <time>2021-05-19T14:40:51.000Z</time>
      </trkpt>
      <trkpt lat="47.1695" lon="-1.62121">
        <ele>69</ele>
        <time>2021-05-19T14:40:53.000Z</time>
      </trkpt>
      <trkpt lat="47.16959" lon="-1.62103">
        <ele>69</ele>
        <time>2021-05-19T14:40:55.000Z</time>
      </trkpt>
      <trkpt lat="47.16969" lon="-1.62084">
        <ele>68</ele>
        <time>2021-05-19T14:40:57.000Z</time>
      </trkpt>
      <trkpt lat="47.16979" lon="-1.62066">
        <ele>68</ele>
        <time>2021-05-19T14:40:59.000Z</time>
      </trkpt>
      <trkpt lat="47.16989" lon="-1.62048">
        <ele>67</ele>
        <time>2021-05-19T14:41:01.000Z</time>
      </trkpt>
      <trkpt lat="47.17" lon="-1.6203">
        <ele>68</ele>
        <time>2021-05-19T14:41:03.000Z</time>
      </trkpt>
      <trkpt lat="47.17011" lon="-1.62014">
        <ele>68</ele>
        <time>2021-05-19T14:41:05.000Z</time>
      </trkpt>
      <trkpt lat="47.17022" lon="-1.61997">
        <ele>68</ele>
        <time>2021-05-19T14:41:07.000Z</time>
      </trkpt>
      <trkpt lat="47.17033" lon="-1.61981">
        <ele>68</ele>
        <time>2021-05-19T14:41:09.000Z</time>
      </trkpt>
      <trkpt lat="47.17044" lon="-1.61964">
        <ele>69</ele>
        <time>2021-05-19T14:41:11.000Z</time>
      </trkpt>
      <trkpt lat="47.17055" lon="-1.61949">
        <ele>69</ele>
        <time>2021-05-19T14:41:13.000Z</time>
      </trkpt>
      <trkpt lat="47.17066" lon="-1.61934">
        <ele>69</ele>
        <time>2021-05-19T14:41:15.000Z</time>
      </trkpt>
      <trkpt lat="47.17078" lon="-1.61921">
        <ele>69</ele>
        <time>2021-05-19T14:41:17.000Z</time>
      </trkpt>
      <trkpt lat="47.17091" lon="-1.61908">
        <ele>69</ele>
        <time>2021-05-19T14:41:19.000Z</time>
      </trkpt>
      <trkpt lat="47.17104" lon="-1.61896">
        <ele>68</ele>
        <time>2021-05-19T14:41:21.000Z</time>
      </trkpt>
      <trkpt lat="47.17117" lon="-1.61884">
        <ele>68</ele>
        <time>2021-05-19T14:41:23.000Z</time>
      </trkpt>
      <trkpt lat="47.1713" lon="-1.61871">
        <ele>68</ele>
        <time>2021-05-19T14:41:25.000Z</time>
      </trkpt>
      <trkpt lat="47.17143" lon="-1.6186">
        <ele>68</ele>
        <time>2021-05-19T14:41:27.000Z</time>
      </trkpt>
      <trkpt lat="47.17156" lon="-1.61847">
        <ele>68</ele>
        <time>2021-05-19T14:41:29.000Z</time>
      </trkpt>
      <trkpt lat="47.17169" lon="-1.61835">
        <ele>68</ele>
        <time>2021-05-19T14:41:31.000Z</time>
      </trkpt>
      <trkpt lat="47.17181" lon="-1.61823">
        <ele>68</ele>
        <time>2021-05-19T14:41:33.000Z</time>
      </trkpt>
      <trkpt lat="47.17194" lon="-1.61811">
        <ele>68</ele>
        <time>2021-05-19T14:41:35.000Z</time>
      </trkpt>
      <trkpt lat="47.17207" lon="-1.61798">
        <ele>68</ele>
        <time>2021-05-19T14:41:37.000Z</time>
      </trkpt>
      <trkpt lat="47.17218" lon="-1.61783">
        <ele>67</ele>
        <time>2021-05-19T14:41:39.000Z</time>
      </trkpt>
      <trkpt lat="47.17224" lon="-1.61763">
        <ele>68</ele>
        <time>2021-05-19T14:41:41.000Z</time>
      </trkpt>
      <trkpt lat="47.17234" lon="-1.61745">
        <ele>68</ele>
        <time>2021-05-19T14:41:43.000Z</time>
      </trkpt>
      <trkpt lat="47.17246" lon="-1.61729">
        <ele>68</ele>
        <time>2021-05-19T14:41:45.000Z</time>
      </trkpt>
      <trkpt lat="47.17255" lon="-1.6171">
        <ele>68</ele>
        <time>2021-05-19T14:41:47.000Z</time>
      </trkpt>
      <trkpt lat="47.17264" lon="-1.61692">
        <ele>68</ele>
        <time>2021-05-19T14:41:49.000Z</time>
      </trkpt>
      <trkpt lat="47.17272" lon="-1.61672">
        <ele>69</ele>
        <time>2021-05-19T14:41:51.000Z</time>
      </trkpt>
      <trkpt lat="47.1728" lon="-1.61654">
        <ele>70</ele>
        <time>2021-05-19T14:41:53.000Z</time>
      </trkpt>
      <trkpt lat="47.1729" lon="-1.61638">
        <ele>70</ele>
        <time>2021-05-19T14:41:55.000Z</time>
      </trkpt>
      <trkpt lat="47.173" lon="-1.61622">
        <ele>71</ele>
        <time>2021-05-19T14:41:57.000Z</time>
      </trkpt>
      <trkpt lat="47.1731" lon="-1.61605">
        <ele>71</ele>
        <time>2021-05-19T14:41:59.000Z</time>
      </trkpt>
      <trkpt lat="47.17321" lon="-1.61591">
        <ele>71</ele>
        <time>2021-05-19T14:42:01.000Z</time>
      </trkpt>
      <trkpt lat="47.17332" lon="-1.61576">
        <ele>71</ele>
        <time>2021-05-19T14:42:03.000Z</time>
      </trkpt>
      <trkpt lat="47.17344" lon="-1.61562">
        <ele>71</ele>
        <time>2021-05-19T14:42:05.000Z</time>
      </trkpt>
      <trkpt lat="47.17355" lon="-1.61549">
        <ele>70</ele>
        <time>2021-05-19T14:42:07.000Z</time>
      </trkpt>
      <trkpt lat="47.17368" lon="-1.61536">
        <ele>70</ele>
        <time>2021-05-19T14:42:09.000Z</time>
      </trkpt>
      <trkpt lat="47.17381" lon="-1.61525">
        <ele>69</ele>
        <time>2021-05-19T14:42:11.000Z</time>
      </trkpt>
      <trkpt lat="47.17395" lon="-1.61513">
        <ele>68</ele>
        <time>2021-05-19T14:42:13.000Z</time>
      </trkpt>
      <trkpt lat="47.1741" lon="-1.61503">
        <ele>68</ele>
        <time>2021-05-19T14:42:15.000Z</time>
      </trkpt>
      <trkpt lat="47.17426" lon="-1.61492">
        <ele>67</ele>
        <time>2021-05-19T14:42:17.000Z</time>
      </trkpt>
      <trkpt lat="47.17442" lon="-1.61482">
        <ele>67</ele>
        <time>2021-05-19T14:42:19.000Z</time>
      </trkpt>
      <trkpt lat="47.1745" lon="-1.61476">
        <ele>67</ele>
        <time>2021-05-19T14:42:20.000Z</time>
      </trkpt>
      <trkpt lat="47.17467" lon="-1.61468">
        <ele>66</ele>
        <time>2021-05-19T14:42:22.000Z</time>
      </trkpt>
      <trkpt lat="47.17476" lon="-1.61464">
        <ele>66</ele>
        <time>2021-05-19T14:42:23.000Z</time>
      </trkpt>
      <trkpt lat="47.17493" lon="-1.61459">
        <ele>66</ele>
        <time>2021-05-19T14:42:25.000Z</time>
      </trkpt>
      <trkpt lat="47.17506" lon="-1.61452">
        <ele>65</ele>
        <time>2021-05-19T14:42:27.000Z</time>
      </trkpt>
      <trkpt lat="47.17512" lon="-1.61437">
        <ele>64</ele>
        <time>2021-05-19T14:42:29.000Z</time>
      </trkpt>
      <trkpt lat="47.17515" lon="-1.61415">
        <ele>62</ele>
        <time>2021-05-19T14:42:31.000Z</time>
      </trkpt>
      <trkpt lat="47.1752" lon="-1.61392">
        <ele>60</ele>
        <time>2021-05-19T14:42:33.000Z</time>
      </trkpt>
      <trkpt lat="47.17526" lon="-1.6137">
        <ele>59</ele>
        <time>2021-05-19T14:42:35.000Z</time>
      </trkpt>
      <trkpt lat="47.17526" lon="-1.61348">
        <ele>59</ele>
        <time>2021-05-19T14:42:37.000Z</time>
      </trkpt>
      <trkpt lat="47.17522" lon="-1.61326">
        <ele>60</ele>
        <time>2021-05-19T14:42:39.000Z</time>
      </trkpt>
      <trkpt lat="47.1752" lon="-1.61303">
        <ele>59</ele>
        <time>2021-05-19T14:42:41.000Z</time>
      </trkpt>
      <trkpt lat="47.17514" lon="-1.61282">
        <ele>59</ele>
        <time>2021-05-19T14:42:43.000Z</time>
      </trkpt>
      <trkpt lat="47.17504" lon="-1.61264">
        <ele>59</ele>
        <time>2021-05-19T14:42:45.000Z</time>
      </trkpt>
      <trkpt lat="47.17496" lon="-1.61246">
        <ele>59</ele>
        <time>2021-05-19T14:42:47.000Z</time>
      </trkpt>
      <trkpt lat="47.17488" lon="-1.61226">
        <ele>59</ele>
        <time>2021-05-19T14:42:49.000Z</time>
      </trkpt>
      <trkpt lat="47.1748" lon="-1.61208">
        <ele>59</ele>
        <time>2021-05-19T14:42:51.000Z</time>
      </trkpt>
      <trkpt lat="47.17472" lon="-1.61189">
        <ele>59</ele>
        <time>2021-05-19T14:42:53.000Z</time>
      </trkpt>
      <trkpt lat="47.17464" lon="-1.6117">
        <ele>59</ele>
        <time>2021-05-19T14:42:55.000Z</time>
      </trkpt>
      <trkpt lat="47.17457" lon="-1.61151">
        <ele>59</ele>
        <time>2021-05-19T14:42:57.000Z</time>
      </trkpt>
      <trkpt lat="47.17449" lon="-1.61131">
        <ele>59</ele>
        <time>2021-05-19T14:42:59.000Z</time>
      </trkpt>
      <trkpt lat="47.17442" lon="-1.6111">
        <ele>59</ele>
        <time>2021-05-19T14:43:01.000Z</time>
      </trkpt>
      <trkpt lat="47.17439" lon="-1.61095">
        <ele>58</ele>
        <time>2021-05-19T14:43:02.000Z</time>
      </trkpt>
      <trkpt lat="47.17435" lon="-1.61082">
        <ele>58</ele>
        <time>2021-05-19T14:43:03.000Z</time>
      </trkpt>
      <trkpt lat="47.17431" lon="-1.61069">
        <ele>58</ele>
        <time>2021-05-19T14:43:04.000Z</time>
      </trkpt>
      <trkpt lat="47.17427" lon="-1.61057">
        <ele>58</ele>
        <time>2021-05-19T14:43:05.000Z</time>
      </trkpt>
      <trkpt lat="47.1742" lon="-1.61036">
        <ele>58</ele>
        <time>2021-05-19T14:43:07.000Z</time>
      </trkpt>
      <trkpt lat="47.1742" lon="-1.61021">
        <ele>57</ele>
        <time>2021-05-19T14:43:09.000Z</time>
      </trkpt>
      <trkpt lat="47.17431" lon="-1.61025">
        <ele>56</ele>
        <time>2021-05-19T14:43:12.000Z</time>
      </trkpt>
      <trkpt lat="47.17436" lon="-1.61042">
        <ele>55</ele>
        <time>2021-05-19T14:43:14.000Z</time>
      </trkpt>
      <trkpt lat="47.17442" lon="-1.6106">
        <ele>55</ele>
        <time>2021-05-19T14:43:16.000Z</time>
      </trkpt>
      <trkpt lat="47.17451" lon="-1.61077">
        <ele>54</ele>
        <time>2021-05-19T14:43:18.000Z</time>
      </trkpt>
      <trkpt lat="47.17464" lon="-1.61091">
        <ele>54</ele>
        <time>2021-05-19T14:43:20.000Z</time>
      </trkpt>
      <trkpt lat="47.17477" lon="-1.61103">
        <ele>53</ele>
        <time>2021-05-19T14:43:22.000Z</time>
      </trkpt>
      <trkpt lat="47.17493" lon="-1.61104">
        <ele>53</ele>
        <time>2021-05-19T14:43:24.000Z</time>
      </trkpt>
      <trkpt lat="47.17509" lon="-1.611">
        <ele>53</ele>
        <time>2021-05-19T14:43:26.000Z</time>
      </trkpt>
      <trkpt lat="47.17524" lon="-1.61091">
        <ele>53</ele>
        <time>2021-05-19T14:43:28.000Z</time>
      </trkpt>
      <trkpt lat="47.17537" lon="-1.61078">
        <ele>53</ele>
        <time>2021-05-19T14:43:30.000Z</time>
      </trkpt>
      <trkpt lat="47.1755" lon="-1.61066">
        <ele>53</ele>
        <time>2021-05-19T14:43:32.000Z</time>
      </trkpt>
      <trkpt lat="47.17564" lon="-1.61054">
        <ele>53</ele>
        <time>2021-05-19T14:43:34.000Z</time>
      </trkpt>
      <trkpt lat="47.17577" lon="-1.61042">
        <ele>54</ele>
        <time>2021-05-19T14:43:36.000Z</time>
      </trkpt>
      <trkpt lat="47.17591" lon="-1.61031">
        <ele>54</ele>
        <time>2021-05-19T14:43:38.000Z</time>
      </trkpt>
      <trkpt lat="47.17604" lon="-1.61019">
        <ele>55</ele>
        <time>2021-05-19T14:43:40.000Z</time>
      </trkpt>
      <trkpt lat="47.17617" lon="-1.61007">
        <ele>54</ele>
        <time>2021-05-19T14:43:42.000Z</time>
      </trkpt>
      <trkpt lat="47.17632" lon="-1.60994">
        <ele>54</ele>
        <time>2021-05-19T14:43:44.000Z</time>
      </trkpt>
      <trkpt lat="47.17646" lon="-1.60982">
        <ele>54</ele>
        <time>2021-05-19T14:43:46.000Z</time>
      </trkpt>
      <trkpt lat="47.1766" lon="-1.60972">
        <ele>53</ele>
        <time>2021-05-19T14:43:48.000Z</time>
      </trkpt>
      <trkpt lat="47.17675" lon="-1.60969">
        <ele>54</ele>
        <time>2021-05-19T14:43:50.000Z</time>
      </trkpt>
      <trkpt lat="47.1769" lon="-1.60972">
        <ele>54</ele>
        <time>2021-05-19T14:43:52.000Z</time>
      </trkpt>
      <trkpt lat="47.17704" lon="-1.60967">
        <ele>55</ele>
        <time>2021-05-19T14:43:54.000Z</time>
      </trkpt>
      <trkpt lat="47.17718" lon="-1.60959">
        <ele>55</ele>
        <time>2021-05-19T14:43:56.000Z</time>
      </trkpt>
      <trkpt lat="47.17731" lon="-1.60949">
        <ele>55</ele>
        <time>2021-05-19T14:43:58.000Z</time>
      </trkpt>
      <trkpt lat="47.17745" lon="-1.60939">
        <ele>55</ele>
        <time>2021-05-19T14:44:00.000Z</time>
      </trkpt>
      <trkpt lat="47.17758" lon="-1.60929">
        <ele>55</ele>
        <time>2021-05-19T14:44:02.000Z</time>
      </trkpt>
      <trkpt lat="47.17771" lon="-1.60918">
        <ele>55</ele>
        <time>2021-05-19T14:44:04.000Z</time>
      </trkpt>
      <trkpt lat="47.17785" lon="-1.60908">
        <ele>55</ele>
        <time>2021-05-19T14:44:06.000Z</time>
      </trkpt>
      <trkpt lat="47.17799" lon="-1.60897">
        <ele>54</ele>
        <time>2021-05-19T14:44:08.000Z</time>
      </trkpt>
      <trkpt lat="47.17812" lon="-1.60885">
        <ele>54</ele>
        <time>2021-05-19T14:44:10.000Z</time>
      </trkpt>
      <trkpt lat="47.17824" lon="-1.60871">
        <ele>54</ele>
        <time>2021-05-19T14:44:12.000Z</time>
      </trkpt>
      <trkpt lat="47.17834" lon="-1.60853">
        <ele>53</ele>
        <time>2021-05-19T14:44:14.000Z</time>
      </trkpt>
      <trkpt lat="47.17842" lon="-1.60834">
        <ele>53</ele>
        <time>2021-05-19T14:44:16.000Z</time>
      </trkpt>
      <trkpt lat="47.17848" lon="-1.60812">
        <ele>53</ele>
        <time>2021-05-19T14:44:18.000Z</time>
      </trkpt>
      <trkpt lat="47.17854" lon="-1.6079">
        <ele>52</ele>
        <time>2021-05-19T14:44:20.000Z</time>
      </trkpt>
      <trkpt lat="47.17859" lon="-1.60768">
        <ele>51</ele>
        <time>2021-05-19T14:44:22.000Z</time>
      </trkpt>
      <trkpt lat="47.17864" lon="-1.60745">
        <ele>51</ele>
        <time>2021-05-19T14:44:24.000Z</time>
      </trkpt>
      <trkpt lat="47.17869" lon="-1.60722">
        <ele>51</ele>
        <time>2021-05-19T14:44:26.000Z</time>
      </trkpt>
      <trkpt lat="47.17875" lon="-1.60701">
        <ele>51</ele>
        <time>2021-05-19T14:44:28.000Z</time>
      </trkpt>
      <trkpt lat="47.17881" lon="-1.60679">
        <ele>51</ele>
        <time>2021-05-19T14:44:30.000Z</time>
      </trkpt>
      <trkpt lat="47.17887" lon="-1.60658">
        <ele>51</ele>
        <time>2021-05-19T14:44:32.000Z</time>
      </trkpt>
      <trkpt lat="47.17894" lon="-1.60638">
        <ele>51</ele>
        <time>2021-05-19T14:44:34.000Z</time>
      </trkpt>
      <trkpt lat="47.179" lon="-1.60619">
        <ele>52</ele>
        <time>2021-05-19T14:44:36.000Z</time>
      </trkpt>
      <trkpt lat="47.17904" lon="-1.606">
        <ele>52</ele>
        <time>2021-05-19T14:44:38.000Z</time>
      </trkpt>
      <trkpt lat="47.1791" lon="-1.60584">
        <ele>52</ele>
        <time>2021-05-19T14:44:40.000Z</time>
      </trkpt>
      <trkpt lat="47.17922" lon="-1.60583">
        <ele>53</ele>
        <time>2021-05-19T14:44:42.000Z</time>
      </trkpt>
      <trkpt lat="47.17935" lon="-1.60584">
        <ele>53</ele>
        <time>2021-05-19T14:44:44.000Z</time>
      </trkpt>
      <trkpt lat="47.17949" lon="-1.60578">
        <ele>53</ele>
        <time>2021-05-19T14:44:46.000Z</time>
      </trkpt>
      <trkpt lat="47.17962" lon="-1.60571">
        <ele>54</ele>
        <time>2021-05-19T14:44:48.000Z</time>
      </trkpt>
      <trkpt lat="47.17978" lon="-1.60563">
        <ele>54</ele>
        <time>2021-05-19T14:44:50.000Z</time>
      </trkpt>
      <trkpt lat="47.17994" lon="-1.60557">
        <ele>54</ele>
        <time>2021-05-19T14:44:52.000Z</time>
      </trkpt>
      <trkpt lat="47.18003" lon="-1.60554">
        <ele>54</ele>
        <time>2021-05-19T14:44:53.000Z</time>
      </trkpt>
      <trkpt lat="47.1802" lon="-1.60551">
        <ele>54</ele>
        <time>2021-05-19T14:44:55.000Z</time>
      </trkpt>
      <trkpt lat="47.18036" lon="-1.60554">
        <ele>54</ele>
        <time>2021-05-19T14:44:57.000Z</time>
      </trkpt>
      <trkpt lat="47.18051" lon="-1.60562">
        <ele>54</ele>
        <time>2021-05-19T14:44:59.000Z</time>
      </trkpt>
      <trkpt lat="47.18066" lon="-1.6057">
        <ele>54</ele>
        <time>2021-05-19T14:45:01.000Z</time>
      </trkpt>
      <trkpt lat="47.1808" lon="-1.60577">
        <ele>54</ele>
        <time>2021-05-19T14:45:03.000Z</time>
      </trkpt>
      <trkpt lat="47.18095" lon="-1.60585">
        <ele>54</ele>
        <time>2021-05-19T14:45:05.000Z</time>
      </trkpt>
      <trkpt lat="47.18109" lon="-1.60591">
        <ele>54</ele>
        <time>2021-05-19T14:45:07.000Z</time>
      </trkpt>
      <trkpt lat="47.18123" lon="-1.60596">
        <ele>54</ele>
        <time>2021-05-19T14:45:09.000Z</time>
      </trkpt>
      <trkpt lat="47.18137" lon="-1.606">
        <ele>54</ele>
        <time>2021-05-19T14:45:11.000Z</time>
      </trkpt>
      <trkpt lat="47.1815" lon="-1.60602">
        <ele>54</ele>
        <time>2021-05-19T14:45:13.000Z</time>
      </trkpt>
      <trkpt lat="47.18165" lon="-1.60602">
        <ele>54</ele>
        <time>2021-05-19T14:45:15.000Z</time>
      </trkpt>
      <trkpt lat="47.1818" lon="-1.60601">
        <ele>54</ele>
        <time>2021-05-19T14:45:17.000Z</time>
      </trkpt>
      <trkpt lat="47.1819" lon="-1.60589">
        <ele>54</ele>
        <time>2021-05-19T14:45:19.000Z</time>
      </trkpt>
      <trkpt lat="47.18195" lon="-1.60573">
        <ele>54</ele>
        <time>2021-05-19T14:45:21.000Z</time>
      </trkpt>
      <trkpt lat="47.18209" lon="-1.60566">
        <ele>54</ele>
        <time>2021-05-19T14:45:23.000Z</time>
      </trkpt>
      <trkpt lat="47.18224" lon="-1.6056">
        <ele>53</ele>
        <time>2021-05-19T14:45:25.000Z</time>
      </trkpt>
      <trkpt lat="47.18239" lon="-1.60552">
        <ele>54</ele>
        <time>2021-05-19T14:45:27.000Z</time>
      </trkpt>
      <trkpt lat="47.18253" lon="-1.60541">
        <ele>54</ele>
        <time>2021-05-19T14:45:29.000Z</time>
      </trkpt>
      <trkpt lat="47.18266" lon="-1.60529">
        <ele>54</ele>
        <time>2021-05-19T14:45:31.000Z</time>
      </trkpt>
      <trkpt lat="47.18279" lon="-1.60516">
        <ele>54</ele>
        <time>2021-05-19T14:45:33.000Z</time>
      </trkpt>
      <trkpt lat="47.18292" lon="-1.60503">
        <ele>53</ele>
        <time>2021-05-19T14:45:35.000Z</time>
      </trkpt>
      <trkpt lat="47.18305" lon="-1.6049">
        <ele>53</ele>
        <time>2021-05-19T14:45:37.000Z</time>
      </trkpt>
      <trkpt lat="47.18317" lon="-1.60475">
        <ele>53</ele>
        <time>2021-05-19T14:45:39.000Z</time>
      </trkpt>
      <trkpt lat="47.1833" lon="-1.6046">
        <ele>54</ele>
        <time>2021-05-19T14:45:41.000Z</time>
      </trkpt>
      <trkpt lat="47.18342" lon="-1.60446">
        <ele>53</ele>
        <time>2021-05-19T14:45:43.000Z</time>
      </trkpt>
      <trkpt lat="47.18354" lon="-1.60432">
        <ele>53</ele>
        <time>2021-05-19T14:45:45.000Z</time>
      </trkpt>
      <trkpt lat="47.18366" lon="-1.60417">
        <ele>53</ele>
        <time>2021-05-19T14:45:47.000Z</time>
      </trkpt>
      <trkpt lat="47.18378" lon="-1.60401">
        <ele>53</ele>
        <time>2021-05-19T14:45:49.000Z</time>
      </trkpt>
      <trkpt lat="47.18389" lon="-1.60386">
        <ele>53</ele>
        <time>2021-05-19T14:45:51.000Z</time>
      </trkpt>
      <trkpt lat="47.18401" lon="-1.60371">
        <ele>53</ele>
        <time>2021-05-19T14:45:53.000Z</time>
      </trkpt>
      <trkpt lat="47.18412" lon="-1.60355">
        <ele>53</ele>
        <time>2021-05-19T14:45:55.000Z</time>
      </trkpt>
      <trkpt lat="47.18422" lon="-1.6034">
        <ele>53</ele>
        <time>2021-05-19T14:45:57.000Z</time>
      </trkpt>
      <trkpt lat="47.18433" lon="-1.60324">
        <ele>53</ele>
        <time>2021-05-19T14:45:59.000Z</time>
      </trkpt>
      <trkpt lat="47.18443" lon="-1.60307">
        <ele>53</ele>
        <time>2021-05-19T14:46:01.000Z</time>
      </trkpt>
      <trkpt lat="47.18453" lon="-1.60291">
        <ele>53</ele>
        <time>2021-05-19T14:46:03.000Z</time>
      </trkpt>
      <trkpt lat="47.18463" lon="-1.60274">
        <ele>53</ele>
        <time>2021-05-19T14:46:05.000Z</time>
      </trkpt>
      <trkpt lat="47.18473" lon="-1.60256">
        <ele>53</ele>
        <time>2021-05-19T14:46:07.000Z</time>
      </trkpt>
      <trkpt lat="47.18483" lon="-1.60238">
        <ele>53</ele>
        <time>2021-05-19T14:46:09.000Z</time>
      </trkpt>
      <trkpt lat="47.18492" lon="-1.60221">
        <ele>54</ele>
        <time>2021-05-19T14:46:11.000Z</time>
      </trkpt>
      <trkpt lat="47.18501" lon="-1.60203">
        <ele>54</ele>
        <time>2021-05-19T14:46:13.000Z</time>
      </trkpt>
      <trkpt lat="47.1851" lon="-1.60184">
        <ele>53</ele>
        <time>2021-05-19T14:46:15.000Z</time>
      </trkpt>
      <trkpt lat="47.18519" lon="-1.60166">
        <ele>53</ele>
        <time>2021-05-19T14:46:17.000Z</time>
      </trkpt>
      <trkpt lat="47.18528" lon="-1.60147">
        <ele>52</ele>
        <time>2021-05-19T14:46:19.000Z</time>
      </trkpt>
      <trkpt lat="47.18537" lon="-1.60129">
        <ele>52</ele>
        <time>2021-05-19T14:46:21.000Z</time>
      </trkpt>
      <trkpt lat="47.18545" lon="-1.6011">
        <ele>52</ele>
        <time>2021-05-19T14:46:23.000Z</time>
      </trkpt>
      <trkpt lat="47.18553" lon="-1.60091">
        <ele>52</ele>
        <time>2021-05-19T14:46:25.000Z</time>
      </trkpt>
      <trkpt lat="47.18561" lon="-1.60071">
        <ele>52</ele>
        <time>2021-05-19T14:46:27.000Z</time>
      </trkpt>
      <trkpt lat="47.18568" lon="-1.60052">
        <ele>52</ele>
        <time>2021-05-19T14:46:29.000Z</time>
      </trkpt>
      <trkpt lat="47.18575" lon="-1.60031">
        <ele>51</ele>
        <time>2021-05-19T14:46:31.000Z</time>
      </trkpt>
      <trkpt lat="47.18583" lon="-1.60011">
        <ele>51</ele>
        <time>2021-05-19T14:46:33.000Z</time>
      </trkpt>
      <trkpt lat="47.1859" lon="-1.59991">
        <ele>51</ele>
        <time>2021-05-19T14:46:35.000Z</time>
      </trkpt>
      <trkpt lat="47.18596" lon="-1.5997">
        <ele>51</ele>
        <time>2021-05-19T14:46:37.000Z</time>
      </trkpt>
      <trkpt lat="47.18602" lon="-1.59949">
        <ele>51</ele>
        <time>2021-05-19T14:46:39.000Z</time>
      </trkpt>
      <trkpt lat="47.18608" lon="-1.59928">
        <ele>51</ele>
        <time>2021-05-19T14:46:41.000Z</time>
      </trkpt>
      <trkpt lat="47.18614" lon="-1.59908">
        <ele>51</ele>
        <time>2021-05-19T14:46:43.000Z</time>
      </trkpt>
      <trkpt lat="47.18619" lon="-1.59889">
        <ele>51</ele>
        <time>2021-05-19T14:46:45.000Z</time>
      </trkpt>
      <trkpt lat="47.18623" lon="-1.59868">
        <ele>52</ele>
        <time>2021-05-19T14:46:47.000Z</time>
      </trkpt>
      <trkpt lat="47.18619" lon="-1.59849">
        <ele>51</ele>
        <time>2021-05-19T14:46:49.000Z</time>
      </trkpt>
      <trkpt lat="47.18616" lon="-1.59831">
        <ele>52</ele>
        <time>2021-05-19T14:46:51.000Z</time>
      </trkpt>
      <trkpt lat="47.18623" lon="-1.59818">
        <ele>52</ele>
        <time>2021-05-19T14:46:53.000Z</time>
      </trkpt>
      <trkpt lat="47.18629" lon="-1.59798">
        <ele>53</ele>
        <time>2021-05-19T14:46:56.000Z</time>
      </trkpt>
      <trkpt lat="47.18633" lon="-1.5978">
        <ele>52</ele>
        <time>2021-05-19T14:46:58.000Z</time>
      </trkpt>
      <trkpt lat="47.18643" lon="-1.59762">
        <ele>53</ele>
        <time>2021-05-19T14:47:00.000Z</time>
      </trkpt>
      <trkpt lat="47.18653" lon="-1.59745">
        <ele>53</ele>
        <time>2021-05-19T14:47:02.000Z</time>
      </trkpt>
      <trkpt lat="47.18656" lon="-1.59721">
        <ele>53</ele>
        <time>2021-05-19T14:47:04.000Z</time>
      </trkpt>
      <trkpt lat="47.1866" lon="-1.59698">
        <ele>53</ele>
        <time>2021-05-19T14:47:06.000Z</time>
      </trkpt>
      <trkpt lat="47.18664" lon="-1.59675">
        <ele>53</ele>
        <time>2021-05-19T14:47:08.000Z</time>
      </trkpt>
      <trkpt lat="47.18671" lon="-1.59652">
        <ele>53</ele>
        <time>2021-05-19T14:47:10.000Z</time>
      </trkpt>
      <trkpt lat="47.18675" lon="-1.59628">
        <ele>53</ele>
        <time>2021-05-19T14:47:12.000Z</time>
      </trkpt>
      <trkpt lat="47.18679" lon="-1.59603">
        <ele>53</ele>
        <time>2021-05-19T14:47:14.000Z</time>
      </trkpt>
      <trkpt lat="47.18682" lon="-1.59579">
        <ele>52</ele>
        <time>2021-05-19T14:47:16.000Z</time>
      </trkpt>
      <trkpt lat="47.18685" lon="-1.59553">
        <ele>53</ele>
        <time>2021-05-19T14:47:18.000Z</time>
      </trkpt>
      <trkpt lat="47.18687" lon="-1.5953">
        <ele>53</ele>
        <time>2021-05-19T14:47:20.000Z</time>
      </trkpt>
      <trkpt lat="47.1869" lon="-1.59505">
        <ele>53</ele>
        <time>2021-05-19T14:47:22.000Z</time>
      </trkpt>
      <trkpt lat="47.18693" lon="-1.59481">
        <ele>53</ele>
        <time>2021-05-19T14:47:24.000Z</time>
      </trkpt>
      <trkpt lat="47.18696" lon="-1.59457">
        <ele>53</ele>
        <time>2021-05-19T14:47:26.000Z</time>
      </trkpt>
      <trkpt lat="47.18699" lon="-1.59432">
        <ele>52</ele>
        <time>2021-05-19T14:47:28.000Z</time>
      </trkpt>
      <trkpt lat="47.18701" lon="-1.59407">
        <ele>52</ele>
        <time>2021-05-19T14:47:30.000Z</time>
      </trkpt>
      <trkpt lat="47.18704" lon="-1.59382">
        <ele>53</ele>
        <time>2021-05-19T14:47:32.000Z</time>
      </trkpt>
      <trkpt lat="47.18707" lon="-1.59357">
        <ele>53</ele>
        <time>2021-05-19T14:47:34.000Z</time>
      </trkpt>
      <trkpt lat="47.18709" lon="-1.59331">
        <ele>52</ele>
        <time>2021-05-19T14:47:36.000Z</time>
      </trkpt>
      <trkpt lat="47.18712" lon="-1.59306">
        <ele>53</ele>
        <time>2021-05-19T14:47:38.000Z</time>
      </trkpt>
      <trkpt lat="47.18715" lon="-1.5928">
        <ele>53</ele>
        <time>2021-05-19T14:47:40.000Z</time>
      </trkpt>
      <trkpt lat="47.18718" lon="-1.59256">
        <ele>53</ele>
        <time>2021-05-19T14:47:42.000Z</time>
      </trkpt>
      <trkpt lat="47.18721" lon="-1.5923">
        <ele>52</ele>
        <time>2021-05-19T14:47:44.000Z</time>
      </trkpt>
      <trkpt lat="47.18724" lon="-1.59205">
        <ele>52</ele>
        <time>2021-05-19T14:47:46.000Z</time>
      </trkpt>
      <trkpt lat="47.18726" lon="-1.59179">
        <ele>52</ele>
        <time>2021-05-19T14:47:48.000Z</time>
      </trkpt>
      <trkpt lat="47.18729" lon="-1.59154">
        <ele>52</ele>
        <time>2021-05-19T14:47:50.000Z</time>
      </trkpt>
      <trkpt lat="47.18732" lon="-1.59129">
        <ele>52</ele>
        <time>2021-05-19T14:47:52.000Z</time>
      </trkpt>
      <trkpt lat="47.18735" lon="-1.59105">
        <ele>52</ele>
        <time>2021-05-19T14:47:54.000Z</time>
      </trkpt>
      <trkpt lat="47.18738" lon="-1.5908">
        <ele>52</ele>
        <time>2021-05-19T14:47:56.000Z</time>
      </trkpt>
      <trkpt lat="47.1874" lon="-1.59055">
        <ele>52</ele>
        <time>2021-05-19T14:47:58.000Z</time>
      </trkpt>
      <trkpt lat="47.18743" lon="-1.59029">
        <ele>52</ele>
        <time>2021-05-19T14:48:00.000Z</time>
      </trkpt>
      <trkpt lat="47.18745" lon="-1.59004">
        <ele>52</ele>
        <time>2021-05-19T14:48:02.000Z</time>
      </trkpt>
      <trkpt lat="47.18748" lon="-1.58979">
        <ele>52</ele>
        <time>2021-05-19T14:48:04.000Z</time>
      </trkpt>
      <trkpt lat="47.1875" lon="-1.58954">
        <ele>52</ele>
        <time>2021-05-19T14:48:06.000Z</time>
      </trkpt>
      <trkpt lat="47.18753" lon="-1.58929">
        <ele>53</ele>
        <time>2021-05-19T14:48:08.000Z</time>
      </trkpt>
      <trkpt lat="47.18755" lon="-1.58904">
        <ele>53</ele>
        <time>2021-05-19T14:48:10.000Z</time>
      </trkpt>
      <trkpt lat="47.18759" lon="-1.5888">
        <ele>53</ele>
        <time>2021-05-19T14:48:12.000Z</time>
      </trkpt>
      <trkpt lat="47.18761" lon="-1.58856">
        <ele>53</ele>
        <time>2021-05-19T14:48:14.000Z</time>
      </trkpt>
      <trkpt lat="47.18764" lon="-1.58832">
        <ele>53</ele>
        <time>2021-05-19T14:48:16.000Z</time>
      </trkpt>
      <trkpt lat="47.18765" lon="-1.58809">
        <ele>53</ele>
        <time>2021-05-19T14:48:18.000Z</time>
      </trkpt>
      <trkpt lat="47.18764" lon="-1.58785">
        <ele>53</ele>
        <time>2021-05-19T14:48:20.000Z</time>
      </trkpt>
      <trkpt lat="47.18758" lon="-1.58761">
        <ele>53</ele>
        <time>2021-05-19T14:48:22.000Z</time>
      </trkpt>
      <trkpt lat="47.18758" lon="-1.58747">
        <ele>53</ele>
        <time>2021-05-19T14:48:23.000Z</time>
      </trkpt>
      <trkpt lat="47.18763" lon="-1.58723">
        <ele>53</ele>
        <time>2021-05-19T14:48:25.000Z</time>
      </trkpt>
      <trkpt lat="47.18769" lon="-1.58713">
        <ele>53</ele>
        <time>2021-05-19T14:48:26.000Z</time>
      </trkpt>
      <trkpt lat="47.18782" lon="-1.58696">
        <ele>53</ele>
        <time>2021-05-19T14:48:28.000Z</time>
      </trkpt>
      <trkpt lat="47.18789" lon="-1.58673">
        <ele>52</ele>
        <time>2021-05-19T14:48:30.000Z</time>
      </trkpt>
      <trkpt lat="47.18792" lon="-1.58659">
        <ele>52</ele>
        <time>2021-05-19T14:48:31.000Z</time>
      </trkpt>
      <trkpt lat="47.18798" lon="-1.58635">
        <ele>52</ele>
        <time>2021-05-19T14:48:33.000Z</time>
      </trkpt>
      <trkpt lat="47.18802" lon="-1.58623">
        <ele>52</ele>
        <time>2021-05-19T14:48:34.000Z</time>
      </trkpt>
      <trkpt lat="47.18808" lon="-1.58599">
        <ele>52</ele>
        <time>2021-05-19T14:48:36.000Z</time>
      </trkpt>
      <trkpt lat="47.18815" lon="-1.58575">
        <ele>52</ele>
        <time>2021-05-19T14:48:38.000Z</time>
      </trkpt>
      <trkpt lat="47.18822" lon="-1.58551">
        <ele>52</ele>
        <time>2021-05-19T14:48:40.000Z</time>
      </trkpt>
      <trkpt lat="47.18828" lon="-1.58528">
        <ele>52</ele>
        <time>2021-05-19T14:48:42.000Z</time>
      </trkpt>
      <trkpt lat="47.18834" lon="-1.58504">
        <ele>51</ele>
        <time>2021-05-19T14:48:44.000Z</time>
      </trkpt>
      <trkpt lat="47.18841" lon="-1.5848">
        <ele>51</ele>
        <time>2021-05-19T14:48:46.000Z</time>
      </trkpt>
      <trkpt lat="47.18848" lon="-1.58457">
        <ele>51</ele>
        <time>2021-05-19T14:48:48.000Z</time>
      </trkpt>
      <trkpt lat="47.18854" lon="-1.58434">
        <ele>51</ele>
        <time>2021-05-19T14:48:50.000Z</time>
      </trkpt>
      <trkpt lat="47.18862" lon="-1.58412">
        <ele>51</ele>
        <time>2021-05-19T14:48:52.000Z</time>
      </trkpt>
      <trkpt lat="47.18869" lon="-1.5839">
        <ele>50</ele>
        <time>2021-05-19T14:48:54.000Z</time>
      </trkpt>
      <trkpt lat="47.18876" lon="-1.58367">
        <ele>50</ele>
        <time>2021-05-19T14:48:56.000Z</time>
      </trkpt>
      <trkpt lat="47.18884" lon="-1.58345">
        <ele>50</ele>
        <time>2021-05-19T14:48:58.000Z</time>
      </trkpt>
      <trkpt lat="47.18892" lon="-1.58322">
        <ele>50</ele>
        <time>2021-05-19T14:49:00.000Z</time>
      </trkpt>
      <trkpt lat="47.189" lon="-1.58299">
        <ele>50</ele>
        <time>2021-05-19T14:49:02.000Z</time>
      </trkpt>
      <trkpt lat="47.18908" lon="-1.58277">
        <ele>50</ele>
        <time>2021-05-19T14:49:04.000Z</time>
      </trkpt>
      <trkpt lat="47.18915" lon="-1.58255">
        <ele>51</ele>
        <time>2021-05-19T14:49:06.000Z</time>
      </trkpt>
      <trkpt lat="47.18923" lon="-1.58232">
        <ele>50</ele>
        <time>2021-05-19T14:49:08.000Z</time>
      </trkpt>
      <trkpt lat="47.18931" lon="-1.5821">
        <ele>50</ele>
        <time>2021-05-19T14:49:10.000Z</time>
      </trkpt>
      <trkpt lat="47.18939" lon="-1.58188">
        <ele>50</ele>
        <time>2021-05-19T14:49:12.000Z</time>
      </trkpt>
      <trkpt lat="47.18947" lon="-1.58166">
        <ele>50</ele>
        <time>2021-05-19T14:49:14.000Z</time>
      </trkpt>
      <trkpt lat="47.18955" lon="-1.58143">
        <ele>50</ele>
        <time>2021-05-19T14:49:16.000Z</time>
      </trkpt>
      <trkpt lat="47.18962" lon="-1.58121">
        <ele>50</ele>
        <time>2021-05-19T14:49:18.000Z</time>
      </trkpt>
      <trkpt lat="47.1897" lon="-1.58098">
        <ele>49</ele>
        <time>2021-05-19T14:49:20.000Z</time>
      </trkpt>
      <trkpt lat="47.18978" lon="-1.58075">
        <ele>50</ele>
        <time>2021-05-19T14:49:22.000Z</time>
      </trkpt>
      <trkpt lat="47.18986" lon="-1.58052">
        <ele>50</ele>
        <time>2021-05-19T14:49:24.000Z</time>
      </trkpt>
      <trkpt lat="47.18994" lon="-1.58029">
        <ele>51</ele>
        <time>2021-05-19T14:49:26.000Z</time>
      </trkpt>
      <trkpt lat="47.19002" lon="-1.58006">
        <ele>51</ele>
        <time>2021-05-19T14:49:28.000Z</time>
      </trkpt>
      <trkpt lat="47.1901" lon="-1.57983">
        <ele>51</ele>
        <time>2021-05-19T14:49:30.000Z</time>
      </trkpt>
      <trkpt lat="47.19018" lon="-1.57961">
        <ele>51</ele>
        <time>2021-05-19T14:49:32.000Z</time>
      </trkpt>
      <trkpt lat="47.19026" lon="-1.57939">
        <ele>51</ele>
        <time>2021-05-19T14:49:34.000Z</time>
      </trkpt>
      <trkpt lat="47.19034" lon="-1.57917">
        <ele>51</ele>
        <time>2021-05-19T14:49:36.000Z</time>
      </trkpt>
      <trkpt lat="47.19042" lon="-1.57895">
        <ele>51</ele>
        <time>2021-05-19T14:49:38.000Z</time>
      </trkpt>
      <trkpt lat="47.1905" lon="-1.57873">
        <ele>52</ele>
        <time>2021-05-19T14:49:40.000Z</time>
      </trkpt>
      <trkpt lat="47.19058" lon="-1.5785">
        <ele>52</ele>
        <time>2021-05-19T14:49:42.000Z</time>
      </trkpt>
      <trkpt lat="47.19065" lon="-1.57828">
        <ele>51</ele>
        <time>2021-05-19T14:49:44.000Z</time>
      </trkpt>
      <trkpt lat="47.19073" lon="-1.57805">
        <ele>51</ele>
        <time>2021-05-19T14:49:46.000Z</time>
      </trkpt>
      <trkpt lat="47.19082" lon="-1.57783">
        <ele>51</ele>
        <time>2021-05-19T14:49:48.000Z</time>
      </trkpt>
      <trkpt lat="47.1909" lon="-1.5776">
        <ele>51</ele>
        <time>2021-05-19T14:49:50.000Z</time>
      </trkpt>
      <trkpt lat="47.19098" lon="-1.57738">
        <ele>51</ele>
        <time>2021-05-19T14:49:52.000Z</time>
      </trkpt>
      <trkpt lat="47.19107" lon="-1.57716">
        <ele>51</ele>
        <time>2021-05-19T14:49:54.000Z</time>
      </trkpt>
      <trkpt lat="47.19115" lon="-1.57693">
        <ele>51</ele>
        <time>2021-05-19T14:49:56.000Z</time>
      </trkpt>
      <trkpt lat="47.19122" lon="-1.57671">
        <ele>51</ele>
        <time>2021-05-19T14:49:58.000Z</time>
      </trkpt>
      <trkpt lat="47.19131" lon="-1.57649">
        <ele>51</ele>
        <time>2021-05-19T14:50:00.000Z</time>
      </trkpt>
      <trkpt lat="47.19138" lon="-1.57627">
        <ele>51</ele>
        <time>2021-05-19T14:50:02.000Z</time>
      </trkpt>
      <trkpt lat="47.19146" lon="-1.57604">
        <ele>51</ele>
        <time>2021-05-19T14:50:04.000Z</time>
      </trkpt>
      <trkpt lat="47.1915" lon="-1.57593">
        <ele>50</ele>
        <time>2021-05-19T14:50:05.000Z</time>
      </trkpt>
      <trkpt lat="47.19158" lon="-1.57571">
        <ele>50</ele>
        <time>2021-05-19T14:50:07.000Z</time>
      </trkpt>
      <trkpt lat="47.19166" lon="-1.57548">
        <ele>50</ele>
        <time>2021-05-19T14:50:09.000Z</time>
      </trkpt>
      <trkpt lat="47.19174" lon="-1.57526">
        <ele>50</ele>
        <time>2021-05-19T14:50:11.000Z</time>
      </trkpt>
      <trkpt lat="47.19181" lon="-1.57503">
        <ele>50</ele>
        <time>2021-05-19T14:50:13.000Z</time>
      </trkpt>
      <trkpt lat="47.19188" lon="-1.5748">
        <ele>50</ele>
        <time>2021-05-19T14:50:15.000Z</time>
      </trkpt>
      <trkpt lat="47.19194" lon="-1.57458">
        <ele>50</ele>
        <time>2021-05-19T14:50:17.000Z</time>
      </trkpt>
      <trkpt lat="47.19201" lon="-1.57436">
        <ele>49</ele>
        <time>2021-05-19T14:50:19.000Z</time>
      </trkpt>
      <trkpt lat="47.19207" lon="-1.57414">
        <ele>49</ele>
        <time>2021-05-19T14:50:21.000Z</time>
      </trkpt>
      <trkpt lat="47.19213" lon="-1.57391">
        <ele>50</ele>
        <time>2021-05-19T14:50:23.000Z</time>
      </trkpt>
      <trkpt lat="47.19219" lon="-1.57369">
        <ele>50</ele>
        <time>2021-05-19T14:50:25.000Z</time>
      </trkpt>
      <trkpt lat="47.19224" lon="-1.57346">
        <ele>50</ele>
        <time>2021-05-19T14:50:27.000Z</time>
      </trkpt>
      <trkpt lat="47.19229" lon="-1.57323">
        <ele>51</ele>
        <time>2021-05-19T14:50:29.000Z</time>
      </trkpt>
      <trkpt lat="47.19233" lon="-1.573">
        <ele>51</ele>
        <time>2021-05-19T14:50:31.000Z</time>
      </trkpt>
      <trkpt lat="47.19237" lon="-1.57276">
        <ele>51</ele>
        <time>2021-05-19T14:50:33.000Z</time>
      </trkpt>
      <trkpt lat="47.1924" lon="-1.57252">
        <ele>52</ele>
        <time>2021-05-19T14:50:35.000Z</time>
      </trkpt>
      <trkpt lat="47.19243" lon="-1.57227">
        <ele>52</ele>
        <time>2021-05-19T14:50:37.000Z</time>
      </trkpt>
      <trkpt lat="47.19245" lon="-1.57204">
        <ele>52</ele>
        <time>2021-05-19T14:50:39.000Z</time>
      </trkpt>
      <trkpt lat="47.19248" lon="-1.57181">
        <ele>52</ele>
        <time>2021-05-19T14:50:41.000Z</time>
      </trkpt>
      <trkpt lat="47.19253" lon="-1.57157">
        <ele>51</ele>
        <time>2021-05-19T14:50:43.000Z</time>
      </trkpt>
      <trkpt lat="47.19257" lon="-1.57135">
        <ele>50</ele>
        <time>2021-05-19T14:50:45.000Z</time>
      </trkpt>
      <trkpt lat="47.1926" lon="-1.57112">
        <ele>51</ele>
        <time>2021-05-19T14:50:47.000Z</time>
      </trkpt>
      <trkpt lat="47.19263" lon="-1.5709">
        <ele>51</ele>
        <time>2021-05-19T14:50:49.000Z</time>
      </trkpt>
      <trkpt lat="47.19262" lon="-1.57076">
        <ele>51</ele>
        <time>2021-05-19T14:50:52.000Z</time>
      </trkpt>
      <trkpt lat="47.19256" lon="-1.57063">
        <ele>51</ele>
        <time>2021-05-19T14:50:57.000Z</time>
      </trkpt>
      <trkpt lat="47.19255" lon="-1.57048">
        <ele>51</ele>
        <time>2021-05-19T14:50:59.000Z</time>
      </trkpt>
      <trkpt lat="47.19261" lon="-1.57031">
        <ele>51</ele>
        <time>2021-05-19T14:51:01.000Z</time>
      </trkpt>
      <trkpt lat="47.1927" lon="-1.57013">
        <ele>50</ele>
        <time>2021-05-19T14:51:03.000Z</time>
      </trkpt>
      <trkpt lat="47.19275" lon="-1.5699">
        <ele>50</ele>
        <time>2021-05-19T14:51:05.000Z</time>
      </trkpt>
      <trkpt lat="47.19277" lon="-1.56967">
        <ele>50</ele>
        <time>2021-05-19T14:51:07.000Z</time>
      </trkpt>
      <trkpt lat="47.1928" lon="-1.56943">
        <ele>51</ele>
        <time>2021-05-19T14:51:09.000Z</time>
      </trkpt>
      <trkpt lat="47.19282" lon="-1.56919">
        <ele>51</ele>
        <time>2021-05-19T14:51:11.000Z</time>
      </trkpt>
      <trkpt lat="47.19285" lon="-1.56895">
        <ele>51</ele>
        <time>2021-05-19T14:51:13.000Z</time>
      </trkpt>
      <trkpt lat="47.19287" lon="-1.56871">
        <ele>51</ele>
        <time>2021-05-19T14:51:15.000Z</time>
      </trkpt>
      <trkpt lat="47.1929" lon="-1.56847">
        <ele>50</ele>
        <time>2021-05-19T14:51:17.000Z</time>
      </trkpt>
      <trkpt lat="47.19289" lon="-1.56824">
        <ele>50</ele>
        <time>2021-05-19T14:51:19.000Z</time>
      </trkpt>
      <trkpt lat="47.19289" lon="-1.568">
        <ele>52</ele>
        <time>2021-05-19T14:51:21.000Z</time>
      </trkpt>
      <trkpt lat="47.1929" lon="-1.56777">
        <ele>52</ele>
        <time>2021-05-19T14:51:23.000Z</time>
      </trkpt>
      <trkpt lat="47.19289" lon="-1.56754">
        <ele>52</ele>
        <time>2021-05-19T14:51:25.000Z</time>
      </trkpt>
      <trkpt lat="47.19289" lon="-1.5673">
        <ele>53</ele>
        <time>2021-05-19T14:51:27.000Z</time>
      </trkpt>
      <trkpt lat="47.19288" lon="-1.56706">
        <ele>53</ele>
        <time>2021-05-19T14:51:29.000Z</time>
      </trkpt>
      <trkpt lat="47.19288" lon="-1.56683">
        <ele>53</ele>
        <time>2021-05-19T14:51:31.000Z</time>
      </trkpt>
      <trkpt lat="47.19286" lon="-1.5666">
        <ele>53</ele>
        <time>2021-05-19T14:51:33.000Z</time>
      </trkpt>
      <trkpt lat="47.19284" lon="-1.56637">
        <ele>53</ele>
        <time>2021-05-19T14:51:35.000Z</time>
      </trkpt>
      <trkpt lat="47.19282" lon="-1.56614">
        <ele>54</ele>
        <time>2021-05-19T14:51:37.000Z</time>
      </trkpt>
      <trkpt lat="47.1928" lon="-1.56591">
        <ele>54</ele>
        <time>2021-05-19T14:51:39.000Z</time>
      </trkpt>
      <trkpt lat="47.19277" lon="-1.56569">
        <ele>54</ele>
        <time>2021-05-19T14:51:41.000Z</time>
      </trkpt>
      <trkpt lat="47.19275" lon="-1.56545">
        <ele>54</ele>
        <time>2021-05-19T14:51:43.000Z</time>
      </trkpt>
      <trkpt lat="47.19273" lon="-1.56523">
        <ele>54</ele>
        <time>2021-05-19T14:51:45.000Z</time>
      </trkpt>
      <trkpt lat="47.19271" lon="-1.56501">
        <ele>54</ele>
        <time>2021-05-19T14:51:47.000Z</time>
      </trkpt>
      <trkpt lat="47.19269" lon="-1.56479">
        <ele>54</ele>
        <time>2021-05-19T14:51:49.000Z</time>
      </trkpt>
      <trkpt lat="47.19266" lon="-1.56457">
        <ele>54</ele>
        <time>2021-05-19T14:51:51.000Z</time>
      </trkpt>
      <trkpt lat="47.19265" lon="-1.56436">
        <ele>54</ele>
        <time>2021-05-19T14:51:53.000Z</time>
      </trkpt>
      <trkpt lat="47.19264" lon="-1.56414">
        <ele>54</ele>
        <time>2021-05-19T14:51:55.000Z</time>
      </trkpt>
      <trkpt lat="47.19263" lon="-1.56392">
        <ele>54</ele>
        <time>2021-05-19T14:51:57.000Z</time>
      </trkpt>
      <trkpt lat="47.1926" lon="-1.5637">
        <ele>54</ele>
        <time>2021-05-19T14:51:59.000Z</time>
      </trkpt>
      <trkpt lat="47.19256" lon="-1.5635">
        <ele>54</ele>
        <time>2021-05-19T14:52:01.000Z</time>
      </trkpt>
      <trkpt lat="47.1925" lon="-1.56331">
        <ele>54</ele>
        <time>2021-05-19T14:52:03.000Z</time>
      </trkpt>
      <trkpt lat="47.1924" lon="-1.56316">
        <ele>54</ele>
        <time>2021-05-19T14:52:05.000Z</time>
      </trkpt>
      <trkpt lat="47.19233" lon="-1.56299">
        <ele>54</ele>
        <time>2021-05-19T14:52:07.000Z</time>
      </trkpt>
      <trkpt lat="47.19233" lon="-1.56277">
        <ele>55</ele>
        <time>2021-05-19T14:52:09.000Z</time>
      </trkpt>
      <trkpt lat="47.19241" lon="-1.56256">
        <ele>54</ele>
        <time>2021-05-19T14:52:11.000Z</time>
      </trkpt>
      <trkpt lat="47.19246" lon="-1.56235">
        <ele>53</ele>
        <time>2021-05-19T14:52:13.000Z</time>
      </trkpt>
      <trkpt lat="47.19243" lon="-1.56212">
        <ele>53</ele>
        <time>2021-05-19T14:52:15.000Z</time>
      </trkpt>
      <trkpt lat="47.19244" lon="-1.56189">
        <ele>52</ele>
        <time>2021-05-19T14:52:17.000Z</time>
      </trkpt>
      <trkpt lat="47.19244" lon="-1.56154">
        <ele>52</ele>
        <time>2021-05-19T14:52:20.000Z</time>
      </trkpt>
      <trkpt lat="47.19244" lon="-1.56131">
        <ele>52</ele>
        <time>2021-05-19T14:52:22.000Z</time>
      </trkpt>
      <trkpt lat="47.19242" lon="-1.56108">
        <ele>53</ele>
        <time>2021-05-19T14:52:24.000Z</time>
      </trkpt>
      <trkpt lat="47.19242" lon="-1.56085">
        <ele>52</ele>
        <time>2021-05-19T14:52:26.000Z</time>
      </trkpt>
      <trkpt lat="47.1924" lon="-1.56062">
        <ele>53</ele>
        <time>2021-05-19T14:52:28.000Z</time>
      </trkpt>
      <trkpt lat="47.19238" lon="-1.56039">
        <ele>53</ele>
        <time>2021-05-19T14:52:30.000Z</time>
      </trkpt>
      <trkpt lat="47.19237" lon="-1.56016">
        <ele>52</ele>
        <time>2021-05-19T14:52:32.000Z</time>
      </trkpt>
      <trkpt lat="47.19233" lon="-1.5598">
        <ele>53</ele>
        <time>2021-05-19T14:52:35.000Z</time>
      </trkpt>
      <trkpt lat="47.1923" lon="-1.55957">
        <ele>53</ele>
        <time>2021-05-19T14:52:37.000Z</time>
      </trkpt>
      <trkpt lat="47.19227" lon="-1.55935">
        <ele>53</ele>
        <time>2021-05-19T14:52:39.000Z</time>
      </trkpt>
      <trkpt lat="47.19225" lon="-1.55912">
        <ele>54</ele>
        <time>2021-05-19T14:52:41.000Z</time>
      </trkpt>
      <trkpt lat="47.19223" lon="-1.55889">
        <ele>53</ele>
        <time>2021-05-19T14:52:43.000Z</time>
      </trkpt>
      <trkpt lat="47.19222" lon="-1.55866">
        <ele>53</ele>
        <time>2021-05-19T14:52:45.000Z</time>
      </trkpt>
      <trkpt lat="47.19221" lon="-1.55843">
        <ele>53</ele>
        <time>2021-05-19T14:52:47.000Z</time>
      </trkpt>
      <trkpt lat="47.1922" lon="-1.55819">
        <ele>52</ele>
        <time>2021-05-19T14:52:49.000Z</time>
      </trkpt>
      <trkpt lat="47.19219" lon="-1.55795">
        <ele>52</ele>
        <time>2021-05-19T14:52:51.000Z</time>
      </trkpt>
      <trkpt lat="47.19218" lon="-1.55759">
        <ele>53</ele>
        <time>2021-05-19T14:52:54.000Z</time>
      </trkpt>
      <trkpt lat="47.19218" lon="-1.55735">
        <ele>53</ele>
        <time>2021-05-19T14:52:56.000Z</time>
      </trkpt>
      <trkpt lat="47.19218" lon="-1.55699">
        <ele>53</ele>
        <time>2021-05-19T14:52:59.000Z</time>
      </trkpt>
      <trkpt lat="47.1922" lon="-1.55676">
        <ele>53</ele>
        <time>2021-05-19T14:53:01.000Z</time>
      </trkpt>
      <trkpt lat="47.1922" lon="-1.55652">
        <ele>52</ele>
        <time>2021-05-19T14:53:03.000Z</time>
      </trkpt>
      <trkpt lat="47.19222" lon="-1.55618">
        <ele>52</ele>
        <time>2021-05-19T14:53:06.000Z</time>
      </trkpt>
      <trkpt lat="47.19224" lon="-1.55595">
        <ele>52</ele>
        <time>2021-05-19T14:53:08.000Z</time>
      </trkpt>
      <trkpt lat="47.19226" lon="-1.55572">
        <ele>52</ele>
        <time>2021-05-19T14:53:10.000Z</time>
      </trkpt>
      <trkpt lat="47.19228" lon="-1.5555">
        <ele>52</ele>
        <time>2021-05-19T14:53:12.000Z</time>
      </trkpt>
      <trkpt lat="47.19231" lon="-1.55527">
        <ele>52</ele>
        <time>2021-05-19T14:53:14.000Z</time>
      </trkpt>
      <trkpt lat="47.19233" lon="-1.55505">
        <ele>52</ele>
        <time>2021-05-19T14:53:16.000Z</time>
      </trkpt>
      <trkpt lat="47.19232" lon="-1.55486">
        <ele>51</ele>
        <time>2021-05-19T14:53:18.000Z</time>
      </trkpt>
      <trkpt lat="47.1923" lon="-1.55469">
        <ele>51</ele>
        <time>2021-05-19T14:53:20.000Z</time>
      </trkpt>
      <trkpt lat="47.1922" lon="-1.55455">
        <ele>51</ele>
        <time>2021-05-19T14:53:22.000Z</time>
      </trkpt>
      <trkpt lat="47.19216" lon="-1.55421">
        <ele>52</ele>
        <time>2021-05-19T14:53:25.000Z</time>
      </trkpt>
      <trkpt lat="47.19235" lon="-1.55398">
        <ele>52</ele>
        <time>2021-05-19T14:53:28.000Z</time>
      </trkpt>
      <trkpt lat="47.19244" lon="-1.55379">
        <ele>52</ele>
        <time>2021-05-19T14:53:30.000Z</time>
      </trkpt>
      <trkpt lat="47.1925" lon="-1.55356">
        <ele>52</ele>
        <time>2021-05-19T14:53:32.000Z</time>
      </trkpt>
      <trkpt lat="47.19257" lon="-1.55334">
        <ele>52</ele>
        <time>2021-05-19T14:53:34.000Z</time>
      </trkpt>
      <trkpt lat="47.1926" lon="-1.55322">
        <ele>52</ele>
        <time>2021-05-19T14:53:35.000Z</time>
      </trkpt>
      <trkpt lat="47.19265" lon="-1.55298">
        <ele>53</ele>
        <time>2021-05-19T14:53:37.000Z</time>
      </trkpt>
      <trkpt lat="47.19272" lon="-1.55263">
        <ele>53</ele>
        <time>2021-05-19T14:53:40.000Z</time>
      </trkpt>
      <trkpt lat="47.19277" lon="-1.5524">
        <ele>53</ele>
        <time>2021-05-19T14:53:42.000Z</time>
      </trkpt>
      <trkpt lat="47.19286" lon="-1.55204">
        <ele>53</ele>
        <time>2021-05-19T14:53:45.000Z</time>
      </trkpt>
      <trkpt lat="47.19294" lon="-1.55171">
        <ele>54</ele>
        <time>2021-05-19T14:53:48.000Z</time>
      </trkpt>
      <trkpt lat="47.193" lon="-1.55148">
        <ele>55</ele>
        <time>2021-05-19T14:53:50.000Z</time>
      </trkpt>
      <trkpt lat="47.19306" lon="-1.55127">
        <ele>56</ele>
        <time>2021-05-19T14:53:52.000Z</time>
      </trkpt>
      <trkpt lat="47.19311" lon="-1.55106">
        <ele>56</ele>
        <time>2021-05-19T14:53:54.000Z</time>
      </trkpt>
      <trkpt lat="47.19316" lon="-1.55086">
        <ele>56</ele>
        <time>2021-05-19T14:53:56.000Z</time>
      </trkpt>
      <trkpt lat="47.19321" lon="-1.55067">
        <ele>57</ele>
        <time>2021-05-19T14:53:58.000Z</time>
      </trkpt>
      <trkpt lat="47.19326" lon="-1.55046">
        <ele>58</ele>
        <time>2021-05-19T14:54:00.000Z</time>
      </trkpt>
      <trkpt lat="47.19331" lon="-1.55026">
        <ele>58</ele>
        <time>2021-05-19T14:54:02.000Z</time>
      </trkpt>
      <trkpt lat="47.19337" lon="-1.55006">
        <ele>58</ele>
        <time>2021-05-19T14:54:04.000Z</time>
      </trkpt>
      <trkpt lat="47.19342" lon="-1.54986">
        <ele>58</ele>
        <time>2021-05-19T14:54:06.000Z</time>
      </trkpt>
      <trkpt lat="47.19347" lon="-1.54966">
        <ele>59</ele>
        <time>2021-05-19T14:54:08.000Z</time>
      </trkpt>
      <trkpt lat="47.19352" lon="-1.54945">
        <ele>59</ele>
        <time>2021-05-19T14:54:10.000Z</time>
      </trkpt>
      <trkpt lat="47.19357" lon="-1.54925">
        <ele>59</ele>
        <time>2021-05-19T14:54:12.000Z</time>
      </trkpt>
      <trkpt lat="47.19362" lon="-1.54906">
        <ele>58</ele>
        <time>2021-05-19T14:54:14.000Z</time>
      </trkpt>
      <trkpt lat="47.19367" lon="-1.54885">
        <ele>58</ele>
        <time>2021-05-19T14:54:16.000Z</time>
      </trkpt>
      <trkpt lat="47.19371" lon="-1.54864">
        <ele>59</ele>
        <time>2021-05-19T14:54:18.000Z</time>
      </trkpt>
      <trkpt lat="47.19377" lon="-1.54841">
        <ele>59</ele>
        <time>2021-05-19T14:54:20.000Z</time>
      </trkpt>
      <trkpt lat="47.1938" lon="-1.54829">
        <ele>59</ele>
        <time>2021-05-19T14:54:21.000Z</time>
      </trkpt>
      <trkpt lat="47.19386" lon="-1.54805">
        <ele>58</ele>
        <time>2021-05-19T14:54:23.000Z</time>
      </trkpt>
      <trkpt lat="47.19389" lon="-1.54792">
        <ele>57</ele>
        <time>2021-05-19T14:54:24.000Z</time>
      </trkpt>
      <trkpt lat="47.19392" lon="-1.54779">
        <ele>57</ele>
        <time>2021-05-19T14:54:25.000Z</time>
      </trkpt>
      <trkpt lat="47.19395" lon="-1.54766">
        <ele>56</ele>
        <time>2021-05-19T14:54:26.000Z</time>
      </trkpt>
      <trkpt lat="47.19398" lon="-1.54753">
        <ele>56</ele>
        <time>2021-05-19T14:54:27.000Z</time>
      </trkpt>
      <trkpt lat="47.19401" lon="-1.5474">
        <ele>56</ele>
        <time>2021-05-19T14:54:28.000Z</time>
      </trkpt>
      <trkpt lat="47.19406" lon="-1.54715">
        <ele>54</ele>
        <time>2021-05-19T14:54:30.000Z</time>
      </trkpt>
      <trkpt lat="47.1941" lon="-1.54693">
        <ele>54</ele>
        <time>2021-05-19T14:54:32.000Z</time>
      </trkpt>
      <trkpt lat="47.19414" lon="-1.54674">
        <ele>54</ele>
        <time>2021-05-19T14:54:34.000Z</time>
      </trkpt>
      <trkpt lat="47.1942" lon="-1.54656">
        <ele>53</ele>
        <time>2021-05-19T14:54:36.000Z</time>
      </trkpt>
      <trkpt lat="47.19426" lon="-1.54641">
        <ele>53</ele>
        <time>2021-05-19T14:54:38.000Z</time>
      </trkpt>
      <trkpt lat="47.1943" lon="-1.54629">
        <ele>53</ele>
        <time>2021-05-19T14:54:40.000Z</time>
      </trkpt>
      <trkpt lat="47.19428" lon="-1.54614">
        <ele>53</ele>
        <time>2021-05-19T14:54:44.000Z</time>
      </trkpt>
      <trkpt lat="47.19422" lon="-1.54604">
        <ele>53</ele>
        <time>2021-05-19T14:54:46.000Z</time>
      </trkpt>
      <trkpt lat="47.19421" lon="-1.54586">
        <ele>52</ele>
        <time>2021-05-19T14:54:48.000Z</time>
      </trkpt>
      <trkpt lat="47.19427" lon="-1.5457">
        <ele>53</ele>
        <time>2021-05-19T14:54:50.000Z</time>
      </trkpt>
      <trkpt lat="47.19437" lon="-1.54555">
        <ele>53</ele>
        <time>2021-05-19T14:54:52.000Z</time>
      </trkpt>
      <trkpt lat="47.19449" lon="-1.54545">
        <ele>53</ele>
        <time>2021-05-19T14:54:54.000Z</time>
      </trkpt>
      <trkpt lat="47.19456" lon="-1.54527">
        <ele>53</ele>
        <time>2021-05-19T14:54:56.000Z</time>
      </trkpt>
      <trkpt lat="47.19462" lon="-1.54509">
        <ele>53</ele>
        <time>2021-05-19T14:54:58.000Z</time>
      </trkpt>
      <trkpt lat="47.19469" lon="-1.54491">
        <ele>53</ele>
        <time>2021-05-19T14:55:00.000Z</time>
      </trkpt>
      <trkpt lat="47.19473" lon="-1.54473">
        <ele>54</ele>
        <time>2021-05-19T14:55:02.000Z</time>
      </trkpt>
      <trkpt lat="47.19482" lon="-1.5446">
        <ele>54</ele>
        <time>2021-05-19T14:55:04.000Z</time>
      </trkpt>
      <trkpt lat="47.19495" lon="-1.54452">
        <ele>54</ele>
        <time>2021-05-19T14:55:06.000Z</time>
      </trkpt>
      <trkpt lat="47.19507" lon="-1.54444">
        <ele>55</ele>
        <time>2021-05-19T14:55:08.000Z</time>
      </trkpt>
      <trkpt lat="47.19521" lon="-1.54433">
        <ele>55</ele>
        <time>2021-05-19T14:55:10.000Z</time>
      </trkpt>
      <trkpt lat="47.19535" lon="-1.54422">
        <ele>55</ele>
        <time>2021-05-19T14:55:12.000Z</time>
      </trkpt>
      <trkpt lat="47.19549" lon="-1.54411">
        <ele>55</ele>
        <time>2021-05-19T14:55:14.000Z</time>
      </trkpt>
      <trkpt lat="47.19563" lon="-1.54398">
        <ele>55</ele>
        <time>2021-05-19T14:55:16.000Z</time>
      </trkpt>
      <trkpt lat="47.19578" lon="-1.54387">
        <ele>54</ele>
        <time>2021-05-19T14:55:18.000Z</time>
      </trkpt>
      <trkpt lat="47.19593" lon="-1.54375">
        <ele>54</ele>
        <time>2021-05-19T14:55:20.000Z</time>
      </trkpt>
      <trkpt lat="47.19601" lon="-1.54368">
        <ele>54</ele>
        <time>2021-05-19T14:55:21.000Z</time>
      </trkpt>
      <trkpt lat="47.19609" lon="-1.5436">
        <ele>54</ele>
        <time>2021-05-19T14:55:22.000Z</time>
      </trkpt>
      <trkpt lat="47.19622" lon="-1.54342">
        <ele>54</ele>
        <time>2021-05-19T14:55:24.000Z</time>
      </trkpt>
      <trkpt lat="47.19629" lon="-1.54333">
        <ele>54</ele>
        <time>2021-05-19T14:55:25.000Z</time>
      </trkpt>
      <trkpt lat="47.19636" lon="-1.54323">
        <ele>54</ele>
        <time>2021-05-19T14:55:26.000Z</time>
      </trkpt>
      <trkpt lat="47.19642" lon="-1.54314">
        <ele>54</ele>
        <time>2021-05-19T14:55:27.000Z</time>
      </trkpt>
      <trkpt lat="47.19656" lon="-1.54299">
        <ele>56</ele>
        <time>2021-05-19T14:55:29.000Z</time>
      </trkpt>
      <trkpt lat="47.1967" lon="-1.54287">
        <ele>55</ele>
        <time>2021-05-19T14:55:31.000Z</time>
      </trkpt>
      <trkpt lat="47.19684" lon="-1.54275">
        <ele>55</ele>
        <time>2021-05-19T14:55:33.000Z</time>
      </trkpt>
      <trkpt lat="47.19698" lon="-1.54264">
        <ele>54</ele>
        <time>2021-05-19T14:55:35.000Z</time>
      </trkpt>
      <trkpt lat="47.19713" lon="-1.54256">
        <ele>54</ele>
        <time>2021-05-19T14:55:37.000Z</time>
      </trkpt>
      <trkpt lat="47.19729" lon="-1.54247">
        <ele>55</ele>
        <time>2021-05-19T14:55:39.000Z</time>
      </trkpt>
      <trkpt lat="47.19743" lon="-1.54234">
        <ele>55</ele>
        <time>2021-05-19T14:55:41.000Z</time>
      </trkpt>
      <trkpt lat="47.19756" lon="-1.54221">
        <ele>55</ele>
        <time>2021-05-19T14:55:43.000Z</time>
      </trkpt>
      <trkpt lat="47.19768" lon="-1.54207">
        <ele>56</ele>
        <time>2021-05-19T14:55:45.000Z</time>
      </trkpt>
      <trkpt lat="47.1978" lon="-1.54198">
        <ele>56</ele>
        <time>2021-05-19T14:55:47.000Z</time>
      </trkpt>
      <trkpt lat="47.19787" lon="-1.54181">
        <ele>56</ele>
        <time>2021-05-19T14:55:49.000Z</time>
      </trkpt>
      <trkpt lat="47.19791" lon="-1.54163">
        <ele>56</ele>
        <time>2021-05-19T14:55:51.000Z</time>
      </trkpt>
      <trkpt lat="47.19793" lon="-1.54147">
        <ele>55</ele>
        <time>2021-05-19T14:55:53.000Z</time>
      </trkpt>
      <trkpt lat="47.19796" lon="-1.54129">
        <ele>55</ele>
        <time>2021-05-19T14:55:55.000Z</time>
      </trkpt>
      <trkpt lat="47.19806" lon="-1.54113">
        <ele>54</ele>
        <time>2021-05-19T14:55:57.000Z</time>
      </trkpt>
      <trkpt lat="47.1982" lon="-1.54104">
        <ele>53</ele>
        <time>2021-05-19T14:55:59.000Z</time>
      </trkpt>
      <trkpt lat="47.19831" lon="-1.54089">
        <ele>52</ele>
        <time>2021-05-19T14:56:01.000Z</time>
      </trkpt>
      <trkpt lat="47.19839" lon="-1.5407">
        <ele>51</ele>
        <time>2021-05-19T14:56:03.000Z</time>
      </trkpt>
      <trkpt lat="47.19849" lon="-1.54052">
        <ele>50</ele>
        <time>2021-05-19T14:56:05.000Z</time>
      </trkpt>
      <trkpt lat="47.19856" lon="-1.54029">
        <ele>50</ele>
        <time>2021-05-19T14:56:07.000Z</time>
      </trkpt>
      <trkpt lat="47.19862" lon="-1.54007">
        <ele>50</ele>
        <time>2021-05-19T14:56:09.000Z</time>
      </trkpt>
      <trkpt lat="47.19869" lon="-1.53984">
        <ele>50</ele>
        <time>2021-05-19T14:56:11.000Z</time>
      </trkpt>
      <trkpt lat="47.19876" lon="-1.53961">
        <ele>50</ele>
        <time>2021-05-19T14:56:13.000Z</time>
      </trkpt>
      <trkpt lat="47.19882" lon="-1.53938">
        <ele>51</ele>
        <time>2021-05-19T14:56:15.000Z</time>
      </trkpt>
      <trkpt lat="47.19887" lon="-1.53915">
        <ele>51</ele>
        <time>2021-05-19T14:56:17.000Z</time>
      </trkpt>
      <trkpt lat="47.19893" lon="-1.53891">
        <ele>51</ele>
        <time>2021-05-19T14:56:19.000Z</time>
      </trkpt>
      <trkpt lat="47.19899" lon="-1.53869">
        <ele>51</ele>
        <time>2021-05-19T14:56:21.000Z</time>
      </trkpt>
      <trkpt lat="47.19902" lon="-1.53846">
        <ele>50</ele>
        <time>2021-05-19T14:56:23.000Z</time>
      </trkpt>
      <trkpt lat="47.19905" lon="-1.53825">
        <ele>51</ele>
        <time>2021-05-19T14:56:25.000Z</time>
      </trkpt>
      <trkpt lat="47.1991" lon="-1.53802">
        <ele>50</ele>
        <time>2021-05-19T14:56:27.000Z</time>
      </trkpt>
      <trkpt lat="47.19913" lon="-1.53779">
        <ele>50</ele>
        <time>2021-05-19T14:56:29.000Z</time>
      </trkpt>
      <trkpt lat="47.19919" lon="-1.53753">
        <ele>50</ele>
        <time>2021-05-19T14:56:31.000Z</time>
      </trkpt>
      <trkpt lat="47.19926" lon="-1.53738">
        <ele>50</ele>
        <time>2021-05-19T14:56:32.000Z</time>
      </trkpt>
      <trkpt lat="47.19929" lon="-1.53726">
        <ele>49</ele>
        <time>2021-05-19T14:56:33.000Z</time>
      </trkpt>
      <trkpt lat="47.19933" lon="-1.53713">
        <ele>50</ele>
        <time>2021-05-19T14:56:34.000Z</time>
      </trkpt>
      <trkpt lat="47.19939" lon="-1.53689">
        <ele>50</ele>
        <time>2021-05-19T14:56:36.000Z</time>
      </trkpt>
      <trkpt lat="47.19944" lon="-1.53664">
        <ele>51</ele>
        <time>2021-05-19T14:56:38.000Z</time>
      </trkpt>
      <trkpt lat="47.1995" lon="-1.5364">
        <ele>51</ele>
        <time>2021-05-19T14:56:40.000Z</time>
      </trkpt>
      <trkpt lat="47.19956" lon="-1.53616">
        <ele>50</ele>
        <time>2021-05-19T14:56:42.000Z</time>
      </trkpt>
      <trkpt lat="47.19962" lon="-1.53593">
        <ele>50</ele>
        <time>2021-05-19T14:56:44.000Z</time>
      </trkpt>
      <trkpt lat="47.19969" lon="-1.5357">
        <ele>50</ele>
        <time>2021-05-19T14:56:46.000Z</time>
      </trkpt>
      <trkpt lat="47.19974" lon="-1.53547">
        <ele>50</ele>
        <time>2021-05-19T14:56:48.000Z</time>
      </trkpt>
      <trkpt lat="47.1998" lon="-1.53525">
        <ele>50</ele>
        <time>2021-05-19T14:56:50.000Z</time>
      </trkpt>
      <trkpt lat="47.19985" lon="-1.53504">
        <ele>50</ele>
        <time>2021-05-19T14:56:52.000Z</time>
      </trkpt>
      <trkpt lat="47.19989" lon="-1.53483">
        <ele>51</ele>
        <time>2021-05-19T14:56:54.000Z</time>
      </trkpt>
      <trkpt lat="47.19998" lon="-1.5347">
        <ele>52</ele>
        <time>2021-05-19T14:56:56.000Z</time>
      </trkpt>
      <trkpt lat="47.20011" lon="-1.53471">
        <ele>52</ele>
        <time>2021-05-19T14:56:58.000Z</time>
      </trkpt>
      <trkpt lat="47.20022" lon="-1.53461">
        <ele>52</ele>
        <time>2021-05-19T14:57:00.000Z</time>
      </trkpt>
      <trkpt lat="47.20029" lon="-1.53444">
        <ele>52</ele>
        <time>2021-05-19T14:57:02.000Z</time>
      </trkpt>
      <trkpt lat="47.20036" lon="-1.53427">
        <ele>52</ele>
        <time>2021-05-19T14:57:04.000Z</time>
      </trkpt>
      <trkpt lat="47.20042" lon="-1.5341">
        <ele>52</ele>
        <time>2021-05-19T14:57:06.000Z</time>
      </trkpt>
      <trkpt lat="47.2005" lon="-1.53396">
        <ele>52</ele>
        <time>2021-05-19T14:57:08.000Z</time>
      </trkpt>
      <trkpt lat="47.20056" lon="-1.53384">
        <ele>52</ele>
        <time>2021-05-19T14:57:10.000Z</time>
      </trkpt>
      <trkpt lat="47.20062" lon="-1.53369">
        <ele>52</ele>
        <time>2021-05-19T14:57:12.000Z</time>
      </trkpt>
      <trkpt lat="47.20068" lon="-1.53358">
        <ele>53</ele>
        <time>2021-05-19T14:57:14.000Z</time>
      </trkpt>
      <trkpt lat="47.20077" lon="-1.53347">
        <ele>53</ele>
        <time>2021-05-19T14:57:17.000Z</time>
      </trkpt>
      <trkpt lat="47.20082" lon="-1.53336">
        <ele>53</ele>
        <time>2021-05-19T14:57:19.000Z</time>
      </trkpt>
      <trkpt lat="47.20088" lon="-1.53321">
        <ele>53</ele>
        <time>2021-05-19T14:57:21.000Z</time>
      </trkpt>
      <trkpt lat="47.20095" lon="-1.53304">
        <ele>52</ele>
        <time>2021-05-19T14:57:23.000Z</time>
      </trkpt>
      <trkpt lat="47.20101" lon="-1.53283">
        <ele>52</ele>
        <time>2021-05-19T14:57:25.000Z</time>
      </trkpt>
      <trkpt lat="47.20108" lon="-1.53259">
        <ele>53</ele>
        <time>2021-05-19T14:57:27.000Z</time>
      </trkpt>
      <trkpt lat="47.20111" lon="-1.53246">
        <ele>53</ele>
        <time>2021-05-19T14:57:28.000Z</time>
      </trkpt>
      <trkpt lat="47.20115" lon="-1.53234">
        <ele>53</ele>
        <time>2021-05-19T14:57:29.000Z</time>
      </trkpt>
      <trkpt lat="47.20118" lon="-1.53222">
        <ele>53</ele>
        <time>2021-05-19T14:57:30.000Z</time>
      </trkpt>
      <trkpt lat="47.20121" lon="-1.53209">
        <ele>52</ele>
        <time>2021-05-19T14:57:31.000Z</time>
      </trkpt>
      <trkpt lat="47.20123" lon="-1.53196">
        <ele>52</ele>
        <time>2021-05-19T14:57:32.000Z</time>
      </trkpt>
      <trkpt lat="47.20126" lon="-1.53184">
        <ele>53</ele>
        <time>2021-05-19T14:57:33.000Z</time>
      </trkpt>
      <trkpt lat="47.2013" lon="-1.53171">
        <ele>52</ele>
        <time>2021-05-19T14:57:34.000Z</time>
      </trkpt>
      <trkpt lat="47.20134" lon="-1.53159">
        <ele>52</ele>
        <time>2021-05-19T14:57:35.000Z</time>
      </trkpt>
      <trkpt lat="47.20138" lon="-1.53147">
        <ele>52</ele>
        <time>2021-05-19T14:57:36.000Z</time>
      </trkpt>
      <trkpt lat="47.20143" lon="-1.53136">
        <ele>52</ele>
        <time>2021-05-19T14:57:37.000Z</time>
      </trkpt>
      <trkpt lat="47.20148" lon="-1.53124">
        <ele>52</ele>
        <time>2021-05-19T14:57:38.000Z</time>
      </trkpt>
      <trkpt lat="47.20153" lon="-1.53113">
        <ele>52</ele>
        <time>2021-05-19T14:57:39.000Z</time>
      </trkpt>
      <trkpt lat="47.20158" lon="-1.53102">
        <ele>52</ele>
        <time>2021-05-19T14:57:40.000Z</time>
      </trkpt>
      <trkpt lat="47.20163" lon="-1.53091">
        <ele>53</ele>
        <time>2021-05-19T14:57:41.000Z</time>
      </trkpt>
      <trkpt lat="47.20169" lon="-1.5308">
        <ele>53</ele>
        <time>2021-05-19T14:57:42.000Z</time>
      </trkpt>
      <trkpt lat="47.20175" lon="-1.5307">
        <ele>53</ele>
        <time>2021-05-19T14:57:43.000Z</time>
      </trkpt>
      <trkpt lat="47.20186" lon="-1.53051">
        <ele>53</ele>
        <time>2021-05-19T14:57:45.000Z</time>
      </trkpt>
      <trkpt lat="47.20198" lon="-1.53034">
        <ele>53</ele>
        <time>2021-05-19T14:57:47.000Z</time>
      </trkpt>
      <trkpt lat="47.20212" lon="-1.5302">
        <ele>53</ele>
        <time>2021-05-19T14:57:49.000Z</time>
      </trkpt>
      <trkpt lat="47.20225" lon="-1.53004">
        <ele>54</ele>
        <time>2021-05-19T14:57:51.000Z</time>
      </trkpt>
      <trkpt lat="47.20236" lon="-1.52987">
        <ele>54</ele>
        <time>2021-05-19T14:57:53.000Z</time>
      </trkpt>
      <trkpt lat="47.20246" lon="-1.52968">
        <ele>53</ele>
        <time>2021-05-19T14:57:55.000Z</time>
      </trkpt>
      <trkpt lat="47.20256" lon="-1.5295">
        <ele>54</ele>
        <time>2021-05-19T14:57:57.000Z</time>
      </trkpt>
      <trkpt lat="47.20266" lon="-1.52932">
        <ele>54</ele>
        <time>2021-05-19T14:57:59.000Z</time>
      </trkpt>
      <trkpt lat="47.20275" lon="-1.52913">
        <ele>54</ele>
        <time>2021-05-19T14:58:01.000Z</time>
      </trkpt>
      <trkpt lat="47.20284" lon="-1.52894">
        <ele>54</ele>
        <time>2021-05-19T14:58:03.000Z</time>
      </trkpt>
      <trkpt lat="47.20292" lon="-1.52873">
        <ele>53</ele>
        <time>2021-05-19T14:58:05.000Z</time>
      </trkpt>
      <trkpt lat="47.203" lon="-1.52853">
        <ele>53</ele>
        <time>2021-05-19T14:58:07.000Z</time>
      </trkpt>
      <trkpt lat="47.20309" lon="-1.52833">
        <ele>53</ele>
        <time>2021-05-19T14:58:09.000Z</time>
      </trkpt>
      <trkpt lat="47.20318" lon="-1.52813">
        <ele>53</ele>
        <time>2021-05-19T14:58:11.000Z</time>
      </trkpt>
      <trkpt lat="47.20328" lon="-1.52793">
        <ele>53</ele>
        <time>2021-05-19T14:58:13.000Z</time>
      </trkpt>
      <trkpt lat="47.20337" lon="-1.52773">
        <ele>53</ele>
        <time>2021-05-19T14:58:15.000Z</time>
      </trkpt>
      <trkpt lat="47.20347" lon="-1.52754">
        <ele>53</ele>
        <time>2021-05-19T14:58:17.000Z</time>
      </trkpt>
      <trkpt lat="47.20356" lon="-1.52735">
        <ele>54</ele>
        <time>2021-05-19T14:58:19.000Z</time>
      </trkpt>
      <trkpt lat="47.20366" lon="-1.52717">
        <ele>54</ele>
        <time>2021-05-19T14:58:21.000Z</time>
      </trkpt>
      <trkpt lat="47.20376" lon="-1.52699">
        <ele>54</ele>
        <time>2021-05-19T14:58:23.000Z</time>
      </trkpt>
      <trkpt lat="47.20386" lon="-1.52681">
        <ele>55</ele>
        <time>2021-05-19T14:58:25.000Z</time>
      </trkpt>
      <trkpt lat="47.20395" lon="-1.52661">
        <ele>54</ele>
        <time>2021-05-19T14:58:27.000Z</time>
      </trkpt>
      <trkpt lat="47.20403" lon="-1.52641">
        <ele>54</ele>
        <time>2021-05-19T14:58:29.000Z</time>
      </trkpt>
      <trkpt lat="47.20411" lon="-1.5262">
        <ele>54</ele>
        <time>2021-05-19T14:58:31.000Z</time>
      </trkpt>
      <trkpt lat="47.20418" lon="-1.52597">
        <ele>54</ele>
        <time>2021-05-19T14:58:33.000Z</time>
      </trkpt>
      <trkpt lat="47.20424" lon="-1.52573">
        <ele>54</ele>
        <time>2021-05-19T14:58:35.000Z</time>
      </trkpt>
      <trkpt lat="47.20431" lon="-1.52551">
        <ele>54</ele>
        <time>2021-05-19T14:58:37.000Z</time>
      </trkpt>
      <trkpt lat="47.20439" lon="-1.5253">
        <ele>54</ele>
        <time>2021-05-19T14:58:39.000Z</time>
      </trkpt>
      <trkpt lat="47.20447" lon="-1.5251">
        <ele>54</ele>
        <time>2021-05-19T14:58:41.000Z</time>
      </trkpt>
      <trkpt lat="47.20454" lon="-1.52491">
        <ele>54</ele>
        <time>2021-05-19T14:58:43.000Z</time>
      </trkpt>
      <trkpt lat="47.20462" lon="-1.52472">
        <ele>53</ele>
        <time>2021-05-19T14:58:45.000Z</time>
      </trkpt>
      <trkpt lat="47.20469" lon="-1.52452">
        <ele>53</ele>
        <time>2021-05-19T14:58:47.000Z</time>
      </trkpt>
      <trkpt lat="47.20478" lon="-1.52433">
        <ele>53</ele>
        <time>2021-05-19T14:58:49.000Z</time>
      </trkpt>
      <trkpt lat="47.20485" lon="-1.52412">
        <ele>52</ele>
        <time>2021-05-19T14:58:51.000Z</time>
      </trkpt>
      <trkpt lat="47.20493" lon="-1.5239">
        <ele>52</ele>
        <time>2021-05-19T14:58:53.000Z</time>
      </trkpt>
      <trkpt lat="47.20499" lon="-1.52368">
        <ele>52</ele>
        <time>2021-05-19T14:58:55.000Z</time>
      </trkpt>
      <trkpt lat="47.20504" lon="-1.52347">
        <ele>51</ele>
        <time>2021-05-19T14:58:57.000Z</time>
      </trkpt>
      <trkpt lat="47.20512" lon="-1.52327">
        <ele>52</ele>
        <time>2021-05-19T14:58:59.000Z</time>
      </trkpt>
      <trkpt lat="47.20519" lon="-1.52309">
        <ele>52</ele>
        <time>2021-05-19T14:59:01.000Z</time>
      </trkpt>
      <trkpt lat="47.20521" lon="-1.5229">
        <ele>52</ele>
        <time>2021-05-19T14:59:03.000Z</time>
      </trkpt>
      <trkpt lat="47.20526" lon="-1.52271">
        <ele>52</ele>
        <time>2021-05-19T14:59:05.000Z</time>
      </trkpt>
      <trkpt lat="47.20534" lon="-1.52253">
        <ele>52</ele>
        <time>2021-05-19T14:59:07.000Z</time>
      </trkpt>
      <trkpt lat="47.20542" lon="-1.52235">
        <ele>52</ele>
        <time>2021-05-19T14:59:09.000Z</time>
      </trkpt>
      <trkpt lat="47.20552" lon="-1.52218">
        <ele>52</ele>
        <time>2021-05-19T14:59:11.000Z</time>
      </trkpt>
      <trkpt lat="47.20561" lon="-1.522">
        <ele>53</ele>
        <time>2021-05-19T14:59:13.000Z</time>
      </trkpt>
      <trkpt lat="47.20571" lon="-1.52183">
        <ele>52</ele>
        <time>2021-05-19T14:59:15.000Z</time>
      </trkpt>
      <trkpt lat="47.20581" lon="-1.52166">
        <ele>53</ele>
        <time>2021-05-19T14:59:17.000Z</time>
      </trkpt>
      <trkpt lat="47.20591" lon="-1.5215">
        <ele>53</ele>
        <time>2021-05-19T14:59:19.000Z</time>
      </trkpt>
      <trkpt lat="47.206" lon="-1.52132">
        <ele>53</ele>
        <time>2021-05-19T14:59:21.000Z</time>
      </trkpt>
      <trkpt lat="47.20608" lon="-1.52114">
        <ele>53</ele>
        <time>2021-05-19T14:59:23.000Z</time>
      </trkpt>
      <trkpt lat="47.20618" lon="-1.52097">
        <ele>52</ele>
        <time>2021-05-19T14:59:25.000Z</time>
      </trkpt>
      <trkpt lat="47.20628" lon="-1.5208">
        <ele>53</ele>
        <time>2021-05-19T14:59:27.000Z</time>
      </trkpt>
      <trkpt lat="47.20638" lon="-1.52063">
        <ele>53</ele>
        <time>2021-05-19T14:59:29.000Z</time>
      </trkpt>
      <trkpt lat="47.20649" lon="-1.52046">
        <ele>53</ele>
        <time>2021-05-19T14:59:31.000Z</time>
      </trkpt>
      <trkpt lat="47.20659" lon="-1.5203">
        <ele>54</ele>
        <time>2021-05-19T14:59:33.000Z</time>
      </trkpt>
      <trkpt lat="47.20668" lon="-1.52012">
        <ele>54</ele>
        <time>2021-05-19T14:59:35.000Z</time>
      </trkpt>
      <trkpt lat="47.20678" lon="-1.51995">
        <ele>54</ele>
        <time>2021-05-19T14:59:37.000Z</time>
      </trkpt>
      <trkpt lat="47.20687" lon="-1.51979">
        <ele>54</ele>
        <time>2021-05-19T14:59:39.000Z</time>
      </trkpt>
      <trkpt lat="47.20696" lon="-1.51963">
        <ele>54</ele>
        <time>2021-05-19T14:59:41.000Z</time>
      </trkpt>
      <trkpt lat="47.20706" lon="-1.51947">
        <ele>54</ele>
        <time>2021-05-19T14:59:43.000Z</time>
      </trkpt>
      <trkpt lat="47.20715" lon="-1.5193">
        <ele>55</ele>
        <time>2021-05-19T14:59:45.000Z</time>
      </trkpt>
      <trkpt lat="47.20723" lon="-1.51912">
        <ele>54</ele>
        <time>2021-05-19T14:59:47.000Z</time>
      </trkpt>
      <trkpt lat="47.20731" lon="-1.51894">
        <ele>54</ele>
        <time>2021-05-19T14:59:49.000Z</time>
      </trkpt>
      <trkpt lat="47.20739" lon="-1.51875">
        <ele>54</ele>
        <time>2021-05-19T14:59:51.000Z</time>
      </trkpt>
      <trkpt lat="47.20746" lon="-1.51857">
        <ele>54</ele>
        <time>2021-05-19T14:59:53.000Z</time>
      </trkpt>
      <trkpt lat="47.20754" lon="-1.51839">
        <ele>54</ele>
        <time>2021-05-19T14:59:55.000Z</time>
      </trkpt>
      <trkpt lat="47.20761" lon="-1.51821">
        <ele>54</ele>
        <time>2021-05-19T14:59:57.000Z</time>
      </trkpt>
      <trkpt lat="47.20765" lon="-1.518">
        <ele>53</ele>
        <time>2021-05-19T14:59:59.000Z</time>
      </trkpt>
      <trkpt lat="47.20768" lon="-1.51778">
        <ele>53</ele>
        <time>2021-05-19T15:00:01.000Z</time>
      </trkpt>
      <trkpt lat="47.20772" lon="-1.51756">
        <ele>52</ele>
        <time>2021-05-19T15:00:03.000Z</time>
      </trkpt>
      <trkpt lat="47.20779" lon="-1.51735">
        <ele>53</ele>
        <time>2021-05-19T15:00:05.000Z</time>
      </trkpt>
      <trkpt lat="47.20784" lon="-1.51715">
        <ele>53</ele>
        <time>2021-05-19T15:00:07.000Z</time>
      </trkpt>
      <trkpt lat="47.20788" lon="-1.51694">
        <ele>53</ele>
        <time>2021-05-19T15:00:09.000Z</time>
      </trkpt>
      <trkpt lat="47.20792" lon="-1.51673">
        <ele>53</ele>
        <time>2021-05-19T15:00:11.000Z</time>
      </trkpt>
      <trkpt lat="47.20795" lon="-1.51652">
        <ele>53</ele>
        <time>2021-05-19T15:00:13.000Z</time>
      </trkpt>
      <trkpt lat="47.20799" lon="-1.51631">
        <ele>53</ele>
        <time>2021-05-19T15:00:15.000Z</time>
      </trkpt>
      <trkpt lat="47.20803" lon="-1.5161">
        <ele>53</ele>
        <time>2021-05-19T15:00:17.000Z</time>
      </trkpt>
      <trkpt lat="47.20805" lon="-1.51589">
        <ele>53</ele>
        <time>2021-05-19T15:00:19.000Z</time>
      </trkpt>
      <trkpt lat="47.20807" lon="-1.51567">
        <ele>53</ele>
        <time>2021-05-19T15:00:21.000Z</time>
      </trkpt>
      <trkpt lat="47.2081" lon="-1.51545">
        <ele>53</ele>
        <time>2021-05-19T15:00:23.000Z</time>
      </trkpt>
      <trkpt lat="47.20813" lon="-1.51524">
        <ele>53</ele>
        <time>2021-05-19T15:00:25.000Z</time>
      </trkpt>
      <trkpt lat="47.20817" lon="-1.51503">
        <ele>52</ele>
        <time>2021-05-19T15:00:27.000Z</time>
      </trkpt>
      <trkpt lat="47.20821" lon="-1.51482">
        <ele>52</ele>
        <time>2021-05-19T15:00:29.000Z</time>
      </trkpt>
      <trkpt lat="47.20824" lon="-1.51461">
        <ele>52</ele>
        <time>2021-05-19T15:00:31.000Z</time>
      </trkpt>
      <trkpt lat="47.20827" lon="-1.51439">
        <ele>53</ele>
        <time>2021-05-19T15:00:33.000Z</time>
      </trkpt>
      <trkpt lat="47.20831" lon="-1.51417">
        <ele>52</ele>
        <time>2021-05-19T15:00:35.000Z</time>
      </trkpt>
      <trkpt lat="47.20836" lon="-1.51394">
        <ele>52</ele>
        <time>2021-05-19T15:00:37.000Z</time>
      </trkpt>
      <trkpt lat="47.20842" lon="-1.51372">
        <ele>52</ele>
        <time>2021-05-19T15:00:39.000Z</time>
      </trkpt>
      <trkpt lat="47.20848" lon="-1.5135">
        <ele>52</ele>
        <time>2021-05-19T15:00:41.000Z</time>
      </trkpt>
      <trkpt lat="47.20855" lon="-1.51329">
        <ele>52</ele>
        <time>2021-05-19T15:00:43.000Z</time>
      </trkpt>
      <trkpt lat="47.20863" lon="-1.51309">
        <ele>51</ele>
        <time>2021-05-19T15:00:45.000Z</time>
      </trkpt>
      <trkpt lat="47.20873" lon="-1.5129">
        <ele>51</ele>
        <time>2021-05-19T15:00:47.000Z</time>
      </trkpt>
      <trkpt lat="47.20881" lon="-1.51271">
        <ele>51</ele>
        <time>2021-05-19T15:00:49.000Z</time>
      </trkpt>
      <trkpt lat="47.20889" lon="-1.51249">
        <ele>52</ele>
        <time>2021-05-19T15:00:51.000Z</time>
      </trkpt>
      <trkpt lat="47.20897" lon="-1.51227">
        <ele>52</ele>
        <time>2021-05-19T15:00:53.000Z</time>
      </trkpt>
      <trkpt lat="47.20905" lon="-1.51206">
        <ele>52</ele>
        <time>2021-05-19T15:00:55.000Z</time>
      </trkpt>
      <trkpt lat="47.20912" lon="-1.51186">
        <ele>52</ele>
        <time>2021-05-19T15:00:57.000Z</time>
      </trkpt>
      <trkpt lat="47.20918" lon="-1.51165">
        <ele>52</ele>
        <time>2021-05-19T15:00:59.000Z</time>
      </trkpt>
      <trkpt lat="47.20925" lon="-1.51145">
        <ele>52</ele>
        <time>2021-05-19T15:01:01.000Z</time>
      </trkpt>
      <trkpt lat="47.20932" lon="-1.51125">
        <ele>52</ele>
        <time>2021-05-19T15:01:03.000Z</time>
      </trkpt>
      <trkpt lat="47.20938" lon="-1.51105">
        <ele>52</ele>
        <time>2021-05-19T15:01:05.000Z</time>
      </trkpt>
      <trkpt lat="47.20943" lon="-1.51084">
        <ele>52</ele>
        <time>2021-05-19T15:01:07.000Z</time>
      </trkpt>
      <trkpt lat="47.20948" lon="-1.51063">
        <ele>52</ele>
        <time>2021-05-19T15:01:09.000Z</time>
      </trkpt>
      <trkpt lat="47.2095" lon="-1.51042">
        <ele>52</ele>
        <time>2021-05-19T15:01:11.000Z</time>
      </trkpt>
      <trkpt lat="47.20955" lon="-1.5102">
        <ele>52</ele>
        <time>2021-05-19T15:01:13.000Z</time>
      </trkpt>
      <trkpt lat="47.20962" lon="-1.51001">
        <ele>52</ele>
        <time>2021-05-19T15:01:15.000Z</time>
      </trkpt>
      <trkpt lat="47.20967" lon="-1.50981">
        <ele>51</ele>
        <time>2021-05-19T15:01:17.000Z</time>
      </trkpt>
      <trkpt lat="47.20969" lon="-1.50957">
        <ele>50</ele>
        <time>2021-05-19T15:01:19.000Z</time>
      </trkpt>
      <trkpt lat="47.20971" lon="-1.50934">
        <ele>50</ele>
        <time>2021-05-19T15:01:21.000Z</time>
      </trkpt>
      <trkpt lat="47.20974" lon="-1.50912">
        <ele>50</ele>
        <time>2021-05-19T15:01:23.000Z</time>
      </trkpt>
      <trkpt lat="47.20976" lon="-1.50889">
        <ele>50</ele>
        <time>2021-05-19T15:01:25.000Z</time>
      </trkpt>
      <trkpt lat="47.20978" lon="-1.50867">
        <ele>50</ele>
        <time>2021-05-19T15:01:27.000Z</time>
      </trkpt>
      <trkpt lat="47.20981" lon="-1.50845">
        <ele>50</ele>
        <time>2021-05-19T15:01:29.000Z</time>
      </trkpt>
      <trkpt lat="47.20984" lon="-1.50823">
        <ele>50</ele>
        <time>2021-05-19T15:01:31.000Z</time>
      </trkpt>
      <trkpt lat="47.20987" lon="-1.50801">
        <ele>50</ele>
        <time>2021-05-19T15:01:33.000Z</time>
      </trkpt>
      <trkpt lat="47.20989" lon="-1.5078">
        <ele>50</ele>
        <time>2021-05-19T15:01:35.000Z</time>
      </trkpt>
      <trkpt lat="47.20991" lon="-1.50759">
        <ele>50</ele>
        <time>2021-05-19T15:01:37.000Z</time>
      </trkpt>
      <trkpt lat="47.20993" lon="-1.50739">
        <ele>51</ele>
        <time>2021-05-19T15:01:39.000Z</time>
      </trkpt>
      <trkpt lat="47.20996" lon="-1.50719">
        <ele>52</ele>
        <time>2021-05-19T15:01:41.000Z</time>
      </trkpt>
      <trkpt lat="47.20997" lon="-1.50698">
        <ele>52</ele>
        <time>2021-05-19T15:01:43.000Z</time>
      </trkpt>
      <trkpt lat="47.20999" lon="-1.50677">
        <ele>53</ele>
        <time>2021-05-19T15:01:45.000Z</time>
      </trkpt>
      <trkpt lat="47.21" lon="-1.50656">
        <ele>53</ele>
        <time>2021-05-19T15:01:47.000Z</time>
      </trkpt>
      <trkpt lat="47.21001" lon="-1.50635">
        <ele>53</ele>
        <time>2021-05-19T15:01:49.000Z</time>
      </trkpt>
      <trkpt lat="47.21002" lon="-1.50613">
        <ele>52</ele>
        <time>2021-05-19T15:01:51.000Z</time>
      </trkpt>
      <trkpt lat="47.21002" lon="-1.50591">
        <ele>52</ele>
        <time>2021-05-19T15:01:53.000Z</time>
      </trkpt>
      <trkpt lat="47.21002" lon="-1.50569">
        <ele>51</ele>
        <time>2021-05-19T15:01:55.000Z</time>
      </trkpt>
      <trkpt lat="47.21002" lon="-1.50547">
        <ele>51</ele>
        <time>2021-05-19T15:01:57.000Z</time>
      </trkpt>
      <trkpt lat="47.21001" lon="-1.50526">
        <ele>51</ele>
        <time>2021-05-19T15:01:59.000Z</time>
      </trkpt>
      <trkpt lat="47.21001" lon="-1.50504">
        <ele>52</ele>
        <time>2021-05-19T15:02:01.000Z</time>
      </trkpt>
      <trkpt lat="47.21" lon="-1.50482">
        <ele>51</ele>
        <time>2021-05-19T15:02:03.000Z</time>
      </trkpt>
      <trkpt lat="47.21" lon="-1.50461">
        <ele>52</ele>
        <time>2021-05-19T15:02:05.000Z</time>
      </trkpt>
      <trkpt lat="47.21" lon="-1.50439">
        <ele>52</ele>
        <time>2021-05-19T15:02:07.000Z</time>
      </trkpt>
      <trkpt lat="47.20999" lon="-1.50417">
        <ele>53</ele>
        <time>2021-05-19T15:02:09.000Z</time>
      </trkpt>
      <trkpt lat="47.20999" lon="-1.50395">
        <ele>53</ele>
        <time>2021-05-19T15:02:11.000Z</time>
      </trkpt>
      <trkpt lat="47.20998" lon="-1.50373">
        <ele>53</ele>
        <time>2021-05-19T15:02:13.000Z</time>
      </trkpt>
      <trkpt lat="47.20998" lon="-1.50351">
        <ele>53</ele>
        <time>2021-05-19T15:02:15.000Z</time>
      </trkpt>
      <trkpt lat="47.20998" lon="-1.5033">
        <ele>53</ele>
        <time>2021-05-19T15:02:17.000Z</time>
      </trkpt>
      <trkpt lat="47.20999" lon="-1.50309">
        <ele>54</ele>
        <time>2021-05-19T15:02:19.000Z</time>
      </trkpt>
      <trkpt lat="47.21001" lon="-1.50288">
        <ele>54</ele>
        <time>2021-05-19T15:02:21.000Z</time>
      </trkpt>
      <trkpt lat="47.21002" lon="-1.50269">
        <ele>54</ele>
        <time>2021-05-19T15:02:23.000Z</time>
      </trkpt>
      <trkpt lat="47.21007" lon="-1.50252">
        <ele>54</ele>
        <time>2021-05-19T15:02:25.000Z</time>
      </trkpt>
      <trkpt lat="47.21014" lon="-1.50242">
        <ele>54</ele>
        <time>2021-05-19T15:02:27.000Z</time>
      </trkpt>
      <trkpt lat="47.21018" lon="-1.50227">
        <ele>54</ele>
        <time>2021-05-19T15:02:32.000Z</time>
      </trkpt>
      <trkpt lat="47.21016" lon="-1.50213">
        <ele>54</ele>
        <time>2021-05-19T15:02:35.000Z</time>
      </trkpt>
      <trkpt lat="47.21013" lon="-1.50195">
        <ele>54</ele>
        <time>2021-05-19T15:02:37.000Z</time>
      </trkpt>
      <trkpt lat="47.21017" lon="-1.50175">
        <ele>54</ele>
        <time>2021-05-19T15:02:39.000Z</time>
      </trkpt>
      <trkpt lat="47.21021" lon="-1.50154">
        <ele>54</ele>
        <time>2021-05-19T15:02:41.000Z</time>
      </trkpt>
      <trkpt lat="47.21026" lon="-1.50132">
        <ele>54</ele>
        <time>2021-05-19T15:02:43.000Z</time>
      </trkpt>
      <trkpt lat="47.21031" lon="-1.50111">
        <ele>54</ele>
        <time>2021-05-19T15:02:45.000Z</time>
      </trkpt>
      <trkpt lat="47.21036" lon="-1.5009">
        <ele>54</ele>
        <time>2021-05-19T15:02:47.000Z</time>
      </trkpt>
      <trkpt lat="47.21041" lon="-1.5007">
        <ele>54</ele>
        <time>2021-05-19T15:02:49.000Z</time>
      </trkpt>
      <trkpt lat="47.21047" lon="-1.5005">
        <ele>54</ele>
        <time>2021-05-19T15:02:51.000Z</time>
      </trkpt>
      <trkpt lat="47.21053" lon="-1.50029">
        <ele>54</ele>
        <time>2021-05-19T15:02:53.000Z</time>
      </trkpt>
      <trkpt lat="47.21057" lon="-1.50009">
        <ele>54</ele>
        <time>2021-05-19T15:02:55.000Z</time>
      </trkpt>
      <trkpt lat="47.21062" lon="-1.49988">
        <ele>54</ele>
        <time>2021-05-19T15:02:57.000Z</time>
      </trkpt>
      <trkpt lat="47.21067" lon="-1.49968">
        <ele>53</ele>
        <time>2021-05-19T15:02:59.000Z</time>
      </trkpt>
      <trkpt lat="47.21072" lon="-1.49948">
        <ele>53</ele>
        <time>2021-05-19T15:03:01.000Z</time>
      </trkpt>
      <trkpt lat="47.21078" lon="-1.49928">
        <ele>53</ele>
        <time>2021-05-19T15:03:03.000Z</time>
      </trkpt>
      <trkpt lat="47.21083" lon="-1.49908">
        <ele>53</ele>
        <time>2021-05-19T15:03:05.000Z</time>
      </trkpt>
      <trkpt lat="47.2109" lon="-1.49889">
        <ele>53</ele>
        <time>2021-05-19T15:03:07.000Z</time>
      </trkpt>
      <trkpt lat="47.21096" lon="-1.4987">
        <ele>53</ele>
        <time>2021-05-19T15:03:09.000Z</time>
      </trkpt>
      <trkpt lat="47.21097" lon="-1.49849">
        <ele>53</ele>
        <time>2021-05-19T15:03:11.000Z</time>
      </trkpt>
      <trkpt lat="47.21101" lon="-1.49828">
        <ele>53</ele>
        <time>2021-05-19T15:03:13.000Z</time>
      </trkpt>
      <trkpt lat="47.21105" lon="-1.49806">
        <ele>53</ele>
        <time>2021-05-19T15:03:15.000Z</time>
      </trkpt>
      <trkpt lat="47.21107" lon="-1.49784">
        <ele>53</ele>
        <time>2021-05-19T15:03:17.000Z</time>
      </trkpt>
      <trkpt lat="47.2111" lon="-1.49762">
        <ele>53</ele>
        <time>2021-05-19T15:03:19.000Z</time>
      </trkpt>
      <trkpt lat="47.21112" lon="-1.4974">
        <ele>53</ele>
        <time>2021-05-19T15:03:21.000Z</time>
      </trkpt>
      <trkpt lat="47.21114" lon="-1.49718">
        <ele>52</ele>
        <time>2021-05-19T15:03:23.000Z</time>
      </trkpt>
      <trkpt lat="47.21115" lon="-1.49697">
        <ele>52</ele>
        <time>2021-05-19T15:03:25.000Z</time>
      </trkpt>
      <trkpt lat="47.21117" lon="-1.49677">
        <ele>52</ele>
        <time>2021-05-19T15:03:27.000Z</time>
      </trkpt>
      <trkpt lat="47.21118" lon="-1.49656">
        <ele>52</ele>
        <time>2021-05-19T15:03:29.000Z</time>
      </trkpt>
      <trkpt lat="47.2112" lon="-1.49634">
        <ele>52</ele>
        <time>2021-05-19T15:03:31.000Z</time>
      </trkpt>
      <trkpt lat="47.21122" lon="-1.49613">
        <ele>52</ele>
        <time>2021-05-19T15:03:33.000Z</time>
      </trkpt>
      <trkpt lat="47.21129" lon="-1.49597">
        <ele>51</ele>
        <time>2021-05-19T15:03:35.000Z</time>
      </trkpt>
      <trkpt lat="47.21136" lon="-1.49578">
        <ele>51</ele>
        <time>2021-05-19T15:03:37.000Z</time>
      </trkpt>
      <trkpt lat="47.21132" lon="-1.49558">
        <ele>52</ele>
        <time>2021-05-19T15:03:39.000Z</time>
      </trkpt>
      <trkpt lat="47.21127" lon="-1.49538">
        <ele>52</ele>
        <time>2021-05-19T15:03:41.000Z</time>
      </trkpt>
      <trkpt lat="47.21126" lon="-1.49516">
        <ele>52</ele>
        <time>2021-05-19T15:03:43.000Z</time>
      </trkpt>
      <trkpt lat="47.21125" lon="-1.49494">
        <ele>52</ele>
        <time>2021-05-19T15:03:45.000Z</time>
      </trkpt>
      <trkpt lat="47.21125" lon="-1.49473">
        <ele>52</ele>
        <time>2021-05-19T15:03:47.000Z</time>
      </trkpt>
      <trkpt lat="47.21126" lon="-1.49451">
        <ele>52</ele>
        <time>2021-05-19T15:03:49.000Z</time>
      </trkpt>
      <trkpt lat="47.21127" lon="-1.49429">
        <ele>51</ele>
        <time>2021-05-19T15:03:51.000Z</time>
      </trkpt>
      <trkpt lat="47.21128" lon="-1.49408">
        <ele>52</ele>
        <time>2021-05-19T15:03:53.000Z</time>
      </trkpt>
      <trkpt lat="47.21129" lon="-1.49387">
        <ele>52</ele>
        <time>2021-05-19T15:03:55.000Z</time>
      </trkpt>
      <trkpt lat="47.2113" lon="-1.49365">
        <ele>52</ele>
        <time>2021-05-19T15:03:57.000Z</time>
      </trkpt>
      <trkpt lat="47.21131" lon="-1.49343">
        <ele>51</ele>
        <time>2021-05-19T15:03:59.000Z</time>
      </trkpt>
      <trkpt lat="47.21132" lon="-1.49321">
        <ele>51</ele>
        <time>2021-05-19T15:04:01.000Z</time>
      </trkpt>
      <trkpt lat="47.21133" lon="-1.493">
        <ele>50</ele>
        <time>2021-05-19T15:04:03.000Z</time>
      </trkpt>
      <trkpt lat="47.21134" lon="-1.49279">
        <ele>50</ele>
        <time>2021-05-19T15:04:05.000Z</time>
      </trkpt>
      <trkpt lat="47.21135" lon="-1.49258">
        <ele>51</ele>
        <time>2021-05-19T15:04:07.000Z</time>
      </trkpt>
      <trkpt lat="47.21136" lon="-1.49236">
        <ele>51</ele>
        <time>2021-05-19T15:04:09.000Z</time>
      </trkpt>
      <trkpt lat="47.21138" lon="-1.49215">
        <ele>51</ele>
        <time>2021-05-19T15:04:11.000Z</time>
      </trkpt>
      <trkpt lat="47.2114" lon="-1.49193">
        <ele>51</ele>
        <time>2021-05-19T15:04:13.000Z</time>
      </trkpt>
      <trkpt lat="47.21143" lon="-1.49172">
        <ele>51</ele>
        <time>2021-05-19T15:04:15.000Z</time>
      </trkpt>
      <trkpt lat="47.21146" lon="-1.49152">
        <ele>51</ele>
        <time>2021-05-19T15:04:17.000Z</time>
      </trkpt>
      <trkpt lat="47.21149" lon="-1.4913">
        <ele>50</ele>
        <time>2021-05-19T15:04:19.000Z</time>
      </trkpt>
      <trkpt lat="47.21152" lon="-1.4911">
        <ele>50</ele>
        <time>2021-05-19T15:04:21.000Z</time>
      </trkpt>
      <trkpt lat="47.21159" lon="-1.49092">
        <ele>50</ele>
        <time>2021-05-19T15:04:23.000Z</time>
      </trkpt>
      <trkpt lat="47.21162" lon="-1.49073">
        <ele>49</ele>
        <time>2021-05-19T15:04:25.000Z</time>
      </trkpt>
      <trkpt lat="47.21155" lon="-1.49053">
        <ele>49</ele>
        <time>2021-05-19T15:04:27.000Z</time>
      </trkpt>
      <trkpt lat="47.21154" lon="-1.49033">
        <ele>50</ele>
        <time>2021-05-19T15:04:29.000Z</time>
      </trkpt>
      <trkpt lat="47.21157" lon="-1.49012">
        <ele>50</ele>
        <time>2021-05-19T15:04:31.000Z</time>
      </trkpt>
      <trkpt lat="47.2116" lon="-1.48991">
        <ele>51</ele>
        <time>2021-05-19T15:04:33.000Z</time>
      </trkpt>
      <trkpt lat="47.21164" lon="-1.4897">
        <ele>51</ele>
        <time>2021-05-19T15:04:35.000Z</time>
      </trkpt>
      <trkpt lat="47.21168" lon="-1.48949">
        <ele>52</ele>
        <time>2021-05-19T15:04:37.000Z</time>
      </trkpt>
      <trkpt lat="47.21172" lon="-1.48928">
        <ele>52</ele>
        <time>2021-05-19T15:04:39.000Z</time>
      </trkpt>
      <trkpt lat="47.21176" lon="-1.48907">
        <ele>53</ele>
        <time>2021-05-19T15:04:41.000Z</time>
      </trkpt>
      <trkpt lat="47.21181" lon="-1.48887">
        <ele>53</ele>
        <time>2021-05-19T15:04:43.000Z</time>
      </trkpt>
      <trkpt lat="47.21184" lon="-1.48867">
        <ele>53</ele>
        <time>2021-05-19T15:04:45.000Z</time>
      </trkpt>
      <trkpt lat="47.21187" lon="-1.48845">
        <ele>52</ele>
        <time>2021-05-19T15:04:47.000Z</time>
      </trkpt>
      <trkpt lat="47.2119" lon="-1.48824">
        <ele>52</ele>
        <time>2021-05-19T15:04:49.000Z</time>
      </trkpt>
      <trkpt lat="47.21194" lon="-1.48803">
        <ele>52</ele>
        <time>2021-05-19T15:04:51.000Z</time>
      </trkpt>
      <trkpt lat="47.21199" lon="-1.48782">
        <ele>52</ele>
        <time>2021-05-19T15:04:53.000Z</time>
      </trkpt>
      <trkpt lat="47.21204" lon="-1.48761">
        <ele>52</ele>
        <time>2021-05-19T15:04:55.000Z</time>
      </trkpt>
      <trkpt lat="47.21209" lon="-1.48741">
        <ele>52</ele>
        <time>2021-05-19T15:04:57.000Z</time>
      </trkpt>
      <trkpt lat="47.21214" lon="-1.48721">
        <ele>52</ele>
        <time>2021-05-19T15:04:59.000Z</time>
      </trkpt>
      <trkpt lat="47.2122" lon="-1.487">
        <ele>51</ele>
        <time>2021-05-19T15:05:01.000Z</time>
      </trkpt>
      <trkpt lat="47.21226" lon="-1.4868">
        <ele>51</ele>
        <time>2021-05-19T15:05:03.000Z</time>
      </trkpt>
      <trkpt lat="47.21233" lon="-1.4866">
        <ele>51</ele>
        <time>2021-05-19T15:05:05.000Z</time>
      </trkpt>
      <trkpt lat="47.21238" lon="-1.48639">
        <ele>51</ele>
        <time>2021-05-19T15:05:07.000Z</time>
      </trkpt>
      <trkpt lat="47.21243" lon="-1.48619">
        <ele>51</ele>
        <time>2021-05-19T15:05:09.000Z</time>
      </trkpt>
      <trkpt lat="47.21248" lon="-1.48599">
        <ele>51</ele>
        <time>2021-05-19T15:05:11.000Z</time>
      </trkpt>
      <trkpt lat="47.21253" lon="-1.4858">
        <ele>51</ele>
        <time>2021-05-19T15:05:13.000Z</time>
      </trkpt>
      <trkpt lat="47.21258" lon="-1.48561">
        <ele>52</ele>
        <time>2021-05-19T15:05:15.000Z</time>
      </trkpt>
      <trkpt lat="47.21264" lon="-1.48541">
        <ele>51</ele>
        <time>2021-05-19T15:05:17.000Z</time>
      </trkpt>
      <trkpt lat="47.2127" lon="-1.48524">
        <ele>51</ele>
        <time>2021-05-19T15:05:19.000Z</time>
      </trkpt>
      <trkpt lat="47.21283" lon="-1.48515">
        <ele>51</ele>
        <time>2021-05-19T15:05:21.000Z</time>
      </trkpt>
      <trkpt lat="47.21294" lon="-1.48507">
        <ele>50</ele>
        <time>2021-05-19T15:05:23.000Z</time>
      </trkpt>
      <trkpt lat="47.213" lon="-1.48485">
        <ele>51</ele>
        <time>2021-05-19T15:05:25.000Z</time>
      </trkpt>
      <trkpt lat="47.21304" lon="-1.48463">
        <ele>52</ele>
        <time>2021-05-19T15:05:27.000Z</time>
      </trkpt>
      <trkpt lat="47.21308" lon="-1.48441">
        <ele>52</ele>
        <time>2021-05-19T15:05:29.000Z</time>
      </trkpt>
      <trkpt lat="47.21312" lon="-1.48419">
        <ele>52</ele>
        <time>2021-05-19T15:05:31.000Z</time>
      </trkpt>
      <trkpt lat="47.21318" lon="-1.48398">
        <ele>52</ele>
        <time>2021-05-19T15:05:33.000Z</time>
      </trkpt>
      <trkpt lat="47.21325" lon="-1.48377">
        <ele>52</ele>
        <time>2021-05-19T15:05:35.000Z</time>
      </trkpt>
      <trkpt lat="47.21331" lon="-1.48356">
        <ele>51</ele>
        <time>2021-05-19T15:05:37.000Z</time>
      </trkpt>
      <trkpt lat="47.21338" lon="-1.48336">
        <ele>51</ele>
        <time>2021-05-19T15:05:39.000Z</time>
      </trkpt>
      <trkpt lat="47.21345" lon="-1.48315">
        <ele>51</ele>
        <time>2021-05-19T15:05:41.000Z</time>
      </trkpt>
      <trkpt lat="47.21351" lon="-1.48294">
        <ele>51</ele>
        <time>2021-05-19T15:05:43.000Z</time>
      </trkpt>
      <trkpt lat="47.21358" lon="-1.48275">
        <ele>51</ele>
        <time>2021-05-19T15:05:45.000Z</time>
      </trkpt>
      <trkpt lat="47.21365" lon="-1.48255">
        <ele>50</ele>
        <time>2021-05-19T15:05:47.000Z</time>
      </trkpt>
      <trkpt lat="47.21372" lon="-1.48235">
        <ele>50</ele>
        <time>2021-05-19T15:05:49.000Z</time>
      </trkpt>
      <trkpt lat="47.21379" lon="-1.48216">
        <ele>50</ele>
        <time>2021-05-19T15:05:51.000Z</time>
      </trkpt>
      <trkpt lat="47.21386" lon="-1.48197">
        <ele>50</ele>
        <time>2021-05-19T15:05:53.000Z</time>
      </trkpt>
      <trkpt lat="47.21394" lon="-1.48179">
        <ele>50</ele>
        <time>2021-05-19T15:05:55.000Z</time>
      </trkpt>
      <trkpt lat="47.21403" lon="-1.48161">
        <ele>50</ele>
        <time>2021-05-19T15:05:57.000Z</time>
      </trkpt>
      <trkpt lat="47.21413" lon="-1.48143">
        <ele>50</ele>
        <time>2021-05-19T15:05:59.000Z</time>
      </trkpt>
      <trkpt lat="47.21422" lon="-1.48126">
        <ele>50</ele>
        <time>2021-05-19T15:06:01.000Z</time>
      </trkpt>
      <trkpt lat="47.21432" lon="-1.4811">
        <ele>50</ele>
        <time>2021-05-19T15:06:03.000Z</time>
      </trkpt>
      <trkpt lat="47.21441" lon="-1.48094">
        <ele>50</ele>
        <time>2021-05-19T15:06:05.000Z</time>
      </trkpt>
      <trkpt lat="47.21451" lon="-1.48079">
        <ele>50</ele>
        <time>2021-05-19T15:06:07.000Z</time>
      </trkpt>
      <trkpt lat="47.21461" lon="-1.48063">
        <ele>50</ele>
        <time>2021-05-19T15:06:09.000Z</time>
      </trkpt>
      <trkpt lat="47.21471" lon="-1.4805">
        <ele>50</ele>
        <time>2021-05-19T15:06:11.000Z</time>
      </trkpt>
      <trkpt lat="47.21482" lon="-1.48037">
        <ele>50</ele>
        <time>2021-05-19T15:06:13.000Z</time>
      </trkpt>
      <trkpt lat="47.21493" lon="-1.48023">
        <ele>50</ele>
        <time>2021-05-19T15:06:15.000Z</time>
      </trkpt>
      <trkpt lat="47.21504" lon="-1.4801">
        <ele>50</ele>
        <time>2021-05-19T15:06:17.000Z</time>
      </trkpt>
      <trkpt lat="47.21515" lon="-1.47998">
        <ele>50</ele>
        <time>2021-05-19T15:06:19.000Z</time>
      </trkpt>
      <trkpt lat="47.21526" lon="-1.47986">
        <ele>51</ele>
        <time>2021-05-19T15:06:21.000Z</time>
      </trkpt>
      <trkpt lat="47.21537" lon="-1.47976">
        <ele>51</ele>
        <time>2021-05-19T15:06:23.000Z</time>
      </trkpt>
      <trkpt lat="47.21548" lon="-1.47965">
        <ele>51</ele>
        <time>2021-05-19T15:06:25.000Z</time>
      </trkpt>
      <trkpt lat="47.21559" lon="-1.47954">
        <ele>51</ele>
        <time>2021-05-19T15:06:27.000Z</time>
      </trkpt>
      <trkpt lat="47.21571" lon="-1.47942">
        <ele>51</ele>
        <time>2021-05-19T15:06:29.000Z</time>
      </trkpt>
      <trkpt lat="47.21583" lon="-1.47931">
        <ele>51</ele>
        <time>2021-05-19T15:06:31.000Z</time>
      </trkpt>
      <trkpt lat="47.21594" lon="-1.4792">
        <ele>51</ele>
        <time>2021-05-19T15:06:33.000Z</time>
      </trkpt>
      <trkpt lat="47.21606" lon="-1.47909">
        <ele>52</ele>
        <time>2021-05-19T15:06:35.000Z</time>
      </trkpt>
      <trkpt lat="47.21617" lon="-1.47899">
        <ele>52</ele>
        <time>2021-05-19T15:06:37.000Z</time>
      </trkpt>
      <trkpt lat="47.21629" lon="-1.47888">
        <ele>53</ele>
        <time>2021-05-19T15:06:39.000Z</time>
      </trkpt>
      <trkpt lat="47.2164" lon="-1.47876">
        <ele>53</ele>
        <time>2021-05-19T15:06:41.000Z</time>
      </trkpt>
      <trkpt lat="47.21652" lon="-1.47863">
        <ele>54</ele>
        <time>2021-05-19T15:06:43.000Z</time>
      </trkpt>
      <trkpt lat="47.21664" lon="-1.47852">
        <ele>55</ele>
        <time>2021-05-19T15:06:45.000Z</time>
      </trkpt>
      <trkpt lat="47.21677" lon="-1.4784">
        <ele>55</ele>
        <time>2021-05-19T15:06:47.000Z</time>
      </trkpt>
      <trkpt lat="47.2169" lon="-1.47829">
        <ele>55</ele>
        <time>2021-05-19T15:06:49.000Z</time>
      </trkpt>
      <trkpt lat="47.21702" lon="-1.47817">
        <ele>55</ele>
        <time>2021-05-19T15:06:51.000Z</time>
      </trkpt>
      <trkpt lat="47.21715" lon="-1.47805">
        <ele>55</ele>
        <time>2021-05-19T15:06:53.000Z</time>
      </trkpt>
      <trkpt lat="47.21727" lon="-1.47793">
        <ele>55</ele>
        <time>2021-05-19T15:06:55.000Z</time>
      </trkpt>
      <trkpt lat="47.21739" lon="-1.47782">
        <ele>55</ele>
        <time>2021-05-19T15:06:57.000Z</time>
      </trkpt>
      <trkpt lat="47.21751" lon="-1.47772">
        <ele>55</ele>
        <time>2021-05-19T15:06:59.000Z</time>
      </trkpt>
      <trkpt lat="47.21763" lon="-1.47761">
        <ele>55</ele>
        <time>2021-05-19T15:07:01.000Z</time>
      </trkpt>
      <trkpt lat="47.21775" lon="-1.4775">
        <ele>55</ele>
        <time>2021-05-19T15:07:03.000Z</time>
      </trkpt>
      <trkpt lat="47.21788" lon="-1.4774">
        <ele>55</ele>
        <time>2021-05-19T15:07:05.000Z</time>
      </trkpt>
      <trkpt lat="47.21801" lon="-1.4773">
        <ele>55</ele>
        <time>2021-05-19T15:07:07.000Z</time>
      </trkpt>
      <trkpt lat="47.21813" lon="-1.47721">
        <ele>56</ele>
        <time>2021-05-19T15:07:09.000Z</time>
      </trkpt>
      <trkpt lat="47.21826" lon="-1.47711">
        <ele>56</ele>
        <time>2021-05-19T15:07:11.000Z</time>
      </trkpt>
      <trkpt lat="47.21839" lon="-1.477">
        <ele>56</ele>
        <time>2021-05-19T15:07:13.000Z</time>
      </trkpt>
      <trkpt lat="47.21852" lon="-1.47689">
        <ele>56</ele>
        <time>2021-05-19T15:07:15.000Z</time>
      </trkpt>
      <trkpt lat="47.21865" lon="-1.47677">
        <ele>55</ele>
        <time>2021-05-19T15:07:17.000Z</time>
      </trkpt>
      <trkpt lat="47.21878" lon="-1.47665">
        <ele>55</ele>
        <time>2021-05-19T15:07:19.000Z</time>
      </trkpt>
      <trkpt lat="47.21891" lon="-1.47653">
        <ele>55</ele>
        <time>2021-05-19T15:07:21.000Z</time>
      </trkpt>
      <trkpt lat="47.21903" lon="-1.47641">
        <ele>54</ele>
        <time>2021-05-19T15:07:23.000Z</time>
      </trkpt>
      <trkpt lat="47.21916" lon="-1.47629">
        <ele>54</ele>
        <time>2021-05-19T15:07:25.000Z</time>
      </trkpt>
      <trkpt lat="47.21928" lon="-1.47618">
        <ele>54</ele>
        <time>2021-05-19T15:07:27.000Z</time>
      </trkpt>
      <trkpt lat="47.21941" lon="-1.47607">
        <ele>54</ele>
        <time>2021-05-19T15:07:29.000Z</time>
      </trkpt>
      <trkpt lat="47.21954" lon="-1.47595">
        <ele>54</ele>
        <time>2021-05-19T15:07:31.000Z</time>
      </trkpt>
      <trkpt lat="47.21967" lon="-1.47585">
        <ele>53</ele>
        <time>2021-05-19T15:07:33.000Z</time>
      </trkpt>
      <trkpt lat="47.21979" lon="-1.47573">
        <ele>53</ele>
        <time>2021-05-19T15:07:35.000Z</time>
      </trkpt>
      <trkpt lat="47.21992" lon="-1.47561">
        <ele>53</ele>
        <time>2021-05-19T15:07:37.000Z</time>
      </trkpt>
      <trkpt lat="47.22004" lon="-1.4755">
        <ele>53</ele>
        <time>2021-05-19T15:07:39.000Z</time>
      </trkpt>
      <trkpt lat="47.22017" lon="-1.47538">
        <ele>53</ele>
        <time>2021-05-19T15:07:41.000Z</time>
      </trkpt>
      <trkpt lat="47.2203" lon="-1.47527">
        <ele>53</ele>
        <time>2021-05-19T15:07:43.000Z</time>
      </trkpt>
      <trkpt lat="47.22042" lon="-1.47515">
        <ele>53</ele>
        <time>2021-05-19T15:07:45.000Z</time>
      </trkpt>
      <trkpt lat="47.22055" lon="-1.47503">
        <ele>53</ele>
        <time>2021-05-19T15:07:47.000Z</time>
      </trkpt>
      <trkpt lat="47.22068" lon="-1.47492">
        <ele>53</ele>
        <time>2021-05-19T15:07:49.000Z</time>
      </trkpt>
      <trkpt lat="47.2208" lon="-1.47481">
        <ele>54</ele>
        <time>2021-05-19T15:07:51.000Z</time>
      </trkpt>
      <trkpt lat="47.22093" lon="-1.47469">
        <ele>54</ele>
        <time>2021-05-19T15:07:53.000Z</time>
      </trkpt>
      <trkpt lat="47.22105" lon="-1.47459">
        <ele>54</ele>
        <time>2021-05-19T15:07:55.000Z</time>
      </trkpt>
      <trkpt lat="47.22118" lon="-1.47448">
        <ele>54</ele>
        <time>2021-05-19T15:07:57.000Z</time>
      </trkpt>
      <trkpt lat="47.22131" lon="-1.47438">
        <ele>53</ele>
        <time>2021-05-19T15:07:59.000Z</time>
      </trkpt>
      <trkpt lat="47.22143" lon="-1.47427">
        <ele>53</ele>
        <time>2021-05-19T15:08:01.000Z</time>
      </trkpt>
      <trkpt lat="47.22155" lon="-1.47416">
        <ele>54</ele>
        <time>2021-05-19T15:08:03.000Z</time>
      </trkpt>
      <trkpt lat="47.22168" lon="-1.47406">
        <ele>53</ele>
        <time>2021-05-19T15:08:05.000Z</time>
      </trkpt>
      <trkpt lat="47.22181" lon="-1.47395">
        <ele>53</ele>
        <time>2021-05-19T15:08:07.000Z</time>
      </trkpt>
      <trkpt lat="47.22193" lon="-1.47385">
        <ele>53</ele>
        <time>2021-05-19T15:08:09.000Z</time>
      </trkpt>
      <trkpt lat="47.22206" lon="-1.47376">
        <ele>53</ele>
        <time>2021-05-19T15:08:11.000Z</time>
      </trkpt>
      <trkpt lat="47.22219" lon="-1.47366">
        <ele>53</ele>
        <time>2021-05-19T15:08:13.000Z</time>
      </trkpt>
      <trkpt lat="47.22232" lon="-1.47357">
        <ele>54</ele>
        <time>2021-05-19T15:08:15.000Z</time>
      </trkpt>
      <trkpt lat="47.22245" lon="-1.47349">
        <ele>54</ele>
        <time>2021-05-19T15:08:17.000Z</time>
      </trkpt>
      <trkpt lat="47.22259" lon="-1.4734">
        <ele>54</ele>
        <time>2021-05-19T15:08:19.000Z</time>
      </trkpt>
      <trkpt lat="47.22271" lon="-1.47329">
        <ele>54</ele>
        <time>2021-05-19T15:08:21.000Z</time>
      </trkpt>
      <trkpt lat="47.22284" lon="-1.47319">
        <ele>54</ele>
        <time>2021-05-19T15:08:23.000Z</time>
      </trkpt>
      <trkpt lat="47.22296" lon="-1.47309">
        <ele>54</ele>
        <time>2021-05-19T15:08:25.000Z</time>
      </trkpt>
      <trkpt lat="47.22309" lon="-1.47298">
        <ele>54</ele>
        <time>2021-05-19T15:08:27.000Z</time>
      </trkpt>
      <trkpt lat="47.22322" lon="-1.47288">
        <ele>54</ele>
        <time>2021-05-19T15:08:29.000Z</time>
      </trkpt>
      <trkpt lat="47.22334" lon="-1.47277">
        <ele>53</ele>
        <time>2021-05-19T15:08:31.000Z</time>
      </trkpt>
      <trkpt lat="47.22346" lon="-1.47268">
        <ele>53</ele>
        <time>2021-05-19T15:08:33.000Z</time>
      </trkpt>
      <trkpt lat="47.22359" lon="-1.47257">
        <ele>54</ele>
        <time>2021-05-19T15:08:35.000Z</time>
      </trkpt>
      <trkpt lat="47.2237" lon="-1.47246">
        <ele>54</ele>
        <time>2021-05-19T15:08:37.000Z</time>
      </trkpt>
      <trkpt lat="47.22382" lon="-1.47235">
        <ele>54</ele>
        <time>2021-05-19T15:08:39.000Z</time>
      </trkpt>
      <trkpt lat="47.22393" lon="-1.47223">
        <ele>54</ele>
        <time>2021-05-19T15:08:41.000Z</time>
      </trkpt>
      <trkpt lat="47.22404" lon="-1.47211">
        <ele>54</ele>
        <time>2021-05-19T15:08:43.000Z</time>
      </trkpt>
      <trkpt lat="47.22414" lon="-1.472">
        <ele>55</ele>
        <time>2021-05-19T15:08:45.000Z</time>
      </trkpt>
      <trkpt lat="47.22425" lon="-1.47188">
        <ele>54</ele>
        <time>2021-05-19T15:08:47.000Z</time>
      </trkpt>
      <trkpt lat="47.22436" lon="-1.47177">
        <ele>54</ele>
        <time>2021-05-19T15:08:49.000Z</time>
      </trkpt>
      <trkpt lat="47.22448" lon="-1.47166">
        <ele>55</ele>
        <time>2021-05-19T15:08:51.000Z</time>
      </trkpt>
      <trkpt lat="47.2246" lon="-1.47156">
        <ele>55</ele>
        <time>2021-05-19T15:08:53.000Z</time>
      </trkpt>
      <trkpt lat="47.22472" lon="-1.47146">
        <ele>55</ele>
        <time>2021-05-19T15:08:55.000Z</time>
      </trkpt>
      <trkpt lat="47.22486" lon="-1.47138">
        <ele>56</ele>
        <time>2021-05-19T15:08:57.000Z</time>
      </trkpt>
      <trkpt lat="47.225" lon="-1.47133">
        <ele>56</ele>
        <time>2021-05-19T15:08:59.000Z</time>
      </trkpt>
      <trkpt lat="47.22514" lon="-1.47128">
        <ele>56</ele>
        <time>2021-05-19T15:09:01.000Z</time>
      </trkpt>
      <trkpt lat="47.22528" lon="-1.47125">
        <ele>56</ele>
        <time>2021-05-19T15:09:03.000Z</time>
      </trkpt>
      <trkpt lat="47.22544" lon="-1.47121">
        <ele>55</ele>
        <time>2021-05-19T15:09:05.000Z</time>
      </trkpt>
      <trkpt lat="47.22558" lon="-1.47118">
        <ele>55</ele>
        <time>2021-05-19T15:09:07.000Z</time>
      </trkpt>
      <trkpt lat="47.22573" lon="-1.47112">
        <ele>55</ele>
        <time>2021-05-19T15:09:09.000Z</time>
      </trkpt>
      <trkpt lat="47.22586" lon="-1.47103">
        <ele>55</ele>
        <time>2021-05-19T15:09:11.000Z</time>
      </trkpt>
      <trkpt lat="47.22598" lon="-1.4709">
        <ele>54</ele>
        <time>2021-05-19T15:09:13.000Z</time>
      </trkpt>
      <trkpt lat="47.22608" lon="-1.47073">
        <ele>54</ele>
        <time>2021-05-19T15:09:15.000Z</time>
      </trkpt>
      <trkpt lat="47.22617" lon="-1.47055">
        <ele>53</ele>
        <time>2021-05-19T15:09:17.000Z</time>
      </trkpt>
      <trkpt lat="47.22627" lon="-1.47038">
        <ele>53</ele>
        <time>2021-05-19T15:09:19.000Z</time>
      </trkpt>
      <trkpt lat="47.22638" lon="-1.47022">
        <ele>53</ele>
        <time>2021-05-19T15:09:21.000Z</time>
      </trkpt>
      <trkpt lat="47.22649" lon="-1.47009">
        <ele>53</ele>
        <time>2021-05-19T15:09:23.000Z</time>
      </trkpt>
      <trkpt lat="47.22662" lon="-1.46996">
        <ele>53</ele>
        <time>2021-05-19T15:09:25.000Z</time>
      </trkpt>
      <trkpt lat="47.22674" lon="-1.46984">
        <ele>53</ele>
        <time>2021-05-19T15:09:27.000Z</time>
      </trkpt>
      <trkpt lat="47.22688" lon="-1.46975">
        <ele>53</ele>
        <time>2021-05-19T15:09:29.000Z</time>
      </trkpt>
      <trkpt lat="47.22701" lon="-1.46966">
        <ele>53</ele>
        <time>2021-05-19T15:09:31.000Z</time>
      </trkpt>
      <trkpt lat="47.22715" lon="-1.4696">
        <ele>53</ele>
        <time>2021-05-19T15:09:33.000Z</time>
      </trkpt>
      <trkpt lat="47.22729" lon="-1.46956">
        <ele>53</ele>
        <time>2021-05-19T15:09:35.000Z</time>
      </trkpt>
      <trkpt lat="47.22743" lon="-1.46953">
        <ele>53</ele>
        <time>2021-05-19T15:09:37.000Z</time>
      </trkpt>
      <trkpt lat="47.22756" lon="-1.46951">
        <ele>54</ele>
        <time>2021-05-19T15:09:39.000Z</time>
      </trkpt>
      <trkpt lat="47.22763" lon="-1.46939">
        <ele>54</ele>
        <time>2021-05-19T15:09:41.000Z</time>
      </trkpt>
      <trkpt lat="47.22772" lon="-1.46927">
        <ele>54</ele>
        <time>2021-05-19T15:09:43.000Z</time>
      </trkpt>
      <trkpt lat="47.22784" lon="-1.46927">
        <ele>54</ele>
        <time>2021-05-19T15:09:45.000Z</time>
      </trkpt>
      <trkpt lat="47.22796" lon="-1.46933">
        <ele>54</ele>
        <time>2021-05-19T15:09:47.000Z</time>
      </trkpt>
      <trkpt lat="47.22809" lon="-1.4694">
        <ele>54</ele>
        <time>2021-05-19T15:09:49.000Z</time>
      </trkpt>
      <trkpt lat="47.22822" lon="-1.46946">
        <ele>55</ele>
        <time>2021-05-19T15:09:51.000Z</time>
      </trkpt>
      <trkpt lat="47.22835" lon="-1.46952">
        <ele>55</ele>
        <time>2021-05-19T15:09:53.000Z</time>
      </trkpt>
      <trkpt lat="47.22848" lon="-1.46957">
        <ele>55</ele>
        <time>2021-05-19T15:09:55.000Z</time>
      </trkpt>
      <trkpt lat="47.22861" lon="-1.46962">
        <ele>55</ele>
        <time>2021-05-19T15:09:57.000Z</time>
      </trkpt>
      <trkpt lat="47.22874" lon="-1.46969">
        <ele>55</ele>
        <time>2021-05-19T15:09:59.000Z</time>
      </trkpt>
      <trkpt lat="47.22886" lon="-1.46973">
        <ele>56</ele>
        <time>2021-05-19T15:10:01.000Z</time>
      </trkpt>
      <trkpt lat="47.22898" lon="-1.46977">
        <ele>56</ele>
        <time>2021-05-19T15:10:03.000Z</time>
      </trkpt>
      <trkpt lat="47.22911" lon="-1.4698">
        <ele>56</ele>
        <time>2021-05-19T15:10:05.000Z</time>
      </trkpt>
      <trkpt lat="47.22924" lon="-1.46981">
        <ele>57</ele>
        <time>2021-05-19T15:10:07.000Z</time>
      </trkpt>
      <trkpt lat="47.22937" lon="-1.46982">
        <ele>57</ele>
        <time>2021-05-19T15:10:09.000Z</time>
      </trkpt>
      <trkpt lat="47.2295" lon="-1.46983">
        <ele>57</ele>
        <time>2021-05-19T15:10:11.000Z</time>
      </trkpt>
      <trkpt lat="47.22962" lon="-1.46985">
        <ele>58</ele>
        <time>2021-05-19T15:10:13.000Z</time>
      </trkpt>
      <trkpt lat="47.22975" lon="-1.46987">
        <ele>58</ele>
        <time>2021-05-19T15:10:15.000Z</time>
      </trkpt>
      <trkpt lat="47.22988" lon="-1.46992">
        <ele>58</ele>
        <time>2021-05-19T15:10:17.000Z</time>
      </trkpt>
      <trkpt lat="47.23" lon="-1.46996">
        <ele>58</ele>
        <time>2021-05-19T15:10:19.000Z</time>
      </trkpt>
      <trkpt lat="47.23012" lon="-1.47004">
        <ele>58</ele>
        <time>2021-05-19T15:10:21.000Z</time>
      </trkpt>
      <trkpt lat="47.23024" lon="-1.47012">
        <ele>58</ele>
        <time>2021-05-19T15:10:23.000Z</time>
      </trkpt>
      <trkpt lat="47.23035" lon="-1.47022">
        <ele>58</ele>
        <time>2021-05-19T15:10:25.000Z</time>
      </trkpt>
      <trkpt lat="47.23046" lon="-1.47033">
        <ele>58</ele>
        <time>2021-05-19T15:10:27.000Z</time>
      </trkpt>
      <trkpt lat="47.23055" lon="-1.47047">
        <ele>58</ele>
        <time>2021-05-19T15:10:29.000Z</time>
      </trkpt>
      <trkpt lat="47.23063" lon="-1.47062">
        <ele>57</ele>
        <time>2021-05-19T15:10:31.000Z</time>
      </trkpt>
      <trkpt lat="47.23073" lon="-1.47078">
        <ele>56</ele>
        <time>2021-05-19T15:10:33.000Z</time>
      </trkpt>
      <trkpt lat="47.23082" lon="-1.47094">
        <ele>56</ele>
        <time>2021-05-19T15:10:35.000Z</time>
      </trkpt>
      <trkpt lat="47.23091" lon="-1.47109">
        <ele>56</ele>
        <time>2021-05-19T15:10:37.000Z</time>
      </trkpt>
      <trkpt lat="47.23098" lon="-1.47122">
        <ele>55</ele>
        <time>2021-05-19T15:10:39.000Z</time>
      </trkpt>
      <trkpt lat="47.23108" lon="-1.47127">
        <ele>56</ele>
        <time>2021-05-19T15:10:41.000Z</time>
      </trkpt>
      <trkpt lat="47.23119" lon="-1.47124">
        <ele>55</ele>
        <time>2021-05-19T15:10:43.000Z</time>
      </trkpt>
      <trkpt lat="47.23127" lon="-1.47113">
        <ele>55</ele>
        <time>2021-05-19T15:10:45.000Z</time>
      </trkpt>
      <trkpt lat="47.23134" lon="-1.471">
        <ele>54</ele>
        <time>2021-05-19T15:10:47.000Z</time>
      </trkpt>
      <trkpt lat="47.2313" lon="-1.47083">
        <ele>54</ele>
        <time>2021-05-19T15:10:50.000Z</time>
      </trkpt>
      <trkpt lat="47.23121" lon="-1.47067">
        <ele>54</ele>
        <time>2021-05-19T15:10:52.000Z</time>
      </trkpt>
      <trkpt lat="47.23114" lon="-1.47048">
        <ele>54</ele>
        <time>2021-05-19T15:10:54.000Z</time>
      </trkpt>
      <trkpt lat="47.23106" lon="-1.47031">
        <ele>54</ele>
        <time>2021-05-19T15:10:56.000Z</time>
      </trkpt>
      <trkpt lat="47.23099" lon="-1.47016">
        <ele>53</ele>
        <time>2021-05-19T15:10:58.000Z</time>
      </trkpt>
      <trkpt lat="47.23092" lon="-1.47">
        <ele>54</ele>
        <time>2021-05-19T15:11:00.000Z</time>
      </trkpt>
      <trkpt lat="47.23084" lon="-1.46989">
        <ele>55</ele>
        <time>2021-05-19T15:11:02.000Z</time>
      </trkpt>
      <trkpt lat="47.23075" lon="-1.46995">
        <ele>55</ele>
        <time>2021-05-19T15:11:05.000Z</time>
      </trkpt>
      <trkpt lat="47.23083" lon="-1.47012">
        <ele>55</ele>
        <time>2021-05-19T15:11:08.000Z</time>
      </trkpt>
      <trkpt lat="47.23091" lon="-1.47024">
        <ele>56</ele>
        <time>2021-05-19T15:11:10.000Z</time>
      </trkpt>
      <trkpt lat="47.23098" lon="-1.47037">
        <ele>57</ele>
        <time>2021-05-19T15:11:12.000Z</time>
      </trkpt>
      <trkpt lat="47.23106" lon="-1.4705">
        <ele>58</ele>
        <time>2021-05-19T15:11:14.000Z</time>
      </trkpt>
      <trkpt lat="47.23113" lon="-1.47063">
        <ele>58</ele>
        <time>2021-05-19T15:11:16.000Z</time>
      </trkpt>
      <trkpt lat="47.23118" lon="-1.47076">
        <ele>59</ele>
        <time>2021-05-19T15:11:18.000Z</time>
      </trkpt>
      <trkpt lat="47.23125" lon="-1.4709">
        <ele>59</ele>
        <time>2021-05-19T15:11:20.000Z</time>
      </trkpt>
      <trkpt lat="47.23133" lon="-1.47103">
        <ele>59</ele>
        <time>2021-05-19T15:11:22.000Z</time>
      </trkpt>
      <trkpt lat="47.2314" lon="-1.47116">
        <ele>60</ele>
        <time>2021-05-19T15:11:24.000Z</time>
      </trkpt>
      <trkpt lat="47.23149" lon="-1.47131">
        <ele>60</ele>
        <time>2021-05-19T15:11:26.000Z</time>
      </trkpt>
      <trkpt lat="47.23157" lon="-1.47146">
        <ele>60</ele>
        <time>2021-05-19T15:11:28.000Z</time>
      </trkpt>
      <trkpt lat="47.23165" lon="-1.4716">
        <ele>60</ele>
        <time>2021-05-19T15:11:30.000Z</time>
      </trkpt>
      <trkpt lat="47.23173" lon="-1.47173">
        <ele>60</ele>
        <time>2021-05-19T15:11:32.000Z</time>
      </trkpt>
      <trkpt lat="47.23181" lon="-1.47186">
        <ele>61</ele>
        <time>2021-05-19T15:11:34.000Z</time>
      </trkpt>
      <trkpt lat="47.23189" lon="-1.47199">
        <ele>61</ele>
        <time>2021-05-19T15:11:36.000Z</time>
      </trkpt>
      <trkpt lat="47.23196" lon="-1.47211">
        <ele>62</ele>
        <time>2021-05-19T15:11:38.000Z</time>
      </trkpt>
      <trkpt lat="47.23204" lon="-1.47224">
        <ele>62</ele>
        <time>2021-05-19T15:11:40.000Z</time>
      </trkpt>
      <trkpt lat="47.23211" lon="-1.47237">
        <ele>62</ele>
        <time>2021-05-19T15:11:42.000Z</time>
      </trkpt>
      <trkpt lat="47.23219" lon="-1.47251">
        <ele>62</ele>
        <time>2021-05-19T15:11:44.000Z</time>
      </trkpt>
      <trkpt lat="47.23227" lon="-1.47264">
        <ele>62</ele>
        <time>2021-05-19T15:11:46.000Z</time>
      </trkpt>
      <trkpt lat="47.23235" lon="-1.47278">
        <ele>62</ele>
        <time>2021-05-19T15:11:48.000Z</time>
      </trkpt>
      <trkpt lat="47.23243" lon="-1.47291">
        <ele>62</ele>
        <time>2021-05-19T15:11:50.000Z</time>
      </trkpt>
      <trkpt lat="47.23251" lon="-1.47305">
        <ele>62</ele>
        <time>2021-05-19T15:11:52.000Z</time>
      </trkpt>
      <trkpt lat="47.23259" lon="-1.47319">
        <ele>62</ele>
        <time>2021-05-19T15:11:54.000Z</time>
      </trkpt>
      <trkpt lat="47.23267" lon="-1.47334">
        <ele>62</ele>
        <time>2021-05-19T15:11:56.000Z</time>
      </trkpt>
      <trkpt lat="47.23275" lon="-1.47347">
        <ele>62</ele>
        <time>2021-05-19T15:11:58.000Z</time>
      </trkpt>
      <trkpt lat="47.23283" lon="-1.4736">
        <ele>62</ele>
        <time>2021-05-19T15:12:00.000Z</time>
      </trkpt>
      <trkpt lat="47.23291" lon="-1.47374">
        <ele>62</ele>
        <time>2021-05-19T15:12:02.000Z</time>
      </trkpt>
      <trkpt lat="47.23299" lon="-1.47389">
        <ele>61</ele>
        <time>2021-05-19T15:12:04.000Z</time>
      </trkpt>
      <trkpt lat="47.23308" lon="-1.47404">
        <ele>62</ele>
        <time>2021-05-19T15:12:06.000Z</time>
      </trkpt>
      <trkpt lat="47.23316" lon="-1.47418">
        <ele>62</ele>
        <time>2021-05-19T15:12:08.000Z</time>
      </trkpt>
      <trkpt lat="47.23325" lon="-1.47432">
        <ele>62</ele>
        <time>2021-05-19T15:12:10.000Z</time>
      </trkpt>
      <trkpt lat="47.23333" lon="-1.47446">
        <ele>61</ele>
        <time>2021-05-19T15:12:12.000Z</time>
      </trkpt>
      <trkpt lat="47.23341" lon="-1.47462">
        <ele>61</ele>
        <time>2021-05-19T15:12:14.000Z</time>
      </trkpt>
      <trkpt lat="47.2335" lon="-1.47476">
        <ele>61</ele>
        <time>2021-05-19T15:12:16.000Z</time>
      </trkpt>
      <trkpt lat="47.23358" lon="-1.47489">
        <ele>61</ele>
        <time>2021-05-19T15:12:18.000Z</time>
      </trkpt>
      <trkpt lat="47.23366" lon="-1.47502">
        <ele>60</ele>
        <time>2021-05-19T15:12:20.000Z</time>
      </trkpt>
      <trkpt lat="47.23376" lon="-1.47515">
        <ele>59</ele>
        <time>2021-05-19T15:12:22.000Z</time>
      </trkpt>
      <trkpt lat="47.23386" lon="-1.4753">
        <ele>59</ele>
        <time>2021-05-19T15:12:24.000Z</time>
      </trkpt>
      <trkpt lat="47.23396" lon="-1.47545">
        <ele>59</ele>
        <time>2021-05-19T15:12:26.000Z</time>
      </trkpt>
      <trkpt lat="47.23405" lon="-1.47559">
        <ele>58</ele>
        <time>2021-05-19T15:12:28.000Z</time>
      </trkpt>
      <trkpt lat="47.23414" lon="-1.47573">
        <ele>57</ele>
        <time>2021-05-19T15:12:30.000Z</time>
      </trkpt>
      <trkpt lat="47.23424" lon="-1.47588">
        <ele>57</ele>
        <time>2021-05-19T15:12:32.000Z</time>
      </trkpt>
      <trkpt lat="47.23434" lon="-1.47602">
        <ele>57</ele>
        <time>2021-05-19T15:12:34.000Z</time>
      </trkpt>
      <trkpt lat="47.23444" lon="-1.47617">
        <ele>57</ele>
        <time>2021-05-19T15:12:36.000Z</time>
      </trkpt>
      <trkpt lat="47.23454" lon="-1.47632">
        <ele>56</ele>
        <time>2021-05-19T15:12:38.000Z</time>
      </trkpt>
      <trkpt lat="47.23465" lon="-1.47646">
        <ele>56</ele>
        <time>2021-05-19T15:12:40.000Z</time>
      </trkpt>
      <trkpt lat="47.23476" lon="-1.47658">
        <ele>55</ele>
        <time>2021-05-19T15:12:42.000Z</time>
      </trkpt>
      <trkpt lat="47.23488" lon="-1.47668">
        <ele>54</ele>
        <time>2021-05-19T15:12:44.000Z</time>
      </trkpt>
      <trkpt lat="47.235" lon="-1.47677">
        <ele>53</ele>
        <time>2021-05-19T15:12:46.000Z</time>
      </trkpt>
      <trkpt lat="47.23513" lon="-1.47685">
        <ele>54</ele>
        <time>2021-05-19T15:12:48.000Z</time>
      </trkpt>
      <trkpt lat="47.23526" lon="-1.47692">
        <ele>54</ele>
        <time>2021-05-19T15:12:50.000Z</time>
      </trkpt>
      <trkpt lat="47.23538" lon="-1.47699">
        <ele>54</ele>
        <time>2021-05-19T15:12:52.000Z</time>
      </trkpt>
      <trkpt lat="47.23549" lon="-1.477">
        <ele>54</ele>
        <time>2021-05-19T15:12:54.000Z</time>
      </trkpt>
      <trkpt lat="47.23559" lon="-1.47694">
        <ele>53</ele>
        <time>2021-05-19T15:12:56.000Z</time>
      </trkpt>
      <trkpt lat="47.23567" lon="-1.47687">
        <ele>53</ele>
        <time>2021-05-19T15:12:59.000Z</time>
      </trkpt>
      <trkpt lat="47.23576" lon="-1.47693">
        <ele>53</ele>
        <time>2021-05-19T15:13:04.000Z</time>
      </trkpt>
      <trkpt lat="47.23589" lon="-1.47697">
        <ele>53</ele>
        <time>2021-05-19T15:13:07.000Z</time>
      </trkpt>
      <trkpt lat="47.23601" lon="-1.477">
        <ele>53</ele>
        <time>2021-05-19T15:13:09.000Z</time>
      </trkpt>
      <trkpt lat="47.23613" lon="-1.47708">
        <ele>54</ele>
        <time>2021-05-19T15:13:11.000Z</time>
      </trkpt>
      <trkpt lat="47.23625" lon="-1.47715">
        <ele>54</ele>
        <time>2021-05-19T15:13:13.000Z</time>
      </trkpt>
      <trkpt lat="47.23638" lon="-1.47723">
        <ele>53</ele>
        <time>2021-05-19T15:13:15.000Z</time>
      </trkpt>
      <trkpt lat="47.2365" lon="-1.47731">
        <ele>53</ele>
        <time>2021-05-19T15:13:17.000Z</time>
      </trkpt>
      <trkpt lat="47.23662" lon="-1.47738">
        <ele>54</ele>
        <time>2021-05-19T15:13:19.000Z</time>
      </trkpt>
      <trkpt lat="47.23674" lon="-1.47745">
        <ele>54</ele>
        <time>2021-05-19T15:13:21.000Z</time>
      </trkpt>
      <trkpt lat="47.23687" lon="-1.47746">
        <ele>53</ele>
        <time>2021-05-19T15:13:23.000Z</time>
      </trkpt>
      <trkpt lat="47.23701" lon="-1.47745">
        <ele>53</ele>
        <time>2021-05-19T15:13:25.000Z</time>
      </trkpt>
      <trkpt lat="47.23715" lon="-1.47738">
        <ele>53</ele>
        <time>2021-05-19T15:13:27.000Z</time>
      </trkpt>
      <trkpt lat="47.23726" lon="-1.47728">
        <ele>52</ele>
        <time>2021-05-19T15:13:29.000Z</time>
      </trkpt>
      <trkpt lat="47.23738" lon="-1.47716">
        <ele>52</ele>
        <time>2021-05-19T15:13:31.000Z</time>
      </trkpt>
      <trkpt lat="47.23748" lon="-1.47704">
        <ele>51</ele>
        <time>2021-05-19T15:13:33.000Z</time>
      </trkpt>
      <trkpt lat="47.23759" lon="-1.47691">
        <ele>51</ele>
        <time>2021-05-19T15:13:35.000Z</time>
      </trkpt>
      <trkpt lat="47.2377" lon="-1.47681">
        <ele>51</ele>
        <time>2021-05-19T15:13:37.000Z</time>
      </trkpt>
      <trkpt lat="47.23783" lon="-1.47674">
        <ele>51</ele>
        <time>2021-05-19T15:13:39.000Z</time>
      </trkpt>
      <trkpt lat="47.23795" lon="-1.47665">
        <ele>51</ele>
        <time>2021-05-19T15:13:41.000Z</time>
      </trkpt>
      <trkpt lat="47.23807" lon="-1.47655">
        <ele>51</ele>
        <time>2021-05-19T15:13:43.000Z</time>
      </trkpt>
      <trkpt lat="47.2382" lon="-1.4765">
        <ele>51</ele>
        <time>2021-05-19T15:13:45.000Z</time>
      </trkpt>
      <trkpt lat="47.23834" lon="-1.47647">
        <ele>52</ele>
        <time>2021-05-19T15:13:47.000Z</time>
      </trkpt>
      <trkpt lat="47.23847" lon="-1.47641">
        <ele>52</ele>
        <time>2021-05-19T15:13:49.000Z</time>
      </trkpt>
      <trkpt lat="47.23861" lon="-1.47633">
        <ele>51</ele>
        <time>2021-05-19T15:13:51.000Z</time>
      </trkpt>
      <trkpt lat="47.23874" lon="-1.47627">
        <ele>52</ele>
        <time>2021-05-19T15:13:53.000Z</time>
      </trkpt>
      <trkpt lat="47.23888" lon="-1.47623">
        <ele>52</ele>
        <time>2021-05-19T15:13:55.000Z</time>
      </trkpt>
      <trkpt lat="47.23902" lon="-1.47623">
        <ele>53</ele>
        <time>2021-05-19T15:13:57.000Z</time>
      </trkpt>
      <trkpt lat="47.23917" lon="-1.47627">
        <ele>54</ele>
        <time>2021-05-19T15:13:59.000Z</time>
      </trkpt>
      <trkpt lat="47.2393" lon="-1.47635">
        <ele>54</ele>
        <time>2021-05-19T15:14:01.000Z</time>
      </trkpt>
      <trkpt lat="47.23943" lon="-1.47645">
        <ele>54</ele>
        <time>2021-05-19T15:14:03.000Z</time>
      </trkpt>
      <trkpt lat="47.23955" lon="-1.47658">
        <ele>54</ele>
        <time>2021-05-19T15:14:05.000Z</time>
      </trkpt>
      <trkpt lat="47.23965" lon="-1.47674">
        <ele>55</ele>
        <time>2021-05-19T15:14:07.000Z</time>
      </trkpt>
      <trkpt lat="47.23975" lon="-1.47691">
        <ele>56</ele>
        <time>2021-05-19T15:14:09.000Z</time>
      </trkpt>
      <trkpt lat="47.23983" lon="-1.47708">
        <ele>56</ele>
        <time>2021-05-19T15:14:11.000Z</time>
      </trkpt>
      <trkpt lat="47.2399" lon="-1.47724">
        <ele>56</ele>
        <time>2021-05-19T15:14:13.000Z</time>
      </trkpt>
      <trkpt lat="47.23996" lon="-1.4774">
        <ele>55</ele>
        <time>2021-05-19T15:14:15.000Z</time>
      </trkpt>
      <trkpt lat="47.24002" lon="-1.47754">
        <ele>55</ele>
        <time>2021-05-19T15:14:17.000Z</time>
      </trkpt>
      <trkpt lat="47.2401" lon="-1.47768">
        <ele>55</ele>
        <time>2021-05-19T15:14:19.000Z</time>
      </trkpt>
      <trkpt lat="47.24019" lon="-1.47784">
        <ele>55</ele>
        <time>2021-05-19T15:14:21.000Z</time>
      </trkpt>
      <trkpt lat="47.24025" lon="-1.47803">
        <ele>54</ele>
        <time>2021-05-19T15:14:23.000Z</time>
      </trkpt>
      <trkpt lat="47.2403" lon="-1.4782">
        <ele>54</ele>
        <time>2021-05-19T15:14:25.000Z</time>
      </trkpt>
      <trkpt lat="47.24037" lon="-1.47836">
        <ele>54</ele>
        <time>2021-05-19T15:14:27.000Z</time>
      </trkpt>
      <trkpt lat="47.24043" lon="-1.47856">
        <ele>53</ele>
        <time>2021-05-19T15:14:29.000Z</time>
      </trkpt>
      <trkpt lat="47.2405" lon="-1.47874">
        <ele>53</ele>
        <time>2021-05-19T15:14:31.000Z</time>
      </trkpt>
      <trkpt lat="47.24055" lon="-1.47892">
        <ele>53</ele>
        <time>2021-05-19T15:14:33.000Z</time>
      </trkpt>
      <trkpt lat="47.24061" lon="-1.4791">
        <ele>53</ele>
        <time>2021-05-19T15:14:35.000Z</time>
      </trkpt>
      <trkpt lat="47.24067" lon="-1.47928">
        <ele>54</ele>
        <time>2021-05-19T15:14:37.000Z</time>
      </trkpt>
      <trkpt lat="47.24072" lon="-1.47945">
        <ele>54</ele>
        <time>2021-05-19T15:14:39.000Z</time>
      </trkpt>
      <trkpt lat="47.24077" lon="-1.47963">
        <ele>54</ele>
        <time>2021-05-19T15:14:41.000Z</time>
      </trkpt>
      <trkpt lat="47.24083" lon="-1.47983">
        <ele>52</ele>
        <time>2021-05-19T15:14:43.000Z</time>
      </trkpt>
      <trkpt lat="47.24089" lon="-1.48002">
        <ele>52</ele>
        <time>2021-05-19T15:14:45.000Z</time>
      </trkpt>
      <trkpt lat="47.24097" lon="-1.4802">
        <ele>51</ele>
        <time>2021-05-19T15:14:47.000Z</time>
      </trkpt>
      <trkpt lat="47.24105" lon="-1.48037">
        <ele>51</ele>
        <time>2021-05-19T15:14:49.000Z</time>
      </trkpt>
      <trkpt lat="47.24114" lon="-1.48054">
        <ele>50</ele>
        <time>2021-05-19T15:14:51.000Z</time>
      </trkpt>
      <trkpt lat="47.24123" lon="-1.48071">
        <ele>50</ele>
        <time>2021-05-19T15:14:53.000Z</time>
      </trkpt>
      <trkpt lat="47.24133" lon="-1.48083">
        <ele>50</ele>
        <time>2021-05-19T15:14:55.000Z</time>
      </trkpt>
      <trkpt lat="47.24144" lon="-1.48097">
        <ele>51</ele>
        <time>2021-05-19T15:14:57.000Z</time>
      </trkpt>
      <trkpt lat="47.24155" lon="-1.48109">
        <ele>51</ele>
        <time>2021-05-19T15:14:59.000Z</time>
      </trkpt>
      <trkpt lat="47.24165" lon="-1.4812">
        <ele>50</ele>
        <time>2021-05-19T15:15:01.000Z</time>
      </trkpt>
      <trkpt lat="47.24177" lon="-1.48129">
        <ele>50</ele>
        <time>2021-05-19T15:15:03.000Z</time>
      </trkpt>
      <trkpt lat="47.24188" lon="-1.48138">
        <ele>50</ele>
        <time>2021-05-19T15:15:05.000Z</time>
      </trkpt>
      <trkpt lat="47.24199" lon="-1.48148">
        <ele>50</ele>
        <time>2021-05-19T15:15:07.000Z</time>
      </trkpt>
      <trkpt lat="47.24212" lon="-1.48156">
        <ele>50</ele>
        <time>2021-05-19T15:15:09.000Z</time>
      </trkpt>
      <trkpt lat="47.24224" lon="-1.48164">
        <ele>50</ele>
        <time>2021-05-19T15:15:11.000Z</time>
      </trkpt>
      <trkpt lat="47.24236" lon="-1.48171">
        <ele>50</ele>
        <time>2021-05-19T15:15:13.000Z</time>
      </trkpt>
      <trkpt lat="47.24248" lon="-1.48176">
        <ele>50</ele>
        <time>2021-05-19T15:15:15.000Z</time>
      </trkpt>
      <trkpt lat="47.24262" lon="-1.48183">
        <ele>51</ele>
        <time>2021-05-19T15:15:17.000Z</time>
      </trkpt>
      <trkpt lat="47.24275" lon="-1.48192">
        <ele>52</ele>
        <time>2021-05-19T15:15:19.000Z</time>
      </trkpt>
      <trkpt lat="47.24287" lon="-1.48201">
        <ele>52</ele>
        <time>2021-05-19T15:15:21.000Z</time>
      </trkpt>
      <trkpt lat="47.24301" lon="-1.48212">
        <ele>53</ele>
        <time>2021-05-19T15:15:23.000Z</time>
      </trkpt>
      <trkpt lat="47.24313" lon="-1.48223">
        <ele>53</ele>
        <time>2021-05-19T15:15:25.000Z</time>
      </trkpt>
      <trkpt lat="47.24325" lon="-1.48234">
        <ele>53</ele>
        <time>2021-05-19T15:15:27.000Z</time>
      </trkpt>
      <trkpt lat="47.24338" lon="-1.48243">
        <ele>53</ele>
        <time>2021-05-19T15:15:29.000Z</time>
      </trkpt>
      <trkpt lat="47.2435" lon="-1.48251">
        <ele>54</ele>
        <time>2021-05-19T15:15:31.000Z</time>
      </trkpt>
      <trkpt lat="47.24361" lon="-1.48266">
        <ele>54</ele>
        <time>2021-05-19T15:15:33.000Z</time>
      </trkpt>
      <trkpt lat="47.2437" lon="-1.48283">
        <ele>54</ele>
        <time>2021-05-19T15:15:35.000Z</time>
      </trkpt>
      <trkpt lat="47.24381" lon="-1.48299">
        <ele>54</ele>
        <time>2021-05-19T15:15:37.000Z</time>
      </trkpt>
      <trkpt lat="47.24392" lon="-1.48313">
        <ele>53</ele>
        <time>2021-05-19T15:15:39.000Z</time>
      </trkpt>
      <trkpt lat="47.24403" lon="-1.48328">
        <ele>53</ele>
        <time>2021-05-19T15:15:41.000Z</time>
      </trkpt>
      <trkpt lat="47.24413" lon="-1.48341">
        <ele>53</ele>
        <time>2021-05-19T15:15:43.000Z</time>
      </trkpt>
      <trkpt lat="47.24425" lon="-1.48351">
        <ele>52</ele>
        <time>2021-05-19T15:15:45.000Z</time>
      </trkpt>
      <trkpt lat="47.24438" lon="-1.48359">
        <ele>53</ele>
        <time>2021-05-19T15:15:47.000Z</time>
      </trkpt>
      <trkpt lat="47.24451" lon="-1.48365">
        <ele>53</ele>
        <time>2021-05-19T15:15:49.000Z</time>
      </trkpt>
      <trkpt lat="47.24464" lon="-1.48372">
        <ele>52</ele>
        <time>2021-05-19T15:15:51.000Z</time>
      </trkpt>
      <trkpt lat="47.24476" lon="-1.48382">
        <ele>51</ele>
        <time>2021-05-19T15:15:53.000Z</time>
      </trkpt>
      <trkpt lat="47.24488" lon="-1.4839">
        <ele>51</ele>
        <time>2021-05-19T15:15:55.000Z</time>
      </trkpt>
      <trkpt lat="47.245" lon="-1.48398">
        <ele>52</ele>
        <time>2021-05-19T15:15:57.000Z</time>
      </trkpt>
      <trkpt lat="47.24512" lon="-1.48407">
        <ele>52</ele>
        <time>2021-05-19T15:15:59.000Z</time>
      </trkpt>
      <trkpt lat="47.24523" lon="-1.48416">
        <ele>52</ele>
        <time>2021-05-19T15:16:01.000Z</time>
      </trkpt>
      <trkpt lat="47.24535" lon="-1.48427">
        <ele>52</ele>
        <time>2021-05-19T15:16:03.000Z</time>
      </trkpt>
      <trkpt lat="47.24545" lon="-1.48438">
        <ele>52</ele>
        <time>2021-05-19T15:16:05.000Z</time>
      </trkpt>
      <trkpt lat="47.24555" lon="-1.48448">
        <ele>52</ele>
        <time>2021-05-19T15:16:07.000Z</time>
      </trkpt>
      <trkpt lat="47.24566" lon="-1.48459">
        <ele>53</ele>
        <time>2021-05-19T15:16:09.000Z</time>
      </trkpt>
      <trkpt lat="47.24576" lon="-1.48471">
        <ele>53</ele>
        <time>2021-05-19T15:16:11.000Z</time>
      </trkpt>
      <trkpt lat="47.24587" lon="-1.48483">
        <ele>53</ele>
        <time>2021-05-19T15:16:13.000Z</time>
      </trkpt>
      <trkpt lat="47.24596" lon="-1.48496">
        <ele>52</ele>
        <time>2021-05-19T15:16:15.000Z</time>
      </trkpt>
      <trkpt lat="47.24606" lon="-1.48508">
        <ele>52</ele>
        <time>2021-05-19T15:16:17.000Z</time>
      </trkpt>
      <trkpt lat="47.24617" lon="-1.4852">
        <ele>52</ele>
        <time>2021-05-19T15:16:19.000Z</time>
      </trkpt>
      <trkpt lat="47.24627" lon="-1.48533">
        <ele>52</ele>
        <time>2021-05-19T15:16:21.000Z</time>
      </trkpt>
      <trkpt lat="47.24638" lon="-1.48546">
        <ele>52</ele>
        <time>2021-05-19T15:16:23.000Z</time>
      </trkpt>
      <trkpt lat="47.24648" lon="-1.48558">
        <ele>52</ele>
        <time>2021-05-19T15:16:25.000Z</time>
      </trkpt>
      <trkpt lat="47.24659" lon="-1.48569">
        <ele>52</ele>
        <time>2021-05-19T15:16:27.000Z</time>
      </trkpt>
      <trkpt lat="47.2467" lon="-1.48578">
        <ele>53</ele>
        <time>2021-05-19T15:16:29.000Z</time>
      </trkpt>
      <trkpt lat="47.24681" lon="-1.48589">
        <ele>53</ele>
        <time>2021-05-19T15:16:31.000Z</time>
      </trkpt>
      <trkpt lat="47.24692" lon="-1.48599">
        <ele>55</ele>
        <time>2021-05-19T15:16:33.000Z</time>
      </trkpt>
      <trkpt lat="47.24703" lon="-1.48609">
        <ele>55</ele>
        <time>2021-05-19T15:16:35.000Z</time>
      </trkpt>
      <trkpt lat="47.24713" lon="-1.48618">
        <ele>56</ele>
        <time>2021-05-19T15:16:37.000Z</time>
      </trkpt>
      <trkpt lat="47.24724" lon="-1.48626">
        <ele>57</ele>
        <time>2021-05-19T15:16:39.000Z</time>
      </trkpt>
      <trkpt lat="47.24734" lon="-1.4863">
        <ele>57</ele>
        <time>2021-05-19T15:16:41.000Z</time>
      </trkpt>
      <trkpt lat="47.24746" lon="-1.48627">
        <ele>58</ele>
        <time>2021-05-19T15:16:43.000Z</time>
      </trkpt>
      <trkpt lat="47.24758" lon="-1.48627">
        <ele>58</ele>
        <time>2021-05-19T15:16:45.000Z</time>
      </trkpt>
      <trkpt lat="47.24768" lon="-1.48637">
        <ele>59</ele>
        <time>2021-05-19T15:16:47.000Z</time>
      </trkpt>
      <trkpt lat="47.24777" lon="-1.48647">
        <ele>60</ele>
        <time>2021-05-19T15:16:49.000Z</time>
      </trkpt>
      <trkpt lat="47.24788" lon="-1.48647">
        <ele>60</ele>
        <time>2021-05-19T15:16:51.000Z</time>
      </trkpt>
      <trkpt lat="47.24799" lon="-1.48646">
        <ele>60</ele>
        <time>2021-05-19T15:16:53.000Z</time>
      </trkpt>
      <trkpt lat="47.24812" lon="-1.48646">
        <ele>60</ele>
        <time>2021-05-19T15:16:55.000Z</time>
      </trkpt>
      <trkpt lat="47.24824" lon="-1.48647">
        <ele>60</ele>
        <time>2021-05-19T15:16:57.000Z</time>
      </trkpt>
      <trkpt lat="47.24836" lon="-1.48649">
        <ele>60</ele>
        <time>2021-05-19T15:16:59.000Z</time>
      </trkpt>
      <trkpt lat="47.24847" lon="-1.48651">
        <ele>61</ele>
        <time>2021-05-19T15:17:01.000Z</time>
      </trkpt>
      <trkpt lat="47.24858" lon="-1.48654">
        <ele>61</ele>
        <time>2021-05-19T15:17:03.000Z</time>
      </trkpt>
      <trkpt lat="47.24869" lon="-1.48659">
        <ele>61</ele>
        <time>2021-05-19T15:17:05.000Z</time>
      </trkpt>
      <trkpt lat="47.24881" lon="-1.48662">
        <ele>61</ele>
        <time>2021-05-19T15:17:07.000Z</time>
      </trkpt>
      <trkpt lat="47.24894" lon="-1.48664">
        <ele>61</ele>
        <time>2021-05-19T15:17:09.000Z</time>
      </trkpt>
      <trkpt lat="47.24907" lon="-1.48669">
        <ele>61</ele>
        <time>2021-05-19T15:17:11.000Z</time>
      </trkpt>
      <trkpt lat="47.24919" lon="-1.48675">
        <ele>61</ele>
        <time>2021-05-19T15:17:13.000Z</time>
      </trkpt>
      <trkpt lat="47.2493" lon="-1.4868">
        <ele>62</ele>
        <time>2021-05-19T15:17:15.000Z</time>
      </trkpt>
      <trkpt lat="47.24941" lon="-1.48683">
        <ele>63</ele>
        <time>2021-05-19T15:17:18.000Z</time>
      </trkpt>
      <trkpt lat="47.24953" lon="-1.48682">
        <ele>64</ele>
        <time>2021-05-19T15:17:23.000Z</time>
      </trkpt>
      <trkpt lat="47.24962" lon="-1.4869">
        <ele>64</ele>
        <time>2021-05-19T15:17:25.000Z</time>
      </trkpt>
      <trkpt lat="47.24971" lon="-1.48701">
        <ele>65</ele>
        <time>2021-05-19T15:17:27.000Z</time>
      </trkpt>
      <trkpt lat="47.24985" lon="-1.48707">
        <ele>65</ele>
        <time>2021-05-19T15:17:29.000Z</time>
      </trkpt>
      <trkpt lat="47.24998" lon="-1.48713">
        <ele>66</ele>
        <time>2021-05-19T15:17:31.000Z</time>
      </trkpt>
      <trkpt lat="47.25011" lon="-1.48719">
        <ele>68</ele>
        <time>2021-05-19T15:17:33.000Z</time>
      </trkpt>
      <trkpt lat="47.25024" lon="-1.48726">
        <ele>68</ele>
        <time>2021-05-19T15:17:35.000Z</time>
      </trkpt>
      <trkpt lat="47.25038" lon="-1.4873">
        <ele>68</ele>
        <time>2021-05-19T15:17:37.000Z</time>
      </trkpt>
      <trkpt lat="47.25052" lon="-1.48735">
        <ele>68</ele>
        <time>2021-05-19T15:17:39.000Z</time>
      </trkpt>
      <trkpt lat="47.25067" lon="-1.48739">
        <ele>68</ele>
        <time>2021-05-19T15:17:41.000Z</time>
      </trkpt>
      <trkpt lat="47.2508" lon="-1.48742">
        <ele>68</ele>
        <time>2021-05-19T15:17:43.000Z</time>
      </trkpt>
      <trkpt lat="47.25095" lon="-1.48745">
        <ele>68</ele>
        <time>2021-05-19T15:17:45.000Z</time>
      </trkpt>
      <trkpt lat="47.25109" lon="-1.48748">
        <ele>68</ele>
        <time>2021-05-19T15:17:47.000Z</time>
      </trkpt>
      <trkpt lat="47.25124" lon="-1.48749">
        <ele>68</ele>
        <time>2021-05-19T15:17:49.000Z</time>
      </trkpt>
      <trkpt lat="47.25138" lon="-1.48749">
        <ele>68</ele>
        <time>2021-05-19T15:17:51.000Z</time>
      </trkpt>
      <trkpt lat="47.25152" lon="-1.48747">
        <ele>68</ele>
        <time>2021-05-19T15:17:53.000Z</time>
      </trkpt>
      <trkpt lat="47.25167" lon="-1.48744">
        <ele>67</ele>
        <time>2021-05-19T15:17:55.000Z</time>
      </trkpt>
      <trkpt lat="47.2518" lon="-1.48741">
        <ele>67</ele>
        <time>2021-05-19T15:17:57.000Z</time>
      </trkpt>
      <trkpt lat="47.25194" lon="-1.48739">
        <ele>67</ele>
        <time>2021-05-19T15:17:59.000Z</time>
      </trkpt>
      <trkpt lat="47.25208" lon="-1.48736">
        <ele>67</ele>
        <time>2021-05-19T15:18:01.000Z</time>
      </trkpt>
      <trkpt lat="47.25221" lon="-1.48735">
        <ele>67</ele>
        <time>2021-05-19T15:18:03.000Z</time>
      </trkpt>
      <trkpt lat="47.25235" lon="-1.48734">
        <ele>67</ele>
        <time>2021-05-19T15:18:05.000Z</time>
      </trkpt>
      <trkpt lat="47.25248" lon="-1.48734">
        <ele>68</ele>
        <time>2021-05-19T15:18:07.000Z</time>
      </trkpt>
      <trkpt lat="47.25261" lon="-1.48735">
        <ele>68</ele>
        <time>2021-05-19T15:18:09.000Z</time>
      </trkpt>
      <trkpt lat="47.25271" lon="-1.48736">
        <ele>68</ele>
        <time>2021-05-19T15:18:11.000Z</time>
      </trkpt>
      <trkpt lat="47.25281" lon="-1.48732">
        <ele>68</ele>
        <time>2021-05-19T15:18:13.000Z</time>
      </trkpt>
      <trkpt lat="47.25291" lon="-1.48735">
        <ele>68</ele>
        <time>2021-05-19T15:18:15.000Z</time>
      </trkpt>
      <trkpt lat="47.253" lon="-1.48746">
        <ele>68</ele>
        <time>2021-05-19T15:18:17.000Z</time>
      </trkpt>
      <trkpt lat="47.25312" lon="-1.48752">
        <ele>69</ele>
        <time>2021-05-19T15:18:19.000Z</time>
      </trkpt>
      <trkpt lat="47.25326" lon="-1.48757">
        <ele>68</ele>
        <time>2021-05-19T15:18:21.000Z</time>
      </trkpt>
      <trkpt lat="47.25339" lon="-1.4876">
        <ele>69</ele>
        <time>2021-05-19T15:18:23.000Z</time>
      </trkpt>
      <trkpt lat="47.25351" lon="-1.48763">
        <ele>68</ele>
        <time>2021-05-19T15:18:25.000Z</time>
      </trkpt>
      <trkpt lat="47.25363" lon="-1.48767">
        <ele>69</ele>
        <time>2021-05-19T15:18:27.000Z</time>
      </trkpt>
      <trkpt lat="47.25377" lon="-1.48769">
        <ele>69</ele>
        <time>2021-05-19T15:18:29.000Z</time>
      </trkpt>
      <trkpt lat="47.25389" lon="-1.48772">
        <ele>69</ele>
        <time>2021-05-19T15:18:31.000Z</time>
      </trkpt>
      <trkpt lat="47.25402" lon="-1.48774">
        <ele>69</ele>
        <time>2021-05-19T15:18:33.000Z</time>
      </trkpt>
      <trkpt lat="47.25415" lon="-1.48775">
        <ele>69</ele>
        <time>2021-05-19T15:18:35.000Z</time>
      </trkpt>
      <trkpt lat="47.25428" lon="-1.48776">
        <ele>69</ele>
        <time>2021-05-19T15:18:37.000Z</time>
      </trkpt>
      <trkpt lat="47.25441" lon="-1.48776">
        <ele>69</ele>
        <time>2021-05-19T15:18:39.000Z</time>
      </trkpt>
      <trkpt lat="47.25454" lon="-1.48775">
        <ele>70</ele>
        <time>2021-05-19T15:18:41.000Z</time>
      </trkpt>
      <trkpt lat="47.25466" lon="-1.48774">
        <ele>70</ele>
        <time>2021-05-19T15:18:43.000Z</time>
      </trkpt>
      <trkpt lat="47.25479" lon="-1.48773">
        <ele>70</ele>
        <time>2021-05-19T15:18:45.000Z</time>
      </trkpt>
      <trkpt lat="47.25491" lon="-1.48771">
        <ele>71</ele>
        <time>2021-05-19T15:18:47.000Z</time>
      </trkpt>
      <trkpt lat="47.25504" lon="-1.48767">
        <ele>71</ele>
        <time>2021-05-19T15:18:49.000Z</time>
      </trkpt>
      <trkpt lat="47.25516" lon="-1.48764">
        <ele>72</ele>
        <time>2021-05-19T15:18:51.000Z</time>
      </trkpt>
      <trkpt lat="47.25528" lon="-1.4876">
        <ele>72</ele>
        <time>2021-05-19T15:18:53.000Z</time>
      </trkpt>
      <trkpt lat="47.25541" lon="-1.48757">
        <ele>72</ele>
        <time>2021-05-19T15:18:55.000Z</time>
      </trkpt>
      <trkpt lat="47.25554" lon="-1.48753">
        <ele>72</ele>
        <time>2021-05-19T15:18:57.000Z</time>
      </trkpt>
      <trkpt lat="47.25566" lon="-1.48749">
        <ele>72</ele>
        <time>2021-05-19T15:18:59.000Z</time>
      </trkpt>
      <trkpt lat="47.25578" lon="-1.48745">
        <ele>73</ele>
        <time>2021-05-19T15:19:01.000Z</time>
      </trkpt>
      <trkpt lat="47.25591" lon="-1.48744">
        <ele>73</ele>
        <time>2021-05-19T15:19:03.000Z</time>
      </trkpt>
      <trkpt lat="47.25604" lon="-1.48744">
        <ele>73</ele>
        <time>2021-05-19T15:19:05.000Z</time>
      </trkpt>
      <trkpt lat="47.25616" lon="-1.48746">
        <ele>74</ele>
        <time>2021-05-19T15:19:07.000Z</time>
      </trkpt>
      <trkpt lat="47.25629" lon="-1.48747">
        <ele>73</ele>
        <time>2021-05-19T15:19:09.000Z</time>
      </trkpt>
      <trkpt lat="47.25641" lon="-1.48749">
        <ele>74</ele>
        <time>2021-05-19T15:19:11.000Z</time>
      </trkpt>
      <trkpt lat="47.25652" lon="-1.48751">
        <ele>74</ele>
        <time>2021-05-19T15:19:13.000Z</time>
      </trkpt>
      <trkpt lat="47.25663" lon="-1.48753">
        <ele>74</ele>
        <time>2021-05-19T15:19:15.000Z</time>
      </trkpt>
      <trkpt lat="47.25673" lon="-1.48749">
        <ele>74</ele>
        <time>2021-05-19T15:19:17.000Z</time>
      </trkpt>
      <trkpt lat="47.25685" lon="-1.4876">
        <ele>76</ele>
        <time>2021-05-19T15:19:20.000Z</time>
      </trkpt>
      <trkpt lat="47.25697" lon="-1.4876">
        <ele>76</ele>
        <time>2021-05-19T15:19:22.000Z</time>
      </trkpt>
      <trkpt lat="47.2571" lon="-1.48758">
        <ele>76</ele>
        <time>2021-05-19T15:19:24.000Z</time>
      </trkpt>
      <trkpt lat="47.25723" lon="-1.48758">
        <ele>77</ele>
        <time>2021-05-19T15:19:26.000Z</time>
      </trkpt>
      <trkpt lat="47.25736" lon="-1.48757">
        <ele>77</ele>
        <time>2021-05-19T15:19:28.000Z</time>
      </trkpt>
      <trkpt lat="47.25748" lon="-1.48755">
        <ele>78</ele>
        <time>2021-05-19T15:19:30.000Z</time>
      </trkpt>
      <trkpt lat="47.25761" lon="-1.4875">
        <ele>78</ele>
        <time>2021-05-19T15:19:32.000Z</time>
      </trkpt>
      <trkpt lat="47.25773" lon="-1.48746">
        <ele>77</ele>
        <time>2021-05-19T15:19:34.000Z</time>
      </trkpt>
      <trkpt lat="47.25786" lon="-1.48742">
        <ele>77</ele>
        <time>2021-05-19T15:19:36.000Z</time>
      </trkpt>
      <trkpt lat="47.25798" lon="-1.48742">
        <ele>77</ele>
        <time>2021-05-19T15:19:38.000Z</time>
      </trkpt>
      <trkpt lat="47.25811" lon="-1.48743">
        <ele>77</ele>
        <time>2021-05-19T15:19:40.000Z</time>
      </trkpt>
      <trkpt lat="47.25824" lon="-1.48744">
        <ele>76</ele>
        <time>2021-05-19T15:19:42.000Z</time>
      </trkpt>
      <trkpt lat="47.25836" lon="-1.48742">
        <ele>76</ele>
        <time>2021-05-19T15:19:44.000Z</time>
      </trkpt>
      <trkpt lat="47.25849" lon="-1.48743">
        <ele>76</ele>
        <time>2021-05-19T15:19:46.000Z</time>
      </trkpt>
      <trkpt lat="47.25862" lon="-1.48745">
        <ele>75</ele>
        <time>2021-05-19T15:19:48.000Z</time>
      </trkpt>
      <trkpt lat="47.25875" lon="-1.48746">
        <ele>75</ele>
        <time>2021-05-19T15:19:50.000Z</time>
      </trkpt>
      <trkpt lat="47.25887" lon="-1.48748">
        <ele>75</ele>
        <time>2021-05-19T15:19:52.000Z</time>
      </trkpt>
      <trkpt lat="47.259" lon="-1.48748">
        <ele>75</ele>
        <time>2021-05-19T15:19:54.000Z</time>
      </trkpt>
      <trkpt lat="47.25913" lon="-1.48749">
        <ele>75</ele>
        <time>2021-05-19T15:19:56.000Z</time>
      </trkpt>
      <trkpt lat="47.25926" lon="-1.4875">
        <ele>74</ele>
        <time>2021-05-19T15:19:58.000Z</time>
      </trkpt>
      <trkpt lat="47.25939" lon="-1.48751">
        <ele>74</ele>
        <time>2021-05-19T15:20:00.000Z</time>
      </trkpt>
      <trkpt lat="47.25952" lon="-1.48752">
        <ele>74</ele>
        <time>2021-05-19T15:20:02.000Z</time>
      </trkpt>
      <trkpt lat="47.25964" lon="-1.48752">
        <ele>74</ele>
        <time>2021-05-19T15:20:04.000Z</time>
      </trkpt>
      <trkpt lat="47.25977" lon="-1.48753">
        <ele>74</ele>
        <time>2021-05-19T15:20:06.000Z</time>
      </trkpt>
      <trkpt lat="47.25988" lon="-1.48753">
        <ele>74</ele>
        <time>2021-05-19T15:20:08.000Z</time>
      </trkpt>
      <trkpt lat="47.26" lon="-1.48753">
        <ele>74</ele>
        <time>2021-05-19T15:20:10.000Z</time>
      </trkpt>
      <trkpt lat="47.26012" lon="-1.48752">
        <ele>74</ele>
        <time>2021-05-19T15:20:12.000Z</time>
      </trkpt>
      <trkpt lat="47.26024" lon="-1.48754">
        <ele>74</ele>
        <time>2021-05-19T15:20:14.000Z</time>
      </trkpt>
      <trkpt lat="47.26036" lon="-1.48753">
        <ele>74</ele>
        <time>2021-05-19T15:20:16.000Z</time>
      </trkpt>
      <trkpt lat="47.26047" lon="-1.48751">
        <ele>73</ele>
        <time>2021-05-19T15:20:18.000Z</time>
      </trkpt>
      <trkpt lat="47.26058" lon="-1.48748">
        <ele>73</ele>
        <time>2021-05-19T15:20:21.000Z</time>
      </trkpt>
      <trkpt lat="47.26067" lon="-1.48745">
        <ele>73</ele>
        <time>2021-05-19T15:20:25.000Z</time>
      </trkpt>
      <trkpt lat="47.26077" lon="-1.4874">
        <ele>73</ele>
        <time>2021-05-19T15:20:29.000Z</time>
      </trkpt>
      <trkpt lat="47.26088" lon="-1.48739">
        <ele>73</ele>
        <time>2021-05-19T15:20:33.000Z</time>
      </trkpt>
      <trkpt lat="47.26099" lon="-1.48732">
        <ele>74</ele>
        <time>2021-05-19T15:20:36.000Z</time>
      </trkpt>
      <trkpt lat="47.2611" lon="-1.48724">
        <ele>73</ele>
        <time>2021-05-19T15:20:39.000Z</time>
      </trkpt>
      <trkpt lat="47.26121" lon="-1.48729">
        <ele>74</ele>
        <time>2021-05-19T15:20:41.000Z</time>
      </trkpt>
      <trkpt lat="47.26132" lon="-1.48725">
        <ele>74</ele>
        <time>2021-05-19T15:20:43.000Z</time>
      </trkpt>
      <trkpt lat="47.26144" lon="-1.48718">
        <ele>74</ele>
        <time>2021-05-19T15:20:45.000Z</time>
      </trkpt>
      <trkpt lat="47.26157" lon="-1.48712">
        <ele>75</ele>
        <time>2021-05-19T15:20:47.000Z</time>
      </trkpt>
      <trkpt lat="47.2617" lon="-1.48706">
        <ele>75</ele>
        <time>2021-05-19T15:20:49.000Z</time>
      </trkpt>
      <trkpt lat="47.26182" lon="-1.48701">
        <ele>75</ele>
        <time>2021-05-19T15:20:51.000Z</time>
      </trkpt>
      <trkpt lat="47.26195" lon="-1.48695">
        <ele>75</ele>
        <time>2021-05-19T15:20:53.000Z</time>
      </trkpt>
      <trkpt lat="47.26207" lon="-1.48689">
        <ele>75</ele>
        <time>2021-05-19T15:20:55.000Z</time>
      </trkpt>
      <trkpt lat="47.26219" lon="-1.48684">
        <ele>75</ele>
        <time>2021-05-19T15:20:57.000Z</time>
      </trkpt>
      <trkpt lat="47.26231" lon="-1.48678">
        <ele>76</ele>
        <time>2021-05-19T15:20:59.000Z</time>
      </trkpt>
      <trkpt lat="47.26243" lon="-1.48673">
        <ele>76</ele>
        <time>2021-05-19T15:21:01.000Z</time>
      </trkpt>
      <trkpt lat="47.26255" lon="-1.4867">
        <ele>76</ele>
        <time>2021-05-19T15:21:03.000Z</time>
      </trkpt>
      <trkpt lat="47.26266" lon="-1.48668">
        <ele>77</ele>
        <time>2021-05-19T15:21:05.000Z</time>
      </trkpt>
      <trkpt lat="47.26278" lon="-1.48665">
        <ele>77</ele>
        <time>2021-05-19T15:21:07.000Z</time>
      </trkpt>
      <trkpt lat="47.26291" lon="-1.48664">
        <ele>77</ele>
        <time>2021-05-19T15:21:09.000Z</time>
      </trkpt>
      <trkpt lat="47.26303" lon="-1.48664">
        <ele>77</ele>
        <time>2021-05-19T15:21:11.000Z</time>
      </trkpt>
      <trkpt lat="47.26314" lon="-1.48663">
        <ele>78</ele>
        <time>2021-05-19T15:21:13.000Z</time>
      </trkpt>
      <trkpt lat="47.26326" lon="-1.48664">
        <ele>78</ele>
        <time>2021-05-19T15:21:15.000Z</time>
      </trkpt>
      <trkpt lat="47.26338" lon="-1.48664">
        <ele>78</ele>
        <time>2021-05-19T15:21:17.000Z</time>
      </trkpt>
      <trkpt lat="47.26349" lon="-1.48664">
        <ele>78</ele>
        <time>2021-05-19T15:21:19.000Z</time>
      </trkpt>
      <trkpt lat="47.26361" lon="-1.48666">
        <ele>78</ele>
        <time>2021-05-19T15:21:21.000Z</time>
      </trkpt>
      <trkpt lat="47.26372" lon="-1.48667">
        <ele>78</ele>
        <time>2021-05-19T15:21:23.000Z</time>
      </trkpt>
      <trkpt lat="47.26384" lon="-1.48669">
        <ele>78</ele>
        <time>2021-05-19T15:21:25.000Z</time>
      </trkpt>
      <trkpt lat="47.26396" lon="-1.48669">
        <ele>78</ele>
        <time>2021-05-19T15:21:27.000Z</time>
      </trkpt>
      <trkpt lat="47.26408" lon="-1.4867">
        <ele>79</ele>
        <time>2021-05-19T15:21:29.000Z</time>
      </trkpt>
      <trkpt lat="47.2642" lon="-1.48672">
        <ele>79</ele>
        <time>2021-05-19T15:21:31.000Z</time>
      </trkpt>
      <trkpt lat="47.26432" lon="-1.48673">
        <ele>79</ele>
        <time>2021-05-19T15:21:33.000Z</time>
      </trkpt>
      <trkpt lat="47.26444" lon="-1.48675">
        <ele>79</ele>
        <time>2021-05-19T15:21:35.000Z</time>
      </trkpt>
      <trkpt lat="47.26455" lon="-1.48678">
        <ele>80</ele>
        <time>2021-05-19T15:21:37.000Z</time>
      </trkpt>
      <trkpt lat="47.26467" lon="-1.48681">
        <ele>80</ele>
        <time>2021-05-19T15:21:39.000Z</time>
      </trkpt>
      <trkpt lat="47.26478" lon="-1.48684">
        <ele>80</ele>
        <time>2021-05-19T15:21:41.000Z</time>
      </trkpt>
      <trkpt lat="47.2649" lon="-1.48687">
        <ele>80</ele>
        <time>2021-05-19T15:21:43.000Z</time>
      </trkpt>
      <trkpt lat="47.26502" lon="-1.4869">
        <ele>81</ele>
        <time>2021-05-19T15:21:45.000Z</time>
      </trkpt>
      <trkpt lat="47.26514" lon="-1.48694">
        <ele>81</ele>
        <time>2021-05-19T15:21:47.000Z</time>
      </trkpt>
      <trkpt lat="47.26525" lon="-1.48697">
        <ele>82</ele>
        <time>2021-05-19T15:21:49.000Z</time>
      </trkpt>
      <trkpt lat="47.26536" lon="-1.48701">
        <ele>82</ele>
        <time>2021-05-19T15:21:51.000Z</time>
      </trkpt>
      <trkpt lat="47.26547" lon="-1.48706">
        <ele>81</ele>
        <time>2021-05-19T15:21:53.000Z</time>
      </trkpt>
      <trkpt lat="47.26557" lon="-1.4871">
        <ele>82</ele>
        <time>2021-05-19T15:21:55.000Z</time>
      </trkpt>
      <trkpt lat="47.26567" lon="-1.48715">
        <ele>82</ele>
        <time>2021-05-19T15:21:57.000Z</time>
      </trkpt>
      <trkpt lat="47.26577" lon="-1.48717">
        <ele>82</ele>
        <time>2021-05-19T15:21:59.000Z</time>
      </trkpt>
      <trkpt lat="47.26589" lon="-1.48714">
        <ele>81</ele>
        <time>2021-05-19T15:22:02.000Z</time>
      </trkpt>
      <trkpt lat="47.266" lon="-1.48712">
        <ele>82</ele>
        <time>2021-05-19T15:22:06.000Z</time>
      </trkpt>
      <trkpt lat="47.2661" lon="-1.48718">
        <ele>82</ele>
        <time>2021-05-19T15:22:25.000Z</time>
      </trkpt>
      <trkpt lat="47.26618" lon="-1.48725">
        <ele>82</ele>
        <time>2021-05-19T15:22:27.000Z</time>
      </trkpt>
      <trkpt lat="47.26627" lon="-1.48736">
        <ele>82</ele>
        <time>2021-05-19T15:22:29.000Z</time>
      </trkpt>
      <trkpt lat="47.26634" lon="-1.48751">
        <ele>82</ele>
        <time>2021-05-19T15:22:31.000Z</time>
      </trkpt>
      <trkpt lat="47.26639" lon="-1.48768">
        <ele>82</ele>
        <time>2021-05-19T15:22:33.000Z</time>
      </trkpt>
      <trkpt lat="47.26647" lon="-1.4878">
        <ele>84</ele>
        <time>2021-05-19T15:22:35.000Z</time>
      </trkpt>
      <trkpt lat="47.26658" lon="-1.48789">
        <ele>85</ele>
        <time>2021-05-19T15:22:37.000Z</time>
      </trkpt>
      <trkpt lat="47.26669" lon="-1.488">
        <ele>87</ele>
        <time>2021-05-19T15:22:39.000Z</time>
      </trkpt>
      <trkpt lat="47.2668" lon="-1.4881">
        <ele>87</ele>
        <time>2021-05-19T15:22:41.000Z</time>
      </trkpt>
      <trkpt lat="47.2669" lon="-1.4882">
        <ele>88</ele>
        <time>2021-05-19T15:22:43.000Z</time>
      </trkpt>
      <trkpt lat="47.267" lon="-1.48829">
        <ele>88</ele>
        <time>2021-05-19T15:22:45.000Z</time>
      </trkpt>
      <trkpt lat="47.2671" lon="-1.48841">
        <ele>90</ele>
        <time>2021-05-19T15:22:47.000Z</time>
      </trkpt>
      <trkpt lat="47.26718" lon="-1.48853">
        <ele>91</ele>
        <time>2021-05-19T15:22:49.000Z</time>
      </trkpt>
      <trkpt lat="47.26727" lon="-1.48863">
        <ele>89</ele>
        <time>2021-05-19T15:22:51.000Z</time>
      </trkpt>
      <trkpt lat="47.26739" lon="-1.48866">
        <ele>87</ele>
        <time>2021-05-19T15:22:53.000Z</time>
      </trkpt>
      <trkpt lat="47.26751" lon="-1.48859">
        <ele>85</ele>
        <time>2021-05-19T15:22:55.000Z</time>
      </trkpt>
      <trkpt lat="47.26759" lon="-1.48847">
        <ele>85</ele>
        <time>2021-05-19T15:22:57.000Z</time>
      </trkpt>
      <trkpt lat="47.26768" lon="-1.48834">
        <ele>85</ele>
        <time>2021-05-19T15:22:59.000Z</time>
      </trkpt>
      <trkpt lat="47.26777" lon="-1.48821">
        <ele>84</ele>
        <time>2021-05-19T15:23:01.000Z</time>
      </trkpt>
      <trkpt lat="47.26787" lon="-1.48808">
        <ele>84</ele>
        <time>2021-05-19T15:23:03.000Z</time>
      </trkpt>
      <trkpt lat="47.26796" lon="-1.48795">
        <ele>83</ele>
        <time>2021-05-19T15:23:05.000Z</time>
      </trkpt>
      <trkpt lat="47.26806" lon="-1.48782">
        <ele>83</ele>
        <time>2021-05-19T15:23:07.000Z</time>
      </trkpt>
      <trkpt lat="47.26816" lon="-1.4877">
        <ele>83</ele>
        <time>2021-05-19T15:23:09.000Z</time>
      </trkpt>
      <trkpt lat="47.26825" lon="-1.48757">
        <ele>83</ele>
        <time>2021-05-19T15:23:11.000Z</time>
      </trkpt>
      <trkpt lat="47.26835" lon="-1.48743">
        <ele>83</ele>
        <time>2021-05-19T15:23:13.000Z</time>
      </trkpt>
      <trkpt lat="47.26845" lon="-1.4873">
        <ele>83</ele>
        <time>2021-05-19T15:23:15.000Z</time>
      </trkpt>
      <trkpt lat="47.26854" lon="-1.48717">
        <ele>82</ele>
        <time>2021-05-19T15:23:17.000Z</time>
      </trkpt>
      <trkpt lat="47.26864" lon="-1.48705">
        <ele>83</ele>
        <time>2021-05-19T15:23:19.000Z</time>
      </trkpt>
      <trkpt lat="47.26875" lon="-1.48692">
        <ele>83</ele>
        <time>2021-05-19T15:23:21.000Z</time>
      </trkpt>
      <trkpt lat="47.26885" lon="-1.4868">
        <ele>83</ele>
        <time>2021-05-19T15:23:23.000Z</time>
      </trkpt>
      <trkpt lat="47.26896" lon="-1.48669">
        <ele>83</ele>
        <time>2021-05-19T15:23:25.000Z</time>
      </trkpt>
      <trkpt lat="47.26907" lon="-1.4866">
        <ele>83</ele>
        <time>2021-05-19T15:23:27.000Z</time>
      </trkpt>
      <trkpt lat="47.26918" lon="-1.4865">
        <ele>83</ele>
        <time>2021-05-19T15:23:29.000Z</time>
      </trkpt>
      <trkpt lat="47.2693" lon="-1.4864">
        <ele>83</ele>
        <time>2021-05-19T15:23:31.000Z</time>
      </trkpt>
      <trkpt lat="47.26941" lon="-1.48631">
        <ele>83</ele>
        <time>2021-05-19T15:23:33.000Z</time>
      </trkpt>
      <trkpt lat="47.26953" lon="-1.48622">
        <ele>83</ele>
        <time>2021-05-19T15:23:35.000Z</time>
      </trkpt>
      <trkpt lat="47.26965" lon="-1.48613">
        <ele>83</ele>
        <time>2021-05-19T15:23:37.000Z</time>
      </trkpt>
      <trkpt lat="47.26977" lon="-1.48605">
        <ele>82</ele>
        <time>2021-05-19T15:23:39.000Z</time>
      </trkpt>
      <trkpt lat="47.26989" lon="-1.48595">
        <ele>82</ele>
        <time>2021-05-19T15:23:41.000Z</time>
      </trkpt>
      <trkpt lat="47.27002" lon="-1.48586">
        <ele>82</ele>
        <time>2021-05-19T15:23:43.000Z</time>
      </trkpt>
      <trkpt lat="47.27015" lon="-1.48577">
        <ele>82</ele>
        <time>2021-05-19T15:23:45.000Z</time>
      </trkpt>
      <trkpt lat="47.27027" lon="-1.48569">
        <ele>83</ele>
        <time>2021-05-19T15:23:47.000Z</time>
      </trkpt>
      <trkpt lat="47.2704" lon="-1.4856">
        <ele>82</ele>
        <time>2021-05-19T15:23:49.000Z</time>
      </trkpt>
      <trkpt lat="47.27052" lon="-1.48553">
        <ele>82</ele>
        <time>2021-05-19T15:23:51.000Z</time>
      </trkpt>
      <trkpt lat="47.27063" lon="-1.48543">
        <ele>82</ele>
        <time>2021-05-19T15:23:53.000Z</time>
      </trkpt>
      <trkpt lat="47.27075" lon="-1.48537">
        <ele>82</ele>
        <time>2021-05-19T15:23:55.000Z</time>
      </trkpt>
      <trkpt lat="47.27087" lon="-1.48531">
        <ele>82</ele>
        <time>2021-05-19T15:23:57.000Z</time>
      </trkpt>
      <trkpt lat="47.27099" lon="-1.48519">
        <ele>82</ele>
        <time>2021-05-19T15:23:59.000Z</time>
      </trkpt>
      <trkpt lat="47.27111" lon="-1.48508">
        <ele>82</ele>
        <time>2021-05-19T15:24:01.000Z</time>
      </trkpt>
      <trkpt lat="47.27122" lon="-1.48497">
        <ele>82</ele>
        <time>2021-05-19T15:24:03.000Z</time>
      </trkpt>
      <trkpt lat="47.27134" lon="-1.48487">
        <ele>82</ele>
        <time>2021-05-19T15:24:05.000Z</time>
      </trkpt>
      <trkpt lat="47.27146" lon="-1.48476">
        <ele>82</ele>
        <time>2021-05-19T15:24:07.000Z</time>
      </trkpt>
      <trkpt lat="47.27158" lon="-1.48467">
        <ele>81</ele>
        <time>2021-05-19T15:24:09.000Z</time>
      </trkpt>
      <trkpt lat="47.27169" lon="-1.48458">
        <ele>82</ele>
        <time>2021-05-19T15:24:11.000Z</time>
      </trkpt>
      <trkpt lat="47.27181" lon="-1.48449">
        <ele>82</ele>
        <time>2021-05-19T15:24:13.000Z</time>
      </trkpt>
      <trkpt lat="47.27192" lon="-1.48439">
        <ele>82</ele>
        <time>2021-05-19T15:24:15.000Z</time>
      </trkpt>
      <trkpt lat="47.27204" lon="-1.48429">
        <ele>81</ele>
        <time>2021-05-19T15:24:17.000Z</time>
      </trkpt>
      <trkpt lat="47.27215" lon="-1.48419">
        <ele>81</ele>
        <time>2021-05-19T15:24:19.000Z</time>
      </trkpt>
      <trkpt lat="47.27227" lon="-1.48409">
        <ele>81</ele>
        <time>2021-05-19T15:24:21.000Z</time>
      </trkpt>
      <trkpt lat="47.27238" lon="-1.48401">
        <ele>81</ele>
        <time>2021-05-19T15:24:23.000Z</time>
      </trkpt>
      <trkpt lat="47.2725" lon="-1.48392">
        <ele>82</ele>
        <time>2021-05-19T15:24:25.000Z</time>
      </trkpt>
      <trkpt lat="47.27262" lon="-1.48384">
        <ele>83</ele>
        <time>2021-05-19T15:24:27.000Z</time>
      </trkpt>
      <trkpt lat="47.27272" lon="-1.48375">
        <ele>83</ele>
        <time>2021-05-19T15:24:29.000Z</time>
      </trkpt>
      <trkpt lat="47.27279" lon="-1.48365">
        <ele>83</ele>
        <time>2021-05-19T15:24:31.000Z</time>
      </trkpt>
      <trkpt lat="47.27288" lon="-1.48355">
        <ele>83</ele>
        <time>2021-05-19T15:24:34.000Z</time>
      </trkpt>
      <trkpt lat="47.27297" lon="-1.48356">
        <ele>83</ele>
        <time>2021-05-19T15:24:36.000Z</time>
      </trkpt>
      <trkpt lat="47.27308" lon="-1.48349">
        <ele>83</ele>
        <time>2021-05-19T15:24:38.000Z</time>
      </trkpt>
      <trkpt lat="47.2732" lon="-1.48342">
        <ele>83</ele>
        <time>2021-05-19T15:24:40.000Z</time>
      </trkpt>
      <trkpt lat="47.27332" lon="-1.48335">
        <ele>83</ele>
        <time>2021-05-19T15:24:42.000Z</time>
      </trkpt>
      <trkpt lat="47.27344" lon="-1.48329">
        <ele>83</ele>
        <time>2021-05-19T15:24:44.000Z</time>
      </trkpt>
      <trkpt lat="47.27355" lon="-1.48324">
        <ele>83</ele>
        <time>2021-05-19T15:24:46.000Z</time>
      </trkpt>
      <trkpt lat="47.27368" lon="-1.48322">
        <ele>83</ele>
        <time>2021-05-19T15:24:48.000Z</time>
      </trkpt>
      <trkpt lat="47.2738" lon="-1.48321">
        <ele>84</ele>
        <time>2021-05-19T15:24:50.000Z</time>
      </trkpt>
      <trkpt lat="47.27394" lon="-1.48323">
        <ele>85</ele>
        <time>2021-05-19T15:24:52.000Z</time>
      </trkpt>
      <trkpt lat="47.27407" lon="-1.48325">
        <ele>86</ele>
        <time>2021-05-19T15:24:54.000Z</time>
      </trkpt>
      <trkpt lat="47.27418" lon="-1.48327">
        <ele>85</ele>
        <time>2021-05-19T15:24:56.000Z</time>
      </trkpt>
      <trkpt lat="47.2743" lon="-1.48328">
        <ele>85</ele>
        <time>2021-05-19T15:24:58.000Z</time>
      </trkpt>
      <trkpt lat="47.27442" lon="-1.48329">
        <ele>85</ele>
        <time>2021-05-19T15:25:00.000Z</time>
      </trkpt>
      <trkpt lat="47.27454" lon="-1.48331">
        <ele>84</ele>
        <time>2021-05-19T15:25:02.000Z</time>
      </trkpt>
      <trkpt lat="47.27466" lon="-1.48332">
        <ele>84</ele>
        <time>2021-05-19T15:25:04.000Z</time>
      </trkpt>
      <trkpt lat="47.27478" lon="-1.48334">
        <ele>85</ele>
        <time>2021-05-19T15:25:06.000Z</time>
      </trkpt>
      <trkpt lat="47.27488" lon="-1.48336">
        <ele>84</ele>
        <time>2021-05-19T15:25:08.000Z</time>
      </trkpt>
      <trkpt lat="47.275" lon="-1.48336">
        <ele>84</ele>
        <time>2021-05-19T15:25:10.000Z</time>
      </trkpt>
      <trkpt lat="47.27515" lon="-1.48339">
        <ele>84</ele>
        <time>2021-05-19T15:25:12.000Z</time>
      </trkpt>
      <trkpt lat="47.2753" lon="-1.48343">
        <ele>84</ele>
        <time>2021-05-19T15:25:14.000Z</time>
      </trkpt>
      <trkpt lat="47.27544" lon="-1.48345">
        <ele>84</ele>
        <time>2021-05-19T15:25:16.000Z</time>
      </trkpt>
      <trkpt lat="47.27557" lon="-1.48347">
        <ele>84</ele>
        <time>2021-05-19T15:25:18.000Z</time>
      </trkpt>
      <trkpt lat="47.2757" lon="-1.48347">
        <ele>85</ele>
        <time>2021-05-19T15:25:20.000Z</time>
      </trkpt>
      <trkpt lat="47.27584" lon="-1.48347">
        <ele>84</ele>
        <time>2021-05-19T15:25:22.000Z</time>
      </trkpt>
      <trkpt lat="47.27597" lon="-1.48344">
        <ele>85</ele>
        <time>2021-05-19T15:25:24.000Z</time>
      </trkpt>
      <trkpt lat="47.2761" lon="-1.48343">
        <ele>85</ele>
        <time>2021-05-19T15:25:26.000Z</time>
      </trkpt>
      <trkpt lat="47.27625" lon="-1.4834">
        <ele>86</ele>
        <time>2021-05-19T15:25:28.000Z</time>
      </trkpt>
      <trkpt lat="47.27639" lon="-1.48339">
        <ele>86</ele>
        <time>2021-05-19T15:25:30.000Z</time>
      </trkpt>
      <trkpt lat="47.27652" lon="-1.48338">
        <ele>85</ele>
        <time>2021-05-19T15:25:32.000Z</time>
      </trkpt>
      <trkpt lat="47.27667" lon="-1.48337">
        <ele>84</ele>
        <time>2021-05-19T15:25:34.000Z</time>
      </trkpt>
      <trkpt lat="47.27682" lon="-1.48339">
        <ele>84</ele>
        <time>2021-05-19T15:25:36.000Z</time>
      </trkpt>
      <trkpt lat="47.27698" lon="-1.48344">
        <ele>84</ele>
        <time>2021-05-19T15:25:38.000Z</time>
      </trkpt>
      <trkpt lat="47.27712" lon="-1.48351">
        <ele>83</ele>
        <time>2021-05-19T15:25:40.000Z</time>
      </trkpt>
      <trkpt lat="47.27727" lon="-1.48361">
        <ele>83</ele>
        <time>2021-05-19T15:25:42.000Z</time>
      </trkpt>
      <trkpt lat="47.2774" lon="-1.48374">
        <ele>83</ele>
        <time>2021-05-19T15:25:44.000Z</time>
      </trkpt>
      <trkpt lat="47.27754" lon="-1.48387">
        <ele>83</ele>
        <time>2021-05-19T15:25:46.000Z</time>
      </trkpt>
      <trkpt lat="47.27768" lon="-1.484">
        <ele>82</ele>
        <time>2021-05-19T15:25:48.000Z</time>
      </trkpt>
      <trkpt lat="47.27781" lon="-1.48412">
        <ele>81</ele>
        <time>2021-05-19T15:25:50.000Z</time>
      </trkpt>
      <trkpt lat="47.27795" lon="-1.48425">
        <ele>81</ele>
        <time>2021-05-19T15:25:52.000Z</time>
      </trkpt>
      <trkpt lat="47.27809" lon="-1.48435">
        <ele>80</ele>
        <time>2021-05-19T15:25:54.000Z</time>
      </trkpt>
      <trkpt lat="47.27823" lon="-1.48446">
        <ele>80</ele>
        <time>2021-05-19T15:25:56.000Z</time>
      </trkpt>
      <trkpt lat="47.27838" lon="-1.48454">
        <ele>79</ele>
        <time>2021-05-19T15:25:58.000Z</time>
      </trkpt>
      <trkpt lat="47.27853" lon="-1.4846">
        <ele>79</ele>
        <time>2021-05-19T15:26:00.000Z</time>
      </trkpt>
      <trkpt lat="47.27868" lon="-1.48467">
        <ele>78</ele>
        <time>2021-05-19T15:26:02.000Z</time>
      </trkpt>
      <trkpt lat="47.27883" lon="-1.48473">
        <ele>77</ele>
        <time>2021-05-19T15:26:04.000Z</time>
      </trkpt>
      <trkpt lat="47.27897" lon="-1.4848">
        <ele>77</ele>
        <time>2021-05-19T15:26:06.000Z</time>
      </trkpt>
      <trkpt lat="47.27911" lon="-1.48486">
        <ele>77</ele>
        <time>2021-05-19T15:26:08.000Z</time>
      </trkpt>
      <trkpt lat="47.27926" lon="-1.48492">
        <ele>77</ele>
        <time>2021-05-19T15:26:10.000Z</time>
      </trkpt>
      <trkpt lat="47.27941" lon="-1.48498">
        <ele>76</ele>
        <time>2021-05-19T15:26:12.000Z</time>
      </trkpt>
      <trkpt lat="47.27955" lon="-1.48504">
        <ele>76</ele>
        <time>2021-05-19T15:26:14.000Z</time>
      </trkpt>
      <trkpt lat="47.2797" lon="-1.48511">
        <ele>75</ele>
        <time>2021-05-19T15:26:16.000Z</time>
      </trkpt>
      <trkpt lat="47.27983" lon="-1.48514">
        <ele>74</ele>
        <time>2021-05-19T15:26:18.000Z</time>
      </trkpt>
      <trkpt lat="47.27995" lon="-1.48515">
        <ele>74</ele>
        <time>2021-05-19T15:26:20.000Z</time>
      </trkpt>
      <trkpt lat="47.28005" lon="-1.48523">
        <ele>75</ele>
        <time>2021-05-19T15:26:22.000Z</time>
      </trkpt>
      <trkpt lat="47.28018" lon="-1.48526">
        <ele>75</ele>
        <time>2021-05-19T15:26:24.000Z</time>
      </trkpt>
      <trkpt lat="47.28033" lon="-1.4853">
        <ele>74</ele>
        <time>2021-05-19T15:26:26.000Z</time>
      </trkpt>
      <trkpt lat="47.28047" lon="-1.48533">
        <ele>73</ele>
        <time>2021-05-19T15:26:28.000Z</time>
      </trkpt>
      <trkpt lat="47.28062" lon="-1.48537">
        <ele>73</ele>
        <time>2021-05-19T15:26:30.000Z</time>
      </trkpt>
      <trkpt lat="47.28077" lon="-1.48537">
        <ele>73</ele>
        <time>2021-05-19T15:26:32.000Z</time>
      </trkpt>
      <trkpt lat="47.28093" lon="-1.48536">
        <ele>73</ele>
        <time>2021-05-19T15:26:34.000Z</time>
      </trkpt>
      <trkpt lat="47.28108" lon="-1.48535">
        <ele>73</ele>
        <time>2021-05-19T15:26:36.000Z</time>
      </trkpt>
      <trkpt lat="47.28122" lon="-1.48535">
        <ele>73</ele>
        <time>2021-05-19T15:26:38.000Z</time>
      </trkpt>
      <trkpt lat="47.28137" lon="-1.48534">
        <ele>73</ele>
        <time>2021-05-19T15:26:40.000Z</time>
      </trkpt>
      <trkpt lat="47.28153" lon="-1.48532">
        <ele>73</ele>
        <time>2021-05-19T15:26:42.000Z</time>
      </trkpt>
      <trkpt lat="47.28168" lon="-1.48533">
        <ele>72</ele>
        <time>2021-05-19T15:26:44.000Z</time>
      </trkpt>
      <trkpt lat="47.28183" lon="-1.48532">
        <ele>72</ele>
        <time>2021-05-19T15:26:46.000Z</time>
      </trkpt>
      <trkpt lat="47.28196" lon="-1.48531">
        <ele>71</ele>
        <time>2021-05-19T15:26:48.000Z</time>
      </trkpt>
      <trkpt lat="47.28206" lon="-1.48521">
        <ele>71</ele>
        <time>2021-05-19T15:26:50.000Z</time>
      </trkpt>
      <trkpt lat="47.28209" lon="-1.48503">
        <ele>70</ele>
        <time>2021-05-19T15:26:52.000Z</time>
      </trkpt>
      <trkpt lat="47.28217" lon="-1.48493">
        <ele>71</ele>
        <time>2021-05-19T15:26:55.000Z</time>
      </trkpt>
      <trkpt lat="47.28227" lon="-1.48498">
        <ele>71</ele>
        <time>2021-05-19T15:26:58.000Z</time>
      </trkpt>
      <trkpt lat="47.28237" lon="-1.4851">
        <ele>71</ele>
        <time>2021-05-19T15:27:00.000Z</time>
      </trkpt>
      <trkpt lat="47.28248" lon="-1.48524">
        <ele>71</ele>
        <time>2021-05-19T15:27:02.000Z</time>
      </trkpt>
      <trkpt lat="47.2826" lon="-1.48533">
        <ele>70</ele>
        <time>2021-05-19T15:27:04.000Z</time>
      </trkpt>
      <trkpt lat="47.28273" lon="-1.48542">
        <ele>71</ele>
        <time>2021-05-19T15:27:06.000Z</time>
      </trkpt>
      <trkpt lat="47.28284" lon="-1.48553">
        <ele>71</ele>
        <time>2021-05-19T15:27:08.000Z</time>
      </trkpt>
      <trkpt lat="47.28293" lon="-1.48568">
        <ele>71</ele>
        <time>2021-05-19T15:27:10.000Z</time>
      </trkpt>
      <trkpt lat="47.28302" lon="-1.48585">
        <ele>71</ele>
        <time>2021-05-19T15:27:12.000Z</time>
      </trkpt>
      <trkpt lat="47.28311" lon="-1.48604">
        <ele>71</ele>
        <time>2021-05-19T15:27:14.000Z</time>
      </trkpt>
      <trkpt lat="47.28321" lon="-1.48616">
        <ele>71</ele>
        <time>2021-05-19T15:27:16.000Z</time>
      </trkpt>
      <trkpt lat="47.28334" lon="-1.48617">
        <ele>72</ele>
        <time>2021-05-19T15:27:18.000Z</time>
      </trkpt>
      <trkpt lat="47.28349" lon="-1.48618">
        <ele>71</ele>
        <time>2021-05-19T15:27:20.000Z</time>
      </trkpt>
      <trkpt lat="47.28361" lon="-1.48626">
        <ele>72</ele>
        <time>2021-05-19T15:27:22.000Z</time>
      </trkpt>
      <trkpt lat="47.28372" lon="-1.48637">
        <ele>72</ele>
        <time>2021-05-19T15:27:24.000Z</time>
      </trkpt>
      <trkpt lat="47.28383" lon="-1.48645">
        <ele>71</ele>
        <time>2021-05-19T15:27:26.000Z</time>
      </trkpt>
      <trkpt lat="47.28395" lon="-1.48644">
        <ele>71</ele>
        <time>2021-05-19T15:27:28.000Z</time>
      </trkpt>
      <trkpt lat="47.28407" lon="-1.48639">
        <ele>71</ele>
        <time>2021-05-19T15:27:30.000Z</time>
      </trkpt>
      <trkpt lat="47.28419" lon="-1.48633">
        <ele>71</ele>
        <time>2021-05-19T15:27:32.000Z</time>
      </trkpt>
      <trkpt lat="47.2843" lon="-1.48626">
        <ele>71</ele>
        <time>2021-05-19T15:27:34.000Z</time>
      </trkpt>
      <trkpt lat="47.28441" lon="-1.48616">
        <ele>72</ele>
        <time>2021-05-19T15:27:36.000Z</time>
      </trkpt>
      <trkpt lat="47.28452" lon="-1.48607">
        <ele>72</ele>
        <time>2021-05-19T15:27:38.000Z</time>
      </trkpt>
      <trkpt lat="47.28463" lon="-1.48598">
        <ele>72</ele>
        <time>2021-05-19T15:27:40.000Z</time>
      </trkpt>
      <trkpt lat="47.28473" lon="-1.48589">
        <ele>72</ele>
        <time>2021-05-19T15:27:42.000Z</time>
      </trkpt>
      <trkpt lat="47.28483" lon="-1.4858">
        <ele>72</ele>
        <time>2021-05-19T15:27:44.000Z</time>
      </trkpt>
      <trkpt lat="47.28493" lon="-1.48571">
        <ele>72</ele>
        <time>2021-05-19T15:27:46.000Z</time>
      </trkpt>
      <trkpt lat="47.28503" lon="-1.4856">
        <ele>72</ele>
        <time>2021-05-19T15:27:48.000Z</time>
      </trkpt>
      <trkpt lat="47.28515" lon="-1.4855">
        <ele>72</ele>
        <time>2021-05-19T15:27:50.000Z</time>
      </trkpt>
      <trkpt lat="47.28527" lon="-1.4854">
        <ele>71</ele>
        <time>2021-05-19T15:27:52.000Z</time>
      </trkpt>
      <trkpt lat="47.2854" lon="-1.4853">
        <ele>71</ele>
        <time>2021-05-19T15:27:54.000Z</time>
      </trkpt>
      <trkpt lat="47.28552" lon="-1.4852">
        <ele>71</ele>
        <time>2021-05-19T15:27:56.000Z</time>
      </trkpt>
      <trkpt lat="47.28564" lon="-1.48511">
        <ele>72</ele>
        <time>2021-05-19T15:27:58.000Z</time>
      </trkpt>
      <trkpt lat="47.28575" lon="-1.48502">
        <ele>72</ele>
        <time>2021-05-19T15:28:00.000Z</time>
      </trkpt>
      <trkpt lat="47.28586" lon="-1.48493">
        <ele>73</ele>
        <time>2021-05-19T15:28:02.000Z</time>
      </trkpt>
      <trkpt lat="47.28596" lon="-1.48484">
        <ele>73</ele>
        <time>2021-05-19T15:28:04.000Z</time>
      </trkpt>
      <trkpt lat="47.28606" lon="-1.48476">
        <ele>73</ele>
        <time>2021-05-19T15:28:06.000Z</time>
      </trkpt>
      <trkpt lat="47.28617" lon="-1.48467">
        <ele>73</ele>
        <time>2021-05-19T15:28:08.000Z</time>
      </trkpt>
      <trkpt lat="47.28627" lon="-1.48459">
        <ele>74</ele>
        <time>2021-05-19T15:28:10.000Z</time>
      </trkpt>
      <trkpt lat="47.28639" lon="-1.48452">
        <ele>74</ele>
        <time>2021-05-19T15:28:12.000Z</time>
      </trkpt>
      <trkpt lat="47.2865" lon="-1.48445">
        <ele>74</ele>
        <time>2021-05-19T15:28:14.000Z</time>
      </trkpt>
      <trkpt lat="47.28661" lon="-1.48438">
        <ele>74</ele>
        <time>2021-05-19T15:28:16.000Z</time>
      </trkpt>
      <trkpt lat="47.28673" lon="-1.48433">
        <ele>74</ele>
        <time>2021-05-19T15:28:18.000Z</time>
      </trkpt>
      <trkpt lat="47.28685" lon="-1.48428">
        <ele>74</ele>
        <time>2021-05-19T15:28:20.000Z</time>
      </trkpt>
      <trkpt lat="47.28698" lon="-1.48424">
        <ele>75</ele>
        <time>2021-05-19T15:28:22.000Z</time>
      </trkpt>
      <trkpt lat="47.28709" lon="-1.48418">
        <ele>76</ele>
        <time>2021-05-19T15:28:24.000Z</time>
      </trkpt>
      <trkpt lat="47.28721" lon="-1.48413">
        <ele>76</ele>
        <time>2021-05-19T15:28:26.000Z</time>
      </trkpt>
      <trkpt lat="47.28732" lon="-1.48409">
        <ele>77</ele>
        <time>2021-05-19T15:28:28.000Z</time>
      </trkpt>
      <trkpt lat="47.28743" lon="-1.48405">
        <ele>77</ele>
        <time>2021-05-19T15:28:30.000Z</time>
      </trkpt>
      <trkpt lat="47.28754" lon="-1.484">
        <ele>77</ele>
        <time>2021-05-19T15:28:32.000Z</time>
      </trkpt>
      <trkpt lat="47.28764" lon="-1.48395">
        <ele>77</ele>
        <time>2021-05-19T15:28:34.000Z</time>
      </trkpt>
      <trkpt lat="47.28772" lon="-1.48389">
        <ele>77</ele>
        <time>2021-05-19T15:28:36.000Z</time>
      </trkpt>
      <trkpt lat="47.28784" lon="-1.48387">
        <ele>76</ele>
        <time>2021-05-19T15:28:39.000Z</time>
      </trkpt>
      <trkpt lat="47.28794" lon="-1.48386">
        <ele>76</ele>
        <time>2021-05-19T15:28:41.000Z</time>
      </trkpt>
      <trkpt lat="47.28806" lon="-1.48389">
        <ele>77</ele>
        <time>2021-05-19T15:28:43.000Z</time>
      </trkpt>
      <trkpt lat="47.28817" lon="-1.48397">
        <ele>77</ele>
        <time>2021-05-19T15:28:45.000Z</time>
      </trkpt>
      <trkpt lat="47.28829" lon="-1.48403">
        <ele>78</ele>
        <time>2021-05-19T15:28:47.000Z</time>
      </trkpt>
      <trkpt lat="47.2884" lon="-1.48407">
        <ele>78</ele>
        <time>2021-05-19T15:28:49.000Z</time>
      </trkpt>
      <trkpt lat="47.28852" lon="-1.48411">
        <ele>78</ele>
        <time>2021-05-19T15:28:51.000Z</time>
      </trkpt>
      <trkpt lat="47.28864" lon="-1.48416">
        <ele>78</ele>
        <time>2021-05-19T15:28:53.000Z</time>
      </trkpt>
      <trkpt lat="47.28877" lon="-1.48423">
        <ele>79</ele>
        <time>2021-05-19T15:28:55.000Z</time>
      </trkpt>
      <trkpt lat="47.2889" lon="-1.48429">
        <ele>79</ele>
        <time>2021-05-19T15:28:57.000Z</time>
      </trkpt>
      <trkpt lat="47.28903" lon="-1.48436">
        <ele>79</ele>
        <time>2021-05-19T15:28:59.000Z</time>
      </trkpt>
      <trkpt lat="47.28916" lon="-1.48444">
        <ele>78</ele>
        <time>2021-05-19T15:29:01.000Z</time>
      </trkpt>
      <trkpt lat="47.28929" lon="-1.48451">
        <ele>79</ele>
        <time>2021-05-19T15:29:03.000Z</time>
      </trkpt>
      <trkpt lat="47.2894" lon="-1.48458">
        <ele>79</ele>
        <time>2021-05-19T15:29:05.000Z</time>
      </trkpt>
      <trkpt lat="47.28951" lon="-1.48464">
        <ele>80</ele>
        <time>2021-05-19T15:29:07.000Z</time>
      </trkpt>
      <trkpt lat="47.28963" lon="-1.48475">
        <ele>80</ele>
        <time>2021-05-19T15:29:09.000Z</time>
      </trkpt>
      <trkpt lat="47.28975" lon="-1.48486">
        <ele>80</ele>
        <time>2021-05-19T15:29:11.000Z</time>
      </trkpt>
      <trkpt lat="47.28989" lon="-1.48496">
        <ele>79</ele>
        <time>2021-05-19T15:29:13.000Z</time>
      </trkpt>
      <trkpt lat="47.29002" lon="-1.48505">
        <ele>79</ele>
        <time>2021-05-19T15:29:15.000Z</time>
      </trkpt>
      <trkpt lat="47.29016" lon="-1.48515">
        <ele>79</ele>
        <time>2021-05-19T15:29:17.000Z</time>
      </trkpt>
      <trkpt lat="47.29029" lon="-1.48527">
        <ele>78</ele>
        <time>2021-05-19T15:29:19.000Z</time>
      </trkpt>
      <trkpt lat="47.29043" lon="-1.48537">
        <ele>78</ele>
        <time>2021-05-19T15:29:21.000Z</time>
      </trkpt>
      <trkpt lat="47.29056" lon="-1.48544">
        <ele>78</ele>
        <time>2021-05-19T15:29:23.000Z</time>
      </trkpt>
      <trkpt lat="47.2907" lon="-1.48552">
        <ele>79</ele>
        <time>2021-05-19T15:29:25.000Z</time>
      </trkpt>
      <trkpt lat="47.29083" lon="-1.48566">
        <ele>77</ele>
        <time>2021-05-19T15:29:27.000Z</time>
      </trkpt>
      <trkpt lat="47.29096" lon="-1.48577">
        <ele>76</ele>
        <time>2021-05-19T15:29:29.000Z</time>
      </trkpt>
      <trkpt lat="47.29109" lon="-1.48586">
        <ele>76</ele>
        <time>2021-05-19T15:29:31.000Z</time>
      </trkpt>
      <trkpt lat="47.29121" lon="-1.48594">
        <ele>75</ele>
        <time>2021-05-19T15:29:33.000Z</time>
      </trkpt>
      <trkpt lat="47.29134" lon="-1.48602">
        <ele>75</ele>
        <time>2021-05-19T15:29:35.000Z</time>
      </trkpt>
      <trkpt lat="47.29147" lon="-1.48613">
        <ele>74</ele>
        <time>2021-05-19T15:29:37.000Z</time>
      </trkpt>
      <trkpt lat="47.2916" lon="-1.48623">
        <ele>74</ele>
        <time>2021-05-19T15:29:39.000Z</time>
      </trkpt>
      <trkpt lat="47.29173" lon="-1.48633">
        <ele>73</ele>
        <time>2021-05-19T15:29:41.000Z</time>
      </trkpt>
      <trkpt lat="47.29185" lon="-1.48643">
        <ele>72</ele>
        <time>2021-05-19T15:29:43.000Z</time>
      </trkpt>
      <trkpt lat="47.29198" lon="-1.48653">
        <ele>72</ele>
        <time>2021-05-19T15:29:45.000Z</time>
      </trkpt>
      <trkpt lat="47.2921" lon="-1.48663">
        <ele>72</ele>
        <time>2021-05-19T15:29:47.000Z</time>
      </trkpt>
      <trkpt lat="47.29222" lon="-1.48672">
        <ele>72</ele>
        <time>2021-05-19T15:29:49.000Z</time>
      </trkpt>
      <trkpt lat="47.29234" lon="-1.48681">
        <ele>72</ele>
        <time>2021-05-19T15:29:51.000Z</time>
      </trkpt>
      <trkpt lat="47.29245" lon="-1.48685">
        <ele>72</ele>
        <time>2021-05-19T15:29:53.000Z</time>
      </trkpt>
      <trkpt lat="47.29257" lon="-1.4868">
        <ele>71</ele>
        <time>2021-05-19T15:29:55.000Z</time>
      </trkpt>
      <trkpt lat="47.29268" lon="-1.48682">
        <ele>72</ele>
        <time>2021-05-19T15:29:57.000Z</time>
      </trkpt>
      <trkpt lat="47.29277" lon="-1.48686">
        <ele>73</ele>
        <time>2021-05-19T15:29:59.000Z</time>
      </trkpt>
      <trkpt lat="47.2929" lon="-1.48682">
        <ele>73</ele>
        <time>2021-05-19T15:30:02.000Z</time>
      </trkpt>
      <trkpt lat="47.29301" lon="-1.48678">
        <ele>73</ele>
        <time>2021-05-19T15:30:04.000Z</time>
      </trkpt>
      <trkpt lat="47.29312" lon="-1.48671">
        <ele>74</ele>
        <time>2021-05-19T15:30:06.000Z</time>
      </trkpt>
      <trkpt lat="47.29323" lon="-1.48668">
        <ele>74</ele>
        <time>2021-05-19T15:30:08.000Z</time>
      </trkpt>
      <trkpt lat="47.29332" lon="-1.48664">
        <ele>75</ele>
        <time>2021-05-19T15:30:10.000Z</time>
      </trkpt>
      <trkpt lat="47.29342" lon="-1.48662">
        <ele>75</ele>
        <time>2021-05-19T15:30:12.000Z</time>
      </trkpt>
      <trkpt lat="47.29355" lon="-1.48658">
        <ele>75</ele>
        <time>2021-05-19T15:30:14.000Z</time>
      </trkpt>
      <trkpt lat="47.29367" lon="-1.48654">
        <ele>76</ele>
        <time>2021-05-19T15:30:16.000Z</time>
      </trkpt>
      <trkpt lat="47.29379" lon="-1.48652">
        <ele>76</ele>
        <time>2021-05-19T15:30:18.000Z</time>
      </trkpt>
      <trkpt lat="47.29391" lon="-1.48651">
        <ele>76</ele>
        <time>2021-05-19T15:30:20.000Z</time>
      </trkpt>
      <trkpt lat="47.29401" lon="-1.48651">
        <ele>76</ele>
        <time>2021-05-19T15:30:22.000Z</time>
      </trkpt>
      <trkpt lat="47.29406" lon="-1.48665">
        <ele>76</ele>
        <time>2021-05-19T15:30:24.000Z</time>
      </trkpt>
      <trkpt lat="47.29412" lon="-1.48681">
        <ele>77</ele>
        <time>2021-05-19T15:30:26.000Z</time>
      </trkpt>
      <trkpt lat="47.29417" lon="-1.48697">
        <ele>77</ele>
        <time>2021-05-19T15:30:28.000Z</time>
      </trkpt>
      <trkpt lat="47.29424" lon="-1.48711">
        <ele>77</ele>
        <time>2021-05-19T15:30:30.000Z</time>
      </trkpt>
      <trkpt lat="47.29431" lon="-1.48726">
        <ele>76</ele>
        <time>2021-05-19T15:30:32.000Z</time>
      </trkpt>
      <trkpt lat="47.29437" lon="-1.48738">
        <ele>77</ele>
        <time>2021-05-19T15:30:34.000Z</time>
      </trkpt>
      <trkpt lat="47.29444" lon="-1.48749">
        <ele>77</ele>
        <time>2021-05-19T15:30:37.000Z</time>
      </trkpt>
      <trkpt lat="47.29453" lon="-1.48746">
        <ele>78</ele>
        <time>2021-05-19T15:30:39.000Z</time>
      </trkpt>
      <trkpt lat="47.29464" lon="-1.48738">
        <ele>78</ele>
        <time>2021-05-19T15:30:41.000Z</time>
      </trkpt>
      <trkpt lat="47.29475" lon="-1.48728">
        <ele>77</ele>
        <time>2021-05-19T15:30:43.000Z</time>
      </trkpt>
      <trkpt lat="47.29487" lon="-1.48718">
        <ele>78</ele>
        <time>2021-05-19T15:30:45.000Z</time>
      </trkpt>
      <trkpt lat="47.29498" lon="-1.48708">
        <ele>79</ele>
        <time>2021-05-19T15:30:47.000Z</time>
      </trkpt>
      <trkpt lat="47.2951" lon="-1.48698">
        <ele>79</ele>
        <time>2021-05-19T15:30:49.000Z</time>
      </trkpt>
      <trkpt lat="47.29522" lon="-1.48689">
        <ele>79</ele>
        <time>2021-05-19T15:30:51.000Z</time>
      </trkpt>
      <trkpt lat="47.29534" lon="-1.48682">
        <ele>79</ele>
        <time>2021-05-19T15:30:53.000Z</time>
      </trkpt>
      <trkpt lat="47.29547" lon="-1.48675">
        <ele>79</ele>
        <time>2021-05-19T15:30:55.000Z</time>
      </trkpt>
      <trkpt lat="47.29568" lon="-1.48666">
        <ele>79</ele>
        <time>2021-05-19T15:30:58.000Z</time>
      </trkpt>
      <trkpt lat="47.29582" lon="-1.4866">
        <ele>79</ele>
        <time>2021-05-19T15:31:00.000Z</time>
      </trkpt>
      <trkpt lat="47.29597" lon="-1.48654">
        <ele>79</ele>
        <time>2021-05-19T15:31:02.000Z</time>
      </trkpt>
      <trkpt lat="47.29612" lon="-1.48649">
        <ele>78</ele>
        <time>2021-05-19T15:31:04.000Z</time>
      </trkpt>
      <trkpt lat="47.29625" lon="-1.48643">
        <ele>78</ele>
        <time>2021-05-19T15:31:06.000Z</time>
      </trkpt>
      <trkpt lat="47.29635" lon="-1.48633">
        <ele>77</ele>
        <time>2021-05-19T15:31:08.000Z</time>
      </trkpt>
      <trkpt lat="47.29645" lon="-1.48621">
        <ele>78</ele>
        <time>2021-05-19T15:31:10.000Z</time>
      </trkpt>
      <trkpt lat="47.29659" lon="-1.48624">
        <ele>78</ele>
        <time>2021-05-19T15:31:12.000Z</time>
      </trkpt>
      <trkpt lat="47.29672" lon="-1.48634">
        <ele>77</ele>
        <time>2021-05-19T15:31:14.000Z</time>
      </trkpt>
      <trkpt lat="47.29684" lon="-1.48644">
        <ele>76</ele>
        <time>2021-05-19T15:31:16.000Z</time>
      </trkpt>
      <trkpt lat="47.29695" lon="-1.48656">
        <ele>76</ele>
        <time>2021-05-19T15:31:18.000Z</time>
      </trkpt>
      <trkpt lat="47.29704" lon="-1.48673">
        <ele>76</ele>
        <time>2021-05-19T15:31:20.000Z</time>
      </trkpt>
      <trkpt lat="47.29712" lon="-1.48689">
        <ele>76</ele>
        <time>2021-05-19T15:31:22.000Z</time>
      </trkpt>
      <trkpt lat="47.29722" lon="-1.48704">
        <ele>74</ele>
        <time>2021-05-19T15:31:24.000Z</time>
      </trkpt>
      <trkpt lat="47.29735" lon="-1.48715">
        <ele>74</ele>
        <time>2021-05-19T15:31:26.000Z</time>
      </trkpt>
      <trkpt lat="47.29747" lon="-1.48725">
        <ele>74</ele>
        <time>2021-05-19T15:31:28.000Z</time>
      </trkpt>
      <trkpt lat="47.2976" lon="-1.48735">
        <ele>74</ele>
        <time>2021-05-19T15:31:30.000Z</time>
      </trkpt>
      <trkpt lat="47.29772" lon="-1.48744">
        <ele>75</ele>
        <time>2021-05-19T15:31:32.000Z</time>
      </trkpt>
      <trkpt lat="47.29785" lon="-1.48754">
        <ele>75</ele>
        <time>2021-05-19T15:31:34.000Z</time>
      </trkpt>
      <trkpt lat="47.29799" lon="-1.48763">
        <ele>75</ele>
        <time>2021-05-19T15:31:36.000Z</time>
      </trkpt>
      <trkpt lat="47.29817" lon="-1.4878">
        <ele>76</ele>
        <time>2021-05-19T15:31:39.000Z</time>
      </trkpt>
      <trkpt lat="47.29829" lon="-1.4879">
        <ele>76</ele>
        <time>2021-05-19T15:31:41.000Z</time>
      </trkpt>
      <trkpt lat="47.29841" lon="-1.48798">
        <ele>75</ele>
        <time>2021-05-19T15:31:43.000Z</time>
      </trkpt>
      <trkpt lat="47.29853" lon="-1.48807">
        <ele>75</ele>
        <time>2021-05-19T15:31:45.000Z</time>
      </trkpt>
      <trkpt lat="47.29864" lon="-1.48814">
        <ele>75</ele>
        <time>2021-05-19T15:31:47.000Z</time>
      </trkpt>
      <trkpt lat="47.29873" lon="-1.4882">
        <ele>75</ele>
        <time>2021-05-19T15:31:49.000Z</time>
      </trkpt>
      <trkpt lat="47.29882" lon="-1.48829">
        <ele>76</ele>
        <time>2021-05-19T15:31:51.000Z</time>
      </trkpt>
      <trkpt lat="47.29891" lon="-1.4884">
        <ele>76</ele>
        <time>2021-05-19T15:31:53.000Z</time>
      </trkpt>
      <trkpt lat="47.29903" lon="-1.48848">
        <ele>76</ele>
        <time>2021-05-19T15:31:55.000Z</time>
      </trkpt>
      <trkpt lat="47.29915" lon="-1.48857">
        <ele>76</ele>
        <time>2021-05-19T15:31:57.000Z</time>
      </trkpt>
      <trkpt lat="47.29928" lon="-1.48865">
        <ele>75</ele>
        <time>2021-05-19T15:31:59.000Z</time>
      </trkpt>
      <trkpt lat="47.2994" lon="-1.48874">
        <ele>75</ele>
        <time>2021-05-19T15:32:01.000Z</time>
      </trkpt>
      <trkpt lat="47.29951" lon="-1.48883">
        <ele>75</ele>
        <time>2021-05-19T15:32:03.000Z</time>
      </trkpt>
      <trkpt lat="47.29964" lon="-1.48892">
        <ele>75</ele>
        <time>2021-05-19T15:32:05.000Z</time>
      </trkpt>
      <trkpt lat="47.29976" lon="-1.48903">
        <ele>75</ele>
        <time>2021-05-19T15:32:07.000Z</time>
      </trkpt>
      <trkpt lat="47.29989" lon="-1.48913">
        <ele>73</ele>
        <time>2021-05-19T15:32:09.000Z</time>
      </trkpt>
      <trkpt lat="47.30004" lon="-1.48915">
        <ele>73</ele>
        <time>2021-05-19T15:32:11.000Z</time>
      </trkpt>
      <trkpt lat="47.30018" lon="-1.48907">
        <ele>73</ele>
        <time>2021-05-19T15:32:13.000Z</time>
      </trkpt>
      <trkpt lat="47.3003" lon="-1.48892">
        <ele>72</ele>
        <time>2021-05-19T15:32:15.000Z</time>
      </trkpt>
      <trkpt lat="47.30043" lon="-1.48875">
        <ele>70</ele>
        <time>2021-05-19T15:32:17.000Z</time>
      </trkpt>
      <trkpt lat="47.30064" lon="-1.48854">
        <ele>68</ele>
        <time>2021-05-19T15:32:20.000Z</time>
      </trkpt>
      <trkpt lat="47.30078" lon="-1.48839">
        <ele>67</ele>
        <time>2021-05-19T15:32:22.000Z</time>
      </trkpt>
      <trkpt lat="47.30091" lon="-1.48825">
        <ele>67</ele>
        <time>2021-05-19T15:32:24.000Z</time>
      </trkpt>
      <trkpt lat="47.30111" lon="-1.48801">
        <ele>67</ele>
        <time>2021-05-19T15:32:27.000Z</time>
      </trkpt>
      <trkpt lat="47.30124" lon="-1.48787">
        <ele>67</ele>
        <time>2021-05-19T15:32:29.000Z</time>
      </trkpt>
      <trkpt lat="47.30144" lon="-1.48766">
        <ele>67</ele>
        <time>2021-05-19T15:32:32.000Z</time>
      </trkpt>
      <trkpt lat="47.30164" lon="-1.48746">
        <ele>67</ele>
        <time>2021-05-19T15:32:35.000Z</time>
      </trkpt>
      <trkpt lat="47.30178" lon="-1.48732">
        <ele>66</ele>
        <time>2021-05-19T15:32:37.000Z</time>
      </trkpt>
      <trkpt lat="47.30191" lon="-1.48718">
        <ele>67</ele>
        <time>2021-05-19T15:32:39.000Z</time>
      </trkpt>
      <trkpt lat="47.30204" lon="-1.48704">
        <ele>67</ele>
        <time>2021-05-19T15:32:41.000Z</time>
      </trkpt>
      <trkpt lat="47.30224" lon="-1.48684">
        <ele>67</ele>
        <time>2021-05-19T15:32:44.000Z</time>
      </trkpt>
      <trkpt lat="47.30242" lon="-1.48663">
        <ele>66</ele>
        <time>2021-05-19T15:32:47.000Z</time>
      </trkpt>
      <trkpt lat="47.30261" lon="-1.48642">
        <ele>66</ele>
        <time>2021-05-19T15:32:50.000Z</time>
      </trkpt>
      <trkpt lat="47.30274" lon="-1.4863">
        <ele>66</ele>
        <time>2021-05-19T15:32:52.000Z</time>
      </trkpt>
      <trkpt lat="47.30285" lon="-1.48619">
        <ele>66</ele>
        <time>2021-05-19T15:32:54.000Z</time>
      </trkpt>
      <trkpt lat="47.30298" lon="-1.48609">
        <ele>65</ele>
        <time>2021-05-19T15:32:56.000Z</time>
      </trkpt>
      <trkpt lat="47.30311" lon="-1.48598">
        <ele>64</ele>
        <time>2021-05-19T15:32:58.000Z</time>
      </trkpt>
      <trkpt lat="47.3033" lon="-1.48581">
        <ele>64</ele>
        <time>2021-05-19T15:33:01.000Z</time>
      </trkpt>
      <trkpt lat="47.30342" lon="-1.48571">
        <ele>64</ele>
        <time>2021-05-19T15:33:03.000Z</time>
      </trkpt>
      <trkpt lat="47.30353" lon="-1.48559">
        <ele>63</ele>
        <time>2021-05-19T15:33:05.000Z</time>
      </trkpt>
      <trkpt lat="47.30362" lon="-1.48551">
        <ele>63</ele>
        <time>2021-05-19T15:33:07.000Z</time>
      </trkpt>
      <trkpt lat="47.30372" lon="-1.48543">
        <ele>62</ele>
        <time>2021-05-19T15:33:09.000Z</time>
      </trkpt>
      <trkpt lat="47.30386" lon="-1.4852">
        <ele>62</ele>
        <time>2021-05-19T15:33:12.000Z</time>
      </trkpt>
      <trkpt lat="47.30396" lon="-1.48507">
        <ele>61</ele>
        <time>2021-05-19T15:33:14.000Z</time>
      </trkpt>
      <trkpt lat="47.30411" lon="-1.48502">
        <ele>61</ele>
        <time>2021-05-19T15:33:16.000Z</time>
      </trkpt>
      <trkpt lat="47.30426" lon="-1.48492">
        <ele>60</ele>
        <time>2021-05-19T15:33:18.000Z</time>
      </trkpt>
      <trkpt lat="47.30439" lon="-1.4848">
        <ele>59</ele>
        <time>2021-05-19T15:33:20.000Z</time>
      </trkpt>
      <trkpt lat="47.30453" lon="-1.48467">
        <ele>59</ele>
        <time>2021-05-19T15:33:22.000Z</time>
      </trkpt>
      <trkpt lat="47.30468" lon="-1.48454">
        <ele>59</ele>
        <time>2021-05-19T15:33:24.000Z</time>
      </trkpt>
      <trkpt lat="47.30482" lon="-1.48441">
        <ele>58</ele>
        <time>2021-05-19T15:33:26.000Z</time>
      </trkpt>
      <trkpt lat="47.30496" lon="-1.48428">
        <ele>57</ele>
        <time>2021-05-19T15:33:28.000Z</time>
      </trkpt>
      <trkpt lat="47.30511" lon="-1.48415">
        <ele>56</ele>
        <time>2021-05-19T15:33:30.000Z</time>
      </trkpt>
      <trkpt lat="47.30525" lon="-1.48403">
        <ele>56</ele>
        <time>2021-05-19T15:33:32.000Z</time>
      </trkpt>
      <trkpt lat="47.30545" lon="-1.48385">
        <ele>56</ele>
        <time>2021-05-19T15:33:35.000Z</time>
      </trkpt>
      <trkpt lat="47.30558" lon="-1.48373">
        <ele>56</ele>
        <time>2021-05-19T15:33:37.000Z</time>
      </trkpt>
      <trkpt lat="47.30571" lon="-1.4836">
        <ele>56</ele>
        <time>2021-05-19T15:33:39.000Z</time>
      </trkpt>
      <trkpt lat="47.30582" lon="-1.48349">
        <ele>57</ele>
        <time>2021-05-19T15:33:41.000Z</time>
      </trkpt>
      <trkpt lat="47.30593" lon="-1.48338">
        <ele>59</ele>
        <time>2021-05-19T15:33:43.000Z</time>
      </trkpt>
      <trkpt lat="47.30603" lon="-1.48327">
        <ele>59</ele>
        <time>2021-05-19T15:33:45.000Z</time>
      </trkpt>
      <trkpt lat="47.30613" lon="-1.48316">
        <ele>61</ele>
        <time>2021-05-19T15:33:47.000Z</time>
      </trkpt>
      <trkpt lat="47.30622" lon="-1.48303">
        <ele>62</ele>
        <time>2021-05-19T15:33:49.000Z</time>
      </trkpt>
      <trkpt lat="47.3063" lon="-1.48289">
        <ele>62</ele>
        <time>2021-05-19T15:33:51.000Z</time>
      </trkpt>
      <trkpt lat="47.30639" lon="-1.48275">
        <ele>62</ele>
        <time>2021-05-19T15:33:53.000Z</time>
      </trkpt>
      <trkpt lat="47.30652" lon="-1.48266">
        <ele>63</ele>
        <time>2021-05-19T15:33:55.000Z</time>
      </trkpt>
      <trkpt lat="47.30671" lon="-1.48257">
        <ele>63</ele>
        <time>2021-05-19T15:33:58.000Z</time>
      </trkpt>
      <trkpt lat="47.30684" lon="-1.4825">
        <ele>64</ele>
        <time>2021-05-19T15:34:00.000Z</time>
      </trkpt>
      <trkpt lat="47.30697" lon="-1.48248">
        <ele>65</ele>
        <time>2021-05-19T15:34:02.000Z</time>
      </trkpt>
      <trkpt lat="47.3071" lon="-1.48248">
        <ele>66</ele>
        <time>2021-05-19T15:34:04.000Z</time>
      </trkpt>
      <trkpt lat="47.30722" lon="-1.48251">
        <ele>66</ele>
        <time>2021-05-19T15:34:06.000Z</time>
      </trkpt>
      <trkpt lat="47.30733" lon="-1.48253">
        <ele>66</ele>
        <time>2021-05-19T15:34:08.000Z</time>
      </trkpt>
      <trkpt lat="47.30743" lon="-1.48252">
        <ele>66</ele>
        <time>2021-05-19T15:34:11.000Z</time>
      </trkpt>
      <trkpt lat="47.30753" lon="-1.48245">
        <ele>66</ele>
        <time>2021-05-19T15:34:13.000Z</time>
      </trkpt>
      <trkpt lat="47.30761" lon="-1.48233">
        <ele>66</ele>
        <time>2021-05-19T15:34:15.000Z</time>
      </trkpt>
      <trkpt lat="47.30767" lon="-1.48217">
        <ele>66</ele>
        <time>2021-05-19T15:34:17.000Z</time>
      </trkpt>
      <trkpt lat="47.30771" lon="-1.48199">
        <ele>66</ele>
        <time>2021-05-19T15:34:19.000Z</time>
      </trkpt>
      <trkpt lat="47.30776" lon="-1.4818">
        <ele>65</ele>
        <time>2021-05-19T15:34:21.000Z</time>
      </trkpt>
      <trkpt lat="47.3078" lon="-1.4816">
        <ele>65</ele>
        <time>2021-05-19T15:34:23.000Z</time>
      </trkpt>
      <trkpt lat="47.30786" lon="-1.48139">
        <ele>64</ele>
        <time>2021-05-19T15:34:25.000Z</time>
      </trkpt>
      <trkpt lat="47.30791" lon="-1.48119">
        <ele>64</ele>
        <time>2021-05-19T15:34:27.000Z</time>
      </trkpt>
      <trkpt lat="47.30796" lon="-1.48097">
        <ele>64</ele>
        <time>2021-05-19T15:34:29.000Z</time>
      </trkpt>
      <trkpt lat="47.30801" lon="-1.48075">
        <ele>63</ele>
        <time>2021-05-19T15:34:31.000Z</time>
      </trkpt>
      <trkpt lat="47.30803" lon="-1.48054">
        <ele>62</ele>
        <time>2021-05-19T15:34:33.000Z</time>
      </trkpt>
      <trkpt lat="47.30802" lon="-1.48033">
        <ele>62</ele>
        <time>2021-05-19T15:34:35.000Z</time>
      </trkpt>
      <trkpt lat="47.30808" lon="-1.48013">
        <ele>62</ele>
        <time>2021-05-19T15:34:37.000Z</time>
      </trkpt>
      <trkpt lat="47.30822" lon="-1.48007">
        <ele>62</ele>
        <time>2021-05-19T15:34:39.000Z</time>
      </trkpt>
      <trkpt lat="47.30835" lon="-1.4802">
        <ele>62</ele>
        <time>2021-05-19T15:34:41.000Z</time>
      </trkpt>
      <trkpt lat="47.30841" lon="-1.4804">
        <ele>63</ele>
        <time>2021-05-19T15:34:43.000Z</time>
      </trkpt>
      <trkpt lat="47.30849" lon="-1.48057">
        <ele>63</ele>
        <time>2021-05-19T15:34:45.000Z</time>
      </trkpt>
      <trkpt lat="47.3086" lon="-1.4807">
        <ele>63</ele>
        <time>2021-05-19T15:34:47.000Z</time>
      </trkpt>
      <trkpt lat="47.30871" lon="-1.48083">
        <ele>63</ele>
        <time>2021-05-19T15:34:49.000Z</time>
      </trkpt>
      <trkpt lat="47.30884" lon="-1.48093">
        <ele>62</ele>
        <time>2021-05-19T15:34:51.000Z</time>
      </trkpt>
      <trkpt lat="47.30897" lon="-1.48103">
        <ele>62</ele>
        <time>2021-05-19T15:34:53.000Z</time>
      </trkpt>
      <trkpt lat="47.30911" lon="-1.48111">
        <ele>61</ele>
        <time>2021-05-19T15:34:55.000Z</time>
      </trkpt>
      <trkpt lat="47.30925" lon="-1.48117">
        <ele>61</ele>
        <time>2021-05-19T15:34:57.000Z</time>
      </trkpt>
      <trkpt lat="47.30938" lon="-1.4812">
        <ele>61</ele>
        <time>2021-05-19T15:34:59.000Z</time>
      </trkpt>
      <trkpt lat="47.30953" lon="-1.4812">
        <ele>61</ele>
        <time>2021-05-19T15:35:01.000Z</time>
      </trkpt>
      <trkpt lat="47.30967" lon="-1.48124">
        <ele>61</ele>
        <time>2021-05-19T15:35:03.000Z</time>
      </trkpt>
      <trkpt lat="47.30981" lon="-1.4813">
        <ele>61</ele>
        <time>2021-05-19T15:35:05.000Z</time>
      </trkpt>
      <trkpt lat="47.30995" lon="-1.48131">
        <ele>60</ele>
        <time>2021-05-19T15:35:07.000Z</time>
      </trkpt>
      <trkpt lat="47.3101" lon="-1.4813">
        <ele>60</ele>
        <time>2021-05-19T15:35:09.000Z</time>
      </trkpt>
      <trkpt lat="47.31025" lon="-1.48126">
        <ele>60</ele>
        <time>2021-05-19T15:35:11.000Z</time>
      </trkpt>
      <trkpt lat="47.3104" lon="-1.48119">
        <ele>60</ele>
        <time>2021-05-19T15:35:13.000Z</time>
      </trkpt>
      <trkpt lat="47.31055" lon="-1.48112">
        <ele>59</ele>
        <time>2021-05-19T15:35:15.000Z</time>
      </trkpt>
      <trkpt lat="47.31069" lon="-1.48104">
        <ele>59</ele>
        <time>2021-05-19T15:35:17.000Z</time>
      </trkpt>
      <trkpt lat="47.31084" lon="-1.48096">
        <ele>59</ele>
        <time>2021-05-19T15:35:19.000Z</time>
      </trkpt>
      <trkpt lat="47.31098" lon="-1.48088">
        <ele>59</ele>
        <time>2021-05-19T15:35:21.000Z</time>
      </trkpt>
      <trkpt lat="47.31112" lon="-1.48081">
        <ele>59</ele>
        <time>2021-05-19T15:35:23.000Z</time>
      </trkpt>
      <trkpt lat="47.31126" lon="-1.48074">
        <ele>60</ele>
        <time>2021-05-19T15:35:25.000Z</time>
      </trkpt>
      <trkpt lat="47.3114" lon="-1.48066">
        <ele>60</ele>
        <time>2021-05-19T15:35:27.000Z</time>
      </trkpt>
      <trkpt lat="47.31153" lon="-1.48058">
        <ele>60</ele>
        <time>2021-05-19T15:35:29.000Z</time>
      </trkpt>
      <trkpt lat="47.31167" lon="-1.48051">
        <ele>60</ele>
        <time>2021-05-19T15:35:31.000Z</time>
      </trkpt>
      <trkpt lat="47.3118" lon="-1.48044">
        <ele>60</ele>
        <time>2021-05-19T15:35:33.000Z</time>
      </trkpt>
      <trkpt lat="47.31193" lon="-1.48036">
        <ele>61</ele>
        <time>2021-05-19T15:35:35.000Z</time>
      </trkpt>
      <trkpt lat="47.31207" lon="-1.48028">
        <ele>61</ele>
        <time>2021-05-19T15:35:37.000Z</time>
      </trkpt>
      <trkpt lat="47.3122" lon="-1.48022">
        <ele>61</ele>
        <time>2021-05-19T15:35:39.000Z</time>
      </trkpt>
      <trkpt lat="47.31233" lon="-1.48014">
        <ele>61</ele>
        <time>2021-05-19T15:35:41.000Z</time>
      </trkpt>
      <trkpt lat="47.31247" lon="-1.48005">
        <ele>61</ele>
        <time>2021-05-19T15:35:43.000Z</time>
      </trkpt>
      <trkpt lat="47.31261" lon="-1.47996">
        <ele>61</ele>
        <time>2021-05-19T15:35:45.000Z</time>
      </trkpt>
      <trkpt lat="47.31276" lon="-1.47988">
        <ele>61</ele>
        <time>2021-05-19T15:35:47.000Z</time>
      </trkpt>
      <trkpt lat="47.31291" lon="-1.47981">
        <ele>60</ele>
        <time>2021-05-19T15:35:49.000Z</time>
      </trkpt>
      <trkpt lat="47.31307" lon="-1.47972">
        <ele>60</ele>
        <time>2021-05-19T15:35:51.000Z</time>
      </trkpt>
      <trkpt lat="47.31322" lon="-1.47963">
        <ele>59</ele>
        <time>2021-05-19T15:35:53.000Z</time>
      </trkpt>
      <trkpt lat="47.31338" lon="-1.47953">
        <ele>59</ele>
        <time>2021-05-19T15:35:55.000Z</time>
      </trkpt>
      <trkpt lat="47.31354" lon="-1.47944">
        <ele>59</ele>
        <time>2021-05-19T15:35:57.000Z</time>
      </trkpt>
      <trkpt lat="47.31378" lon="-1.4793">
        <ele>59</ele>
        <time>2021-05-19T15:36:00.000Z</time>
      </trkpt>
      <trkpt lat="47.31393" lon="-1.47921">
        <ele>59</ele>
        <time>2021-05-19T15:36:02.000Z</time>
      </trkpt>
      <trkpt lat="47.31409" lon="-1.47912">
        <ele>59</ele>
        <time>2021-05-19T15:36:04.000Z</time>
      </trkpt>
      <trkpt lat="47.31424" lon="-1.47903">
        <ele>59</ele>
        <time>2021-05-19T15:36:06.000Z</time>
      </trkpt>
      <trkpt lat="47.31439" lon="-1.47894">
        <ele>60</ele>
        <time>2021-05-19T15:36:08.000Z</time>
      </trkpt>
      <trkpt lat="47.31454" lon="-1.47885">
        <ele>61</ele>
        <time>2021-05-19T15:36:10.000Z</time>
      </trkpt>
      <trkpt lat="47.31467" lon="-1.47877">
        <ele>61</ele>
        <time>2021-05-19T15:36:12.000Z</time>
      </trkpt>
      <trkpt lat="47.31481" lon="-1.47869">
        <ele>61</ele>
        <time>2021-05-19T15:36:14.000Z</time>
      </trkpt>
      <trkpt lat="47.31495" lon="-1.47862">
        <ele>61</ele>
        <time>2021-05-19T15:36:16.000Z</time>
      </trkpt>
      <trkpt lat="47.3151" lon="-1.47856">
        <ele>61</ele>
        <time>2021-05-19T15:36:18.000Z</time>
      </trkpt>
      <trkpt lat="47.31525" lon="-1.47851">
        <ele>61</ele>
        <time>2021-05-19T15:36:20.000Z</time>
      </trkpt>
      <trkpt lat="47.3154" lon="-1.47846">
        <ele>60</ele>
        <time>2021-05-19T15:36:22.000Z</time>
      </trkpt>
      <trkpt lat="47.31555" lon="-1.47842">
        <ele>59</ele>
        <time>2021-05-19T15:36:24.000Z</time>
      </trkpt>
      <trkpt lat="47.31571" lon="-1.47839">
        <ele>59</ele>
        <time>2021-05-19T15:36:26.000Z</time>
      </trkpt>
      <trkpt lat="47.31587" lon="-1.47836">
        <ele>59</ele>
        <time>2021-05-19T15:36:28.000Z</time>
      </trkpt>
      <trkpt lat="47.31602" lon="-1.47835">
        <ele>58</ele>
        <time>2021-05-19T15:36:30.000Z</time>
      </trkpt>
      <trkpt lat="47.31617" lon="-1.47834">
        <ele>58</ele>
        <time>2021-05-19T15:36:32.000Z</time>
      </trkpt>
      <trkpt lat="47.31631" lon="-1.47833">
        <ele>58</ele>
        <time>2021-05-19T15:36:34.000Z</time>
      </trkpt>
      <trkpt lat="47.31645" lon="-1.4783">
        <ele>58</ele>
        <time>2021-05-19T15:36:36.000Z</time>
      </trkpt>
      <trkpt lat="47.31658" lon="-1.47823">
        <ele>57</ele>
        <time>2021-05-19T15:36:38.000Z</time>
      </trkpt>
      <trkpt lat="47.31672" lon="-1.47823">
        <ele>57</ele>
        <time>2021-05-19T15:36:40.000Z</time>
      </trkpt>
      <trkpt lat="47.31678" lon="-1.47842">
        <ele>57</ele>
        <time>2021-05-19T15:36:42.000Z</time>
      </trkpt>
      <trkpt lat="47.31672" lon="-1.47859">
        <ele>56</ele>
        <time>2021-05-19T15:36:44.000Z</time>
      </trkpt>
      <trkpt lat="47.31663" lon="-1.47874">
        <ele>56</ele>
        <time>2021-05-19T15:36:46.000Z</time>
      </trkpt>
      <trkpt lat="47.31655" lon="-1.4789">
        <ele>56</ele>
        <time>2021-05-19T15:36:48.000Z</time>
      </trkpt>
      <trkpt lat="47.31646" lon="-1.47904">
        <ele>56</ele>
        <time>2021-05-19T15:36:50.000Z</time>
      </trkpt>
      <trkpt lat="47.31638" lon="-1.47918">
        <ele>56</ele>
        <time>2021-05-19T15:36:52.000Z</time>
      </trkpt>
      <trkpt lat="47.31629" lon="-1.4793">
        <ele>57</ele>
        <time>2021-05-19T15:36:54.000Z</time>
      </trkpt>
      <trkpt lat="47.31621" lon="-1.47943">
        <ele>57</ele>
        <time>2021-05-19T15:36:56.000Z</time>
      </trkpt>
      <trkpt lat="47.31614" lon="-1.47956">
        <ele>58</ele>
        <time>2021-05-19T15:36:58.000Z</time>
      </trkpt>
      <trkpt lat="47.31608" lon="-1.47969">
        <ele>59</ele>
        <time>2021-05-19T15:37:00.000Z</time>
      </trkpt>
      <trkpt lat="47.31605" lon="-1.47986">
        <ele>60</ele>
        <time>2021-05-19T15:37:02.000Z</time>
      </trkpt>
      <trkpt lat="47.31606" lon="-1.48002">
        <ele>61</ele>
        <time>2021-05-19T15:37:04.000Z</time>
      </trkpt>
      <trkpt lat="47.31609" lon="-1.48019">
        <ele>62</ele>
        <time>2021-05-19T15:37:06.000Z</time>
      </trkpt>
      <trkpt lat="47.31611" lon="-1.48035">
        <ele>63</ele>
        <time>2021-05-19T15:37:08.000Z</time>
      </trkpt>
      <trkpt lat="47.31613" lon="-1.48052">
        <ele>63</ele>
        <time>2021-05-19T15:37:10.000Z</time>
      </trkpt>
      <trkpt lat="47.31616" lon="-1.48069">
        <ele>64</ele>
        <time>2021-05-19T15:37:12.000Z</time>
      </trkpt>
      <trkpt lat="47.31621" lon="-1.48084">
        <ele>64</ele>
        <time>2021-05-19T15:37:14.000Z</time>
      </trkpt>
      <trkpt lat="47.31629" lon="-1.48095">
        <ele>64</ele>
        <time>2021-05-19T15:37:16.000Z</time>
      </trkpt>
      <trkpt lat="47.31639" lon="-1.48103">
        <ele>64</ele>
        <time>2021-05-19T15:37:18.000Z</time>
      </trkpt>
      <trkpt lat="47.31651" lon="-1.48105">
        <ele>64</ele>
        <time>2021-05-19T15:37:20.000Z</time>
      </trkpt>
      <trkpt lat="47.31663" lon="-1.481">
        <ele>64</ele>
        <time>2021-05-19T15:37:22.000Z</time>
      </trkpt>
      <trkpt lat="47.31675" lon="-1.48091">
        <ele>63</ele>
        <time>2021-05-19T15:37:24.000Z</time>
      </trkpt>
      <trkpt lat="47.31686" lon="-1.48079">
        <ele>62</ele>
        <time>2021-05-19T15:37:26.000Z</time>
      </trkpt>
      <trkpt lat="47.31699" lon="-1.48067">
        <ele>61</ele>
        <time>2021-05-19T15:37:28.000Z</time>
      </trkpt>
      <trkpt lat="47.31712" lon="-1.48054">
        <ele>60</ele>
        <time>2021-05-19T15:37:30.000Z</time>
      </trkpt>
      <trkpt lat="47.31726" lon="-1.48041">
        <ele>59</ele>
        <time>2021-05-19T15:37:32.000Z</time>
      </trkpt>
      <trkpt lat="47.31742" lon="-1.48029">
        <ele>58</ele>
        <time>2021-05-19T15:37:34.000Z</time>
      </trkpt>
      <trkpt lat="47.31757" lon="-1.48018">
        <ele>58</ele>
        <time>2021-05-19T15:37:36.000Z</time>
      </trkpt>
      <trkpt lat="47.31772" lon="-1.4801">
        <ele>57</ele>
        <time>2021-05-19T15:37:38.000Z</time>
      </trkpt>
      <trkpt lat="47.31786" lon="-1.48003">
        <ele>57</ele>
        <time>2021-05-19T15:37:40.000Z</time>
      </trkpt>
      <trkpt lat="47.31801" lon="-1.47998">
        <ele>57</ele>
        <time>2021-05-19T15:37:42.000Z</time>
      </trkpt>
      <trkpt lat="47.31815" lon="-1.47994">
        <ele>57</ele>
        <time>2021-05-19T15:37:44.000Z</time>
      </trkpt>
      <trkpt lat="47.31829" lon="-1.4799">
        <ele>57</ele>
        <time>2021-05-19T15:37:46.000Z</time>
      </trkpt>
      <trkpt lat="47.31843" lon="-1.47985">
        <ele>57</ele>
        <time>2021-05-19T15:37:48.000Z</time>
      </trkpt>
      <trkpt lat="47.31857" lon="-1.47981">
        <ele>57</ele>
        <time>2021-05-19T15:37:50.000Z</time>
      </trkpt>
      <trkpt lat="47.31871" lon="-1.47978">
        <ele>56</ele>
        <time>2021-05-19T15:37:52.000Z</time>
      </trkpt>
      <trkpt lat="47.31885" lon="-1.47973">
        <ele>56</ele>
        <time>2021-05-19T15:37:54.000Z</time>
      </trkpt>
      <trkpt lat="47.31899" lon="-1.47969">
        <ele>56</ele>
        <time>2021-05-19T15:37:56.000Z</time>
      </trkpt>
      <trkpt lat="47.31913" lon="-1.47964">
        <ele>56</ele>
        <time>2021-05-19T15:37:58.000Z</time>
      </trkpt>
      <trkpt lat="47.31926" lon="-1.47959">
        <ele>56</ele>
        <time>2021-05-19T15:38:00.000Z</time>
      </trkpt>
      <trkpt lat="47.3194" lon="-1.47955">
        <ele>56</ele>
        <time>2021-05-19T15:38:02.000Z</time>
      </trkpt>
      <trkpt lat="47.31954" lon="-1.47952">
        <ele>56</ele>
        <time>2021-05-19T15:38:04.000Z</time>
      </trkpt>
      <trkpt lat="47.31967" lon="-1.47949">
        <ele>56</ele>
        <time>2021-05-19T15:38:06.000Z</time>
      </trkpt>
      <trkpt lat="47.31981" lon="-1.47946">
        <ele>56</ele>
        <time>2021-05-19T15:38:08.000Z</time>
      </trkpt>
      <trkpt lat="47.31994" lon="-1.47943">
        <ele>56</ele>
        <time>2021-05-19T15:38:10.000Z</time>
      </trkpt>
      <trkpt lat="47.32007" lon="-1.47939">
        <ele>56</ele>
        <time>2021-05-19T15:38:12.000Z</time>
      </trkpt>
      <trkpt lat="47.32021" lon="-1.47936">
        <ele>56</ele>
        <time>2021-05-19T15:38:14.000Z</time>
      </trkpt>
      <trkpt lat="47.32035" lon="-1.47933">
        <ele>55</ele>
        <time>2021-05-19T15:38:16.000Z</time>
      </trkpt>
      <trkpt lat="47.32048" lon="-1.4793">
        <ele>55</ele>
        <time>2021-05-19T15:38:18.000Z</time>
      </trkpt>
      <trkpt lat="47.32061" lon="-1.47927">
        <ele>55</ele>
        <time>2021-05-19T15:38:20.000Z</time>
      </trkpt>
      <trkpt lat="47.32075" lon="-1.47923">
        <ele>55</ele>
        <time>2021-05-19T15:38:22.000Z</time>
      </trkpt>
      <trkpt lat="47.32088" lon="-1.4792">
        <ele>55</ele>
        <time>2021-05-19T15:38:24.000Z</time>
      </trkpt>
      <trkpt lat="47.32101" lon="-1.47917">
        <ele>56</ele>
        <time>2021-05-19T15:38:26.000Z</time>
      </trkpt>
      <trkpt lat="47.32114" lon="-1.47913">
        <ele>56</ele>
        <time>2021-05-19T15:38:28.000Z</time>
      </trkpt>
      <trkpt lat="47.32128" lon="-1.4791">
        <ele>56</ele>
        <time>2021-05-19T15:38:30.000Z</time>
      </trkpt>
      <trkpt lat="47.32141" lon="-1.47907">
        <ele>56</ele>
        <time>2021-05-19T15:38:32.000Z</time>
      </trkpt>
      <trkpt lat="47.32155" lon="-1.47904">
        <ele>56</ele>
        <time>2021-05-19T15:38:34.000Z</time>
      </trkpt>
      <trkpt lat="47.32168" lon="-1.47901">
        <ele>56</ele>
        <time>2021-05-19T15:38:36.000Z</time>
      </trkpt>
      <trkpt lat="47.32181" lon="-1.47897">
        <ele>56</ele>
        <time>2021-05-19T15:38:38.000Z</time>
      </trkpt>
      <trkpt lat="47.32194" lon="-1.47895">
        <ele>56</ele>
        <time>2021-05-19T15:38:40.000Z</time>
      </trkpt>
      <trkpt lat="47.32207" lon="-1.47891">
        <ele>56</ele>
        <time>2021-05-19T15:38:42.000Z</time>
      </trkpt>
      <trkpt lat="47.3222" lon="-1.47888">
        <ele>57</ele>
        <time>2021-05-19T15:38:44.000Z</time>
      </trkpt>
      <trkpt lat="47.32233" lon="-1.47885">
        <ele>57</ele>
        <time>2021-05-19T15:38:46.000Z</time>
      </trkpt>
      <trkpt lat="47.32246" lon="-1.47881">
        <ele>57</ele>
        <time>2021-05-19T15:38:48.000Z</time>
      </trkpt>
      <trkpt lat="47.32259" lon="-1.47877">
        <ele>57</ele>
        <time>2021-05-19T15:38:50.000Z</time>
      </trkpt>
      <trkpt lat="47.32273" lon="-1.47874">
        <ele>57</ele>
        <time>2021-05-19T15:38:52.000Z</time>
      </trkpt>
      <trkpt lat="47.32286" lon="-1.47871">
        <ele>57</ele>
        <time>2021-05-19T15:38:54.000Z</time>
      </trkpt>
      <trkpt lat="47.323" lon="-1.47867">
        <ele>57</ele>
        <time>2021-05-19T15:38:56.000Z</time>
      </trkpt>
      <trkpt lat="47.32314" lon="-1.47864">
        <ele>58</ele>
        <time>2021-05-19T15:38:58.000Z</time>
      </trkpt>
      <trkpt lat="47.32327" lon="-1.47861">
        <ele>58</ele>
        <time>2021-05-19T15:39:00.000Z</time>
      </trkpt>
      <trkpt lat="47.32341" lon="-1.47858">
        <ele>58</ele>
        <time>2021-05-19T15:39:02.000Z</time>
      </trkpt>
      <trkpt lat="47.32356" lon="-1.47854">
        <ele>57</ele>
        <time>2021-05-19T15:39:04.000Z</time>
      </trkpt>
      <trkpt lat="47.32369" lon="-1.4785">
        <ele>57</ele>
        <time>2021-05-19T15:39:06.000Z</time>
      </trkpt>
      <trkpt lat="47.32383" lon="-1.47848">
        <ele>57</ele>
        <time>2021-05-19T15:39:08.000Z</time>
      </trkpt>
      <trkpt lat="47.32397" lon="-1.47844">
        <ele>57</ele>
        <time>2021-05-19T15:39:10.000Z</time>
      </trkpt>
      <trkpt lat="47.32411" lon="-1.47841">
        <ele>57</ele>
        <time>2021-05-19T15:39:12.000Z</time>
      </trkpt>
      <trkpt lat="47.32424" lon="-1.47837">
        <ele>57</ele>
        <time>2021-05-19T15:39:14.000Z</time>
      </trkpt>
      <trkpt lat="47.32438" lon="-1.47833">
        <ele>57</ele>
        <time>2021-05-19T15:39:16.000Z</time>
      </trkpt>
      <trkpt lat="47.32452" lon="-1.4783">
        <ele>57</ele>
        <time>2021-05-19T15:39:18.000Z</time>
      </trkpt>
      <trkpt lat="47.32466" lon="-1.47827">
        <ele>56</ele>
        <time>2021-05-19T15:39:20.000Z</time>
      </trkpt>
      <trkpt lat="47.32479" lon="-1.47823">
        <ele>56</ele>
        <time>2021-05-19T15:39:22.000Z</time>
      </trkpt>
      <trkpt lat="47.32493" lon="-1.47821">
        <ele>56</ele>
        <time>2021-05-19T15:39:24.000Z</time>
      </trkpt>
      <trkpt lat="47.32507" lon="-1.47817">
        <ele>56</ele>
        <time>2021-05-19T15:39:26.000Z</time>
      </trkpt>
      <trkpt lat="47.32521" lon="-1.47814">
        <ele>56</ele>
        <time>2021-05-19T15:39:28.000Z</time>
      </trkpt>
      <trkpt lat="47.32534" lon="-1.4781">
        <ele>56</ele>
        <time>2021-05-19T15:39:30.000Z</time>
      </trkpt>
      <trkpt lat="47.32548" lon="-1.47807">
        <ele>55</ele>
        <time>2021-05-19T15:39:32.000Z</time>
      </trkpt>
      <trkpt lat="47.32562" lon="-1.47804">
        <ele>55</ele>
        <time>2021-05-19T15:39:34.000Z</time>
      </trkpt>
      <trkpt lat="47.32577" lon="-1.47801">
        <ele>55</ele>
        <time>2021-05-19T15:39:36.000Z</time>
      </trkpt>
      <trkpt lat="47.32591" lon="-1.47798">
        <ele>55</ele>
        <time>2021-05-19T15:39:38.000Z</time>
      </trkpt>
      <trkpt lat="47.32604" lon="-1.47795">
        <ele>54</ele>
        <time>2021-05-19T15:39:40.000Z</time>
      </trkpt>
      <trkpt lat="47.32618" lon="-1.47792">
        <ele>54</ele>
        <time>2021-05-19T15:39:42.000Z</time>
      </trkpt>
      <trkpt lat="47.32632" lon="-1.47789">
        <ele>55</ele>
        <time>2021-05-19T15:39:44.000Z</time>
      </trkpt>
      <trkpt lat="47.32646" lon="-1.47786">
        <ele>55</ele>
        <time>2021-05-19T15:39:46.000Z</time>
      </trkpt>
      <trkpt lat="47.32659" lon="-1.47782">
        <ele>55</ele>
        <time>2021-05-19T15:39:48.000Z</time>
      </trkpt>
      <trkpt lat="47.32672" lon="-1.47779">
        <ele>56</ele>
        <time>2021-05-19T15:39:50.000Z</time>
      </trkpt>
      <trkpt lat="47.32686" lon="-1.47775">
        <ele>56</ele>
        <time>2021-05-19T15:39:52.000Z</time>
      </trkpt>
      <trkpt lat="47.32699" lon="-1.47772">
        <ele>56</ele>
        <time>2021-05-19T15:39:54.000Z</time>
      </trkpt>
      <trkpt lat="47.32713" lon="-1.47769">
        <ele>56</ele>
        <time>2021-05-19T15:39:56.000Z</time>
      </trkpt>
      <trkpt lat="47.32727" lon="-1.47765">
        <ele>56</ele>
        <time>2021-05-19T15:39:58.000Z</time>
      </trkpt>
      <trkpt lat="47.3274" lon="-1.47762">
        <ele>56</ele>
        <time>2021-05-19T15:40:00.000Z</time>
      </trkpt>
      <trkpt lat="47.32753" lon="-1.47758">
        <ele>56</ele>
        <time>2021-05-19T15:40:02.000Z</time>
      </trkpt>
      <trkpt lat="47.32765" lon="-1.47755">
        <ele>56</ele>
        <time>2021-05-19T15:40:04.000Z</time>
      </trkpt>
      <trkpt lat="47.32778" lon="-1.47752">
        <ele>57</ele>
        <time>2021-05-19T15:40:06.000Z</time>
      </trkpt>
      <trkpt lat="47.3279" lon="-1.47749">
        <ele>57</ele>
        <time>2021-05-19T15:40:08.000Z</time>
      </trkpt>
      <trkpt lat="47.32803" lon="-1.47746">
        <ele>57</ele>
        <time>2021-05-19T15:40:10.000Z</time>
      </trkpt>
      <trkpt lat="47.32817" lon="-1.47744">
        <ele>57</ele>
        <time>2021-05-19T15:40:12.000Z</time>
      </trkpt>
      <trkpt lat="47.3283" lon="-1.47741">
        <ele>57</ele>
        <time>2021-05-19T15:40:14.000Z</time>
      </trkpt>
      <trkpt lat="47.32843" lon="-1.47739">
        <ele>58</ele>
        <time>2021-05-19T15:40:16.000Z</time>
      </trkpt>
      <trkpt lat="47.32856" lon="-1.47737">
        <ele>58</ele>
        <time>2021-05-19T15:40:18.000Z</time>
      </trkpt>
      <trkpt lat="47.32869" lon="-1.47736">
        <ele>58</ele>
        <time>2021-05-19T15:40:20.000Z</time>
      </trkpt>
      <trkpt lat="47.32882" lon="-1.47735">
        <ele>58</ele>
        <time>2021-05-19T15:40:22.000Z</time>
      </trkpt>
      <trkpt lat="47.32895" lon="-1.47735">
        <ele>58</ele>
        <time>2021-05-19T15:40:24.000Z</time>
      </trkpt>
      <trkpt lat="47.32908" lon="-1.47734">
        <ele>58</ele>
        <time>2021-05-19T15:40:26.000Z</time>
      </trkpt>
      <trkpt lat="47.32921" lon="-1.47734">
        <ele>58</ele>
        <time>2021-05-19T15:40:28.000Z</time>
      </trkpt>
      <trkpt lat="47.32934" lon="-1.47735">
        <ele>59</ele>
        <time>2021-05-19T15:40:30.000Z</time>
      </trkpt>
      <trkpt lat="47.32947" lon="-1.47737">
        <ele>59</ele>
        <time>2021-05-19T15:40:32.000Z</time>
      </trkpt>
      <trkpt lat="47.3296" lon="-1.47739">
        <ele>59</ele>
        <time>2021-05-19T15:40:34.000Z</time>
      </trkpt>
      <trkpt lat="47.32973" lon="-1.47741">
        <ele>59</ele>
        <time>2021-05-19T15:40:36.000Z</time>
      </trkpt>
      <trkpt lat="47.32986" lon="-1.47743">
        <ele>58</ele>
        <time>2021-05-19T15:40:38.000Z</time>
      </trkpt>
      <trkpt lat="47.32999" lon="-1.47747">
        <ele>58</ele>
        <time>2021-05-19T15:40:40.000Z</time>
      </trkpt>
      <trkpt lat="47.33012" lon="-1.47749">
        <ele>58</ele>
        <time>2021-05-19T15:40:42.000Z</time>
      </trkpt>
      <trkpt lat="47.33025" lon="-1.47752">
        <ele>58</ele>
        <time>2021-05-19T15:40:44.000Z</time>
      </trkpt>
      <trkpt lat="47.33037" lon="-1.47755">
        <ele>58</ele>
        <time>2021-05-19T15:40:46.000Z</time>
      </trkpt>
      <trkpt lat="47.3305" lon="-1.47758">
        <ele>58</ele>
        <time>2021-05-19T15:40:48.000Z</time>
      </trkpt>
      <trkpt lat="47.33061" lon="-1.47765">
        <ele>59</ele>
        <time>2021-05-19T15:40:50.000Z</time>
      </trkpt>
      <trkpt lat="47.33071" lon="-1.47774">
        <ele>58</ele>
        <time>2021-05-19T15:40:52.000Z</time>
      </trkpt>
      <trkpt lat="47.33081" lon="-1.47782">
        <ele>58</ele>
        <time>2021-05-19T15:40:54.000Z</time>
      </trkpt>
      <trkpt lat="47.33091" lon="-1.47784">
        <ele>58</ele>
        <time>2021-05-19T15:40:56.000Z</time>
      </trkpt>
      <trkpt lat="47.33102" lon="-1.47781">
        <ele>58</ele>
        <time>2021-05-19T15:40:59.000Z</time>
      </trkpt>
      <trkpt lat="47.33109" lon="-1.47795">
        <ele>57</ele>
        <time>2021-05-19T15:41:04.000Z</time>
      </trkpt>
      <trkpt lat="47.33108" lon="-1.47812">
        <ele>57</ele>
        <time>2021-05-19T15:41:06.000Z</time>
      </trkpt>
      <trkpt lat="47.33108" lon="-1.47829">
        <ele>58</ele>
        <time>2021-05-19T15:41:08.000Z</time>
      </trkpt>
      <trkpt lat="47.33109" lon="-1.47848">
        <ele>58</ele>
        <time>2021-05-19T15:41:10.000Z</time>
      </trkpt>
      <trkpt lat="47.3311" lon="-1.47867">
        <ele>57</ele>
        <time>2021-05-19T15:41:12.000Z</time>
      </trkpt>
      <trkpt lat="47.33111" lon="-1.47887">
        <ele>57</ele>
        <time>2021-05-19T15:41:14.000Z</time>
      </trkpt>
      <trkpt lat="47.33113" lon="-1.47907">
        <ele>57</ele>
        <time>2021-05-19T15:41:16.000Z</time>
      </trkpt>
      <trkpt lat="47.33115" lon="-1.47926">
        <ele>57</ele>
        <time>2021-05-19T15:41:18.000Z</time>
      </trkpt>
      <trkpt lat="47.33118" lon="-1.47944">
        <ele>57</ele>
        <time>2021-05-19T15:41:20.000Z</time>
      </trkpt>
      <trkpt lat="47.33121" lon="-1.47963">
        <ele>57</ele>
        <time>2021-05-19T15:41:22.000Z</time>
      </trkpt>
      <trkpt lat="47.33124" lon="-1.47982">
        <ele>57</ele>
        <time>2021-05-19T15:41:24.000Z</time>
      </trkpt>
      <trkpt lat="47.33128" lon="-1.48001">
        <ele>57</ele>
        <time>2021-05-19T15:41:26.000Z</time>
      </trkpt>
      <trkpt lat="47.33133" lon="-1.4802">
        <ele>57</ele>
        <time>2021-05-19T15:41:28.000Z</time>
      </trkpt>
      <trkpt lat="47.33136" lon="-1.48038">
        <ele>57</ele>
        <time>2021-05-19T15:41:30.000Z</time>
      </trkpt>
      <trkpt lat="47.3314" lon="-1.48057">
        <ele>57</ele>
        <time>2021-05-19T15:41:32.000Z</time>
      </trkpt>
      <trkpt lat="47.33145" lon="-1.48075">
        <ele>57</ele>
        <time>2021-05-19T15:41:34.000Z</time>
      </trkpt>
      <trkpt lat="47.3315" lon="-1.48093">
        <ele>57</ele>
        <time>2021-05-19T15:41:36.000Z</time>
      </trkpt>
      <trkpt lat="47.33155" lon="-1.4811">
        <ele>56</ele>
        <time>2021-05-19T15:41:38.000Z</time>
      </trkpt>
      <trkpt lat="47.33161" lon="-1.48127">
        <ele>57</ele>
        <time>2021-05-19T15:41:40.000Z</time>
      </trkpt>
      <trkpt lat="47.33168" lon="-1.48143">
        <ele>57</ele>
        <time>2021-05-19T15:41:42.000Z</time>
      </trkpt>
      <trkpt lat="47.33174" lon="-1.4816">
        <ele>57</ele>
        <time>2021-05-19T15:41:44.000Z</time>
      </trkpt>
      <trkpt lat="47.3318" lon="-1.48177">
        <ele>56</ele>
        <time>2021-05-19T15:41:46.000Z</time>
      </trkpt>
      <trkpt lat="47.33186" lon="-1.48194">
        <ele>56</ele>
        <time>2021-05-19T15:41:48.000Z</time>
      </trkpt>
      <trkpt lat="47.33192" lon="-1.48211">
        <ele>55</ele>
        <time>2021-05-19T15:41:50.000Z</time>
      </trkpt>
      <trkpt lat="47.33198" lon="-1.48227">
        <ele>55</ele>
        <time>2021-05-19T15:41:52.000Z</time>
      </trkpt>
      <trkpt lat="47.33204" lon="-1.48244">
        <ele>55</ele>
        <time>2021-05-19T15:41:54.000Z</time>
      </trkpt>
      <trkpt lat="47.3321" lon="-1.48259">
        <ele>55</ele>
        <time>2021-05-19T15:41:56.000Z</time>
      </trkpt>
      <trkpt lat="47.33216" lon="-1.48275">
        <ele>55</ele>
        <time>2021-05-19T15:41:58.000Z</time>
      </trkpt>
      <trkpt lat="47.33222" lon="-1.48292">
        <ele>55</ele>
        <time>2021-05-19T15:42:00.000Z</time>
      </trkpt>
      <trkpt lat="47.33228" lon="-1.48308">
        <ele>54</ele>
        <time>2021-05-19T15:42:02.000Z</time>
      </trkpt>
      <trkpt lat="47.33234" lon="-1.48325">
        <ele>54</ele>
        <time>2021-05-19T15:42:04.000Z</time>
      </trkpt>
      <trkpt lat="47.3324" lon="-1.48341">
        <ele>54</ele>
        <time>2021-05-19T15:42:06.000Z</time>
      </trkpt>
      <trkpt lat="47.33246" lon="-1.48358">
        <ele>54</ele>
        <time>2021-05-19T15:42:08.000Z</time>
      </trkpt>
      <trkpt lat="47.33253" lon="-1.48375">
        <ele>54</ele>
        <time>2021-05-19T15:42:10.000Z</time>
      </trkpt>
      <trkpt lat="47.33258" lon="-1.48392">
        <ele>54</ele>
        <time>2021-05-19T15:42:12.000Z</time>
      </trkpt>
      <trkpt lat="47.33265" lon="-1.48409">
        <ele>54</ele>
        <time>2021-05-19T15:42:14.000Z</time>
      </trkpt>
      <trkpt lat="47.33272" lon="-1.48426">
        <ele>54</ele>
        <time>2021-05-19T15:42:16.000Z</time>
      </trkpt>
      <trkpt lat="47.33279" lon="-1.48442">
        <ele>54</ele>
        <time>2021-05-19T15:42:18.000Z</time>
      </trkpt>
      <trkpt lat="47.33285" lon="-1.48458">
        <ele>54</ele>
        <time>2021-05-19T15:42:20.000Z</time>
      </trkpt>
      <trkpt lat="47.33292" lon="-1.48472">
        <ele>54</ele>
        <time>2021-05-19T15:42:22.000Z</time>
      </trkpt>
      <trkpt lat="47.33299" lon="-1.48489">
        <ele>54</ele>
        <time>2021-05-19T15:42:24.000Z</time>
      </trkpt>
      <trkpt lat="47.33306" lon="-1.48505">
        <ele>54</ele>
        <time>2021-05-19T15:42:26.000Z</time>
      </trkpt>
      <trkpt lat="47.33312" lon="-1.48521">
        <ele>53</ele>
        <time>2021-05-19T15:42:28.000Z</time>
      </trkpt>
      <trkpt lat="47.33319" lon="-1.48539">
        <ele>53</ele>
        <time>2021-05-19T15:42:30.000Z</time>
      </trkpt>
      <trkpt lat="47.33326" lon="-1.48556">
        <ele>53</ele>
        <time>2021-05-19T15:42:32.000Z</time>
      </trkpt>
      <trkpt lat="47.33333" lon="-1.4857">
        <ele>53</ele>
        <time>2021-05-19T15:42:34.000Z</time>
      </trkpt>
      <trkpt lat="47.33341" lon="-1.48581">
        <ele>53</ele>
        <time>2021-05-19T15:42:36.000Z</time>
      </trkpt>
      <trkpt lat="47.33351" lon="-1.48596">
        <ele>53</ele>
        <time>2021-05-19T15:42:38.000Z</time>
      </trkpt>
      <trkpt lat="47.33361" lon="-1.48611">
        <ele>53</ele>
        <time>2021-05-19T15:42:40.000Z</time>
      </trkpt>
      <trkpt lat="47.33369" lon="-1.48628">
        <ele>53</ele>
        <time>2021-05-19T15:42:42.000Z</time>
      </trkpt>
      <trkpt lat="47.33376" lon="-1.48646">
        <ele>53</ele>
        <time>2021-05-19T15:42:44.000Z</time>
      </trkpt>
      <trkpt lat="47.3338" lon="-1.48664">
        <ele>53</ele>
        <time>2021-05-19T15:42:46.000Z</time>
      </trkpt>
      <trkpt lat="47.33382" lon="-1.4868">
        <ele>54</ele>
        <time>2021-05-19T15:42:48.000Z</time>
      </trkpt>
      <trkpt lat="47.33384" lon="-1.48696">
        <ele>54</ele>
        <time>2021-05-19T15:42:50.000Z</time>
      </trkpt>
      <trkpt lat="47.33385" lon="-1.48711">
        <ele>54</ele>
        <time>2021-05-19T15:42:52.000Z</time>
      </trkpt>
      <trkpt lat="47.33386" lon="-1.48728">
        <ele>55</ele>
        <time>2021-05-19T15:42:54.000Z</time>
      </trkpt>
      <trkpt lat="47.33388" lon="-1.48744">
        <ele>55</ele>
        <time>2021-05-19T15:42:56.000Z</time>
      </trkpt>
      <trkpt lat="47.33391" lon="-1.48762">
        <ele>55</ele>
        <time>2021-05-19T15:42:58.000Z</time>
      </trkpt>
      <trkpt lat="47.33394" lon="-1.4878">
        <ele>55</ele>
        <time>2021-05-19T15:43:00.000Z</time>
      </trkpt>
      <trkpt lat="47.33395" lon="-1.48798">
        <ele>55</ele>
        <time>2021-05-19T15:43:02.000Z</time>
      </trkpt>
      <trkpt lat="47.33396" lon="-1.48816">
        <ele>55</ele>
        <time>2021-05-19T15:43:04.000Z</time>
      </trkpt>
      <trkpt lat="47.33397" lon="-1.48832">
        <ele>56</ele>
        <time>2021-05-19T15:43:06.000Z</time>
      </trkpt>
      <trkpt lat="47.33398" lon="-1.48849">
        <ele>56</ele>
        <time>2021-05-19T15:43:08.000Z</time>
      </trkpt>
      <trkpt lat="47.334" lon="-1.48865">
        <ele>55</ele>
        <time>2021-05-19T15:43:10.000Z</time>
      </trkpt>
      <trkpt lat="47.33401" lon="-1.48882">
        <ele>55</ele>
        <time>2021-05-19T15:43:12.000Z</time>
      </trkpt>
      <trkpt lat="47.33402" lon="-1.489">
        <ele>55</ele>
        <time>2021-05-19T15:43:14.000Z</time>
      </trkpt>
      <trkpt lat="47.33404" lon="-1.48918">
        <ele>54</ele>
        <time>2021-05-19T15:43:16.000Z</time>
      </trkpt>
      <trkpt lat="47.33405" lon="-1.48937">
        <ele>55</ele>
        <time>2021-05-19T15:43:18.000Z</time>
      </trkpt>
      <trkpt lat="47.33406" lon="-1.48956">
        <ele>55</ele>
        <time>2021-05-19T15:43:20.000Z</time>
      </trkpt>
      <trkpt lat="47.33408" lon="-1.48974">
        <ele>55</ele>
        <time>2021-05-19T15:43:22.000Z</time>
      </trkpt>
      <trkpt lat="47.3341" lon="-1.48992">
        <ele>55</ele>
        <time>2021-05-19T15:43:24.000Z</time>
      </trkpt>
      <trkpt lat="47.33412" lon="-1.4901">
        <ele>55</ele>
        <time>2021-05-19T15:43:26.000Z</time>
      </trkpt>
      <trkpt lat="47.33416" lon="-1.49028">
        <ele>55</ele>
        <time>2021-05-19T15:43:28.000Z</time>
      </trkpt>
      <trkpt lat="47.33421" lon="-1.49044">
        <ele>56</ele>
        <time>2021-05-19T15:43:30.000Z</time>
      </trkpt>
      <trkpt lat="47.33427" lon="-1.49061">
        <ele>56</ele>
        <time>2021-05-19T15:43:32.000Z</time>
      </trkpt>
      <trkpt lat="47.33435" lon="-1.49075">
        <ele>56</ele>
        <time>2021-05-19T15:43:34.000Z</time>
      </trkpt>
      <trkpt lat="47.33442" lon="-1.4909">
        <ele>55</ele>
        <time>2021-05-19T15:43:36.000Z</time>
      </trkpt>
      <trkpt lat="47.33449" lon="-1.49104">
        <ele>55</ele>
        <time>2021-05-19T15:43:38.000Z</time>
      </trkpt>
      <trkpt lat="47.33457" lon="-1.4912">
        <ele>56</ele>
        <time>2021-05-19T15:43:40.000Z</time>
      </trkpt>
      <trkpt lat="47.33464" lon="-1.49135">
        <ele>55</ele>
        <time>2021-05-19T15:43:42.000Z</time>
      </trkpt>
      <trkpt lat="47.33471" lon="-1.49151">
        <ele>55</ele>
        <time>2021-05-19T15:43:44.000Z</time>
      </trkpt>
      <trkpt lat="47.33479" lon="-1.49165">
        <ele>55</ele>
        <time>2021-05-19T15:43:46.000Z</time>
      </trkpt>
      <trkpt lat="47.33486" lon="-1.4918">
        <ele>55</ele>
        <time>2021-05-19T15:43:48.000Z</time>
      </trkpt>
      <trkpt lat="47.33493" lon="-1.49195">
        <ele>55</ele>
        <time>2021-05-19T15:43:50.000Z</time>
      </trkpt>
      <trkpt lat="47.335" lon="-1.4921">
        <ele>55</ele>
        <time>2021-05-19T15:43:52.000Z</time>
      </trkpt>
      <trkpt lat="47.33507" lon="-1.49225">
        <ele>55</ele>
        <time>2021-05-19T15:43:54.000Z</time>
      </trkpt>
      <trkpt lat="47.33514" lon="-1.4924">
        <ele>55</ele>
        <time>2021-05-19T15:43:56.000Z</time>
      </trkpt>
      <trkpt lat="47.3352" lon="-1.49255">
        <ele>55</ele>
        <time>2021-05-19T15:43:58.000Z</time>
      </trkpt>
      <trkpt lat="47.33528" lon="-1.4927">
        <ele>55</ele>
        <time>2021-05-19T15:44:00.000Z</time>
      </trkpt>
      <trkpt lat="47.33535" lon="-1.49285">
        <ele>55</ele>
        <time>2021-05-19T15:44:02.000Z</time>
      </trkpt>
      <trkpt lat="47.33542" lon="-1.49299">
        <ele>55</ele>
        <time>2021-05-19T15:44:04.000Z</time>
      </trkpt>
      <trkpt lat="47.33549" lon="-1.49313">
        <ele>55</ele>
        <time>2021-05-19T15:44:06.000Z</time>
      </trkpt>
      <trkpt lat="47.33556" lon="-1.49326">
        <ele>55</ele>
        <time>2021-05-19T15:44:08.000Z</time>
      </trkpt>
      <trkpt lat="47.33568" lon="-1.49329">
        <ele>54</ele>
        <time>2021-05-19T15:44:10.000Z</time>
      </trkpt>
      <trkpt lat="47.33577" lon="-1.49316">
        <ele>55</ele>
        <time>2021-05-19T15:44:12.000Z</time>
      </trkpt>
      <trkpt lat="47.33587" lon="-1.49301">
        <ele>55</ele>
        <time>2021-05-19T15:44:14.000Z</time>
      </trkpt>
      <trkpt lat="47.33597" lon="-1.49287">
        <ele>54</ele>
        <time>2021-05-19T15:44:16.000Z</time>
      </trkpt>
      <trkpt lat="47.33608" lon="-1.49274">
        <ele>53</ele>
        <time>2021-05-19T15:44:18.000Z</time>
      </trkpt>
      <trkpt lat="47.33619" lon="-1.49261">
        <ele>53</ele>
        <time>2021-05-19T15:44:20.000Z</time>
      </trkpt>
      <trkpt lat="47.33629" lon="-1.49248">
        <ele>53</ele>
        <time>2021-05-19T15:44:22.000Z</time>
      </trkpt>
      <trkpt lat="47.33639" lon="-1.49236">
        <ele>53</ele>
        <time>2021-05-19T15:44:24.000Z</time>
      </trkpt>
      <trkpt lat="47.33648" lon="-1.49224">
        <ele>53</ele>
        <time>2021-05-19T15:44:26.000Z</time>
      </trkpt>
      <trkpt lat="47.33657" lon="-1.49213">
        <ele>53</ele>
        <time>2021-05-19T15:44:28.000Z</time>
      </trkpt>
      <trkpt lat="47.33667" lon="-1.49202">
        <ele>53</ele>
        <time>2021-05-19T15:44:30.000Z</time>
      </trkpt>
      <trkpt lat="47.33676" lon="-1.4919">
        <ele>54</ele>
        <time>2021-05-19T15:44:32.000Z</time>
      </trkpt>
      <trkpt lat="47.33685" lon="-1.49178">
        <ele>54</ele>
        <time>2021-05-19T15:44:34.000Z</time>
      </trkpt>
      <trkpt lat="47.33692" lon="-1.49164">
        <ele>54</ele>
        <time>2021-05-19T15:44:36.000Z</time>
      </trkpt>
      <trkpt lat="47.33697" lon="-1.49149">
        <ele>54</ele>
        <time>2021-05-19T15:44:38.000Z</time>
      </trkpt>
      <trkpt lat="47.337" lon="-1.49132">
        <ele>54</ele>
        <time>2021-05-19T15:44:40.000Z</time>
      </trkpt>
      <trkpt lat="47.33701" lon="-1.49113">
        <ele>55</ele>
        <time>2021-05-19T15:44:42.000Z</time>
      </trkpt>
      <trkpt lat="47.33704" lon="-1.49096">
        <ele>57</ele>
        <time>2021-05-19T15:44:44.000Z</time>
      </trkpt>
      <trkpt lat="47.33709" lon="-1.4908">
        <ele>58</ele>
        <time>2021-05-19T15:44:46.000Z</time>
      </trkpt>
      <trkpt lat="47.33717" lon="-1.49068">
        <ele>59</ele>
        <time>2021-05-19T15:44:48.000Z</time>
      </trkpt>
      <trkpt lat="47.33726" lon="-1.49057">
        <ele>60</ele>
        <time>2021-05-19T15:44:50.000Z</time>
      </trkpt>
      <trkpt lat="47.33736" lon="-1.49045">
        <ele>60</ele>
        <time>2021-05-19T15:44:52.000Z</time>
      </trkpt>
      <trkpt lat="47.33746" lon="-1.49034">
        <ele>60</ele>
        <time>2021-05-19T15:44:54.000Z</time>
      </trkpt>
      <trkpt lat="47.33755" lon="-1.49023">
        <ele>61</ele>
        <time>2021-05-19T15:44:56.000Z</time>
      </trkpt>
      <trkpt lat="47.33764" lon="-1.49013">
        <ele>61</ele>
        <time>2021-05-19T15:44:58.000Z</time>
      </trkpt>
      <trkpt lat="47.33773" lon="-1.49003">
        <ele>61</ele>
        <time>2021-05-19T15:45:00.000Z</time>
      </trkpt>
      <trkpt lat="47.33783" lon="-1.48992">
        <ele>61</ele>
        <time>2021-05-19T15:45:02.000Z</time>
      </trkpt>
      <trkpt lat="47.33792" lon="-1.48981">
        <ele>61</ele>
        <time>2021-05-19T15:45:04.000Z</time>
      </trkpt>
      <trkpt lat="47.33801" lon="-1.48968">
        <ele>61</ele>
        <time>2021-05-19T15:45:06.000Z</time>
      </trkpt>
      <trkpt lat="47.3381" lon="-1.48955">
        <ele>61</ele>
        <time>2021-05-19T15:45:08.000Z</time>
      </trkpt>
      <trkpt lat="47.33819" lon="-1.48941">
        <ele>60</ele>
        <time>2021-05-19T15:45:10.000Z</time>
      </trkpt>
      <trkpt lat="47.33829" lon="-1.48926">
        <ele>60</ele>
        <time>2021-05-19T15:45:12.000Z</time>
      </trkpt>
      <trkpt lat="47.33838" lon="-1.4891">
        <ele>59</ele>
        <time>2021-05-19T15:45:14.000Z</time>
      </trkpt>
      <trkpt lat="47.33848" lon="-1.48894">
        <ele>59</ele>
        <time>2021-05-19T15:45:16.000Z</time>
      </trkpt>
      <trkpt lat="47.33858" lon="-1.48879">
        <ele>59</ele>
        <time>2021-05-19T15:45:18.000Z</time>
      </trkpt>
      <trkpt lat="47.33868" lon="-1.48863">
        <ele>58</ele>
        <time>2021-05-19T15:45:20.000Z</time>
      </trkpt>
      <trkpt lat="47.33878" lon="-1.48847">
        <ele>58</ele>
        <time>2021-05-19T15:45:22.000Z</time>
      </trkpt>
      <trkpt lat="47.33889" lon="-1.48831">
        <ele>58</ele>
        <time>2021-05-19T15:45:24.000Z</time>
      </trkpt>
      <trkpt lat="47.33899" lon="-1.48815">
        <ele>57</ele>
        <time>2021-05-19T15:45:26.000Z</time>
      </trkpt>
      <trkpt lat="47.33909" lon="-1.48799">
        <ele>57</ele>
        <time>2021-05-19T15:45:28.000Z</time>
      </trkpt>
      <trkpt lat="47.3392" lon="-1.48782">
        <ele>56</ele>
        <time>2021-05-19T15:45:30.000Z</time>
      </trkpt>
      <trkpt lat="47.3393" lon="-1.48764">
        <ele>55</ele>
        <time>2021-05-19T15:45:32.000Z</time>
      </trkpt>
      <trkpt lat="47.33941" lon="-1.48748">
        <ele>55</ele>
        <time>2021-05-19T15:45:34.000Z</time>
      </trkpt>
      <trkpt lat="47.33951" lon="-1.48731">
        <ele>55</ele>
        <time>2021-05-19T15:45:36.000Z</time>
      </trkpt>
      <trkpt lat="47.33962" lon="-1.48715">
        <ele>54</ele>
        <time>2021-05-19T15:45:38.000Z</time>
      </trkpt>
      <trkpt lat="47.33973" lon="-1.48698">
        <ele>54</ele>
        <time>2021-05-19T15:45:40.000Z</time>
      </trkpt>
      <trkpt lat="47.33983" lon="-1.4868">
        <ele>53</ele>
        <time>2021-05-19T15:45:42.000Z</time>
      </trkpt>
      <trkpt lat="47.33993" lon="-1.48663">
        <ele>53</ele>
        <time>2021-05-19T15:45:44.000Z</time>
      </trkpt>
      <trkpt lat="47.34003" lon="-1.48646">
        <ele>53</ele>
        <time>2021-05-19T15:45:46.000Z</time>
      </trkpt>
      <trkpt lat="47.34013" lon="-1.48629">
        <ele>53</ele>
        <time>2021-05-19T15:45:48.000Z</time>
      </trkpt>
      <trkpt lat="47.34022" lon="-1.48612">
        <ele>53</ele>
        <time>2021-05-19T15:45:50.000Z</time>
      </trkpt>
      <trkpt lat="47.34032" lon="-1.48595">
        <ele>53</ele>
        <time>2021-05-19T15:45:52.000Z</time>
      </trkpt>
      <trkpt lat="47.34041" lon="-1.48578">
        <ele>53</ele>
        <time>2021-05-19T15:45:54.000Z</time>
      </trkpt>
      <trkpt lat="47.3405" lon="-1.4856">
        <ele>53</ele>
        <time>2021-05-19T15:45:56.000Z</time>
      </trkpt>
      <trkpt lat="47.34058" lon="-1.48543">
        <ele>54</ele>
        <time>2021-05-19T15:45:58.000Z</time>
      </trkpt>
      <trkpt lat="47.34066" lon="-1.48525">
        <ele>54</ele>
        <time>2021-05-19T15:46:00.000Z</time>
      </trkpt>
      <trkpt lat="47.34074" lon="-1.48508">
        <ele>54</ele>
        <time>2021-05-19T15:46:02.000Z</time>
      </trkpt>
      <trkpt lat="47.34082" lon="-1.48491">
        <ele>53</ele>
        <time>2021-05-19T15:46:04.000Z</time>
      </trkpt>
      <trkpt lat="47.34091" lon="-1.48474">
        <ele>53</ele>
        <time>2021-05-19T15:46:06.000Z</time>
      </trkpt>
      <trkpt lat="47.34099" lon="-1.48457">
        <ele>53</ele>
        <time>2021-05-19T15:46:08.000Z</time>
      </trkpt>
      <trkpt lat="47.34107" lon="-1.48441">
        <ele>53</ele>
        <time>2021-05-19T15:46:10.000Z</time>
      </trkpt>
      <trkpt lat="47.34115" lon="-1.48424">
        <ele>52</ele>
        <time>2021-05-19T15:46:12.000Z</time>
      </trkpt>
      <trkpt lat="47.34123" lon="-1.48408">
        <ele>52</ele>
        <time>2021-05-19T15:46:14.000Z</time>
      </trkpt>
      <trkpt lat="47.34131" lon="-1.4839">
        <ele>53</ele>
        <time>2021-05-19T15:46:16.000Z</time>
      </trkpt>
      <trkpt lat="47.3414" lon="-1.48373">
        <ele>53</ele>
        <time>2021-05-19T15:46:18.000Z</time>
      </trkpt>
      <trkpt lat="47.34148" lon="-1.48357">
        <ele>53</ele>
        <time>2021-05-19T15:46:20.000Z</time>
      </trkpt>
      <trkpt lat="47.34156" lon="-1.4834">
        <ele>53</ele>
        <time>2021-05-19T15:46:22.000Z</time>
      </trkpt>
      <trkpt lat="47.34164" lon="-1.48323">
        <ele>52</ele>
        <time>2021-05-19T15:46:24.000Z</time>
      </trkpt>
      <trkpt lat="47.34172" lon="-1.48307">
        <ele>52</ele>
        <time>2021-05-19T15:46:26.000Z</time>
      </trkpt>
      <trkpt lat="47.3418" lon="-1.48289">
        <ele>52</ele>
        <time>2021-05-19T15:46:28.000Z</time>
      </trkpt>
      <trkpt lat="47.34188" lon="-1.48272">
        <ele>52</ele>
        <time>2021-05-19T15:46:30.000Z</time>
      </trkpt>
      <trkpt lat="47.34197" lon="-1.48256">
        <ele>52</ele>
        <time>2021-05-19T15:46:32.000Z</time>
      </trkpt>
      <trkpt lat="47.34207" lon="-1.4824">
        <ele>52</ele>
        <time>2021-05-19T15:46:34.000Z</time>
      </trkpt>
      <trkpt lat="47.34217" lon="-1.48224">
        <ele>52</ele>
        <time>2021-05-19T15:46:36.000Z</time>
      </trkpt>
      <trkpt lat="47.34226" lon="-1.48208">
        <ele>52</ele>
        <time>2021-05-19T15:46:38.000Z</time>
      </trkpt>
      <trkpt lat="47.34236" lon="-1.48193">
        <ele>51</ele>
        <time>2021-05-19T15:46:40.000Z</time>
      </trkpt>
      <trkpt lat="47.34245" lon="-1.48177">
        <ele>51</ele>
        <time>2021-05-19T15:46:42.000Z</time>
      </trkpt>
      <trkpt lat="47.34255" lon="-1.48162">
        <ele>52</ele>
        <time>2021-05-19T15:46:44.000Z</time>
      </trkpt>
      <trkpt lat="47.34264" lon="-1.48147">
        <ele>52</ele>
        <time>2021-05-19T15:46:46.000Z</time>
      </trkpt>
      <trkpt lat="47.34274" lon="-1.48132">
        <ele>52</ele>
        <time>2021-05-19T15:46:48.000Z</time>
      </trkpt>
      <trkpt lat="47.34283" lon="-1.48117">
        <ele>52</ele>
        <time>2021-05-19T15:46:50.000Z</time>
      </trkpt>
      <trkpt lat="47.34292" lon="-1.48102">
        <ele>52</ele>
        <time>2021-05-19T15:46:52.000Z</time>
      </trkpt>
      <trkpt lat="47.34301" lon="-1.48087">
        <ele>52</ele>
        <time>2021-05-19T15:46:54.000Z</time>
      </trkpt>
      <trkpt lat="47.3431" lon="-1.48071">
        <ele>51</ele>
        <time>2021-05-19T15:46:56.000Z</time>
      </trkpt>
      <trkpt lat="47.3432" lon="-1.48056">
        <ele>51</ele>
        <time>2021-05-19T15:46:58.000Z</time>
      </trkpt>
      <trkpt lat="47.34329" lon="-1.48041">
        <ele>51</ele>
        <time>2021-05-19T15:47:00.000Z</time>
      </trkpt>
      <trkpt lat="47.34339" lon="-1.48025">
        <ele>51</ele>
        <time>2021-05-19T15:47:02.000Z</time>
      </trkpt>
      <trkpt lat="47.34348" lon="-1.4801">
        <ele>51</ele>
        <time>2021-05-19T15:47:04.000Z</time>
      </trkpt>
      <trkpt lat="47.34358" lon="-1.47995">
        <ele>51</ele>
        <time>2021-05-19T15:47:06.000Z</time>
      </trkpt>
      <trkpt lat="47.34367" lon="-1.4798">
        <ele>51</ele>
        <time>2021-05-19T15:47:08.000Z</time>
      </trkpt>
      <trkpt lat="47.34377" lon="-1.47966">
        <ele>51</ele>
        <time>2021-05-19T15:47:10.000Z</time>
      </trkpt>
      <trkpt lat="47.34387" lon="-1.47951">
        <ele>51</ele>
        <time>2021-05-19T15:47:12.000Z</time>
      </trkpt>
      <trkpt lat="47.34397" lon="-1.47936">
        <ele>51</ele>
        <time>2021-05-19T15:47:14.000Z</time>
      </trkpt>
      <trkpt lat="47.34408" lon="-1.47921">
        <ele>52</ele>
        <time>2021-05-19T15:47:16.000Z</time>
      </trkpt>
      <trkpt lat="47.34418" lon="-1.47906">
        <ele>52</ele>
        <time>2021-05-19T15:47:18.000Z</time>
      </trkpt>
      <trkpt lat="47.34429" lon="-1.47893">
        <ele>53</ele>
        <time>2021-05-19T15:47:20.000Z</time>
      </trkpt>
      <trkpt lat="47.3444" lon="-1.47879">
        <ele>53</ele>
        <time>2021-05-19T15:47:22.000Z</time>
      </trkpt>
      <trkpt lat="47.34451" lon="-1.47866">
        <ele>54</ele>
        <time>2021-05-19T15:47:24.000Z</time>
      </trkpt>
      <trkpt lat="47.34463" lon="-1.47852">
        <ele>54</ele>
        <time>2021-05-19T15:47:26.000Z</time>
      </trkpt>
      <trkpt lat="47.34475" lon="-1.47838">
        <ele>54</ele>
        <time>2021-05-19T15:47:28.000Z</time>
      </trkpt>
      <trkpt lat="47.34487" lon="-1.47825">
        <ele>54</ele>
        <time>2021-05-19T15:47:30.000Z</time>
      </trkpt>
      <trkpt lat="47.34499" lon="-1.47811">
        <ele>54</ele>
        <time>2021-05-19T15:47:32.000Z</time>
      </trkpt>
      <trkpt lat="47.34511" lon="-1.47798">
        <ele>54</ele>
        <time>2021-05-19T15:47:34.000Z</time>
      </trkpt>
      <trkpt lat="47.34523" lon="-1.47784">
        <ele>54</ele>
        <time>2021-05-19T15:47:36.000Z</time>
      </trkpt>
      <trkpt lat="47.34535" lon="-1.4777">
        <ele>54</ele>
        <time>2021-05-19T15:47:38.000Z</time>
      </trkpt>
      <trkpt lat="47.34547" lon="-1.47757">
        <ele>54</ele>
        <time>2021-05-19T15:47:40.000Z</time>
      </trkpt>
      <trkpt lat="47.34559" lon="-1.47744">
        <ele>54</ele>
        <time>2021-05-19T15:47:42.000Z</time>
      </trkpt>
      <trkpt lat="47.34571" lon="-1.4773">
        <ele>54</ele>
        <time>2021-05-19T15:47:44.000Z</time>
      </trkpt>
      <trkpt lat="47.34582" lon="-1.47717">
        <ele>54</ele>
        <time>2021-05-19T15:47:46.000Z</time>
      </trkpt>
      <trkpt lat="47.34594" lon="-1.47704">
        <ele>54</ele>
        <time>2021-05-19T15:47:48.000Z</time>
      </trkpt>
      <trkpt lat="47.34606" lon="-1.47691">
        <ele>54</ele>
        <time>2021-05-19T15:47:50.000Z</time>
      </trkpt>
      <trkpt lat="47.34618" lon="-1.47678">
        <ele>55</ele>
        <time>2021-05-19T15:47:52.000Z</time>
      </trkpt>
      <trkpt lat="47.34629" lon="-1.47664">
        <ele>56</ele>
        <time>2021-05-19T15:47:54.000Z</time>
      </trkpt>
      <trkpt lat="47.3464" lon="-1.47652">
        <ele>56</ele>
        <time>2021-05-19T15:47:56.000Z</time>
      </trkpt>
      <trkpt lat="47.34652" lon="-1.47639">
        <ele>56</ele>
        <time>2021-05-19T15:47:58.000Z</time>
      </trkpt>
      <trkpt lat="47.34663" lon="-1.47627">
        <ele>56</ele>
        <time>2021-05-19T15:48:00.000Z</time>
      </trkpt>
      <trkpt lat="47.34675" lon="-1.47615">
        <ele>56</ele>
        <time>2021-05-19T15:48:02.000Z</time>
      </trkpt>
      <trkpt lat="47.34686" lon="-1.47602">
        <ele>56</ele>
        <time>2021-05-19T15:48:04.000Z</time>
      </trkpt>
      <trkpt lat="47.34697" lon="-1.4759">
        <ele>56</ele>
        <time>2021-05-19T15:48:06.000Z</time>
      </trkpt>
      <trkpt lat="47.34708" lon="-1.47577">
        <ele>56</ele>
        <time>2021-05-19T15:48:08.000Z</time>
      </trkpt>
      <trkpt lat="47.34719" lon="-1.47565">
        <ele>56</ele>
        <time>2021-05-19T15:48:10.000Z</time>
      </trkpt>
      <trkpt lat="47.3473" lon="-1.47553">
        <ele>55</ele>
        <time>2021-05-19T15:48:12.000Z</time>
      </trkpt>
      <trkpt lat="47.34741" lon="-1.4754">
        <ele>55</ele>
        <time>2021-05-19T15:48:14.000Z</time>
      </trkpt>
      <trkpt lat="47.34752" lon="-1.47527">
        <ele>55</ele>
        <time>2021-05-19T15:48:16.000Z</time>
      </trkpt>
      <trkpt lat="47.34762" lon="-1.47513">
        <ele>55</ele>
        <time>2021-05-19T15:48:18.000Z</time>
      </trkpt>
      <trkpt lat="47.34771" lon="-1.47498">
        <ele>54</ele>
        <time>2021-05-19T15:48:20.000Z</time>
      </trkpt>
      <trkpt lat="47.3478" lon="-1.47481">
        <ele>54</ele>
        <time>2021-05-19T15:48:22.000Z</time>
      </trkpt>
      <trkpt lat="47.34788" lon="-1.47464">
        <ele>54</ele>
        <time>2021-05-19T15:48:24.000Z</time>
      </trkpt>
      <trkpt lat="47.34795" lon="-1.47446">
        <ele>54</ele>
        <time>2021-05-19T15:48:26.000Z</time>
      </trkpt>
      <trkpt lat="47.34802" lon="-1.47428">
        <ele>53</ele>
        <time>2021-05-19T15:48:28.000Z</time>
      </trkpt>
      <trkpt lat="47.34809" lon="-1.47411">
        <ele>53</ele>
        <time>2021-05-19T15:48:30.000Z</time>
      </trkpt>
      <trkpt lat="47.34816" lon="-1.47393">
        <ele>53</ele>
        <time>2021-05-19T15:48:32.000Z</time>
      </trkpt>
      <trkpt lat="47.34823" lon="-1.47377">
        <ele>53</ele>
        <time>2021-05-19T15:48:34.000Z</time>
      </trkpt>
      <trkpt lat="47.34832" lon="-1.47361">
        <ele>54</ele>
        <time>2021-05-19T15:48:36.000Z</time>
      </trkpt>
      <trkpt lat="47.34841" lon="-1.47346">
        <ele>54</ele>
        <time>2021-05-19T15:48:38.000Z</time>
      </trkpt>
      <trkpt lat="47.34852" lon="-1.47334">
        <ele>54</ele>
        <time>2021-05-19T15:48:40.000Z</time>
      </trkpt>
      <trkpt lat="47.34864" lon="-1.47323">
        <ele>54</ele>
        <time>2021-05-19T15:48:42.000Z</time>
      </trkpt>
      <trkpt lat="47.34876" lon="-1.47312">
        <ele>55</ele>
        <time>2021-05-19T15:48:44.000Z</time>
      </trkpt>
      <trkpt lat="47.34888" lon="-1.47303">
        <ele>54</ele>
        <time>2021-05-19T15:48:46.000Z</time>
      </trkpt>
      <trkpt lat="47.349" lon="-1.47294">
        <ele>54</ele>
        <time>2021-05-19T15:48:48.000Z</time>
      </trkpt>
      <trkpt lat="47.34912" lon="-1.47286">
        <ele>55</ele>
        <time>2021-05-19T15:48:50.000Z</time>
      </trkpt>
      <trkpt lat="47.34923" lon="-1.47279">
        <ele>56</ele>
        <time>2021-05-19T15:48:52.000Z</time>
      </trkpt>
      <trkpt lat="47.34935" lon="-1.47272">
        <ele>56</ele>
        <time>2021-05-19T15:48:54.000Z</time>
      </trkpt>
      <trkpt lat="47.34946" lon="-1.47264">
        <ele>56</ele>
        <time>2021-05-19T15:48:56.000Z</time>
      </trkpt>
      <trkpt lat="47.34958" lon="-1.47258">
        <ele>57</ele>
        <time>2021-05-19T15:48:58.000Z</time>
      </trkpt>
      <trkpt lat="47.3497" lon="-1.47253">
        <ele>57</ele>
        <time>2021-05-19T15:49:00.000Z</time>
      </trkpt>
      <trkpt lat="47.34981" lon="-1.47248">
        <ele>58</ele>
        <time>2021-05-19T15:49:02.000Z</time>
      </trkpt>
      <trkpt lat="47.34992" lon="-1.4724">
        <ele>58</ele>
        <time>2021-05-19T15:49:04.000Z</time>
      </trkpt>
      <trkpt lat="47.35001" lon="-1.4723">
        <ele>58</ele>
        <time>2021-05-19T15:49:06.000Z</time>
      </trkpt>
      <trkpt lat="47.35011" lon="-1.4722">
        <ele>58</ele>
        <time>2021-05-19T15:49:08.000Z</time>
      </trkpt>
      <trkpt lat="47.35022" lon="-1.47212">
        <ele>58</ele>
        <time>2021-05-19T15:49:10.000Z</time>
      </trkpt>
      <trkpt lat="47.35034" lon="-1.47212">
        <ele>59</ele>
        <time>2021-05-19T15:49:12.000Z</time>
      </trkpt>
      <trkpt lat="47.35046" lon="-1.47216">
        <ele>60</ele>
        <time>2021-05-19T15:49:14.000Z</time>
      </trkpt>
      <trkpt lat="47.35059" lon="-1.47222">
        <ele>59</ele>
        <time>2021-05-19T15:49:16.000Z</time>
      </trkpt>
      <trkpt lat="47.35071" lon="-1.47227">
        <ele>59</ele>
        <time>2021-05-19T15:49:18.000Z</time>
      </trkpt>
      <trkpt lat="47.35084" lon="-1.4723">
        <ele>59</ele>
        <time>2021-05-19T15:49:20.000Z</time>
      </trkpt>
      <trkpt lat="47.35097" lon="-1.47234">
        <ele>58</ele>
        <time>2021-05-19T15:49:22.000Z</time>
      </trkpt>
      <trkpt lat="47.3511" lon="-1.47237">
        <ele>58</ele>
        <time>2021-05-19T15:49:24.000Z</time>
      </trkpt>
      <trkpt lat="47.35124" lon="-1.4724">
        <ele>58</ele>
        <time>2021-05-19T15:49:26.000Z</time>
      </trkpt>
      <trkpt lat="47.35137" lon="-1.47242">
        <ele>58</ele>
        <time>2021-05-19T15:49:28.000Z</time>
      </trkpt>
      <trkpt lat="47.35149" lon="-1.47243">
        <ele>58</ele>
        <time>2021-05-19T15:49:30.000Z</time>
      </trkpt>
      <trkpt lat="47.35163" lon="-1.47242">
        <ele>58</ele>
        <time>2021-05-19T15:49:32.000Z</time>
      </trkpt>
      <trkpt lat="47.35176" lon="-1.47239">
        <ele>58</ele>
        <time>2021-05-19T15:49:34.000Z</time>
      </trkpt>
      <trkpt lat="47.35188" lon="-1.47234">
        <ele>58</ele>
        <time>2021-05-19T15:49:36.000Z</time>
      </trkpt>
      <trkpt lat="47.352" lon="-1.47231">
        <ele>58</ele>
        <time>2021-05-19T15:49:38.000Z</time>
      </trkpt>
      <trkpt lat="47.35213" lon="-1.47236">
        <ele>59</ele>
        <time>2021-05-19T15:49:40.000Z</time>
      </trkpt>
      <trkpt lat="47.35223" lon="-1.47246">
        <ele>58</ele>
        <time>2021-05-19T15:49:42.000Z</time>
      </trkpt>
      <trkpt lat="47.35232" lon="-1.47259">
        <ele>59</ele>
        <time>2021-05-19T15:49:44.000Z</time>
      </trkpt>
      <trkpt lat="47.35239" lon="-1.47274">
        <ele>59</ele>
        <time>2021-05-19T15:49:46.000Z</time>
      </trkpt>
      <trkpt lat="47.35246" lon="-1.47289">
        <ele>58</ele>
        <time>2021-05-19T15:49:48.000Z</time>
      </trkpt>
      <trkpt lat="47.35254" lon="-1.473">
        <ele>58</ele>
        <time>2021-05-19T15:49:50.000Z</time>
      </trkpt>
      <trkpt lat="47.35265" lon="-1.47295">
        <ele>58</ele>
        <time>2021-05-19T15:49:52.000Z</time>
      </trkpt>
      <trkpt lat="47.35276" lon="-1.47287">
        <ele>58</ele>
        <time>2021-05-19T15:49:54.000Z</time>
      </trkpt>
      <trkpt lat="47.35289" lon="-1.47282">
        <ele>58</ele>
        <time>2021-05-19T15:49:56.000Z</time>
      </trkpt>
      <trkpt lat="47.35301" lon="-1.4728">
        <ele>58</ele>
        <time>2021-05-19T15:49:58.000Z</time>
      </trkpt>
      <trkpt lat="47.35313" lon="-1.47279">
        <ele>58</ele>
        <time>2021-05-19T15:50:00.000Z</time>
      </trkpt>
      <trkpt lat="47.35325" lon="-1.47278">
        <ele>59</ele>
        <time>2021-05-19T15:50:02.000Z</time>
      </trkpt>
      <trkpt lat="47.35335" lon="-1.47277">
        <ele>59</ele>
        <time>2021-05-19T15:50:04.000Z</time>
      </trkpt>
      <trkpt lat="47.35345" lon="-1.47276">
        <ele>59</ele>
        <time>2021-05-19T15:50:06.000Z</time>
      </trkpt>
      <trkpt lat="47.35355" lon="-1.47275">
        <ele>59</ele>
        <time>2021-05-19T15:50:08.000Z</time>
      </trkpt>
      <trkpt lat="47.35364" lon="-1.47274">
        <ele>59</ele>
        <time>2021-05-19T15:50:10.000Z</time>
      </trkpt>
      <trkpt lat="47.35373" lon="-1.4727">
        <ele>59</ele>
        <time>2021-05-19T15:50:12.000Z</time>
      </trkpt>
      <trkpt lat="47.35382" lon="-1.47264">
        <ele>60</ele>
        <time>2021-05-19T15:50:14.000Z</time>
      </trkpt>
      <trkpt lat="47.3539" lon="-1.47257">
        <ele>60</ele>
        <time>2021-05-19T15:50:16.000Z</time>
      </trkpt>
      <trkpt lat="47.35398" lon="-1.4725">
        <ele>61</ele>
        <time>2021-05-19T15:50:18.000Z</time>
      </trkpt>
      <trkpt lat="47.35407" lon="-1.47242">
        <ele>62</ele>
        <time>2021-05-19T15:50:20.000Z</time>
      </trkpt>
      <trkpt lat="47.35415" lon="-1.47235">
        <ele>62</ele>
        <time>2021-05-19T15:50:22.000Z</time>
      </trkpt>
      <trkpt lat="47.35424" lon="-1.47227">
        <ele>62</ele>
        <time>2021-05-19T15:50:24.000Z</time>
      </trkpt>
      <trkpt lat="47.35433" lon="-1.4722">
        <ele>63</ele>
        <time>2021-05-19T15:50:26.000Z</time>
      </trkpt>
      <trkpt lat="47.35442" lon="-1.47212">
        <ele>63</ele>
        <time>2021-05-19T15:50:28.000Z</time>
      </trkpt>
      <trkpt lat="47.35451" lon="-1.47204">
        <ele>63</ele>
        <time>2021-05-19T15:50:30.000Z</time>
      </trkpt>
      <trkpt lat="47.3546" lon="-1.47197">
        <ele>64</ele>
        <time>2021-05-19T15:50:32.000Z</time>
      </trkpt>
      <trkpt lat="47.35469" lon="-1.47189">
        <ele>64</ele>
        <time>2021-05-19T15:50:34.000Z</time>
      </trkpt>
      <trkpt lat="47.35478" lon="-1.47181">
        <ele>65</ele>
        <time>2021-05-19T15:50:36.000Z</time>
      </trkpt>
      <trkpt lat="47.35486" lon="-1.47174">
        <ele>65</ele>
        <time>2021-05-19T15:50:38.000Z</time>
      </trkpt>
      <trkpt lat="47.35495" lon="-1.47166">
        <ele>65</ele>
        <time>2021-05-19T15:50:40.000Z</time>
      </trkpt>
      <trkpt lat="47.35504" lon="-1.47157">
        <ele>66</ele>
        <time>2021-05-19T15:50:42.000Z</time>
      </trkpt>
      <trkpt lat="47.35514" lon="-1.47149">
        <ele>66</ele>
        <time>2021-05-19T15:50:44.000Z</time>
      </trkpt>
      <trkpt lat="47.35524" lon="-1.47141">
        <ele>65</ele>
        <time>2021-05-19T15:50:46.000Z</time>
      </trkpt>
      <trkpt lat="47.35534" lon="-1.47132">
        <ele>65</ele>
        <time>2021-05-19T15:50:48.000Z</time>
      </trkpt>
      <trkpt lat="47.35545" lon="-1.47122">
        <ele>63</ele>
        <time>2021-05-19T15:50:50.000Z</time>
      </trkpt>
      <trkpt lat="47.35557" lon="-1.47113">
        <ele>64</ele>
        <time>2021-05-19T15:50:52.000Z</time>
      </trkpt>
      <trkpt lat="47.35568" lon="-1.47104">
        <ele>65</ele>
        <time>2021-05-19T15:50:54.000Z</time>
      </trkpt>
      <trkpt lat="47.35578" lon="-1.47096">
        <ele>66</ele>
        <time>2021-05-19T15:50:56.000Z</time>
      </trkpt>
      <trkpt lat="47.35588" lon="-1.47087">
        <ele>67</ele>
        <time>2021-05-19T15:50:58.000Z</time>
      </trkpt>
      <trkpt lat="47.35598" lon="-1.47078">
        <ele>67</ele>
        <time>2021-05-19T15:51:00.000Z</time>
      </trkpt>
      <trkpt lat="47.35608" lon="-1.47069">
        <ele>66</ele>
        <time>2021-05-19T15:51:02.000Z</time>
      </trkpt>
      <trkpt lat="47.35619" lon="-1.47058">
        <ele>66</ele>
        <time>2021-05-19T15:51:04.000Z</time>
      </trkpt>
      <trkpt lat="47.35633" lon="-1.47047">
        <ele>64</ele>
        <time>2021-05-19T15:51:06.000Z</time>
      </trkpt>
      <trkpt lat="47.35648" lon="-1.47034">
        <ele>62</ele>
        <time>2021-05-19T15:51:08.000Z</time>
      </trkpt>
      <trkpt lat="47.35656" lon="-1.47027">
        <ele>61</ele>
        <time>2021-05-19T15:51:09.000Z</time>
      </trkpt>
      <trkpt lat="47.35665" lon="-1.4702">
        <ele>60</ele>
        <time>2021-05-19T15:51:10.000Z</time>
      </trkpt>
      <trkpt lat="47.35674" lon="-1.47013">
        <ele>60</ele>
        <time>2021-05-19T15:51:11.000Z</time>
      </trkpt>
      <trkpt lat="47.35683" lon="-1.47005">
        <ele>58</ele>
        <time>2021-05-19T15:51:12.000Z</time>
      </trkpt>
      <trkpt lat="47.35692" lon="-1.46997">
        <ele>57</ele>
        <time>2021-05-19T15:51:13.000Z</time>
      </trkpt>
      <trkpt lat="47.35702" lon="-1.46988">
        <ele>56</ele>
        <time>2021-05-19T15:51:14.000Z</time>
      </trkpt>
      <trkpt lat="47.35711" lon="-1.46979">
        <ele>55</ele>
        <time>2021-05-19T15:51:15.000Z</time>
      </trkpt>
      <trkpt lat="47.35719" lon="-1.46971">
        <ele>54</ele>
        <time>2021-05-19T15:51:16.000Z</time>
      </trkpt>
      <trkpt lat="47.35733" lon="-1.46958">
        <ele>53</ele>
        <time>2021-05-19T15:51:18.000Z</time>
      </trkpt>
      <trkpt lat="47.35744" lon="-1.46947">
        <ele>53</ele>
        <time>2021-05-19T15:51:20.000Z</time>
      </trkpt>
      <trkpt lat="47.35746" lon="-1.46929">
        <ele>53</ele>
        <time>2021-05-19T15:51:23.000Z</time>
      </trkpt>
      <trkpt lat="47.35743" lon="-1.4691">
        <ele>52</ele>
        <time>2021-05-19T15:51:25.000Z</time>
      </trkpt>
      <trkpt lat="47.35739" lon="-1.46887">
        <ele>53</ele>
        <time>2021-05-19T15:51:27.000Z</time>
      </trkpt>
      <trkpt lat="47.35737" lon="-1.46862">
        <ele>53</ele>
        <time>2021-05-19T15:51:29.000Z</time>
      </trkpt>
      <trkpt lat="47.35734" lon="-1.46841">
        <ele>53</ele>
        <time>2021-05-19T15:51:31.000Z</time>
      </trkpt>
      <trkpt lat="47.35733" lon="-1.46818">
        <ele>52</ele>
        <time>2021-05-19T15:51:33.000Z</time>
      </trkpt>
      <trkpt lat="47.35733" lon="-1.46796">
        <ele>53</ele>
        <time>2021-05-19T15:51:35.000Z</time>
      </trkpt>
      <trkpt lat="47.35736" lon="-1.46775">
        <ele>53</ele>
        <time>2021-05-19T15:51:37.000Z</time>
      </trkpt>
      <trkpt lat="47.3574" lon="-1.46754">
        <ele>52</ele>
        <time>2021-05-19T15:51:39.000Z</time>
      </trkpt>
      <trkpt lat="47.35743" lon="-1.46733">
        <ele>52</ele>
        <time>2021-05-19T15:51:41.000Z</time>
      </trkpt>
      <trkpt lat="47.35746" lon="-1.46713">
        <ele>52</ele>
        <time>2021-05-19T15:51:43.000Z</time>
      </trkpt>
      <trkpt lat="47.35749" lon="-1.46692">
        <ele>53</ele>
        <time>2021-05-19T15:51:45.000Z</time>
      </trkpt>
      <trkpt lat="47.35753" lon="-1.46671">
        <ele>53</ele>
        <time>2021-05-19T15:51:47.000Z</time>
      </trkpt>
      <trkpt lat="47.35758" lon="-1.4665">
        <ele>52</ele>
        <time>2021-05-19T15:51:49.000Z</time>
      </trkpt>
      <trkpt lat="47.35771" lon="-1.46634">
        <ele>51</ele>
        <time>2021-05-19T15:51:51.000Z</time>
      </trkpt>
      <trkpt lat="47.35784" lon="-1.46624">
        <ele>51</ele>
        <time>2021-05-19T15:51:53.000Z</time>
      </trkpt>
      <trkpt lat="47.35797" lon="-1.46614">
        <ele>51</ele>
        <time>2021-05-19T15:51:55.000Z</time>
      </trkpt>
      <trkpt lat="47.35806" lon="-1.46609">
        <ele>49</ele>
        <time>2021-05-19T15:51:58.000Z</time>
      </trkpt>
      <trkpt lat="47.35819" lon="-1.46597">
        <ele>49</ele>
        <time>2021-05-19T15:52:00.000Z</time>
      </trkpt>
      <trkpt lat="47.35834" lon="-1.46588">
        <ele>48</ele>
        <time>2021-05-19T15:52:02.000Z</time>
      </trkpt>
      <trkpt lat="47.35848" lon="-1.46576">
        <ele>48</ele>
        <time>2021-05-19T15:52:04.000Z</time>
      </trkpt>
      <trkpt lat="47.35861" lon="-1.46563">
        <ele>48</ele>
        <time>2021-05-19T15:52:06.000Z</time>
      </trkpt>
      <trkpt lat="47.35873" lon="-1.46553">
        <ele>49</ele>
        <time>2021-05-19T15:52:08.000Z</time>
      </trkpt>
      <trkpt lat="47.35884" lon="-1.46539">
        <ele>49</ele>
        <time>2021-05-19T15:52:10.000Z</time>
      </trkpt>
      <trkpt lat="47.3589" lon="-1.46521">
        <ele>50</ele>
        <time>2021-05-19T15:52:12.000Z</time>
      </trkpt>
      <trkpt lat="47.35894" lon="-1.46501">
        <ele>50</ele>
        <time>2021-05-19T15:52:14.000Z</time>
      </trkpt>
      <trkpt lat="47.35898" lon="-1.4648">
        <ele>50</ele>
        <time>2021-05-19T15:52:16.000Z</time>
      </trkpt>
      <trkpt lat="47.35902" lon="-1.46459">
        <ele>51</ele>
        <time>2021-05-19T15:52:18.000Z</time>
      </trkpt>
      <trkpt lat="47.35905" lon="-1.4644">
        <ele>50</ele>
        <time>2021-05-19T15:52:20.000Z</time>
      </trkpt>
      <trkpt lat="47.35908" lon="-1.46421">
        <ele>51</ele>
        <time>2021-05-19T15:52:22.000Z</time>
      </trkpt>
      <trkpt lat="47.3591" lon="-1.46402">
        <ele>51</ele>
        <time>2021-05-19T15:52:24.000Z</time>
      </trkpt>
      <trkpt lat="47.35909" lon="-1.46383">
        <ele>51</ele>
        <time>2021-05-19T15:52:26.000Z</time>
      </trkpt>
      <trkpt lat="47.35902" lon="-1.46366">
        <ele>50</ele>
        <time>2021-05-19T15:52:28.000Z</time>
      </trkpt>
      <trkpt lat="47.35891" lon="-1.46352">
        <ele>50</ele>
        <time>2021-05-19T15:52:30.000Z</time>
      </trkpt>
      <trkpt lat="47.35881" lon="-1.46337">
        <ele>50</ele>
        <time>2021-05-19T15:52:32.000Z</time>
      </trkpt>
      <trkpt lat="47.3587" lon="-1.46324">
        <ele>50</ele>
        <time>2021-05-19T15:52:34.000Z</time>
      </trkpt>
      <trkpt lat="47.35859" lon="-1.46311">
        <ele>51</ele>
        <time>2021-05-19T15:52:36.000Z</time>
      </trkpt>
      <trkpt lat="47.35849" lon="-1.46297">
        <ele>52</ele>
        <time>2021-05-19T15:52:38.000Z</time>
      </trkpt>
      <trkpt lat="47.35841" lon="-1.46282">
        <ele>52</ele>
        <time>2021-05-19T15:52:40.000Z</time>
      </trkpt>
      <trkpt lat="47.35835" lon="-1.46263">
        <ele>53</ele>
        <time>2021-05-19T15:52:42.000Z</time>
      </trkpt>
      <trkpt lat="47.35834" lon="-1.46241">
        <ele>54</ele>
        <time>2021-05-19T15:52:44.000Z</time>
      </trkpt>
      <trkpt lat="47.35838" lon="-1.4622">
        <ele>53</ele>
        <time>2021-05-19T15:52:46.000Z</time>
      </trkpt>
      <trkpt lat="47.35844" lon="-1.46202">
        <ele>53</ele>
        <time>2021-05-19T15:52:48.000Z</time>
      </trkpt>
      <trkpt lat="47.35846" lon="-1.46184">
        <ele>53</ele>
        <time>2021-05-19T15:52:50.000Z</time>
      </trkpt>
      <trkpt lat="47.35843" lon="-1.46163">
        <ele>53</ele>
        <time>2021-05-19T15:52:52.000Z</time>
      </trkpt>
      <trkpt lat="47.35839" lon="-1.46142">
        <ele>53</ele>
        <time>2021-05-19T15:52:54.000Z</time>
      </trkpt>
      <trkpt lat="47.35835" lon="-1.46124">
        <ele>54</ele>
        <time>2021-05-19T15:52:56.000Z</time>
      </trkpt>
      <trkpt lat="47.3583" lon="-1.46105">
        <ele>54</ele>
        <time>2021-05-19T15:52:58.000Z</time>
      </trkpt>
      <trkpt lat="47.35826" lon="-1.46088">
        <ele>54</ele>
        <time>2021-05-19T15:53:00.000Z</time>
      </trkpt>
      <trkpt lat="47.3582" lon="-1.46069">
        <ele>55</ele>
        <time>2021-05-19T15:53:02.000Z</time>
      </trkpt>
      <trkpt lat="47.35815" lon="-1.46051">
        <ele>55</ele>
        <time>2021-05-19T15:53:04.000Z</time>
      </trkpt>
      <trkpt lat="47.35809" lon="-1.46034">
        <ele>55</ele>
        <time>2021-05-19T15:53:06.000Z</time>
      </trkpt>
      <trkpt lat="47.35805" lon="-1.46018">
        <ele>56</ele>
        <time>2021-05-19T15:53:08.000Z</time>
      </trkpt>
      <trkpt lat="47.35802" lon="-1.46">
        <ele>56</ele>
        <time>2021-05-19T15:53:10.000Z</time>
      </trkpt>
      <trkpt lat="47.35801" lon="-1.45982">
        <ele>57</ele>
        <time>2021-05-19T15:53:12.000Z</time>
      </trkpt>
      <trkpt lat="47.35801" lon="-1.45962">
        <ele>57</ele>
        <time>2021-05-19T15:53:14.000Z</time>
      </trkpt>
      <trkpt lat="47.35801" lon="-1.45942">
        <ele>57</ele>
        <time>2021-05-19T15:53:16.000Z</time>
      </trkpt>
      <trkpt lat="47.35801" lon="-1.45923">
        <ele>58</ele>
        <time>2021-05-19T15:53:18.000Z</time>
      </trkpt>
      <trkpt lat="47.35801" lon="-1.45904">
        <ele>58</ele>
        <time>2021-05-19T15:53:20.000Z</time>
      </trkpt>
      <trkpt lat="47.358" lon="-1.45886">
        <ele>59</ele>
        <time>2021-05-19T15:53:22.000Z</time>
      </trkpt>
      <trkpt lat="47.358" lon="-1.45869">
        <ele>59</ele>
        <time>2021-05-19T15:53:24.000Z</time>
      </trkpt>
      <trkpt lat="47.35799" lon="-1.4585">
        <ele>60</ele>
        <time>2021-05-19T15:53:26.000Z</time>
      </trkpt>
      <trkpt lat="47.35798" lon="-1.45832">
        <ele>60</ele>
        <time>2021-05-19T15:53:28.000Z</time>
      </trkpt>
      <trkpt lat="47.35798" lon="-1.45813">
        <ele>60</ele>
        <time>2021-05-19T15:53:30.000Z</time>
      </trkpt>
      <trkpt lat="47.35798" lon="-1.45794">
        <ele>59</ele>
        <time>2021-05-19T15:53:32.000Z</time>
      </trkpt>
      <trkpt lat="47.35798" lon="-1.45776">
        <ele>59</ele>
        <time>2021-05-19T15:53:34.000Z</time>
      </trkpt>
      <trkpt lat="47.35797" lon="-1.45759">
        <ele>59</ele>
        <time>2021-05-19T15:53:36.000Z</time>
      </trkpt>
      <trkpt lat="47.35796" lon="-1.45744">
        <ele>60</ele>
        <time>2021-05-19T15:53:38.000Z</time>
      </trkpt>
      <trkpt lat="47.35792" lon="-1.45731">
        <ele>59</ele>
        <time>2021-05-19T15:53:42.000Z</time>
      </trkpt>
      <trkpt lat="47.35786" lon="-1.45713">
        <ele>59</ele>
        <time>2021-05-19T15:53:49.000Z</time>
      </trkpt>
      <trkpt lat="47.35783" lon="-1.45698">
        <ele>60</ele>
        <time>2021-05-19T15:53:51.000Z</time>
      </trkpt>
      <trkpt lat="47.3578" lon="-1.45684">
        <ele>60</ele>
        <time>2021-05-19T15:53:53.000Z</time>
      </trkpt>
      <trkpt lat="47.35776" lon="-1.45667">
        <ele>61</ele>
        <time>2021-05-19T15:53:55.000Z</time>
      </trkpt>
      <trkpt lat="47.35773" lon="-1.45651">
        <ele>61</ele>
        <time>2021-05-19T15:53:57.000Z</time>
      </trkpt>
      <trkpt lat="47.35769" lon="-1.45635">
        <ele>61</ele>
        <time>2021-05-19T15:53:59.000Z</time>
      </trkpt>
      <trkpt lat="47.35765" lon="-1.45619">
        <ele>61</ele>
        <time>2021-05-19T15:54:01.000Z</time>
      </trkpt>
      <trkpt lat="47.35763" lon="-1.456">
        <ele>61</ele>
        <time>2021-05-19T15:54:03.000Z</time>
      </trkpt>
      <trkpt lat="47.35762" lon="-1.45581">
        <ele>61</ele>
        <time>2021-05-19T15:54:05.000Z</time>
      </trkpt>
      <trkpt lat="47.35765" lon="-1.45564">
        <ele>61</ele>
        <time>2021-05-19T15:54:07.000Z</time>
      </trkpt>
      <trkpt lat="47.35767" lon="-1.45546">
        <ele>61</ele>
        <time>2021-05-19T15:54:09.000Z</time>
      </trkpt>
      <trkpt lat="47.35771" lon="-1.45528">
        <ele>61</ele>
        <time>2021-05-19T15:54:11.000Z</time>
      </trkpt>
      <trkpt lat="47.35777" lon="-1.45511">
        <ele>61</ele>
        <time>2021-05-19T15:54:13.000Z</time>
      </trkpt>
      <trkpt lat="47.35784" lon="-1.45494">
        <ele>61</ele>
        <time>2021-05-19T15:54:15.000Z</time>
      </trkpt>
      <trkpt lat="47.3579" lon="-1.45478">
        <ele>61</ele>
        <time>2021-05-19T15:54:17.000Z</time>
      </trkpt>
      <trkpt lat="47.35795" lon="-1.4546">
        <ele>61</ele>
        <time>2021-05-19T15:54:19.000Z</time>
      </trkpt>
      <trkpt lat="47.35799" lon="-1.45441">
        <ele>61</ele>
        <time>2021-05-19T15:54:21.000Z</time>
      </trkpt>
      <trkpt lat="47.35802" lon="-1.45422">
        <ele>61</ele>
        <time>2021-05-19T15:54:23.000Z</time>
      </trkpt>
      <trkpt lat="47.35801" lon="-1.45403">
        <ele>61</ele>
        <time>2021-05-19T15:54:25.000Z</time>
      </trkpt>
      <trkpt lat="47.358" lon="-1.45384">
        <ele>62</ele>
        <time>2021-05-19T15:54:27.000Z</time>
      </trkpt>
      <trkpt lat="47.35797" lon="-1.45366">
        <ele>62</ele>
        <time>2021-05-19T15:54:29.000Z</time>
      </trkpt>
      <trkpt lat="47.35794" lon="-1.45347">
        <ele>62</ele>
        <time>2021-05-19T15:54:31.000Z</time>
      </trkpt>
      <trkpt lat="47.35791" lon="-1.45329">
        <ele>63</ele>
        <time>2021-05-19T15:54:33.000Z</time>
      </trkpt>
      <trkpt lat="47.35788" lon="-1.4531">
        <ele>63</ele>
        <time>2021-05-19T15:54:35.000Z</time>
      </trkpt>
      <trkpt lat="47.35785" lon="-1.45293">
        <ele>64</ele>
        <time>2021-05-19T15:54:37.000Z</time>
      </trkpt>
      <trkpt lat="47.35782" lon="-1.45275">
        <ele>65</ele>
        <time>2021-05-19T15:54:39.000Z</time>
      </trkpt>
      <trkpt lat="47.35779" lon="-1.45257">
        <ele>65</ele>
        <time>2021-05-19T15:54:41.000Z</time>
      </trkpt>
      <trkpt lat="47.35776" lon="-1.4524">
        <ele>65</ele>
        <time>2021-05-19T15:54:43.000Z</time>
      </trkpt>
      <trkpt lat="47.35773" lon="-1.45222">
        <ele>65</ele>
        <time>2021-05-19T15:54:45.000Z</time>
      </trkpt>
      <trkpt lat="47.3577" lon="-1.45205">
        <ele>65</ele>
        <time>2021-05-19T15:54:47.000Z</time>
      </trkpt>
      <trkpt lat="47.35767" lon="-1.45186">
        <ele>65</ele>
        <time>2021-05-19T15:54:49.000Z</time>
      </trkpt>
      <trkpt lat="47.35765" lon="-1.45167">
        <ele>66</ele>
        <time>2021-05-19T15:54:51.000Z</time>
      </trkpt>
      <trkpt lat="47.35764" lon="-1.45148">
        <ele>66</ele>
        <time>2021-05-19T15:54:53.000Z</time>
      </trkpt>
      <trkpt lat="47.35764" lon="-1.45129">
        <ele>66</ele>
        <time>2021-05-19T15:54:55.000Z</time>
      </trkpt>
      <trkpt lat="47.35766" lon="-1.4511">
        <ele>66</ele>
        <time>2021-05-19T15:54:57.000Z</time>
      </trkpt>
      <trkpt lat="47.35769" lon="-1.4509">
        <ele>66</ele>
        <time>2021-05-19T15:54:59.000Z</time>
      </trkpt>
      <trkpt lat="47.35773" lon="-1.45071">
        <ele>67</ele>
        <time>2021-05-19T15:55:01.000Z</time>
      </trkpt>
      <trkpt lat="47.35775" lon="-1.45051">
        <ele>67</ele>
        <time>2021-05-19T15:55:03.000Z</time>
      </trkpt>
      <trkpt lat="47.35777" lon="-1.45033">
        <ele>68</ele>
        <time>2021-05-19T15:55:05.000Z</time>
      </trkpt>
      <trkpt lat="47.35779" lon="-1.45014">
        <ele>68</ele>
        <time>2021-05-19T15:55:07.000Z</time>
      </trkpt>
      <trkpt lat="47.3578" lon="-1.44995">
        <ele>68</ele>
        <time>2021-05-19T15:55:09.000Z</time>
      </trkpt>
      <trkpt lat="47.35781" lon="-1.44976">
        <ele>68</ele>
        <time>2021-05-19T15:55:11.000Z</time>
      </trkpt>
      <trkpt lat="47.35781" lon="-1.44957">
        <ele>68</ele>
        <time>2021-05-19T15:55:13.000Z</time>
      </trkpt>
      <trkpt lat="47.35782" lon="-1.44939">
        <ele>68</ele>
        <time>2021-05-19T15:55:15.000Z</time>
      </trkpt>
      <trkpt lat="47.35783" lon="-1.44921">
        <ele>69</ele>
        <time>2021-05-19T15:55:17.000Z</time>
      </trkpt>
      <trkpt lat="47.35783" lon="-1.44903">
        <ele>69</ele>
        <time>2021-05-19T15:55:19.000Z</time>
      </trkpt>
      <trkpt lat="47.35783" lon="-1.44885">
        <ele>69</ele>
        <time>2021-05-19T15:55:21.000Z</time>
      </trkpt>
      <trkpt lat="47.35784" lon="-1.44866">
        <ele>69</ele>
        <time>2021-05-19T15:55:23.000Z</time>
      </trkpt>
      <trkpt lat="47.35785" lon="-1.44848">
        <ele>70</ele>
        <time>2021-05-19T15:55:25.000Z</time>
      </trkpt>
      <trkpt lat="47.35785" lon="-1.4483">
        <ele>70</ele>
        <time>2021-05-19T15:55:27.000Z</time>
      </trkpt>
      <trkpt lat="47.35785" lon="-1.44812">
        <ele>71</ele>
        <time>2021-05-19T15:55:29.000Z</time>
      </trkpt>
      <trkpt lat="47.35786" lon="-1.44795">
        <ele>71</ele>
        <time>2021-05-19T15:55:31.000Z</time>
      </trkpt>
      <trkpt lat="47.35786" lon="-1.44778">
        <ele>72</ele>
        <time>2021-05-19T15:55:33.000Z</time>
      </trkpt>
      <trkpt lat="47.35786" lon="-1.4476">
        <ele>72</ele>
        <time>2021-05-19T15:55:35.000Z</time>
      </trkpt>
      <trkpt lat="47.35787" lon="-1.44743">
        <ele>72</ele>
        <time>2021-05-19T15:55:37.000Z</time>
      </trkpt>
      <trkpt lat="47.35787" lon="-1.44725">
        <ele>73</ele>
        <time>2021-05-19T15:55:39.000Z</time>
      </trkpt>
      <trkpt lat="47.35788" lon="-1.44708">
        <ele>73</ele>
        <time>2021-05-19T15:55:41.000Z</time>
      </trkpt>
      <trkpt lat="47.35788" lon="-1.44691">
        <ele>74</ele>
        <time>2021-05-19T15:55:43.000Z</time>
      </trkpt>
      <trkpt lat="47.35789" lon="-1.44674">
        <ele>74</ele>
        <time>2021-05-19T15:55:45.000Z</time>
      </trkpt>
      <trkpt lat="47.35789" lon="-1.44658">
        <ele>74</ele>
        <time>2021-05-19T15:55:47.000Z</time>
      </trkpt>
      <trkpt lat="47.3579" lon="-1.44641">
        <ele>75</ele>
        <time>2021-05-19T15:55:49.000Z</time>
      </trkpt>
      <trkpt lat="47.3579" lon="-1.44625">
        <ele>76</ele>
        <time>2021-05-19T15:55:51.000Z</time>
      </trkpt>
      <trkpt lat="47.35791" lon="-1.44608">
        <ele>76</ele>
        <time>2021-05-19T15:55:53.000Z</time>
      </trkpt>
      <trkpt lat="47.35793" lon="-1.44591">
        <ele>77</ele>
        <time>2021-05-19T15:55:55.000Z</time>
      </trkpt>
      <trkpt lat="47.35794" lon="-1.44573">
        <ele>78</ele>
        <time>2021-05-19T15:55:57.000Z</time>
      </trkpt>
      <trkpt lat="47.35796" lon="-1.44555">
        <ele>79</ele>
        <time>2021-05-19T15:55:59.000Z</time>
      </trkpt>
      <trkpt lat="47.35798" lon="-1.44538">
        <ele>79</ele>
        <time>2021-05-19T15:56:01.000Z</time>
      </trkpt>
      <trkpt lat="47.35801" lon="-1.44521">
        <ele>79</ele>
        <time>2021-05-19T15:56:03.000Z</time>
      </trkpt>
      <trkpt lat="47.35802" lon="-1.44504">
        <ele>80</ele>
        <time>2021-05-19T15:56:05.000Z</time>
      </trkpt>
      <trkpt lat="47.35803" lon="-1.44487">
        <ele>80</ele>
        <time>2021-05-19T15:56:07.000Z</time>
      </trkpt>
      <trkpt lat="47.35804" lon="-1.4447">
        <ele>80</ele>
        <time>2021-05-19T15:56:09.000Z</time>
      </trkpt>
      <trkpt lat="47.35806" lon="-1.44452">
        <ele>80</ele>
        <time>2021-05-19T15:56:11.000Z</time>
      </trkpt>
      <trkpt lat="47.35806" lon="-1.44433">
        <ele>80</ele>
        <time>2021-05-19T15:56:13.000Z</time>
      </trkpt>
      <trkpt lat="47.35807" lon="-1.44415">
        <ele>81</ele>
        <time>2021-05-19T15:56:15.000Z</time>
      </trkpt>
      <trkpt lat="47.35807" lon="-1.44397">
        <ele>80</ele>
        <time>2021-05-19T15:56:17.000Z</time>
      </trkpt>
      <trkpt lat="47.35808" lon="-1.44378">
        <ele>81</ele>
        <time>2021-05-19T15:56:19.000Z</time>
      </trkpt>
      <trkpt lat="47.35808" lon="-1.44359">
        <ele>81</ele>
        <time>2021-05-19T15:56:21.000Z</time>
      </trkpt>
      <trkpt lat="47.35808" lon="-1.4434">
        <ele>81</ele>
        <time>2021-05-19T15:56:23.000Z</time>
      </trkpt>
      <trkpt lat="47.35809" lon="-1.44321">
        <ele>81</ele>
        <time>2021-05-19T15:56:25.000Z</time>
      </trkpt>
      <trkpt lat="47.35811" lon="-1.44302">
        <ele>80</ele>
        <time>2021-05-19T15:56:27.000Z</time>
      </trkpt>
      <trkpt lat="47.35814" lon="-1.44283">
        <ele>80</ele>
        <time>2021-05-19T15:56:29.000Z</time>
      </trkpt>
      <trkpt lat="47.3582" lon="-1.44265">
        <ele>80</ele>
        <time>2021-05-19T15:56:31.000Z</time>
      </trkpt>
      <trkpt lat="47.35829" lon="-1.44249">
        <ele>80</ele>
        <time>2021-05-19T15:56:33.000Z</time>
      </trkpt>
      <trkpt lat="47.35839" lon="-1.44235">
        <ele>80</ele>
        <time>2021-05-19T15:56:35.000Z</time>
      </trkpt>
      <trkpt lat="47.35849" lon="-1.44222">
        <ele>80</ele>
        <time>2021-05-19T15:56:37.000Z</time>
      </trkpt>
      <trkpt lat="47.35858" lon="-1.44208">
        <ele>80</ele>
        <time>2021-05-19T15:56:39.000Z</time>
      </trkpt>
      <trkpt lat="47.35868" lon="-1.44194">
        <ele>80</ele>
        <time>2021-05-19T15:56:41.000Z</time>
      </trkpt>
      <trkpt lat="47.35877" lon="-1.4418">
        <ele>80</ele>
        <time>2021-05-19T15:56:43.000Z</time>
      </trkpt>
      <trkpt lat="47.35887" lon="-1.44167">
        <ele>81</ele>
        <time>2021-05-19T15:56:45.000Z</time>
      </trkpt>
      <trkpt lat="47.35896" lon="-1.44155">
        <ele>81</ele>
        <time>2021-05-19T15:56:47.000Z</time>
      </trkpt>
      <trkpt lat="47.35905" lon="-1.44142">
        <ele>81</ele>
        <time>2021-05-19T15:56:49.000Z</time>
      </trkpt>
      <trkpt lat="47.35915" lon="-1.44129">
        <ele>81</ele>
        <time>2021-05-19T15:56:51.000Z</time>
      </trkpt>
      <trkpt lat="47.35925" lon="-1.44116">
        <ele>81</ele>
        <time>2021-05-19T15:56:53.000Z</time>
      </trkpt>
      <trkpt lat="47.35935" lon="-1.44103">
        <ele>81</ele>
        <time>2021-05-19T15:56:55.000Z</time>
      </trkpt>
      <trkpt lat="47.35945" lon="-1.44089">
        <ele>81</ele>
        <time>2021-05-19T15:56:57.000Z</time>
      </trkpt>
      <trkpt lat="47.35955" lon="-1.44077">
        <ele>81</ele>
        <time>2021-05-19T15:56:59.000Z</time>
      </trkpt>
      <trkpt lat="47.35965" lon="-1.44064">
        <ele>81</ele>
        <time>2021-05-19T15:57:01.000Z</time>
      </trkpt>
      <trkpt lat="47.35975" lon="-1.44051">
        <ele>81</ele>
        <time>2021-05-19T15:57:03.000Z</time>
      </trkpt>
      <trkpt lat="47.35985" lon="-1.44039">
        <ele>81</ele>
        <time>2021-05-19T15:57:05.000Z</time>
      </trkpt>
      <trkpt lat="47.35995" lon="-1.44027">
        <ele>80</ele>
        <time>2021-05-19T15:57:07.000Z</time>
      </trkpt>
      <trkpt lat="47.36006" lon="-1.44014">
        <ele>81</ele>
        <time>2021-05-19T15:57:09.000Z</time>
      </trkpt>
      <trkpt lat="47.36016" lon="-1.44001">
        <ele>80</ele>
        <time>2021-05-19T15:57:11.000Z</time>
      </trkpt>
      <trkpt lat="47.36026" lon="-1.43986">
        <ele>80</ele>
        <time>2021-05-19T15:57:13.000Z</time>
      </trkpt>
      <trkpt lat="47.36035" lon="-1.4397">
        <ele>79</ele>
        <time>2021-05-19T15:57:15.000Z</time>
      </trkpt>
      <trkpt lat="47.36044" lon="-1.43953">
        <ele>78</ele>
        <time>2021-05-19T15:57:17.000Z</time>
      </trkpt>
      <trkpt lat="47.36052" lon="-1.43933">
        <ele>78</ele>
        <time>2021-05-19T15:57:19.000Z</time>
      </trkpt>
      <trkpt lat="47.36059" lon="-1.43911">
        <ele>78</ele>
        <time>2021-05-19T15:57:21.000Z</time>
      </trkpt>
      <trkpt lat="47.36063" lon="-1.43889">
        <ele>77</ele>
        <time>2021-05-19T15:57:23.000Z</time>
      </trkpt>
      <trkpt lat="47.36067" lon="-1.43866">
        <ele>76</ele>
        <time>2021-05-19T15:57:25.000Z</time>
      </trkpt>
      <trkpt lat="47.3607" lon="-1.43841">
        <ele>76</ele>
        <time>2021-05-19T15:57:27.000Z</time>
      </trkpt>
      <trkpt lat="47.36071" lon="-1.43828">
        <ele>76</ele>
        <time>2021-05-19T15:57:28.000Z</time>
      </trkpt>
      <trkpt lat="47.36073" lon="-1.43815">
        <ele>76</ele>
        <time>2021-05-19T15:57:29.000Z</time>
      </trkpt>
      <trkpt lat="47.36074" lon="-1.43801">
        <ele>75</ele>
        <time>2021-05-19T15:57:30.000Z</time>
      </trkpt>
      <trkpt lat="47.36076" lon="-1.43787">
        <ele>75</ele>
        <time>2021-05-19T15:57:31.000Z</time>
      </trkpt>
      <trkpt lat="47.36078" lon="-1.43774">
        <ele>75</ele>
        <time>2021-05-19T15:57:32.000Z</time>
      </trkpt>
      <trkpt lat="47.36084" lon="-1.43748">
        <ele>73</ele>
        <time>2021-05-19T15:57:34.000Z</time>
      </trkpt>
      <trkpt lat="47.36089" lon="-1.43735">
        <ele>73</ele>
        <time>2021-05-19T15:57:35.000Z</time>
      </trkpt>
      <trkpt lat="47.36094" lon="-1.43723">
        <ele>73</ele>
        <time>2021-05-19T15:57:36.000Z</time>
      </trkpt>
      <trkpt lat="47.36099" lon="-1.4371">
        <ele>73</ele>
        <time>2021-05-19T15:57:37.000Z</time>
      </trkpt>
      <trkpt lat="47.36105" lon="-1.43698">
        <ele>72</ele>
        <time>2021-05-19T15:57:38.000Z</time>
      </trkpt>
      <trkpt lat="47.36112" lon="-1.43687">
        <ele>72</ele>
        <time>2021-05-19T15:57:39.000Z</time>
      </trkpt>
      <trkpt lat="47.36118" lon="-1.43677">
        <ele>72</ele>
        <time>2021-05-19T15:57:40.000Z</time>
      </trkpt>
      <trkpt lat="47.36124" lon="-1.43667">
        <ele>72</ele>
        <time>2021-05-19T15:57:41.000Z</time>
      </trkpt>
      <trkpt lat="47.3613" lon="-1.43657">
        <ele>71</ele>
        <time>2021-05-19T15:57:42.000Z</time>
      </trkpt>
      <trkpt lat="47.36141" lon="-1.43637">
        <ele>71</ele>
        <time>2021-05-19T15:57:44.000Z</time>
      </trkpt>
      <trkpt lat="47.3615" lon="-1.43617">
        <ele>70</ele>
        <time>2021-05-19T15:57:46.000Z</time>
      </trkpt>
      <trkpt lat="47.36159" lon="-1.43597">
        <ele>71</ele>
        <time>2021-05-19T15:57:48.000Z</time>
      </trkpt>
      <trkpt lat="47.36168" lon="-1.43577">
        <ele>71</ele>
        <time>2021-05-19T15:57:50.000Z</time>
      </trkpt>
      <trkpt lat="47.36176" lon="-1.43559">
        <ele>71</ele>
        <time>2021-05-19T15:57:52.000Z</time>
      </trkpt>
      <trkpt lat="47.36186" lon="-1.43541">
        <ele>71</ele>
        <time>2021-05-19T15:57:54.000Z</time>
      </trkpt>
      <trkpt lat="47.36195" lon="-1.43524">
        <ele>72</ele>
        <time>2021-05-19T15:57:56.000Z</time>
      </trkpt>
      <trkpt lat="47.36205" lon="-1.43509">
        <ele>72</ele>
        <time>2021-05-19T15:57:58.000Z</time>
      </trkpt>
      <trkpt lat="47.36214" lon="-1.43495">
        <ele>72</ele>
        <time>2021-05-19T15:58:00.000Z</time>
      </trkpt>
      <trkpt lat="47.36224" lon="-1.43483">
        <ele>72</ele>
        <time>2021-05-19T15:58:02.000Z</time>
      </trkpt>
      <trkpt lat="47.36234" lon="-1.43472">
        <ele>73</ele>
        <time>2021-05-19T15:58:04.000Z</time>
      </trkpt>
      <trkpt lat="47.36244" lon="-1.43461">
        <ele>73</ele>
        <time>2021-05-19T15:58:06.000Z</time>
      </trkpt>
      <trkpt lat="47.36254" lon="-1.43452">
        <ele>75</ele>
        <time>2021-05-19T15:58:08.000Z</time>
      </trkpt>
      <trkpt lat="47.36262" lon="-1.43443">
        <ele>76</ele>
        <time>2021-05-19T15:58:10.000Z</time>
      </trkpt>
      <trkpt lat="47.36271" lon="-1.43434">
        <ele>77</ele>
        <time>2021-05-19T15:58:12.000Z</time>
      </trkpt>
      <trkpt lat="47.36279" lon="-1.43425">
        <ele>78</ele>
        <time>2021-05-19T15:58:14.000Z</time>
      </trkpt>
      <trkpt lat="47.36287" lon="-1.43417">
        <ele>79</ele>
        <time>2021-05-19T15:58:16.000Z</time>
      </trkpt>
      <trkpt lat="47.36296" lon="-1.43409">
        <ele>79</ele>
        <time>2021-05-19T15:58:18.000Z</time>
      </trkpt>
      <trkpt lat="47.36303" lon="-1.43401">
        <ele>80</ele>
        <time>2021-05-19T15:58:20.000Z</time>
      </trkpt>
      <trkpt lat="47.36311" lon="-1.43393">
        <ele>81</ele>
        <time>2021-05-19T15:58:22.000Z</time>
      </trkpt>
      <trkpt lat="47.36319" lon="-1.43384">
        <ele>82</ele>
        <time>2021-05-19T15:58:24.000Z</time>
      </trkpt>
      <trkpt lat="47.36327" lon="-1.43377">
        <ele>82</ele>
        <time>2021-05-19T15:58:26.000Z</time>
      </trkpt>
      <trkpt lat="47.36335" lon="-1.43369">
        <ele>83</ele>
        <time>2021-05-19T15:58:28.000Z</time>
      </trkpt>
      <trkpt lat="47.36342" lon="-1.43361">
        <ele>83</ele>
        <time>2021-05-19T15:58:30.000Z</time>
      </trkpt>
      <trkpt lat="47.3635" lon="-1.43353">
        <ele>84</ele>
        <time>2021-05-19T15:58:32.000Z</time>
      </trkpt>
      <trkpt lat="47.36358" lon="-1.43345">
        <ele>85</ele>
        <time>2021-05-19T15:58:34.000Z</time>
      </trkpt>
      <trkpt lat="47.36365" lon="-1.43337">
        <ele>85</ele>
        <time>2021-05-19T15:58:36.000Z</time>
      </trkpt>
      <trkpt lat="47.36373" lon="-1.43329">
        <ele>86</ele>
        <time>2021-05-19T15:58:38.000Z</time>
      </trkpt>
      <trkpt lat="47.36381" lon="-1.43322">
        <ele>87</ele>
        <time>2021-05-19T15:58:40.000Z</time>
      </trkpt>
      <trkpt lat="47.36388" lon="-1.43315">
        <ele>87</ele>
        <time>2021-05-19T15:58:42.000Z</time>
      </trkpt>
      <trkpt lat="47.36399" lon="-1.43303">
        <ele>88</ele>
        <time>2021-05-19T15:58:45.000Z</time>
      </trkpt>
      <trkpt lat="47.3641" lon="-1.43292">
        <ele>89</ele>
        <time>2021-05-19T15:58:48.000Z</time>
      </trkpt>
      <trkpt lat="47.36421" lon="-1.4328">
        <ele>90</ele>
        <time>2021-05-19T15:58:51.000Z</time>
      </trkpt>
      <trkpt lat="47.36428" lon="-1.43271">
        <ele>90</ele>
        <time>2021-05-19T15:58:53.000Z</time>
      </trkpt>
      <trkpt lat="47.36434" lon="-1.43262">
        <ele>91</ele>
        <time>2021-05-19T15:58:55.000Z</time>
      </trkpt>
      <trkpt lat="47.3644" lon="-1.43252">
        <ele>92</ele>
        <time>2021-05-19T15:58:57.000Z</time>
      </trkpt>
      <trkpt lat="47.36447" lon="-1.43241">
        <ele>92</ele>
        <time>2021-05-19T15:58:59.000Z</time>
      </trkpt>
      <trkpt lat="47.36453" lon="-1.43228">
        <ele>93</ele>
        <time>2021-05-19T15:59:01.000Z</time>
      </trkpt>
      <trkpt lat="47.36459" lon="-1.43216">
        <ele>93</ele>
        <time>2021-05-19T15:59:03.000Z</time>
      </trkpt>
      <trkpt lat="47.36465" lon="-1.43204">
        <ele>93</ele>
        <time>2021-05-19T15:59:05.000Z</time>
      </trkpt>
      <trkpt lat="47.36471" lon="-1.43192">
        <ele>93</ele>
        <time>2021-05-19T15:59:07.000Z</time>
      </trkpt>
      <trkpt lat="47.36476" lon="-1.4318">
        <ele>93</ele>
        <time>2021-05-19T15:59:09.000Z</time>
      </trkpt>
      <trkpt lat="47.36482" lon="-1.43168">
        <ele>93</ele>
        <time>2021-05-19T15:59:11.000Z</time>
      </trkpt>
      <trkpt lat="47.36487" lon="-1.43155">
        <ele>93</ele>
        <time>2021-05-19T15:59:13.000Z</time>
      </trkpt>
      <trkpt lat="47.36492" lon="-1.43143">
        <ele>93</ele>
        <time>2021-05-19T15:59:15.000Z</time>
      </trkpt>
      <trkpt lat="47.36498" lon="-1.43129">
        <ele>93</ele>
        <time>2021-05-19T15:59:17.000Z</time>
      </trkpt>
      <trkpt lat="47.36504" lon="-1.43116">
        <ele>93</ele>
        <time>2021-05-19T15:59:19.000Z</time>
      </trkpt>
      <trkpt lat="47.36508" lon="-1.43102">
        <ele>93</ele>
        <time>2021-05-19T15:59:21.000Z</time>
      </trkpt>
      <trkpt lat="47.36512" lon="-1.43088">
        <ele>93</ele>
        <time>2021-05-19T15:59:23.000Z</time>
      </trkpt>
      <trkpt lat="47.36515" lon="-1.43072">
        <ele>93</ele>
        <time>2021-05-19T15:59:25.000Z</time>
      </trkpt>
      <trkpt lat="47.36517" lon="-1.43056">
        <ele>93</ele>
        <time>2021-05-19T15:59:27.000Z</time>
      </trkpt>
      <trkpt lat="47.36519" lon="-1.43041">
        <ele>93</ele>
        <time>2021-05-19T15:59:29.000Z</time>
      </trkpt>
      <trkpt lat="47.3652" lon="-1.43025">
        <ele>94</ele>
        <time>2021-05-19T15:59:31.000Z</time>
      </trkpt>
      <trkpt lat="47.36522" lon="-1.4301">
        <ele>94</ele>
        <time>2021-05-19T15:59:33.000Z</time>
      </trkpt>
      <trkpt lat="47.36526" lon="-1.42996">
        <ele>95</ele>
        <time>2021-05-19T15:59:35.000Z</time>
      </trkpt>
      <trkpt lat="47.36534" lon="-1.42984">
        <ele>95</ele>
        <time>2021-05-19T15:59:37.000Z</time>
      </trkpt>
      <trkpt lat="47.36544" lon="-1.4298">
        <ele>95</ele>
        <time>2021-05-19T15:59:39.000Z</time>
      </trkpt>
      <trkpt lat="47.36555" lon="-1.4298">
        <ele>95</ele>
        <time>2021-05-19T15:59:41.000Z</time>
      </trkpt>
      <trkpt lat="47.36567" lon="-1.42979">
        <ele>94</ele>
        <time>2021-05-19T15:59:43.000Z</time>
      </trkpt>
      <trkpt lat="47.36579" lon="-1.42979">
        <ele>94</ele>
        <time>2021-05-19T15:59:45.000Z</time>
      </trkpt>
      <trkpt lat="47.36592" lon="-1.42978">
        <ele>94</ele>
        <time>2021-05-19T15:59:47.000Z</time>
      </trkpt>
      <trkpt lat="47.36605" lon="-1.42977">
        <ele>94</ele>
        <time>2021-05-19T15:59:49.000Z</time>
      </trkpt>
      <trkpt lat="47.36617" lon="-1.42977">
        <ele>94</ele>
        <time>2021-05-19T15:59:51.000Z</time>
      </trkpt>
      <trkpt lat="47.3663" lon="-1.42976">
        <ele>95</ele>
        <time>2021-05-19T15:59:53.000Z</time>
      </trkpt>
      <trkpt lat="47.36641" lon="-1.42976">
        <ele>95</ele>
        <time>2021-05-19T15:59:55.000Z</time>
      </trkpt>
      <trkpt lat="47.36653" lon="-1.42976">
        <ele>95</ele>
        <time>2021-05-19T15:59:57.000Z</time>
      </trkpt>
      <trkpt lat="47.36664" lon="-1.42975">
        <ele>95</ele>
        <time>2021-05-19T15:59:59.000Z</time>
      </trkpt>
      <trkpt lat="47.36674" lon="-1.42974">
        <ele>95</ele>
        <time>2021-05-19T16:00:01.000Z</time>
      </trkpt>
      <trkpt lat="47.36685" lon="-1.42974">
        <ele>96</ele>
        <time>2021-05-19T16:00:04.000Z</time>
      </trkpt>
      <trkpt lat="47.36693" lon="-1.42962">
        <ele>96</ele>
        <time>2021-05-19T16:00:07.000Z</time>
      </trkpt>
      <trkpt lat="47.36697" lon="-1.42948">
        <ele>97</ele>
        <time>2021-05-19T16:00:09.000Z</time>
      </trkpt>
      <trkpt lat="47.36702" lon="-1.42931">
        <ele>96</ele>
        <time>2021-05-19T16:00:11.000Z</time>
      </trkpt>
      <trkpt lat="47.36707" lon="-1.42914">
        <ele>96</ele>
        <time>2021-05-19T16:00:13.000Z</time>
      </trkpt>
      <trkpt lat="47.36712" lon="-1.42897">
        <ele>96</ele>
        <time>2021-05-19T16:00:15.000Z</time>
      </trkpt>
      <trkpt lat="47.36718" lon="-1.4288">
        <ele>96</ele>
        <time>2021-05-19T16:00:17.000Z</time>
      </trkpt>
      <trkpt lat="47.36722" lon="-1.42862">
        <ele>96</ele>
        <time>2021-05-19T16:00:19.000Z</time>
      </trkpt>
      <trkpt lat="47.36726" lon="-1.42845">
        <ele>96</ele>
        <time>2021-05-19T16:00:21.000Z</time>
      </trkpt>
      <trkpt lat="47.3673" lon="-1.42827">
        <ele>95</ele>
        <time>2021-05-19T16:00:23.000Z</time>
      </trkpt>
      <trkpt lat="47.36734" lon="-1.42808">
        <ele>96</ele>
        <time>2021-05-19T16:00:25.000Z</time>
      </trkpt>
      <trkpt lat="47.36736" lon="-1.4279">
        <ele>96</ele>
        <time>2021-05-19T16:00:27.000Z</time>
      </trkpt>
      <trkpt lat="47.36738" lon="-1.42771">
        <ele>96</ele>
        <time>2021-05-19T16:00:29.000Z</time>
      </trkpt>
      <trkpt lat="47.36739" lon="-1.42752">
        <ele>97</ele>
        <time>2021-05-19T16:00:31.000Z</time>
      </trkpt>
      <trkpt lat="47.3674" lon="-1.42733">
        <ele>97</ele>
        <time>2021-05-19T16:00:33.000Z</time>
      </trkpt>
      <trkpt lat="47.3674" lon="-1.42714">
        <ele>97</ele>
        <time>2021-05-19T16:00:35.000Z</time>
      </trkpt>
      <trkpt lat="47.36738" lon="-1.42694">
        <ele>98</ele>
        <time>2021-05-19T16:00:37.000Z</time>
      </trkpt>
      <trkpt lat="47.36737" lon="-1.42675">
        <ele>98</ele>
        <time>2021-05-19T16:00:39.000Z</time>
      </trkpt>
      <trkpt lat="47.36735" lon="-1.42655">
        <ele>98</ele>
        <time>2021-05-19T16:00:41.000Z</time>
      </trkpt>
      <trkpt lat="47.36733" lon="-1.42636">
        <ele>98</ele>
        <time>2021-05-19T16:00:43.000Z</time>
      </trkpt>
      <trkpt lat="47.3673" lon="-1.42617">
        <ele>98</ele>
        <time>2021-05-19T16:00:45.000Z</time>
      </trkpt>
      <trkpt lat="47.36727" lon="-1.42599">
        <ele>99</ele>
        <time>2021-05-19T16:00:47.000Z</time>
      </trkpt>
      <trkpt lat="47.36724" lon="-1.4258">
        <ele>98</ele>
        <time>2021-05-19T16:00:49.000Z</time>
      </trkpt>
      <trkpt lat="47.36721" lon="-1.42562">
        <ele>98</ele>
        <time>2021-05-19T16:00:51.000Z</time>
      </trkpt>
      <trkpt lat="47.36718" lon="-1.42543">
        <ele>98</ele>
        <time>2021-05-19T16:00:53.000Z</time>
      </trkpt>
      <trkpt lat="47.36715" lon="-1.42524">
        <ele>98</ele>
        <time>2021-05-19T16:00:55.000Z</time>
      </trkpt>
      <trkpt lat="47.36712" lon="-1.42505">
        <ele>98</ele>
        <time>2021-05-19T16:00:57.000Z</time>
      </trkpt>
      <trkpt lat="47.36709" lon="-1.42487">
        <ele>98</ele>
        <time>2021-05-19T16:00:59.000Z</time>
      </trkpt>
      <trkpt lat="47.36706" lon="-1.42468">
        <ele>98</ele>
        <time>2021-05-19T16:01:01.000Z</time>
      </trkpt>
      <trkpt lat="47.36703" lon="-1.42449">
        <ele>99</ele>
        <time>2021-05-19T16:01:03.000Z</time>
      </trkpt>
      <trkpt lat="47.367" lon="-1.4243">
        <ele>99</ele>
        <time>2021-05-19T16:01:05.000Z</time>
      </trkpt>
      <trkpt lat="47.36697" lon="-1.42411">
        <ele>99</ele>
        <time>2021-05-19T16:01:07.000Z</time>
      </trkpt>
      <trkpt lat="47.36694" lon="-1.42392">
        <ele>99</ele>
        <time>2021-05-19T16:01:09.000Z</time>
      </trkpt>
      <trkpt lat="47.36691" lon="-1.42373">
        <ele>99</ele>
        <time>2021-05-19T16:01:11.000Z</time>
      </trkpt>
      <trkpt lat="47.36688" lon="-1.42354">
        <ele>99</ele>
        <time>2021-05-19T16:01:13.000Z</time>
      </trkpt>
      <trkpt lat="47.36685" lon="-1.42335">
        <ele>100</ele>
        <time>2021-05-19T16:01:15.000Z</time>
      </trkpt>
      <trkpt lat="47.36682" lon="-1.42316">
        <ele>100</ele>
        <time>2021-05-19T16:01:17.000Z</time>
      </trkpt>
      <trkpt lat="47.3668" lon="-1.42297">
        <ele>100</ele>
        <time>2021-05-19T16:01:19.000Z</time>
      </trkpt>
      <trkpt lat="47.36678" lon="-1.42278">
        <ele>101</ele>
        <time>2021-05-19T16:01:21.000Z</time>
      </trkpt>
      <trkpt lat="47.36677" lon="-1.4226">
        <ele>101</ele>
        <time>2021-05-19T16:01:23.000Z</time>
      </trkpt>
      <trkpt lat="47.36675" lon="-1.42241">
        <ele>101</ele>
        <time>2021-05-19T16:01:25.000Z</time>
      </trkpt>
      <trkpt lat="47.36673" lon="-1.42222">
        <ele>101</ele>
        <time>2021-05-19T16:01:27.000Z</time>
      </trkpt>
      <trkpt lat="47.36671" lon="-1.42204">
        <ele>101</ele>
        <time>2021-05-19T16:01:29.000Z</time>
      </trkpt>
      <trkpt lat="47.3667" lon="-1.42185">
        <ele>101</ele>
        <time>2021-05-19T16:01:31.000Z</time>
      </trkpt>
      <trkpt lat="47.36668" lon="-1.42167">
        <ele>101</ele>
        <time>2021-05-19T16:01:33.000Z</time>
      </trkpt>
      <trkpt lat="47.36666" lon="-1.42148">
        <ele>102</ele>
        <time>2021-05-19T16:01:35.000Z</time>
      </trkpt>
      <trkpt lat="47.36664" lon="-1.4213">
        <ele>102</ele>
        <time>2021-05-19T16:01:37.000Z</time>
      </trkpt>
      <trkpt lat="47.36662" lon="-1.42111">
        <ele>102</ele>
        <time>2021-05-19T16:01:39.000Z</time>
      </trkpt>
      <trkpt lat="47.3666" lon="-1.42092">
        <ele>102</ele>
        <time>2021-05-19T16:01:41.000Z</time>
      </trkpt>
      <trkpt lat="47.36659" lon="-1.42073">
        <ele>103</ele>
        <time>2021-05-19T16:01:43.000Z</time>
      </trkpt>
      <trkpt lat="47.36657" lon="-1.42054">
        <ele>103</ele>
        <time>2021-05-19T16:01:45.000Z</time>
      </trkpt>
      <trkpt lat="47.36656" lon="-1.42035">
        <ele>104</ele>
        <time>2021-05-19T16:01:47.000Z</time>
      </trkpt>
      <trkpt lat="47.36654" lon="-1.42016">
        <ele>104</ele>
        <time>2021-05-19T16:01:49.000Z</time>
      </trkpt>
      <trkpt lat="47.36652" lon="-1.41998">
        <ele>105</ele>
        <time>2021-05-19T16:01:51.000Z</time>
      </trkpt>
      <trkpt lat="47.3665" lon="-1.41979">
        <ele>105</ele>
        <time>2021-05-19T16:01:53.000Z</time>
      </trkpt>
      <trkpt lat="47.36648" lon="-1.4196">
        <ele>105</ele>
        <time>2021-05-19T16:01:55.000Z</time>
      </trkpt>
      <trkpt lat="47.36647" lon="-1.41941">
        <ele>106</ele>
        <time>2021-05-19T16:01:57.000Z</time>
      </trkpt>
      <trkpt lat="47.36645" lon="-1.41923">
        <ele>106</ele>
        <time>2021-05-19T16:01:59.000Z</time>
      </trkpt>
      <trkpt lat="47.36644" lon="-1.41905">
        <ele>106</ele>
        <time>2021-05-19T16:02:01.000Z</time>
      </trkpt>
      <trkpt lat="47.36642" lon="-1.41886">
        <ele>106</ele>
        <time>2021-05-19T16:02:03.000Z</time>
      </trkpt>
      <trkpt lat="47.36641" lon="-1.41868">
        <ele>106</ele>
        <time>2021-05-19T16:02:05.000Z</time>
      </trkpt>
      <trkpt lat="47.3664" lon="-1.4185">
        <ele>107</ele>
        <time>2021-05-19T16:02:07.000Z</time>
      </trkpt>
      <trkpt lat="47.36638" lon="-1.41833">
        <ele>107</ele>
        <time>2021-05-19T16:02:09.000Z</time>
      </trkpt>
      <trkpt lat="47.36636" lon="-1.41815">
        <ele>108</ele>
        <time>2021-05-19T16:02:11.000Z</time>
      </trkpt>
      <trkpt lat="47.36634" lon="-1.41797">
        <ele>108</ele>
        <time>2021-05-19T16:02:13.000Z</time>
      </trkpt>
      <trkpt lat="47.36633" lon="-1.41779">
        <ele>109</ele>
        <time>2021-05-19T16:02:15.000Z</time>
      </trkpt>
      <trkpt lat="47.36631" lon="-1.41761">
        <ele>109</ele>
        <time>2021-05-19T16:02:17.000Z</time>
      </trkpt>
      <trkpt lat="47.36629" lon="-1.41743">
        <ele>109</ele>
        <time>2021-05-19T16:02:19.000Z</time>
      </trkpt>
      <trkpt lat="47.36628" lon="-1.41725">
        <ele>110</ele>
        <time>2021-05-19T16:02:21.000Z</time>
      </trkpt>
      <trkpt lat="47.36626" lon="-1.41706">
        <ele>110</ele>
        <time>2021-05-19T16:02:23.000Z</time>
      </trkpt>
      <trkpt lat="47.36626" lon="-1.41688">
        <ele>110</ele>
        <time>2021-05-19T16:02:25.000Z</time>
      </trkpt>
      <trkpt lat="47.36625" lon="-1.4167">
        <ele>111</ele>
        <time>2021-05-19T16:02:27.000Z</time>
      </trkpt>
      <trkpt lat="47.36625" lon="-1.41651">
        <ele>111</ele>
        <time>2021-05-19T16:02:29.000Z</time>
      </trkpt>
      <trkpt lat="47.36624" lon="-1.41633">
        <ele>111</ele>
        <time>2021-05-19T16:02:31.000Z</time>
      </trkpt>
      <trkpt lat="47.36624" lon="-1.41615">
        <ele>111</ele>
        <time>2021-05-19T16:02:33.000Z</time>
      </trkpt>
      <trkpt lat="47.36626" lon="-1.41597">
        <ele>111</ele>
        <time>2021-05-19T16:02:35.000Z</time>
      </trkpt>
      <trkpt lat="47.36627" lon="-1.41579">
        <ele>111</ele>
        <time>2021-05-19T16:02:37.000Z</time>
      </trkpt>
      <trkpt lat="47.36629" lon="-1.41561">
        <ele>111</ele>
        <time>2021-05-19T16:02:39.000Z</time>
      </trkpt>
      <trkpt lat="47.36629" lon="-1.41544">
        <ele>111</ele>
        <time>2021-05-19T16:02:41.000Z</time>
      </trkpt>
      <trkpt lat="47.36633" lon="-1.41527">
        <ele>111</ele>
        <time>2021-05-19T16:02:43.000Z</time>
      </trkpt>
      <trkpt lat="47.36639" lon="-1.4151">
        <ele>111</ele>
        <time>2021-05-19T16:02:45.000Z</time>
      </trkpt>
      <trkpt lat="47.36643" lon="-1.41494">
        <ele>110</ele>
        <time>2021-05-19T16:02:47.000Z</time>
      </trkpt>
      <trkpt lat="47.36648" lon="-1.41475">
        <ele>110</ele>
        <time>2021-05-19T16:02:49.000Z</time>
      </trkpt>
      <trkpt lat="47.36653" lon="-1.41457">
        <ele>110</ele>
        <time>2021-05-19T16:02:51.000Z</time>
      </trkpt>
      <trkpt lat="47.36658" lon="-1.41438">
        <ele>110</ele>
        <time>2021-05-19T16:02:53.000Z</time>
      </trkpt>
      <trkpt lat="47.36664" lon="-1.41421">
        <ele>110</ele>
        <time>2021-05-19T16:02:55.000Z</time>
      </trkpt>
      <trkpt lat="47.3667" lon="-1.41404">
        <ele>110</ele>
        <time>2021-05-19T16:02:57.000Z</time>
      </trkpt>
      <trkpt lat="47.36676" lon="-1.41387">
        <ele>110</ele>
        <time>2021-05-19T16:02:59.000Z</time>
      </trkpt>
      <trkpt lat="47.36682" lon="-1.41369">
        <ele>111</ele>
        <time>2021-05-19T16:03:01.000Z</time>
      </trkpt>
      <trkpt lat="47.36689" lon="-1.41352">
        <ele>110</ele>
        <time>2021-05-19T16:03:03.000Z</time>
      </trkpt>
      <trkpt lat="47.36696" lon="-1.41334">
        <ele>110</ele>
        <time>2021-05-19T16:03:05.000Z</time>
      </trkpt>
      <trkpt lat="47.36702" lon="-1.41315">
        <ele>110</ele>
        <time>2021-05-19T16:03:07.000Z</time>
      </trkpt>
      <trkpt lat="47.3671" lon="-1.41296">
        <ele>109</ele>
        <time>2021-05-19T16:03:09.000Z</time>
      </trkpt>
      <trkpt lat="47.36717" lon="-1.41278">
        <ele>109</ele>
        <time>2021-05-19T16:03:11.000Z</time>
      </trkpt>
      <trkpt lat="47.36724" lon="-1.4126">
        <ele>108</ele>
        <time>2021-05-19T16:03:13.000Z</time>
      </trkpt>
      <trkpt lat="47.36731" lon="-1.41241">
        <ele>108</ele>
        <time>2021-05-19T16:03:15.000Z</time>
      </trkpt>
      <trkpt lat="47.36737" lon="-1.41221">
        <ele>108</ele>
        <time>2021-05-19T16:03:17.000Z</time>
      </trkpt>
      <trkpt lat="47.36742" lon="-1.412">
        <ele>107</ele>
        <time>2021-05-19T16:03:19.000Z</time>
      </trkpt>
      <trkpt lat="47.36743" lon="-1.41178">
        <ele>107</ele>
        <time>2021-05-19T16:03:21.000Z</time>
      </trkpt>
      <trkpt lat="47.3674" lon="-1.41156">
        <ele>107</ele>
        <time>2021-05-19T16:03:23.000Z</time>
      </trkpt>
      <trkpt lat="47.36736" lon="-1.41135">
        <ele>107</ele>
        <time>2021-05-19T16:03:25.000Z</time>
      </trkpt>
      <trkpt lat="47.36731" lon="-1.41113">
        <ele>107</ele>
        <time>2021-05-19T16:03:27.000Z</time>
      </trkpt>
      <trkpt lat="47.36726" lon="-1.41093">
        <ele>107</ele>
        <time>2021-05-19T16:03:29.000Z</time>
      </trkpt>
      <trkpt lat="47.3672" lon="-1.41073">
        <ele>106</ele>
        <time>2021-05-19T16:03:31.000Z</time>
      </trkpt>
      <trkpt lat="47.36715" lon="-1.41052">
        <ele>106</ele>
        <time>2021-05-19T16:03:33.000Z</time>
      </trkpt>
      <trkpt lat="47.36709" lon="-1.41031">
        <ele>106</ele>
        <time>2021-05-19T16:03:35.000Z</time>
      </trkpt>
      <trkpt lat="47.36704" lon="-1.41009">
        <ele>106</ele>
        <time>2021-05-19T16:03:37.000Z</time>
      </trkpt>
      <trkpt lat="47.36698" lon="-1.40988">
        <ele>106</ele>
        <time>2021-05-19T16:03:39.000Z</time>
      </trkpt>
      <trkpt lat="47.36694" lon="-1.40967">
        <ele>106</ele>
        <time>2021-05-19T16:03:41.000Z</time>
      </trkpt>
      <trkpt lat="47.36691" lon="-1.40946">
        <ele>106</ele>
        <time>2021-05-19T16:03:43.000Z</time>
      </trkpt>
      <trkpt lat="47.36689" lon="-1.40925">
        <ele>107</ele>
        <time>2021-05-19T16:03:45.000Z</time>
      </trkpt>
      <trkpt lat="47.36689" lon="-1.40904">
        <ele>107</ele>
        <time>2021-05-19T16:03:47.000Z</time>
      </trkpt>
      <trkpt lat="47.3669" lon="-1.40883">
        <ele>108</ele>
        <time>2021-05-19T16:03:49.000Z</time>
      </trkpt>
      <trkpt lat="47.3669" lon="-1.40861">
        <ele>107</ele>
        <time>2021-05-19T16:03:51.000Z</time>
      </trkpt>
      <trkpt lat="47.3669" lon="-1.4084">
        <ele>108</ele>
        <time>2021-05-19T16:03:53.000Z</time>
      </trkpt>
      <trkpt lat="47.36691" lon="-1.40819">
        <ele>108</ele>
        <time>2021-05-19T16:03:55.000Z</time>
      </trkpt>
      <trkpt lat="47.36692" lon="-1.408">
        <ele>107</ele>
        <time>2021-05-19T16:03:57.000Z</time>
      </trkpt>
      <trkpt lat="47.36692" lon="-1.4078">
        <ele>107</ele>
        <time>2021-05-19T16:03:59.000Z</time>
      </trkpt>
      <trkpt lat="47.36693" lon="-1.40762">
        <ele>107</ele>
        <time>2021-05-19T16:04:01.000Z</time>
      </trkpt>
      <trkpt lat="47.36693" lon="-1.40742">
        <ele>107</ele>
        <time>2021-05-19T16:04:03.000Z</time>
      </trkpt>
      <trkpt lat="47.36694" lon="-1.40722">
        <ele>107</ele>
        <time>2021-05-19T16:04:05.000Z</time>
      </trkpt>
      <trkpt lat="47.36694" lon="-1.40703">
        <ele>107</ele>
        <time>2021-05-19T16:04:07.000Z</time>
      </trkpt>
      <trkpt lat="47.36695" lon="-1.40684">
        <ele>106</ele>
        <time>2021-05-19T16:04:09.000Z</time>
      </trkpt>
      <trkpt lat="47.36695" lon="-1.40664">
        <ele>106</ele>
        <time>2021-05-19T16:04:11.000Z</time>
      </trkpt>
      <trkpt lat="47.36696" lon="-1.40644">
        <ele>106</ele>
        <time>2021-05-19T16:04:13.000Z</time>
      </trkpt>
      <trkpt lat="47.36696" lon="-1.40623">
        <ele>105</ele>
        <time>2021-05-19T16:04:15.000Z</time>
      </trkpt>
      <trkpt lat="47.36697" lon="-1.40603">
        <ele>104</ele>
        <time>2021-05-19T16:04:17.000Z</time>
      </trkpt>
      <trkpt lat="47.36698" lon="-1.4058">
        <ele>104</ele>
        <time>2021-05-19T16:04:19.000Z</time>
      </trkpt>
      <trkpt lat="47.36698" lon="-1.4056">
        <ele>104</ele>
        <time>2021-05-19T16:04:21.000Z</time>
      </trkpt>
      <trkpt lat="47.36699" lon="-1.40542">
        <ele>103</ele>
        <time>2021-05-19T16:04:23.000Z</time>
      </trkpt>
      <trkpt lat="47.36696" lon="-1.40528">
        <ele>103</ele>
        <time>2021-05-19T16:04:25.000Z</time>
      </trkpt>
      <trkpt lat="47.36702" lon="-1.40515">
        <ele>103</ele>
        <time>2021-05-19T16:04:27.000Z</time>
      </trkpt>
      <trkpt lat="47.36715" lon="-1.40515">
        <ele>102</ele>
        <time>2021-05-19T16:04:29.000Z</time>
      </trkpt>
      <trkpt lat="47.36727" lon="-1.40506">
        <ele>102</ele>
        <time>2021-05-19T16:04:31.000Z</time>
      </trkpt>
      <trkpt lat="47.3673" lon="-1.40486">
        <ele>102</ele>
        <time>2021-05-19T16:04:33.000Z</time>
      </trkpt>
      <trkpt lat="47.36731" lon="-1.40462">
        <ele>102</ele>
        <time>2021-05-19T16:04:35.000Z</time>
      </trkpt>
      <trkpt lat="47.36732" lon="-1.4044">
        <ele>102</ele>
        <time>2021-05-19T16:04:37.000Z</time>
      </trkpt>
      <trkpt lat="47.36734" lon="-1.40418">
        <ele>102</ele>
        <time>2021-05-19T16:04:39.000Z</time>
      </trkpt>
      <trkpt lat="47.36737" lon="-1.40394">
        <ele>101</ele>
        <time>2021-05-19T16:04:41.000Z</time>
      </trkpt>
      <trkpt lat="47.36741" lon="-1.40371">
        <ele>100</ele>
        <time>2021-05-19T16:04:43.000Z</time>
      </trkpt>
      <trkpt lat="47.36745" lon="-1.40347">
        <ele>100</ele>
        <time>2021-05-19T16:04:45.000Z</time>
      </trkpt>
      <trkpt lat="47.36749" lon="-1.40324">
        <ele>100</ele>
        <time>2021-05-19T16:04:47.000Z</time>
      </trkpt>
      <trkpt lat="47.36752" lon="-1.40301">
        <ele>99</ele>
        <time>2021-05-19T16:04:49.000Z</time>
      </trkpt>
      <trkpt lat="47.36756" lon="-1.40278">
        <ele>98</ele>
        <time>2021-05-19T16:04:51.000Z</time>
      </trkpt>
      <trkpt lat="47.36759" lon="-1.40255">
        <ele>98</ele>
        <time>2021-05-19T16:04:53.000Z</time>
      </trkpt>
      <trkpt lat="47.36761" lon="-1.40229">
        <ele>98</ele>
        <time>2021-05-19T16:04:55.000Z</time>
      </trkpt>
      <trkpt lat="47.36763" lon="-1.40205">
        <ele>98</ele>
        <time>2021-05-19T16:04:57.000Z</time>
      </trkpt>
      <trkpt lat="47.36764" lon="-1.40181">
        <ele>98</ele>
        <time>2021-05-19T16:04:59.000Z</time>
      </trkpt>
      <trkpt lat="47.36764" lon="-1.40158">
        <ele>98</ele>
        <time>2021-05-19T16:05:01.000Z</time>
      </trkpt>
      <trkpt lat="47.36764" lon="-1.40135">
        <ele>98</ele>
        <time>2021-05-19T16:05:03.000Z</time>
      </trkpt>
      <trkpt lat="47.36763" lon="-1.40112">
        <ele>98</ele>
        <time>2021-05-19T16:05:05.000Z</time>
      </trkpt>
      <trkpt lat="47.36763" lon="-1.4009">
        <ele>98</ele>
        <time>2021-05-19T16:05:07.000Z</time>
      </trkpt>
      <trkpt lat="47.36762" lon="-1.4007">
        <ele>98</ele>
        <time>2021-05-19T16:05:09.000Z</time>
      </trkpt>
      <trkpt lat="47.36762" lon="-1.40052">
        <ele>100</ele>
        <time>2021-05-19T16:05:11.000Z</time>
      </trkpt>
      <trkpt lat="47.36762" lon="-1.40034">
        <ele>100</ele>
        <time>2021-05-19T16:05:13.000Z</time>
      </trkpt>
      <trkpt lat="47.36763" lon="-1.40016">
        <ele>100</ele>
        <time>2021-05-19T16:05:15.000Z</time>
      </trkpt>
      <trkpt lat="47.36764" lon="-1.39999">
        <ele>100</ele>
        <time>2021-05-19T16:05:17.000Z</time>
      </trkpt>
      <trkpt lat="47.36764" lon="-1.39983">
        <ele>101</ele>
        <time>2021-05-19T16:05:19.000Z</time>
      </trkpt>
      <trkpt lat="47.36764" lon="-1.39966">
        <ele>101</ele>
        <time>2021-05-19T16:05:21.000Z</time>
      </trkpt>
      <trkpt lat="47.36764" lon="-1.3995">
        <ele>103</ele>
        <time>2021-05-19T16:05:23.000Z</time>
      </trkpt>
      <trkpt lat="47.36763" lon="-1.39934">
        <ele>103</ele>
        <time>2021-05-19T16:05:25.000Z</time>
      </trkpt>
      <trkpt lat="47.36763" lon="-1.39918">
        <ele>103</ele>
        <time>2021-05-19T16:05:27.000Z</time>
      </trkpt>
      <trkpt lat="47.36762" lon="-1.399">
        <ele>105</ele>
        <time>2021-05-19T16:05:29.000Z</time>
      </trkpt>
      <trkpt lat="47.36763" lon="-1.39882">
        <ele>105</ele>
        <time>2021-05-19T16:05:31.000Z</time>
      </trkpt>
      <trkpt lat="47.36763" lon="-1.39864">
        <ele>105</ele>
        <time>2021-05-19T16:05:33.000Z</time>
      </trkpt>
      <trkpt lat="47.36764" lon="-1.39846">
        <ele>106</ele>
        <time>2021-05-19T16:05:35.000Z</time>
      </trkpt>
      <trkpt lat="47.36764" lon="-1.39828">
        <ele>106</ele>
        <time>2021-05-19T16:05:37.000Z</time>
      </trkpt>
      <trkpt lat="47.36764" lon="-1.39811">
        <ele>107</ele>
        <time>2021-05-19T16:05:39.000Z</time>
      </trkpt>
      <trkpt lat="47.36764" lon="-1.39794">
        <ele>108</ele>
        <time>2021-05-19T16:05:41.000Z</time>
      </trkpt>
      <trkpt lat="47.36764" lon="-1.39777">
        <ele>108</ele>
        <time>2021-05-19T16:05:43.000Z</time>
      </trkpt>
      <trkpt lat="47.36764" lon="-1.3976">
        <ele>108</ele>
        <time>2021-05-19T16:05:45.000Z</time>
      </trkpt>
      <trkpt lat="47.36764" lon="-1.39743">
        <ele>108</ele>
        <time>2021-05-19T16:05:47.000Z</time>
      </trkpt>
      <trkpt lat="47.36764" lon="-1.39725">
        <ele>108</ele>
        <time>2021-05-19T16:05:49.000Z</time>
      </trkpt>
      <trkpt lat="47.36764" lon="-1.39708">
        <ele>108</ele>
        <time>2021-05-19T16:05:51.000Z</time>
      </trkpt>
      <trkpt lat="47.36764" lon="-1.39691">
        <ele>109</ele>
        <time>2021-05-19T16:05:53.000Z</time>
      </trkpt>
      <trkpt lat="47.36764" lon="-1.39674">
        <ele>109</ele>
        <time>2021-05-19T16:05:55.000Z</time>
      </trkpt>
      <trkpt lat="47.36765" lon="-1.39657">
        <ele>109</ele>
        <time>2021-05-19T16:05:57.000Z</time>
      </trkpt>
      <trkpt lat="47.36764" lon="-1.39639">
        <ele>110</ele>
        <time>2021-05-19T16:05:59.000Z</time>
      </trkpt>
      <trkpt lat="47.36765" lon="-1.39622">
        <ele>110</ele>
        <time>2021-05-19T16:06:01.000Z</time>
      </trkpt>
      <trkpt lat="47.36764" lon="-1.39605">
        <ele>110</ele>
        <time>2021-05-19T16:06:03.000Z</time>
      </trkpt>
      <trkpt lat="47.36764" lon="-1.39587">
        <ele>110</ele>
        <time>2021-05-19T16:06:05.000Z</time>
      </trkpt>
      <trkpt lat="47.36764" lon="-1.3957">
        <ele>110</ele>
        <time>2021-05-19T16:06:07.000Z</time>
      </trkpt>
      <trkpt lat="47.36763" lon="-1.39552">
        <ele>110</ele>
        <time>2021-05-19T16:06:09.000Z</time>
      </trkpt>
      <trkpt lat="47.36763" lon="-1.39534">
        <ele>111</ele>
        <time>2021-05-19T16:06:11.000Z</time>
      </trkpt>
      <trkpt lat="47.36764" lon="-1.39516">
        <ele>110</ele>
        <time>2021-05-19T16:06:13.000Z</time>
      </trkpt>
      <trkpt lat="47.36765" lon="-1.39497">
        <ele>111</ele>
        <time>2021-05-19T16:06:15.000Z</time>
      </trkpt>
      <trkpt lat="47.36765" lon="-1.39479">
        <ele>111</ele>
        <time>2021-05-19T16:06:17.000Z</time>
      </trkpt>
      <trkpt lat="47.36766" lon="-1.3946">
        <ele>111</ele>
        <time>2021-05-19T16:06:19.000Z</time>
      </trkpt>
      <trkpt lat="47.36766" lon="-1.39442">
        <ele>110</ele>
        <time>2021-05-19T16:06:21.000Z</time>
      </trkpt>
      <trkpt lat="47.36766" lon="-1.39423">
        <ele>111</ele>
        <time>2021-05-19T16:06:23.000Z</time>
      </trkpt>
      <trkpt lat="47.36766" lon="-1.39405">
        <ele>110</ele>
        <time>2021-05-19T16:06:25.000Z</time>
      </trkpt>
      <trkpt lat="47.36766" lon="-1.39386">
        <ele>110</ele>
        <time>2021-05-19T16:06:27.000Z</time>
      </trkpt>
      <trkpt lat="47.36765" lon="-1.39368">
        <ele>110</ele>
        <time>2021-05-19T16:06:29.000Z</time>
      </trkpt>
      <trkpt lat="47.36765" lon="-1.3935">
        <ele>111</ele>
        <time>2021-05-19T16:06:31.000Z</time>
      </trkpt>
      <trkpt lat="47.36763" lon="-1.39332">
        <ele>110</ele>
        <time>2021-05-19T16:06:33.000Z</time>
      </trkpt>
      <trkpt lat="47.3676" lon="-1.39313">
        <ele>111</ele>
        <time>2021-05-19T16:06:35.000Z</time>
      </trkpt>
      <trkpt lat="47.36757" lon="-1.39295">
        <ele>111</ele>
        <time>2021-05-19T16:06:37.000Z</time>
      </trkpt>
      <trkpt lat="47.36752" lon="-1.39277">
        <ele>110</ele>
        <time>2021-05-19T16:06:39.000Z</time>
      </trkpt>
      <trkpt lat="47.36746" lon="-1.3926">
        <ele>110</ele>
        <time>2021-05-19T16:06:41.000Z</time>
      </trkpt>
      <trkpt lat="47.36739" lon="-1.39244">
        <ele>111</ele>
        <time>2021-05-19T16:06:43.000Z</time>
      </trkpt>
      <trkpt lat="47.36731" lon="-1.39228">
        <ele>111</ele>
        <time>2021-05-19T16:06:45.000Z</time>
      </trkpt>
      <trkpt lat="47.36724" lon="-1.39213">
        <ele>111</ele>
        <time>2021-05-19T16:06:47.000Z</time>
      </trkpt>
      <trkpt lat="47.36716" lon="-1.39197">
        <ele>111</ele>
        <time>2021-05-19T16:06:49.000Z</time>
      </trkpt>
      <trkpt lat="47.36709" lon="-1.39181">
        <ele>111</ele>
        <time>2021-05-19T16:06:51.000Z</time>
      </trkpt>
      <trkpt lat="47.36702" lon="-1.39166">
        <ele>111</ele>
        <time>2021-05-19T16:06:53.000Z</time>
      </trkpt>
      <trkpt lat="47.36694" lon="-1.3915">
        <ele>111</ele>
        <time>2021-05-19T16:06:55.000Z</time>
      </trkpt>
      <trkpt lat="47.36687" lon="-1.39134">
        <ele>111</ele>
        <time>2021-05-19T16:06:57.000Z</time>
      </trkpt>
      <trkpt lat="47.36679" lon="-1.39118">
        <ele>111</ele>
        <time>2021-05-19T16:06:59.000Z</time>
      </trkpt>
      <trkpt lat="47.36672" lon="-1.39103">
        <ele>111</ele>
        <time>2021-05-19T16:07:01.000Z</time>
      </trkpt>
      <trkpt lat="47.36664" lon="-1.39087">
        <ele>111</ele>
        <time>2021-05-19T16:07:03.000Z</time>
      </trkpt>
      <trkpt lat="47.36657" lon="-1.39072">
        <ele>112</ele>
        <time>2021-05-19T16:07:05.000Z</time>
      </trkpt>
      <trkpt lat="47.36649" lon="-1.39057">
        <ele>112</ele>
        <time>2021-05-19T16:07:07.000Z</time>
      </trkpt>
      <trkpt lat="47.36642" lon="-1.39042">
        <ele>112</ele>
        <time>2021-05-19T16:07:09.000Z</time>
      </trkpt>
      <trkpt lat="47.36635" lon="-1.39027">
        <ele>112</ele>
        <time>2021-05-19T16:07:11.000Z</time>
      </trkpt>
      <trkpt lat="47.36628" lon="-1.39011">
        <ele>112</ele>
        <time>2021-05-19T16:07:13.000Z</time>
      </trkpt>
      <trkpt lat="47.3662" lon="-1.38995">
        <ele>112</ele>
        <time>2021-05-19T16:07:15.000Z</time>
      </trkpt>
      <trkpt lat="47.36612" lon="-1.3898">
        <ele>112</ele>
        <time>2021-05-19T16:07:17.000Z</time>
      </trkpt>
      <trkpt lat="47.36604" lon="-1.38965">
        <ele>113</ele>
        <time>2021-05-19T16:07:19.000Z</time>
      </trkpt>
      <trkpt lat="47.36596" lon="-1.38949">
        <ele>113</ele>
        <time>2021-05-19T16:07:21.000Z</time>
      </trkpt>
      <trkpt lat="47.36589" lon="-1.38935">
        <ele>113</ele>
        <time>2021-05-19T16:07:23.000Z</time>
      </trkpt>
      <trkpt lat="47.36582" lon="-1.3892">
        <ele>113</ele>
        <time>2021-05-19T16:07:25.000Z</time>
      </trkpt>
      <trkpt lat="47.36575" lon="-1.38904">
        <ele>113</ele>
        <time>2021-05-19T16:07:27.000Z</time>
      </trkpt>
      <trkpt lat="47.36569" lon="-1.38889">
        <ele>113</ele>
        <time>2021-05-19T16:07:29.000Z</time>
      </trkpt>
      <trkpt lat="47.36562" lon="-1.38874">
        <ele>113</ele>
        <time>2021-05-19T16:07:31.000Z</time>
      </trkpt>
      <trkpt lat="47.3655" lon="-1.38852">
        <ele>113</ele>
        <time>2021-05-19T16:07:34.000Z</time>
      </trkpt>
      <trkpt lat="47.36544" lon="-1.38837">
        <ele>113</ele>
        <time>2021-05-19T16:07:36.000Z</time>
      </trkpt>
      <trkpt lat="47.36536" lon="-1.38822">
        <ele>113</ele>
        <time>2021-05-19T16:07:38.000Z</time>
      </trkpt>
      <trkpt lat="47.36529" lon="-1.38807">
        <ele>113</ele>
        <time>2021-05-19T16:07:40.000Z</time>
      </trkpt>
      <trkpt lat="47.36522" lon="-1.38792">
        <ele>113</ele>
        <time>2021-05-19T16:07:42.000Z</time>
      </trkpt>
      <trkpt lat="47.36515" lon="-1.38777">
        <ele>114</ele>
        <time>2021-05-19T16:07:44.000Z</time>
      </trkpt>
      <trkpt lat="47.36508" lon="-1.38761">
        <ele>114</ele>
        <time>2021-05-19T16:07:46.000Z</time>
      </trkpt>
      <trkpt lat="47.365" lon="-1.38745">
        <ele>114</ele>
        <time>2021-05-19T16:07:48.000Z</time>
      </trkpt>
      <trkpt lat="47.36493" lon="-1.3873">
        <ele>114</ele>
        <time>2021-05-19T16:07:50.000Z</time>
      </trkpt>
      <trkpt lat="47.36486" lon="-1.38714">
        <ele>114</ele>
        <time>2021-05-19T16:07:52.000Z</time>
      </trkpt>
      <trkpt lat="47.36479" lon="-1.38699">
        <ele>114</ele>
        <time>2021-05-19T16:07:54.000Z</time>
      </trkpt>
      <trkpt lat="47.36472" lon="-1.38683">
        <ele>114</ele>
        <time>2021-05-19T16:07:56.000Z</time>
      </trkpt>
      <trkpt lat="47.36465" lon="-1.38669">
        <ele>114</ele>
        <time>2021-05-19T16:07:58.000Z</time>
      </trkpt>
      <trkpt lat="47.36457" lon="-1.38654">
        <ele>114</ele>
        <time>2021-05-19T16:08:00.000Z</time>
      </trkpt>
      <trkpt lat="47.3645" lon="-1.38638">
        <ele>114</ele>
        <time>2021-05-19T16:08:02.000Z</time>
      </trkpt>
      <trkpt lat="47.36443" lon="-1.38623">
        <ele>114</ele>
        <time>2021-05-19T16:08:04.000Z</time>
      </trkpt>
      <trkpt lat="47.36436" lon="-1.38608">
        <ele>114</ele>
        <time>2021-05-19T16:08:06.000Z</time>
      </trkpt>
      <trkpt lat="47.36429" lon="-1.38593">
        <ele>114</ele>
        <time>2021-05-19T16:08:08.000Z</time>
      </trkpt>
      <trkpt lat="47.36421" lon="-1.38578">
        <ele>114</ele>
        <time>2021-05-19T16:08:10.000Z</time>
      </trkpt>
      <trkpt lat="47.36409" lon="-1.38556">
        <ele>115</ele>
        <time>2021-05-19T16:08:13.000Z</time>
      </trkpt>
      <trkpt lat="47.36401" lon="-1.38543">
        <ele>115</ele>
        <time>2021-05-19T16:08:15.000Z</time>
      </trkpt>
      <trkpt lat="47.36392" lon="-1.38529">
        <ele>115</ele>
        <time>2021-05-19T16:08:17.000Z</time>
      </trkpt>
      <trkpt lat="47.36383" lon="-1.38516">
        <ele>115</ele>
        <time>2021-05-19T16:08:19.000Z</time>
      </trkpt>
      <trkpt lat="47.36375" lon="-1.38503">
        <ele>115</ele>
        <time>2021-05-19T16:08:21.000Z</time>
      </trkpt>
      <trkpt lat="47.36366" lon="-1.3849">
        <ele>115</ele>
        <time>2021-05-19T16:08:23.000Z</time>
      </trkpt>
      <trkpt lat="47.36357" lon="-1.38476">
        <ele>115</ele>
        <time>2021-05-19T16:08:25.000Z</time>
      </trkpt>
      <trkpt lat="47.36348" lon="-1.38463">
        <ele>115</ele>
        <time>2021-05-19T16:08:27.000Z</time>
      </trkpt>
      <trkpt lat="47.36339" lon="-1.38449">
        <ele>115</ele>
        <time>2021-05-19T16:08:29.000Z</time>
      </trkpt>
      <trkpt lat="47.3633" lon="-1.38435">
        <ele>115</ele>
        <time>2021-05-19T16:08:31.000Z</time>
      </trkpt>
      <trkpt lat="47.3632" lon="-1.38421">
        <ele>114</ele>
        <time>2021-05-19T16:08:33.000Z</time>
      </trkpt>
      <trkpt lat="47.3631" lon="-1.38406">
        <ele>114</ele>
        <time>2021-05-19T16:08:35.000Z</time>
      </trkpt>
      <trkpt lat="47.363" lon="-1.38391">
        <ele>114</ele>
        <time>2021-05-19T16:08:37.000Z</time>
      </trkpt>
      <trkpt lat="47.36285" lon="-1.38368">
        <ele>114</ele>
        <time>2021-05-19T16:08:40.000Z</time>
      </trkpt>
      <trkpt lat="47.36275" lon="-1.38353">
        <ele>114</ele>
        <time>2021-05-19T16:08:42.000Z</time>
      </trkpt>
      <trkpt lat="47.36265" lon="-1.38338">
        <ele>114</ele>
        <time>2021-05-19T16:08:44.000Z</time>
      </trkpt>
      <trkpt lat="47.36255" lon="-1.38323">
        <ele>113</ele>
        <time>2021-05-19T16:08:46.000Z</time>
      </trkpt>
      <trkpt lat="47.3624" lon="-1.38301">
        <ele>113</ele>
        <time>2021-05-19T16:08:49.000Z</time>
      </trkpt>
      <trkpt lat="47.3623" lon="-1.38285">
        <ele>113</ele>
        <time>2021-05-19T16:08:51.000Z</time>
      </trkpt>
      <trkpt lat="47.3622" lon="-1.3827">
        <ele>113</ele>
        <time>2021-05-19T16:08:53.000Z</time>
      </trkpt>
      <trkpt lat="47.3621" lon="-1.38255">
        <ele>113</ele>
        <time>2021-05-19T16:08:55.000Z</time>
      </trkpt>
      <trkpt lat="47.362" lon="-1.3824">
        <ele>113</ele>
        <time>2021-05-19T16:08:57.000Z</time>
      </trkpt>
      <trkpt lat="47.3619" lon="-1.38225">
        <ele>113</ele>
        <time>2021-05-19T16:08:59.000Z</time>
      </trkpt>
      <trkpt lat="47.36181" lon="-1.3821">
        <ele>113</ele>
        <time>2021-05-19T16:09:01.000Z</time>
      </trkpt>
      <trkpt lat="47.36171" lon="-1.38195">
        <ele>113</ele>
        <time>2021-05-19T16:09:03.000Z</time>
      </trkpt>
      <trkpt lat="47.36161" lon="-1.38181">
        <ele>114</ele>
        <time>2021-05-19T16:09:05.000Z</time>
      </trkpt>
      <trkpt lat="47.36151" lon="-1.38167">
        <ele>114</ele>
        <time>2021-05-19T16:09:07.000Z</time>
      </trkpt>
      <trkpt lat="47.36141" lon="-1.38152">
        <ele>114</ele>
        <time>2021-05-19T16:09:09.000Z</time>
      </trkpt>
      <trkpt lat="47.36126" lon="-1.38131">
        <ele>115</ele>
        <time>2021-05-19T16:09:12.000Z</time>
      </trkpt>
      <trkpt lat="47.36117" lon="-1.38116">
        <ele>115</ele>
        <time>2021-05-19T16:09:14.000Z</time>
      </trkpt>
      <trkpt lat="47.36108" lon="-1.38102">
        <ele>115</ele>
        <time>2021-05-19T16:09:16.000Z</time>
      </trkpt>
      <trkpt lat="47.36093" lon="-1.3808">
        <ele>115</ele>
        <time>2021-05-19T16:09:19.000Z</time>
      </trkpt>
      <trkpt lat="47.36083" lon="-1.38066">
        <ele>115</ele>
        <time>2021-05-19T16:09:21.000Z</time>
      </trkpt>
      <trkpt lat="47.36074" lon="-1.38053">
        <ele>115</ele>
        <time>2021-05-19T16:09:23.000Z</time>
      </trkpt>
      <trkpt lat="47.36065" lon="-1.38039">
        <ele>116</ele>
        <time>2021-05-19T16:09:25.000Z</time>
      </trkpt>
      <trkpt lat="47.36056" lon="-1.38025">
        <ele>116</ele>
        <time>2021-05-19T16:09:27.000Z</time>
      </trkpt>
      <trkpt lat="47.36047" lon="-1.38011">
        <ele>116</ele>
        <time>2021-05-19T16:09:29.000Z</time>
      </trkpt>
      <trkpt lat="47.36037" lon="-1.37997">
        <ele>117</ele>
        <time>2021-05-19T16:09:31.000Z</time>
      </trkpt>
      <trkpt lat="47.36023" lon="-1.37977">
        <ele>117</ele>
        <time>2021-05-19T16:09:34.000Z</time>
      </trkpt>
      <trkpt lat="47.36014" lon="-1.37963">
        <ele>117</ele>
        <time>2021-05-19T16:09:36.000Z</time>
      </trkpt>
      <trkpt lat="47.36005" lon="-1.37949">
        <ele>117</ele>
        <time>2021-05-19T16:09:38.000Z</time>
      </trkpt>
      <trkpt lat="47.35996" lon="-1.37936">
        <ele>118</ele>
        <time>2021-05-19T16:09:40.000Z</time>
      </trkpt>
      <trkpt lat="47.35987" lon="-1.37923">
        <ele>118</ele>
        <time>2021-05-19T16:09:42.000Z</time>
      </trkpt>
      <trkpt lat="47.35979" lon="-1.3791">
        <ele>118</ele>
        <time>2021-05-19T16:09:44.000Z</time>
      </trkpt>
      <trkpt lat="47.3597" lon="-1.37896">
        <ele>119</ele>
        <time>2021-05-19T16:09:46.000Z</time>
      </trkpt>
      <trkpt lat="47.35961" lon="-1.37883">
        <ele>119</ele>
        <time>2021-05-19T16:09:48.000Z</time>
      </trkpt>
      <trkpt lat="47.35952" lon="-1.37869">
        <ele>119</ele>
        <time>2021-05-19T16:09:50.000Z</time>
      </trkpt>
      <trkpt lat="47.35944" lon="-1.37856">
        <ele>119</ele>
        <time>2021-05-19T16:09:52.000Z</time>
      </trkpt>
      <trkpt lat="47.35935" lon="-1.37842">
        <ele>119</ele>
        <time>2021-05-19T16:09:54.000Z</time>
      </trkpt>
      <trkpt lat="47.35925" lon="-1.37828">
        <ele>120</ele>
        <time>2021-05-19T16:09:56.000Z</time>
      </trkpt>
      <trkpt lat="47.35916" lon="-1.37815">
        <ele>120</ele>
        <time>2021-05-19T16:09:58.000Z</time>
      </trkpt>
      <trkpt lat="47.35907" lon="-1.37802">
        <ele>120</ele>
        <time>2021-05-19T16:10:00.000Z</time>
      </trkpt>
      <trkpt lat="47.35899" lon="-1.37788">
        <ele>120</ele>
        <time>2021-05-19T16:10:02.000Z</time>
      </trkpt>
      <trkpt lat="47.35889" lon="-1.37775">
        <ele>121</ele>
        <time>2021-05-19T16:10:04.000Z</time>
      </trkpt>
      <trkpt lat="47.35881" lon="-1.37762">
        <ele>121</ele>
        <time>2021-05-19T16:10:06.000Z</time>
      </trkpt>
      <trkpt lat="47.35867" lon="-1.37742">
        <ele>121</ele>
        <time>2021-05-19T16:10:09.000Z</time>
      </trkpt>
      <trkpt lat="47.35859" lon="-1.37728">
        <ele>122</ele>
        <time>2021-05-19T16:10:11.000Z</time>
      </trkpt>
      <trkpt lat="47.3585" lon="-1.37715">
        <ele>122</ele>
        <time>2021-05-19T16:10:13.000Z</time>
      </trkpt>
      <trkpt lat="47.35841" lon="-1.37702">
        <ele>122</ele>
        <time>2021-05-19T16:10:15.000Z</time>
      </trkpt>
      <trkpt lat="47.35832" lon="-1.37688">
        <ele>122</ele>
        <time>2021-05-19T16:10:17.000Z</time>
      </trkpt>
      <trkpt lat="47.35823" lon="-1.37675">
        <ele>122</ele>
        <time>2021-05-19T16:10:19.000Z</time>
      </trkpt>
      <trkpt lat="47.35814" lon="-1.37662">
        <ele>123</ele>
        <time>2021-05-19T16:10:21.000Z</time>
      </trkpt>
      <trkpt lat="47.35805" lon="-1.37649">
        <ele>123</ele>
        <time>2021-05-19T16:10:23.000Z</time>
      </trkpt>
      <trkpt lat="47.35796" lon="-1.37636">
        <ele>123</ele>
        <time>2021-05-19T16:10:25.000Z</time>
      </trkpt>
      <trkpt lat="47.35788" lon="-1.37623">
        <ele>124</ele>
        <time>2021-05-19T16:10:27.000Z</time>
      </trkpt>
      <trkpt lat="47.3578" lon="-1.37611">
        <ele>124</ele>
        <time>2021-05-19T16:10:29.000Z</time>
      </trkpt>
      <trkpt lat="47.35772" lon="-1.37598">
        <ele>124</ele>
        <time>2021-05-19T16:10:31.000Z</time>
      </trkpt>
      <trkpt lat="47.35764" lon="-1.37585">
        <ele>124</ele>
        <time>2021-05-19T16:10:33.000Z</time>
      </trkpt>
      <trkpt lat="47.35755" lon="-1.37573">
        <ele>124</ele>
        <time>2021-05-19T16:10:35.000Z</time>
      </trkpt>
      <trkpt lat="47.35743" lon="-1.37553">
        <ele>124</ele>
        <time>2021-05-19T16:10:38.000Z</time>
      </trkpt>
      <trkpt lat="47.35734" lon="-1.37541">
        <ele>124</ele>
        <time>2021-05-19T16:10:40.000Z</time>
      </trkpt>
      <trkpt lat="47.35726" lon="-1.37528">
        <ele>124</ele>
        <time>2021-05-19T16:10:42.000Z</time>
      </trkpt>
      <trkpt lat="47.35717" lon="-1.37515">
        <ele>124</ele>
        <time>2021-05-19T16:10:44.000Z</time>
      </trkpt>
      <trkpt lat="47.35708" lon="-1.37502">
        <ele>124</ele>
        <time>2021-05-19T16:10:46.000Z</time>
      </trkpt>
      <trkpt lat="47.35695" lon="-1.37482">
        <ele>124</ele>
        <time>2021-05-19T16:10:49.000Z</time>
      </trkpt>
      <trkpt lat="47.35686" lon="-1.37469">
        <ele>124</ele>
        <time>2021-05-19T16:10:51.000Z</time>
      </trkpt>
      <trkpt lat="47.35677" lon="-1.37456">
        <ele>124</ele>
        <time>2021-05-19T16:10:53.000Z</time>
      </trkpt>
      <trkpt lat="47.35668" lon="-1.37442">
        <ele>124</ele>
        <time>2021-05-19T16:10:55.000Z</time>
      </trkpt>
      <trkpt lat="47.3566" lon="-1.37428">
        <ele>124</ele>
        <time>2021-05-19T16:10:57.000Z</time>
      </trkpt>
      <trkpt lat="47.35651" lon="-1.37414">
        <ele>124</ele>
        <time>2021-05-19T16:10:59.000Z</time>
      </trkpt>
      <trkpt lat="47.35642" lon="-1.37401">
        <ele>124</ele>
        <time>2021-05-19T16:11:01.000Z</time>
      </trkpt>
      <trkpt lat="47.35633" lon="-1.37388">
        <ele>124</ele>
        <time>2021-05-19T16:11:03.000Z</time>
      </trkpt>
      <trkpt lat="47.35624" lon="-1.37374">
        <ele>124</ele>
        <time>2021-05-19T16:11:05.000Z</time>
      </trkpt>
      <trkpt lat="47.35615" lon="-1.3736">
        <ele>124</ele>
        <time>2021-05-19T16:11:07.000Z</time>
      </trkpt>
      <trkpt lat="47.35606" lon="-1.37347">
        <ele>124</ele>
        <time>2021-05-19T16:11:09.000Z</time>
      </trkpt>
      <trkpt lat="47.35597" lon="-1.37332">
        <ele>123</ele>
        <time>2021-05-19T16:11:11.000Z</time>
      </trkpt>
      <trkpt lat="47.35587" lon="-1.37319">
        <ele>123</ele>
        <time>2021-05-19T16:11:13.000Z</time>
      </trkpt>
      <trkpt lat="47.35577" lon="-1.37305">
        <ele>123</ele>
        <time>2021-05-19T16:11:15.000Z</time>
      </trkpt>
      <trkpt lat="47.35562" lon="-1.37283">
        <ele>123</ele>
        <time>2021-05-19T16:11:18.000Z</time>
      </trkpt>
      <trkpt lat="47.35552" lon="-1.37268">
        <ele>123</ele>
        <time>2021-05-19T16:11:20.000Z</time>
      </trkpt>
      <trkpt lat="47.35541" lon="-1.37253">
        <ele>123</ele>
        <time>2021-05-19T16:11:22.000Z</time>
      </trkpt>
      <trkpt lat="47.35529" lon="-1.37238">
        <ele>123</ele>
        <time>2021-05-19T16:11:24.000Z</time>
      </trkpt>
      <trkpt lat="47.3552" lon="-1.37223">
        <ele>123</ele>
        <time>2021-05-19T16:11:26.000Z</time>
      </trkpt>
      <trkpt lat="47.35511" lon="-1.37207">
        <ele>124</ele>
        <time>2021-05-19T16:11:28.000Z</time>
      </trkpt>
      <trkpt lat="47.35501" lon="-1.37193">
        <ele>124</ele>
        <time>2021-05-19T16:11:30.000Z</time>
      </trkpt>
      <trkpt lat="47.35492" lon="-1.3718">
        <ele>124</ele>
        <time>2021-05-19T16:11:32.000Z</time>
      </trkpt>
      <trkpt lat="47.35484" lon="-1.37166">
        <ele>125</ele>
        <time>2021-05-19T16:11:34.000Z</time>
      </trkpt>
      <trkpt lat="47.35475" lon="-1.37153">
        <ele>125</ele>
        <time>2021-05-19T16:11:36.000Z</time>
      </trkpt>
      <trkpt lat="47.35465" lon="-1.37139">
        <ele>125</ele>
        <time>2021-05-19T16:11:38.000Z</time>
      </trkpt>
      <trkpt lat="47.35456" lon="-1.37126">
        <ele>125</ele>
        <time>2021-05-19T16:11:40.000Z</time>
      </trkpt>
      <trkpt lat="47.35447" lon="-1.37111">
        <ele>125</ele>
        <time>2021-05-19T16:11:42.000Z</time>
      </trkpt>
      <trkpt lat="47.35438" lon="-1.37098">
        <ele>125</ele>
        <time>2021-05-19T16:11:44.000Z</time>
      </trkpt>
      <trkpt lat="47.35428" lon="-1.37084">
        <ele>126</ele>
        <time>2021-05-19T16:11:46.000Z</time>
      </trkpt>
      <trkpt lat="47.35419" lon="-1.3707">
        <ele>126</ele>
        <time>2021-05-19T16:11:48.000Z</time>
      </trkpt>
      <trkpt lat="47.3541" lon="-1.37056">
        <ele>127</ele>
        <time>2021-05-19T16:11:50.000Z</time>
      </trkpt>
      <trkpt lat="47.35401" lon="-1.37042">
        <ele>127</ele>
        <time>2021-05-19T16:11:52.000Z</time>
      </trkpt>
      <trkpt lat="47.35392" lon="-1.37029">
        <ele>127</ele>
        <time>2021-05-19T16:11:54.000Z</time>
      </trkpt>
      <trkpt lat="47.35384" lon="-1.37016">
        <ele>128</ele>
        <time>2021-05-19T16:11:56.000Z</time>
      </trkpt>
      <trkpt lat="47.35375" lon="-1.37002">
        <ele>128</ele>
        <time>2021-05-19T16:11:58.000Z</time>
      </trkpt>
      <trkpt lat="47.35367" lon="-1.36989">
        <ele>128</ele>
        <time>2021-05-19T16:12:00.000Z</time>
      </trkpt>
      <trkpt lat="47.35358" lon="-1.36975">
        <ele>128</ele>
        <time>2021-05-19T16:12:02.000Z</time>
      </trkpt>
      <trkpt lat="47.35349" lon="-1.36961">
        <ele>128</ele>
        <time>2021-05-19T16:12:04.000Z</time>
      </trkpt>
      <trkpt lat="47.3534" lon="-1.36948">
        <ele>128</ele>
        <time>2021-05-19T16:12:06.000Z</time>
      </trkpt>
      <trkpt lat="47.35331" lon="-1.36934">
        <ele>128</ele>
        <time>2021-05-19T16:12:08.000Z</time>
      </trkpt>
      <trkpt lat="47.35322" lon="-1.3692">
        <ele>128</ele>
        <time>2021-05-19T16:12:10.000Z</time>
      </trkpt>
      <trkpt lat="47.35313" lon="-1.36906">
        <ele>128</ele>
        <time>2021-05-19T16:12:12.000Z</time>
      </trkpt>
      <trkpt lat="47.35304" lon="-1.36892">
        <ele>128</ele>
        <time>2021-05-19T16:12:14.000Z</time>
      </trkpt>
      <trkpt lat="47.35294" lon="-1.36878">
        <ele>128</ele>
        <time>2021-05-19T16:12:16.000Z</time>
      </trkpt>
      <trkpt lat="47.35285" lon="-1.36864">
        <ele>128</ele>
        <time>2021-05-19T16:12:18.000Z</time>
      </trkpt>
      <trkpt lat="47.35275" lon="-1.3685">
        <ele>128</ele>
        <time>2021-05-19T16:12:20.000Z</time>
      </trkpt>
      <trkpt lat="47.35266" lon="-1.36836">
        <ele>127</ele>
        <time>2021-05-19T16:12:22.000Z</time>
      </trkpt>
      <trkpt lat="47.35257" lon="-1.36822">
        <ele>128</ele>
        <time>2021-05-19T16:12:24.000Z</time>
      </trkpt>
      <trkpt lat="47.35247" lon="-1.36808">
        <ele>128</ele>
        <time>2021-05-19T16:12:26.000Z</time>
      </trkpt>
      <trkpt lat="47.35238" lon="-1.36794">
        <ele>128</ele>
        <time>2021-05-19T16:12:28.000Z</time>
      </trkpt>
      <trkpt lat="47.35229" lon="-1.36779">
        <ele>128</ele>
        <time>2021-05-19T16:12:30.000Z</time>
      </trkpt>
      <trkpt lat="47.35219" lon="-1.36764">
        <ele>128</ele>
        <time>2021-05-19T16:12:32.000Z</time>
      </trkpt>
      <trkpt lat="47.3521" lon="-1.3675">
        <ele>128</ele>
        <time>2021-05-19T16:12:34.000Z</time>
      </trkpt>
      <trkpt lat="47.352" lon="-1.36736">
        <ele>128</ele>
        <time>2021-05-19T16:12:36.000Z</time>
      </trkpt>
      <trkpt lat="47.35191" lon="-1.36723">
        <ele>129</ele>
        <time>2021-05-19T16:12:38.000Z</time>
      </trkpt>
      <trkpt lat="47.35181" lon="-1.36708">
        <ele>129</ele>
        <time>2021-05-19T16:12:40.000Z</time>
      </trkpt>
      <trkpt lat="47.35172" lon="-1.36694">
        <ele>129</ele>
        <time>2021-05-19T16:12:42.000Z</time>
      </trkpt>
      <trkpt lat="47.35162" lon="-1.3668">
        <ele>129</ele>
        <time>2021-05-19T16:12:44.000Z</time>
      </trkpt>
      <trkpt lat="47.35153" lon="-1.36666">
        <ele>129</ele>
        <time>2021-05-19T16:12:46.000Z</time>
      </trkpt>
      <trkpt lat="47.35144" lon="-1.36651">
        <ele>128</ele>
        <time>2021-05-19T16:12:48.000Z</time>
      </trkpt>
      <trkpt lat="47.35135" lon="-1.36637">
        <ele>128</ele>
        <time>2021-05-19T16:12:50.000Z</time>
      </trkpt>
      <trkpt lat="47.35125" lon="-1.36623">
        <ele>129</ele>
        <time>2021-05-19T16:12:52.000Z</time>
      </trkpt>
      <trkpt lat="47.35116" lon="-1.3661">
        <ele>129</ele>
        <time>2021-05-19T16:12:54.000Z</time>
      </trkpt>
      <trkpt lat="47.35105" lon="-1.36596">
        <ele>129</ele>
        <time>2021-05-19T16:12:56.000Z</time>
      </trkpt>
      <trkpt lat="47.35095" lon="-1.36583">
        <ele>129</ele>
        <time>2021-05-19T16:12:58.000Z</time>
      </trkpt>
      <trkpt lat="47.35085" lon="-1.36569">
        <ele>129</ele>
        <time>2021-05-19T16:13:00.000Z</time>
      </trkpt>
      <trkpt lat="47.35076" lon="-1.36555">
        <ele>128</ele>
        <time>2021-05-19T16:13:02.000Z</time>
      </trkpt>
      <trkpt lat="47.35067" lon="-1.3654">
        <ele>128</ele>
        <time>2021-05-19T16:13:04.000Z</time>
      </trkpt>
      <trkpt lat="47.35059" lon="-1.36525">
        <ele>128</ele>
        <time>2021-05-19T16:13:06.000Z</time>
      </trkpt>
      <trkpt lat="47.3505" lon="-1.36509">
        <ele>128</ele>
        <time>2021-05-19T16:13:08.000Z</time>
      </trkpt>
      <trkpt lat="47.35042" lon="-1.36495">
        <ele>128</ele>
        <time>2021-05-19T16:13:10.000Z</time>
      </trkpt>
      <trkpt lat="47.35033" lon="-1.36481">
        <ele>128</ele>
        <time>2021-05-19T16:13:12.000Z</time>
      </trkpt>
      <trkpt lat="47.35024" lon="-1.36466">
        <ele>127</ele>
        <time>2021-05-19T16:13:14.000Z</time>
      </trkpt>
      <trkpt lat="47.35014" lon="-1.36453">
        <ele>127</ele>
        <time>2021-05-19T16:13:16.000Z</time>
      </trkpt>
      <trkpt lat="47.35004" lon="-1.3644">
        <ele>127</ele>
        <time>2021-05-19T16:13:18.000Z</time>
      </trkpt>
      <trkpt lat="47.34994" lon="-1.36427">
        <ele>127</ele>
        <time>2021-05-19T16:13:20.000Z</time>
      </trkpt>
      <trkpt lat="47.34983" lon="-1.36414">
        <ele>127</ele>
        <time>2021-05-19T16:13:22.000Z</time>
      </trkpt>
      <trkpt lat="47.34972" lon="-1.36401">
        <ele>127</ele>
        <time>2021-05-19T16:13:24.000Z</time>
      </trkpt>
      <trkpt lat="47.34962" lon="-1.36388">
        <ele>127</ele>
        <time>2021-05-19T16:13:26.000Z</time>
      </trkpt>
      <trkpt lat="47.34951" lon="-1.36375">
        <ele>127</ele>
        <time>2021-05-19T16:13:28.000Z</time>
      </trkpt>
      <trkpt lat="47.34941" lon="-1.36362">
        <ele>126</ele>
        <time>2021-05-19T16:13:30.000Z</time>
      </trkpt>
      <trkpt lat="47.34931" lon="-1.36348">
        <ele>126</ele>
        <time>2021-05-19T16:13:32.000Z</time>
      </trkpt>
      <trkpt lat="47.3492" lon="-1.36335">
        <ele>126</ele>
        <time>2021-05-19T16:13:34.000Z</time>
      </trkpt>
      <trkpt lat="47.3491" lon="-1.36322">
        <ele>127</ele>
        <time>2021-05-19T16:13:36.000Z</time>
      </trkpt>
      <trkpt lat="47.349" lon="-1.36306">
        <ele>126</ele>
        <time>2021-05-19T16:13:38.000Z</time>
      </trkpt>
      <trkpt lat="47.3489" lon="-1.3629">
        <ele>126</ele>
        <time>2021-05-19T16:13:40.000Z</time>
      </trkpt>
      <trkpt lat="47.3488" lon="-1.36274">
        <ele>127</ele>
        <time>2021-05-19T16:13:42.000Z</time>
      </trkpt>
      <trkpt lat="47.34871" lon="-1.36259">
        <ele>127</ele>
        <time>2021-05-19T16:13:44.000Z</time>
      </trkpt>
      <trkpt lat="47.34862" lon="-1.36244">
        <ele>127</ele>
        <time>2021-05-19T16:13:46.000Z</time>
      </trkpt>
      <trkpt lat="47.34853" lon="-1.3623">
        <ele>127</ele>
        <time>2021-05-19T16:13:48.000Z</time>
      </trkpt>
      <trkpt lat="47.34844" lon="-1.36215">
        <ele>127</ele>
        <time>2021-05-19T16:13:50.000Z</time>
      </trkpt>
      <trkpt lat="47.34835" lon="-1.36201">
        <ele>128</ele>
        <time>2021-05-19T16:13:52.000Z</time>
      </trkpt>
      <trkpt lat="47.34825" lon="-1.36187">
        <ele>129</ele>
        <time>2021-05-19T16:13:54.000Z</time>
      </trkpt>
      <trkpt lat="47.34816" lon="-1.36174">
        <ele>129</ele>
        <time>2021-05-19T16:13:56.000Z</time>
      </trkpt>
      <trkpt lat="47.34807" lon="-1.36161">
        <ele>129</ele>
        <time>2021-05-19T16:13:58.000Z</time>
      </trkpt>
      <trkpt lat="47.34798" lon="-1.36148">
        <ele>130</ele>
        <time>2021-05-19T16:14:00.000Z</time>
      </trkpt>
      <trkpt lat="47.34788" lon="-1.36135">
        <ele>130</ele>
        <time>2021-05-19T16:14:02.000Z</time>
      </trkpt>
      <trkpt lat="47.34778" lon="-1.36124">
        <ele>130</ele>
        <time>2021-05-19T16:14:04.000Z</time>
      </trkpt>
      <trkpt lat="47.34768" lon="-1.36112">
        <ele>130</ele>
        <time>2021-05-19T16:14:06.000Z</time>
      </trkpt>
      <trkpt lat="47.34758" lon="-1.36101">
        <ele>130</ele>
        <time>2021-05-19T16:14:08.000Z</time>
      </trkpt>
      <trkpt lat="47.34748" lon="-1.36088">
        <ele>130</ele>
        <time>2021-05-19T16:14:10.000Z</time>
      </trkpt>
      <trkpt lat="47.34737" lon="-1.36076">
        <ele>130</ele>
        <time>2021-05-19T16:14:12.000Z</time>
      </trkpt>
      <trkpt lat="47.34726" lon="-1.36063">
        <ele>130</ele>
        <time>2021-05-19T16:14:14.000Z</time>
      </trkpt>
      <trkpt lat="47.34716" lon="-1.36051">
        <ele>129</ele>
        <time>2021-05-19T16:14:16.000Z</time>
      </trkpt>
      <trkpt lat="47.34705" lon="-1.36038">
        <ele>129</ele>
        <time>2021-05-19T16:14:18.000Z</time>
      </trkpt>
      <trkpt lat="47.34694" lon="-1.36026">
        <ele>129</ele>
        <time>2021-05-19T16:14:20.000Z</time>
      </trkpt>
      <trkpt lat="47.34683" lon="-1.36013">
        <ele>128</ele>
        <time>2021-05-19T16:14:22.000Z</time>
      </trkpt>
      <trkpt lat="47.34672" lon="-1.36">
        <ele>127</ele>
        <time>2021-05-19T16:14:24.000Z</time>
      </trkpt>
      <trkpt lat="47.3466" lon="-1.35987">
        <ele>126</ele>
        <time>2021-05-19T16:14:26.000Z</time>
      </trkpt>
      <trkpt lat="47.34648" lon="-1.35974">
        <ele>126</ele>
        <time>2021-05-19T16:14:28.000Z</time>
      </trkpt>
      <trkpt lat="47.34636" lon="-1.35961">
        <ele>126</ele>
        <time>2021-05-19T16:14:30.000Z</time>
      </trkpt>
      <trkpt lat="47.34624" lon="-1.35948">
        <ele>125</ele>
        <time>2021-05-19T16:14:32.000Z</time>
      </trkpt>
      <trkpt lat="47.34612" lon="-1.35935">
        <ele>125</ele>
        <time>2021-05-19T16:14:34.000Z</time>
      </trkpt>
      <trkpt lat="47.346" lon="-1.35922">
        <ele>125</ele>
        <time>2021-05-19T16:14:36.000Z</time>
      </trkpt>
      <trkpt lat="47.34589" lon="-1.35908">
        <ele>125</ele>
        <time>2021-05-19T16:14:38.000Z</time>
      </trkpt>
      <trkpt lat="47.34578" lon="-1.35894">
        <ele>125</ele>
        <time>2021-05-19T16:14:40.000Z</time>
      </trkpt>
      <trkpt lat="47.34568" lon="-1.3588">
        <ele>125</ele>
        <time>2021-05-19T16:14:42.000Z</time>
      </trkpt>
      <trkpt lat="47.34558" lon="-1.35865">
        <ele>124</ele>
        <time>2021-05-19T16:14:44.000Z</time>
      </trkpt>
      <trkpt lat="47.34549" lon="-1.3585">
        <ele>124</ele>
        <time>2021-05-19T16:14:46.000Z</time>
      </trkpt>
      <trkpt lat="47.34539" lon="-1.35835">
        <ele>125</ele>
        <time>2021-05-19T16:14:48.000Z</time>
      </trkpt>
      <trkpt lat="47.34531" lon="-1.35821">
        <ele>125</ele>
        <time>2021-05-19T16:14:50.000Z</time>
      </trkpt>
      <trkpt lat="47.34522" lon="-1.35806">
        <ele>125</ele>
        <time>2021-05-19T16:14:52.000Z</time>
      </trkpt>
      <trkpt lat="47.34514" lon="-1.35791">
        <ele>125</ele>
        <time>2021-05-19T16:14:54.000Z</time>
      </trkpt>
      <trkpt lat="47.34505" lon="-1.35776">
        <ele>125</ele>
        <time>2021-05-19T16:14:56.000Z</time>
      </trkpt>
      <trkpt lat="47.34497" lon="-1.35761">
        <ele>126</ele>
        <time>2021-05-19T16:14:58.000Z</time>
      </trkpt>
      <trkpt lat="47.34488" lon="-1.35747">
        <ele>126</ele>
        <time>2021-05-19T16:15:00.000Z</time>
      </trkpt>
      <trkpt lat="47.34481" lon="-1.35733">
        <ele>126</ele>
        <time>2021-05-19T16:15:02.000Z</time>
      </trkpt>
      <trkpt lat="47.34473" lon="-1.3572">
        <ele>126</ele>
        <time>2021-05-19T16:15:04.000Z</time>
      </trkpt>
      <trkpt lat="47.34467" lon="-1.35706">
        <ele>126</ele>
        <time>2021-05-19T16:15:06.000Z</time>
      </trkpt>
      <trkpt lat="47.34459" lon="-1.35693">
        <ele>127</ele>
        <time>2021-05-19T16:15:08.000Z</time>
      </trkpt>
      <trkpt lat="47.34449" lon="-1.3568">
        <ele>127</ele>
        <time>2021-05-19T16:15:10.000Z</time>
      </trkpt>
      <trkpt lat="47.34438" lon="-1.35667">
        <ele>127</ele>
        <time>2021-05-19T16:15:12.000Z</time>
      </trkpt>
      <trkpt lat="47.3443" lon="-1.35653">
        <ele>128</ele>
        <time>2021-05-19T16:15:14.000Z</time>
      </trkpt>
      <trkpt lat="47.3442" lon="-1.35638">
        <ele>128</ele>
        <time>2021-05-19T16:15:16.000Z</time>
      </trkpt>
      <trkpt lat="47.34411" lon="-1.35622">
        <ele>129</ele>
        <time>2021-05-19T16:15:18.000Z</time>
      </trkpt>
      <trkpt lat="47.34403" lon="-1.35605">
        <ele>129</ele>
        <time>2021-05-19T16:15:20.000Z</time>
      </trkpt>
      <trkpt lat="47.34394" lon="-1.35589">
        <ele>129</ele>
        <time>2021-05-19T16:15:22.000Z</time>
      </trkpt>
      <trkpt lat="47.34385" lon="-1.35574">
        <ele>129</ele>
        <time>2021-05-19T16:15:24.000Z</time>
      </trkpt>
      <trkpt lat="47.34376" lon="-1.35558">
        <ele>129</ele>
        <time>2021-05-19T16:15:26.000Z</time>
      </trkpt>
      <trkpt lat="47.34367" lon="-1.35541">
        <ele>129</ele>
        <time>2021-05-19T16:15:28.000Z</time>
      </trkpt>
      <trkpt lat="47.34358" lon="-1.35525">
        <ele>129</ele>
        <time>2021-05-19T16:15:30.000Z</time>
      </trkpt>
      <trkpt lat="47.34349" lon="-1.3551">
        <ele>129</ele>
        <time>2021-05-19T16:15:32.000Z</time>
      </trkpt>
      <trkpt lat="47.34341" lon="-1.35495">
        <ele>129</ele>
        <time>2021-05-19T16:15:34.000Z</time>
      </trkpt>
      <trkpt lat="47.34332" lon="-1.35479">
        <ele>128</ele>
        <time>2021-05-19T16:15:36.000Z</time>
      </trkpt>
      <trkpt lat="47.34324" lon="-1.35464">
        <ele>128</ele>
        <time>2021-05-19T16:15:38.000Z</time>
      </trkpt>
      <trkpt lat="47.34315" lon="-1.35448">
        <ele>128</ele>
        <time>2021-05-19T16:15:40.000Z</time>
      </trkpt>
      <trkpt lat="47.34306" lon="-1.35433">
        <ele>129</ele>
        <time>2021-05-19T16:15:42.000Z</time>
      </trkpt>
      <trkpt lat="47.34298" lon="-1.35419">
        <ele>129</ele>
        <time>2021-05-19T16:15:44.000Z</time>
      </trkpt>
      <trkpt lat="47.34289" lon="-1.35404">
        <ele>129</ele>
        <time>2021-05-19T16:15:46.000Z</time>
      </trkpt>
      <trkpt lat="47.3428" lon="-1.35389">
        <ele>129</ele>
        <time>2021-05-19T16:15:48.000Z</time>
      </trkpt>
      <trkpt lat="47.34271" lon="-1.35374">
        <ele>129</ele>
        <time>2021-05-19T16:15:50.000Z</time>
      </trkpt>
      <trkpt lat="47.34262" lon="-1.3536">
        <ele>130</ele>
        <time>2021-05-19T16:15:52.000Z</time>
      </trkpt>
      <trkpt lat="47.34253" lon="-1.35346">
        <ele>130</ele>
        <time>2021-05-19T16:15:54.000Z</time>
      </trkpt>
      <trkpt lat="47.34245" lon="-1.35331">
        <ele>130</ele>
        <time>2021-05-19T16:15:56.000Z</time>
      </trkpt>
      <trkpt lat="47.34236" lon="-1.35317">
        <ele>130</ele>
        <time>2021-05-19T16:15:58.000Z</time>
      </trkpt>
      <trkpt lat="47.34228" lon="-1.35302">
        <ele>130</ele>
        <time>2021-05-19T16:16:00.000Z</time>
      </trkpt>
      <trkpt lat="47.34219" lon="-1.35287">
        <ele>129</ele>
        <time>2021-05-19T16:16:02.000Z</time>
      </trkpt>
      <trkpt lat="47.34211" lon="-1.35272">
        <ele>129</ele>
        <time>2021-05-19T16:16:04.000Z</time>
      </trkpt>
      <trkpt lat="47.34203" lon="-1.35258">
        <ele>129</ele>
        <time>2021-05-19T16:16:06.000Z</time>
      </trkpt>
      <trkpt lat="47.34194" lon="-1.35244">
        <ele>129</ele>
        <time>2021-05-19T16:16:08.000Z</time>
      </trkpt>
      <trkpt lat="47.34185" lon="-1.35229">
        <ele>128</ele>
        <time>2021-05-19T16:16:10.000Z</time>
      </trkpt>
      <trkpt lat="47.34176" lon="-1.35214">
        <ele>128</ele>
        <time>2021-05-19T16:16:12.000Z</time>
      </trkpt>
      <trkpt lat="47.34167" lon="-1.35199">
        <ele>128</ele>
        <time>2021-05-19T16:16:14.000Z</time>
      </trkpt>
      <trkpt lat="47.34158" lon="-1.35184">
        <ele>128</ele>
        <time>2021-05-19T16:16:16.000Z</time>
      </trkpt>
      <trkpt lat="47.34149" lon="-1.3517">
        <ele>128</ele>
        <time>2021-05-19T16:16:18.000Z</time>
      </trkpt>
      <trkpt lat="47.3414" lon="-1.35154">
        <ele>128</ele>
        <time>2021-05-19T16:16:20.000Z</time>
      </trkpt>
      <trkpt lat="47.34131" lon="-1.35139">
        <ele>128</ele>
        <time>2021-05-19T16:16:22.000Z</time>
      </trkpt>
      <trkpt lat="47.34122" lon="-1.35123">
        <ele>127</ele>
        <time>2021-05-19T16:16:24.000Z</time>
      </trkpt>
      <trkpt lat="47.34113" lon="-1.35108">
        <ele>128</ele>
        <time>2021-05-19T16:16:26.000Z</time>
      </trkpt>
      <trkpt lat="47.34103" lon="-1.35092">
        <ele>128</ele>
        <time>2021-05-19T16:16:28.000Z</time>
      </trkpt>
      <trkpt lat="47.34094" lon="-1.35077">
        <ele>128</ele>
        <time>2021-05-19T16:16:30.000Z</time>
      </trkpt>
      <trkpt lat="47.34084" lon="-1.35062">
        <ele>128</ele>
        <time>2021-05-19T16:16:32.000Z</time>
      </trkpt>
      <trkpt lat="47.34075" lon="-1.35046">
        <ele>128</ele>
        <time>2021-05-19T16:16:34.000Z</time>
      </trkpt>
      <trkpt lat="47.34066" lon="-1.35031">
        <ele>127</ele>
        <time>2021-05-19T16:16:36.000Z</time>
      </trkpt>
      <trkpt lat="47.34057" lon="-1.35016">
        <ele>127</ele>
        <time>2021-05-19T16:16:38.000Z</time>
      </trkpt>
      <trkpt lat="47.34048" lon="-1.35001">
        <ele>128</ele>
        <time>2021-05-19T16:16:40.000Z</time>
      </trkpt>
      <trkpt lat="47.34039" lon="-1.34987">
        <ele>128</ele>
        <time>2021-05-19T16:16:42.000Z</time>
      </trkpt>
      <trkpt lat="47.3403" lon="-1.34975">
        <ele>128</ele>
        <time>2021-05-19T16:16:44.000Z</time>
      </trkpt>
      <trkpt lat="47.3402" lon="-1.34966">
        <ele>128</ele>
        <time>2021-05-19T16:16:46.000Z</time>
      </trkpt>
      <trkpt lat="47.3401" lon="-1.34962">
        <ele>128</ele>
        <time>2021-05-19T16:16:48.000Z</time>
      </trkpt>
      <trkpt lat="47.33998" lon="-1.34954">
        <ele>129</ele>
        <time>2021-05-19T16:16:50.000Z</time>
      </trkpt>
      <trkpt lat="47.33988" lon="-1.34937">
        <ele>128</ele>
        <time>2021-05-19T16:16:52.000Z</time>
      </trkpt>
      <trkpt lat="47.33979" lon="-1.34918">
        <ele>127</ele>
        <time>2021-05-19T16:16:54.000Z</time>
      </trkpt>
      <trkpt lat="47.33967" lon="-1.34905">
        <ele>127</ele>
        <time>2021-05-19T16:16:56.000Z</time>
      </trkpt>
      <trkpt lat="47.33954" lon="-1.34892">
        <ele>128</ele>
        <time>2021-05-19T16:16:58.000Z</time>
      </trkpt>
      <trkpt lat="47.33942" lon="-1.3488">
        <ele>127</ele>
        <time>2021-05-19T16:17:00.000Z</time>
      </trkpt>
      <trkpt lat="47.3393" lon="-1.34868">
        <ele>127</ele>
        <time>2021-05-19T16:17:02.000Z</time>
      </trkpt>
      <trkpt lat="47.33918" lon="-1.34857">
        <ele>127</ele>
        <time>2021-05-19T16:17:04.000Z</time>
      </trkpt>
      <trkpt lat="47.33906" lon="-1.34844">
        <ele>127</ele>
        <time>2021-05-19T16:17:06.000Z</time>
      </trkpt>
      <trkpt lat="47.33895" lon="-1.34831">
        <ele>127</ele>
        <time>2021-05-19T16:17:08.000Z</time>
      </trkpt>
      <trkpt lat="47.33884" lon="-1.34817">
        <ele>127</ele>
        <time>2021-05-19T16:17:10.000Z</time>
      </trkpt>
      <trkpt lat="47.33874" lon="-1.34803">
        <ele>127</ele>
        <time>2021-05-19T16:17:12.000Z</time>
      </trkpt>
      <trkpt lat="47.33864" lon="-1.34789">
        <ele>127</ele>
        <time>2021-05-19T16:17:14.000Z</time>
      </trkpt>
      <trkpt lat="47.33854" lon="-1.34776">
        <ele>127</ele>
        <time>2021-05-19T16:17:16.000Z</time>
      </trkpt>
      <trkpt lat="47.33843" lon="-1.34761">
        <ele>127</ele>
        <time>2021-05-19T16:17:18.000Z</time>
      </trkpt>
      <trkpt lat="47.33833" lon="-1.34747">
        <ele>127</ele>
        <time>2021-05-19T16:17:20.000Z</time>
      </trkpt>
      <trkpt lat="47.33823" lon="-1.34733">
        <ele>127</ele>
        <time>2021-05-19T16:17:22.000Z</time>
      </trkpt>
      <trkpt lat="47.33812" lon="-1.34719">
        <ele>127</ele>
        <time>2021-05-19T16:17:24.000Z</time>
      </trkpt>
      <trkpt lat="47.33802" lon="-1.34705">
        <ele>127</ele>
        <time>2021-05-19T16:17:26.000Z</time>
      </trkpt>
      <trkpt lat="47.33792" lon="-1.34691">
        <ele>127</ele>
        <time>2021-05-19T16:17:28.000Z</time>
      </trkpt>
      <trkpt lat="47.33782" lon="-1.34676">
        <ele>127</ele>
        <time>2021-05-19T16:17:30.000Z</time>
      </trkpt>
      <trkpt lat="47.33771" lon="-1.34662">
        <ele>127</ele>
        <time>2021-05-19T16:17:32.000Z</time>
      </trkpt>
      <trkpt lat="47.3376" lon="-1.34648">
        <ele>127</ele>
        <time>2021-05-19T16:17:34.000Z</time>
      </trkpt>
      <trkpt lat="47.33749" lon="-1.34633">
        <ele>126</ele>
        <time>2021-05-19T16:17:36.000Z</time>
      </trkpt>
      <trkpt lat="47.33739" lon="-1.34619">
        <ele>126</ele>
        <time>2021-05-19T16:17:38.000Z</time>
      </trkpt>
      <trkpt lat="47.33728" lon="-1.34605">
        <ele>126</ele>
        <time>2021-05-19T16:17:40.000Z</time>
      </trkpt>
      <trkpt lat="47.33718" lon="-1.34591">
        <ele>126</ele>
        <time>2021-05-19T16:17:42.000Z</time>
      </trkpt>
      <trkpt lat="47.33708" lon="-1.34577">
        <ele>125</ele>
        <time>2021-05-19T16:17:44.000Z</time>
      </trkpt>
      <trkpt lat="47.33697" lon="-1.34563">
        <ele>126</ele>
        <time>2021-05-19T16:17:46.000Z</time>
      </trkpt>
      <trkpt lat="47.33688" lon="-1.34549">
        <ele>126</ele>
        <time>2021-05-19T16:17:48.000Z</time>
      </trkpt>
      <trkpt lat="47.33678" lon="-1.34535">
        <ele>126</ele>
        <time>2021-05-19T16:17:50.000Z</time>
      </trkpt>
      <trkpt lat="47.33668" lon="-1.34521">
        <ele>126</ele>
        <time>2021-05-19T16:17:52.000Z</time>
      </trkpt>
      <trkpt lat="47.33659" lon="-1.34507">
        <ele>126</ele>
        <time>2021-05-19T16:17:54.000Z</time>
      </trkpt>
      <trkpt lat="47.33649" lon="-1.34493">
        <ele>125</ele>
        <time>2021-05-19T16:17:56.000Z</time>
      </trkpt>
      <trkpt lat="47.33637" lon="-1.34481">
        <ele>125</ele>
        <time>2021-05-19T16:17:58.000Z</time>
      </trkpt>
      <trkpt lat="47.33626" lon="-1.3447">
        <ele>125</ele>
        <time>2021-05-19T16:18:00.000Z</time>
      </trkpt>
      <trkpt lat="47.33613" lon="-1.34462">
        <ele>125</ele>
        <time>2021-05-19T16:18:02.000Z</time>
      </trkpt>
      <trkpt lat="47.33599" lon="-1.34455">
        <ele>125</ele>
        <time>2021-05-19T16:18:04.000Z</time>
      </trkpt>
      <trkpt lat="47.33586" lon="-1.34448">
        <ele>125</ele>
        <time>2021-05-19T16:18:06.000Z</time>
      </trkpt>
      <trkpt lat="47.33573" lon="-1.34442">
        <ele>125</ele>
        <time>2021-05-19T16:18:08.000Z</time>
      </trkpt>
      <trkpt lat="47.33559" lon="-1.34435">
        <ele>125</ele>
        <time>2021-05-19T16:18:10.000Z</time>
      </trkpt>
      <trkpt lat="47.33546" lon="-1.34428">
        <ele>125</ele>
        <time>2021-05-19T16:18:12.000Z</time>
      </trkpt>
      <trkpt lat="47.33533" lon="-1.34422">
        <ele>125</ele>
        <time>2021-05-19T16:18:14.000Z</time>
      </trkpt>
      <trkpt lat="47.3352" lon="-1.34415">
        <ele>125</ele>
        <time>2021-05-19T16:18:16.000Z</time>
      </trkpt>
      <trkpt lat="47.33506" lon="-1.34409">
        <ele>125</ele>
        <time>2021-05-19T16:18:18.000Z</time>
      </trkpt>
      <trkpt lat="47.33493" lon="-1.34403">
        <ele>124</ele>
        <time>2021-05-19T16:18:20.000Z</time>
      </trkpt>
      <trkpt lat="47.33479" lon="-1.34395">
        <ele>124</ele>
        <time>2021-05-19T16:18:22.000Z</time>
      </trkpt>
      <trkpt lat="47.33466" lon="-1.34389">
        <ele>124</ele>
        <time>2021-05-19T16:18:24.000Z</time>
      </trkpt>
      <trkpt lat="47.33452" lon="-1.34383">
        <ele>124</ele>
        <time>2021-05-19T16:18:26.000Z</time>
      </trkpt>
      <trkpt lat="47.33439" lon="-1.34377">
        <ele>124</ele>
        <time>2021-05-19T16:18:28.000Z</time>
      </trkpt>
      <trkpt lat="47.33425" lon="-1.34369">
        <ele>123</ele>
        <time>2021-05-19T16:18:30.000Z</time>
      </trkpt>
      <trkpt lat="47.33412" lon="-1.34364">
        <ele>123</ele>
        <time>2021-05-19T16:18:32.000Z</time>
      </trkpt>
      <trkpt lat="47.33399" lon="-1.34356">
        <ele>122</ele>
        <time>2021-05-19T16:18:34.000Z</time>
      </trkpt>
      <trkpt lat="47.33386" lon="-1.3435">
        <ele>122</ele>
        <time>2021-05-19T16:18:36.000Z</time>
      </trkpt>
      <trkpt lat="47.33372" lon="-1.34344">
        <ele>121</ele>
        <time>2021-05-19T16:18:38.000Z</time>
      </trkpt>
      <trkpt lat="47.33359" lon="-1.34337">
        <ele>121</ele>
        <time>2021-05-19T16:18:40.000Z</time>
      </trkpt>
      <trkpt lat="47.33345" lon="-1.34329">
        <ele>121</ele>
        <time>2021-05-19T16:18:42.000Z</time>
      </trkpt>
      <trkpt lat="47.3333" lon="-1.34324">
        <ele>120</ele>
        <time>2021-05-19T16:18:44.000Z</time>
      </trkpt>
      <trkpt lat="47.33316" lon="-1.34317">
        <ele>120</ele>
        <time>2021-05-19T16:18:46.000Z</time>
      </trkpt>
      <trkpt lat="47.33302" lon="-1.34312">
        <ele>120</ele>
        <time>2021-05-19T16:18:48.000Z</time>
      </trkpt>
      <trkpt lat="47.33288" lon="-1.34309">
        <ele>120</ele>
        <time>2021-05-19T16:18:50.000Z</time>
      </trkpt>
      <trkpt lat="47.33273" lon="-1.34306">
        <ele>120</ele>
        <time>2021-05-19T16:18:52.000Z</time>
      </trkpt>
      <trkpt lat="47.33259" lon="-1.34304">
        <ele>120</ele>
        <time>2021-05-19T16:18:54.000Z</time>
      </trkpt>
      <trkpt lat="47.33245" lon="-1.34303">
        <ele>120</ele>
        <time>2021-05-19T16:18:56.000Z</time>
      </trkpt>
      <trkpt lat="47.3323" lon="-1.34301">
        <ele>119</ele>
        <time>2021-05-19T16:18:58.000Z</time>
      </trkpt>
      <trkpt lat="47.33216" lon="-1.343">
        <ele>118</ele>
        <time>2021-05-19T16:19:00.000Z</time>
      </trkpt>
      <trkpt lat="47.33202" lon="-1.34299">
        <ele>118</ele>
        <time>2021-05-19T16:19:02.000Z</time>
      </trkpt>
      <trkpt lat="47.33188" lon="-1.34296">
        <ele>118</ele>
        <time>2021-05-19T16:19:04.000Z</time>
      </trkpt>
      <trkpt lat="47.33174" lon="-1.34292">
        <ele>117</ele>
        <time>2021-05-19T16:19:06.000Z</time>
      </trkpt>
      <trkpt lat="47.3316" lon="-1.34289">
        <ele>117</ele>
        <time>2021-05-19T16:19:08.000Z</time>
      </trkpt>
      <trkpt lat="47.33147" lon="-1.34282">
        <ele>117</ele>
        <time>2021-05-19T16:19:10.000Z</time>
      </trkpt>
      <trkpt lat="47.33134" lon="-1.34273">
        <ele>117</ele>
        <time>2021-05-19T16:19:12.000Z</time>
      </trkpt>
      <trkpt lat="47.33121" lon="-1.34265">
        <ele>117</ele>
        <time>2021-05-19T16:19:14.000Z</time>
      </trkpt>
      <trkpt lat="47.33107" lon="-1.34255">
        <ele>116</ele>
        <time>2021-05-19T16:19:16.000Z</time>
      </trkpt>
      <trkpt lat="47.33094" lon="-1.34246">
        <ele>116</ele>
        <time>2021-05-19T16:19:18.000Z</time>
      </trkpt>
      <trkpt lat="47.33081" lon="-1.34238">
        <ele>115</ele>
        <time>2021-05-19T16:19:20.000Z</time>
      </trkpt>
      <trkpt lat="47.33067" lon="-1.34228">
        <ele>114</ele>
        <time>2021-05-19T16:19:22.000Z</time>
      </trkpt>
      <trkpt lat="47.33053" lon="-1.34219">
        <ele>113</ele>
        <time>2021-05-19T16:19:24.000Z</time>
      </trkpt>
      <trkpt lat="47.33039" lon="-1.34208">
        <ele>112</ele>
        <time>2021-05-19T16:19:26.000Z</time>
      </trkpt>
      <trkpt lat="47.33024" lon="-1.34198">
        <ele>111</ele>
        <time>2021-05-19T16:19:28.000Z</time>
      </trkpt>
      <trkpt lat="47.3301" lon="-1.34188">
        <ele>111</ele>
        <time>2021-05-19T16:19:30.000Z</time>
      </trkpt>
      <trkpt lat="47.32995" lon="-1.34178">
        <ele>111</ele>
        <time>2021-05-19T16:19:32.000Z</time>
      </trkpt>
      <trkpt lat="47.32979" lon="-1.34166">
        <ele>110</ele>
        <time>2021-05-19T16:19:34.000Z</time>
      </trkpt>
      <trkpt lat="47.32972" lon="-1.34158">
        <ele>110</ele>
        <time>2021-05-19T16:19:35.000Z</time>
      </trkpt>
      <trkpt lat="47.32965" lon="-1.3415">
        <ele>109</ele>
        <time>2021-05-19T16:19:36.000Z</time>
      </trkpt>
      <trkpt lat="47.32954" lon="-1.34129">
        <ele>109</ele>
        <time>2021-05-19T16:19:38.000Z</time>
      </trkpt>
      <trkpt lat="47.32949" lon="-1.34118">
        <ele>108</ele>
        <time>2021-05-19T16:19:39.000Z</time>
      </trkpt>
      <trkpt lat="47.32945" lon="-1.34106">
        <ele>108</ele>
        <time>2021-05-19T16:19:40.000Z</time>
      </trkpt>
      <trkpt lat="47.32938" lon="-1.34082">
        <ele>108</ele>
        <time>2021-05-19T16:19:42.000Z</time>
      </trkpt>
      <trkpt lat="47.32937" lon="-1.34069">
        <ele>108</ele>
        <time>2021-05-19T16:19:43.000Z</time>
      </trkpt>
      <trkpt lat="47.32937" lon="-1.34055">
        <ele>107</ele>
        <time>2021-05-19T16:19:44.000Z</time>
      </trkpt>
      <trkpt lat="47.32938" lon="-1.34041">
        <ele>107</ele>
        <time>2021-05-19T16:19:45.000Z</time>
      </trkpt>
      <trkpt lat="47.3294" lon="-1.34028">
        <ele>107</ele>
        <time>2021-05-19T16:19:46.000Z</time>
      </trkpt>
      <trkpt lat="47.32944" lon="-1.34015">
        <ele>106</ele>
        <time>2021-05-19T16:19:47.000Z</time>
      </trkpt>
      <trkpt lat="47.32948" lon="-1.34003">
        <ele>106</ele>
        <time>2021-05-19T16:19:48.000Z</time>
      </trkpt>
      <trkpt lat="47.32952" lon="-1.3399">
        <ele>105</ele>
        <time>2021-05-19T16:19:49.000Z</time>
      </trkpt>
      <trkpt lat="47.32957" lon="-1.33978">
        <ele>105</ele>
        <time>2021-05-19T16:19:50.000Z</time>
      </trkpt>
      <trkpt lat="47.32963" lon="-1.33965">
        <ele>104</ele>
        <time>2021-05-19T16:19:51.000Z</time>
      </trkpt>
      <trkpt lat="47.32967" lon="-1.33953">
        <ele>103</ele>
        <time>2021-05-19T16:19:52.000Z</time>
      </trkpt>
      <trkpt lat="47.32972" lon="-1.3394">
        <ele>102</ele>
        <time>2021-05-19T16:19:53.000Z</time>
      </trkpt>
      <trkpt lat="47.32976" lon="-1.33928">
        <ele>102</ele>
        <time>2021-05-19T16:19:54.000Z</time>
      </trkpt>
      <trkpt lat="47.32981" lon="-1.33915">
        <ele>102</ele>
        <time>2021-05-19T16:19:55.000Z</time>
      </trkpt>
      <trkpt lat="47.32986" lon="-1.33902">
        <ele>101</ele>
        <time>2021-05-19T16:19:56.000Z</time>
      </trkpt>
      <trkpt lat="47.32991" lon="-1.33889">
        <ele>100</ele>
        <time>2021-05-19T16:19:57.000Z</time>
      </trkpt>
      <trkpt lat="47.32996" lon="-1.33877">
        <ele>99</ele>
        <time>2021-05-19T16:19:58.000Z</time>
      </trkpt>
      <trkpt lat="47.33" lon="-1.33863">
        <ele>98</ele>
        <time>2021-05-19T16:19:59.000Z</time>
      </trkpt>
      <trkpt lat="47.33005" lon="-1.3385">
        <ele>98</ele>
        <time>2021-05-19T16:20:00.000Z</time>
      </trkpt>
      <trkpt lat="47.33009" lon="-1.33836">
        <ele>98</ele>
        <time>2021-05-19T16:20:01.000Z</time>
      </trkpt>
      <trkpt lat="47.33014" lon="-1.33823">
        <ele>97</ele>
        <time>2021-05-19T16:20:02.000Z</time>
      </trkpt>
      <trkpt lat="47.33019" lon="-1.33809">
        <ele>97</ele>
        <time>2021-05-19T16:20:03.000Z</time>
      </trkpt>
      <trkpt lat="47.33025" lon="-1.33795">
        <ele>96</ele>
        <time>2021-05-19T16:20:04.000Z</time>
      </trkpt>
      <trkpt lat="47.33031" lon="-1.33782">
        <ele>96</ele>
        <time>2021-05-19T16:20:05.000Z</time>
      </trkpt>
      <trkpt lat="47.33038" lon="-1.33769">
        <ele>95</ele>
        <time>2021-05-19T16:20:06.000Z</time>
      </trkpt>
      <trkpt lat="47.33044" lon="-1.33757">
        <ele>94</ele>
        <time>2021-05-19T16:20:07.000Z</time>
      </trkpt>
      <trkpt lat="47.33051" lon="-1.33744">
        <ele>93</ele>
        <time>2021-05-19T16:20:08.000Z</time>
      </trkpt>
      <trkpt lat="47.33057" lon="-1.33732">
        <ele>93</ele>
        <time>2021-05-19T16:20:09.000Z</time>
      </trkpt>
      <trkpt lat="47.33064" lon="-1.33719">
        <ele>92</ele>
        <time>2021-05-19T16:20:10.000Z</time>
      </trkpt>
      <trkpt lat="47.3307" lon="-1.33707">
        <ele>92</ele>
        <time>2021-05-19T16:20:11.000Z</time>
      </trkpt>
      <trkpt lat="47.33077" lon="-1.33694">
        <ele>92</ele>
        <time>2021-05-19T16:20:12.000Z</time>
      </trkpt>
      <trkpt lat="47.33083" lon="-1.3368">
        <ele>92</ele>
        <time>2021-05-19T16:20:13.000Z</time>
      </trkpt>
      <trkpt lat="47.33088" lon="-1.33665">
        <ele>92</ele>
        <time>2021-05-19T16:20:14.000Z</time>
      </trkpt>
      <trkpt lat="47.33092" lon="-1.33651">
        <ele>92</ele>
        <time>2021-05-19T16:20:15.000Z</time>
      </trkpt>
      <trkpt lat="47.33097" lon="-1.33636">
        <ele>91</ele>
        <time>2021-05-19T16:20:16.000Z</time>
      </trkpt>
      <trkpt lat="47.33101" lon="-1.3362">
        <ele>91</ele>
        <time>2021-05-19T16:20:17.000Z</time>
      </trkpt>
      <trkpt lat="47.33105" lon="-1.33605">
        <ele>90</ele>
        <time>2021-05-19T16:20:18.000Z</time>
      </trkpt>
      <trkpt lat="47.33109" lon="-1.3359">
        <ele>90</ele>
        <time>2021-05-19T16:20:19.000Z</time>
      </trkpt>
      <trkpt lat="47.33114" lon="-1.33575">
        <ele>89</ele>
        <time>2021-05-19T16:20:20.000Z</time>
      </trkpt>
      <trkpt lat="47.33118" lon="-1.33559">
        <ele>88</ele>
        <time>2021-05-19T16:20:21.000Z</time>
      </trkpt>
      <trkpt lat="47.33121" lon="-1.33543">
        <ele>87</ele>
        <time>2021-05-19T16:20:22.000Z</time>
      </trkpt>
      <trkpt lat="47.33122" lon="-1.33527">
        <ele>87</ele>
        <time>2021-05-19T16:20:23.000Z</time>
      </trkpt>
      <trkpt lat="47.33121" lon="-1.33511">
        <ele>86</ele>
        <time>2021-05-19T16:20:24.000Z</time>
      </trkpt>
      <trkpt lat="47.33118" lon="-1.33495">
        <ele>85</ele>
        <time>2021-05-19T16:20:25.000Z</time>
      </trkpt>
      <trkpt lat="47.33114" lon="-1.33481">
        <ele>84</ele>
        <time>2021-05-19T16:20:26.000Z</time>
      </trkpt>
      <trkpt lat="47.33107" lon="-1.33468">
        <ele>83</ele>
        <time>2021-05-19T16:20:27.000Z</time>
      </trkpt>
      <trkpt lat="47.33099" lon="-1.33457">
        <ele>83</ele>
        <time>2021-05-19T16:20:28.000Z</time>
      </trkpt>
      <trkpt lat="47.3309" lon="-1.33447">
        <ele>81</ele>
        <time>2021-05-19T16:20:29.000Z</time>
      </trkpt>
      <trkpt lat="47.33082" lon="-1.33439">
        <ele>80</ele>
        <time>2021-05-19T16:20:30.000Z</time>
      </trkpt>
      <trkpt lat="47.33073" lon="-1.3343">
        <ele>80</ele>
        <time>2021-05-19T16:20:31.000Z</time>
      </trkpt>
      <trkpt lat="47.33064" lon="-1.33421">
        <ele>80</ele>
        <time>2021-05-19T16:20:32.000Z</time>
      </trkpt>
      <trkpt lat="47.33055" lon="-1.33413">
        <ele>79</ele>
        <time>2021-05-19T16:20:33.000Z</time>
      </trkpt>
      <trkpt lat="47.33047" lon="-1.33403">
        <ele>79</ele>
        <time>2021-05-19T16:20:34.000Z</time>
      </trkpt>
      <trkpt lat="47.33039" lon="-1.33393">
        <ele>78</ele>
        <time>2021-05-19T16:20:35.000Z</time>
      </trkpt>
      <trkpt lat="47.3303" lon="-1.33383">
        <ele>78</ele>
        <time>2021-05-19T16:20:36.000Z</time>
      </trkpt>
      <trkpt lat="47.33022" lon="-1.33374">
        <ele>77</ele>
        <time>2021-05-19T16:20:37.000Z</time>
      </trkpt>
      <trkpt lat="47.33014" lon="-1.33364">
        <ele>76</ele>
        <time>2021-05-19T16:20:38.000Z</time>
      </trkpt>
      <trkpt lat="47.33005" lon="-1.33355">
        <ele>76</ele>
        <time>2021-05-19T16:20:39.000Z</time>
      </trkpt>
      <trkpt lat="47.32997" lon="-1.33345">
        <ele>76</ele>
        <time>2021-05-19T16:20:40.000Z</time>
      </trkpt>
      <trkpt lat="47.32989" lon="-1.33336">
        <ele>75</ele>
        <time>2021-05-19T16:20:41.000Z</time>
      </trkpt>
      <trkpt lat="47.32981" lon="-1.33327">
        <ele>75</ele>
        <time>2021-05-19T16:20:42.000Z</time>
      </trkpt>
      <trkpt lat="47.32972" lon="-1.33318">
        <ele>75</ele>
        <time>2021-05-19T16:20:43.000Z</time>
      </trkpt>
      <trkpt lat="47.32964" lon="-1.33309">
        <ele>75</ele>
        <time>2021-05-19T16:20:44.000Z</time>
      </trkpt>
      <trkpt lat="47.32956" lon="-1.333">
        <ele>74</ele>
        <time>2021-05-19T16:20:45.000Z</time>
      </trkpt>
      <trkpt lat="47.32948" lon="-1.3329">
        <ele>74</ele>
        <time>2021-05-19T16:20:46.000Z</time>
      </trkpt>
      <trkpt lat="47.3294" lon="-1.33281">
        <ele>74</ele>
        <time>2021-05-19T16:20:47.000Z</time>
      </trkpt>
      <trkpt lat="47.32932" lon="-1.33272">
        <ele>73</ele>
        <time>2021-05-19T16:20:48.000Z</time>
      </trkpt>
      <trkpt lat="47.32924" lon="-1.33263">
        <ele>73</ele>
        <time>2021-05-19T16:20:49.000Z</time>
      </trkpt>
      <trkpt lat="47.32916" lon="-1.33252">
        <ele>73</ele>
        <time>2021-05-19T16:20:50.000Z</time>
      </trkpt>
      <trkpt lat="47.32908" lon="-1.33242">
        <ele>72</ele>
        <time>2021-05-19T16:20:51.000Z</time>
      </trkpt>
      <trkpt lat="47.32899" lon="-1.33233">
        <ele>71</ele>
        <time>2021-05-19T16:20:52.000Z</time>
      </trkpt>
      <trkpt lat="47.32889" lon="-1.33224">
        <ele>70</ele>
        <time>2021-05-19T16:20:53.000Z</time>
      </trkpt>
      <trkpt lat="47.3288" lon="-1.33216">
        <ele>69</ele>
        <time>2021-05-19T16:20:54.000Z</time>
      </trkpt>
      <trkpt lat="47.3287" lon="-1.33208">
        <ele>68</ele>
        <time>2021-05-19T16:20:55.000Z</time>
      </trkpt>
      <trkpt lat="47.32861" lon="-1.332">
        <ele>68</ele>
        <time>2021-05-19T16:20:56.000Z</time>
      </trkpt>
      <trkpt lat="47.32851" lon="-1.33192">
        <ele>67</ele>
        <time>2021-05-19T16:20:57.000Z</time>
      </trkpt>
      <trkpt lat="47.32841" lon="-1.33184">
        <ele>66</ele>
        <time>2021-05-19T16:20:58.000Z</time>
      </trkpt>
      <trkpt lat="47.32831" lon="-1.33176">
        <ele>66</ele>
        <time>2021-05-19T16:20:59.000Z</time>
      </trkpt>
      <trkpt lat="47.32822" lon="-1.33168">
        <ele>65</ele>
        <time>2021-05-19T16:21:00.000Z</time>
      </trkpt>
      <trkpt lat="47.32812" lon="-1.3316">
        <ele>64</ele>
        <time>2021-05-19T16:21:01.000Z</time>
      </trkpt>
      <trkpt lat="47.32803" lon="-1.33152">
        <ele>64</ele>
        <time>2021-05-19T16:21:02.000Z</time>
      </trkpt>
      <trkpt lat="47.32794" lon="-1.33144">
        <ele>63</ele>
        <time>2021-05-19T16:21:03.000Z</time>
      </trkpt>
      <trkpt lat="47.32785" lon="-1.33136">
        <ele>63</ele>
        <time>2021-05-19T16:21:04.000Z</time>
      </trkpt>
      <trkpt lat="47.32776" lon="-1.33128">
        <ele>62</ele>
        <time>2021-05-19T16:21:05.000Z</time>
      </trkpt>
      <trkpt lat="47.32766" lon="-1.33119">
        <ele>61</ele>
        <time>2021-05-19T16:21:06.000Z</time>
      </trkpt>
      <trkpt lat="47.32758" lon="-1.3311">
        <ele>61</ele>
        <time>2021-05-19T16:21:07.000Z</time>
      </trkpt>
      <trkpt lat="47.32749" lon="-1.331">
        <ele>60</ele>
        <time>2021-05-19T16:21:08.000Z</time>
      </trkpt>
      <trkpt lat="47.3274" lon="-1.33091">
        <ele>59</ele>
        <time>2021-05-19T16:21:09.000Z</time>
      </trkpt>
      <trkpt lat="47.32731" lon="-1.33082">
        <ele>59</ele>
        <time>2021-05-19T16:21:10.000Z</time>
      </trkpt>
      <trkpt lat="47.32722" lon="-1.33073">
        <ele>58</ele>
        <time>2021-05-19T16:21:11.000Z</time>
      </trkpt>
      <trkpt lat="47.32714" lon="-1.33064">
        <ele>58</ele>
        <time>2021-05-19T16:21:12.000Z</time>
      </trkpt>
      <trkpt lat="47.32705" lon="-1.33055">
        <ele>57</ele>
        <time>2021-05-19T16:21:13.000Z</time>
      </trkpt>
      <trkpt lat="47.32696" lon="-1.33047">
        <ele>57</ele>
        <time>2021-05-19T16:21:14.000Z</time>
      </trkpt>
      <trkpt lat="47.32687" lon="-1.33039">
        <ele>56</ele>
        <time>2021-05-19T16:21:15.000Z</time>
      </trkpt>
      <trkpt lat="47.32677" lon="-1.33031">
        <ele>56</ele>
        <time>2021-05-19T16:21:16.000Z</time>
      </trkpt>
      <trkpt lat="47.32669" lon="-1.33024">
        <ele>55</ele>
        <time>2021-05-19T16:21:17.000Z</time>
      </trkpt>
      <trkpt lat="47.32661" lon="-1.33016">
        <ele>54</ele>
        <time>2021-05-19T16:21:18.000Z</time>
      </trkpt>
      <trkpt lat="47.32653" lon="-1.33007">
        <ele>54</ele>
        <time>2021-05-19T16:21:19.000Z</time>
      </trkpt>
      <trkpt lat="47.32647" lon="-1.32998">
        <ele>54</ele>
        <time>2021-05-19T16:21:20.000Z</time>
      </trkpt>
      <trkpt lat="47.32635" lon="-1.32981">
        <ele>53</ele>
        <time>2021-05-19T16:21:22.000Z</time>
      </trkpt>
      <trkpt lat="47.32626" lon="-1.32965">
        <ele>52</ele>
        <time>2021-05-19T16:21:24.000Z</time>
      </trkpt>
      <trkpt lat="47.32618" lon="-1.32953">
        <ele>51</ele>
        <time>2021-05-19T16:21:26.000Z</time>
      </trkpt>
      <trkpt lat="47.32606" lon="-1.32963">
        <ele>51</ele>
        <time>2021-05-19T16:21:29.000Z</time>
      </trkpt>
      <trkpt lat="47.32599" lon="-1.32974">
        <ele>51</ele>
        <time>2021-05-19T16:21:31.000Z</time>
      </trkpt>
      <trkpt lat="47.32593" lon="-1.32984">
        <ele>52</ele>
        <time>2021-05-19T16:21:33.000Z</time>
      </trkpt>
      <trkpt lat="47.32569" lon="-1.33013">
        <ele>53</ele>
        <time>2021-05-19T16:21:39.000Z</time>
      </trkpt>
      <trkpt lat="47.3256" lon="-1.33024">
        <ele>53</ele>
        <time>2021-05-19T16:21:41.000Z</time>
      </trkpt>
      <trkpt lat="47.32551" lon="-1.33034">
        <ele>53</ele>
        <time>2021-05-19T16:21:43.000Z</time>
      </trkpt>
      <trkpt lat="47.3254" lon="-1.33042">
        <ele>52</ele>
        <time>2021-05-19T16:21:45.000Z</time>
      </trkpt>
      <trkpt lat="47.32529" lon="-1.33052">
        <ele>51</ele>
        <time>2021-05-19T16:21:47.000Z</time>
      </trkpt>
      <trkpt lat="47.32518" lon="-1.33062">
        <ele>51</ele>
        <time>2021-05-19T16:21:49.000Z</time>
      </trkpt>
      <trkpt lat="47.32507" lon="-1.33073">
        <ele>51</ele>
        <time>2021-05-19T16:21:51.000Z</time>
      </trkpt>
      <trkpt lat="47.32497" lon="-1.33084">
        <ele>51</ele>
        <time>2021-05-19T16:21:53.000Z</time>
      </trkpt>
      <trkpt lat="47.32488" lon="-1.33095">
        <ele>50</ele>
        <time>2021-05-19T16:21:55.000Z</time>
      </trkpt>
      <trkpt lat="47.32478" lon="-1.33105">
        <ele>49</ele>
        <time>2021-05-19T16:21:57.000Z</time>
      </trkpt>
      <trkpt lat="47.32468" lon="-1.33116">
        <ele>48</ele>
        <time>2021-05-19T16:21:59.000Z</time>
      </trkpt>
      <trkpt lat="47.32454" lon="-1.33134">
        <ele>49</ele>
        <time>2021-05-19T16:22:02.000Z</time>
      </trkpt>
      <trkpt lat="47.32445" lon="-1.33143">
        <ele>49</ele>
        <time>2021-05-19T16:22:04.000Z</time>
      </trkpt>
      <trkpt lat="47.32435" lon="-1.33146">
        <ele>49</ele>
        <time>2021-05-19T16:22:06.000Z</time>
      </trkpt>
      <trkpt lat="47.32424" lon="-1.33146">
        <ele>49</ele>
        <time>2021-05-19T16:22:09.000Z</time>
      </trkpt>
      <trkpt lat="47.3241" lon="-1.33165">
        <ele>48</ele>
        <time>2021-05-19T16:22:13.000Z</time>
      </trkpt>
      <trkpt lat="47.32402" lon="-1.33177">
        <ele>49</ele>
        <time>2021-05-19T16:22:15.000Z</time>
      </trkpt>
      <trkpt lat="47.32395" lon="-1.33187">
        <ele>49</ele>
        <time>2021-05-19T16:22:17.000Z</time>
      </trkpt>
      <trkpt lat="47.32386" lon="-1.33197">
        <ele>50</ele>
        <time>2021-05-19T16:22:19.000Z</time>
      </trkpt>
      <trkpt lat="47.3238" lon="-1.33209">
        <ele>51</ele>
        <time>2021-05-19T16:22:21.000Z</time>
      </trkpt>
      <trkpt lat="47.32372" lon="-1.33223">
        <ele>51</ele>
        <time>2021-05-19T16:22:23.000Z</time>
      </trkpt>
      <trkpt lat="47.32366" lon="-1.33237">
        <ele>52</ele>
        <time>2021-05-19T16:22:25.000Z</time>
      </trkpt>
      <trkpt lat="47.32358" lon="-1.3325">
        <ele>52</ele>
        <time>2021-05-19T16:22:27.000Z</time>
      </trkpt>
      <trkpt lat="47.32348" lon="-1.33273">
        <ele>52</ele>
        <time>2021-05-19T16:22:30.000Z</time>
      </trkpt>
      <trkpt lat="47.32342" lon="-1.33288">
        <ele>51</ele>
        <time>2021-05-19T16:22:32.000Z</time>
      </trkpt>
      <trkpt lat="47.32334" lon="-1.33303">
        <ele>50</ele>
        <time>2021-05-19T16:22:34.000Z</time>
      </trkpt>
      <trkpt lat="47.32328" lon="-1.33319">
        <ele>50</ele>
        <time>2021-05-19T16:22:36.000Z</time>
      </trkpt>
      <trkpt lat="47.3232" lon="-1.33334">
        <ele>50</ele>
        <time>2021-05-19T16:22:38.000Z</time>
      </trkpt>
      <trkpt lat="47.32314" lon="-1.3335">
        <ele>50</ele>
        <time>2021-05-19T16:22:40.000Z</time>
      </trkpt>
      <trkpt lat="47.32308" lon="-1.33365">
        <ele>50</ele>
        <time>2021-05-19T16:22:42.000Z</time>
      </trkpt>
      <trkpt lat="47.32301" lon="-1.3338">
        <ele>50</ele>
        <time>2021-05-19T16:22:44.000Z</time>
      </trkpt>
      <trkpt lat="47.32294" lon="-1.33395">
        <ele>50</ele>
        <time>2021-05-19T16:22:46.000Z</time>
      </trkpt>
      <trkpt lat="47.32288" lon="-1.3341">
        <ele>50</ele>
        <time>2021-05-19T16:22:48.000Z</time>
      </trkpt>
      <trkpt lat="47.32282" lon="-1.33425">
        <ele>50</ele>
        <time>2021-05-19T16:22:50.000Z</time>
      </trkpt>
      <trkpt lat="47.32275" lon="-1.33441">
        <ele>50</ele>
        <time>2021-05-19T16:22:52.000Z</time>
      </trkpt>
      <trkpt lat="47.32269" lon="-1.33455">
        <ele>50</ele>
        <time>2021-05-19T16:22:54.000Z</time>
      </trkpt>
      <trkpt lat="47.32263" lon="-1.33467">
        <ele>50</ele>
        <time>2021-05-19T16:22:56.000Z</time>
      </trkpt>
      <trkpt lat="47.32256" lon="-1.33483">
        <ele>51</ele>
        <time>2021-05-19T16:23:00.000Z</time>
      </trkpt>
      <trkpt lat="47.32249" lon="-1.33499">
        <ele>50</ele>
        <time>2021-05-19T16:23:03.000Z</time>
      </trkpt>
      <trkpt lat="47.32239" lon="-1.3352">
        <ele>50</ele>
        <time>2021-05-19T16:23:06.000Z</time>
      </trkpt>
      <trkpt lat="47.32231" lon="-1.33535">
        <ele>50</ele>
        <time>2021-05-19T16:23:08.000Z</time>
      </trkpt>
      <trkpt lat="47.32224" lon="-1.33549">
        <ele>49</ele>
        <time>2021-05-19T16:23:10.000Z</time>
      </trkpt>
      <trkpt lat="47.32218" lon="-1.33564">
        <ele>49</ele>
        <time>2021-05-19T16:23:12.000Z</time>
      </trkpt>
      <trkpt lat="47.3221" lon="-1.33578">
        <ele>49</ele>
        <time>2021-05-19T16:23:14.000Z</time>
      </trkpt>
      <trkpt lat="47.32204" lon="-1.33593">
        <ele>49</ele>
        <time>2021-05-19T16:23:16.000Z</time>
      </trkpt>
      <trkpt lat="47.32197" lon="-1.33609">
        <ele>49</ele>
        <time>2021-05-19T16:23:18.000Z</time>
      </trkpt>
      <trkpt lat="47.32192" lon="-1.33623">
        <ele>49</ele>
        <time>2021-05-19T16:23:20.000Z</time>
      </trkpt>
      <trkpt lat="47.32185" lon="-1.33637">
        <ele>49</ele>
        <time>2021-05-19T16:23:22.000Z</time>
      </trkpt>
      <trkpt lat="47.32179" lon="-1.33652">
        <ele>49</ele>
        <time>2021-05-19T16:23:25.000Z</time>
      </trkpt>
      <trkpt lat="47.32176" lon="-1.33665">
        <ele>49</ele>
        <time>2021-05-19T16:23:27.000Z</time>
      </trkpt>
      <trkpt lat="47.32171" lon="-1.3368">
        <ele>49</ele>
        <time>2021-05-19T16:23:29.000Z</time>
      </trkpt>
      <trkpt lat="47.32166" lon="-1.33695">
        <ele>49</ele>
        <time>2021-05-19T16:23:31.000Z</time>
      </trkpt>
      <trkpt lat="47.32159" lon="-1.33712">
        <ele>49</ele>
        <time>2021-05-19T16:23:33.000Z</time>
      </trkpt>
      <trkpt lat="47.3215" lon="-1.33737">
        <ele>48</ele>
        <time>2021-05-19T16:23:36.000Z</time>
      </trkpt>
      <trkpt lat="47.32142" lon="-1.33752">
        <ele>47</ele>
        <time>2021-05-19T16:23:38.000Z</time>
      </trkpt>
      <trkpt lat="47.32137" lon="-1.33767">
        <ele>47</ele>
        <time>2021-05-19T16:23:40.000Z</time>
      </trkpt>
      <trkpt lat="47.32131" lon="-1.33782">
        <ele>47</ele>
        <time>2021-05-19T16:23:42.000Z</time>
      </trkpt>
      <trkpt lat="47.32125" lon="-1.33798">
        <ele>47</ele>
        <time>2021-05-19T16:23:44.000Z</time>
      </trkpt>
      <trkpt lat="47.32118" lon="-1.33814">
        <ele>47</ele>
        <time>2021-05-19T16:23:46.000Z</time>
      </trkpt>
      <trkpt lat="47.32112" lon="-1.33828">
        <ele>47</ele>
        <time>2021-05-19T16:23:48.000Z</time>
      </trkpt>
      <trkpt lat="47.32104" lon="-1.33843">
        <ele>46</ele>
        <time>2021-05-19T16:23:50.000Z</time>
      </trkpt>
      <trkpt lat="47.32096" lon="-1.33859">
        <ele>46</ele>
        <time>2021-05-19T16:23:52.000Z</time>
      </trkpt>
      <trkpt lat="47.32089" lon="-1.33874">
        <ele>46</ele>
        <time>2021-05-19T16:23:54.000Z</time>
      </trkpt>
      <trkpt lat="47.32081" lon="-1.33888">
        <ele>46</ele>
        <time>2021-05-19T16:23:56.000Z</time>
      </trkpt>
      <trkpt lat="47.32072" lon="-1.33903">
        <ele>46</ele>
        <time>2021-05-19T16:23:58.000Z</time>
      </trkpt>
      <trkpt lat="47.32063" lon="-1.33917">
        <ele>46</ele>
        <time>2021-05-19T16:24:00.000Z</time>
      </trkpt>
      <trkpt lat="47.32055" lon="-1.33932">
        <ele>46</ele>
        <time>2021-05-19T16:24:02.000Z</time>
      </trkpt>
      <trkpt lat="47.32047" lon="-1.33946">
        <ele>46</ele>
        <time>2021-05-19T16:24:04.000Z</time>
      </trkpt>
      <trkpt lat="47.32041" lon="-1.33959">
        <ele>47</ele>
        <time>2021-05-19T16:24:06.000Z</time>
      </trkpt>
      <trkpt lat="47.32035" lon="-1.33972">
        <ele>48</ele>
        <time>2021-05-19T16:24:08.000Z</time>
      </trkpt>
      <trkpt lat="47.32027" lon="-1.33983">
        <ele>49</ele>
        <time>2021-05-19T16:24:10.000Z</time>
      </trkpt>
      <trkpt lat="47.32018" lon="-1.33994">
        <ele>50</ele>
        <time>2021-05-19T16:24:12.000Z</time>
      </trkpt>
      <trkpt lat="47.3201" lon="-1.34007">
        <ele>50</ele>
        <time>2021-05-19T16:24:14.000Z</time>
      </trkpt>
      <trkpt lat="47.32001" lon="-1.3402">
        <ele>50</ele>
        <time>2021-05-19T16:24:16.000Z</time>
      </trkpt>
      <trkpt lat="47.31993" lon="-1.34034">
        <ele>51</ele>
        <time>2021-05-19T16:24:18.000Z</time>
      </trkpt>
      <trkpt lat="47.31984" lon="-1.34047">
        <ele>51</ele>
        <time>2021-05-19T16:24:20.000Z</time>
      </trkpt>
      <trkpt lat="47.31975" lon="-1.3406">
        <ele>52</ele>
        <time>2021-05-19T16:24:22.000Z</time>
      </trkpt>
      <trkpt lat="47.31966" lon="-1.34073">
        <ele>52</ele>
        <time>2021-05-19T16:24:24.000Z</time>
      </trkpt>
      <trkpt lat="47.31957" lon="-1.34087">
        <ele>53</ele>
        <time>2021-05-19T16:24:26.000Z</time>
      </trkpt>
      <trkpt lat="47.31948" lon="-1.34101">
        <ele>53</ele>
        <time>2021-05-19T16:24:28.000Z</time>
      </trkpt>
      <trkpt lat="47.31941" lon="-1.34114">
        <ele>54</ele>
        <time>2021-05-19T16:24:30.000Z</time>
      </trkpt>
      <trkpt lat="47.31934" lon="-1.34127">
        <ele>54</ele>
        <time>2021-05-19T16:24:32.000Z</time>
      </trkpt>
      <trkpt lat="47.31925" lon="-1.34139">
        <ele>54</ele>
        <time>2021-05-19T16:24:34.000Z</time>
      </trkpt>
      <trkpt lat="47.31916" lon="-1.34151">
        <ele>55</ele>
        <time>2021-05-19T16:24:36.000Z</time>
      </trkpt>
      <trkpt lat="47.31908" lon="-1.34162">
        <ele>54</ele>
        <time>2021-05-19T16:24:38.000Z</time>
      </trkpt>
      <trkpt lat="47.319" lon="-1.34174">
        <ele>53</ele>
        <time>2021-05-19T16:24:40.000Z</time>
      </trkpt>
      <trkpt lat="47.31891" lon="-1.34188">
        <ele>53</ele>
        <time>2021-05-19T16:24:42.000Z</time>
      </trkpt>
      <trkpt lat="47.31881" lon="-1.34201">
        <ele>53</ele>
        <time>2021-05-19T16:24:44.000Z</time>
      </trkpt>
      <trkpt lat="47.31872" lon="-1.34214">
        <ele>53</ele>
        <time>2021-05-19T16:24:46.000Z</time>
      </trkpt>
      <trkpt lat="47.31864" lon="-1.34229">
        <ele>52</ele>
        <time>2021-05-19T16:24:48.000Z</time>
      </trkpt>
      <trkpt lat="47.31856" lon="-1.34241">
        <ele>52</ele>
        <time>2021-05-19T16:24:50.000Z</time>
      </trkpt>
      <trkpt lat="47.31846" lon="-1.34255">
        <ele>52</ele>
        <time>2021-05-19T16:24:52.000Z</time>
      </trkpt>
      <trkpt lat="47.31838" lon="-1.3427">
        <ele>52</ele>
        <time>2021-05-19T16:24:54.000Z</time>
      </trkpt>
      <trkpt lat="47.31829" lon="-1.34283">
        <ele>51</ele>
        <time>2021-05-19T16:24:56.000Z</time>
      </trkpt>
      <trkpt lat="47.31821" lon="-1.34296">
        <ele>51</ele>
        <time>2021-05-19T16:24:58.000Z</time>
      </trkpt>
      <trkpt lat="47.31813" lon="-1.34309">
        <ele>51</ele>
        <time>2021-05-19T16:25:00.000Z</time>
      </trkpt>
      <trkpt lat="47.31805" lon="-1.34323">
        <ele>51</ele>
        <time>2021-05-19T16:25:02.000Z</time>
      </trkpt>
      <trkpt lat="47.31796" lon="-1.34336">
        <ele>50</ele>
        <time>2021-05-19T16:25:04.000Z</time>
      </trkpt>
      <trkpt lat="47.31787" lon="-1.34349">
        <ele>50</ele>
        <time>2021-05-19T16:25:06.000Z</time>
      </trkpt>
      <trkpt lat="47.31778" lon="-1.34362">
        <ele>49</ele>
        <time>2021-05-19T16:25:08.000Z</time>
      </trkpt>
      <trkpt lat="47.31769" lon="-1.34375">
        <ele>49</ele>
        <time>2021-05-19T16:25:10.000Z</time>
      </trkpt>
      <trkpt lat="47.31761" lon="-1.34388">
        <ele>50</ele>
        <time>2021-05-19T16:25:12.000Z</time>
      </trkpt>
      <trkpt lat="47.31753" lon="-1.34402">
        <ele>50</ele>
        <time>2021-05-19T16:25:14.000Z</time>
      </trkpt>
      <trkpt lat="47.31744" lon="-1.34416">
        <ele>50</ele>
        <time>2021-05-19T16:25:16.000Z</time>
      </trkpt>
      <trkpt lat="47.31736" lon="-1.3443">
        <ele>50</ele>
        <time>2021-05-19T16:25:18.000Z</time>
      </trkpt>
      <trkpt lat="47.31728" lon="-1.34444">
        <ele>50</ele>
        <time>2021-05-19T16:25:20.000Z</time>
      </trkpt>
      <trkpt lat="47.3172" lon="-1.34457">
        <ele>50</ele>
        <time>2021-05-19T16:25:22.000Z</time>
      </trkpt>
      <trkpt lat="47.31712" lon="-1.3447">
        <ele>50</ele>
        <time>2021-05-19T16:25:24.000Z</time>
      </trkpt>
      <trkpt lat="47.31703" lon="-1.34483">
        <ele>50</ele>
        <time>2021-05-19T16:25:26.000Z</time>
      </trkpt>
      <trkpt lat="47.31695" lon="-1.34497">
        <ele>50</ele>
        <time>2021-05-19T16:25:28.000Z</time>
      </trkpt>
      <trkpt lat="47.31687" lon="-1.3451">
        <ele>49</ele>
        <time>2021-05-19T16:25:30.000Z</time>
      </trkpt>
      <trkpt lat="47.31679" lon="-1.34523">
        <ele>49</ele>
        <time>2021-05-19T16:25:32.000Z</time>
      </trkpt>
      <trkpt lat="47.3167" lon="-1.34536">
        <ele>49</ele>
        <time>2021-05-19T16:25:34.000Z</time>
      </trkpt>
      <trkpt lat="47.31661" lon="-1.34549">
        <ele>48</ele>
        <time>2021-05-19T16:25:36.000Z</time>
      </trkpt>
      <trkpt lat="47.31652" lon="-1.34562">
        <ele>48</ele>
        <time>2021-05-19T16:25:38.000Z</time>
      </trkpt>
      <trkpt lat="47.31645" lon="-1.34577">
        <ele>49</ele>
        <time>2021-05-19T16:25:40.000Z</time>
      </trkpt>
      <trkpt lat="47.31637" lon="-1.3459">
        <ele>49</ele>
        <time>2021-05-19T16:25:42.000Z</time>
      </trkpt>
      <trkpt lat="47.31628" lon="-1.34603">
        <ele>48</ele>
        <time>2021-05-19T16:25:44.000Z</time>
      </trkpt>
      <trkpt lat="47.3162" lon="-1.34617">
        <ele>48</ele>
        <time>2021-05-19T16:25:46.000Z</time>
      </trkpt>
      <trkpt lat="47.31611" lon="-1.34631">
        <ele>48</ele>
        <time>2021-05-19T16:25:48.000Z</time>
      </trkpt>
      <trkpt lat="47.31603" lon="-1.34645">
        <ele>48</ele>
        <time>2021-05-19T16:25:50.000Z</time>
      </trkpt>
      <trkpt lat="47.31593" lon="-1.3466">
        <ele>48</ele>
        <time>2021-05-19T16:25:52.000Z</time>
      </trkpt>
      <trkpt lat="47.31584" lon="-1.34673">
        <ele>48</ele>
        <time>2021-05-19T16:25:54.000Z</time>
      </trkpt>
      <trkpt lat="47.31575" lon="-1.34687">
        <ele>48</ele>
        <time>2021-05-19T16:25:56.000Z</time>
      </trkpt>
      <trkpt lat="47.31567" lon="-1.347">
        <ele>48</ele>
        <time>2021-05-19T16:25:58.000Z</time>
      </trkpt>
      <trkpt lat="47.3156" lon="-1.34714">
        <ele>47</ele>
        <time>2021-05-19T16:26:00.000Z</time>
      </trkpt>
      <trkpt lat="47.31551" lon="-1.34727">
        <ele>48</ele>
        <time>2021-05-19T16:26:02.000Z</time>
      </trkpt>
      <trkpt lat="47.31543" lon="-1.34741">
        <ele>47</ele>
        <time>2021-05-19T16:26:04.000Z</time>
      </trkpt>
      <trkpt lat="47.31534" lon="-1.34754">
        <ele>46</ele>
        <time>2021-05-19T16:26:06.000Z</time>
      </trkpt>
      <trkpt lat="47.31526" lon="-1.34767">
        <ele>46</ele>
        <time>2021-05-19T16:26:08.000Z</time>
      </trkpt>
      <trkpt lat="47.31518" lon="-1.34781">
        <ele>46</ele>
        <time>2021-05-19T16:26:10.000Z</time>
      </trkpt>
      <trkpt lat="47.3151" lon="-1.34795">
        <ele>46</ele>
        <time>2021-05-19T16:26:12.000Z</time>
      </trkpt>
      <trkpt lat="47.31502" lon="-1.34809">
        <ele>46</ele>
        <time>2021-05-19T16:26:14.000Z</time>
      </trkpt>
      <trkpt lat="47.31493" lon="-1.34823">
        <ele>46</ele>
        <time>2021-05-19T16:26:16.000Z</time>
      </trkpt>
      <trkpt lat="47.31485" lon="-1.34837">
        <ele>46</ele>
        <time>2021-05-19T16:26:18.000Z</time>
      </trkpt>
      <trkpt lat="47.31476" lon="-1.34852">
        <ele>46</ele>
        <time>2021-05-19T16:26:20.000Z</time>
      </trkpt>
      <trkpt lat="47.31468" lon="-1.34866">
        <ele>45</ele>
        <time>2021-05-19T16:26:22.000Z</time>
      </trkpt>
      <trkpt lat="47.31459" lon="-1.34879">
        <ele>45</ele>
        <time>2021-05-19T16:26:24.000Z</time>
      </trkpt>
      <trkpt lat="47.3145" lon="-1.34892">
        <ele>45</ele>
        <time>2021-05-19T16:26:26.000Z</time>
      </trkpt>
      <trkpt lat="47.31441" lon="-1.34906">
        <ele>45</ele>
        <time>2021-05-19T16:26:28.000Z</time>
      </trkpt>
      <trkpt lat="47.31432" lon="-1.34919">
        <ele>46</ele>
        <time>2021-05-19T16:26:30.000Z</time>
      </trkpt>
      <trkpt lat="47.31423" lon="-1.34933">
        <ele>46</ele>
        <time>2021-05-19T16:26:32.000Z</time>
      </trkpt>
      <trkpt lat="47.31414" lon="-1.34947">
        <ele>47</ele>
        <time>2021-05-19T16:26:34.000Z</time>
      </trkpt>
      <trkpt lat="47.31406" lon="-1.3496">
        <ele>47</ele>
        <time>2021-05-19T16:26:36.000Z</time>
      </trkpt>
      <trkpt lat="47.31397" lon="-1.34974">
        <ele>47</ele>
        <time>2021-05-19T16:26:38.000Z</time>
      </trkpt>
      <trkpt lat="47.31388" lon="-1.34986">
        <ele>48</ele>
        <time>2021-05-19T16:26:40.000Z</time>
      </trkpt>
      <trkpt lat="47.31381" lon="-1.35001">
        <ele>48</ele>
        <time>2021-05-19T16:26:42.000Z</time>
      </trkpt>
      <trkpt lat="47.31373" lon="-1.35014">
        <ele>48</ele>
        <time>2021-05-19T16:26:44.000Z</time>
      </trkpt>
      <trkpt lat="47.31364" lon="-1.35027">
        <ele>49</ele>
        <time>2021-05-19T16:26:46.000Z</time>
      </trkpt>
      <trkpt lat="47.31355" lon="-1.3504">
        <ele>49</ele>
        <time>2021-05-19T16:26:48.000Z</time>
      </trkpt>
      <trkpt lat="47.31347" lon="-1.35053">
        <ele>50</ele>
        <time>2021-05-19T16:26:50.000Z</time>
      </trkpt>
      <trkpt lat="47.31338" lon="-1.35066">
        <ele>50</ele>
        <time>2021-05-19T16:26:52.000Z</time>
      </trkpt>
      <trkpt lat="47.3133" lon="-1.3508">
        <ele>50</ele>
        <time>2021-05-19T16:26:54.000Z</time>
      </trkpt>
      <trkpt lat="47.31321" lon="-1.35088">
        <ele>50</ele>
        <time>2021-05-19T16:26:56.000Z</time>
      </trkpt>
      <trkpt lat="47.31308" lon="-1.35093">
        <ele>50</ele>
        <time>2021-05-19T16:26:58.000Z</time>
      </trkpt>
      <trkpt lat="47.31298" lon="-1.35106">
        <ele>50</ele>
        <time>2021-05-19T16:27:00.000Z</time>
      </trkpt>
      <trkpt lat="47.3129" lon="-1.35119">
        <ele>51</ele>
        <time>2021-05-19T16:27:02.000Z</time>
      </trkpt>
      <trkpt lat="47.31284" lon="-1.35133">
        <ele>51</ele>
        <time>2021-05-19T16:27:04.000Z</time>
      </trkpt>
      <trkpt lat="47.31278" lon="-1.35149">
        <ele>50</ele>
        <time>2021-05-19T16:27:06.000Z</time>
      </trkpt>
      <trkpt lat="47.3127" lon="-1.35163">
        <ele>50</ele>
        <time>2021-05-19T16:27:08.000Z</time>
      </trkpt>
      <trkpt lat="47.31262" lon="-1.35177">
        <ele>50</ele>
        <time>2021-05-19T16:27:10.000Z</time>
      </trkpt>
      <trkpt lat="47.31254" lon="-1.35191">
        <ele>49</ele>
        <time>2021-05-19T16:27:12.000Z</time>
      </trkpt>
      <trkpt lat="47.31245" lon="-1.35205">
        <ele>49</ele>
        <time>2021-05-19T16:27:14.000Z</time>
      </trkpt>
      <trkpt lat="47.31237" lon="-1.35218">
        <ele>49</ele>
        <time>2021-05-19T16:27:16.000Z</time>
      </trkpt>
      <trkpt lat="47.31229" lon="-1.35231">
        <ele>49</ele>
        <time>2021-05-19T16:27:18.000Z</time>
      </trkpt>
      <trkpt lat="47.3122" lon="-1.35244">
        <ele>49</ele>
        <time>2021-05-19T16:27:20.000Z</time>
      </trkpt>
      <trkpt lat="47.31212" lon="-1.35257">
        <ele>49</ele>
        <time>2021-05-19T16:27:22.000Z</time>
      </trkpt>
      <trkpt lat="47.31204" lon="-1.35271">
        <ele>50</ele>
        <time>2021-05-19T16:27:24.000Z</time>
      </trkpt>
      <trkpt lat="47.31196" lon="-1.35284">
        <ele>50</ele>
        <time>2021-05-19T16:27:26.000Z</time>
      </trkpt>
      <trkpt lat="47.31188" lon="-1.35298">
        <ele>50</ele>
        <time>2021-05-19T16:27:28.000Z</time>
      </trkpt>
      <trkpt lat="47.3118" lon="-1.35312">
        <ele>49</ele>
        <time>2021-05-19T16:27:30.000Z</time>
      </trkpt>
      <trkpt lat="47.31171" lon="-1.35326">
        <ele>49</ele>
        <time>2021-05-19T16:27:32.000Z</time>
      </trkpt>
      <trkpt lat="47.31163" lon="-1.3534">
        <ele>49</ele>
        <time>2021-05-19T16:27:34.000Z</time>
      </trkpt>
      <trkpt lat="47.31154" lon="-1.35354">
        <ele>49</ele>
        <time>2021-05-19T16:27:36.000Z</time>
      </trkpt>
      <trkpt lat="47.31145" lon="-1.35367">
        <ele>50</ele>
        <time>2021-05-19T16:27:38.000Z</time>
      </trkpt>
      <trkpt lat="47.31136" lon="-1.3538">
        <ele>50</ele>
        <time>2021-05-19T16:27:40.000Z</time>
      </trkpt>
      <trkpt lat="47.31128" lon="-1.35394">
        <ele>49</ele>
        <time>2021-05-19T16:27:42.000Z</time>
      </trkpt>
      <trkpt lat="47.31119" lon="-1.35407">
        <ele>50</ele>
        <time>2021-05-19T16:27:44.000Z</time>
      </trkpt>
      <trkpt lat="47.3111" lon="-1.35421">
        <ele>49</ele>
        <time>2021-05-19T16:27:46.000Z</time>
      </trkpt>
      <trkpt lat="47.31101" lon="-1.35434">
        <ele>49</ele>
        <time>2021-05-19T16:27:48.000Z</time>
      </trkpt>
      <trkpt lat="47.31093" lon="-1.35447">
        <ele>50</ele>
        <time>2021-05-19T16:27:50.000Z</time>
      </trkpt>
      <trkpt lat="47.31083" lon="-1.35459">
        <ele>50</ele>
        <time>2021-05-19T16:27:52.000Z</time>
      </trkpt>
      <trkpt lat="47.31073" lon="-1.35472">
        <ele>49</ele>
        <time>2021-05-19T16:27:54.000Z</time>
      </trkpt>
      <trkpt lat="47.31063" lon="-1.35485">
        <ele>49</ele>
        <time>2021-05-19T16:27:56.000Z</time>
      </trkpt>
      <trkpt lat="47.31052" lon="-1.35497">
        <ele>50</ele>
        <time>2021-05-19T16:27:58.000Z</time>
      </trkpt>
      <trkpt lat="47.31042" lon="-1.35509">
        <ele>50</ele>
        <time>2021-05-19T16:28:00.000Z</time>
      </trkpt>
      <trkpt lat="47.31032" lon="-1.35521">
        <ele>50</ele>
        <time>2021-05-19T16:28:02.000Z</time>
      </trkpt>
      <trkpt lat="47.31021" lon="-1.35532">
        <ele>50</ele>
        <time>2021-05-19T16:28:04.000Z</time>
      </trkpt>
      <trkpt lat="47.3101" lon="-1.35544">
        <ele>50</ele>
        <time>2021-05-19T16:28:06.000Z</time>
      </trkpt>
      <trkpt lat="47.31" lon="-1.35556">
        <ele>50</ele>
        <time>2021-05-19T16:28:08.000Z</time>
      </trkpt>
      <trkpt lat="47.3099" lon="-1.35568">
        <ele>50</ele>
        <time>2021-05-19T16:28:10.000Z</time>
      </trkpt>
      <trkpt lat="47.30979" lon="-1.35581">
        <ele>50</ele>
        <time>2021-05-19T16:28:12.000Z</time>
      </trkpt>
      <trkpt lat="47.30969" lon="-1.35593">
        <ele>51</ele>
        <time>2021-05-19T16:28:14.000Z</time>
      </trkpt>
      <trkpt lat="47.30959" lon="-1.35604">
        <ele>50</ele>
        <time>2021-05-19T16:28:16.000Z</time>
      </trkpt>
      <trkpt lat="47.30949" lon="-1.35617">
        <ele>51</ele>
        <time>2021-05-19T16:28:18.000Z</time>
      </trkpt>
      <trkpt lat="47.30938" lon="-1.35628">
        <ele>50</ele>
        <time>2021-05-19T16:28:20.000Z</time>
      </trkpt>
      <trkpt lat="47.30928" lon="-1.3564">
        <ele>50</ele>
        <time>2021-05-19T16:28:22.000Z</time>
      </trkpt>
      <trkpt lat="47.30919" lon="-1.35652">
        <ele>49</ele>
        <time>2021-05-19T16:28:24.000Z</time>
      </trkpt>
      <trkpt lat="47.30909" lon="-1.35664">
        <ele>49</ele>
        <time>2021-05-19T16:28:26.000Z</time>
      </trkpt>
      <trkpt lat="47.30899" lon="-1.35675">
        <ele>49</ele>
        <time>2021-05-19T16:28:28.000Z</time>
      </trkpt>
      <trkpt lat="47.30889" lon="-1.35687">
        <ele>48</ele>
        <time>2021-05-19T16:28:30.000Z</time>
      </trkpt>
      <trkpt lat="47.30878" lon="-1.35701">
        <ele>48</ele>
        <time>2021-05-19T16:28:32.000Z</time>
      </trkpt>
      <trkpt lat="47.30867" lon="-1.35714">
        <ele>47</ele>
        <time>2021-05-19T16:28:34.000Z</time>
      </trkpt>
      <trkpt lat="47.30856" lon="-1.35726">
        <ele>47</ele>
        <time>2021-05-19T16:28:36.000Z</time>
      </trkpt>
      <trkpt lat="47.30846" lon="-1.35738">
        <ele>47</ele>
        <time>2021-05-19T16:28:38.000Z</time>
      </trkpt>
      <trkpt lat="47.30837" lon="-1.3575">
        <ele>47</ele>
        <time>2021-05-19T16:28:40.000Z</time>
      </trkpt>
      <trkpt lat="47.30827" lon="-1.35763">
        <ele>46</ele>
        <time>2021-05-19T16:28:42.000Z</time>
      </trkpt>
      <trkpt lat="47.30817" lon="-1.35775">
        <ele>46</ele>
        <time>2021-05-19T16:28:44.000Z</time>
      </trkpt>
      <trkpt lat="47.30807" lon="-1.35787">
        <ele>46</ele>
        <time>2021-05-19T16:28:46.000Z</time>
      </trkpt>
      <trkpt lat="47.30797" lon="-1.358">
        <ele>45</ele>
        <time>2021-05-19T16:28:48.000Z</time>
      </trkpt>
      <trkpt lat="47.30786" lon="-1.35812">
        <ele>45</ele>
        <time>2021-05-19T16:28:50.000Z</time>
      </trkpt>
      <trkpt lat="47.30776" lon="-1.35824">
        <ele>45</ele>
        <time>2021-05-19T16:28:52.000Z</time>
      </trkpt>
      <trkpt lat="47.30765" lon="-1.35836">
        <ele>44</ele>
        <time>2021-05-19T16:28:54.000Z</time>
      </trkpt>
      <trkpt lat="47.30755" lon="-1.35846">
        <ele>44</ele>
        <time>2021-05-19T16:28:56.000Z</time>
      </trkpt>
      <trkpt lat="47.30745" lon="-1.35857">
        <ele>45</ele>
        <time>2021-05-19T16:28:58.000Z</time>
      </trkpt>
      <trkpt lat="47.30734" lon="-1.35869">
        <ele>45</ele>
        <time>2021-05-19T16:29:00.000Z</time>
      </trkpt>
      <trkpt lat="47.30724" lon="-1.35881">
        <ele>46</ele>
        <time>2021-05-19T16:29:02.000Z</time>
      </trkpt>
      <trkpt lat="47.30713" lon="-1.35892">
        <ele>45</ele>
        <time>2021-05-19T16:29:04.000Z</time>
      </trkpt>
      <trkpt lat="47.30702" lon="-1.35905">
        <ele>45</ele>
        <time>2021-05-19T16:29:06.000Z</time>
      </trkpt>
      <trkpt lat="47.30692" lon="-1.35918">
        <ele>46</ele>
        <time>2021-05-19T16:29:08.000Z</time>
      </trkpt>
      <trkpt lat="47.30682" lon="-1.3593">
        <ele>46</ele>
        <time>2021-05-19T16:29:10.000Z</time>
      </trkpt>
      <trkpt lat="47.30671" lon="-1.35942">
        <ele>46</ele>
        <time>2021-05-19T16:29:12.000Z</time>
      </trkpt>
      <trkpt lat="47.30661" lon="-1.35954">
        <ele>46</ele>
        <time>2021-05-19T16:29:14.000Z</time>
      </trkpt>
      <trkpt lat="47.30651" lon="-1.35965">
        <ele>46</ele>
        <time>2021-05-19T16:29:16.000Z</time>
      </trkpt>
      <trkpt lat="47.3064" lon="-1.35977">
        <ele>46</ele>
        <time>2021-05-19T16:29:18.000Z</time>
      </trkpt>
      <trkpt lat="47.3063" lon="-1.35989">
        <ele>46</ele>
        <time>2021-05-19T16:29:20.000Z</time>
      </trkpt>
      <trkpt lat="47.30621" lon="-1.36">
        <ele>47</ele>
        <time>2021-05-19T16:29:22.000Z</time>
      </trkpt>
      <trkpt lat="47.30612" lon="-1.3601">
        <ele>46</ele>
        <time>2021-05-19T16:29:24.000Z</time>
      </trkpt>
      <trkpt lat="47.30603" lon="-1.36019">
        <ele>45</ele>
        <time>2021-05-19T16:29:26.000Z</time>
      </trkpt>
      <trkpt lat="47.30593" lon="-1.3603">
        <ele>46</ele>
        <time>2021-05-19T16:29:28.000Z</time>
      </trkpt>
      <trkpt lat="47.30586" lon="-1.36043">
        <ele>46</ele>
        <time>2021-05-19T16:29:30.000Z</time>
      </trkpt>
      <trkpt lat="47.30579" lon="-1.36056">
        <ele>46</ele>
        <time>2021-05-19T16:29:32.000Z</time>
      </trkpt>
      <trkpt lat="47.30569" lon="-1.36068">
        <ele>46</ele>
        <time>2021-05-19T16:29:34.000Z</time>
      </trkpt>
      <trkpt lat="47.3056" lon="-1.36081">
        <ele>46</ele>
        <time>2021-05-19T16:29:36.000Z</time>
      </trkpt>
      <trkpt lat="47.30552" lon="-1.36094">
        <ele>46</ele>
        <time>2021-05-19T16:29:38.000Z</time>
      </trkpt>
      <trkpt lat="47.30543" lon="-1.36107">
        <ele>46</ele>
        <time>2021-05-19T16:29:40.000Z</time>
      </trkpt>
      <trkpt lat="47.30535" lon="-1.36121">
        <ele>46</ele>
        <time>2021-05-19T16:29:42.000Z</time>
      </trkpt>
      <trkpt lat="47.30527" lon="-1.36135">
        <ele>46</ele>
        <time>2021-05-19T16:29:44.000Z</time>
      </trkpt>
      <trkpt lat="47.30519" lon="-1.36149">
        <ele>46</ele>
        <time>2021-05-19T16:29:46.000Z</time>
      </trkpt>
      <trkpt lat="47.3051" lon="-1.36162">
        <ele>46</ele>
        <time>2021-05-19T16:29:48.000Z</time>
      </trkpt>
      <trkpt lat="47.30502" lon="-1.36176">
        <ele>46</ele>
        <time>2021-05-19T16:29:50.000Z</time>
      </trkpt>
      <trkpt lat="47.30493" lon="-1.36191">
        <ele>45</ele>
        <time>2021-05-19T16:29:52.000Z</time>
      </trkpt>
      <trkpt lat="47.30486" lon="-1.36206">
        <ele>46</ele>
        <time>2021-05-19T16:29:54.000Z</time>
      </trkpt>
      <trkpt lat="47.30479" lon="-1.36221">
        <ele>46</ele>
        <time>2021-05-19T16:29:56.000Z</time>
      </trkpt>
      <trkpt lat="47.30471" lon="-1.36236">
        <ele>46</ele>
        <time>2021-05-19T16:29:58.000Z</time>
      </trkpt>
      <trkpt lat="47.30464" lon="-1.36252">
        <ele>45</ele>
        <time>2021-05-19T16:30:00.000Z</time>
      </trkpt>
      <trkpt lat="47.30457" lon="-1.36268">
        <ele>45</ele>
        <time>2021-05-19T16:30:02.000Z</time>
      </trkpt>
      <trkpt lat="47.30449" lon="-1.36284">
        <ele>45</ele>
        <time>2021-05-19T16:30:04.000Z</time>
      </trkpt>
      <trkpt lat="47.30442" lon="-1.36299">
        <ele>45</ele>
        <time>2021-05-19T16:30:06.000Z</time>
      </trkpt>
      <trkpt lat="47.30435" lon="-1.36315">
        <ele>45</ele>
        <time>2021-05-19T16:30:08.000Z</time>
      </trkpt>
      <trkpt lat="47.30427" lon="-1.36331">
        <ele>44</ele>
        <time>2021-05-19T16:30:10.000Z</time>
      </trkpt>
      <trkpt lat="47.30419" lon="-1.36345">
        <ele>44</ele>
        <time>2021-05-19T16:30:12.000Z</time>
      </trkpt>
      <trkpt lat="47.30413" lon="-1.36359">
        <ele>44</ele>
        <time>2021-05-19T16:30:14.000Z</time>
      </trkpt>
      <trkpt lat="47.30407" lon="-1.36374">
        <ele>43</ele>
        <time>2021-05-19T16:30:16.000Z</time>
      </trkpt>
      <trkpt lat="47.304" lon="-1.3639">
        <ele>43</ele>
        <time>2021-05-19T16:30:18.000Z</time>
      </trkpt>
      <trkpt lat="47.30392" lon="-1.36406">
        <ele>43</ele>
        <time>2021-05-19T16:30:20.000Z</time>
      </trkpt>
      <trkpt lat="47.30383" lon="-1.36422">
        <ele>43</ele>
        <time>2021-05-19T16:30:22.000Z</time>
      </trkpt>
      <trkpt lat="47.30376" lon="-1.36437">
        <ele>43</ele>
        <time>2021-05-19T16:30:24.000Z</time>
      </trkpt>
      <trkpt lat="47.30368" lon="-1.36453">
        <ele>43</ele>
        <time>2021-05-19T16:30:26.000Z</time>
      </trkpt>
      <trkpt lat="47.3036" lon="-1.36469">
        <ele>43</ele>
        <time>2021-05-19T16:30:28.000Z</time>
      </trkpt>
      <trkpt lat="47.30351" lon="-1.36485">
        <ele>42</ele>
        <time>2021-05-19T16:30:30.000Z</time>
      </trkpt>
      <trkpt lat="47.30344" lon="-1.36501">
        <ele>42</ele>
        <time>2021-05-19T16:30:32.000Z</time>
      </trkpt>
      <trkpt lat="47.30336" lon="-1.36517">
        <ele>42</ele>
        <time>2021-05-19T16:30:34.000Z</time>
      </trkpt>
      <trkpt lat="47.30328" lon="-1.36534">
        <ele>41</ele>
        <time>2021-05-19T16:30:36.000Z</time>
      </trkpt>
      <trkpt lat="47.30321" lon="-1.3655">
        <ele>41</ele>
        <time>2021-05-19T16:30:38.000Z</time>
      </trkpt>
      <trkpt lat="47.30314" lon="-1.36567">
        <ele>41</ele>
        <time>2021-05-19T16:30:40.000Z</time>
      </trkpt>
      <trkpt lat="47.30307" lon="-1.36583">
        <ele>41</ele>
        <time>2021-05-19T16:30:42.000Z</time>
      </trkpt>
      <trkpt lat="47.30301" lon="-1.36598">
        <ele>40</ele>
        <time>2021-05-19T16:30:44.000Z</time>
      </trkpt>
      <trkpt lat="47.30294" lon="-1.36614">
        <ele>41</ele>
        <time>2021-05-19T16:30:46.000Z</time>
      </trkpt>
      <trkpt lat="47.30285" lon="-1.36629">
        <ele>42</ele>
        <time>2021-05-19T16:30:48.000Z</time>
      </trkpt>
      <trkpt lat="47.30277" lon="-1.36644">
        <ele>42</ele>
        <time>2021-05-19T16:30:50.000Z</time>
      </trkpt>
      <trkpt lat="47.30269" lon="-1.36661">
        <ele>43</ele>
        <time>2021-05-19T16:30:52.000Z</time>
      </trkpt>
      <trkpt lat="47.30261" lon="-1.36677">
        <ele>43</ele>
        <time>2021-05-19T16:30:54.000Z</time>
      </trkpt>
      <trkpt lat="47.30254" lon="-1.36692">
        <ele>43</ele>
        <time>2021-05-19T16:30:56.000Z</time>
      </trkpt>
      <trkpt lat="47.30247" lon="-1.36708">
        <ele>44</ele>
        <time>2021-05-19T16:30:58.000Z</time>
      </trkpt>
      <trkpt lat="47.3024" lon="-1.36724">
        <ele>45</ele>
        <time>2021-05-19T16:31:00.000Z</time>
      </trkpt>
      <trkpt lat="47.30232" lon="-1.36739">
        <ele>45</ele>
        <time>2021-05-19T16:31:02.000Z</time>
      </trkpt>
      <trkpt lat="47.30224" lon="-1.36754">
        <ele>45</ele>
        <time>2021-05-19T16:31:04.000Z</time>
      </trkpt>
      <trkpt lat="47.30216" lon="-1.3677">
        <ele>46</ele>
        <time>2021-05-19T16:31:06.000Z</time>
      </trkpt>
      <trkpt lat="47.30209" lon="-1.36785">
        <ele>47</ele>
        <time>2021-05-19T16:31:08.000Z</time>
      </trkpt>
      <trkpt lat="47.30202" lon="-1.368">
        <ele>48</ele>
        <time>2021-05-19T16:31:10.000Z</time>
      </trkpt>
      <trkpt lat="47.30195" lon="-1.36815">
        <ele>47</ele>
        <time>2021-05-19T16:31:12.000Z</time>
      </trkpt>
      <trkpt lat="47.30189" lon="-1.3683">
        <ele>47</ele>
        <time>2021-05-19T16:31:14.000Z</time>
      </trkpt>
      <trkpt lat="47.30182" lon="-1.36845">
        <ele>48</ele>
        <time>2021-05-19T16:31:16.000Z</time>
      </trkpt>
      <trkpt lat="47.30175" lon="-1.36859">
        <ele>48</ele>
        <time>2021-05-19T16:31:18.000Z</time>
      </trkpt>
      <trkpt lat="47.30168" lon="-1.36874">
        <ele>48</ele>
        <time>2021-05-19T16:31:20.000Z</time>
      </trkpt>
      <trkpt lat="47.3016" lon="-1.36889">
        <ele>48</ele>
        <time>2021-05-19T16:31:22.000Z</time>
      </trkpt>
      <trkpt lat="47.30152" lon="-1.36904">
        <ele>48</ele>
        <time>2021-05-19T16:31:24.000Z</time>
      </trkpt>
      <trkpt lat="47.30144" lon="-1.36919">
        <ele>48</ele>
        <time>2021-05-19T16:31:26.000Z</time>
      </trkpt>
      <trkpt lat="47.30136" lon="-1.36935">
        <ele>48</ele>
        <time>2021-05-19T16:31:28.000Z</time>
      </trkpt>
      <trkpt lat="47.30128" lon="-1.3695">
        <ele>48</ele>
        <time>2021-05-19T16:31:30.000Z</time>
      </trkpt>
      <trkpt lat="47.30122" lon="-1.36968">
        <ele>48</ele>
        <time>2021-05-19T16:31:32.000Z</time>
      </trkpt>
      <trkpt lat="47.30114" lon="-1.36984">
        <ele>48</ele>
        <time>2021-05-19T16:31:34.000Z</time>
      </trkpt>
      <trkpt lat="47.30106" lon="-1.36999">
        <ele>47</ele>
        <time>2021-05-19T16:31:36.000Z</time>
      </trkpt>
      <trkpt lat="47.30097" lon="-1.37014">
        <ele>48</ele>
        <time>2021-05-19T16:31:38.000Z</time>
      </trkpt>
      <trkpt lat="47.30089" lon="-1.37029">
        <ele>48</ele>
        <time>2021-05-19T16:31:40.000Z</time>
      </trkpt>
      <trkpt lat="47.30081" lon="-1.37044">
        <ele>48</ele>
        <time>2021-05-19T16:31:42.000Z</time>
      </trkpt>
      <trkpt lat="47.30073" lon="-1.37058">
        <ele>48</ele>
        <time>2021-05-19T16:31:44.000Z</time>
      </trkpt>
      <trkpt lat="47.30064" lon="-1.37073">
        <ele>48</ele>
        <time>2021-05-19T16:31:46.000Z</time>
      </trkpt>
      <trkpt lat="47.30056" lon="-1.37087">
        <ele>48</ele>
        <time>2021-05-19T16:31:48.000Z</time>
      </trkpt>
      <trkpt lat="47.30047" lon="-1.37101">
        <ele>49</ele>
        <time>2021-05-19T16:31:50.000Z</time>
      </trkpt>
      <trkpt lat="47.30038" lon="-1.37116">
        <ele>49</ele>
        <time>2021-05-19T16:31:52.000Z</time>
      </trkpt>
      <trkpt lat="47.3003" lon="-1.3713">
        <ele>49</ele>
        <time>2021-05-19T16:31:54.000Z</time>
      </trkpt>
      <trkpt lat="47.30022" lon="-1.37143">
        <ele>49</ele>
        <time>2021-05-19T16:31:56.000Z</time>
      </trkpt>
      <trkpt lat="47.30013" lon="-1.37156">
        <ele>50</ele>
        <time>2021-05-19T16:31:58.000Z</time>
      </trkpt>
      <trkpt lat="47.30003" lon="-1.3717">
        <ele>50</ele>
        <time>2021-05-19T16:32:00.000Z</time>
      </trkpt>
      <trkpt lat="47.29994" lon="-1.37184">
        <ele>50</ele>
        <time>2021-05-19T16:32:02.000Z</time>
      </trkpt>
      <trkpt lat="47.29985" lon="-1.37198">
        <ele>49</ele>
        <time>2021-05-19T16:32:04.000Z</time>
      </trkpt>
      <trkpt lat="47.29976" lon="-1.37211">
        <ele>49</ele>
        <time>2021-05-19T16:32:06.000Z</time>
      </trkpt>
      <trkpt lat="47.29968" lon="-1.37224">
        <ele>49</ele>
        <time>2021-05-19T16:32:08.000Z</time>
      </trkpt>
      <trkpt lat="47.29959" lon="-1.37237">
        <ele>49</ele>
        <time>2021-05-19T16:32:10.000Z</time>
      </trkpt>
      <trkpt lat="47.2995" lon="-1.3725">
        <ele>50</ele>
        <time>2021-05-19T16:32:12.000Z</time>
      </trkpt>
      <trkpt lat="47.29941" lon="-1.37263">
        <ele>50</ele>
        <time>2021-05-19T16:32:14.000Z</time>
      </trkpt>
      <trkpt lat="47.29932" lon="-1.37277">
        <ele>50</ele>
        <time>2021-05-19T16:32:16.000Z</time>
      </trkpt>
      <trkpt lat="47.29923" lon="-1.37291">
        <ele>50</ele>
        <time>2021-05-19T16:32:18.000Z</time>
      </trkpt>
      <trkpt lat="47.29915" lon="-1.37304">
        <ele>50</ele>
        <time>2021-05-19T16:32:20.000Z</time>
      </trkpt>
      <trkpt lat="47.29906" lon="-1.37318">
        <ele>50</ele>
        <time>2021-05-19T16:32:22.000Z</time>
      </trkpt>
      <trkpt lat="47.29897" lon="-1.37331">
        <ele>50</ele>
        <time>2021-05-19T16:32:24.000Z</time>
      </trkpt>
      <trkpt lat="47.29889" lon="-1.37345">
        <ele>50</ele>
        <time>2021-05-19T16:32:26.000Z</time>
      </trkpt>
      <trkpt lat="47.2988" lon="-1.37358">
        <ele>50</ele>
        <time>2021-05-19T16:32:28.000Z</time>
      </trkpt>
      <trkpt lat="47.29873" lon="-1.37372">
        <ele>50</ele>
        <time>2021-05-19T16:32:30.000Z</time>
      </trkpt>
      <trkpt lat="47.29864" lon="-1.37385">
        <ele>49</ele>
        <time>2021-05-19T16:32:32.000Z</time>
      </trkpt>
      <trkpt lat="47.29856" lon="-1.37397">
        <ele>49</ele>
        <time>2021-05-19T16:32:34.000Z</time>
      </trkpt>
      <trkpt lat="47.29847" lon="-1.3741">
        <ele>49</ele>
        <time>2021-05-19T16:32:36.000Z</time>
      </trkpt>
      <trkpt lat="47.29838" lon="-1.37423">
        <ele>50</ele>
        <time>2021-05-19T16:32:38.000Z</time>
      </trkpt>
      <trkpt lat="47.2983" lon="-1.37436">
        <ele>50</ele>
        <time>2021-05-19T16:32:40.000Z</time>
      </trkpt>
      <trkpt lat="47.29822" lon="-1.37449">
        <ele>50</ele>
        <time>2021-05-19T16:32:42.000Z</time>
      </trkpt>
      <trkpt lat="47.29815" lon="-1.37462">
        <ele>51</ele>
        <time>2021-05-19T16:32:44.000Z</time>
      </trkpt>
      <trkpt lat="47.29806" lon="-1.37476">
        <ele>51</ele>
        <time>2021-05-19T16:32:46.000Z</time>
      </trkpt>
      <trkpt lat="47.29798" lon="-1.37489">
        <ele>51</ele>
        <time>2021-05-19T16:32:48.000Z</time>
      </trkpt>
      <trkpt lat="47.29791" lon="-1.37503">
        <ele>51</ele>
        <time>2021-05-19T16:32:50.000Z</time>
      </trkpt>
      <trkpt lat="47.29783" lon="-1.37518">
        <ele>51</ele>
        <time>2021-05-19T16:32:52.000Z</time>
      </trkpt>
      <trkpt lat="47.29774" lon="-1.37533">
        <ele>51</ele>
        <time>2021-05-19T16:32:54.000Z</time>
      </trkpt>
      <trkpt lat="47.29766" lon="-1.37549">
        <ele>50</ele>
        <time>2021-05-19T16:32:56.000Z</time>
      </trkpt>
      <trkpt lat="47.29758" lon="-1.37565">
        <ele>50</ele>
        <time>2021-05-19T16:32:58.000Z</time>
      </trkpt>
      <trkpt lat="47.2975" lon="-1.37579">
        <ele>50</ele>
        <time>2021-05-19T16:33:00.000Z</time>
      </trkpt>
      <trkpt lat="47.29741" lon="-1.37595">
        <ele>50</ele>
        <time>2021-05-19T16:33:02.000Z</time>
      </trkpt>
      <trkpt lat="47.29733" lon="-1.37611">
        <ele>49</ele>
        <time>2021-05-19T16:33:04.000Z</time>
      </trkpt>
      <trkpt lat="47.29725" lon="-1.37626">
        <ele>49</ele>
        <time>2021-05-19T16:33:06.000Z</time>
      </trkpt>
      <trkpt lat="47.29717" lon="-1.37641">
        <ele>50</ele>
        <time>2021-05-19T16:33:08.000Z</time>
      </trkpt>
      <trkpt lat="47.2971" lon="-1.37656">
        <ele>50</ele>
        <time>2021-05-19T16:33:10.000Z</time>
      </trkpt>
      <trkpt lat="47.29703" lon="-1.3767">
        <ele>50</ele>
        <time>2021-05-19T16:33:12.000Z</time>
      </trkpt>
      <trkpt lat="47.29695" lon="-1.37685">
        <ele>50</ele>
        <time>2021-05-19T16:33:14.000Z</time>
      </trkpt>
      <trkpt lat="47.29688" lon="-1.37699">
        <ele>50</ele>
        <time>2021-05-19T16:33:16.000Z</time>
      </trkpt>
      <trkpt lat="47.29681" lon="-1.37713">
        <ele>50</ele>
        <time>2021-05-19T16:33:18.000Z</time>
      </trkpt>
      <trkpt lat="47.29673" lon="-1.37727">
        <ele>50</ele>
        <time>2021-05-19T16:33:20.000Z</time>
      </trkpt>
      <trkpt lat="47.29666" lon="-1.37742">
        <ele>50</ele>
        <time>2021-05-19T16:33:22.000Z</time>
      </trkpt>
      <trkpt lat="47.29659" lon="-1.37756">
        <ele>50</ele>
        <time>2021-05-19T16:33:24.000Z</time>
      </trkpt>
      <trkpt lat="47.29652" lon="-1.3777">
        <ele>50</ele>
        <time>2021-05-19T16:33:26.000Z</time>
      </trkpt>
      <trkpt lat="47.29645" lon="-1.37783">
        <ele>51</ele>
        <time>2021-05-19T16:33:28.000Z</time>
      </trkpt>
      <trkpt lat="47.29638" lon="-1.37796">
        <ele>51</ele>
        <time>2021-05-19T16:33:30.000Z</time>
      </trkpt>
      <trkpt lat="47.29631" lon="-1.37809">
        <ele>51</ele>
        <time>2021-05-19T16:33:32.000Z</time>
      </trkpt>
      <trkpt lat="47.29625" lon="-1.37823">
        <ele>51</ele>
        <time>2021-05-19T16:33:34.000Z</time>
      </trkpt>
      <trkpt lat="47.29618" lon="-1.37838">
        <ele>50</ele>
        <time>2021-05-19T16:33:36.000Z</time>
      </trkpt>
      <trkpt lat="47.29609" lon="-1.37853">
        <ele>50</ele>
        <time>2021-05-19T16:33:38.000Z</time>
      </trkpt>
      <trkpt lat="47.29602" lon="-1.37869">
        <ele>50</ele>
        <time>2021-05-19T16:33:40.000Z</time>
      </trkpt>
      <trkpt lat="47.29595" lon="-1.37884">
        <ele>51</ele>
        <time>2021-05-19T16:33:42.000Z</time>
      </trkpt>
      <trkpt lat="47.29589" lon="-1.37898">
        <ele>51</ele>
        <time>2021-05-19T16:33:44.000Z</time>
      </trkpt>
      <trkpt lat="47.29583" lon="-1.37913">
        <ele>51</ele>
        <time>2021-05-19T16:33:46.000Z</time>
      </trkpt>
      <trkpt lat="47.29577" lon="-1.37927">
        <ele>51</ele>
        <time>2021-05-19T16:33:48.000Z</time>
      </trkpt>
      <trkpt lat="47.2957" lon="-1.37942">
        <ele>52</ele>
        <time>2021-05-19T16:33:50.000Z</time>
      </trkpt>
      <trkpt lat="47.29564" lon="-1.37958">
        <ele>52</ele>
        <time>2021-05-19T16:33:52.000Z</time>
      </trkpt>
      <trkpt lat="47.29558" lon="-1.37972">
        <ele>52</ele>
        <time>2021-05-19T16:33:54.000Z</time>
      </trkpt>
      <trkpt lat="47.29553" lon="-1.37987">
        <ele>51</ele>
        <time>2021-05-19T16:33:56.000Z</time>
      </trkpt>
      <trkpt lat="47.29548" lon="-1.38001">
        <ele>51</ele>
        <time>2021-05-19T16:33:58.000Z</time>
      </trkpt>
      <trkpt lat="47.29543" lon="-1.38016">
        <ele>51</ele>
        <time>2021-05-19T16:34:00.000Z</time>
      </trkpt>
      <trkpt lat="47.29537" lon="-1.38031">
        <ele>50</ele>
        <time>2021-05-19T16:34:02.000Z</time>
      </trkpt>
      <trkpt lat="47.29531" lon="-1.38046">
        <ele>50</ele>
        <time>2021-05-19T16:34:04.000Z</time>
      </trkpt>
      <trkpt lat="47.29526" lon="-1.38061">
        <ele>50</ele>
        <time>2021-05-19T16:34:06.000Z</time>
      </trkpt>
      <trkpt lat="47.2952" lon="-1.38077">
        <ele>49</ele>
        <time>2021-05-19T16:34:08.000Z</time>
      </trkpt>
      <trkpt lat="47.29515" lon="-1.38093">
        <ele>49</ele>
        <time>2021-05-19T16:34:10.000Z</time>
      </trkpt>
      <trkpt lat="47.29511" lon="-1.38108">
        <ele>48</ele>
        <time>2021-05-19T16:34:12.000Z</time>
      </trkpt>
      <trkpt lat="47.29506" lon="-1.38125">
        <ele>48</ele>
        <time>2021-05-19T16:34:14.000Z</time>
      </trkpt>
      <trkpt lat="47.29502" lon="-1.38141">
        <ele>49</ele>
        <time>2021-05-19T16:34:16.000Z</time>
      </trkpt>
      <trkpt lat="47.29498" lon="-1.38157">
        <ele>49</ele>
        <time>2021-05-19T16:34:18.000Z</time>
      </trkpt>
      <trkpt lat="47.29493" lon="-1.38173">
        <ele>49</ele>
        <time>2021-05-19T16:34:20.000Z</time>
      </trkpt>
      <trkpt lat="47.29489" lon="-1.38189">
        <ele>49</ele>
        <time>2021-05-19T16:34:22.000Z</time>
      </trkpt>
      <trkpt lat="47.29485" lon="-1.38205">
        <ele>49</ele>
        <time>2021-05-19T16:34:24.000Z</time>
      </trkpt>
      <trkpt lat="47.2948" lon="-1.38221">
        <ele>50</ele>
        <time>2021-05-19T16:34:26.000Z</time>
      </trkpt>
      <trkpt lat="47.29476" lon="-1.38236">
        <ele>50</ele>
        <time>2021-05-19T16:34:28.000Z</time>
      </trkpt>
      <trkpt lat="47.29472" lon="-1.38253">
        <ele>50</ele>
        <time>2021-05-19T16:34:30.000Z</time>
      </trkpt>
      <trkpt lat="47.29467" lon="-1.38268">
        <ele>49</ele>
        <time>2021-05-19T16:34:32.000Z</time>
      </trkpt>
      <trkpt lat="47.29463" lon="-1.38284">
        <ele>49</ele>
        <time>2021-05-19T16:34:34.000Z</time>
      </trkpt>
      <trkpt lat="47.29459" lon="-1.38299">
        <ele>49</ele>
        <time>2021-05-19T16:34:36.000Z</time>
      </trkpt>
      <trkpt lat="47.29455" lon="-1.38313">
        <ele>49</ele>
        <time>2021-05-19T16:34:38.000Z</time>
      </trkpt>
      <trkpt lat="47.2945" lon="-1.38324">
        <ele>50</ele>
        <time>2021-05-19T16:34:40.000Z</time>
      </trkpt>
      <trkpt lat="47.29441" lon="-1.38337">
        <ele>52</ele>
        <time>2021-05-19T16:34:43.000Z</time>
      </trkpt>
      <trkpt lat="47.29439" lon="-1.38351">
        <ele>53</ele>
        <time>2021-05-19T16:34:45.000Z</time>
      </trkpt>
      <trkpt lat="47.29436" lon="-1.38366">
        <ele>53</ele>
        <time>2021-05-19T16:34:47.000Z</time>
      </trkpt>
      <trkpt lat="47.29433" lon="-1.38383">
        <ele>53</ele>
        <time>2021-05-19T16:34:49.000Z</time>
      </trkpt>
      <trkpt lat="47.29429" lon="-1.38399">
        <ele>52</ele>
        <time>2021-05-19T16:34:51.000Z</time>
      </trkpt>
      <trkpt lat="47.29426" lon="-1.38416">
        <ele>52</ele>
        <time>2021-05-19T16:34:53.000Z</time>
      </trkpt>
      <trkpt lat="47.29421" lon="-1.38433">
        <ele>52</ele>
        <time>2021-05-19T16:34:55.000Z</time>
      </trkpt>
      <trkpt lat="47.29417" lon="-1.38449">
        <ele>52</ele>
        <time>2021-05-19T16:34:57.000Z</time>
      </trkpt>
      <trkpt lat="47.29413" lon="-1.38465">
        <ele>52</ele>
        <time>2021-05-19T16:34:59.000Z</time>
      </trkpt>
      <trkpt lat="47.29406" lon="-1.38478">
        <ele>51</ele>
        <time>2021-05-19T16:35:01.000Z</time>
      </trkpt>
      <trkpt lat="47.294" lon="-1.38492">
        <ele>51</ele>
        <time>2021-05-19T16:35:03.000Z</time>
      </trkpt>
      <trkpt lat="47.29393" lon="-1.38506">
        <ele>52</ele>
        <time>2021-05-19T16:35:05.000Z</time>
      </trkpt>
      <trkpt lat="47.29388" lon="-1.38521">
        <ele>52</ele>
        <time>2021-05-19T16:35:07.000Z</time>
      </trkpt>
      <trkpt lat="47.29383" lon="-1.38536">
        <ele>52</ele>
        <time>2021-05-19T16:35:09.000Z</time>
      </trkpt>
      <trkpt lat="47.29379" lon="-1.38551">
        <ele>52</ele>
        <time>2021-05-19T16:35:11.000Z</time>
      </trkpt>
      <trkpt lat="47.29374" lon="-1.38564">
        <ele>52</ele>
        <time>2021-05-19T16:35:13.000Z</time>
      </trkpt>
      <trkpt lat="47.29369" lon="-1.3858">
        <ele>52</ele>
        <time>2021-05-19T16:35:15.000Z</time>
      </trkpt>
      <trkpt lat="47.29364" lon="-1.38596">
        <ele>52</ele>
        <time>2021-05-19T16:35:17.000Z</time>
      </trkpt>
      <trkpt lat="47.29359" lon="-1.38612">
        <ele>51</ele>
        <time>2021-05-19T16:35:19.000Z</time>
      </trkpt>
      <trkpt lat="47.29354" lon="-1.38629">
        <ele>51</ele>
        <time>2021-05-19T16:35:21.000Z</time>
      </trkpt>
      <trkpt lat="47.2935" lon="-1.38646">
        <ele>51</ele>
        <time>2021-05-19T16:35:23.000Z</time>
      </trkpt>
      <trkpt lat="47.29345" lon="-1.38661">
        <ele>50</ele>
        <time>2021-05-19T16:35:25.000Z</time>
      </trkpt>
      <trkpt lat="47.2934" lon="-1.38676">
        <ele>50</ele>
        <time>2021-05-19T16:35:27.000Z</time>
      </trkpt>
      <trkpt lat="47.29334" lon="-1.38691">
        <ele>50</ele>
        <time>2021-05-19T16:35:29.000Z</time>
      </trkpt>
      <trkpt lat="47.29329" lon="-1.38706">
        <ele>49</ele>
        <time>2021-05-19T16:35:31.000Z</time>
      </trkpt>
      <trkpt lat="47.29324" lon="-1.38722">
        <ele>49</ele>
        <time>2021-05-19T16:35:33.000Z</time>
      </trkpt>
      <trkpt lat="47.29322" lon="-1.38739">
        <ele>49</ele>
        <time>2021-05-19T16:35:35.000Z</time>
      </trkpt>
      <trkpt lat="47.2932" lon="-1.38754">
        <ele>49</ele>
        <time>2021-05-19T16:35:37.000Z</time>
      </trkpt>
      <trkpt lat="47.29317" lon="-1.38769">
        <ele>50</ele>
        <time>2021-05-19T16:35:39.000Z</time>
      </trkpt>
      <trkpt lat="47.29313" lon="-1.38783">
        <ele>50</ele>
        <time>2021-05-19T16:35:41.000Z</time>
      </trkpt>
      <trkpt lat="47.29308" lon="-1.38799">
        <ele>50</ele>
        <time>2021-05-19T16:35:43.000Z</time>
      </trkpt>
      <trkpt lat="47.29303" lon="-1.38816">
        <ele>50</ele>
        <time>2021-05-19T16:35:45.000Z</time>
      </trkpt>
      <trkpt lat="47.29299" lon="-1.38833">
        <ele>50</ele>
        <time>2021-05-19T16:35:47.000Z</time>
      </trkpt>
      <trkpt lat="47.29294" lon="-1.38849">
        <ele>49</ele>
        <time>2021-05-19T16:35:49.000Z</time>
      </trkpt>
      <trkpt lat="47.29289" lon="-1.38866">
        <ele>50</ele>
        <time>2021-05-19T16:35:51.000Z</time>
      </trkpt>
      <trkpt lat="47.29285" lon="-1.38883">
        <ele>49</ele>
        <time>2021-05-19T16:35:53.000Z</time>
      </trkpt>
      <trkpt lat="47.2928" lon="-1.38899">
        <ele>49</ele>
        <time>2021-05-19T16:35:55.000Z</time>
      </trkpt>
      <trkpt lat="47.29276" lon="-1.38915">
        <ele>49</ele>
        <time>2021-05-19T16:35:57.000Z</time>
      </trkpt>
      <trkpt lat="47.29271" lon="-1.38931">
        <ele>49</ele>
        <time>2021-05-19T16:35:59.000Z</time>
      </trkpt>
      <trkpt lat="47.29266" lon="-1.38948">
        <ele>49</ele>
        <time>2021-05-19T16:36:01.000Z</time>
      </trkpt>
      <trkpt lat="47.29262" lon="-1.38964">
        <ele>49</ele>
        <time>2021-05-19T16:36:03.000Z</time>
      </trkpt>
      <trkpt lat="47.29257" lon="-1.38981">
        <ele>49</ele>
        <time>2021-05-19T16:36:05.000Z</time>
      </trkpt>
      <trkpt lat="47.29253" lon="-1.38997">
        <ele>50</ele>
        <time>2021-05-19T16:36:07.000Z</time>
      </trkpt>
      <trkpt lat="47.29249" lon="-1.39013">
        <ele>50</ele>
        <time>2021-05-19T16:36:09.000Z</time>
      </trkpt>
      <trkpt lat="47.29245" lon="-1.39029">
        <ele>51</ele>
        <time>2021-05-19T16:36:11.000Z</time>
      </trkpt>
      <trkpt lat="47.29241" lon="-1.39045">
        <ele>51</ele>
        <time>2021-05-19T16:36:13.000Z</time>
      </trkpt>
      <trkpt lat="47.29236" lon="-1.39061">
        <ele>51</ele>
        <time>2021-05-19T16:36:15.000Z</time>
      </trkpt>
      <trkpt lat="47.29232" lon="-1.39077">
        <ele>51</ele>
        <time>2021-05-19T16:36:17.000Z</time>
      </trkpt>
      <trkpt lat="47.29226" lon="-1.39091">
        <ele>51</ele>
        <time>2021-05-19T16:36:19.000Z</time>
      </trkpt>
      <trkpt lat="47.29219" lon="-1.39106">
        <ele>51</ele>
        <time>2021-05-19T16:36:21.000Z</time>
      </trkpt>
      <trkpt lat="47.29211" lon="-1.39119">
        <ele>51</ele>
        <time>2021-05-19T16:36:23.000Z</time>
      </trkpt>
      <trkpt lat="47.29202" lon="-1.39131">
        <ele>52</ele>
        <time>2021-05-19T16:36:25.000Z</time>
      </trkpt>
      <trkpt lat="47.29193" lon="-1.39143">
        <ele>51</ele>
        <time>2021-05-19T16:36:27.000Z</time>
      </trkpt>
      <trkpt lat="47.29184" lon="-1.39155">
        <ele>51</ele>
        <time>2021-05-19T16:36:29.000Z</time>
      </trkpt>
      <trkpt lat="47.29175" lon="-1.39166">
        <ele>51</ele>
        <time>2021-05-19T16:36:31.000Z</time>
      </trkpt>
      <trkpt lat="47.29166" lon="-1.39177">
        <ele>51</ele>
        <time>2021-05-19T16:36:33.000Z</time>
      </trkpt>
      <trkpt lat="47.29157" lon="-1.39188">
        <ele>51</ele>
        <time>2021-05-19T16:36:35.000Z</time>
      </trkpt>
      <trkpt lat="47.29148" lon="-1.392">
        <ele>50</ele>
        <time>2021-05-19T16:36:37.000Z</time>
      </trkpt>
      <trkpt lat="47.29138" lon="-1.39211">
        <ele>50</ele>
        <time>2021-05-19T16:36:39.000Z</time>
      </trkpt>
      <trkpt lat="47.29129" lon="-1.39222">
        <ele>50</ele>
        <time>2021-05-19T16:36:41.000Z</time>
      </trkpt>
      <trkpt lat="47.2912" lon="-1.39233">
        <ele>50</ele>
        <time>2021-05-19T16:36:43.000Z</time>
      </trkpt>
      <trkpt lat="47.29111" lon="-1.39244">
        <ele>50</ele>
        <time>2021-05-19T16:36:45.000Z</time>
      </trkpt>
      <trkpt lat="47.29103" lon="-1.39256">
        <ele>50</ele>
        <time>2021-05-19T16:36:47.000Z</time>
      </trkpt>
      <trkpt lat="47.29095" lon="-1.3927">
        <ele>51</ele>
        <time>2021-05-19T16:36:49.000Z</time>
      </trkpt>
      <trkpt lat="47.29088" lon="-1.39284">
        <ele>51</ele>
        <time>2021-05-19T16:36:51.000Z</time>
      </trkpt>
      <trkpt lat="47.29079" lon="-1.39296">
        <ele>50</ele>
        <time>2021-05-19T16:36:53.000Z</time>
      </trkpt>
      <trkpt lat="47.2907" lon="-1.39307">
        <ele>50</ele>
        <time>2021-05-19T16:36:55.000Z</time>
      </trkpt>
      <trkpt lat="47.2906" lon="-1.39316">
        <ele>49</ele>
        <time>2021-05-19T16:36:57.000Z</time>
      </trkpt>
      <trkpt lat="47.29051" lon="-1.39325">
        <ele>49</ele>
        <time>2021-05-19T16:36:59.000Z</time>
      </trkpt>
      <trkpt lat="47.29043" lon="-1.39333">
        <ele>49</ele>
        <time>2021-05-19T16:37:01.000Z</time>
      </trkpt>
      <trkpt lat="47.29035" lon="-1.39343">
        <ele>50</ele>
        <time>2021-05-19T16:37:03.000Z</time>
      </trkpt>
      <trkpt lat="47.29025" lon="-1.39355">
        <ele>50</ele>
        <time>2021-05-19T16:37:06.000Z</time>
      </trkpt>
      <trkpt lat="47.29019" lon="-1.39365">
        <ele>50</ele>
        <time>2021-05-19T16:37:09.000Z</time>
      </trkpt>
      <trkpt lat="47.29013" lon="-1.3938">
        <ele>51</ele>
        <time>2021-05-19T16:37:12.000Z</time>
      </trkpt>
      <trkpt lat="47.29004" lon="-1.3939">
        <ele>52</ele>
        <time>2021-05-19T16:37:14.000Z</time>
      </trkpt>
      <trkpt lat="47.28995" lon="-1.39402">
        <ele>52</ele>
        <time>2021-05-19T16:37:16.000Z</time>
      </trkpt>
      <trkpt lat="47.28985" lon="-1.39415">
        <ele>51</ele>
        <time>2021-05-19T16:37:18.000Z</time>
      </trkpt>
      <trkpt lat="47.28975" lon="-1.39427">
        <ele>51</ele>
        <time>2021-05-19T16:37:20.000Z</time>
      </trkpt>
      <trkpt lat="47.28965" lon="-1.3944">
        <ele>51</ele>
        <time>2021-05-19T16:37:22.000Z</time>
      </trkpt>
      <trkpt lat="47.28956" lon="-1.39451">
        <ele>51</ele>
        <time>2021-05-19T16:37:24.000Z</time>
      </trkpt>
      <trkpt lat="47.28946" lon="-1.39461">
        <ele>51</ele>
        <time>2021-05-19T16:37:26.000Z</time>
      </trkpt>
      <trkpt lat="47.28936" lon="-1.39472">
        <ele>50</ele>
        <time>2021-05-19T16:37:28.000Z</time>
      </trkpt>
      <trkpt lat="47.28927" lon="-1.39483">
        <ele>51</ele>
        <time>2021-05-19T16:37:30.000Z</time>
      </trkpt>
      <trkpt lat="47.28917" lon="-1.39494">
        <ele>52</ele>
        <time>2021-05-19T16:37:32.000Z</time>
      </trkpt>
      <trkpt lat="47.28909" lon="-1.39505">
        <ele>52</ele>
        <time>2021-05-19T16:37:34.000Z</time>
      </trkpt>
      <trkpt lat="47.289" lon="-1.39516">
        <ele>52</ele>
        <time>2021-05-19T16:37:36.000Z</time>
      </trkpt>
      <trkpt lat="47.2889" lon="-1.39527">
        <ele>53</ele>
        <time>2021-05-19T16:37:38.000Z</time>
      </trkpt>
      <trkpt lat="47.28882" lon="-1.39538">
        <ele>52</ele>
        <time>2021-05-19T16:37:40.000Z</time>
      </trkpt>
      <trkpt lat="47.28873" lon="-1.3955">
        <ele>52</ele>
        <time>2021-05-19T16:37:42.000Z</time>
      </trkpt>
      <trkpt lat="47.28863" lon="-1.39561">
        <ele>52</ele>
        <time>2021-05-19T16:37:44.000Z</time>
      </trkpt>
      <trkpt lat="47.28854" lon="-1.39573">
        <ele>52</ele>
        <time>2021-05-19T16:37:46.000Z</time>
      </trkpt>
      <trkpt lat="47.28845" lon="-1.39584">
        <ele>52</ele>
        <time>2021-05-19T16:37:48.000Z</time>
      </trkpt>
      <trkpt lat="47.28835" lon="-1.39594">
        <ele>52</ele>
        <time>2021-05-19T16:37:50.000Z</time>
      </trkpt>
      <trkpt lat="47.28826" lon="-1.39605">
        <ele>52</ele>
        <time>2021-05-19T16:37:52.000Z</time>
      </trkpt>
      <trkpt lat="47.28818" lon="-1.39616">
        <ele>52</ele>
        <time>2021-05-19T16:37:54.000Z</time>
      </trkpt>
      <trkpt lat="47.28808" lon="-1.39627">
        <ele>52</ele>
        <time>2021-05-19T16:37:56.000Z</time>
      </trkpt>
      <trkpt lat="47.28798" lon="-1.39638">
        <ele>52</ele>
        <time>2021-05-19T16:37:58.000Z</time>
      </trkpt>
      <trkpt lat="47.28789" lon="-1.3965">
        <ele>53</ele>
        <time>2021-05-19T16:38:00.000Z</time>
      </trkpt>
      <trkpt lat="47.28779" lon="-1.39661">
        <ele>53</ele>
        <time>2021-05-19T16:38:02.000Z</time>
      </trkpt>
      <trkpt lat="47.2877" lon="-1.39672">
        <ele>53</ele>
        <time>2021-05-19T16:38:04.000Z</time>
      </trkpt>
      <trkpt lat="47.28761" lon="-1.39683">
        <ele>53</ele>
        <time>2021-05-19T16:38:06.000Z</time>
      </trkpt>
      <trkpt lat="47.28752" lon="-1.39695">
        <ele>53</ele>
        <time>2021-05-19T16:38:08.000Z</time>
      </trkpt>
      <trkpt lat="47.28742" lon="-1.39707">
        <ele>53</ele>
        <time>2021-05-19T16:38:10.000Z</time>
      </trkpt>
      <trkpt lat="47.28733" lon="-1.39719">
        <ele>53</ele>
        <time>2021-05-19T16:38:12.000Z</time>
      </trkpt>
      <trkpt lat="47.28723" lon="-1.39729">
        <ele>53</ele>
        <time>2021-05-19T16:38:14.000Z</time>
      </trkpt>
      <trkpt lat="47.28715" lon="-1.3974">
        <ele>53</ele>
        <time>2021-05-19T16:38:16.000Z</time>
      </trkpt>
      <trkpt lat="47.28706" lon="-1.39752">
        <ele>53</ele>
        <time>2021-05-19T16:38:18.000Z</time>
      </trkpt>
      <trkpt lat="47.28696" lon="-1.39765">
        <ele>52</ele>
        <time>2021-05-19T16:38:20.000Z</time>
      </trkpt>
      <trkpt lat="47.28687" lon="-1.39775">
        <ele>52</ele>
        <time>2021-05-19T16:38:22.000Z</time>
      </trkpt>
      <trkpt lat="47.28678" lon="-1.39788">
        <ele>52</ele>
        <time>2021-05-19T16:38:24.000Z</time>
      </trkpt>
      <trkpt lat="47.28669" lon="-1.39801">
        <ele>52</ele>
        <time>2021-05-19T16:38:26.000Z</time>
      </trkpt>
      <trkpt lat="47.28661" lon="-1.39814">
        <ele>52</ele>
        <time>2021-05-19T16:38:28.000Z</time>
      </trkpt>
      <trkpt lat="47.28651" lon="-1.39827">
        <ele>51</ele>
        <time>2021-05-19T16:38:30.000Z</time>
      </trkpt>
      <trkpt lat="47.28643" lon="-1.3984">
        <ele>51</ele>
        <time>2021-05-19T16:38:32.000Z</time>
      </trkpt>
      <trkpt lat="47.28635" lon="-1.39853">
        <ele>51</ele>
        <time>2021-05-19T16:38:34.000Z</time>
      </trkpt>
      <trkpt lat="47.28627" lon="-1.39866">
        <ele>51</ele>
        <time>2021-05-19T16:38:36.000Z</time>
      </trkpt>
      <trkpt lat="47.28619" lon="-1.39877">
        <ele>52</ele>
        <time>2021-05-19T16:38:38.000Z</time>
      </trkpt>
      <trkpt lat="47.28611" lon="-1.39889">
        <ele>52</ele>
        <time>2021-05-19T16:38:40.000Z</time>
      </trkpt>
      <trkpt lat="47.28602" lon="-1.39901">
        <ele>52</ele>
        <time>2021-05-19T16:38:42.000Z</time>
      </trkpt>
      <trkpt lat="47.28593" lon="-1.39914">
        <ele>53</ele>
        <time>2021-05-19T16:38:44.000Z</time>
      </trkpt>
      <trkpt lat="47.28584" lon="-1.39927">
        <ele>53</ele>
        <time>2021-05-19T16:38:46.000Z</time>
      </trkpt>
      <trkpt lat="47.28575" lon="-1.3994">
        <ele>53</ele>
        <time>2021-05-19T16:38:48.000Z</time>
      </trkpt>
      <trkpt lat="47.28567" lon="-1.39953">
        <ele>54</ele>
        <time>2021-05-19T16:38:50.000Z</time>
      </trkpt>
      <trkpt lat="47.28558" lon="-1.39965">
        <ele>53</ele>
        <time>2021-05-19T16:38:52.000Z</time>
      </trkpt>
      <trkpt lat="47.28549" lon="-1.39978">
        <ele>53</ele>
        <time>2021-05-19T16:38:54.000Z</time>
      </trkpt>
      <trkpt lat="47.2854" lon="-1.3999">
        <ele>53</ele>
        <time>2021-05-19T16:38:56.000Z</time>
      </trkpt>
      <trkpt lat="47.28532" lon="-1.40002">
        <ele>53</ele>
        <time>2021-05-19T16:38:58.000Z</time>
      </trkpt>
      <trkpt lat="47.28523" lon="-1.40014">
        <ele>53</ele>
        <time>2021-05-19T16:39:00.000Z</time>
      </trkpt>
      <trkpt lat="47.28516" lon="-1.40026">
        <ele>53</ele>
        <time>2021-05-19T16:39:02.000Z</time>
      </trkpt>
      <trkpt lat="47.28507" lon="-1.40038">
        <ele>53</ele>
        <time>2021-05-19T16:39:04.000Z</time>
      </trkpt>
      <trkpt lat="47.28499" lon="-1.40052">
        <ele>52</ele>
        <time>2021-05-19T16:39:06.000Z</time>
      </trkpt>
      <trkpt lat="47.28492" lon="-1.40067">
        <ele>52</ele>
        <time>2021-05-19T16:39:08.000Z</time>
      </trkpt>
      <trkpt lat="47.28486" lon="-1.40082">
        <ele>52</ele>
        <time>2021-05-19T16:39:10.000Z</time>
      </trkpt>
      <trkpt lat="47.2848" lon="-1.40097">
        <ele>52</ele>
        <time>2021-05-19T16:39:12.000Z</time>
      </trkpt>
      <trkpt lat="47.28474" lon="-1.40112">
        <ele>52</ele>
        <time>2021-05-19T16:39:14.000Z</time>
      </trkpt>
      <trkpt lat="47.28468" lon="-1.40128">
        <ele>52</ele>
        <time>2021-05-19T16:39:16.000Z</time>
      </trkpt>
      <trkpt lat="47.28461" lon="-1.40144">
        <ele>52</ele>
        <time>2021-05-19T16:39:18.000Z</time>
      </trkpt>
      <trkpt lat="47.28454" lon="-1.40161">
        <ele>52</ele>
        <time>2021-05-19T16:39:20.000Z</time>
      </trkpt>
      <trkpt lat="47.28447" lon="-1.40177">
        <ele>52</ele>
        <time>2021-05-19T16:39:22.000Z</time>
      </trkpt>
      <trkpt lat="47.28441" lon="-1.40194">
        <ele>52</ele>
        <time>2021-05-19T16:39:24.000Z</time>
      </trkpt>
      <trkpt lat="47.28435" lon="-1.4021">
        <ele>53</ele>
        <time>2021-05-19T16:39:26.000Z</time>
      </trkpt>
      <trkpt lat="47.28429" lon="-1.40225">
        <ele>53</ele>
        <time>2021-05-19T16:39:28.000Z</time>
      </trkpt>
      <trkpt lat="47.28423" lon="-1.4024">
        <ele>53</ele>
        <time>2021-05-19T16:39:30.000Z</time>
      </trkpt>
      <trkpt lat="47.28417" lon="-1.40255">
        <ele>53</ele>
        <time>2021-05-19T16:39:32.000Z</time>
      </trkpt>
      <trkpt lat="47.28411" lon="-1.4027">
        <ele>53</ele>
        <time>2021-05-19T16:39:34.000Z</time>
      </trkpt>
      <trkpt lat="47.28404" lon="-1.40286">
        <ele>52</ele>
        <time>2021-05-19T16:39:36.000Z</time>
      </trkpt>
      <trkpt lat="47.28395" lon="-1.40301">
        <ele>52</ele>
        <time>2021-05-19T16:39:38.000Z</time>
      </trkpt>
      <trkpt lat="47.28387" lon="-1.40315">
        <ele>51</ele>
        <time>2021-05-19T16:39:40.000Z</time>
      </trkpt>
      <trkpt lat="47.28379" lon="-1.40329">
        <ele>51</ele>
        <time>2021-05-19T16:39:42.000Z</time>
      </trkpt>
      <trkpt lat="47.28371" lon="-1.40342">
        <ele>51</ele>
        <time>2021-05-19T16:39:44.000Z</time>
      </trkpt>
      <trkpt lat="47.28362" lon="-1.40355">
        <ele>51</ele>
        <time>2021-05-19T16:39:46.000Z</time>
      </trkpt>
      <trkpt lat="47.28354" lon="-1.40367">
        <ele>51</ele>
        <time>2021-05-19T16:39:48.000Z</time>
      </trkpt>
      <trkpt lat="47.28345" lon="-1.40379">
        <ele>51</ele>
        <time>2021-05-19T16:39:50.000Z</time>
      </trkpt>
      <trkpt lat="47.28336" lon="-1.4039">
        <ele>50</ele>
        <time>2021-05-19T16:39:52.000Z</time>
      </trkpt>
      <trkpt lat="47.28327" lon="-1.40402">
        <ele>50</ele>
        <time>2021-05-19T16:39:54.000Z</time>
      </trkpt>
      <trkpt lat="47.28318" lon="-1.40414">
        <ele>50</ele>
        <time>2021-05-19T16:39:56.000Z</time>
      </trkpt>
      <trkpt lat="47.28309" lon="-1.40423">
        <ele>51</ele>
        <time>2021-05-19T16:39:58.000Z</time>
      </trkpt>
      <trkpt lat="47.28299" lon="-1.40433">
        <ele>51</ele>
        <time>2021-05-19T16:40:00.000Z</time>
      </trkpt>
      <trkpt lat="47.28289" lon="-1.40442">
        <ele>51</ele>
        <time>2021-05-19T16:40:02.000Z</time>
      </trkpt>
      <trkpt lat="47.28279" lon="-1.40451">
        <ele>52</ele>
        <time>2021-05-19T16:40:04.000Z</time>
      </trkpt>
      <trkpt lat="47.28269" lon="-1.4046">
        <ele>52</ele>
        <time>2021-05-19T16:40:06.000Z</time>
      </trkpt>
      <trkpt lat="47.2826" lon="-1.4047">
        <ele>51</ele>
        <time>2021-05-19T16:40:08.000Z</time>
      </trkpt>
      <trkpt lat="47.28251" lon="-1.4048">
        <ele>51</ele>
        <time>2021-05-19T16:40:10.000Z</time>
      </trkpt>
      <trkpt lat="47.28241" lon="-1.40489">
        <ele>51</ele>
        <time>2021-05-19T16:40:12.000Z</time>
      </trkpt>
      <trkpt lat="47.28231" lon="-1.40498">
        <ele>51</ele>
        <time>2021-05-19T16:40:14.000Z</time>
      </trkpt>
      <trkpt lat="47.28221" lon="-1.40507">
        <ele>51</ele>
        <time>2021-05-19T16:40:16.000Z</time>
      </trkpt>
      <trkpt lat="47.28212" lon="-1.40517">
        <ele>52</ele>
        <time>2021-05-19T16:40:18.000Z</time>
      </trkpt>
      <trkpt lat="47.28203" lon="-1.40525">
        <ele>52</ele>
        <time>2021-05-19T16:40:20.000Z</time>
      </trkpt>
      <trkpt lat="47.28194" lon="-1.40535">
        <ele>52</ele>
        <time>2021-05-19T16:40:22.000Z</time>
      </trkpt>
      <trkpt lat="47.28185" lon="-1.40543">
        <ele>53</ele>
        <time>2021-05-19T16:40:24.000Z</time>
      </trkpt>
      <trkpt lat="47.28176" lon="-1.40552">
        <ele>53</ele>
        <time>2021-05-19T16:40:26.000Z</time>
      </trkpt>
      <trkpt lat="47.28166" lon="-1.40561">
        <ele>53</ele>
        <time>2021-05-19T16:40:28.000Z</time>
      </trkpt>
      <trkpt lat="47.28157" lon="-1.4057">
        <ele>53</ele>
        <time>2021-05-19T16:40:30.000Z</time>
      </trkpt>
      <trkpt lat="47.28147" lon="-1.4058">
        <ele>53</ele>
        <time>2021-05-19T16:40:32.000Z</time>
      </trkpt>
      <trkpt lat="47.28137" lon="-1.4059">
        <ele>53</ele>
        <time>2021-05-19T16:40:34.000Z</time>
      </trkpt>
      <trkpt lat="47.28127" lon="-1.40599">
        <ele>53</ele>
        <time>2021-05-19T16:40:36.000Z</time>
      </trkpt>
      <trkpt lat="47.28118" lon="-1.40608">
        <ele>53</ele>
        <time>2021-05-19T16:40:38.000Z</time>
      </trkpt>
      <trkpt lat="47.28108" lon="-1.40617">
        <ele>53</ele>
        <time>2021-05-19T16:40:40.000Z</time>
      </trkpt>
      <trkpt lat="47.28098" lon="-1.40627">
        <ele>53</ele>
        <time>2021-05-19T16:40:42.000Z</time>
      </trkpt>
      <trkpt lat="47.28088" lon="-1.40636">
        <ele>53</ele>
        <time>2021-05-19T16:40:44.000Z</time>
      </trkpt>
      <trkpt lat="47.28078" lon="-1.40646">
        <ele>53</ele>
        <time>2021-05-19T16:40:46.000Z</time>
      </trkpt>
      <trkpt lat="47.28068" lon="-1.40656">
        <ele>53</ele>
        <time>2021-05-19T16:40:48.000Z</time>
      </trkpt>
      <trkpt lat="47.28057" lon="-1.40665">
        <ele>53</ele>
        <time>2021-05-19T16:40:50.000Z</time>
      </trkpt>
      <trkpt lat="47.28048" lon="-1.40675">
        <ele>53</ele>
        <time>2021-05-19T16:40:52.000Z</time>
      </trkpt>
      <trkpt lat="47.28038" lon="-1.40686">
        <ele>53</ele>
        <time>2021-05-19T16:40:54.000Z</time>
      </trkpt>
      <trkpt lat="47.28028" lon="-1.40696">
        <ele>53</ele>
        <time>2021-05-19T16:40:56.000Z</time>
      </trkpt>
      <trkpt lat="47.28019" lon="-1.40706">
        <ele>53</ele>
        <time>2021-05-19T16:40:58.000Z</time>
      </trkpt>
      <trkpt lat="47.28009" lon="-1.40715">
        <ele>53</ele>
        <time>2021-05-19T16:41:00.000Z</time>
      </trkpt>
      <trkpt lat="47.28" lon="-1.40724">
        <ele>52</ele>
        <time>2021-05-19T16:41:02.000Z</time>
      </trkpt>
      <trkpt lat="47.2799" lon="-1.40734">
        <ele>52</ele>
        <time>2021-05-19T16:41:04.000Z</time>
      </trkpt>
      <trkpt lat="47.2798" lon="-1.40743">
        <ele>52</ele>
        <time>2021-05-19T16:41:06.000Z</time>
      </trkpt>
      <trkpt lat="47.2797" lon="-1.40752">
        <ele>51</ele>
        <time>2021-05-19T16:41:08.000Z</time>
      </trkpt>
      <trkpt lat="47.27959" lon="-1.40761">
        <ele>51</ele>
        <time>2021-05-19T16:41:10.000Z</time>
      </trkpt>
      <trkpt lat="47.2795" lon="-1.40771">
        <ele>51</ele>
        <time>2021-05-19T16:41:12.000Z</time>
      </trkpt>
      <trkpt lat="47.2794" lon="-1.4078">
        <ele>51</ele>
        <time>2021-05-19T16:41:14.000Z</time>
      </trkpt>
      <trkpt lat="47.2793" lon="-1.40789">
        <ele>51</ele>
        <time>2021-05-19T16:41:16.000Z</time>
      </trkpt>
      <trkpt lat="47.2792" lon="-1.40797">
        <ele>51</ele>
        <time>2021-05-19T16:41:18.000Z</time>
      </trkpt>
      <trkpt lat="47.27909" lon="-1.40807">
        <ele>51</ele>
        <time>2021-05-19T16:41:20.000Z</time>
      </trkpt>
      <trkpt lat="47.279" lon="-1.40816">
        <ele>51</ele>
        <time>2021-05-19T16:41:22.000Z</time>
      </trkpt>
      <trkpt lat="47.27891" lon="-1.40827">
        <ele>51</ele>
        <time>2021-05-19T16:41:24.000Z</time>
      </trkpt>
      <trkpt lat="47.27883" lon="-1.40838">
        <ele>50</ele>
        <time>2021-05-19T16:41:26.000Z</time>
      </trkpt>
      <trkpt lat="47.27875" lon="-1.40852">
        <ele>50</ele>
        <time>2021-05-19T16:41:28.000Z</time>
      </trkpt>
      <trkpt lat="47.27869" lon="-1.40866">
        <ele>51</ele>
        <time>2021-05-19T16:41:30.000Z</time>
      </trkpt>
      <trkpt lat="47.27862" lon="-1.4088">
        <ele>51</ele>
        <time>2021-05-19T16:41:32.000Z</time>
      </trkpt>
      <trkpt lat="47.27856" lon="-1.40893">
        <ele>51</ele>
        <time>2021-05-19T16:41:34.000Z</time>
      </trkpt>
      <trkpt lat="47.2785" lon="-1.40907">
        <ele>51</ele>
        <time>2021-05-19T16:41:36.000Z</time>
      </trkpt>
      <trkpt lat="47.27844" lon="-1.40922">
        <ele>51</ele>
        <time>2021-05-19T16:41:38.000Z</time>
      </trkpt>
      <trkpt lat="47.27837" lon="-1.40937">
        <ele>51</ele>
        <time>2021-05-19T16:41:40.000Z</time>
      </trkpt>
      <trkpt lat="47.27829" lon="-1.40952">
        <ele>51</ele>
        <time>2021-05-19T16:41:42.000Z</time>
      </trkpt>
      <trkpt lat="47.27821" lon="-1.40967">
        <ele>51</ele>
        <time>2021-05-19T16:41:44.000Z</time>
      </trkpt>
      <trkpt lat="47.27812" lon="-1.40981">
        <ele>51</ele>
        <time>2021-05-19T16:41:46.000Z</time>
      </trkpt>
      <trkpt lat="47.27803" lon="-1.40995">
        <ele>52</ele>
        <time>2021-05-19T16:41:48.000Z</time>
      </trkpt>
      <trkpt lat="47.27794" lon="-1.41008">
        <ele>52</ele>
        <time>2021-05-19T16:41:50.000Z</time>
      </trkpt>
      <trkpt lat="47.27785" lon="-1.41021">
        <ele>52</ele>
        <time>2021-05-19T16:41:52.000Z</time>
      </trkpt>
      <trkpt lat="47.27777" lon="-1.41036">
        <ele>51</ele>
        <time>2021-05-19T16:41:54.000Z</time>
      </trkpt>
      <trkpt lat="47.27771" lon="-1.41052">
        <ele>52</ele>
        <time>2021-05-19T16:41:56.000Z</time>
      </trkpt>
      <trkpt lat="47.27764" lon="-1.4107">
        <ele>52</ele>
        <time>2021-05-19T16:41:58.000Z</time>
      </trkpt>
      <trkpt lat="47.27754" lon="-1.41083">
        <ele>51</ele>
        <time>2021-05-19T16:42:00.000Z</time>
      </trkpt>
      <trkpt lat="47.27743" lon="-1.41093">
        <ele>51</ele>
        <time>2021-05-19T16:42:02.000Z</time>
      </trkpt>
      <trkpt lat="47.27733" lon="-1.41105">
        <ele>50</ele>
        <time>2021-05-19T16:42:04.000Z</time>
      </trkpt>
      <trkpt lat="47.27722" lon="-1.41115">
        <ele>51</ele>
        <time>2021-05-19T16:42:06.000Z</time>
      </trkpt>
      <trkpt lat="47.2771" lon="-1.41126">
        <ele>51</ele>
        <time>2021-05-19T16:42:08.000Z</time>
      </trkpt>
      <trkpt lat="47.277" lon="-1.41137">
        <ele>51</ele>
        <time>2021-05-19T16:42:10.000Z</time>
      </trkpt>
      <trkpt lat="47.27689" lon="-1.41148">
        <ele>52</ele>
        <time>2021-05-19T16:42:12.000Z</time>
      </trkpt>
      <trkpt lat="47.2768" lon="-1.4116">
        <ele>52</ele>
        <time>2021-05-19T16:42:14.000Z</time>
      </trkpt>
      <trkpt lat="47.2767" lon="-1.41172">
        <ele>52</ele>
        <time>2021-05-19T16:42:16.000Z</time>
      </trkpt>
      <trkpt lat="47.2766" lon="-1.41183">
        <ele>52</ele>
        <time>2021-05-19T16:42:18.000Z</time>
      </trkpt>
      <trkpt lat="47.2765" lon="-1.41193">
        <ele>52</ele>
        <time>2021-05-19T16:42:20.000Z</time>
      </trkpt>
      <trkpt lat="47.27639" lon="-1.41203">
        <ele>52</ele>
        <time>2021-05-19T16:42:22.000Z</time>
      </trkpt>
      <trkpt lat="47.27629" lon="-1.41213">
        <ele>52</ele>
        <time>2021-05-19T16:42:24.000Z</time>
      </trkpt>
      <trkpt lat="47.27618" lon="-1.41224">
        <ele>52</ele>
        <time>2021-05-19T16:42:26.000Z</time>
      </trkpt>
      <trkpt lat="47.27607" lon="-1.41235">
        <ele>52</ele>
        <time>2021-05-19T16:42:28.000Z</time>
      </trkpt>
      <trkpt lat="47.27597" lon="-1.41246">
        <ele>52</ele>
        <time>2021-05-19T16:42:30.000Z</time>
      </trkpt>
      <trkpt lat="47.27587" lon="-1.41258">
        <ele>52</ele>
        <time>2021-05-19T16:42:32.000Z</time>
      </trkpt>
      <trkpt lat="47.27577" lon="-1.4127">
        <ele>52</ele>
        <time>2021-05-19T16:42:34.000Z</time>
      </trkpt>
      <trkpt lat="47.27567" lon="-1.41282">
        <ele>52</ele>
        <time>2021-05-19T16:42:36.000Z</time>
      </trkpt>
      <trkpt lat="47.27557" lon="-1.41295">
        <ele>52</ele>
        <time>2021-05-19T16:42:38.000Z</time>
      </trkpt>
      <trkpt lat="47.27547" lon="-1.41307">
        <ele>52</ele>
        <time>2021-05-19T16:42:40.000Z</time>
      </trkpt>
      <trkpt lat="47.27537" lon="-1.4132">
        <ele>51</ele>
        <time>2021-05-19T16:42:42.000Z</time>
      </trkpt>
      <trkpt lat="47.27527" lon="-1.41333">
        <ele>51</ele>
        <time>2021-05-19T16:42:44.000Z</time>
      </trkpt>
      <trkpt lat="47.27517" lon="-1.41347">
        <ele>51</ele>
        <time>2021-05-19T16:42:46.000Z</time>
      </trkpt>
      <trkpt lat="47.27509" lon="-1.4136">
        <ele>52</ele>
        <time>2021-05-19T16:42:48.000Z</time>
      </trkpt>
      <trkpt lat="47.275" lon="-1.41373">
        <ele>52</ele>
        <time>2021-05-19T16:42:50.000Z</time>
      </trkpt>
      <trkpt lat="47.27492" lon="-1.41386">
        <ele>52</ele>
        <time>2021-05-19T16:42:52.000Z</time>
      </trkpt>
      <trkpt lat="47.27483" lon="-1.41399">
        <ele>52</ele>
        <time>2021-05-19T16:42:54.000Z</time>
      </trkpt>
      <trkpt lat="47.27476" lon="-1.41413">
        <ele>52</ele>
        <time>2021-05-19T16:42:56.000Z</time>
      </trkpt>
      <trkpt lat="47.27468" lon="-1.41428">
        <ele>53</ele>
        <time>2021-05-19T16:42:58.000Z</time>
      </trkpt>
      <trkpt lat="47.2746" lon="-1.41442">
        <ele>53</ele>
        <time>2021-05-19T16:43:00.000Z</time>
      </trkpt>
      <trkpt lat="47.27452" lon="-1.41456">
        <ele>53</ele>
        <time>2021-05-19T16:43:02.000Z</time>
      </trkpt>
      <trkpt lat="47.27444" lon="-1.41471">
        <ele>53</ele>
        <time>2021-05-19T16:43:04.000Z</time>
      </trkpt>
      <trkpt lat="47.27437" lon="-1.41485">
        <ele>53</ele>
        <time>2021-05-19T16:43:06.000Z</time>
      </trkpt>
      <trkpt lat="47.27429" lon="-1.41499">
        <ele>53</ele>
        <time>2021-05-19T16:43:08.000Z</time>
      </trkpt>
      <trkpt lat="47.27421" lon="-1.41513">
        <ele>53</ele>
        <time>2021-05-19T16:43:10.000Z</time>
      </trkpt>
      <trkpt lat="47.27413" lon="-1.41526">
        <ele>53</ele>
        <time>2021-05-19T16:43:12.000Z</time>
      </trkpt>
      <trkpt lat="47.27404" lon="-1.41538">
        <ele>53</ele>
        <time>2021-05-19T16:43:14.000Z</time>
      </trkpt>
      <trkpt lat="47.27396" lon="-1.41551">
        <ele>54</ele>
        <time>2021-05-19T16:43:16.000Z</time>
      </trkpt>
      <trkpt lat="47.27388" lon="-1.41564">
        <ele>54</ele>
        <time>2021-05-19T16:43:18.000Z</time>
      </trkpt>
      <trkpt lat="47.27379" lon="-1.41578">
        <ele>53</ele>
        <time>2021-05-19T16:43:20.000Z</time>
      </trkpt>
      <trkpt lat="47.2737" lon="-1.41591">
        <ele>53</ele>
        <time>2021-05-19T16:43:22.000Z</time>
      </trkpt>
      <trkpt lat="47.27362" lon="-1.41604">
        <ele>54</ele>
        <time>2021-05-19T16:43:24.000Z</time>
      </trkpt>
      <trkpt lat="47.27353" lon="-1.41617">
        <ele>54</ele>
        <time>2021-05-19T16:43:26.000Z</time>
      </trkpt>
      <trkpt lat="47.27344" lon="-1.41631">
        <ele>54</ele>
        <time>2021-05-19T16:43:28.000Z</time>
      </trkpt>
      <trkpt lat="47.27335" lon="-1.41644">
        <ele>54</ele>
        <time>2021-05-19T16:43:30.000Z</time>
      </trkpt>
      <trkpt lat="47.27327" lon="-1.41658">
        <ele>54</ele>
        <time>2021-05-19T16:43:32.000Z</time>
      </trkpt>
      <trkpt lat="47.27319" lon="-1.41672">
        <ele>54</ele>
        <time>2021-05-19T16:43:34.000Z</time>
      </trkpt>
      <trkpt lat="47.27311" lon="-1.41686">
        <ele>54</ele>
        <time>2021-05-19T16:43:36.000Z</time>
      </trkpt>
      <trkpt lat="47.27303" lon="-1.417">
        <ele>54</ele>
        <time>2021-05-19T16:43:38.000Z</time>
      </trkpt>
      <trkpt lat="47.27297" lon="-1.41715">
        <ele>54</ele>
        <time>2021-05-19T16:43:40.000Z</time>
      </trkpt>
      <trkpt lat="47.2729" lon="-1.41728">
        <ele>54</ele>
        <time>2021-05-19T16:43:42.000Z</time>
      </trkpt>
      <trkpt lat="47.27282" lon="-1.41742">
        <ele>54</ele>
        <time>2021-05-19T16:43:44.000Z</time>
      </trkpt>
      <trkpt lat="47.27275" lon="-1.41757">
        <ele>53</ele>
        <time>2021-05-19T16:43:46.000Z</time>
      </trkpt>
      <trkpt lat="47.27268" lon="-1.41771">
        <ele>53</ele>
        <time>2021-05-19T16:43:48.000Z</time>
      </trkpt>
      <trkpt lat="47.27261" lon="-1.41786">
        <ele>54</ele>
        <time>2021-05-19T16:43:50.000Z</time>
      </trkpt>
      <trkpt lat="47.27253" lon="-1.41799">
        <ele>54</ele>
        <time>2021-05-19T16:43:52.000Z</time>
      </trkpt>
      <trkpt lat="47.27246" lon="-1.41813">
        <ele>54</ele>
        <time>2021-05-19T16:43:54.000Z</time>
      </trkpt>
      <trkpt lat="47.27238" lon="-1.41827">
        <ele>54</ele>
        <time>2021-05-19T16:43:56.000Z</time>
      </trkpt>
      <trkpt lat="47.2723" lon="-1.41842">
        <ele>54</ele>
        <time>2021-05-19T16:43:58.000Z</time>
      </trkpt>
      <trkpt lat="47.27222" lon="-1.41856">
        <ele>54</ele>
        <time>2021-05-19T16:44:00.000Z</time>
      </trkpt>
      <trkpt lat="47.27213" lon="-1.4187">
        <ele>54</ele>
        <time>2021-05-19T16:44:02.000Z</time>
      </trkpt>
      <trkpt lat="47.27204" lon="-1.41884">
        <ele>54</ele>
        <time>2021-05-19T16:44:04.000Z</time>
      </trkpt>
      <trkpt lat="47.27196" lon="-1.41899">
        <ele>54</ele>
        <time>2021-05-19T16:44:06.000Z</time>
      </trkpt>
      <trkpt lat="47.27189" lon="-1.41912">
        <ele>54</ele>
        <time>2021-05-19T16:44:08.000Z</time>
      </trkpt>
      <trkpt lat="47.2718" lon="-1.41926">
        <ele>54</ele>
        <time>2021-05-19T16:44:10.000Z</time>
      </trkpt>
      <trkpt lat="47.27172" lon="-1.4194">
        <ele>54</ele>
        <time>2021-05-19T16:44:12.000Z</time>
      </trkpt>
      <trkpt lat="47.27163" lon="-1.41954">
        <ele>54</ele>
        <time>2021-05-19T16:44:14.000Z</time>
      </trkpt>
      <trkpt lat="47.27155" lon="-1.41969">
        <ele>53</ele>
        <time>2021-05-19T16:44:16.000Z</time>
      </trkpt>
      <trkpt lat="47.27148" lon="-1.41983">
        <ele>53</ele>
        <time>2021-05-19T16:44:18.000Z</time>
      </trkpt>
      <trkpt lat="47.27141" lon="-1.41998">
        <ele>53</ele>
        <time>2021-05-19T16:44:20.000Z</time>
      </trkpt>
      <trkpt lat="47.27133" lon="-1.42012">
        <ele>53</ele>
        <time>2021-05-19T16:44:22.000Z</time>
      </trkpt>
      <trkpt lat="47.27124" lon="-1.42025">
        <ele>53</ele>
        <time>2021-05-19T16:44:24.000Z</time>
      </trkpt>
      <trkpt lat="47.27115" lon="-1.42039">
        <ele>54</ele>
        <time>2021-05-19T16:44:26.000Z</time>
      </trkpt>
      <trkpt lat="47.27107" lon="-1.42052">
        <ele>54</ele>
        <time>2021-05-19T16:44:28.000Z</time>
      </trkpt>
      <trkpt lat="47.27098" lon="-1.42066">
        <ele>54</ele>
        <time>2021-05-19T16:44:30.000Z</time>
      </trkpt>
      <trkpt lat="47.2709" lon="-1.42079">
        <ele>54</ele>
        <time>2021-05-19T16:44:32.000Z</time>
      </trkpt>
      <trkpt lat="47.27081" lon="-1.42092">
        <ele>54</ele>
        <time>2021-05-19T16:44:34.000Z</time>
      </trkpt>
      <trkpt lat="47.27073" lon="-1.42106">
        <ele>53</ele>
        <time>2021-05-19T16:44:36.000Z</time>
      </trkpt>
      <trkpt lat="47.27065" lon="-1.4212">
        <ele>53</ele>
        <time>2021-05-19T16:44:38.000Z</time>
      </trkpt>
      <trkpt lat="47.27058" lon="-1.42134">
        <ele>53</ele>
        <time>2021-05-19T16:44:40.000Z</time>
      </trkpt>
      <trkpt lat="47.2705" lon="-1.42148">
        <ele>53</ele>
        <time>2021-05-19T16:44:42.000Z</time>
      </trkpt>
      <trkpt lat="47.27043" lon="-1.42162">
        <ele>54</ele>
        <time>2021-05-19T16:44:44.000Z</time>
      </trkpt>
      <trkpt lat="47.27035" lon="-1.42175">
        <ele>54</ele>
        <time>2021-05-19T16:44:46.000Z</time>
      </trkpt>
      <trkpt lat="47.27027" lon="-1.42189">
        <ele>54</ele>
        <time>2021-05-19T16:44:48.000Z</time>
      </trkpt>
      <trkpt lat="47.27019" lon="-1.42203">
        <ele>54</ele>
        <time>2021-05-19T16:44:50.000Z</time>
      </trkpt>
      <trkpt lat="47.27011" lon="-1.42216">
        <ele>55</ele>
        <time>2021-05-19T16:44:52.000Z</time>
      </trkpt>
      <trkpt lat="47.27004" lon="-1.4223">
        <ele>55</ele>
        <time>2021-05-19T16:44:54.000Z</time>
      </trkpt>
      <trkpt lat="47.26997" lon="-1.42244">
        <ele>54</ele>
        <time>2021-05-19T16:44:56.000Z</time>
      </trkpt>
      <trkpt lat="47.26989" lon="-1.42257">
        <ele>54</ele>
        <time>2021-05-19T16:44:58.000Z</time>
      </trkpt>
      <trkpt lat="47.26982" lon="-1.42271">
        <ele>54</ele>
        <time>2021-05-19T16:45:00.000Z</time>
      </trkpt>
      <trkpt lat="47.26974" lon="-1.42285">
        <ele>54</ele>
        <time>2021-05-19T16:45:02.000Z</time>
      </trkpt>
      <trkpt lat="47.26967" lon="-1.42299">
        <ele>54</ele>
        <time>2021-05-19T16:45:04.000Z</time>
      </trkpt>
      <trkpt lat="47.26959" lon="-1.42314">
        <ele>54</ele>
        <time>2021-05-19T16:45:06.000Z</time>
      </trkpt>
      <trkpt lat="47.26952" lon="-1.42329">
        <ele>54</ele>
        <time>2021-05-19T16:45:08.000Z</time>
      </trkpt>
      <trkpt lat="47.26944" lon="-1.42344">
        <ele>54</ele>
        <time>2021-05-19T16:45:10.000Z</time>
      </trkpt>
      <trkpt lat="47.26937" lon="-1.42359">
        <ele>54</ele>
        <time>2021-05-19T16:45:12.000Z</time>
      </trkpt>
      <trkpt lat="47.2693" lon="-1.42373">
        <ele>54</ele>
        <time>2021-05-19T16:45:14.000Z</time>
      </trkpt>
      <trkpt lat="47.26923" lon="-1.42387">
        <ele>54</ele>
        <time>2021-05-19T16:45:16.000Z</time>
      </trkpt>
      <trkpt lat="47.26915" lon="-1.42401">
        <ele>54</ele>
        <time>2021-05-19T16:45:18.000Z</time>
      </trkpt>
      <trkpt lat="47.26909" lon="-1.42416">
        <ele>53</ele>
        <time>2021-05-19T16:45:20.000Z</time>
      </trkpt>
      <trkpt lat="47.26901" lon="-1.42431">
        <ele>53</ele>
        <time>2021-05-19T16:45:22.000Z</time>
      </trkpt>
      <trkpt lat="47.26893" lon="-1.42446">
        <ele>53</ele>
        <time>2021-05-19T16:45:24.000Z</time>
      </trkpt>
      <trkpt lat="47.26885" lon="-1.4246">
        <ele>53</ele>
        <time>2021-05-19T16:45:26.000Z</time>
      </trkpt>
      <trkpt lat="47.26876" lon="-1.42474">
        <ele>53</ele>
        <time>2021-05-19T16:45:28.000Z</time>
      </trkpt>
      <trkpt lat="47.26868" lon="-1.42489">
        <ele>54</ele>
        <time>2021-05-19T16:45:30.000Z</time>
      </trkpt>
      <trkpt lat="47.2686" lon="-1.42504">
        <ele>54</ele>
        <time>2021-05-19T16:45:32.000Z</time>
      </trkpt>
      <trkpt lat="47.26852" lon="-1.42518">
        <ele>54</ele>
        <time>2021-05-19T16:45:34.000Z</time>
      </trkpt>
      <trkpt lat="47.26845" lon="-1.42533">
        <ele>54</ele>
        <time>2021-05-19T16:45:36.000Z</time>
      </trkpt>
      <trkpt lat="47.26837" lon="-1.42547">
        <ele>54</ele>
        <time>2021-05-19T16:45:38.000Z</time>
      </trkpt>
      <trkpt lat="47.2683" lon="-1.42562">
        <ele>54</ele>
        <time>2021-05-19T16:45:40.000Z</time>
      </trkpt>
      <trkpt lat="47.26823" lon="-1.42576">
        <ele>54</ele>
        <time>2021-05-19T16:45:42.000Z</time>
      </trkpt>
      <trkpt lat="47.26816" lon="-1.42592">
        <ele>54</ele>
        <time>2021-05-19T16:45:44.000Z</time>
      </trkpt>
      <trkpt lat="47.26809" lon="-1.42607">
        <ele>54</ele>
        <time>2021-05-19T16:45:46.000Z</time>
      </trkpt>
      <trkpt lat="47.26803" lon="-1.42623">
        <ele>54</ele>
        <time>2021-05-19T16:45:48.000Z</time>
      </trkpt>
      <trkpt lat="47.26797" lon="-1.42639">
        <ele>53</ele>
        <time>2021-05-19T16:45:50.000Z</time>
      </trkpt>
      <trkpt lat="47.26791" lon="-1.42655">
        <ele>53</ele>
        <time>2021-05-19T16:45:52.000Z</time>
      </trkpt>
      <trkpt lat="47.26786" lon="-1.42671">
        <ele>53</ele>
        <time>2021-05-19T16:45:54.000Z</time>
      </trkpt>
      <trkpt lat="47.26781" lon="-1.42687">
        <ele>54</ele>
        <time>2021-05-19T16:45:56.000Z</time>
      </trkpt>
      <trkpt lat="47.26775" lon="-1.42703">
        <ele>54</ele>
        <time>2021-05-19T16:45:58.000Z</time>
      </trkpt>
      <trkpt lat="47.26769" lon="-1.42719">
        <ele>54</ele>
        <time>2021-05-19T16:46:00.000Z</time>
      </trkpt>
      <trkpt lat="47.26761" lon="-1.42733">
        <ele>53</ele>
        <time>2021-05-19T16:46:02.000Z</time>
      </trkpt>
      <trkpt lat="47.26754" lon="-1.42748">
        <ele>53</ele>
        <time>2021-05-19T16:46:04.000Z</time>
      </trkpt>
      <trkpt lat="47.26746" lon="-1.42763">
        <ele>53</ele>
        <time>2021-05-19T16:46:06.000Z</time>
      </trkpt>
      <trkpt lat="47.26738" lon="-1.42778">
        <ele>52</ele>
        <time>2021-05-19T16:46:08.000Z</time>
      </trkpt>
      <trkpt lat="47.26734" lon="-1.42794">
        <ele>52</ele>
        <time>2021-05-19T16:46:10.000Z</time>
      </trkpt>
      <trkpt lat="47.2673" lon="-1.42809">
        <ele>52</ele>
        <time>2021-05-19T16:46:12.000Z</time>
      </trkpt>
      <trkpt lat="47.26725" lon="-1.42826">
        <ele>53</ele>
        <time>2021-05-19T16:46:14.000Z</time>
      </trkpt>
      <trkpt lat="47.2672" lon="-1.42842">
        <ele>53</ele>
        <time>2021-05-19T16:46:16.000Z</time>
      </trkpt>
      <trkpt lat="47.26713" lon="-1.42858">
        <ele>53</ele>
        <time>2021-05-19T16:46:18.000Z</time>
      </trkpt>
      <trkpt lat="47.26706" lon="-1.42874">
        <ele>53</ele>
        <time>2021-05-19T16:46:20.000Z</time>
      </trkpt>
      <trkpt lat="47.26698" lon="-1.42889">
        <ele>52</ele>
        <time>2021-05-19T16:46:22.000Z</time>
      </trkpt>
      <trkpt lat="47.2669" lon="-1.42905">
        <ele>52</ele>
        <time>2021-05-19T16:46:24.000Z</time>
      </trkpt>
      <trkpt lat="47.26682" lon="-1.4292">
        <ele>52</ele>
        <time>2021-05-19T16:46:26.000Z</time>
      </trkpt>
      <trkpt lat="47.26674" lon="-1.42935">
        <ele>52</ele>
        <time>2021-05-19T16:46:28.000Z</time>
      </trkpt>
      <trkpt lat="47.26667" lon="-1.4295">
        <ele>52</ele>
        <time>2021-05-19T16:46:30.000Z</time>
      </trkpt>
      <trkpt lat="47.2666" lon="-1.42965">
        <ele>52</ele>
        <time>2021-05-19T16:46:32.000Z</time>
      </trkpt>
      <trkpt lat="47.26652" lon="-1.4298">
        <ele>52</ele>
        <time>2021-05-19T16:46:34.000Z</time>
      </trkpt>
      <trkpt lat="47.26645" lon="-1.42995">
        <ele>51</ele>
        <time>2021-05-19T16:46:36.000Z</time>
      </trkpt>
      <trkpt lat="47.26637" lon="-1.4301">
        <ele>51</ele>
        <time>2021-05-19T16:46:38.000Z</time>
      </trkpt>
      <trkpt lat="47.2663" lon="-1.43025">
        <ele>51</ele>
        <time>2021-05-19T16:46:40.000Z</time>
      </trkpt>
      <trkpt lat="47.26622" lon="-1.4304">
        <ele>51</ele>
        <time>2021-05-19T16:46:42.000Z</time>
      </trkpt>
      <trkpt lat="47.26615" lon="-1.43054">
        <ele>51</ele>
        <time>2021-05-19T16:46:44.000Z</time>
      </trkpt>
      <trkpt lat="47.26607" lon="-1.43069">
        <ele>52</ele>
        <time>2021-05-19T16:46:46.000Z</time>
      </trkpt>
      <trkpt lat="47.266" lon="-1.43084">
        <ele>52</ele>
        <time>2021-05-19T16:46:48.000Z</time>
      </trkpt>
      <trkpt lat="47.26592" lon="-1.43098">
        <ele>52</ele>
        <time>2021-05-19T16:46:50.000Z</time>
      </trkpt>
      <trkpt lat="47.26584" lon="-1.43112">
        <ele>52</ele>
        <time>2021-05-19T16:46:52.000Z</time>
      </trkpt>
      <trkpt lat="47.26575" lon="-1.43126">
        <ele>52</ele>
        <time>2021-05-19T16:46:54.000Z</time>
      </trkpt>
      <trkpt lat="47.26567" lon="-1.43139">
        <ele>52</ele>
        <time>2021-05-19T16:46:56.000Z</time>
      </trkpt>
      <trkpt lat="47.26558" lon="-1.43153">
        <ele>52</ele>
        <time>2021-05-19T16:46:58.000Z</time>
      </trkpt>
      <trkpt lat="47.2655" lon="-1.43166">
        <ele>52</ele>
        <time>2021-05-19T16:47:00.000Z</time>
      </trkpt>
      <trkpt lat="47.26541" lon="-1.43179">
        <ele>51</ele>
        <time>2021-05-19T16:47:02.000Z</time>
      </trkpt>
      <trkpt lat="47.26532" lon="-1.43193">
        <ele>51</ele>
        <time>2021-05-19T16:47:04.000Z</time>
      </trkpt>
      <trkpt lat="47.26523" lon="-1.43206">
        <ele>51</ele>
        <time>2021-05-19T16:47:06.000Z</time>
      </trkpt>
      <trkpt lat="47.26514" lon="-1.43219">
        <ele>52</ele>
        <time>2021-05-19T16:47:08.000Z</time>
      </trkpt>
      <trkpt lat="47.26506" lon="-1.43231">
        <ele>52</ele>
        <time>2021-05-19T16:47:10.000Z</time>
      </trkpt>
      <trkpt lat="47.26497" lon="-1.43243">
        <ele>52</ele>
        <time>2021-05-19T16:47:12.000Z</time>
      </trkpt>
      <trkpt lat="47.26488" lon="-1.43256">
        <ele>52</ele>
        <time>2021-05-19T16:47:14.000Z</time>
      </trkpt>
      <trkpt lat="47.26479" lon="-1.43269">
        <ele>52</ele>
        <time>2021-05-19T16:47:16.000Z</time>
      </trkpt>
      <trkpt lat="47.2647" lon="-1.43282">
        <ele>52</ele>
        <time>2021-05-19T16:47:18.000Z</time>
      </trkpt>
      <trkpt lat="47.26462" lon="-1.43295">
        <ele>52</ele>
        <time>2021-05-19T16:47:20.000Z</time>
      </trkpt>
      <trkpt lat="47.26454" lon="-1.43307">
        <ele>52</ele>
        <time>2021-05-19T16:47:22.000Z</time>
      </trkpt>
      <trkpt lat="47.26446" lon="-1.43319">
        <ele>52</ele>
        <time>2021-05-19T16:47:24.000Z</time>
      </trkpt>
      <trkpt lat="47.26438" lon="-1.43331">
        <ele>52</ele>
        <time>2021-05-19T16:47:26.000Z</time>
      </trkpt>
      <trkpt lat="47.26429" lon="-1.43343">
        <ele>52</ele>
        <time>2021-05-19T16:47:28.000Z</time>
      </trkpt>
      <trkpt lat="47.26419" lon="-1.43354">
        <ele>53</ele>
        <time>2021-05-19T16:47:30.000Z</time>
      </trkpt>
      <trkpt lat="47.26409" lon="-1.43367">
        <ele>52</ele>
        <time>2021-05-19T16:47:32.000Z</time>
      </trkpt>
      <trkpt lat="47.264" lon="-1.43378">
        <ele>52</ele>
        <time>2021-05-19T16:47:34.000Z</time>
      </trkpt>
      <trkpt lat="47.2639" lon="-1.43389">
        <ele>52</ele>
        <time>2021-05-19T16:47:36.000Z</time>
      </trkpt>
      <trkpt lat="47.2638" lon="-1.43399">
        <ele>51</ele>
        <time>2021-05-19T16:47:38.000Z</time>
      </trkpt>
      <trkpt lat="47.26369" lon="-1.4341">
        <ele>51</ele>
        <time>2021-05-19T16:47:40.000Z</time>
      </trkpt>
      <trkpt lat="47.26359" lon="-1.43421">
        <ele>50</ele>
        <time>2021-05-19T16:47:42.000Z</time>
      </trkpt>
      <trkpt lat="47.26349" lon="-1.43431">
        <ele>51</ele>
        <time>2021-05-19T16:47:44.000Z</time>
      </trkpt>
      <trkpt lat="47.2634" lon="-1.43442">
        <ele>51</ele>
        <time>2021-05-19T16:47:46.000Z</time>
      </trkpt>
      <trkpt lat="47.2633" lon="-1.43452">
        <ele>51</ele>
        <time>2021-05-19T16:47:48.000Z</time>
      </trkpt>
      <trkpt lat="47.2632" lon="-1.43462">
        <ele>50</ele>
        <time>2021-05-19T16:47:50.000Z</time>
      </trkpt>
      <trkpt lat="47.2631" lon="-1.43472">
        <ele>50</ele>
        <time>2021-05-19T16:47:52.000Z</time>
      </trkpt>
      <trkpt lat="47.26302" lon="-1.43481">
        <ele>50</ele>
        <time>2021-05-19T16:47:54.000Z</time>
      </trkpt>
      <trkpt lat="47.26292" lon="-1.43488">
        <ele>51</ele>
        <time>2021-05-19T16:47:56.000Z</time>
      </trkpt>
      <trkpt lat="47.26281" lon="-1.43492">
        <ele>51</ele>
        <time>2021-05-19T16:47:58.000Z</time>
      </trkpt>
      <trkpt lat="47.2627" lon="-1.43496">
        <ele>51</ele>
        <time>2021-05-19T16:48:00.000Z</time>
      </trkpt>
      <trkpt lat="47.26258" lon="-1.43501">
        <ele>51</ele>
        <time>2021-05-19T16:48:02.000Z</time>
      </trkpt>
      <trkpt lat="47.26248" lon="-1.43509">
        <ele>51</ele>
        <time>2021-05-19T16:48:04.000Z</time>
      </trkpt>
      <trkpt lat="47.26239" lon="-1.43519">
        <ele>51</ele>
        <time>2021-05-19T16:48:06.000Z</time>
      </trkpt>
      <trkpt lat="47.2623" lon="-1.43529">
        <ele>51</ele>
        <time>2021-05-19T16:48:08.000Z</time>
      </trkpt>
      <trkpt lat="47.26222" lon="-1.4354">
        <ele>51</ele>
        <time>2021-05-19T16:48:10.000Z</time>
      </trkpt>
      <trkpt lat="47.26217" lon="-1.43556">
        <ele>51</ele>
        <time>2021-05-19T16:48:12.000Z</time>
      </trkpt>
      <trkpt lat="47.26215" lon="-1.43574">
        <ele>51</ele>
        <time>2021-05-19T16:48:14.000Z</time>
      </trkpt>
      <trkpt lat="47.26208" lon="-1.43589">
        <ele>50</ele>
        <time>2021-05-19T16:48:16.000Z</time>
      </trkpt>
      <trkpt lat="47.262" lon="-1.43602">
        <ele>49</ele>
        <time>2021-05-19T16:48:18.000Z</time>
      </trkpt>
      <trkpt lat="47.26192" lon="-1.43614">
        <ele>50</ele>
        <time>2021-05-19T16:48:20.000Z</time>
      </trkpt>
      <trkpt lat="47.26184" lon="-1.43626">
        <ele>50</ele>
        <time>2021-05-19T16:48:22.000Z</time>
      </trkpt>
      <trkpt lat="47.26177" lon="-1.4364">
        <ele>50</ele>
        <time>2021-05-19T16:48:24.000Z</time>
      </trkpt>
      <trkpt lat="47.2617" lon="-1.43654">
        <ele>50</ele>
        <time>2021-05-19T16:48:26.000Z</time>
      </trkpt>
      <trkpt lat="47.26161" lon="-1.43668">
        <ele>51</ele>
        <time>2021-05-19T16:48:28.000Z</time>
      </trkpt>
      <trkpt lat="47.26152" lon="-1.43682">
        <ele>51</ele>
        <time>2021-05-19T16:48:30.000Z</time>
      </trkpt>
      <trkpt lat="47.26143" lon="-1.43695">
        <ele>51</ele>
        <time>2021-05-19T16:48:32.000Z</time>
      </trkpt>
      <trkpt lat="47.26134" lon="-1.43707">
        <ele>51</ele>
        <time>2021-05-19T16:48:34.000Z</time>
      </trkpt>
      <trkpt lat="47.26126" lon="-1.4372">
        <ele>51</ele>
        <time>2021-05-19T16:48:36.000Z</time>
      </trkpt>
      <trkpt lat="47.26118" lon="-1.43734">
        <ele>52</ele>
        <time>2021-05-19T16:48:38.000Z</time>
      </trkpt>
      <trkpt lat="47.2611" lon="-1.43748">
        <ele>53</ele>
        <time>2021-05-19T16:48:40.000Z</time>
      </trkpt>
      <trkpt lat="47.261" lon="-1.43758">
        <ele>53</ele>
        <time>2021-05-19T16:48:42.000Z</time>
      </trkpt>
      <trkpt lat="47.26091" lon="-1.43768">
        <ele>52</ele>
        <time>2021-05-19T16:48:44.000Z</time>
      </trkpt>
      <trkpt lat="47.26083" lon="-1.4378">
        <ele>53</ele>
        <time>2021-05-19T16:48:46.000Z</time>
      </trkpt>
      <trkpt lat="47.26073" lon="-1.43792">
        <ele>53</ele>
        <time>2021-05-19T16:48:48.000Z</time>
      </trkpt>
      <trkpt lat="47.26063" lon="-1.43805">
        <ele>52</ele>
        <time>2021-05-19T16:48:50.000Z</time>
      </trkpt>
      <trkpt lat="47.26055" lon="-1.4382">
        <ele>52</ele>
        <time>2021-05-19T16:48:52.000Z</time>
      </trkpt>
      <trkpt lat="47.26049" lon="-1.43836">
        <ele>52</ele>
        <time>2021-05-19T16:48:54.000Z</time>
      </trkpt>
      <trkpt lat="47.26042" lon="-1.43852">
        <ele>52</ele>
        <time>2021-05-19T16:48:56.000Z</time>
      </trkpt>
      <trkpt lat="47.26033" lon="-1.43865">
        <ele>52</ele>
        <time>2021-05-19T16:48:58.000Z</time>
      </trkpt>
      <trkpt lat="47.26023" lon="-1.43875">
        <ele>52</ele>
        <time>2021-05-19T16:49:00.000Z</time>
      </trkpt>
      <trkpt lat="47.26012" lon="-1.43885">
        <ele>52</ele>
        <time>2021-05-19T16:49:02.000Z</time>
      </trkpt>
      <trkpt lat="47.26001" lon="-1.43895">
        <ele>52</ele>
        <time>2021-05-19T16:49:04.000Z</time>
      </trkpt>
      <trkpt lat="47.25991" lon="-1.43906">
        <ele>52</ele>
        <time>2021-05-19T16:49:06.000Z</time>
      </trkpt>
      <trkpt lat="47.25981" lon="-1.43919">
        <ele>51</ele>
        <time>2021-05-19T16:49:08.000Z</time>
      </trkpt>
      <trkpt lat="47.25971" lon="-1.43931">
        <ele>52</ele>
        <time>2021-05-19T16:49:10.000Z</time>
      </trkpt>
      <trkpt lat="47.25962" lon="-1.43944">
        <ele>52</ele>
        <time>2021-05-19T16:49:12.000Z</time>
      </trkpt>
      <trkpt lat="47.25952" lon="-1.43956">
        <ele>52</ele>
        <time>2021-05-19T16:49:14.000Z</time>
      </trkpt>
      <trkpt lat="47.25941" lon="-1.43967">
        <ele>52</ele>
        <time>2021-05-19T16:49:16.000Z</time>
      </trkpt>
      <trkpt lat="47.25931" lon="-1.43979">
        <ele>52</ele>
        <time>2021-05-19T16:49:18.000Z</time>
      </trkpt>
      <trkpt lat="47.25921" lon="-1.4399">
        <ele>52</ele>
        <time>2021-05-19T16:49:20.000Z</time>
      </trkpt>
      <trkpt lat="47.25911" lon="-1.44001">
        <ele>52</ele>
        <time>2021-05-19T16:49:22.000Z</time>
      </trkpt>
      <trkpt lat="47.25902" lon="-1.44014">
        <ele>51</ele>
        <time>2021-05-19T16:49:24.000Z</time>
      </trkpt>
      <trkpt lat="47.25892" lon="-1.44025">
        <ele>51</ele>
        <time>2021-05-19T16:49:26.000Z</time>
      </trkpt>
      <trkpt lat="47.25883" lon="-1.44037">
        <ele>51</ele>
        <time>2021-05-19T16:49:28.000Z</time>
      </trkpt>
      <trkpt lat="47.25875" lon="-1.44051">
        <ele>51</ele>
        <time>2021-05-19T16:49:30.000Z</time>
      </trkpt>
      <trkpt lat="47.25871" lon="-1.44068">
        <ele>51</ele>
        <time>2021-05-19T16:49:32.000Z</time>
      </trkpt>
      <trkpt lat="47.25865" lon="-1.44083">
        <ele>50</ele>
        <time>2021-05-19T16:49:34.000Z</time>
      </trkpt>
      <trkpt lat="47.25857" lon="-1.44095">
        <ele>50</ele>
        <time>2021-05-19T16:49:36.000Z</time>
      </trkpt>
      <trkpt lat="47.25847" lon="-1.44107">
        <ele>50</ele>
        <time>2021-05-19T16:49:38.000Z</time>
      </trkpt>
      <trkpt lat="47.25837" lon="-1.4412">
        <ele>50</ele>
        <time>2021-05-19T16:49:40.000Z</time>
      </trkpt>
      <trkpt lat="47.25826" lon="-1.44131">
        <ele>50</ele>
        <time>2021-05-19T16:49:42.000Z</time>
      </trkpt>
      <trkpt lat="47.25815" lon="-1.44143">
        <ele>50</ele>
        <time>2021-05-19T16:49:44.000Z</time>
      </trkpt>
      <trkpt lat="47.25804" lon="-1.44155">
        <ele>50</ele>
        <time>2021-05-19T16:49:46.000Z</time>
      </trkpt>
      <trkpt lat="47.25794" lon="-1.44167">
        <ele>50</ele>
        <time>2021-05-19T16:49:48.000Z</time>
      </trkpt>
      <trkpt lat="47.25783" lon="-1.44179">
        <ele>50</ele>
        <time>2021-05-19T16:49:50.000Z</time>
      </trkpt>
      <trkpt lat="47.25773" lon="-1.44191">
        <ele>50</ele>
        <time>2021-05-19T16:49:52.000Z</time>
      </trkpt>
      <trkpt lat="47.25763" lon="-1.44202">
        <ele>50</ele>
        <time>2021-05-19T16:49:54.000Z</time>
      </trkpt>
      <trkpt lat="47.25753" lon="-1.44214">
        <ele>50</ele>
        <time>2021-05-19T16:49:56.000Z</time>
      </trkpt>
      <trkpt lat="47.25743" lon="-1.44225">
        <ele>50</ele>
        <time>2021-05-19T16:49:58.000Z</time>
      </trkpt>
      <trkpt lat="47.25733" lon="-1.44238">
        <ele>50</ele>
        <time>2021-05-19T16:50:00.000Z</time>
      </trkpt>
      <trkpt lat="47.25724" lon="-1.44251">
        <ele>50</ele>
        <time>2021-05-19T16:50:02.000Z</time>
      </trkpt>
      <trkpt lat="47.25715" lon="-1.44263">
        <ele>49</ele>
        <time>2021-05-19T16:50:04.000Z</time>
      </trkpt>
      <trkpt lat="47.25705" lon="-1.44275">
        <ele>50</ele>
        <time>2021-05-19T16:50:06.000Z</time>
      </trkpt>
      <trkpt lat="47.25695" lon="-1.44286">
        <ele>50</ele>
        <time>2021-05-19T16:50:08.000Z</time>
      </trkpt>
      <trkpt lat="47.25685" lon="-1.44298">
        <ele>50</ele>
        <time>2021-05-19T16:50:10.000Z</time>
      </trkpt>
      <trkpt lat="47.25675" lon="-1.4431">
        <ele>50</ele>
        <time>2021-05-19T16:50:12.000Z</time>
      </trkpt>
      <trkpt lat="47.25666" lon="-1.44322">
        <ele>50</ele>
        <time>2021-05-19T16:50:14.000Z</time>
      </trkpt>
      <trkpt lat="47.25657" lon="-1.44333">
        <ele>50</ele>
        <time>2021-05-19T16:50:16.000Z</time>
      </trkpt>
      <trkpt lat="47.25647" lon="-1.44344">
        <ele>50</ele>
        <time>2021-05-19T16:50:18.000Z</time>
      </trkpt>
      <trkpt lat="47.25637" lon="-1.44355">
        <ele>50</ele>
        <time>2021-05-19T16:50:20.000Z</time>
      </trkpt>
      <trkpt lat="47.25627" lon="-1.44366">
        <ele>49</ele>
        <time>2021-05-19T16:50:22.000Z</time>
      </trkpt>
      <trkpt lat="47.25618" lon="-1.44376">
        <ele>49</ele>
        <time>2021-05-19T16:50:24.000Z</time>
      </trkpt>
      <trkpt lat="47.25609" lon="-1.44387">
        <ele>49</ele>
        <time>2021-05-19T16:50:26.000Z</time>
      </trkpt>
      <trkpt lat="47.25599" lon="-1.44399">
        <ele>49</ele>
        <time>2021-05-19T16:50:28.000Z</time>
      </trkpt>
      <trkpt lat="47.25589" lon="-1.44412">
        <ele>49</ele>
        <time>2021-05-19T16:50:30.000Z</time>
      </trkpt>
      <trkpt lat="47.25579" lon="-1.44423">
        <ele>49</ele>
        <time>2021-05-19T16:50:32.000Z</time>
      </trkpt>
      <trkpt lat="47.2557" lon="-1.44435">
        <ele>49</ele>
        <time>2021-05-19T16:50:34.000Z</time>
      </trkpt>
      <trkpt lat="47.25561" lon="-1.44448">
        <ele>49</ele>
        <time>2021-05-19T16:50:36.000Z</time>
      </trkpt>
      <trkpt lat="47.25551" lon="-1.4446">
        <ele>50</ele>
        <time>2021-05-19T16:50:38.000Z</time>
      </trkpt>
      <trkpt lat="47.25542" lon="-1.44472">
        <ele>50</ele>
        <time>2021-05-19T16:50:40.000Z</time>
      </trkpt>
      <trkpt lat="47.25534" lon="-1.44485">
        <ele>51</ele>
        <time>2021-05-19T16:50:42.000Z</time>
      </trkpt>
      <trkpt lat="47.25525" lon="-1.44499">
        <ele>51</ele>
        <time>2021-05-19T16:50:44.000Z</time>
      </trkpt>
      <trkpt lat="47.25516" lon="-1.44513">
        <ele>51</ele>
        <time>2021-05-19T16:50:46.000Z</time>
      </trkpt>
      <trkpt lat="47.25507" lon="-1.44526">
        <ele>50</ele>
        <time>2021-05-19T16:50:48.000Z</time>
      </trkpt>
      <trkpt lat="47.25498" lon="-1.44539">
        <ele>50</ele>
        <time>2021-05-19T16:50:50.000Z</time>
      </trkpt>
      <trkpt lat="47.25489" lon="-1.44552">
        <ele>50</ele>
        <time>2021-05-19T16:50:52.000Z</time>
      </trkpt>
      <trkpt lat="47.2548" lon="-1.44566">
        <ele>50</ele>
        <time>2021-05-19T16:50:54.000Z</time>
      </trkpt>
      <trkpt lat="47.25472" lon="-1.44579">
        <ele>50</ele>
        <time>2021-05-19T16:50:56.000Z</time>
      </trkpt>
      <trkpt lat="47.25463" lon="-1.44592">
        <ele>50</ele>
        <time>2021-05-19T16:50:58.000Z</time>
      </trkpt>
      <trkpt lat="47.25455" lon="-1.44605">
        <ele>50</ele>
        <time>2021-05-19T16:51:00.000Z</time>
      </trkpt>
      <trkpt lat="47.25447" lon="-1.44617">
        <ele>50</ele>
        <time>2021-05-19T16:51:02.000Z</time>
      </trkpt>
      <trkpt lat="47.25437" lon="-1.44629">
        <ele>50</ele>
        <time>2021-05-19T16:51:04.000Z</time>
      </trkpt>
      <trkpt lat="47.25428" lon="-1.44641">
        <ele>50</ele>
        <time>2021-05-19T16:51:06.000Z</time>
      </trkpt>
      <trkpt lat="47.25419" lon="-1.44653">
        <ele>50</ele>
        <time>2021-05-19T16:51:08.000Z</time>
      </trkpt>
      <trkpt lat="47.25409" lon="-1.44665">
        <ele>50</ele>
        <time>2021-05-19T16:51:10.000Z</time>
      </trkpt>
      <trkpt lat="47.254" lon="-1.44677">
        <ele>51</ele>
        <time>2021-05-19T16:51:12.000Z</time>
      </trkpt>
      <trkpt lat="47.2539" lon="-1.4469">
        <ele>51</ele>
        <time>2021-05-19T16:51:14.000Z</time>
      </trkpt>
      <trkpt lat="47.2538" lon="-1.44702">
        <ele>51</ele>
        <time>2021-05-19T16:51:16.000Z</time>
      </trkpt>
      <trkpt lat="47.2537" lon="-1.44714">
        <ele>50</ele>
        <time>2021-05-19T16:51:18.000Z</time>
      </trkpt>
      <trkpt lat="47.2536" lon="-1.44726">
        <ele>50</ele>
        <time>2021-05-19T16:51:20.000Z</time>
      </trkpt>
      <trkpt lat="47.2535" lon="-1.44737">
        <ele>49</ele>
        <time>2021-05-19T16:51:22.000Z</time>
      </trkpt>
      <trkpt lat="47.25339" lon="-1.44746">
        <ele>49</ele>
        <time>2021-05-19T16:51:24.000Z</time>
      </trkpt>
      <trkpt lat="47.25329" lon="-1.44756">
        <ele>49</ele>
        <time>2021-05-19T16:51:26.000Z</time>
      </trkpt>
      <trkpt lat="47.2532" lon="-1.44767">
        <ele>49</ele>
        <time>2021-05-19T16:51:28.000Z</time>
      </trkpt>
      <trkpt lat="47.2531" lon="-1.44777">
        <ele>49</ele>
        <time>2021-05-19T16:51:30.000Z</time>
      </trkpt>
      <trkpt lat="47.25301" lon="-1.44788">
        <ele>49</ele>
        <time>2021-05-19T16:51:32.000Z</time>
      </trkpt>
      <trkpt lat="47.25291" lon="-1.448">
        <ele>50</ele>
        <time>2021-05-19T16:51:34.000Z</time>
      </trkpt>
      <trkpt lat="47.25281" lon="-1.44811">
        <ele>50</ele>
        <time>2021-05-19T16:51:36.000Z</time>
      </trkpt>
      <trkpt lat="47.25271" lon="-1.44822">
        <ele>50</ele>
        <time>2021-05-19T16:51:38.000Z</time>
      </trkpt>
      <trkpt lat="47.25261" lon="-1.44835">
        <ele>50</ele>
        <time>2021-05-19T16:51:40.000Z</time>
      </trkpt>
      <trkpt lat="47.2525" lon="-1.44846">
        <ele>49</ele>
        <time>2021-05-19T16:51:42.000Z</time>
      </trkpt>
      <trkpt lat="47.25239" lon="-1.44858">
        <ele>49</ele>
        <time>2021-05-19T16:51:44.000Z</time>
      </trkpt>
      <trkpt lat="47.2523" lon="-1.44868">
        <ele>49</ele>
        <time>2021-05-19T16:51:46.000Z</time>
      </trkpt>
      <trkpt lat="47.25219" lon="-1.44878">
        <ele>50</ele>
        <time>2021-05-19T16:51:48.000Z</time>
      </trkpt>
      <trkpt lat="47.25208" lon="-1.44887">
        <ele>51</ele>
        <time>2021-05-19T16:51:50.000Z</time>
      </trkpt>
      <trkpt lat="47.25197" lon="-1.44896">
        <ele>52</ele>
        <time>2021-05-19T16:51:52.000Z</time>
      </trkpt>
      <trkpt lat="47.25186" lon="-1.44905">
        <ele>51</ele>
        <time>2021-05-19T16:51:54.000Z</time>
      </trkpt>
      <trkpt lat="47.25175" lon="-1.44913">
        <ele>52</ele>
        <time>2021-05-19T16:51:56.000Z</time>
      </trkpt>
      <trkpt lat="47.25164" lon="-1.44923">
        <ele>52</ele>
        <time>2021-05-19T16:51:58.000Z</time>
      </trkpt>
      <trkpt lat="47.25153" lon="-1.44934">
        <ele>52</ele>
        <time>2021-05-19T16:52:00.000Z</time>
      </trkpt>
      <trkpt lat="47.25141" lon="-1.44945">
        <ele>51</ele>
        <time>2021-05-19T16:52:02.000Z</time>
      </trkpt>
      <trkpt lat="47.25131" lon="-1.44955">
        <ele>51</ele>
        <time>2021-05-19T16:52:04.000Z</time>
      </trkpt>
      <trkpt lat="47.2512" lon="-1.44965">
        <ele>51</ele>
        <time>2021-05-19T16:52:06.000Z</time>
      </trkpt>
      <trkpt lat="47.2511" lon="-1.44975">
        <ele>52</ele>
        <time>2021-05-19T16:52:08.000Z</time>
      </trkpt>
      <trkpt lat="47.25097" lon="-1.44985">
        <ele>52</ele>
        <time>2021-05-19T16:52:10.000Z</time>
      </trkpt>
      <trkpt lat="47.25085" lon="-1.44996">
        <ele>51</ele>
        <time>2021-05-19T16:52:12.000Z</time>
      </trkpt>
      <trkpt lat="47.25073" lon="-1.45007">
        <ele>51</ele>
        <time>2021-05-19T16:52:14.000Z</time>
      </trkpt>
      <trkpt lat="47.25061" lon="-1.45016">
        <ele>51</ele>
        <time>2021-05-19T16:52:16.000Z</time>
      </trkpt>
      <trkpt lat="47.25048" lon="-1.45024">
        <ele>51</ele>
        <time>2021-05-19T16:52:18.000Z</time>
      </trkpt>
      <trkpt lat="47.25036" lon="-1.45032">
        <ele>50</ele>
        <time>2021-05-19T16:52:20.000Z</time>
      </trkpt>
      <trkpt lat="47.25025" lon="-1.45043">
        <ele>50</ele>
        <time>2021-05-19T16:52:22.000Z</time>
      </trkpt>
      <trkpt lat="47.25015" lon="-1.45054">
        <ele>50</ele>
        <time>2021-05-19T16:52:24.000Z</time>
      </trkpt>
      <trkpt lat="47.25005" lon="-1.45064">
        <ele>49</ele>
        <time>2021-05-19T16:52:26.000Z</time>
      </trkpt>
      <trkpt lat="47.24994" lon="-1.45075">
        <ele>49</ele>
        <time>2021-05-19T16:52:28.000Z</time>
      </trkpt>
      <trkpt lat="47.24984" lon="-1.45087">
        <ele>49</ele>
        <time>2021-05-19T16:52:30.000Z</time>
      </trkpt>
      <trkpt lat="47.24973" lon="-1.45099">
        <ele>49</ele>
        <time>2021-05-19T16:52:32.000Z</time>
      </trkpt>
      <trkpt lat="47.24964" lon="-1.4511">
        <ele>49</ele>
        <time>2021-05-19T16:52:34.000Z</time>
      </trkpt>
      <trkpt lat="47.24953" lon="-1.4512">
        <ele>49</ele>
        <time>2021-05-19T16:52:36.000Z</time>
      </trkpt>
      <trkpt lat="47.24942" lon="-1.45131">
        <ele>49</ele>
        <time>2021-05-19T16:52:38.000Z</time>
      </trkpt>
      <trkpt lat="47.24932" lon="-1.45142">
        <ele>49</ele>
        <time>2021-05-19T16:52:40.000Z</time>
      </trkpt>
      <trkpt lat="47.24921" lon="-1.45153">
        <ele>50</ele>
        <time>2021-05-19T16:52:42.000Z</time>
      </trkpt>
      <trkpt lat="47.24911" lon="-1.45165">
        <ele>49</ele>
        <time>2021-05-19T16:52:44.000Z</time>
      </trkpt>
      <trkpt lat="47.24902" lon="-1.45176">
        <ele>49</ele>
        <time>2021-05-19T16:52:46.000Z</time>
      </trkpt>
      <trkpt lat="47.24893" lon="-1.45189">
        <ele>49</ele>
        <time>2021-05-19T16:52:48.000Z</time>
      </trkpt>
      <trkpt lat="47.24885" lon="-1.45202">
        <ele>50</ele>
        <time>2021-05-19T16:52:50.000Z</time>
      </trkpt>
      <trkpt lat="47.24877" lon="-1.45214">
        <ele>50</ele>
        <time>2021-05-19T16:52:52.000Z</time>
      </trkpt>
      <trkpt lat="47.24868" lon="-1.45226">
        <ele>50</ele>
        <time>2021-05-19T16:52:54.000Z</time>
      </trkpt>
      <trkpt lat="47.24859" lon="-1.45239">
        <ele>50</ele>
        <time>2021-05-19T16:52:56.000Z</time>
      </trkpt>
      <trkpt lat="47.24851" lon="-1.45253">
        <ele>49</ele>
        <time>2021-05-19T16:52:58.000Z</time>
      </trkpt>
      <trkpt lat="47.24842" lon="-1.45266">
        <ele>49</ele>
        <time>2021-05-19T16:53:00.000Z</time>
      </trkpt>
      <trkpt lat="47.24834" lon="-1.45278">
        <ele>50</ele>
        <time>2021-05-19T16:53:02.000Z</time>
      </trkpt>
      <trkpt lat="47.24827" lon="-1.45291">
        <ele>50</ele>
        <time>2021-05-19T16:53:04.000Z</time>
      </trkpt>
      <trkpt lat="47.24821" lon="-1.45305">
        <ele>50</ele>
        <time>2021-05-19T16:53:06.000Z</time>
      </trkpt>
      <trkpt lat="47.24814" lon="-1.45319">
        <ele>51</ele>
        <time>2021-05-19T16:53:08.000Z</time>
      </trkpt>
      <trkpt lat="47.24806" lon="-1.45333">
        <ele>51</ele>
        <time>2021-05-19T16:53:10.000Z</time>
      </trkpt>
      <trkpt lat="47.248" lon="-1.45347">
        <ele>51</ele>
        <time>2021-05-19T16:53:12.000Z</time>
      </trkpt>
      <trkpt lat="47.24793" lon="-1.45363">
        <ele>51</ele>
        <time>2021-05-19T16:53:14.000Z</time>
      </trkpt>
      <trkpt lat="47.24787" lon="-1.4538">
        <ele>50</ele>
        <time>2021-05-19T16:53:16.000Z</time>
      </trkpt>
      <trkpt lat="47.24778" lon="-1.45396">
        <ele>50</ele>
        <time>2021-05-19T16:53:18.000Z</time>
      </trkpt>
      <trkpt lat="47.24772" lon="-1.45411">
        <ele>51</ele>
        <time>2021-05-19T16:53:20.000Z</time>
      </trkpt>
      <trkpt lat="47.24766" lon="-1.45425">
        <ele>51</ele>
        <time>2021-05-19T16:53:22.000Z</time>
      </trkpt>
      <trkpt lat="47.2476" lon="-1.45441">
        <ele>52</ele>
        <time>2021-05-19T16:53:24.000Z</time>
      </trkpt>
      <trkpt lat="47.24755" lon="-1.45456">
        <ele>52</ele>
        <time>2021-05-19T16:53:26.000Z</time>
      </trkpt>
      <trkpt lat="47.2475" lon="-1.45471">
        <ele>53</ele>
        <time>2021-05-19T16:53:28.000Z</time>
      </trkpt>
      <trkpt lat="47.24744" lon="-1.45487">
        <ele>53</ele>
        <time>2021-05-19T16:53:30.000Z</time>
      </trkpt>
      <trkpt lat="47.24736" lon="-1.45502">
        <ele>52</ele>
        <time>2021-05-19T16:53:32.000Z</time>
      </trkpt>
      <trkpt lat="47.24729" lon="-1.45517">
        <ele>52</ele>
        <time>2021-05-19T16:53:34.000Z</time>
      </trkpt>
      <trkpt lat="47.24724" lon="-1.45532">
        <ele>51</ele>
        <time>2021-05-19T16:53:36.000Z</time>
      </trkpt>
      <trkpt lat="47.24719" lon="-1.45547">
        <ele>51</ele>
        <time>2021-05-19T16:53:38.000Z</time>
      </trkpt>
      <trkpt lat="47.24714" lon="-1.45562">
        <ele>51</ele>
        <time>2021-05-19T16:53:40.000Z</time>
      </trkpt>
      <trkpt lat="47.24708" lon="-1.45577">
        <ele>51</ele>
        <time>2021-05-19T16:53:42.000Z</time>
      </trkpt>
      <trkpt lat="47.24704" lon="-1.45592">
        <ele>51</ele>
        <time>2021-05-19T16:53:44.000Z</time>
      </trkpt>
      <trkpt lat="47.24699" lon="-1.45608">
        <ele>51</ele>
        <time>2021-05-19T16:53:46.000Z</time>
      </trkpt>
      <trkpt lat="47.24694" lon="-1.45624">
        <ele>51</ele>
        <time>2021-05-19T16:53:48.000Z</time>
      </trkpt>
      <trkpt lat="47.24689" lon="-1.45638">
        <ele>50</ele>
        <time>2021-05-19T16:53:50.000Z</time>
      </trkpt>
      <trkpt lat="47.24683" lon="-1.45653">
        <ele>51</ele>
        <time>2021-05-19T16:53:52.000Z</time>
      </trkpt>
      <trkpt lat="47.24678" lon="-1.45668">
        <ele>51</ele>
        <time>2021-05-19T16:53:54.000Z</time>
      </trkpt>
      <trkpt lat="47.24675" lon="-1.45684">
        <ele>51</ele>
        <time>2021-05-19T16:53:56.000Z</time>
      </trkpt>
      <trkpt lat="47.24671" lon="-1.45701">
        <ele>51</ele>
        <time>2021-05-19T16:53:58.000Z</time>
      </trkpt>
      <trkpt lat="47.24668" lon="-1.45717">
        <ele>51</ele>
        <time>2021-05-19T16:54:00.000Z</time>
      </trkpt>
      <trkpt lat="47.24665" lon="-1.45735">
        <ele>51</ele>
        <time>2021-05-19T16:54:02.000Z</time>
      </trkpt>
      <trkpt lat="47.24661" lon="-1.45753">
        <ele>51</ele>
        <time>2021-05-19T16:54:04.000Z</time>
      </trkpt>
      <trkpt lat="47.24657" lon="-1.4577">
        <ele>52</ele>
        <time>2021-05-19T16:54:06.000Z</time>
      </trkpt>
      <trkpt lat="47.24652" lon="-1.45786">
        <ele>53</ele>
        <time>2021-05-19T16:54:08.000Z</time>
      </trkpt>
      <trkpt lat="47.24648" lon="-1.45801">
        <ele>53</ele>
        <time>2021-05-19T16:54:10.000Z</time>
      </trkpt>
      <trkpt lat="47.24644" lon="-1.45816">
        <ele>53</ele>
        <time>2021-05-19T16:54:12.000Z</time>
      </trkpt>
      <trkpt lat="47.24638" lon="-1.45832">
        <ele>53</ele>
        <time>2021-05-19T16:54:14.000Z</time>
      </trkpt>
      <trkpt lat="47.24634" lon="-1.45848">
        <ele>54</ele>
        <time>2021-05-19T16:54:16.000Z</time>
      </trkpt>
      <trkpt lat="47.24632" lon="-1.45864">
        <ele>54</ele>
        <time>2021-05-19T16:54:18.000Z</time>
      </trkpt>
      <trkpt lat="47.24629" lon="-1.4588">
        <ele>54</ele>
        <time>2021-05-19T16:54:20.000Z</time>
      </trkpt>
      <trkpt lat="47.24625" lon="-1.45895">
        <ele>54</ele>
        <time>2021-05-19T16:54:22.000Z</time>
      </trkpt>
      <trkpt lat="47.2462" lon="-1.45911">
        <ele>54</ele>
        <time>2021-05-19T16:54:24.000Z</time>
      </trkpt>
      <trkpt lat="47.24615" lon="-1.45928">
        <ele>52</ele>
        <time>2021-05-19T16:54:26.000Z</time>
      </trkpt>
      <trkpt lat="47.24609" lon="-1.45943">
        <ele>52</ele>
        <time>2021-05-19T16:54:28.000Z</time>
      </trkpt>
      <trkpt lat="47.24601" lon="-1.45956">
        <ele>53</ele>
        <time>2021-05-19T16:54:30.000Z</time>
      </trkpt>
      <trkpt lat="47.24593" lon="-1.45971">
        <ele>53</ele>
        <time>2021-05-19T16:54:32.000Z</time>
      </trkpt>
      <trkpt lat="47.24586" lon="-1.45986">
        <ele>53</ele>
        <time>2021-05-19T16:54:34.000Z</time>
      </trkpt>
      <trkpt lat="47.24578" lon="-1.46002">
        <ele>53</ele>
        <time>2021-05-19T16:54:36.000Z</time>
      </trkpt>
      <trkpt lat="47.24571" lon="-1.46016">
        <ele>53</ele>
        <time>2021-05-19T16:54:38.000Z</time>
      </trkpt>
      <trkpt lat="47.24562" lon="-1.46032">
        <ele>52</ele>
        <time>2021-05-19T16:54:40.000Z</time>
      </trkpt>
      <trkpt lat="47.24555" lon="-1.46046">
        <ele>52</ele>
        <time>2021-05-19T16:54:42.000Z</time>
      </trkpt>
      <trkpt lat="47.24547" lon="-1.46061">
        <ele>52</ele>
        <time>2021-05-19T16:54:44.000Z</time>
      </trkpt>
      <trkpt lat="47.2454" lon="-1.46076">
        <ele>53</ele>
        <time>2021-05-19T16:54:46.000Z</time>
      </trkpt>
      <trkpt lat="47.24532" lon="-1.46091">
        <ele>53</ele>
        <time>2021-05-19T16:54:48.000Z</time>
      </trkpt>
      <trkpt lat="47.24524" lon="-1.46104">
        <ele>54</ele>
        <time>2021-05-19T16:54:50.000Z</time>
      </trkpt>
      <trkpt lat="47.24513" lon="-1.46117">
        <ele>53</ele>
        <time>2021-05-19T16:54:52.000Z</time>
      </trkpt>
      <trkpt lat="47.24504" lon="-1.46128">
        <ele>52</ele>
        <time>2021-05-19T16:54:54.000Z</time>
      </trkpt>
      <trkpt lat="47.24494" lon="-1.46141">
        <ele>52</ele>
        <time>2021-05-19T16:54:56.000Z</time>
      </trkpt>
      <trkpt lat="47.24485" lon="-1.46152">
        <ele>51</ele>
        <time>2021-05-19T16:54:58.000Z</time>
      </trkpt>
      <trkpt lat="47.24476" lon="-1.46164">
        <ele>51</ele>
        <time>2021-05-19T16:55:00.000Z</time>
      </trkpt>
      <trkpt lat="47.24467" lon="-1.46173">
        <ele>52</ele>
        <time>2021-05-19T16:55:02.000Z</time>
      </trkpt>
      <trkpt lat="47.24458" lon="-1.46184">
        <ele>51</ele>
        <time>2021-05-19T16:55:04.000Z</time>
      </trkpt>
      <trkpt lat="47.24449" lon="-1.46195">
        <ele>52</ele>
        <time>2021-05-19T16:55:06.000Z</time>
      </trkpt>
      <trkpt lat="47.24439" lon="-1.46206">
        <ele>52</ele>
        <time>2021-05-19T16:55:08.000Z</time>
      </trkpt>
      <trkpt lat="47.2443" lon="-1.46218">
        <ele>52</ele>
        <time>2021-05-19T16:55:10.000Z</time>
      </trkpt>
      <trkpt lat="47.24421" lon="-1.4623">
        <ele>52</ele>
        <time>2021-05-19T16:55:12.000Z</time>
      </trkpt>
      <trkpt lat="47.24412" lon="-1.46243">
        <ele>53</ele>
        <time>2021-05-19T16:55:14.000Z</time>
      </trkpt>
      <trkpt lat="47.24402" lon="-1.46256">
        <ele>53</ele>
        <time>2021-05-19T16:55:16.000Z</time>
      </trkpt>
      <trkpt lat="47.24392" lon="-1.4627">
        <ele>53</ele>
        <time>2021-05-19T16:55:18.000Z</time>
      </trkpt>
      <trkpt lat="47.24384" lon="-1.46283">
        <ele>53</ele>
        <time>2021-05-19T16:55:20.000Z</time>
      </trkpt>
      <trkpt lat="47.24375" lon="-1.46298">
        <ele>52</ele>
        <time>2021-05-19T16:55:22.000Z</time>
      </trkpt>
      <trkpt lat="47.24362" lon="-1.46318">
        <ele>52</ele>
        <time>2021-05-19T16:55:25.000Z</time>
      </trkpt>
      <trkpt lat="47.24354" lon="-1.46331">
        <ele>52</ele>
        <time>2021-05-19T16:55:27.000Z</time>
      </trkpt>
      <trkpt lat="47.24345" lon="-1.46346">
        <ele>52</ele>
        <time>2021-05-19T16:55:29.000Z</time>
      </trkpt>
      <trkpt lat="47.24332" lon="-1.46369">
        <ele>52</ele>
        <time>2021-05-19T16:55:32.000Z</time>
      </trkpt>
      <trkpt lat="47.24318" lon="-1.46393">
        <ele>52</ele>
        <time>2021-05-19T16:55:35.000Z</time>
      </trkpt>
      <trkpt lat="47.24306" lon="-1.46417">
        <ele>53</ele>
        <time>2021-05-19T16:55:38.000Z</time>
      </trkpt>
      <trkpt lat="47.24292" lon="-1.46439">
        <ele>52</ele>
        <time>2021-05-19T16:55:41.000Z</time>
      </trkpt>
      <trkpt lat="47.24282" lon="-1.46452">
        <ele>53</ele>
        <time>2021-05-19T16:55:43.000Z</time>
      </trkpt>
      <trkpt lat="47.24272" lon="-1.46465">
        <ele>53</ele>
        <time>2021-05-19T16:55:45.000Z</time>
      </trkpt>
      <trkpt lat="47.24262" lon="-1.46477">
        <ele>53</ele>
        <time>2021-05-19T16:55:47.000Z</time>
      </trkpt>
      <trkpt lat="47.24252" lon="-1.46489">
        <ele>54</ele>
        <time>2021-05-19T16:55:49.000Z</time>
      </trkpt>
      <trkpt lat="47.24243" lon="-1.46501">
        <ele>54</ele>
        <time>2021-05-19T16:55:51.000Z</time>
      </trkpt>
      <trkpt lat="47.24232" lon="-1.46513">
        <ele>54</ele>
        <time>2021-05-19T16:55:53.000Z</time>
      </trkpt>
      <trkpt lat="47.24217" lon="-1.46531">
        <ele>53</ele>
        <time>2021-05-19T16:55:56.000Z</time>
      </trkpt>
      <trkpt lat="47.24204" lon="-1.46548">
        <ele>53</ele>
        <time>2021-05-19T16:55:59.000Z</time>
      </trkpt>
      <trkpt lat="47.24194" lon="-1.4656">
        <ele>52</ele>
        <time>2021-05-19T16:56:01.000Z</time>
      </trkpt>
      <trkpt lat="47.24185" lon="-1.46572">
        <ele>52</ele>
        <time>2021-05-19T16:56:03.000Z</time>
      </trkpt>
      <trkpt lat="47.24171" lon="-1.4659">
        <ele>52</ele>
        <time>2021-05-19T16:56:06.000Z</time>
      </trkpt>
      <trkpt lat="47.24161" lon="-1.46601">
        <ele>51</ele>
        <time>2021-05-19T16:56:08.000Z</time>
      </trkpt>
      <trkpt lat="47.24151" lon="-1.46614">
        <ele>52</ele>
        <time>2021-05-19T16:56:10.000Z</time>
      </trkpt>
      <trkpt lat="47.24137" lon="-1.46632">
        <ele>51</ele>
        <time>2021-05-19T16:56:13.000Z</time>
      </trkpt>
      <trkpt lat="47.24128" lon="-1.46645">
        <ele>52</ele>
        <time>2021-05-19T16:56:15.000Z</time>
      </trkpt>
      <trkpt lat="47.24115" lon="-1.46665">
        <ele>52</ele>
        <time>2021-05-19T16:56:18.000Z</time>
      </trkpt>
      <trkpt lat="47.24102" lon="-1.46685">
        <ele>52</ele>
        <time>2021-05-19T16:56:21.000Z</time>
      </trkpt>
      <trkpt lat="47.24089" lon="-1.46705">
        <ele>52</ele>
        <time>2021-05-19T16:56:24.000Z</time>
      </trkpt>
      <trkpt lat="47.24082" lon="-1.46719">
        <ele>52</ele>
        <time>2021-05-19T16:56:26.000Z</time>
      </trkpt>
      <trkpt lat="47.24076" lon="-1.46734">
        <ele>52</ele>
        <time>2021-05-19T16:56:28.000Z</time>
      </trkpt>
      <trkpt lat="47.24065" lon="-1.46744">
        <ele>52</ele>
        <time>2021-05-19T16:56:30.000Z</time>
      </trkpt>
      <trkpt lat="47.24053" lon="-1.46752">
        <ele>52</ele>
        <time>2021-05-19T16:56:32.000Z</time>
      </trkpt>
      <trkpt lat="47.24043" lon="-1.46762">
        <ele>52</ele>
        <time>2021-05-19T16:56:34.000Z</time>
      </trkpt>
      <trkpt lat="47.24033" lon="-1.46774">
        <ele>52</ele>
        <time>2021-05-19T16:56:36.000Z</time>
      </trkpt>
      <trkpt lat="47.24024" lon="-1.46785">
        <ele>51</ele>
        <time>2021-05-19T16:56:38.000Z</time>
      </trkpt>
      <trkpt lat="47.24009" lon="-1.46803">
        <ele>51</ele>
        <time>2021-05-19T16:56:41.000Z</time>
      </trkpt>
      <trkpt lat="47.23999" lon="-1.46814">
        <ele>51</ele>
        <time>2021-05-19T16:56:43.000Z</time>
      </trkpt>
      <trkpt lat="47.23988" lon="-1.46824">
        <ele>51</ele>
        <time>2021-05-19T16:56:45.000Z</time>
      </trkpt>
      <trkpt lat="47.23978" lon="-1.46835">
        <ele>51</ele>
        <time>2021-05-19T16:56:47.000Z</time>
      </trkpt>
      <trkpt lat="47.23966" lon="-1.46846">
        <ele>51</ele>
        <time>2021-05-19T16:56:49.000Z</time>
      </trkpt>
      <trkpt lat="47.23955" lon="-1.46857">
        <ele>51</ele>
        <time>2021-05-19T16:56:51.000Z</time>
      </trkpt>
      <trkpt lat="47.23945" lon="-1.46867">
        <ele>51</ele>
        <time>2021-05-19T16:56:53.000Z</time>
      </trkpt>
      <trkpt lat="47.23934" lon="-1.46876">
        <ele>51</ele>
        <time>2021-05-19T16:56:55.000Z</time>
      </trkpt>
      <trkpt lat="47.23924" lon="-1.46887">
        <ele>51</ele>
        <time>2021-05-19T16:56:57.000Z</time>
      </trkpt>
      <trkpt lat="47.23914" lon="-1.46897">
        <ele>50</ele>
        <time>2021-05-19T16:56:59.000Z</time>
      </trkpt>
      <trkpt lat="47.23905" lon="-1.46909">
        <ele>50</ele>
        <time>2021-05-19T16:57:01.000Z</time>
      </trkpt>
      <trkpt lat="47.23896" lon="-1.46921">
        <ele>50</ele>
        <time>2021-05-19T16:57:03.000Z</time>
      </trkpt>
      <trkpt lat="47.23887" lon="-1.46933">
        <ele>50</ele>
        <time>2021-05-19T16:57:05.000Z</time>
      </trkpt>
      <trkpt lat="47.23878" lon="-1.46945">
        <ele>50</ele>
        <time>2021-05-19T16:57:07.000Z</time>
      </trkpt>
      <trkpt lat="47.23869" lon="-1.46958">
        <ele>50</ele>
        <time>2021-05-19T16:57:09.000Z</time>
      </trkpt>
      <trkpt lat="47.2386" lon="-1.46971">
        <ele>50</ele>
        <time>2021-05-19T16:57:11.000Z</time>
      </trkpt>
      <trkpt lat="47.2385" lon="-1.46983">
        <ele>50</ele>
        <time>2021-05-19T16:57:13.000Z</time>
      </trkpt>
      <trkpt lat="47.23841" lon="-1.46996">
        <ele>50</ele>
        <time>2021-05-19T16:57:15.000Z</time>
      </trkpt>
      <trkpt lat="47.23832" lon="-1.47009">
        <ele>50</ele>
        <time>2021-05-19T16:57:17.000Z</time>
      </trkpt>
      <trkpt lat="47.23822" lon="-1.47022">
        <ele>50</ele>
        <time>2021-05-19T16:57:19.000Z</time>
      </trkpt>
      <trkpt lat="47.23814" lon="-1.47034">
        <ele>50</ele>
        <time>2021-05-19T16:57:21.000Z</time>
      </trkpt>
      <trkpt lat="47.23805" lon="-1.47047">
        <ele>51</ele>
        <time>2021-05-19T16:57:23.000Z</time>
      </trkpt>
      <trkpt lat="47.23797" lon="-1.4706">
        <ele>51</ele>
        <time>2021-05-19T16:57:25.000Z</time>
      </trkpt>
      <trkpt lat="47.23788" lon="-1.47072">
        <ele>51</ele>
        <time>2021-05-19T16:57:27.000Z</time>
      </trkpt>
      <trkpt lat="47.2378" lon="-1.47084">
        <ele>51</ele>
        <time>2021-05-19T16:57:29.000Z</time>
      </trkpt>
      <trkpt lat="47.23771" lon="-1.47096">
        <ele>51</ele>
        <time>2021-05-19T16:57:31.000Z</time>
      </trkpt>
      <trkpt lat="47.23762" lon="-1.47108">
        <ele>51</ele>
        <time>2021-05-19T16:57:33.000Z</time>
      </trkpt>
      <trkpt lat="47.23754" lon="-1.4712">
        <ele>51</ele>
        <time>2021-05-19T16:57:35.000Z</time>
      </trkpt>
      <trkpt lat="47.23745" lon="-1.4713">
        <ele>51</ele>
        <time>2021-05-19T16:57:37.000Z</time>
      </trkpt>
      <trkpt lat="47.23735" lon="-1.47141">
        <ele>50</ele>
        <time>2021-05-19T16:57:39.000Z</time>
      </trkpt>
      <trkpt lat="47.23725" lon="-1.47153">
        <ele>50</ele>
        <time>2021-05-19T16:57:41.000Z</time>
      </trkpt>
      <trkpt lat="47.23716" lon="-1.47165">
        <ele>50</ele>
        <time>2021-05-19T16:57:43.000Z</time>
      </trkpt>
      <trkpt lat="47.23708" lon="-1.47178">
        <ele>50</ele>
        <time>2021-05-19T16:57:45.000Z</time>
      </trkpt>
      <trkpt lat="47.23699" lon="-1.4719">
        <ele>51</ele>
        <time>2021-05-19T16:57:47.000Z</time>
      </trkpt>
      <trkpt lat="47.23691" lon="-1.47202">
        <ele>51</ele>
        <time>2021-05-19T16:57:49.000Z</time>
      </trkpt>
      <trkpt lat="47.23683" lon="-1.47215">
        <ele>50</ele>
        <time>2021-05-19T16:57:51.000Z</time>
      </trkpt>
      <trkpt lat="47.23674" lon="-1.47227">
        <ele>50</ele>
        <time>2021-05-19T16:57:53.000Z</time>
      </trkpt>
      <trkpt lat="47.23659" lon="-1.47244">
        <ele>51</ele>
        <time>2021-05-19T16:57:56.000Z</time>
      </trkpt>
      <trkpt lat="47.23649" lon="-1.47255">
        <ele>50</ele>
        <time>2021-05-19T16:57:58.000Z</time>
      </trkpt>
      <trkpt lat="47.2364" lon="-1.47266">
        <ele>50</ele>
        <time>2021-05-19T16:58:00.000Z</time>
      </trkpt>
      <trkpt lat="47.23631" lon="-1.47276">
        <ele>50</ele>
        <time>2021-05-19T16:58:02.000Z</time>
      </trkpt>
      <trkpt lat="47.23622" lon="-1.47287">
        <ele>50</ele>
        <time>2021-05-19T16:58:04.000Z</time>
      </trkpt>
      <trkpt lat="47.23613" lon="-1.47297">
        <ele>51</ele>
        <time>2021-05-19T16:58:06.000Z</time>
      </trkpt>
      <trkpt lat="47.23603" lon="-1.47307">
        <ele>50</ele>
        <time>2021-05-19T16:58:08.000Z</time>
      </trkpt>
      <trkpt lat="47.23593" lon="-1.47317">
        <ele>50</ele>
        <time>2021-05-19T16:58:10.000Z</time>
      </trkpt>
      <trkpt lat="47.23583" lon="-1.47326">
        <ele>51</ele>
        <time>2021-05-19T16:58:12.000Z</time>
      </trkpt>
      <trkpt lat="47.23573" lon="-1.47335">
        <ele>50</ele>
        <time>2021-05-19T16:58:14.000Z</time>
      </trkpt>
      <trkpt lat="47.23562" lon="-1.47344">
        <ele>51</ele>
        <time>2021-05-19T16:58:16.000Z</time>
      </trkpt>
      <trkpt lat="47.23552" lon="-1.47353">
        <ele>51</ele>
        <time>2021-05-19T16:58:18.000Z</time>
      </trkpt>
      <trkpt lat="47.23541" lon="-1.47361">
        <ele>51</ele>
        <time>2021-05-19T16:58:20.000Z</time>
      </trkpt>
      <trkpt lat="47.23531" lon="-1.4737">
        <ele>50</ele>
        <time>2021-05-19T16:58:22.000Z</time>
      </trkpt>
      <trkpt lat="47.23515" lon="-1.47383">
        <ele>50</ele>
        <time>2021-05-19T16:58:25.000Z</time>
      </trkpt>
      <trkpt lat="47.23505" lon="-1.47392">
        <ele>50</ele>
        <time>2021-05-19T16:58:27.000Z</time>
      </trkpt>
      <trkpt lat="47.23494" lon="-1.474">
        <ele>50</ele>
        <time>2021-05-19T16:58:29.000Z</time>
      </trkpt>
      <trkpt lat="47.23482" lon="-1.47406">
        <ele>50</ele>
        <time>2021-05-19T16:58:31.000Z</time>
      </trkpt>
      <trkpt lat="47.2347" lon="-1.47411">
        <ele>50</ele>
        <time>2021-05-19T16:58:33.000Z</time>
      </trkpt>
      <trkpt lat="47.23458" lon="-1.47416">
        <ele>50</ele>
        <time>2021-05-19T16:58:35.000Z</time>
      </trkpt>
      <trkpt lat="47.23446" lon="-1.47422">
        <ele>51</ele>
        <time>2021-05-19T16:58:37.000Z</time>
      </trkpt>
      <trkpt lat="47.23435" lon="-1.47426">
        <ele>51</ele>
        <time>2021-05-19T16:58:39.000Z</time>
      </trkpt>
      <trkpt lat="47.23425" lon="-1.47429">
        <ele>50</ele>
        <time>2021-05-19T16:58:41.000Z</time>
      </trkpt>
      <trkpt lat="47.23414" lon="-1.47437">
        <ele>50</ele>
        <time>2021-05-19T16:58:43.000Z</time>
      </trkpt>
      <trkpt lat="47.23403" lon="-1.47447">
        <ele>50</ele>
        <time>2021-05-19T16:58:45.000Z</time>
      </trkpt>
      <trkpt lat="47.23391" lon="-1.47455">
        <ele>50</ele>
        <time>2021-05-19T16:58:47.000Z</time>
      </trkpt>
      <trkpt lat="47.23379" lon="-1.47462">
        <ele>50</ele>
        <time>2021-05-19T16:58:49.000Z</time>
      </trkpt>
      <trkpt lat="47.23367" lon="-1.47468">
        <ele>50</ele>
        <time>2021-05-19T16:58:51.000Z</time>
      </trkpt>
      <trkpt lat="47.23355" lon="-1.47473">
        <ele>50</ele>
        <time>2021-05-19T16:58:53.000Z</time>
      </trkpt>
      <trkpt lat="47.23342" lon="-1.47478">
        <ele>51</ele>
        <time>2021-05-19T16:58:55.000Z</time>
      </trkpt>
      <trkpt lat="47.2333" lon="-1.47485">
        <ele>51</ele>
        <time>2021-05-19T16:58:57.000Z</time>
      </trkpt>
      <trkpt lat="47.2332" lon="-1.47496">
        <ele>51</ele>
        <time>2021-05-19T16:58:59.000Z</time>
      </trkpt>
      <trkpt lat="47.2331" lon="-1.47505">
        <ele>52</ele>
        <time>2021-05-19T16:59:01.000Z</time>
      </trkpt>
      <trkpt lat="47.23298" lon="-1.4751">
        <ele>51</ele>
        <time>2021-05-19T16:59:03.000Z</time>
      </trkpt>
      <trkpt lat="47.23286" lon="-1.47516">
        <ele>51</ele>
        <time>2021-05-19T16:59:05.000Z</time>
      </trkpt>
      <trkpt lat="47.23275" lon="-1.47523">
        <ele>51</ele>
        <time>2021-05-19T16:59:07.000Z</time>
      </trkpt>
      <trkpt lat="47.23265" lon="-1.47531">
        <ele>52</ele>
        <time>2021-05-19T16:59:09.000Z</time>
      </trkpt>
      <trkpt lat="47.23258" lon="-1.47544">
        <ele>51</ele>
        <time>2021-05-19T16:59:11.000Z</time>
      </trkpt>
      <trkpt lat="47.2325" lon="-1.47557">
        <ele>51</ele>
        <time>2021-05-19T16:59:13.000Z</time>
      </trkpt>
      <trkpt lat="47.23243" lon="-1.47571">
        <ele>51</ele>
        <time>2021-05-19T16:59:15.000Z</time>
      </trkpt>
      <trkpt lat="47.23235" lon="-1.47584">
        <ele>52</ele>
        <time>2021-05-19T16:59:17.000Z</time>
      </trkpt>
      <trkpt lat="47.23227" lon="-1.47596">
        <ele>52</ele>
        <time>2021-05-19T16:59:19.000Z</time>
      </trkpt>
      <trkpt lat="47.23221" lon="-1.47609">
        <ele>51</ele>
        <time>2021-05-19T16:59:21.000Z</time>
      </trkpt>
      <trkpt lat="47.23214" lon="-1.47624">
        <ele>51</ele>
        <time>2021-05-19T16:59:23.000Z</time>
      </trkpt>
      <trkpt lat="47.23208" lon="-1.47639">
        <ele>51</ele>
        <time>2021-05-19T16:59:25.000Z</time>
      </trkpt>
      <trkpt lat="47.23202" lon="-1.47653">
        <ele>51</ele>
        <time>2021-05-19T16:59:27.000Z</time>
      </trkpt>
      <trkpt lat="47.23198" lon="-1.47667">
        <ele>51</ele>
        <time>2021-05-19T16:59:29.000Z</time>
      </trkpt>
      <trkpt lat="47.23194" lon="-1.4768">
        <ele>51</ele>
        <time>2021-05-19T16:59:31.000Z</time>
      </trkpt>
      <trkpt lat="47.23187" lon="-1.47695">
        <ele>52</ele>
        <time>2021-05-19T16:59:33.000Z</time>
      </trkpt>
      <trkpt lat="47.2318" lon="-1.47709">
        <ele>53</ele>
        <time>2021-05-19T16:59:35.000Z</time>
      </trkpt>
      <trkpt lat="47.23174" lon="-1.47725">
        <ele>54</ele>
        <time>2021-05-19T16:59:37.000Z</time>
      </trkpt>
      <trkpt lat="47.23167" lon="-1.47742">
        <ele>53</ele>
        <time>2021-05-19T16:59:39.000Z</time>
      </trkpt>
      <trkpt lat="47.2316" lon="-1.47758">
        <ele>53</ele>
        <time>2021-05-19T16:59:41.000Z</time>
      </trkpt>
      <trkpt lat="47.23155" lon="-1.47774">
        <ele>54</ele>
        <time>2021-05-19T16:59:43.000Z</time>
      </trkpt>
      <trkpt lat="47.23149" lon="-1.47789">
        <ele>54</ele>
        <time>2021-05-19T16:59:45.000Z</time>
      </trkpt>
      <trkpt lat="47.23144" lon="-1.47804">
        <ele>54</ele>
        <time>2021-05-19T16:59:47.000Z</time>
      </trkpt>
      <trkpt lat="47.23138" lon="-1.47819">
        <ele>54</ele>
        <time>2021-05-19T16:59:49.000Z</time>
      </trkpt>
      <trkpt lat="47.23131" lon="-1.47833">
        <ele>54</ele>
        <time>2021-05-19T16:59:51.000Z</time>
      </trkpt>
      <trkpt lat="47.23124" lon="-1.47848">
        <ele>54</ele>
        <time>2021-05-19T16:59:53.000Z</time>
      </trkpt>
      <trkpt lat="47.23116" lon="-1.47862">
        <ele>55</ele>
        <time>2021-05-19T16:59:55.000Z</time>
      </trkpt>
      <trkpt lat="47.23108" lon="-1.47875">
        <ele>54</ele>
        <time>2021-05-19T16:59:57.000Z</time>
      </trkpt>
      <trkpt lat="47.231" lon="-1.47887">
        <ele>54</ele>
        <time>2021-05-19T16:59:59.000Z</time>
      </trkpt>
      <trkpt lat="47.23091" lon="-1.47899">
        <ele>54</ele>
        <time>2021-05-19T17:00:01.000Z</time>
      </trkpt>
      <trkpt lat="47.23082" lon="-1.47911">
        <ele>54</ele>
        <time>2021-05-19T17:00:03.000Z</time>
      </trkpt>
      <trkpt lat="47.23074" lon="-1.47923">
        <ele>54</ele>
        <time>2021-05-19T17:00:05.000Z</time>
      </trkpt>
      <trkpt lat="47.23065" lon="-1.47934">
        <ele>55</ele>
        <time>2021-05-19T17:00:07.000Z</time>
      </trkpt>
      <trkpt lat="47.23056" lon="-1.47946">
        <ele>55</ele>
        <time>2021-05-19T17:00:09.000Z</time>
      </trkpt>
      <trkpt lat="47.23047" lon="-1.47957">
        <ele>55</ele>
        <time>2021-05-19T17:00:11.000Z</time>
      </trkpt>
      <trkpt lat="47.23039" lon="-1.47968">
        <ele>55</ele>
        <time>2021-05-19T17:00:13.000Z</time>
      </trkpt>
      <trkpt lat="47.2303" lon="-1.47979">
        <ele>55</ele>
        <time>2021-05-19T17:00:15.000Z</time>
      </trkpt>
      <trkpt lat="47.23022" lon="-1.47991">
        <ele>55</ele>
        <time>2021-05-19T17:00:17.000Z</time>
      </trkpt>
      <trkpt lat="47.23014" lon="-1.48004">
        <ele>55</ele>
        <time>2021-05-19T17:00:19.000Z</time>
      </trkpt>
      <trkpt lat="47.23006" lon="-1.48016">
        <ele>55</ele>
        <time>2021-05-19T17:00:21.000Z</time>
      </trkpt>
      <trkpt lat="47.22999" lon="-1.48029">
        <ele>55</ele>
        <time>2021-05-19T17:00:23.000Z</time>
      </trkpt>
      <trkpt lat="47.22991" lon="-1.48043">
        <ele>55</ele>
        <time>2021-05-19T17:00:25.000Z</time>
      </trkpt>
      <trkpt lat="47.22982" lon="-1.48057">
        <ele>55</ele>
        <time>2021-05-19T17:00:27.000Z</time>
      </trkpt>
      <trkpt lat="47.22975" lon="-1.4807">
        <ele>55</ele>
        <time>2021-05-19T17:00:29.000Z</time>
      </trkpt>
      <trkpt lat="47.22967" lon="-1.48082">
        <ele>54</ele>
        <time>2021-05-19T17:00:31.000Z</time>
      </trkpt>
      <trkpt lat="47.2296" lon="-1.48093">
        <ele>54</ele>
        <time>2021-05-19T17:00:33.000Z</time>
      </trkpt>
      <trkpt lat="47.22953" lon="-1.48105">
        <ele>54</ele>
        <time>2021-05-19T17:00:35.000Z</time>
      </trkpt>
      <trkpt lat="47.22942" lon="-1.48111">
        <ele>53</ele>
        <time>2021-05-19T17:00:37.000Z</time>
      </trkpt>
      <trkpt lat="47.2293" lon="-1.48113">
        <ele>53</ele>
        <time>2021-05-19T17:00:39.000Z</time>
      </trkpt>
      <trkpt lat="47.22917" lon="-1.48116">
        <ele>52</ele>
        <time>2021-05-19T17:00:41.000Z</time>
      </trkpt>
      <trkpt lat="47.22905" lon="-1.48125">
        <ele>52</ele>
        <time>2021-05-19T17:00:43.000Z</time>
      </trkpt>
      <trkpt lat="47.22895" lon="-1.48138">
        <ele>52</ele>
        <time>2021-05-19T17:00:45.000Z</time>
      </trkpt>
      <trkpt lat="47.22885" lon="-1.48152">
        <ele>53</ele>
        <time>2021-05-19T17:00:47.000Z</time>
      </trkpt>
      <trkpt lat="47.22877" lon="-1.48167">
        <ele>53</ele>
        <time>2021-05-19T17:00:49.000Z</time>
      </trkpt>
      <trkpt lat="47.22868" lon="-1.4818">
        <ele>53</ele>
        <time>2021-05-19T17:00:51.000Z</time>
      </trkpt>
      <trkpt lat="47.22859" lon="-1.48194">
        <ele>53</ele>
        <time>2021-05-19T17:00:53.000Z</time>
      </trkpt>
      <trkpt lat="47.2285" lon="-1.48208">
        <ele>53</ele>
        <time>2021-05-19T17:00:55.000Z</time>
      </trkpt>
      <trkpt lat="47.2284" lon="-1.48223">
        <ele>52</ele>
        <time>2021-05-19T17:00:57.000Z</time>
      </trkpt>
      <trkpt lat="47.22831" lon="-1.48238">
        <ele>53</ele>
        <time>2021-05-19T17:00:59.000Z</time>
      </trkpt>
      <trkpt lat="47.22821" lon="-1.48252">
        <ele>53</ele>
        <time>2021-05-19T17:01:01.000Z</time>
      </trkpt>
      <trkpt lat="47.22811" lon="-1.48267">
        <ele>53</ele>
        <time>2021-05-19T17:01:03.000Z</time>
      </trkpt>
      <trkpt lat="47.22802" lon="-1.48282">
        <ele>53</ele>
        <time>2021-05-19T17:01:05.000Z</time>
      </trkpt>
      <trkpt lat="47.22793" lon="-1.48297">
        <ele>53</ele>
        <time>2021-05-19T17:01:07.000Z</time>
      </trkpt>
      <trkpt lat="47.22784" lon="-1.48313">
        <ele>53</ele>
        <time>2021-05-19T17:01:09.000Z</time>
      </trkpt>
      <trkpt lat="47.22774" lon="-1.48328">
        <ele>53</ele>
        <time>2021-05-19T17:01:11.000Z</time>
      </trkpt>
      <trkpt lat="47.22764" lon="-1.48341">
        <ele>54</ele>
        <time>2021-05-19T17:01:13.000Z</time>
      </trkpt>
      <trkpt lat="47.22754" lon="-1.48354">
        <ele>54</ele>
        <time>2021-05-19T17:01:15.000Z</time>
      </trkpt>
      <trkpt lat="47.22745" lon="-1.48368">
        <ele>54</ele>
        <time>2021-05-19T17:01:17.000Z</time>
      </trkpt>
      <trkpt lat="47.22735" lon="-1.48381">
        <ele>54</ele>
        <time>2021-05-19T17:01:19.000Z</time>
      </trkpt>
      <trkpt lat="47.22725" lon="-1.48394">
        <ele>54</ele>
        <time>2021-05-19T17:01:21.000Z</time>
      </trkpt>
      <trkpt lat="47.22715" lon="-1.48406">
        <ele>53</ele>
        <time>2021-05-19T17:01:23.000Z</time>
      </trkpt>
      <trkpt lat="47.22706" lon="-1.48421">
        <ele>53</ele>
        <time>2021-05-19T17:01:25.000Z</time>
      </trkpt>
      <trkpt lat="47.22701" lon="-1.48437">
        <ele>53</ele>
        <time>2021-05-19T17:01:27.000Z</time>
      </trkpt>
      <trkpt lat="47.22695" lon="-1.48455">
        <ele>53</ele>
        <time>2021-05-19T17:01:29.000Z</time>
      </trkpt>
      <trkpt lat="47.22689" lon="-1.48471">
        <ele>53</ele>
        <time>2021-05-19T17:01:31.000Z</time>
      </trkpt>
      <trkpt lat="47.22681" lon="-1.48487">
        <ele>54</ele>
        <time>2021-05-19T17:01:33.000Z</time>
      </trkpt>
      <trkpt lat="47.22674" lon="-1.48504">
        <ele>54</ele>
        <time>2021-05-19T17:01:35.000Z</time>
      </trkpt>
      <trkpt lat="47.22668" lon="-1.48521">
        <ele>54</ele>
        <time>2021-05-19T17:01:37.000Z</time>
      </trkpt>
      <trkpt lat="47.22664" lon="-1.48538">
        <ele>54</ele>
        <time>2021-05-19T17:01:39.000Z</time>
      </trkpt>
      <trkpt lat="47.22659" lon="-1.48557">
        <ele>54</ele>
        <time>2021-05-19T17:01:41.000Z</time>
      </trkpt>
      <trkpt lat="47.22653" lon="-1.48574">
        <ele>54</ele>
        <time>2021-05-19T17:01:43.000Z</time>
      </trkpt>
      <trkpt lat="47.22646" lon="-1.4859">
        <ele>54</ele>
        <time>2021-05-19T17:01:45.000Z</time>
      </trkpt>
      <trkpt lat="47.2264" lon="-1.48605">
        <ele>54</ele>
        <time>2021-05-19T17:01:47.000Z</time>
      </trkpt>
      <trkpt lat="47.22635" lon="-1.4862">
        <ele>54</ele>
        <time>2021-05-19T17:01:49.000Z</time>
      </trkpt>
      <trkpt lat="47.22629" lon="-1.48638">
        <ele>54</ele>
        <time>2021-05-19T17:01:51.000Z</time>
      </trkpt>
      <trkpt lat="47.22622" lon="-1.48655">
        <ele>53</ele>
        <time>2021-05-19T17:01:53.000Z</time>
      </trkpt>
      <trkpt lat="47.22616" lon="-1.48672">
        <ele>52</ele>
        <time>2021-05-19T17:01:55.000Z</time>
      </trkpt>
      <trkpt lat="47.22611" lon="-1.48689">
        <ele>52</ele>
        <time>2021-05-19T17:01:57.000Z</time>
      </trkpt>
      <trkpt lat="47.22605" lon="-1.48706">
        <ele>52</ele>
        <time>2021-05-19T17:01:59.000Z</time>
      </trkpt>
      <trkpt lat="47.22601" lon="-1.48723">
        <ele>52</ele>
        <time>2021-05-19T17:02:01.000Z</time>
      </trkpt>
      <trkpt lat="47.22597" lon="-1.4874">
        <ele>53</ele>
        <time>2021-05-19T17:02:03.000Z</time>
      </trkpt>
      <trkpt lat="47.22592" lon="-1.48758">
        <ele>54</ele>
        <time>2021-05-19T17:02:05.000Z</time>
      </trkpt>
      <trkpt lat="47.22588" lon="-1.48774">
        <ele>54</ele>
        <time>2021-05-19T17:02:07.000Z</time>
      </trkpt>
      <trkpt lat="47.22584" lon="-1.4879">
        <ele>54</ele>
        <time>2021-05-19T17:02:09.000Z</time>
      </trkpt>
      <trkpt lat="47.22579" lon="-1.48806">
        <ele>54</ele>
        <time>2021-05-19T17:02:11.000Z</time>
      </trkpt>
      <trkpt lat="47.22572" lon="-1.48822">
        <ele>54</ele>
        <time>2021-05-19T17:02:13.000Z</time>
      </trkpt>
      <trkpt lat="47.22567" lon="-1.48839">
        <ele>54</ele>
        <time>2021-05-19T17:02:15.000Z</time>
      </trkpt>
      <trkpt lat="47.22562" lon="-1.48854">
        <ele>54</ele>
        <time>2021-05-19T17:02:17.000Z</time>
      </trkpt>
      <trkpt lat="47.22558" lon="-1.4887">
        <ele>54</ele>
        <time>2021-05-19T17:02:19.000Z</time>
      </trkpt>
      <trkpt lat="47.22555" lon="-1.48887">
        <ele>55</ele>
        <time>2021-05-19T17:02:21.000Z</time>
      </trkpt>
      <trkpt lat="47.2255" lon="-1.48902">
        <ele>55</ele>
        <time>2021-05-19T17:02:23.000Z</time>
      </trkpt>
      <trkpt lat="47.22545" lon="-1.48919">
        <ele>55</ele>
        <time>2021-05-19T17:02:25.000Z</time>
      </trkpt>
      <trkpt lat="47.2254" lon="-1.48936">
        <ele>55</ele>
        <time>2021-05-19T17:02:27.000Z</time>
      </trkpt>
      <trkpt lat="47.22535" lon="-1.48953">
        <ele>55</ele>
        <time>2021-05-19T17:02:29.000Z</time>
      </trkpt>
      <trkpt lat="47.22529" lon="-1.48969">
        <ele>55</ele>
        <time>2021-05-19T17:02:31.000Z</time>
      </trkpt>
      <trkpt lat="47.22525" lon="-1.48986">
        <ele>56</ele>
        <time>2021-05-19T17:02:33.000Z</time>
      </trkpt>
      <trkpt lat="47.2252" lon="-1.49004">
        <ele>57</ele>
        <time>2021-05-19T17:02:35.000Z</time>
      </trkpt>
      <trkpt lat="47.22516" lon="-1.49021">
        <ele>57</ele>
        <time>2021-05-19T17:02:37.000Z</time>
      </trkpt>
      <trkpt lat="47.22511" lon="-1.49037">
        <ele>56</ele>
        <time>2021-05-19T17:02:39.000Z</time>
      </trkpt>
      <trkpt lat="47.22509" lon="-1.49053">
        <ele>56</ele>
        <time>2021-05-19T17:02:41.000Z</time>
      </trkpt>
      <trkpt lat="47.22505" lon="-1.49066">
        <ele>56</ele>
        <time>2021-05-19T17:02:43.000Z</time>
      </trkpt>
      <trkpt lat="47.22502" lon="-1.4908">
        <ele>56</ele>
        <time>2021-05-19T17:02:45.000Z</time>
      </trkpt>
      <trkpt lat="47.22499" lon="-1.49096">
        <ele>55</ele>
        <time>2021-05-19T17:02:47.000Z</time>
      </trkpt>
      <trkpt lat="47.22494" lon="-1.49112">
        <ele>54</ele>
        <time>2021-05-19T17:02:49.000Z</time>
      </trkpt>
      <trkpt lat="47.22492" lon="-1.49127">
        <ele>54</ele>
        <time>2021-05-19T17:02:51.000Z</time>
      </trkpt>
      <trkpt lat="47.22487" lon="-1.49144">
        <ele>52</ele>
        <time>2021-05-19T17:02:53.000Z</time>
      </trkpt>
      <trkpt lat="47.22479" lon="-1.49161">
        <ele>51</ele>
        <time>2021-05-19T17:02:55.000Z</time>
      </trkpt>
      <trkpt lat="47.22471" lon="-1.4918">
        <ele>49</ele>
        <time>2021-05-19T17:02:57.000Z</time>
      </trkpt>
      <trkpt lat="47.22465" lon="-1.49199">
        <ele>48</ele>
        <time>2021-05-19T17:02:59.000Z</time>
      </trkpt>
      <trkpt lat="47.22457" lon="-1.49217">
        <ele>48</ele>
        <time>2021-05-19T17:03:01.000Z</time>
      </trkpt>
      <trkpt lat="47.22446" lon="-1.49244">
        <ele>48</ele>
        <time>2021-05-19T17:03:04.000Z</time>
      </trkpt>
      <trkpt lat="47.22437" lon="-1.49262">
        <ele>48</ele>
        <time>2021-05-19T17:03:06.000Z</time>
      </trkpt>
      <trkpt lat="47.22427" lon="-1.49279">
        <ele>48</ele>
        <time>2021-05-19T17:03:08.000Z</time>
      </trkpt>
      <trkpt lat="47.22419" lon="-1.49299">
        <ele>50</ele>
        <time>2021-05-19T17:03:10.000Z</time>
      </trkpt>
      <trkpt lat="47.22408" lon="-1.49325">
        <ele>51</ele>
        <time>2021-05-19T17:03:13.000Z</time>
      </trkpt>
      <trkpt lat="47.22402" lon="-1.49344">
        <ele>51</ele>
        <time>2021-05-19T17:03:15.000Z</time>
      </trkpt>
      <trkpt lat="47.22396" lon="-1.4936">
        <ele>51</ele>
        <time>2021-05-19T17:03:17.000Z</time>
      </trkpt>
      <trkpt lat="47.22388" lon="-1.49375">
        <ele>51</ele>
        <time>2021-05-19T17:03:19.000Z</time>
      </trkpt>
      <trkpt lat="47.22382" lon="-1.4939">
        <ele>51</ele>
        <time>2021-05-19T17:03:21.000Z</time>
      </trkpt>
      <trkpt lat="47.22373" lon="-1.49412">
        <ele>52</ele>
        <time>2021-05-19T17:03:24.000Z</time>
      </trkpt>
      <trkpt lat="47.22366" lon="-1.49428">
        <ele>53</ele>
        <time>2021-05-19T17:03:26.000Z</time>
      </trkpt>
      <trkpt lat="47.22358" lon="-1.49442">
        <ele>53</ele>
        <time>2021-05-19T17:03:28.000Z</time>
      </trkpt>
      <trkpt lat="47.22353" lon="-1.49457">
        <ele>53</ele>
        <time>2021-05-19T17:03:30.000Z</time>
      </trkpt>
      <trkpt lat="47.22347" lon="-1.49474">
        <ele>54</ele>
        <time>2021-05-19T17:03:32.000Z</time>
      </trkpt>
      <trkpt lat="47.22343" lon="-1.49501">
        <ele>53</ele>
        <time>2021-05-19T17:03:35.000Z</time>
      </trkpt>
      <trkpt lat="47.22339" lon="-1.49516">
        <ele>53</ele>
        <time>2021-05-19T17:03:37.000Z</time>
      </trkpt>
      <trkpt lat="47.22332" lon="-1.49534">
        <ele>53</ele>
        <time>2021-05-19T17:03:39.000Z</time>
      </trkpt>
      <trkpt lat="47.22325" lon="-1.49549">
        <ele>53</ele>
        <time>2021-05-19T17:03:41.000Z</time>
      </trkpt>
      <trkpt lat="47.22319" lon="-1.49567">
        <ele>53</ele>
        <time>2021-05-19T17:03:43.000Z</time>
      </trkpt>
      <trkpt lat="47.22313" lon="-1.49583">
        <ele>53</ele>
        <time>2021-05-19T17:03:45.000Z</time>
      </trkpt>
      <trkpt lat="47.22306" lon="-1.49601">
        <ele>53</ele>
        <time>2021-05-19T17:03:47.000Z</time>
      </trkpt>
      <trkpt lat="47.22301" lon="-1.49618">
        <ele>52</ele>
        <time>2021-05-19T17:03:49.000Z</time>
      </trkpt>
      <trkpt lat="47.22296" lon="-1.49637">
        <ele>52</ele>
        <time>2021-05-19T17:03:51.000Z</time>
      </trkpt>
      <trkpt lat="47.2229" lon="-1.49658">
        <ele>54</ele>
        <time>2021-05-19T17:03:53.000Z</time>
      </trkpt>
      <trkpt lat="47.22285" lon="-1.49677">
        <ele>54</ele>
        <time>2021-05-19T17:03:55.000Z</time>
      </trkpt>
      <trkpt lat="47.22279" lon="-1.49693">
        <ele>54</ele>
        <time>2021-05-19T17:03:57.000Z</time>
      </trkpt>
      <trkpt lat="47.22273" lon="-1.49709">
        <ele>54</ele>
        <time>2021-05-19T17:03:59.000Z</time>
      </trkpt>
      <trkpt lat="47.22268" lon="-1.49723">
        <ele>52</ele>
        <time>2021-05-19T17:04:01.000Z</time>
      </trkpt>
      <trkpt lat="47.22262" lon="-1.49742">
        <ele>51</ele>
        <time>2021-05-19T17:04:03.000Z</time>
      </trkpt>
      <trkpt lat="47.22258" lon="-1.49762">
        <ele>51</ele>
        <time>2021-05-19T17:04:05.000Z</time>
      </trkpt>
      <trkpt lat="47.22254" lon="-1.49782">
        <ele>49</ele>
        <time>2021-05-19T17:04:07.000Z</time>
      </trkpt>
      <trkpt lat="47.2225" lon="-1.49799">
        <ele>49</ele>
        <time>2021-05-19T17:04:09.000Z</time>
      </trkpt>
      <trkpt lat="47.22247" lon="-1.49819">
        <ele>49</ele>
        <time>2021-05-19T17:04:11.000Z</time>
      </trkpt>
      <trkpt lat="47.22243" lon="-1.49838">
        <ele>51</ele>
        <time>2021-05-19T17:04:13.000Z</time>
      </trkpt>
      <trkpt lat="47.22238" lon="-1.49857">
        <ele>49</ele>
        <time>2021-05-19T17:04:15.000Z</time>
      </trkpt>
      <trkpt lat="47.22232" lon="-1.49886">
        <ele>49</ele>
        <time>2021-05-19T17:04:18.000Z</time>
      </trkpt>
      <trkpt lat="47.22223" lon="-1.49907">
        <ele>46</ele>
        <time>2021-05-19T17:04:20.000Z</time>
      </trkpt>
      <trkpt lat="47.22219" lon="-1.49925">
        <ele>47</ele>
        <time>2021-05-19T17:04:22.000Z</time>
      </trkpt>
      <trkpt lat="47.22217" lon="-1.49943">
        <ele>48</ele>
        <time>2021-05-19T17:04:24.000Z</time>
      </trkpt>
      <trkpt lat="47.22215" lon="-1.49959">
        <ele>48</ele>
        <time>2021-05-19T17:04:26.000Z</time>
      </trkpt>
      <trkpt lat="47.22211" lon="-1.49975">
        <ele>48</ele>
        <time>2021-05-19T17:04:28.000Z</time>
      </trkpt>
      <trkpt lat="47.22206" lon="-1.4999">
        <ele>49</ele>
        <time>2021-05-19T17:04:30.000Z</time>
      </trkpt>
      <trkpt lat="47.22201" lon="-1.50005">
        <ele>49</ele>
        <time>2021-05-19T17:04:32.000Z</time>
      </trkpt>
      <trkpt lat="47.22194" lon="-1.5003">
        <ele>50</ele>
        <time>2021-05-19T17:04:35.000Z</time>
      </trkpt>
      <trkpt lat="47.22189" lon="-1.5005">
        <ele>49</ele>
        <time>2021-05-19T17:04:37.000Z</time>
      </trkpt>
      <trkpt lat="47.22185" lon="-1.50064">
        <ele>46</ele>
        <time>2021-05-19T17:04:39.000Z</time>
      </trkpt>
      <trkpt lat="47.22181" lon="-1.5008">
        <ele>48</ele>
        <time>2021-05-19T17:04:41.000Z</time>
      </trkpt>
      <trkpt lat="47.22174" lon="-1.50104">
        <ele>48</ele>
        <time>2021-05-19T17:04:44.000Z</time>
      </trkpt>
      <trkpt lat="47.2217" lon="-1.50121">
        <ele>48</ele>
        <time>2021-05-19T17:04:46.000Z</time>
      </trkpt>
      <trkpt lat="47.22166" lon="-1.50138">
        <ele>48</ele>
        <time>2021-05-19T17:04:48.000Z</time>
      </trkpt>
      <trkpt lat="47.22161" lon="-1.50156">
        <ele>49</ele>
        <time>2021-05-19T17:04:50.000Z</time>
      </trkpt>
      <trkpt lat="47.22156" lon="-1.50173">
        <ele>49</ele>
        <time>2021-05-19T17:04:52.000Z</time>
      </trkpt>
      <trkpt lat="47.22151" lon="-1.50192">
        <ele>48</ele>
        <time>2021-05-19T17:04:54.000Z</time>
      </trkpt>
      <trkpt lat="47.22146" lon="-1.50217">
        <ele>46</ele>
        <time>2021-05-19T17:04:57.000Z</time>
      </trkpt>
      <trkpt lat="47.2214" lon="-1.50234">
        <ele>47</ele>
        <time>2021-05-19T17:04:59.000Z</time>
      </trkpt>
      <trkpt lat="47.22135" lon="-1.5025">
        <ele>48</ele>
        <time>2021-05-19T17:05:01.000Z</time>
      </trkpt>
      <trkpt lat="47.22132" lon="-1.50267">
        <ele>47</ele>
        <time>2021-05-19T17:05:03.000Z</time>
      </trkpt>
      <trkpt lat="47.22128" lon="-1.50284">
        <ele>48</ele>
        <time>2021-05-19T17:05:05.000Z</time>
      </trkpt>
      <trkpt lat="47.22121" lon="-1.50296">
        <ele>48</ele>
        <time>2021-05-19T17:05:07.000Z</time>
      </trkpt>
      <trkpt lat="47.22113" lon="-1.50309">
        <ele>48</ele>
        <time>2021-05-19T17:05:09.000Z</time>
      </trkpt>
      <trkpt lat="47.22105" lon="-1.50323">
        <ele>49</ele>
        <time>2021-05-19T17:05:11.000Z</time>
      </trkpt>
      <trkpt lat="47.22098" lon="-1.50339">
        <ele>46</ele>
        <time>2021-05-19T17:05:13.000Z</time>
      </trkpt>
      <trkpt lat="47.2209" lon="-1.50363">
        <ele>47</ele>
        <time>2021-05-19T17:05:16.000Z</time>
      </trkpt>
      <trkpt lat="47.22085" lon="-1.5038">
        <ele>47</ele>
        <time>2021-05-19T17:05:18.000Z</time>
      </trkpt>
      <trkpt lat="47.22079" lon="-1.50396">
        <ele>46</ele>
        <time>2021-05-19T17:05:20.000Z</time>
      </trkpt>
      <trkpt lat="47.22076" lon="-1.50412">
        <ele>47</ele>
        <time>2021-05-19T17:05:22.000Z</time>
      </trkpt>
      <trkpt lat="47.22073" lon="-1.5043">
        <ele>48</ele>
        <time>2021-05-19T17:05:24.000Z</time>
      </trkpt>
      <trkpt lat="47.22071" lon="-1.50447">
        <ele>45</ele>
        <time>2021-05-19T17:05:26.000Z</time>
      </trkpt>
      <trkpt lat="47.22066" lon="-1.50474">
        <ele>45</ele>
        <time>2021-05-19T17:05:29.000Z</time>
      </trkpt>
      <trkpt lat="47.22063" lon="-1.50492">
        <ele>45</ele>
        <time>2021-05-19T17:05:31.000Z</time>
      </trkpt>
      <trkpt lat="47.22062" lon="-1.50509">
        <ele>43</ele>
        <time>2021-05-19T17:05:33.000Z</time>
      </trkpt>
      <trkpt lat="47.22062" lon="-1.50524">
        <ele>44</ele>
        <time>2021-05-19T17:05:35.000Z</time>
      </trkpt>
      <trkpt lat="47.22062" lon="-1.50543">
        <ele>45</ele>
        <time>2021-05-19T17:05:37.000Z</time>
      </trkpt>
      <trkpt lat="47.22061" lon="-1.50559">
        <ele>45</ele>
        <time>2021-05-19T17:05:39.000Z</time>
      </trkpt>
      <trkpt lat="47.22061" lon="-1.50574">
        <ele>44</ele>
        <time>2021-05-19T17:05:41.000Z</time>
      </trkpt>
      <trkpt lat="47.2206" lon="-1.50588">
        <ele>44</ele>
        <time>2021-05-19T17:05:43.000Z</time>
      </trkpt>
      <trkpt lat="47.2206" lon="-1.50605">
        <ele>45</ele>
        <time>2021-05-19T17:05:45.000Z</time>
      </trkpt>
      <trkpt lat="47.22059" lon="-1.50625">
        <ele>46</ele>
        <time>2021-05-19T17:05:47.000Z</time>
      </trkpt>
      <trkpt lat="47.22058" lon="-1.50643">
        <ele>46</ele>
        <time>2021-05-19T17:05:49.000Z</time>
      </trkpt>
      <trkpt lat="47.22056" lon="-1.50661">
        <ele>46</ele>
        <time>2021-05-19T17:05:51.000Z</time>
      </trkpt>
      <trkpt lat="47.22054" lon="-1.50678">
        <ele>47</ele>
        <time>2021-05-19T17:05:53.000Z</time>
      </trkpt>
      <trkpt lat="47.22054" lon="-1.50697">
        <ele>47</ele>
        <time>2021-05-19T17:05:55.000Z</time>
      </trkpt>
      <trkpt lat="47.22051" lon="-1.50715">
        <ele>46</ele>
        <time>2021-05-19T17:05:57.000Z</time>
      </trkpt>
      <trkpt lat="47.22048" lon="-1.50735">
        <ele>47</ele>
        <time>2021-05-19T17:05:59.000Z</time>
      </trkpt>
      <trkpt lat="47.22044" lon="-1.50753">
        <ele>47</ele>
        <time>2021-05-19T17:06:01.000Z</time>
      </trkpt>
      <trkpt lat="47.22042" lon="-1.50769">
        <ele>48</ele>
        <time>2021-05-19T17:06:03.000Z</time>
      </trkpt>
      <trkpt lat="47.22039" lon="-1.50785">
        <ele>49</ele>
        <time>2021-05-19T17:06:05.000Z</time>
      </trkpt>
      <trkpt lat="47.22035" lon="-1.50802">
        <ele>47</ele>
        <time>2021-05-19T17:06:07.000Z</time>
      </trkpt>
      <trkpt lat="47.22029" lon="-1.50818">
        <ele>48</ele>
        <time>2021-05-19T17:06:09.000Z</time>
      </trkpt>
      <trkpt lat="47.22024" lon="-1.50831">
        <ele>49</ele>
        <time>2021-05-19T17:06:11.000Z</time>
      </trkpt>
      <trkpt lat="47.2202" lon="-1.50847">
        <ele>47</ele>
        <time>2021-05-19T17:06:13.000Z</time>
      </trkpt>
      <trkpt lat="47.22012" lon="-1.50865">
        <ele>47</ele>
        <time>2021-05-19T17:06:15.000Z</time>
      </trkpt>
      <trkpt lat="47.22006" lon="-1.50882">
        <ele>47</ele>
        <time>2021-05-19T17:06:17.000Z</time>
      </trkpt>
      <trkpt lat="47.21999" lon="-1.509">
        <ele>48</ele>
        <time>2021-05-19T17:06:19.000Z</time>
      </trkpt>
      <trkpt lat="47.21993" lon="-1.50919">
        <ele>48</ele>
        <time>2021-05-19T17:06:21.000Z</time>
      </trkpt>
      <trkpt lat="47.21988" lon="-1.50937">
        <ele>48</ele>
        <time>2021-05-19T17:06:23.000Z</time>
      </trkpt>
      <trkpt lat="47.2198" lon="-1.50961">
        <ele>47</ele>
        <time>2021-05-19T17:06:26.000Z</time>
      </trkpt>
      <trkpt lat="47.21976" lon="-1.50975">
        <ele>46</ele>
        <time>2021-05-19T17:06:28.000Z</time>
      </trkpt>
      <trkpt lat="47.21972" lon="-1.50988">
        <ele>45</ele>
        <time>2021-05-19T17:06:30.000Z</time>
      </trkpt>
      <trkpt lat="47.21967" lon="-1.51005">
        <ele>45</ele>
        <time>2021-05-19T17:06:32.000Z</time>
      </trkpt>
      <trkpt lat="47.21961" lon="-1.51024">
        <ele>46</ele>
        <time>2021-05-19T17:06:34.000Z</time>
      </trkpt>
      <trkpt lat="47.21957" lon="-1.51041">
        <ele>47</ele>
        <time>2021-05-19T17:06:36.000Z</time>
      </trkpt>
      <trkpt lat="47.21953" lon="-1.51056">
        <ele>49</ele>
        <time>2021-05-19T17:06:38.000Z</time>
      </trkpt>
      <trkpt lat="47.21941" lon="-1.51071">
        <ele>51</ele>
        <time>2021-05-19T17:06:41.000Z</time>
      </trkpt>
      <trkpt lat="47.21932" lon="-1.51085">
        <ele>50</ele>
        <time>2021-05-19T17:06:43.000Z</time>
      </trkpt>
      <trkpt lat="47.21928" lon="-1.511">
        <ele>47</ele>
        <time>2021-05-19T17:06:45.000Z</time>
      </trkpt>
      <trkpt lat="47.21923" lon="-1.51117">
        <ele>47</ele>
        <time>2021-05-19T17:06:47.000Z</time>
      </trkpt>
      <trkpt lat="47.21918" lon="-1.51133">
        <ele>47</ele>
        <time>2021-05-19T17:06:49.000Z</time>
      </trkpt>
      <trkpt lat="47.21912" lon="-1.51149">
        <ele>47</ele>
        <time>2021-05-19T17:06:51.000Z</time>
      </trkpt>
      <trkpt lat="47.21906" lon="-1.51164">
        <ele>47</ele>
        <time>2021-05-19T17:06:53.000Z</time>
      </trkpt>
      <trkpt lat="47.21901" lon="-1.51178">
        <ele>47</ele>
        <time>2021-05-19T17:06:55.000Z</time>
      </trkpt>
      <trkpt lat="47.21897" lon="-1.51192">
        <ele>47</ele>
        <time>2021-05-19T17:06:57.000Z</time>
      </trkpt>
      <trkpt lat="47.21893" lon="-1.51206">
        <ele>46</ele>
        <time>2021-05-19T17:06:59.000Z</time>
      </trkpt>
      <trkpt lat="47.21889" lon="-1.51221">
        <ele>47</ele>
        <time>2021-05-19T17:07:01.000Z</time>
      </trkpt>
      <trkpt lat="47.21884" lon="-1.51236">
        <ele>47</ele>
        <time>2021-05-19T17:07:03.000Z</time>
      </trkpt>
      <trkpt lat="47.21879" lon="-1.51251">
        <ele>48</ele>
        <time>2021-05-19T17:07:05.000Z</time>
      </trkpt>
      <trkpt lat="47.21873" lon="-1.51266">
        <ele>49</ele>
        <time>2021-05-19T17:07:07.000Z</time>
      </trkpt>
      <trkpt lat="47.21869" lon="-1.51282">
        <ele>49</ele>
        <time>2021-05-19T17:07:09.000Z</time>
      </trkpt>
      <trkpt lat="47.21865" lon="-1.51298">
        <ele>49</ele>
        <time>2021-05-19T17:07:11.000Z</time>
      </trkpt>
      <trkpt lat="47.2186" lon="-1.51312">
        <ele>48</ele>
        <time>2021-05-19T17:07:13.000Z</time>
      </trkpt>
      <trkpt lat="47.21856" lon="-1.51329">
        <ele>48</ele>
        <time>2021-05-19T17:07:15.000Z</time>
      </trkpt>
      <trkpt lat="47.21853" lon="-1.51343">
        <ele>48</ele>
        <time>2021-05-19T17:07:17.000Z</time>
      </trkpt>
      <trkpt lat="47.21852" lon="-1.51361">
        <ele>47</ele>
        <time>2021-05-19T17:07:19.000Z</time>
      </trkpt>
      <trkpt lat="47.21846" lon="-1.51375">
        <ele>48</ele>
        <time>2021-05-19T17:07:21.000Z</time>
      </trkpt>
      <trkpt lat="47.21841" lon="-1.51391">
        <ele>50</ele>
        <time>2021-05-19T17:07:23.000Z</time>
      </trkpt>
      <trkpt lat="47.21836" lon="-1.51409">
        <ele>49</ele>
        <time>2021-05-19T17:07:25.000Z</time>
      </trkpt>
      <trkpt lat="47.21832" lon="-1.51426">
        <ele>50</ele>
        <time>2021-05-19T17:07:27.000Z</time>
      </trkpt>
      <trkpt lat="47.21826" lon="-1.51442">
        <ele>50</ele>
        <time>2021-05-19T17:07:29.000Z</time>
      </trkpt>
      <trkpt lat="47.21823" lon="-1.51458">
        <ele>49</ele>
        <time>2021-05-19T17:07:31.000Z</time>
      </trkpt>
      <trkpt lat="47.21819" lon="-1.51473">
        <ele>49</ele>
        <time>2021-05-19T17:07:33.000Z</time>
      </trkpt>
      <trkpt lat="47.21816" lon="-1.51488">
        <ele>50</ele>
        <time>2021-05-19T17:07:35.000Z</time>
      </trkpt>
      <trkpt lat="47.21812" lon="-1.51503">
        <ele>50</ele>
        <time>2021-05-19T17:07:37.000Z</time>
      </trkpt>
      <trkpt lat="47.21806" lon="-1.51517">
        <ele>49</ele>
        <time>2021-05-19T17:07:39.000Z</time>
      </trkpt>
      <trkpt lat="47.218" lon="-1.51531">
        <ele>50</ele>
        <time>2021-05-19T17:07:41.000Z</time>
      </trkpt>
      <trkpt lat="47.21795" lon="-1.51546">
        <ele>50</ele>
        <time>2021-05-19T17:07:43.000Z</time>
      </trkpt>
      <trkpt lat="47.21787" lon="-1.51561">
        <ele>51</ele>
        <time>2021-05-19T17:07:45.000Z</time>
      </trkpt>
      <trkpt lat="47.2178" lon="-1.51575">
        <ele>52</ele>
        <time>2021-05-19T17:07:47.000Z</time>
      </trkpt>
      <trkpt lat="47.21771" lon="-1.51589">
        <ele>51</ele>
        <time>2021-05-19T17:07:49.000Z</time>
      </trkpt>
      <trkpt lat="47.21764" lon="-1.51601">
        <ele>51</ele>
        <time>2021-05-19T17:07:51.000Z</time>
      </trkpt>
      <trkpt lat="47.21757" lon="-1.51613">
        <ele>52</ele>
        <time>2021-05-19T17:07:53.000Z</time>
      </trkpt>
      <trkpt lat="47.2175" lon="-1.51626">
        <ele>51</ele>
        <time>2021-05-19T17:07:55.000Z</time>
      </trkpt>
      <trkpt lat="47.21744" lon="-1.5164">
        <ele>49</ele>
        <time>2021-05-19T17:07:57.000Z</time>
      </trkpt>
      <trkpt lat="47.21736" lon="-1.51656">
        <ele>48</ele>
        <time>2021-05-19T17:07:59.000Z</time>
      </trkpt>
      <trkpt lat="47.21729" lon="-1.51668">
        <ele>49</ele>
        <time>2021-05-19T17:08:01.000Z</time>
      </trkpt>
      <trkpt lat="47.21723" lon="-1.51682">
        <ele>49</ele>
        <time>2021-05-19T17:08:03.000Z</time>
      </trkpt>
      <trkpt lat="47.21717" lon="-1.51694">
        <ele>49</ele>
        <time>2021-05-19T17:08:05.000Z</time>
      </trkpt>
      <trkpt lat="47.21712" lon="-1.51707">
        <ele>48</ele>
        <time>2021-05-19T17:08:07.000Z</time>
      </trkpt>
      <trkpt lat="47.21705" lon="-1.51717">
        <ele>48</ele>
        <time>2021-05-19T17:08:09.000Z</time>
      </trkpt>
      <trkpt lat="47.21699" lon="-1.51732">
        <ele>50</ele>
        <time>2021-05-19T17:08:11.000Z</time>
      </trkpt>
      <trkpt lat="47.21692" lon="-1.51749">
        <ele>50</ele>
        <time>2021-05-19T17:08:13.000Z</time>
      </trkpt>
      <trkpt lat="47.21685" lon="-1.51765">
        <ele>51</ele>
        <time>2021-05-19T17:08:15.000Z</time>
      </trkpt>
      <trkpt lat="47.21679" lon="-1.5178">
        <ele>52</ele>
        <time>2021-05-19T17:08:17.000Z</time>
      </trkpt>
      <trkpt lat="47.21672" lon="-1.51795">
        <ele>52</ele>
        <time>2021-05-19T17:08:19.000Z</time>
      </trkpt>
      <trkpt lat="47.21666" lon="-1.5181">
        <ele>52</ele>
        <time>2021-05-19T17:08:21.000Z</time>
      </trkpt>
      <trkpt lat="47.2166" lon="-1.51825">
        <ele>52</ele>
        <time>2021-05-19T17:08:23.000Z</time>
      </trkpt>
      <trkpt lat="47.21655" lon="-1.5184">
        <ele>52</ele>
        <time>2021-05-19T17:08:25.000Z</time>
      </trkpt>
      <trkpt lat="47.21651" lon="-1.51855">
        <ele>52</ele>
        <time>2021-05-19T17:08:27.000Z</time>
      </trkpt>
      <trkpt lat="47.21647" lon="-1.51867">
        <ele>52</ele>
        <time>2021-05-19T17:08:29.000Z</time>
      </trkpt>
      <trkpt lat="47.21645" lon="-1.51885">
        <ele>53</ele>
        <time>2021-05-19T17:08:31.000Z</time>
      </trkpt>
      <trkpt lat="47.21639" lon="-1.519">
        <ele>54</ele>
        <time>2021-05-19T17:08:33.000Z</time>
      </trkpt>
      <trkpt lat="47.21632" lon="-1.51915">
        <ele>54</ele>
        <time>2021-05-19T17:08:35.000Z</time>
      </trkpt>
      <trkpt lat="47.21627" lon="-1.5193">
        <ele>53</ele>
        <time>2021-05-19T17:08:37.000Z</time>
      </trkpt>
      <trkpt lat="47.21627" lon="-1.51946">
        <ele>50</ele>
        <time>2021-05-19T17:08:39.000Z</time>
      </trkpt>
      <trkpt lat="47.21625" lon="-1.51962">
        <ele>48</ele>
        <time>2021-05-19T17:08:41.000Z</time>
      </trkpt>
      <trkpt lat="47.21616" lon="-1.5198">
        <ele>49</ele>
        <time>2021-05-19T17:08:43.000Z</time>
      </trkpt>
      <trkpt lat="47.21607" lon="-1.51993">
        <ele>50</ele>
        <time>2021-05-19T17:08:45.000Z</time>
      </trkpt>
      <trkpt lat="47.21603" lon="-1.52007">
        <ele>48</ele>
        <time>2021-05-19T17:08:47.000Z</time>
      </trkpt>
      <trkpt lat="47.21598" lon="-1.52025">
        <ele>48</ele>
        <time>2021-05-19T17:08:49.000Z</time>
      </trkpt>
      <trkpt lat="47.21592" lon="-1.52041">
        <ele>48</ele>
        <time>2021-05-19T17:08:51.000Z</time>
      </trkpt>
      <trkpt lat="47.21586" lon="-1.52056">
        <ele>49</ele>
        <time>2021-05-19T17:08:53.000Z</time>
      </trkpt>
      <trkpt lat="47.21582" lon="-1.52072">
        <ele>51</ele>
        <time>2021-05-19T17:08:55.000Z</time>
      </trkpt>
      <trkpt lat="47.21576" lon="-1.52085">
        <ele>52</ele>
        <time>2021-05-19T17:08:57.000Z</time>
      </trkpt>
      <trkpt lat="47.21572" lon="-1.52101">
        <ele>53</ele>
        <time>2021-05-19T17:08:59.000Z</time>
      </trkpt>
      <trkpt lat="47.21567" lon="-1.52119">
        <ele>53</ele>
        <time>2021-05-19T17:09:01.000Z</time>
      </trkpt>
      <trkpt lat="47.21564" lon="-1.52135">
        <ele>54</ele>
        <time>2021-05-19T17:09:03.000Z</time>
      </trkpt>
      <trkpt lat="47.21557" lon="-1.52149">
        <ele>54</ele>
        <time>2021-05-19T17:09:05.000Z</time>
      </trkpt>
      <trkpt lat="47.21552" lon="-1.52164">
        <ele>54</ele>
        <time>2021-05-19T17:09:07.000Z</time>
      </trkpt>
      <trkpt lat="47.21547" lon="-1.52179">
        <ele>54</ele>
        <time>2021-05-19T17:09:09.000Z</time>
      </trkpt>
      <trkpt lat="47.21541" lon="-1.52203">
        <ele>54</ele>
        <time>2021-05-19T17:09:12.000Z</time>
      </trkpt>
      <trkpt lat="47.21532" lon="-1.52226">
        <ele>54</ele>
        <time>2021-05-19T17:09:15.000Z</time>
      </trkpt>
      <trkpt lat="47.21528" lon="-1.52241">
        <ele>55</ele>
        <time>2021-05-19T17:09:17.000Z</time>
      </trkpt>
      <trkpt lat="47.21522" lon="-1.52254">
        <ele>55</ele>
        <time>2021-05-19T17:09:19.000Z</time>
      </trkpt>
      <trkpt lat="47.21518" lon="-1.52267">
        <ele>54</ele>
        <time>2021-05-19T17:09:21.000Z</time>
      </trkpt>
      <trkpt lat="47.21513" lon="-1.52284">
        <ele>53</ele>
        <time>2021-05-19T17:09:23.000Z</time>
      </trkpt>
      <trkpt lat="47.21507" lon="-1.52301">
        <ele>52</ele>
        <time>2021-05-19T17:09:25.000Z</time>
      </trkpt>
      <trkpt lat="47.215" lon="-1.52319">
        <ele>52</ele>
        <time>2021-05-19T17:09:27.000Z</time>
      </trkpt>
      <trkpt lat="47.21494" lon="-1.52335">
        <ele>53</ele>
        <time>2021-05-19T17:09:29.000Z</time>
      </trkpt>
      <trkpt lat="47.21491" lon="-1.5235">
        <ele>52</ele>
        <time>2021-05-19T17:09:31.000Z</time>
      </trkpt>
      <trkpt lat="47.21486" lon="-1.52365">
        <ele>52</ele>
        <time>2021-05-19T17:09:33.000Z</time>
      </trkpt>
      <trkpt lat="47.2148" lon="-1.52389">
        <ele>52</ele>
        <time>2021-05-19T17:09:36.000Z</time>
      </trkpt>
      <trkpt lat="47.21472" lon="-1.52412">
        <ele>53</ele>
        <time>2021-05-19T17:09:39.000Z</time>
      </trkpt>
      <trkpt lat="47.21466" lon="-1.52428">
        <ele>53</ele>
        <time>2021-05-19T17:09:41.000Z</time>
      </trkpt>
      <trkpt lat="47.21461" lon="-1.52443">
        <ele>53</ele>
        <time>2021-05-19T17:09:43.000Z</time>
      </trkpt>
      <trkpt lat="47.21457" lon="-1.52458">
        <ele>53</ele>
        <time>2021-05-19T17:09:45.000Z</time>
      </trkpt>
      <trkpt lat="47.21453" lon="-1.52473">
        <ele>53</ele>
        <time>2021-05-19T17:09:47.000Z</time>
      </trkpt>
      <trkpt lat="47.21448" lon="-1.52488">
        <ele>53</ele>
        <time>2021-05-19T17:09:49.000Z</time>
      </trkpt>
      <trkpt lat="47.21444" lon="-1.52504">
        <ele>53</ele>
        <time>2021-05-19T17:09:51.000Z</time>
      </trkpt>
      <trkpt lat="47.21438" lon="-1.5252">
        <ele>53</ele>
        <time>2021-05-19T17:09:53.000Z</time>
      </trkpt>
      <trkpt lat="47.21433" lon="-1.52536">
        <ele>53</ele>
        <time>2021-05-19T17:09:55.000Z</time>
      </trkpt>
      <trkpt lat="47.2143" lon="-1.52551">
        <ele>51</ele>
        <time>2021-05-19T17:09:57.000Z</time>
      </trkpt>
      <trkpt lat="47.21425" lon="-1.52565">
        <ele>52</ele>
        <time>2021-05-19T17:09:59.000Z</time>
      </trkpt>
      <trkpt lat="47.21419" lon="-1.5258">
        <ele>52</ele>
        <time>2021-05-19T17:10:01.000Z</time>
      </trkpt>
      <trkpt lat="47.21413" lon="-1.52603">
        <ele>52</ele>
        <time>2021-05-19T17:10:04.000Z</time>
      </trkpt>
      <trkpt lat="47.2141" lon="-1.52618">
        <ele>51</ele>
        <time>2021-05-19T17:10:06.000Z</time>
      </trkpt>
      <trkpt lat="47.21406" lon="-1.52634">
        <ele>50</ele>
        <time>2021-05-19T17:10:08.000Z</time>
      </trkpt>
      <trkpt lat="47.21403" lon="-1.52647">
        <ele>51</ele>
        <time>2021-05-19T17:10:10.000Z</time>
      </trkpt>
      <trkpt lat="47.21401" lon="-1.52664">
        <ele>54</ele>
        <time>2021-05-19T17:10:12.000Z</time>
      </trkpt>
      <trkpt lat="47.21396" lon="-1.52677">
        <ele>55</ele>
        <time>2021-05-19T17:10:14.000Z</time>
      </trkpt>
      <trkpt lat="47.21389" lon="-1.52692">
        <ele>55</ele>
        <time>2021-05-19T17:10:16.000Z</time>
      </trkpt>
      <trkpt lat="47.21384" lon="-1.52708">
        <ele>55</ele>
        <time>2021-05-19T17:10:18.000Z</time>
      </trkpt>
      <trkpt lat="47.21381" lon="-1.52723">
        <ele>54</ele>
        <time>2021-05-19T17:10:20.000Z</time>
      </trkpt>
      <trkpt lat="47.21378" lon="-1.52741">
        <ele>54</ele>
        <time>2021-05-19T17:10:22.000Z</time>
      </trkpt>
      <trkpt lat="47.21374" lon="-1.52757">
        <ele>54</ele>
        <time>2021-05-19T17:10:24.000Z</time>
      </trkpt>
      <trkpt lat="47.21371" lon="-1.52774">
        <ele>54</ele>
        <time>2021-05-19T17:10:26.000Z</time>
      </trkpt>
      <trkpt lat="47.2137" lon="-1.5279">
        <ele>55</ele>
        <time>2021-05-19T17:10:28.000Z</time>
      </trkpt>
      <trkpt lat="47.21369" lon="-1.52807">
        <ele>55</ele>
        <time>2021-05-19T17:10:30.000Z</time>
      </trkpt>
      <trkpt lat="47.21367" lon="-1.52824">
        <ele>54</ele>
        <time>2021-05-19T17:10:32.000Z</time>
      </trkpt>
      <trkpt lat="47.21362" lon="-1.52839">
        <ele>54</ele>
        <time>2021-05-19T17:10:34.000Z</time>
      </trkpt>
      <trkpt lat="47.21357" lon="-1.52854">
        <ele>54</ele>
        <time>2021-05-19T17:10:36.000Z</time>
      </trkpt>
      <trkpt lat="47.21356" lon="-1.52872">
        <ele>50</ele>
        <time>2021-05-19T17:10:38.000Z</time>
      </trkpt>
      <trkpt lat="47.2135" lon="-1.52888">
        <ele>50</ele>
        <time>2021-05-19T17:10:40.000Z</time>
      </trkpt>
      <trkpt lat="47.21346" lon="-1.52905">
        <ele>52</ele>
        <time>2021-05-19T17:10:42.000Z</time>
      </trkpt>
      <trkpt lat="47.21343" lon="-1.52923">
        <ele>53</ele>
        <time>2021-05-19T17:10:44.000Z</time>
      </trkpt>
      <trkpt lat="47.21341" lon="-1.52942">
        <ele>52</ele>
        <time>2021-05-19T17:10:46.000Z</time>
      </trkpt>
      <trkpt lat="47.21341" lon="-1.52961">
        <ele>52</ele>
        <time>2021-05-19T17:10:48.000Z</time>
      </trkpt>
      <trkpt lat="47.21339" lon="-1.52977">
        <ele>52</ele>
        <time>2021-05-19T17:10:50.000Z</time>
      </trkpt>
      <trkpt lat="47.21336" lon="-1.52991">
        <ele>52</ele>
        <time>2021-05-19T17:10:52.000Z</time>
      </trkpt>
      <trkpt lat="47.21339" lon="-1.53011">
        <ele>50</ele>
        <time>2021-05-19T17:10:54.000Z</time>
      </trkpt>
      <trkpt lat="47.21333" lon="-1.53029">
        <ele>53</ele>
        <time>2021-05-19T17:10:57.000Z</time>
      </trkpt>
      <trkpt lat="47.2133" lon="-1.53045">
        <ele>53</ele>
        <time>2021-05-19T17:10:59.000Z</time>
      </trkpt>
      <trkpt lat="47.21329" lon="-1.53061">
        <ele>53</ele>
        <time>2021-05-19T17:11:01.000Z</time>
      </trkpt>
      <trkpt lat="47.21328" lon="-1.53078">
        <ele>54</ele>
        <time>2021-05-19T17:11:03.000Z</time>
      </trkpt>
      <trkpt lat="47.21327" lon="-1.53094">
        <ele>55</ele>
        <time>2021-05-19T17:11:05.000Z</time>
      </trkpt>
      <trkpt lat="47.21326" lon="-1.53111">
        <ele>55</ele>
        <time>2021-05-19T17:11:07.000Z</time>
      </trkpt>
      <trkpt lat="47.21325" lon="-1.53129">
        <ele>53</ele>
        <time>2021-05-19T17:11:09.000Z</time>
      </trkpt>
      <trkpt lat="47.21322" lon="-1.53148">
        <ele>52</ele>
        <time>2021-05-19T17:11:11.000Z</time>
      </trkpt>
      <trkpt lat="47.21318" lon="-1.53165">
        <ele>51</ele>
        <time>2021-05-19T17:11:13.000Z</time>
      </trkpt>
      <trkpt lat="47.21315" lon="-1.53187">
        <ele>53</ele>
        <time>2021-05-19T17:11:16.000Z</time>
      </trkpt>
      <trkpt lat="47.21313" lon="-1.53205">
        <ele>52</ele>
        <time>2021-05-19T17:11:18.000Z</time>
      </trkpt>
      <trkpt lat="47.21312" lon="-1.53221">
        <ele>52</ele>
        <time>2021-05-19T17:11:20.000Z</time>
      </trkpt>
      <trkpt lat="47.21311" lon="-1.53238">
        <ele>55</ele>
        <time>2021-05-19T17:11:22.000Z</time>
      </trkpt>
      <trkpt lat="47.21312" lon="-1.53256">
        <ele>55</ele>
        <time>2021-05-19T17:11:24.000Z</time>
      </trkpt>
      <trkpt lat="47.21312" lon="-1.53275">
        <ele>52</ele>
        <time>2021-05-19T17:11:26.000Z</time>
      </trkpt>
      <trkpt lat="47.21313" lon="-1.53293">
        <ele>52</ele>
        <time>2021-05-19T17:11:28.000Z</time>
      </trkpt>
      <trkpt lat="47.2131" lon="-1.53311">
        <ele>52</ele>
        <time>2021-05-19T17:11:30.000Z</time>
      </trkpt>
      <trkpt lat="47.21307" lon="-1.5333">
        <ele>52</ele>
        <time>2021-05-19T17:11:32.000Z</time>
      </trkpt>
      <trkpt lat="47.21304" lon="-1.53347">
        <ele>52</ele>
        <time>2021-05-19T17:11:34.000Z</time>
      </trkpt>
      <trkpt lat="47.213" lon="-1.53365">
        <ele>52</ele>
        <time>2021-05-19T17:11:36.000Z</time>
      </trkpt>
      <trkpt lat="47.21297" lon="-1.53383">
        <ele>53</ele>
        <time>2021-05-19T17:11:38.000Z</time>
      </trkpt>
      <trkpt lat="47.21295" lon="-1.534">
        <ele>53</ele>
        <time>2021-05-19T17:11:40.000Z</time>
      </trkpt>
      <trkpt lat="47.21293" lon="-1.53418">
        <ele>52</ele>
        <time>2021-05-19T17:11:42.000Z</time>
      </trkpt>
      <trkpt lat="47.21292" lon="-1.53435">
        <ele>53</ele>
        <time>2021-05-19T17:11:44.000Z</time>
      </trkpt>
      <trkpt lat="47.21292" lon="-1.53453">
        <ele>52</ele>
        <time>2021-05-19T17:11:46.000Z</time>
      </trkpt>
      <trkpt lat="47.21297" lon="-1.5347">
        <ele>52</ele>
        <time>2021-05-19T17:11:48.000Z</time>
      </trkpt>
      <trkpt lat="47.213" lon="-1.53485">
        <ele>52</ele>
        <time>2021-05-19T17:11:50.000Z</time>
      </trkpt>
      <trkpt lat="47.21302" lon="-1.53502">
        <ele>52</ele>
        <time>2021-05-19T17:11:52.000Z</time>
      </trkpt>
      <trkpt lat="47.21303" lon="-1.53518">
        <ele>53</ele>
        <time>2021-05-19T17:11:54.000Z</time>
      </trkpt>
      <trkpt lat="47.21304" lon="-1.53535">
        <ele>53</ele>
        <time>2021-05-19T17:11:56.000Z</time>
      </trkpt>
      <trkpt lat="47.21304" lon="-1.53552">
        <ele>53</ele>
        <time>2021-05-19T17:11:58.000Z</time>
      </trkpt>
      <trkpt lat="47.21304" lon="-1.53569">
        <ele>53</ele>
        <time>2021-05-19T17:12:00.000Z</time>
      </trkpt>
      <trkpt lat="47.21305" lon="-1.53586">
        <ele>54</ele>
        <time>2021-05-19T17:12:02.000Z</time>
      </trkpt>
      <trkpt lat="47.21306" lon="-1.53602">
        <ele>54</ele>
        <time>2021-05-19T17:12:04.000Z</time>
      </trkpt>
      <trkpt lat="47.21305" lon="-1.53617">
        <ele>55</ele>
        <time>2021-05-19T17:12:06.000Z</time>
      </trkpt>
      <trkpt lat="47.21298" lon="-1.53632">
        <ele>55</ele>
        <time>2021-05-19T17:12:09.000Z</time>
      </trkpt>
      <trkpt lat="47.21297" lon="-1.53651">
        <ele>54</ele>
        <time>2021-05-19T17:12:15.000Z</time>
      </trkpt>
      <trkpt lat="47.21296" lon="-1.53668">
        <ele>55</ele>
        <time>2021-05-19T17:12:18.000Z</time>
      </trkpt>
      <trkpt lat="47.21301" lon="-1.53686">
        <ele>53</ele>
        <time>2021-05-19T17:12:21.000Z</time>
      </trkpt>
      <trkpt lat="47.21306" lon="-1.53703">
        <ele>55</ele>
        <time>2021-05-19T17:12:23.000Z</time>
      </trkpt>
      <trkpt lat="47.21312" lon="-1.53718">
        <ele>56</ele>
        <time>2021-05-19T17:12:25.000Z</time>
      </trkpt>
      <trkpt lat="47.21315" lon="-1.53734">
        <ele>56</ele>
        <time>2021-05-19T17:12:27.000Z</time>
      </trkpt>
      <trkpt lat="47.21318" lon="-1.5375">
        <ele>57</ele>
        <time>2021-05-19T17:12:29.000Z</time>
      </trkpt>
      <trkpt lat="47.2132" lon="-1.53766">
        <ele>57</ele>
        <time>2021-05-19T17:12:31.000Z</time>
      </trkpt>
      <trkpt lat="47.21322" lon="-1.53783">
        <ele>58</ele>
        <time>2021-05-19T17:12:33.000Z</time>
      </trkpt>
      <trkpt lat="47.21324" lon="-1.53799">
        <ele>59</ele>
        <time>2021-05-19T17:12:35.000Z</time>
      </trkpt>
      <trkpt lat="47.21326" lon="-1.53815">
        <ele>59</ele>
        <time>2021-05-19T17:12:37.000Z</time>
      </trkpt>
      <trkpt lat="47.21329" lon="-1.53831">
        <ele>59</ele>
        <time>2021-05-19T17:12:39.000Z</time>
      </trkpt>
      <trkpt lat="47.21331" lon="-1.53848">
        <ele>59</ele>
        <time>2021-05-19T17:12:41.000Z</time>
      </trkpt>
      <trkpt lat="47.21334" lon="-1.53862">
        <ele>60</ele>
        <time>2021-05-19T17:12:43.000Z</time>
      </trkpt>
      <trkpt lat="47.21332" lon="-1.5388">
        <ele>60</ele>
        <time>2021-05-19T17:12:45.000Z</time>
      </trkpt>
      <trkpt lat="47.21334" lon="-1.53898">
        <ele>60</ele>
        <time>2021-05-19T17:12:47.000Z</time>
      </trkpt>
      <trkpt lat="47.2134" lon="-1.5391">
        <ele>60</ele>
        <time>2021-05-19T17:12:49.000Z</time>
      </trkpt>
      <trkpt lat="47.21348" lon="-1.5392">
        <ele>60</ele>
        <time>2021-05-19T17:12:51.000Z</time>
      </trkpt>
      <trkpt lat="47.21357" lon="-1.53928">
        <ele>58</ele>
        <time>2021-05-19T17:12:53.000Z</time>
      </trkpt>
      <trkpt lat="47.21371" lon="-1.53934">
        <ele>57</ele>
        <time>2021-05-19T17:12:58.000Z</time>
      </trkpt>
      <trkpt lat="47.21381" lon="-1.53936">
        <ele>56</ele>
        <time>2021-05-19T17:13:00.000Z</time>
      </trkpt>
      <trkpt lat="47.2139" lon="-1.53947">
        <ele>56</ele>
        <time>2021-05-19T17:13:02.000Z</time>
      </trkpt>
      <trkpt lat="47.21393" lon="-1.53962">
        <ele>58</ele>
        <time>2021-05-19T17:13:04.000Z</time>
      </trkpt>
      <trkpt lat="47.21391" lon="-1.53978">
        <ele>57</ele>
        <time>2021-05-19T17:13:06.000Z</time>
      </trkpt>
      <trkpt lat="47.21389" lon="-1.54003">
        <ele>55</ele>
        <time>2021-05-19T17:13:09.000Z</time>
      </trkpt>
      <trkpt lat="47.21394" lon="-1.54016">
        <ele>55</ele>
        <time>2021-05-19T17:13:11.000Z</time>
      </trkpt>
      <trkpt lat="47.21402" lon="-1.54027">
        <ele>55</ele>
        <time>2021-05-19T17:13:13.000Z</time>
      </trkpt>
      <trkpt lat="47.2141" lon="-1.54038">
        <ele>55</ele>
        <time>2021-05-19T17:13:15.000Z</time>
      </trkpt>
      <trkpt lat="47.21417" lon="-1.5405">
        <ele>55</ele>
        <time>2021-05-19T17:13:17.000Z</time>
      </trkpt>
      <trkpt lat="47.21429" lon="-1.54069">
        <ele>55</ele>
        <time>2021-05-19T17:13:20.000Z</time>
      </trkpt>
      <trkpt lat="47.21437" lon="-1.54082">
        <ele>55</ele>
        <time>2021-05-19T17:13:22.000Z</time>
      </trkpt>
      <trkpt lat="47.21447" lon="-1.54092">
        <ele>54</ele>
        <time>2021-05-19T17:13:24.000Z</time>
      </trkpt>
      <trkpt lat="47.21457" lon="-1.54103">
        <ele>53</ele>
        <time>2021-05-19T17:13:26.000Z</time>
      </trkpt>
      <trkpt lat="47.21465" lon="-1.54115">
        <ele>51</ele>
        <time>2021-05-19T17:13:28.000Z</time>
      </trkpt>
      <trkpt lat="47.21474" lon="-1.54122">
        <ele>50</ele>
        <time>2021-05-19T17:13:30.000Z</time>
      </trkpt>
      <trkpt lat="47.21482" lon="-1.54131">
        <ele>49</ele>
        <time>2021-05-19T17:13:32.000Z</time>
      </trkpt>
      <trkpt lat="47.21494" lon="-1.54151">
        <ele>49</ele>
        <time>2021-05-19T17:13:35.000Z</time>
      </trkpt>
      <trkpt lat="47.215" lon="-1.54166">
        <ele>49</ele>
        <time>2021-05-19T17:13:37.000Z</time>
      </trkpt>
      <trkpt lat="47.21506" lon="-1.54182">
        <ele>50</ele>
        <time>2021-05-19T17:13:39.000Z</time>
      </trkpt>
      <trkpt lat="47.21515" lon="-1.54195">
        <ele>53</ele>
        <time>2021-05-19T17:13:41.000Z</time>
      </trkpt>
      <trkpt lat="47.21525" lon="-1.54209">
        <ele>53</ele>
        <time>2021-05-19T17:13:43.000Z</time>
      </trkpt>
      <trkpt lat="47.21534" lon="-1.54222">
        <ele>53</ele>
        <time>2021-05-19T17:13:45.000Z</time>
      </trkpt>
      <trkpt lat="47.21546" lon="-1.54236">
        <ele>52</ele>
        <time>2021-05-19T17:13:48.000Z</time>
      </trkpt>
      <trkpt lat="47.21555" lon="-1.54242">
        <ele>52</ele>
        <time>2021-05-19T17:13:51.000Z</time>
      </trkpt>
      <trkpt lat="47.21564" lon="-1.54241">
        <ele>52</ele>
        <time>2021-05-19T17:13:54.000Z</time>
      </trkpt>
      <trkpt lat="47.21575" lon="-1.54245">
        <ele>55</ele>
        <time>2021-05-19T17:13:58.000Z</time>
      </trkpt>
      <trkpt lat="47.2158" lon="-1.54258">
        <ele>55</ele>
        <time>2021-05-19T17:14:00.000Z</time>
      </trkpt>
      <trkpt lat="47.21582" lon="-1.54275">
        <ele>55</ele>
        <time>2021-05-19T17:14:02.000Z</time>
      </trkpt>
      <trkpt lat="47.21588" lon="-1.54291">
        <ele>55</ele>
        <time>2021-05-19T17:14:04.000Z</time>
      </trkpt>
      <trkpt lat="47.21591" lon="-1.54309">
        <ele>55</ele>
        <time>2021-05-19T17:14:06.000Z</time>
      </trkpt>
      <trkpt lat="47.21595" lon="-1.54324">
        <ele>55</ele>
        <time>2021-05-19T17:14:08.000Z</time>
      </trkpt>
      <trkpt lat="47.21603" lon="-1.54338">
        <ele>56</ele>
        <time>2021-05-19T17:14:10.000Z</time>
      </trkpt>
      <trkpt lat="47.2161" lon="-1.54353">
        <ele>56</ele>
        <time>2021-05-19T17:14:12.000Z</time>
      </trkpt>
      <trkpt lat="47.21615" lon="-1.54368">
        <ele>56</ele>
        <time>2021-05-19T17:14:14.000Z</time>
      </trkpt>
      <trkpt lat="47.2162" lon="-1.54384">
        <ele>56</ele>
        <time>2021-05-19T17:14:16.000Z</time>
      </trkpt>
      <trkpt lat="47.21621" lon="-1.54401">
        <ele>56</ele>
        <time>2021-05-19T17:14:18.000Z</time>
      </trkpt>
      <trkpt lat="47.21618" lon="-1.54417">
        <ele>56</ele>
        <time>2021-05-19T17:14:20.000Z</time>
      </trkpt>
      <trkpt lat="47.21615" lon="-1.54434">
        <ele>56</ele>
        <time>2021-05-19T17:14:22.000Z</time>
      </trkpt>
      <trkpt lat="47.21614" lon="-1.5445">
        <ele>57</ele>
        <time>2021-05-19T17:14:24.000Z</time>
      </trkpt>
      <trkpt lat="47.21613" lon="-1.54468">
        <ele>57</ele>
        <time>2021-05-19T17:14:26.000Z</time>
      </trkpt>
      <trkpt lat="47.2161" lon="-1.54485">
        <ele>57</ele>
        <time>2021-05-19T17:14:28.000Z</time>
      </trkpt>
      <trkpt lat="47.21607" lon="-1.54502">
        <ele>58</ele>
        <time>2021-05-19T17:14:30.000Z</time>
      </trkpt>
      <trkpt lat="47.21602" lon="-1.54516">
        <ele>58</ele>
        <time>2021-05-19T17:14:32.000Z</time>
      </trkpt>
      <trkpt lat="47.21597" lon="-1.54532">
        <ele>58</ele>
        <time>2021-05-19T17:14:34.000Z</time>
      </trkpt>
      <trkpt lat="47.21589" lon="-1.54554">
        <ele>58</ele>
        <time>2021-05-19T17:14:37.000Z</time>
      </trkpt>
      <trkpt lat="47.21584" lon="-1.54568">
        <ele>57</ele>
        <time>2021-05-19T17:14:39.000Z</time>
      </trkpt>
      <trkpt lat="47.21578" lon="-1.54583">
        <ele>57</ele>
        <time>2021-05-19T17:14:41.000Z</time>
      </trkpt>
      <trkpt lat="47.2157" lon="-1.54606">
        <ele>57</ele>
        <time>2021-05-19T17:14:44.000Z</time>
      </trkpt>
      <trkpt lat="47.21564" lon="-1.54622">
        <ele>57</ele>
        <time>2021-05-19T17:14:46.000Z</time>
      </trkpt>
      <trkpt lat="47.2156" lon="-1.5464">
        <ele>56</ele>
        <time>2021-05-19T17:14:48.000Z</time>
      </trkpt>
      <trkpt lat="47.21554" lon="-1.54661">
        <ele>56</ele>
        <time>2021-05-19T17:14:51.000Z</time>
      </trkpt>
      <trkpt lat="47.21546" lon="-1.54673">
        <ele>56</ele>
        <time>2021-05-19T17:14:54.000Z</time>
      </trkpt>
      <trkpt lat="47.21541" lon="-1.54689">
        <ele>57</ele>
        <time>2021-05-19T17:14:56.000Z</time>
      </trkpt>
      <trkpt lat="47.21536" lon="-1.54711">
        <ele>59</ele>
        <time>2021-05-19T17:14:58.000Z</time>
      </trkpt>
      <trkpt lat="47.2153" lon="-1.54727">
        <ele>59</ele>
        <time>2021-05-19T17:15:00.000Z</time>
      </trkpt>
      <trkpt lat="47.21523" lon="-1.54743">
        <ele>60</ele>
        <time>2021-05-19T17:15:02.000Z</time>
      </trkpt>
      <trkpt lat="47.21517" lon="-1.54758">
        <ele>60</ele>
        <time>2021-05-19T17:15:04.000Z</time>
      </trkpt>
      <trkpt lat="47.2151" lon="-1.54773">
        <ele>58</ele>
        <time>2021-05-19T17:15:06.000Z</time>
      </trkpt>
      <trkpt lat="47.21504" lon="-1.54787">
        <ele>57</ele>
        <time>2021-05-19T17:15:08.000Z</time>
      </trkpt>
      <trkpt lat="47.21498" lon="-1.54802">
        <ele>56</ele>
        <time>2021-05-19T17:15:10.000Z</time>
      </trkpt>
      <trkpt lat="47.21491" lon="-1.54819">
        <ele>55</ele>
        <time>2021-05-19T17:15:12.000Z</time>
      </trkpt>
      <trkpt lat="47.21486" lon="-1.54833">
        <ele>56</ele>
        <time>2021-05-19T17:15:14.000Z</time>
      </trkpt>
      <trkpt lat="47.21482" lon="-1.54848">
        <ele>56</ele>
        <time>2021-05-19T17:15:16.000Z</time>
      </trkpt>
      <trkpt lat="47.21476" lon="-1.54861">
        <ele>55</ele>
        <time>2021-05-19T17:15:18.000Z</time>
      </trkpt>
      <trkpt lat="47.21468" lon="-1.54875">
        <ele>56</ele>
        <time>2021-05-19T17:15:20.000Z</time>
      </trkpt>
      <trkpt lat="47.21461" lon="-1.54889">
        <ele>57</ele>
        <time>2021-05-19T17:15:22.000Z</time>
      </trkpt>
      <trkpt lat="47.2145" lon="-1.54914">
        <ele>55</ele>
        <time>2021-05-19T17:15:25.000Z</time>
      </trkpt>
      <trkpt lat="47.21442" lon="-1.54928">
        <ele>55</ele>
        <time>2021-05-19T17:15:27.000Z</time>
      </trkpt>
      <trkpt lat="47.21433" lon="-1.54942">
        <ele>56</ele>
        <time>2021-05-19T17:15:29.000Z</time>
      </trkpt>
      <trkpt lat="47.21425" lon="-1.54955">
        <ele>56</ele>
        <time>2021-05-19T17:15:31.000Z</time>
      </trkpt>
      <trkpt lat="47.21418" lon="-1.54969">
        <ele>56</ele>
        <time>2021-05-19T17:15:33.000Z</time>
      </trkpt>
      <trkpt lat="47.21411" lon="-1.54982">
        <ele>56</ele>
        <time>2021-05-19T17:15:35.000Z</time>
      </trkpt>
      <trkpt lat="47.21405" lon="-1.54996">
        <ele>55</ele>
        <time>2021-05-19T17:15:37.000Z</time>
      </trkpt>
      <trkpt lat="47.214" lon="-1.5501">
        <ele>55</ele>
        <time>2021-05-19T17:15:39.000Z</time>
      </trkpt>
      <trkpt lat="47.21395" lon="-1.55022">
        <ele>55</ele>
        <time>2021-05-19T17:15:41.000Z</time>
      </trkpt>
      <trkpt lat="47.21388" lon="-1.55034">
        <ele>57</ele>
        <time>2021-05-19T17:15:43.000Z</time>
      </trkpt>
      <trkpt lat="47.21384" lon="-1.55048">
        <ele>57</ele>
        <time>2021-05-19T17:15:45.000Z</time>
      </trkpt>
      <trkpt lat="47.21378" lon="-1.55063">
        <ele>57</ele>
        <time>2021-05-19T17:15:47.000Z</time>
      </trkpt>
      <trkpt lat="47.21372" lon="-1.55079">
        <ele>56</ele>
        <time>2021-05-19T17:15:49.000Z</time>
      </trkpt>
      <trkpt lat="47.21369" lon="-1.55092">
        <ele>56</ele>
        <time>2021-05-19T17:15:51.000Z</time>
      </trkpt>
      <trkpt lat="47.21362" lon="-1.55106">
        <ele>56</ele>
        <time>2021-05-19T17:15:53.000Z</time>
      </trkpt>
      <trkpt lat="47.21357" lon="-1.55121">
        <ele>55</ele>
        <time>2021-05-19T17:15:55.000Z</time>
      </trkpt>
      <trkpt lat="47.21351" lon="-1.55137">
        <ele>54</ele>
        <time>2021-05-19T17:15:57.000Z</time>
      </trkpt>
      <trkpt lat="47.21342" lon="-1.55151">
        <ele>53</ele>
        <time>2021-05-19T17:15:59.000Z</time>
      </trkpt>
      <trkpt lat="47.21336" lon="-1.55166">
        <ele>52</ele>
        <time>2021-05-19T17:16:01.000Z</time>
      </trkpt>
      <trkpt lat="47.21329" lon="-1.55182">
        <ele>53</ele>
        <time>2021-05-19T17:16:03.000Z</time>
      </trkpt>
      <trkpt lat="47.21323" lon="-1.55197">
        <ele>53</ele>
        <time>2021-05-19T17:16:05.000Z</time>
      </trkpt>
      <trkpt lat="47.21318" lon="-1.55211">
        <ele>52</ele>
        <time>2021-05-19T17:16:07.000Z</time>
      </trkpt>
      <trkpt lat="47.21312" lon="-1.55225">
        <ele>53</ele>
        <time>2021-05-19T17:16:09.000Z</time>
      </trkpt>
      <trkpt lat="47.21307" lon="-1.55239">
        <ele>53</ele>
        <time>2021-05-19T17:16:11.000Z</time>
      </trkpt>
      <trkpt lat="47.21301" lon="-1.55253">
        <ele>53</ele>
        <time>2021-05-19T17:16:13.000Z</time>
      </trkpt>
      <trkpt lat="47.21293" lon="-1.55274">
        <ele>53</ele>
        <time>2021-05-19T17:16:16.000Z</time>
      </trkpt>
      <trkpt lat="47.21287" lon="-1.55287">
        <ele>54</ele>
        <time>2021-05-19T17:16:18.000Z</time>
      </trkpt>
      <trkpt lat="47.21278" lon="-1.55298">
        <ele>52</ele>
        <time>2021-05-19T17:16:21.000Z</time>
      </trkpt>
      <trkpt lat="47.21267" lon="-1.55299">
        <ele>52</ele>
        <time>2021-05-19T17:16:24.000Z</time>
      </trkpt>
      <trkpt lat="47.2126" lon="-1.55316">
        <ele>54</ele>
        <time>2021-05-19T17:16:28.000Z</time>
      </trkpt>
      <trkpt lat="47.2126" lon="-1.5533">
        <ele>55</ele>
        <time>2021-05-19T17:16:30.000Z</time>
      </trkpt>
      <trkpt lat="47.21266" lon="-1.55345">
        <ele>54</ele>
        <time>2021-05-19T17:16:33.000Z</time>
      </trkpt>
      <trkpt lat="47.21275" lon="-1.55353">
        <ele>53</ele>
        <time>2021-05-19T17:16:36.000Z</time>
      </trkpt>
      <trkpt lat="47.21285" lon="-1.55362">
        <ele>53</ele>
        <time>2021-05-19T17:16:39.000Z</time>
      </trkpt>
      <trkpt lat="47.21286" lon="-1.55377">
        <ele>54</ele>
        <time>2021-05-19T17:16:42.000Z</time>
      </trkpt>
      <trkpt lat="47.21276" lon="-1.55388">
        <ele>54</ele>
        <time>2021-05-19T17:16:44.000Z</time>
      </trkpt>
      <trkpt lat="47.21264" lon="-1.55406">
        <ele>52</ele>
        <time>2021-05-19T17:16:47.000Z</time>
      </trkpt>
      <trkpt lat="47.21257" lon="-1.55422">
        <ele>52</ele>
        <time>2021-05-19T17:16:49.000Z</time>
      </trkpt>
      <trkpt lat="47.21249" lon="-1.55436">
        <ele>52</ele>
        <time>2021-05-19T17:16:51.000Z</time>
      </trkpt>
      <trkpt lat="47.21241" lon="-1.5545">
        <ele>50</ele>
        <time>2021-05-19T17:16:53.000Z</time>
      </trkpt>
      <trkpt lat="47.21233" lon="-1.5546">
        <ele>51</ele>
        <time>2021-05-19T17:16:55.000Z</time>
      </trkpt>
      <trkpt lat="47.21226" lon="-1.55471">
        <ele>53</ele>
        <time>2021-05-19T17:16:57.000Z</time>
      </trkpt>
      <trkpt lat="47.21219" lon="-1.55487">
        <ele>53</ele>
        <time>2021-05-19T17:17:00.000Z</time>
      </trkpt>
      <trkpt lat="47.21215" lon="-1.55503">
        <ele>53</ele>
        <time>2021-05-19T17:17:02.000Z</time>
      </trkpt>
      <trkpt lat="47.21211" lon="-1.55521">
        <ele>51</ele>
        <time>2021-05-19T17:17:04.000Z</time>
      </trkpt>
      <trkpt lat="47.21206" lon="-1.5554">
        <ele>50</ele>
        <time>2021-05-19T17:17:06.000Z</time>
      </trkpt>
      <trkpt lat="47.21201" lon="-1.55555">
        <ele>51</ele>
        <time>2021-05-19T17:17:08.000Z</time>
      </trkpt>
      <trkpt lat="47.21196" lon="-1.55572">
        <ele>52</ele>
        <time>2021-05-19T17:17:10.000Z</time>
      </trkpt>
      <trkpt lat="47.21192" lon="-1.5559">
        <ele>52</ele>
        <time>2021-05-19T17:17:12.000Z</time>
      </trkpt>
      <trkpt lat="47.21184" lon="-1.55607">
        <ele>51</ele>
        <time>2021-05-19T17:17:14.000Z</time>
      </trkpt>
      <trkpt lat="47.21176" lon="-1.5563">
        <ele>49</ele>
        <time>2021-05-19T17:17:17.000Z</time>
      </trkpt>
      <trkpt lat="47.21174" lon="-1.55644">
        <ele>47</ele>
        <time>2021-05-19T17:17:19.000Z</time>
      </trkpt>
      <trkpt lat="47.2117" lon="-1.55658">
        <ele>49</ele>
        <time>2021-05-19T17:17:21.000Z</time>
      </trkpt>
      <trkpt lat="47.21171" lon="-1.55675">
        <ele>48</ele>
        <time>2021-05-19T17:17:23.000Z</time>
      </trkpt>
      <trkpt lat="47.21177" lon="-1.55704">
        <ele>50</ele>
        <time>2021-05-19T17:17:26.000Z</time>
      </trkpt>
      <trkpt lat="47.21172" lon="-1.55723">
        <ele>52</ele>
        <time>2021-05-19T17:17:28.000Z</time>
      </trkpt>
      <trkpt lat="47.21164" lon="-1.55744">
        <ele>52</ele>
        <time>2021-05-19T17:17:30.000Z</time>
      </trkpt>
      <trkpt lat="47.21156" lon="-1.55765">
        <ele>49</ele>
        <time>2021-05-19T17:17:32.000Z</time>
      </trkpt>
      <trkpt lat="47.21147" lon="-1.55786">
        <ele>49</ele>
        <time>2021-05-19T17:17:34.000Z</time>
      </trkpt>
      <trkpt lat="47.21142" lon="-1.55807">
        <ele>49</ele>
        <time>2021-05-19T17:17:36.000Z</time>
      </trkpt>
      <trkpt lat="47.2114" lon="-1.55829">
        <ele>49</ele>
        <time>2021-05-19T17:17:38.000Z</time>
      </trkpt>
      <trkpt lat="47.2114" lon="-1.55851">
        <ele>48</ele>
        <time>2021-05-19T17:17:40.000Z</time>
      </trkpt>
      <trkpt lat="47.21142" lon="-1.55869">
        <ele>50</ele>
        <time>2021-05-19T17:17:42.000Z</time>
      </trkpt>
      <trkpt lat="47.21148" lon="-1.55887">
        <ele>52</ele>
        <time>2021-05-19T17:17:44.000Z</time>
      </trkpt>
      <trkpt lat="47.21145" lon="-1.55905">
        <ele>53</ele>
        <time>2021-05-19T17:17:46.000Z</time>
      </trkpt>
      <trkpt lat="47.21133" lon="-1.55916">
        <ele>53</ele>
        <time>2021-05-19T17:17:48.000Z</time>
      </trkpt>
      <trkpt lat="47.2112" lon="-1.55925">
        <ele>53</ele>
        <time>2021-05-19T17:17:50.000Z</time>
      </trkpt>
      <trkpt lat="47.21108" lon="-1.55934">
        <ele>52</ele>
        <time>2021-05-19T17:17:52.000Z</time>
      </trkpt>
      <trkpt lat="47.21097" lon="-1.55944">
        <ele>51</ele>
        <time>2021-05-19T17:17:54.000Z</time>
      </trkpt>
      <trkpt lat="47.21087" lon="-1.55957">
        <ele>51</ele>
        <time>2021-05-19T17:17:56.000Z</time>
      </trkpt>
      <trkpt lat="47.21077" lon="-1.5597">
        <ele>51</ele>
        <time>2021-05-19T17:17:58.000Z</time>
      </trkpt>
      <trkpt lat="47.21069" lon="-1.55984">
        <ele>50</ele>
        <time>2021-05-19T17:18:00.000Z</time>
      </trkpt>
      <trkpt lat="47.21063" lon="-1.55998">
        <ele>51</ele>
        <time>2021-05-19T17:18:02.000Z</time>
      </trkpt>
      <trkpt lat="47.2106" lon="-1.56012">
        <ele>51</ele>
        <time>2021-05-19T17:18:04.000Z</time>
      </trkpt>
      <trkpt lat="47.21051" lon="-1.56027">
        <ele>50</ele>
        <time>2021-05-19T17:18:06.000Z</time>
      </trkpt>
      <trkpt lat="47.2104" lon="-1.56052">
        <ele>51</ele>
        <time>2021-05-19T17:18:09.000Z</time>
      </trkpt>
      <trkpt lat="47.21035" lon="-1.56068">
        <ele>51</ele>
        <time>2021-05-19T17:18:11.000Z</time>
      </trkpt>
      <trkpt lat="47.21028" lon="-1.56083">
        <ele>50</ele>
        <time>2021-05-19T17:18:13.000Z</time>
      </trkpt>
      <trkpt lat="47.21021" lon="-1.56098">
        <ele>51</ele>
        <time>2021-05-19T17:18:15.000Z</time>
      </trkpt>
      <trkpt lat="47.21016" lon="-1.56114">
        <ele>50</ele>
        <time>2021-05-19T17:18:17.000Z</time>
      </trkpt>
      <trkpt lat="47.21009" lon="-1.56134">
        <ele>50</ele>
        <time>2021-05-19T17:18:20.000Z</time>
      </trkpt>
      <trkpt lat="47.21006" lon="-1.56147">
        <ele>47</ele>
        <time>2021-05-19T17:18:22.000Z</time>
      </trkpt>
      <trkpt lat="47.21001" lon="-1.56165">
        <ele>48</ele>
        <time>2021-05-19T17:18:25.000Z</time>
      </trkpt>
      <trkpt lat="47.20993" lon="-1.56171">
        <ele>50</ele>
        <time>2021-05-19T17:18:28.000Z</time>
      </trkpt>
      <trkpt lat="47.20981" lon="-1.56175">
        <ele>49</ele>
        <time>2021-05-19T17:18:30.000Z</time>
      </trkpt>
      <trkpt lat="47.20967" lon="-1.56175">
        <ele>48</ele>
        <time>2021-05-19T17:18:32.000Z</time>
      </trkpt>
      <trkpt lat="47.20957" lon="-1.56175">
        <ele>48</ele>
        <time>2021-05-19T17:18:34.000Z</time>
      </trkpt>
      <trkpt lat="47.20945" lon="-1.56169">
        <ele>49</ele>
        <time>2021-05-19T17:18:36.000Z</time>
      </trkpt>
      <trkpt lat="47.2093" lon="-1.56165">
        <ele>49</ele>
        <time>2021-05-19T17:18:38.000Z</time>
      </trkpt>
      <trkpt lat="47.20899" lon="-1.56155">
        <ele>58</ele>
        <time>2021-05-19T17:18:43.000Z</time>
      </trkpt>
      <trkpt lat="47.20887" lon="-1.56154">
        <ele>51</ele>
        <time>2021-05-19T17:18:45.000Z</time>
      </trkpt>
      <trkpt lat="47.20873" lon="-1.5615">
        <ele>52</ele>
        <time>2021-05-19T17:18:47.000Z</time>
      </trkpt>
      <trkpt lat="47.2086" lon="-1.56147">
        <ele>51</ele>
        <time>2021-05-19T17:18:49.000Z</time>
      </trkpt>
      <trkpt lat="47.20843" lon="-1.56142">
        <ele>50</ele>
        <time>2021-05-19T17:18:52.000Z</time>
      </trkpt>
      <trkpt lat="47.20834" lon="-1.5615">
        <ele>49</ele>
        <time>2021-05-19T17:18:54.000Z</time>
      </trkpt>
      <trkpt lat="47.20834" lon="-1.56167">
        <ele>45</ele>
        <time>2021-05-19T17:18:56.000Z</time>
      </trkpt>
      <trkpt lat="47.20833" lon="-1.56186">
        <ele>48</ele>
        <time>2021-05-19T17:18:58.000Z</time>
      </trkpt>
      <trkpt lat="47.20832" lon="-1.56212">
        <ele>46</ele>
        <time>2021-05-19T17:19:01.000Z</time>
      </trkpt>
      <trkpt lat="47.20833" lon="-1.5624">
        <ele>49</ele>
        <time>2021-05-19T17:19:04.000Z</time>
      </trkpt>
      <trkpt lat="47.20832" lon="-1.56261">
        <ele>52</ele>
        <time>2021-05-19T17:19:06.000Z</time>
      </trkpt>
      <trkpt lat="47.20831" lon="-1.56279">
        <ele>50</ele>
        <time>2021-05-19T17:19:08.000Z</time>
      </trkpt>
      <trkpt lat="47.20831" lon="-1.56297">
        <ele>51</ele>
        <time>2021-05-19T17:19:10.000Z</time>
      </trkpt>
      <trkpt lat="47.20828" lon="-1.56316">
        <ele>51</ele>
        <time>2021-05-19T17:19:12.000Z</time>
      </trkpt>
      <trkpt lat="47.20823" lon="-1.56339">
        <ele>52</ele>
        <time>2021-05-19T17:19:15.000Z</time>
      </trkpt>
      <trkpt lat="47.2082" lon="-1.56356">
        <ele>51</ele>
        <time>2021-05-19T17:19:17.000Z</time>
      </trkpt>
      <trkpt lat="47.20817" lon="-1.56374">
        <ele>52</ele>
        <time>2021-05-19T17:19:19.000Z</time>
      </trkpt>
      <trkpt lat="47.20813" lon="-1.5639">
        <ele>53</ele>
        <time>2021-05-19T17:19:21.000Z</time>
      </trkpt>
      <trkpt lat="47.20809" lon="-1.56406">
        <ele>53</ele>
        <time>2021-05-19T17:19:23.000Z</time>
      </trkpt>
      <trkpt lat="47.20803" lon="-1.5643">
        <ele>54</ele>
        <time>2021-05-19T17:19:26.000Z</time>
      </trkpt>
      <trkpt lat="47.20797" lon="-1.56454">
        <ele>54</ele>
        <time>2021-05-19T17:19:29.000Z</time>
      </trkpt>
      <trkpt lat="47.20793" lon="-1.5647">
        <ele>53</ele>
        <time>2021-05-19T17:19:31.000Z</time>
      </trkpt>
      <trkpt lat="47.20788" lon="-1.56485">
        <ele>53</ele>
        <time>2021-05-19T17:19:33.000Z</time>
      </trkpt>
      <trkpt lat="47.20785" lon="-1.56499">
        <ele>52</ele>
        <time>2021-05-19T17:19:35.000Z</time>
      </trkpt>
      <trkpt lat="47.2078" lon="-1.56512">
        <ele>51</ele>
        <time>2021-05-19T17:19:37.000Z</time>
      </trkpt>
      <trkpt lat="47.20766" lon="-1.56521">
        <ele>51</ele>
        <time>2021-05-19T17:19:41.000Z</time>
      </trkpt>
      <trkpt lat="47.20757" lon="-1.56517">
        <ele>53</ele>
        <time>2021-05-19T17:19:44.000Z</time>
      </trkpt>
      <trkpt lat="47.20749" lon="-1.56509">
        <ele>52</ele>
        <time>2021-05-19T17:19:46.000Z</time>
      </trkpt>
      <trkpt lat="47.20742" lon="-1.56501">
        <ele>52</ele>
        <time>2021-05-19T17:19:48.000Z</time>
      </trkpt>
      <trkpt lat="47.20732" lon="-1.56518">
        <ele>53</ele>
        <time>2021-05-19T17:19:54.000Z</time>
      </trkpt>
      <trkpt lat="47.2073" lon="-1.56531">
        <ele>53</ele>
        <time>2021-05-19T17:19:57.000Z</time>
      </trkpt>
      <trkpt lat="47.20722" lon="-1.56546">
        <ele>53</ele>
        <time>2021-05-19T17:19:59.000Z</time>
      </trkpt>
      <trkpt lat="47.20709" lon="-1.56567">
        <ele>52</ele>
        <time>2021-05-19T17:20:02.000Z</time>
      </trkpt>
      <trkpt lat="47.20695" lon="-1.56575">
        <ele>50</ele>
        <time>2021-05-19T17:20:04.000Z</time>
      </trkpt>
      <trkpt lat="47.20682" lon="-1.56583">
        <ele>49</ele>
        <time>2021-05-19T17:20:06.000Z</time>
      </trkpt>
      <trkpt lat="47.20671" lon="-1.56594">
        <ele>49</ele>
        <time>2021-05-19T17:20:08.000Z</time>
      </trkpt>
      <trkpt lat="47.2066" lon="-1.56603">
        <ele>49</ele>
        <time>2021-05-19T17:20:10.000Z</time>
      </trkpt>
      <trkpt lat="47.2065" lon="-1.56613">
        <ele>49</ele>
        <time>2021-05-19T17:20:12.000Z</time>
      </trkpt>
      <trkpt lat="47.20639" lon="-1.56618">
        <ele>48</ele>
        <time>2021-05-19T17:20:14.000Z</time>
      </trkpt>
      <trkpt lat="47.20626" lon="-1.5662">
        <ele>50</ele>
        <time>2021-05-19T17:20:16.000Z</time>
      </trkpt>
      <trkpt lat="47.20612" lon="-1.56622">
        <ele>50</ele>
        <time>2021-05-19T17:20:18.000Z</time>
      </trkpt>
      <trkpt lat="47.20593" lon="-1.56632">
        <ele>49</ele>
        <time>2021-05-19T17:20:21.000Z</time>
      </trkpt>
      <trkpt lat="47.20585" lon="-1.56641">
        <ele>48</ele>
        <time>2021-05-19T17:20:23.000Z</time>
      </trkpt>
      <trkpt lat="47.20577" lon="-1.5665">
        <ele>48</ele>
        <time>2021-05-19T17:20:25.000Z</time>
      </trkpt>
      <trkpt lat="47.2057" lon="-1.56663">
        <ele>48</ele>
        <time>2021-05-19T17:20:27.000Z</time>
      </trkpt>
      <trkpt lat="47.20562" lon="-1.56675">
        <ele>47</ele>
        <time>2021-05-19T17:20:29.000Z</time>
      </trkpt>
      <trkpt lat="47.2055" lon="-1.5669">
        <ele>48</ele>
        <time>2021-05-19T17:20:32.000Z</time>
      </trkpt>
      <trkpt lat="47.20542" lon="-1.56701">
        <ele>48</ele>
        <time>2021-05-19T17:20:34.000Z</time>
      </trkpt>
      <trkpt lat="47.20534" lon="-1.5671">
        <ele>48</ele>
        <time>2021-05-19T17:20:36.000Z</time>
      </trkpt>
      <trkpt lat="47.20517" lon="-1.56715">
        <ele>49</ele>
        <time>2021-05-19T17:20:39.000Z</time>
      </trkpt>
      <trkpt lat="47.20505" lon="-1.56717">
        <ele>49</ele>
        <time>2021-05-19T17:20:41.000Z</time>
      </trkpt>
      <trkpt lat="47.20494" lon="-1.56718">
        <ele>49</ele>
        <time>2021-05-19T17:20:43.000Z</time>
      </trkpt>
      <trkpt lat="47.20484" lon="-1.56717">
        <ele>50</ele>
        <time>2021-05-19T17:20:45.000Z</time>
      </trkpt>
      <trkpt lat="47.20474" lon="-1.56716">
        <ele>50</ele>
        <time>2021-05-19T17:20:47.000Z</time>
      </trkpt>
      <trkpt lat="47.20463" lon="-1.56717">
        <ele>48</ele>
        <time>2021-05-19T17:20:49.000Z</time>
      </trkpt>
      <trkpt lat="47.20451" lon="-1.56713">
        <ele>51</ele>
        <time>2021-05-19T17:20:52.000Z</time>
      </trkpt>
      <trkpt lat="47.2044" lon="-1.56711">
        <ele>51</ele>
        <time>2021-05-19T17:20:54.000Z</time>
      </trkpt>
      <trkpt lat="47.20422" lon="-1.56711">
        <ele>52</ele>
        <time>2021-05-19T17:20:57.000Z</time>
      </trkpt>
      <trkpt lat="47.20409" lon="-1.56705">
        <ele>53</ele>
        <time>2021-05-19T17:20:59.000Z</time>
      </trkpt>
      <trkpt lat="47.204" lon="-1.56712">
        <ele>54</ele>
        <time>2021-05-19T17:21:02.000Z</time>
      </trkpt>
      <trkpt lat="47.20398" lon="-1.56739">
        <ele>56</ele>
        <time>2021-05-19T17:21:05.000Z</time>
      </trkpt>
      <trkpt lat="47.20399" lon="-1.56761">
        <ele>56</ele>
        <time>2021-05-19T17:21:07.000Z</time>
      </trkpt>
      <trkpt lat="47.20398" lon="-1.56792">
        <ele>57</ele>
        <time>2021-05-19T17:21:10.000Z</time>
      </trkpt>
      <trkpt lat="47.20401" lon="-1.56811">
        <ele>56</ele>
        <time>2021-05-19T17:21:12.000Z</time>
      </trkpt>
      <trkpt lat="47.20399" lon="-1.56832">
        <ele>56</ele>
        <time>2021-05-19T17:21:14.000Z</time>
      </trkpt>
      <trkpt lat="47.20396" lon="-1.56852">
        <ele>56</ele>
        <time>2021-05-19T17:21:16.000Z</time>
      </trkpt>
      <trkpt lat="47.20394" lon="-1.56871">
        <ele>55</ele>
        <time>2021-05-19T17:21:18.000Z</time>
      </trkpt>
      <trkpt lat="47.20396" lon="-1.56888">
        <ele>53</ele>
        <time>2021-05-19T17:21:20.000Z</time>
      </trkpt>
      <trkpt lat="47.20395" lon="-1.56904">
        <ele>53</ele>
        <time>2021-05-19T17:21:22.000Z</time>
      </trkpt>
      <trkpt lat="47.20389" lon="-1.56921">
        <ele>55</ele>
        <time>2021-05-19T17:21:24.000Z</time>
      </trkpt>
      <trkpt lat="47.20387" lon="-1.56939">
        <ele>55</ele>
        <time>2021-05-19T17:21:26.000Z</time>
      </trkpt>
      <trkpt lat="47.20386" lon="-1.56957">
        <ele>52</ele>
        <time>2021-05-19T17:21:28.000Z</time>
      </trkpt>
      <trkpt lat="47.20381" lon="-1.56977">
        <ele>53</ele>
        <time>2021-05-19T17:21:30.000Z</time>
      </trkpt>
      <trkpt lat="47.20377" lon="-1.56996">
        <ele>53</ele>
        <time>2021-05-19T17:21:32.000Z</time>
      </trkpt>
      <trkpt lat="47.20375" lon="-1.57014">
        <ele>53</ele>
        <time>2021-05-19T17:21:34.000Z</time>
      </trkpt>
      <trkpt lat="47.20372" lon="-1.57031">
        <ele>53</ele>
        <time>2021-05-19T17:21:36.000Z</time>
      </trkpt>
      <trkpt lat="47.20367" lon="-1.57047">
        <ele>51</ele>
        <time>2021-05-19T17:21:38.000Z</time>
      </trkpt>
      <trkpt lat="47.20358" lon="-1.57069">
        <ele>48</ele>
        <time>2021-05-19T17:21:41.000Z</time>
      </trkpt>
      <trkpt lat="47.20352" lon="-1.57084">
        <ele>49</ele>
        <time>2021-05-19T17:21:43.000Z</time>
      </trkpt>
      <trkpt lat="47.20344" lon="-1.57097">
        <ele>50</ele>
        <time>2021-05-19T17:21:45.000Z</time>
      </trkpt>
      <trkpt lat="47.20334" lon="-1.57108">
        <ele>51</ele>
        <time>2021-05-19T17:21:47.000Z</time>
      </trkpt>
      <trkpt lat="47.20323" lon="-1.57118">
        <ele>53</ele>
        <time>2021-05-19T17:21:49.000Z</time>
      </trkpt>
      <trkpt lat="47.20312" lon="-1.57126">
        <ele>54</ele>
        <time>2021-05-19T17:21:51.000Z</time>
      </trkpt>
      <trkpt lat="47.20301" lon="-1.57135">
        <ele>54</ele>
        <time>2021-05-19T17:21:53.000Z</time>
      </trkpt>
      <trkpt lat="47.20291" lon="-1.57141">
        <ele>55</ele>
        <time>2021-05-19T17:21:55.000Z</time>
      </trkpt>
      <trkpt lat="47.20281" lon="-1.57147">
        <ele>55</ele>
        <time>2021-05-19T17:21:57.000Z</time>
      </trkpt>
      <trkpt lat="47.20272" lon="-1.57155">
        <ele>57</ele>
        <time>2021-05-19T17:21:59.000Z</time>
      </trkpt>
      <trkpt lat="47.20261" lon="-1.57159">
        <ele>56</ele>
        <time>2021-05-19T17:22:01.000Z</time>
      </trkpt>
      <trkpt lat="47.20244" lon="-1.5717">
        <ele>52</ele>
        <time>2021-05-19T17:22:04.000Z</time>
      </trkpt>
      <trkpt lat="47.20231" lon="-1.57176">
        <ele>52</ele>
        <time>2021-05-19T17:22:06.000Z</time>
      </trkpt>
      <trkpt lat="47.20221" lon="-1.57182">
        <ele>52</ele>
        <time>2021-05-19T17:22:08.000Z</time>
      </trkpt>
      <trkpt lat="47.20211" lon="-1.5719">
        <ele>52</ele>
        <time>2021-05-19T17:22:10.000Z</time>
      </trkpt>
      <trkpt lat="47.20201" lon="-1.57198">
        <ele>50</ele>
        <time>2021-05-19T17:22:12.000Z</time>
      </trkpt>
      <trkpt lat="47.2019" lon="-1.57206">
        <ele>50</ele>
        <time>2021-05-19T17:22:14.000Z</time>
      </trkpt>
      <trkpt lat="47.20179" lon="-1.57212">
        <ele>50</ele>
        <time>2021-05-19T17:22:16.000Z</time>
      </trkpt>
      <trkpt lat="47.20168" lon="-1.5722">
        <ele>51</ele>
        <time>2021-05-19T17:22:18.000Z</time>
      </trkpt>
      <trkpt lat="47.20157" lon="-1.57229">
        <ele>48</ele>
        <time>2021-05-19T17:22:20.000Z</time>
      </trkpt>
      <trkpt lat="47.20146" lon="-1.57233">
        <ele>50</ele>
        <time>2021-05-19T17:22:22.000Z</time>
      </trkpt>
      <trkpt lat="47.20136" lon="-1.5724">
        <ele>51</ele>
        <time>2021-05-19T17:22:24.000Z</time>
      </trkpt>
      <trkpt lat="47.20126" lon="-1.57249">
        <ele>49</ele>
        <time>2021-05-19T17:22:26.000Z</time>
      </trkpt>
      <trkpt lat="47.20115" lon="-1.57256">
        <ele>47</ele>
        <time>2021-05-19T17:22:28.000Z</time>
      </trkpt>
      <trkpt lat="47.20103" lon="-1.57262">
        <ele>49</ele>
        <time>2021-05-19T17:22:30.000Z</time>
      </trkpt>
      <trkpt lat="47.20093" lon="-1.5727">
        <ele>50</ele>
        <time>2021-05-19T17:22:32.000Z</time>
      </trkpt>
      <trkpt lat="47.20081" lon="-1.57278">
        <ele>50</ele>
        <time>2021-05-19T17:22:34.000Z</time>
      </trkpt>
      <trkpt lat="47.20071" lon="-1.57287">
        <ele>50</ele>
        <time>2021-05-19T17:22:36.000Z</time>
      </trkpt>
      <trkpt lat="47.20061" lon="-1.57296">
        <ele>51</ele>
        <time>2021-05-19T17:22:38.000Z</time>
      </trkpt>
      <trkpt lat="47.20044" lon="-1.57309">
        <ele>51</ele>
        <time>2021-05-19T17:22:41.000Z</time>
      </trkpt>
      <trkpt lat="47.20033" lon="-1.57317">
        <ele>52</ele>
        <time>2021-05-19T17:22:43.000Z</time>
      </trkpt>
      <trkpt lat="47.20022" lon="-1.57325">
        <ele>52</ele>
        <time>2021-05-19T17:22:45.000Z</time>
      </trkpt>
      <trkpt lat="47.20011" lon="-1.57332">
        <ele>53</ele>
        <time>2021-05-19T17:22:47.000Z</time>
      </trkpt>
      <trkpt lat="47.20002" lon="-1.57338">
        <ele>53</ele>
        <time>2021-05-19T17:22:49.000Z</time>
      </trkpt>
      <trkpt lat="47.1999" lon="-1.57337">
        <ele>54</ele>
        <time>2021-05-19T17:22:51.000Z</time>
      </trkpt>
      <trkpt lat="47.19978" lon="-1.57327">
        <ele>50</ele>
        <time>2021-05-19T17:22:53.000Z</time>
      </trkpt>
      <trkpt lat="47.19975" lon="-1.57293">
        <ele>49</ele>
        <time>2021-05-19T17:22:56.000Z</time>
      </trkpt>
      <trkpt lat="47.19976" lon="-1.57273">
        <ele>49</ele>
        <time>2021-05-19T17:22:58.000Z</time>
      </trkpt>
      <trkpt lat="47.19974" lon="-1.57256">
        <ele>46</ele>
        <time>2021-05-19T17:23:00.000Z</time>
      </trkpt>
      <trkpt lat="47.19975" lon="-1.5724">
        <ele>45</ele>
        <time>2021-05-19T17:23:02.000Z</time>
      </trkpt>
      <trkpt lat="47.19977" lon="-1.57215">
        <ele>46</ele>
        <time>2021-05-19T17:23:04.000Z</time>
      </trkpt>
      <trkpt lat="47.19979" lon="-1.57193">
        <ele>47</ele>
        <time>2021-05-19T17:23:06.000Z</time>
      </trkpt>
      <trkpt lat="47.19977" lon="-1.57171">
        <ele>47</ele>
        <time>2021-05-19T17:23:08.000Z</time>
      </trkpt>
      <trkpt lat="47.19974" lon="-1.57151">
        <ele>47</ele>
        <time>2021-05-19T17:23:10.000Z</time>
      </trkpt>
      <trkpt lat="47.19973" lon="-1.57128">
        <ele>49</ele>
        <time>2021-05-19T17:23:12.000Z</time>
      </trkpt>
      <trkpt lat="47.19969" lon="-1.57107">
        <ele>50</ele>
        <time>2021-05-19T17:23:14.000Z</time>
      </trkpt>
      <trkpt lat="47.19964" lon="-1.57086">
        <ele>50</ele>
        <time>2021-05-19T17:23:16.000Z</time>
      </trkpt>
      <trkpt lat="47.19959" lon="-1.57066">
        <ele>50</ele>
        <time>2021-05-19T17:23:18.000Z</time>
      </trkpt>
      <trkpt lat="47.19953" lon="-1.57046">
        <ele>50</ele>
        <time>2021-05-19T17:23:20.000Z</time>
      </trkpt>
      <trkpt lat="47.1995" lon="-1.57025">
        <ele>50</ele>
        <time>2021-05-19T17:23:22.000Z</time>
      </trkpt>
      <trkpt lat="47.1995" lon="-1.57002">
        <ele>50</ele>
        <time>2021-05-19T17:23:24.000Z</time>
      </trkpt>
      <trkpt lat="47.19951" lon="-1.5698">
        <ele>50</ele>
        <time>2021-05-19T17:23:26.000Z</time>
      </trkpt>
      <trkpt lat="47.19951" lon="-1.56958">
        <ele>50</ele>
        <time>2021-05-19T17:23:28.000Z</time>
      </trkpt>
      <trkpt lat="47.1995" lon="-1.56935">
        <ele>50</ele>
        <time>2021-05-19T17:23:30.000Z</time>
      </trkpt>
      <trkpt lat="47.1995" lon="-1.56913">
        <ele>51</ele>
        <time>2021-05-19T17:23:32.000Z</time>
      </trkpt>
      <trkpt lat="47.1995" lon="-1.56891">
        <ele>51</ele>
        <time>2021-05-19T17:23:34.000Z</time>
      </trkpt>
      <trkpt lat="47.19951" lon="-1.56868">
        <ele>51</ele>
        <time>2021-05-19T17:23:36.000Z</time>
      </trkpt>
      <trkpt lat="47.19951" lon="-1.56845">
        <ele>51</ele>
        <time>2021-05-19T17:23:38.000Z</time>
      </trkpt>
      <trkpt lat="47.19949" lon="-1.56813">
        <ele>51</ele>
        <time>2021-05-19T17:23:41.000Z</time>
      </trkpt>
      <trkpt lat="47.1995" lon="-1.56789">
        <ele>51</ele>
        <time>2021-05-19T17:23:43.000Z</time>
      </trkpt>
      <trkpt lat="47.19951" lon="-1.56767">
        <ele>52</ele>
        <time>2021-05-19T17:23:45.000Z</time>
      </trkpt>
      <trkpt lat="47.19951" lon="-1.56744">
        <ele>52</ele>
        <time>2021-05-19T17:23:47.000Z</time>
      </trkpt>
      <trkpt lat="47.19949" lon="-1.56723">
        <ele>49</ele>
        <time>2021-05-19T17:23:49.000Z</time>
      </trkpt>
      <trkpt lat="47.1995" lon="-1.56701">
        <ele>50</ele>
        <time>2021-05-19T17:23:51.000Z</time>
      </trkpt>
      <trkpt lat="47.19951" lon="-1.5668">
        <ele>50</ele>
        <time>2021-05-19T17:23:53.000Z</time>
      </trkpt>
      <trkpt lat="47.19951" lon="-1.56658">
        <ele>51</ele>
        <time>2021-05-19T17:23:55.000Z</time>
      </trkpt>
      <trkpt lat="47.19952" lon="-1.56636">
        <ele>51</ele>
        <time>2021-05-19T17:23:57.000Z</time>
      </trkpt>
      <trkpt lat="47.19952" lon="-1.56615">
        <ele>51</ele>
        <time>2021-05-19T17:23:59.000Z</time>
      </trkpt>
      <trkpt lat="47.19951" lon="-1.56593">
        <ele>51</ele>
        <time>2021-05-19T17:24:01.000Z</time>
      </trkpt>
      <trkpt lat="47.19951" lon="-1.56572">
        <ele>52</ele>
        <time>2021-05-19T17:24:03.000Z</time>
      </trkpt>
      <trkpt lat="47.19951" lon="-1.56552">
        <ele>52</ele>
        <time>2021-05-19T17:24:05.000Z</time>
      </trkpt>
      <trkpt lat="47.19952" lon="-1.56531">
        <ele>52</ele>
        <time>2021-05-19T17:24:07.000Z</time>
      </trkpt>
      <trkpt lat="47.19952" lon="-1.56511">
        <ele>53</ele>
        <time>2021-05-19T17:24:09.000Z</time>
      </trkpt>
      <trkpt lat="47.19953" lon="-1.5649">
        <ele>52</ele>
        <time>2021-05-19T17:24:11.000Z</time>
      </trkpt>
      <trkpt lat="47.19955" lon="-1.5647">
        <ele>53</ele>
        <time>2021-05-19T17:24:13.000Z</time>
      </trkpt>
      <trkpt lat="47.19959" lon="-1.56448">
        <ele>53</ele>
        <time>2021-05-19T17:24:15.000Z</time>
      </trkpt>
      <trkpt lat="47.19963" lon="-1.56429">
        <ele>53</ele>
        <time>2021-05-19T17:24:17.000Z</time>
      </trkpt>
      <trkpt lat="47.19967" lon="-1.56409">
        <ele>53</ele>
        <time>2021-05-19T17:24:19.000Z</time>
      </trkpt>
      <trkpt lat="47.19969" lon="-1.56387">
        <ele>51</ele>
        <time>2021-05-19T17:24:21.000Z</time>
      </trkpt>
      <trkpt lat="47.19971" lon="-1.56366">
        <ele>52</ele>
        <time>2021-05-19T17:24:23.000Z</time>
      </trkpt>
      <trkpt lat="47.19972" lon="-1.56345">
        <ele>52</ele>
        <time>2021-05-19T17:24:25.000Z</time>
      </trkpt>
      <trkpt lat="47.19974" lon="-1.56325">
        <ele>51</ele>
        <time>2021-05-19T17:24:27.000Z</time>
      </trkpt>
      <trkpt lat="47.19975" lon="-1.56305">
        <ele>50</ele>
        <time>2021-05-19T17:24:29.000Z</time>
      </trkpt>
      <trkpt lat="47.19977" lon="-1.56285">
        <ele>51</ele>
        <time>2021-05-19T17:24:31.000Z</time>
      </trkpt>
      <trkpt lat="47.19977" lon="-1.56266">
        <ele>52</ele>
        <time>2021-05-19T17:24:33.000Z</time>
      </trkpt>
      <trkpt lat="47.19976" lon="-1.56248">
        <ele>48</ele>
        <time>2021-05-19T17:24:35.000Z</time>
      </trkpt>
      <trkpt lat="47.19976" lon="-1.5623">
        <ele>49</ele>
        <time>2021-05-19T17:24:37.000Z</time>
      </trkpt>
      <trkpt lat="47.19975" lon="-1.56214">
        <ele>50</ele>
        <time>2021-05-19T17:24:39.000Z</time>
      </trkpt>
      <trkpt lat="47.19976" lon="-1.56197">
        <ele>51</ele>
        <time>2021-05-19T17:24:41.000Z</time>
      </trkpt>
      <trkpt lat="47.19974" lon="-1.56182">
        <ele>50</ele>
        <time>2021-05-19T17:24:43.000Z</time>
      </trkpt>
      <trkpt lat="47.19966" lon="-1.56167">
        <ele>53</ele>
        <time>2021-05-19T17:24:46.000Z</time>
      </trkpt>
      <trkpt lat="47.19953" lon="-1.56168">
        <ele>54</ele>
        <time>2021-05-19T17:24:48.000Z</time>
      </trkpt>
      <trkpt lat="47.1994" lon="-1.5617">
        <ele>56</ele>
        <time>2021-05-19T17:24:50.000Z</time>
      </trkpt>
      <trkpt lat="47.19926" lon="-1.56173">
        <ele>57</ele>
        <time>2021-05-19T17:24:52.000Z</time>
      </trkpt>
      <trkpt lat="47.19907" lon="-1.56179">
        <ele>57</ele>
        <time>2021-05-19T17:24:55.000Z</time>
      </trkpt>
      <trkpt lat="47.19893" lon="-1.56183">
        <ele>56</ele>
        <time>2021-05-19T17:24:57.000Z</time>
      </trkpt>
      <trkpt lat="47.1988" lon="-1.56185">
        <ele>57</ele>
        <time>2021-05-19T17:24:59.000Z</time>
      </trkpt>
      <trkpt lat="47.19866" lon="-1.56187">
        <ele>57</ele>
        <time>2021-05-19T17:25:01.000Z</time>
      </trkpt>
      <trkpt lat="47.19852" lon="-1.56188">
        <ele>59</ele>
        <time>2021-05-19T17:25:03.000Z</time>
      </trkpt>
      <trkpt lat="47.19838" lon="-1.56191">
        <ele>60</ele>
        <time>2021-05-19T17:25:05.000Z</time>
      </trkpt>
      <trkpt lat="47.19824" lon="-1.56196">
        <ele>57</ele>
        <time>2021-05-19T17:25:07.000Z</time>
      </trkpt>
      <trkpt lat="47.19811" lon="-1.562">
        <ele>56</ele>
        <time>2021-05-19T17:25:09.000Z</time>
      </trkpt>
      <trkpt lat="47.19792" lon="-1.562">
        <ele>58</ele>
        <time>2021-05-19T17:25:12.000Z</time>
      </trkpt>
      <trkpt lat="47.19779" lon="-1.56202">
        <ele>59</ele>
        <time>2021-05-19T17:25:14.000Z</time>
      </trkpt>
      <trkpt lat="47.19766" lon="-1.56204">
        <ele>58</ele>
        <time>2021-05-19T17:25:16.000Z</time>
      </trkpt>
      <trkpt lat="47.19753" lon="-1.56206">
        <ele>58</ele>
        <time>2021-05-19T17:25:18.000Z</time>
      </trkpt>
      <trkpt lat="47.19739" lon="-1.56208">
        <ele>57</ele>
        <time>2021-05-19T17:25:20.000Z</time>
      </trkpt>
      <trkpt lat="47.19725" lon="-1.56212">
        <ele>56</ele>
        <time>2021-05-19T17:25:22.000Z</time>
      </trkpt>
      <trkpt lat="47.1971" lon="-1.56215">
        <ele>56</ele>
        <time>2021-05-19T17:25:24.000Z</time>
      </trkpt>
      <trkpt lat="47.19695" lon="-1.56218">
        <ele>55</ele>
        <time>2021-05-19T17:25:26.000Z</time>
      </trkpt>
      <trkpt lat="47.19671" lon="-1.56222">
        <ele>54</ele>
        <time>2021-05-19T17:25:29.000Z</time>
      </trkpt>
      <trkpt lat="47.19656" lon="-1.56229">
        <ele>54</ele>
        <time>2021-05-19T17:25:31.000Z</time>
      </trkpt>
      <trkpt lat="47.19643" lon="-1.56235">
        <ele>53</ele>
        <time>2021-05-19T17:25:33.000Z</time>
      </trkpt>
      <trkpt lat="47.19635" lon="-1.56257">
        <ele>52</ele>
        <time>2021-05-19T17:25:35.000Z</time>
      </trkpt>
      <trkpt lat="47.19633" lon="-1.5628">
        <ele>52</ele>
        <time>2021-05-19T17:25:37.000Z</time>
      </trkpt>
      <trkpt lat="47.19633" lon="-1.56302">
        <ele>50</ele>
        <time>2021-05-19T17:25:39.000Z</time>
      </trkpt>
      <trkpt lat="47.19631" lon="-1.56325">
        <ele>48</ele>
        <time>2021-05-19T17:25:41.000Z</time>
      </trkpt>
      <trkpt lat="47.1963" lon="-1.56346">
        <ele>49</ele>
        <time>2021-05-19T17:25:43.000Z</time>
      </trkpt>
      <trkpt lat="47.1963" lon="-1.56368">
        <ele>50</ele>
        <time>2021-05-19T17:25:45.000Z</time>
      </trkpt>
      <trkpt lat="47.19631" lon="-1.56399">
        <ele>49</ele>
        <time>2021-05-19T17:25:48.000Z</time>
      </trkpt>
      <trkpt lat="47.19633" lon="-1.56422">
        <ele>49</ele>
        <time>2021-05-19T17:25:50.000Z</time>
      </trkpt>
      <trkpt lat="47.19634" lon="-1.56443">
        <ele>51</ele>
        <time>2021-05-19T17:25:52.000Z</time>
      </trkpt>
      <trkpt lat="47.19633" lon="-1.56461">
        <ele>51</ele>
        <time>2021-05-19T17:25:54.000Z</time>
      </trkpt>
      <trkpt lat="47.19633" lon="-1.5648">
        <ele>51</ele>
        <time>2021-05-19T17:25:56.000Z</time>
      </trkpt>
      <trkpt lat="47.19633" lon="-1.565">
        <ele>52</ele>
        <time>2021-05-19T17:25:58.000Z</time>
      </trkpt>
      <trkpt lat="47.19633" lon="-1.56519">
        <ele>52</ele>
        <time>2021-05-19T17:26:00.000Z</time>
      </trkpt>
      <trkpt lat="47.19633" lon="-1.56539">
        <ele>52</ele>
        <time>2021-05-19T17:26:02.000Z</time>
      </trkpt>
      <trkpt lat="47.19633" lon="-1.56559">
        <ele>53</ele>
        <time>2021-05-19T17:26:04.000Z</time>
      </trkpt>
      <trkpt lat="47.19632" lon="-1.56579">
        <ele>53</ele>
        <time>2021-05-19T17:26:06.000Z</time>
      </trkpt>
      <trkpt lat="47.19631" lon="-1.56598">
        <ele>53</ele>
        <time>2021-05-19T17:26:08.000Z</time>
      </trkpt>
      <trkpt lat="47.1963" lon="-1.56618">
        <ele>53</ele>
        <time>2021-05-19T17:26:10.000Z</time>
      </trkpt>
      <trkpt lat="47.19629" lon="-1.56637">
        <ele>53</ele>
        <time>2021-05-19T17:26:12.000Z</time>
      </trkpt>
      <trkpt lat="47.19629" lon="-1.56656">
        <ele>51</ele>
        <time>2021-05-19T17:26:14.000Z</time>
      </trkpt>
      <trkpt lat="47.19631" lon="-1.56675">
        <ele>50</ele>
        <time>2021-05-19T17:26:16.000Z</time>
      </trkpt>
      <trkpt lat="47.19631" lon="-1.56694">
        <ele>52</ele>
        <time>2021-05-19T17:26:18.000Z</time>
      </trkpt>
      <trkpt lat="47.19632" lon="-1.56713">
        <ele>52</ele>
        <time>2021-05-19T17:26:20.000Z</time>
      </trkpt>
      <trkpt lat="47.19628" lon="-1.5673">
        <ele>53</ele>
        <time>2021-05-19T17:26:22.000Z</time>
      </trkpt>
      <trkpt lat="47.19625" lon="-1.5675">
        <ele>53</ele>
        <time>2021-05-19T17:26:24.000Z</time>
      </trkpt>
      <trkpt lat="47.19624" lon="-1.56772">
        <ele>54</ele>
        <time>2021-05-19T17:26:26.000Z</time>
      </trkpt>
      <trkpt lat="47.19622" lon="-1.56793">
        <ele>52</ele>
        <time>2021-05-19T17:26:28.000Z</time>
      </trkpt>
      <trkpt lat="47.1962" lon="-1.56811">
        <ele>52</ele>
        <time>2021-05-19T17:26:30.000Z</time>
      </trkpt>
      <trkpt lat="47.19618" lon="-1.56831">
        <ele>52</ele>
        <time>2021-05-19T17:26:32.000Z</time>
      </trkpt>
      <trkpt lat="47.19617" lon="-1.56851">
        <ele>52</ele>
        <time>2021-05-19T17:26:34.000Z</time>
      </trkpt>
      <trkpt lat="47.19618" lon="-1.56875">
        <ele>51</ele>
        <time>2021-05-19T17:26:37.000Z</time>
      </trkpt>
      <trkpt lat="47.19615" lon="-1.56897">
        <ele>52</ele>
        <time>2021-05-19T17:26:39.000Z</time>
      </trkpt>
      <trkpt lat="47.19614" lon="-1.56917">
        <ele>53</ele>
        <time>2021-05-19T17:26:41.000Z</time>
      </trkpt>
      <trkpt lat="47.19612" lon="-1.56941">
        <ele>50</ele>
        <time>2021-05-19T17:26:43.000Z</time>
      </trkpt>
      <trkpt lat="47.1961" lon="-1.56961">
        <ele>48</ele>
        <time>2021-05-19T17:26:45.000Z</time>
      </trkpt>
      <trkpt lat="47.19608" lon="-1.56978">
        <ele>49</ele>
        <time>2021-05-19T17:26:47.000Z</time>
      </trkpt>
      <trkpt lat="47.19607" lon="-1.56998">
        <ele>50</ele>
        <time>2021-05-19T17:26:49.000Z</time>
      </trkpt>
      <trkpt lat="47.19606" lon="-1.57017">
        <ele>49</ele>
        <time>2021-05-19T17:26:51.000Z</time>
      </trkpt>
      <trkpt lat="47.19605" lon="-1.57034">
        <ele>48</ele>
        <time>2021-05-19T17:26:53.000Z</time>
      </trkpt>
      <trkpt lat="47.19604" lon="-1.57054">
        <ele>49</ele>
        <time>2021-05-19T17:26:55.000Z</time>
      </trkpt>
      <trkpt lat="47.19602" lon="-1.57074">
        <ele>50</ele>
        <time>2021-05-19T17:26:57.000Z</time>
      </trkpt>
      <trkpt lat="47.19602" lon="-1.57093">
        <ele>47</ele>
        <time>2021-05-19T17:26:59.000Z</time>
      </trkpt>
      <trkpt lat="47.19604" lon="-1.57112">
        <ele>47</ele>
        <time>2021-05-19T17:27:01.000Z</time>
      </trkpt>
      <trkpt lat="47.19603" lon="-1.57129">
        <ele>48</ele>
        <time>2021-05-19T17:27:03.000Z</time>
      </trkpt>
      <trkpt lat="47.196" lon="-1.57149">
        <ele>48</ele>
        <time>2021-05-19T17:27:05.000Z</time>
      </trkpt>
      <trkpt lat="47.196" lon="-1.57166">
        <ele>46</ele>
        <time>2021-05-19T17:27:07.000Z</time>
      </trkpt>
      <trkpt lat="47.19603" lon="-1.57182">
        <ele>46</ele>
        <time>2021-05-19T17:27:09.000Z</time>
      </trkpt>
      <trkpt lat="47.19601" lon="-1.57202">
        <ele>48</ele>
        <time>2021-05-19T17:27:11.000Z</time>
      </trkpt>
      <trkpt lat="47.19598" lon="-1.57221">
        <ele>48</ele>
        <time>2021-05-19T17:27:13.000Z</time>
      </trkpt>
      <trkpt lat="47.19594" lon="-1.5724">
        <ele>47</ele>
        <time>2021-05-19T17:27:15.000Z</time>
      </trkpt>
      <trkpt lat="47.19591" lon="-1.57259">
        <ele>48</ele>
        <time>2021-05-19T17:27:17.000Z</time>
      </trkpt>
      <trkpt lat="47.19591" lon="-1.57279">
        <ele>49</ele>
        <time>2021-05-19T17:27:19.000Z</time>
      </trkpt>
      <trkpt lat="47.1959" lon="-1.57296">
        <ele>50</ele>
        <time>2021-05-19T17:27:21.000Z</time>
      </trkpt>
      <trkpt lat="47.19589" lon="-1.57313">
        <ele>50</ele>
        <time>2021-05-19T17:27:23.000Z</time>
      </trkpt>
      <trkpt lat="47.19586" lon="-1.5733">
        <ele>50</ele>
        <time>2021-05-19T17:27:25.000Z</time>
      </trkpt>
      <trkpt lat="47.19582" lon="-1.57347">
        <ele>50</ele>
        <time>2021-05-19T17:27:27.000Z</time>
      </trkpt>
      <trkpt lat="47.19578" lon="-1.57364">
        <ele>51</ele>
        <time>2021-05-19T17:27:29.000Z</time>
      </trkpt>
      <trkpt lat="47.19574" lon="-1.57381">
        <ele>51</ele>
        <time>2021-05-19T17:27:31.000Z</time>
      </trkpt>
      <trkpt lat="47.1957" lon="-1.57398">
        <ele>51</ele>
        <time>2021-05-19T17:27:33.000Z</time>
      </trkpt>
      <trkpt lat="47.19565" lon="-1.57417">
        <ele>52</ele>
        <time>2021-05-19T17:27:35.000Z</time>
      </trkpt>
      <trkpt lat="47.19562" lon="-1.57436">
        <ele>51</ele>
        <time>2021-05-19T17:27:37.000Z</time>
      </trkpt>
      <trkpt lat="47.19561" lon="-1.57452">
        <ele>48</ele>
        <time>2021-05-19T17:27:39.000Z</time>
      </trkpt>
      <trkpt lat="47.19558" lon="-1.5747">
        <ele>49</ele>
        <time>2021-05-19T17:27:41.000Z</time>
      </trkpt>
      <trkpt lat="47.19555" lon="-1.57489">
        <ele>50</ele>
        <time>2021-05-19T17:27:43.000Z</time>
      </trkpt>
      <trkpt lat="47.19547" lon="-1.57517">
        <ele>46</ele>
        <time>2021-05-19T17:27:46.000Z</time>
      </trkpt>
      <trkpt lat="47.19544" lon="-1.57535">
        <ele>45</ele>
        <time>2021-05-19T17:27:48.000Z</time>
      </trkpt>
      <trkpt lat="47.19539" lon="-1.57554">
        <ele>45</ele>
        <time>2021-05-19T17:27:50.000Z</time>
      </trkpt>
      <trkpt lat="47.19535" lon="-1.57572">
        <ele>47</ele>
        <time>2021-05-19T17:27:52.000Z</time>
      </trkpt>
      <trkpt lat="47.19532" lon="-1.57591">
        <ele>49</ele>
        <time>2021-05-19T17:27:54.000Z</time>
      </trkpt>
      <trkpt lat="47.19529" lon="-1.57608">
        <ele>49</ele>
        <time>2021-05-19T17:27:56.000Z</time>
      </trkpt>
      <trkpt lat="47.19523" lon="-1.57633">
        <ele>50</ele>
        <time>2021-05-19T17:27:59.000Z</time>
      </trkpt>
      <trkpt lat="47.1952" lon="-1.5765">
        <ele>51</ele>
        <time>2021-05-19T17:28:01.000Z</time>
      </trkpt>
      <trkpt lat="47.19517" lon="-1.57667">
        <ele>51</ele>
        <time>2021-05-19T17:28:03.000Z</time>
      </trkpt>
      <trkpt lat="47.19513" lon="-1.57684">
        <ele>51</ele>
        <time>2021-05-19T17:28:05.000Z</time>
      </trkpt>
      <trkpt lat="47.1951" lon="-1.57703">
        <ele>52</ele>
        <time>2021-05-19T17:28:07.000Z</time>
      </trkpt>
      <trkpt lat="47.19507" lon="-1.5772">
        <ele>52</ele>
        <time>2021-05-19T17:28:09.000Z</time>
      </trkpt>
      <trkpt lat="47.19505" lon="-1.57738">
        <ele>52</ele>
        <time>2021-05-19T17:28:11.000Z</time>
      </trkpt>
      <trkpt lat="47.19501" lon="-1.57752">
        <ele>52</ele>
        <time>2021-05-19T17:28:13.000Z</time>
      </trkpt>
      <trkpt lat="47.19498" lon="-1.57769">
        <ele>52</ele>
        <time>2021-05-19T17:28:15.000Z</time>
      </trkpt>
      <trkpt lat="47.19494" lon="-1.57785">
        <ele>50</ele>
        <time>2021-05-19T17:28:17.000Z</time>
      </trkpt>
      <trkpt lat="47.19492" lon="-1.57801">
        <ele>49</ele>
        <time>2021-05-19T17:28:19.000Z</time>
      </trkpt>
      <trkpt lat="47.19488" lon="-1.57816">
        <ele>50</ele>
        <time>2021-05-19T17:28:21.000Z</time>
      </trkpt>
      <trkpt lat="47.19486" lon="-1.57831">
        <ele>51</ele>
        <time>2021-05-19T17:28:23.000Z</time>
      </trkpt>
      <trkpt lat="47.19484" lon="-1.57848">
        <ele>51</ele>
        <time>2021-05-19T17:28:25.000Z</time>
      </trkpt>
      <trkpt lat="47.19482" lon="-1.57864">
        <ele>52</ele>
        <time>2021-05-19T17:28:27.000Z</time>
      </trkpt>
      <trkpt lat="47.19481" lon="-1.57884">
        <ele>50</ele>
        <time>2021-05-19T17:28:29.000Z</time>
      </trkpt>
      <trkpt lat="47.19478" lon="-1.57902">
        <ele>50</ele>
        <time>2021-05-19T17:28:31.000Z</time>
      </trkpt>
      <trkpt lat="47.19474" lon="-1.57918">
        <ele>50</ele>
        <time>2021-05-19T17:28:33.000Z</time>
      </trkpt>
      <trkpt lat="47.19472" lon="-1.57935">
        <ele>48</ele>
        <time>2021-05-19T17:28:35.000Z</time>
      </trkpt>
      <trkpt lat="47.19473" lon="-1.57951">
        <ele>46</ele>
        <time>2021-05-19T17:28:37.000Z</time>
      </trkpt>
      <trkpt lat="47.19471" lon="-1.57967">
        <ele>47</ele>
        <time>2021-05-19T17:28:39.000Z</time>
      </trkpt>
      <trkpt lat="47.19467" lon="-1.57984">
        <ele>49</ele>
        <time>2021-05-19T17:28:41.000Z</time>
      </trkpt>
      <trkpt lat="47.19465" lon="-1.58003">
        <ele>50</ele>
        <time>2021-05-19T17:28:43.000Z</time>
      </trkpt>
      <trkpt lat="47.19464" lon="-1.58022">
        <ele>47</ele>
        <time>2021-05-19T17:28:45.000Z</time>
      </trkpt>
      <trkpt lat="47.19463" lon="-1.5804">
        <ele>48</ele>
        <time>2021-05-19T17:28:47.000Z</time>
      </trkpt>
      <trkpt lat="47.1946" lon="-1.58056">
        <ele>49</ele>
        <time>2021-05-19T17:28:49.000Z</time>
      </trkpt>
      <trkpt lat="47.19458" lon="-1.58071">
        <ele>49</ele>
        <time>2021-05-19T17:28:51.000Z</time>
      </trkpt>
      <trkpt lat="47.19457" lon="-1.58086">
        <ele>49</ele>
        <time>2021-05-19T17:28:53.000Z</time>
      </trkpt>
      <trkpt lat="47.19453" lon="-1.58099">
        <ele>48</ele>
        <time>2021-05-19T17:28:55.000Z</time>
      </trkpt>
      <trkpt lat="47.19444" lon="-1.58109">
        <ele>49</ele>
        <time>2021-05-19T17:28:57.000Z</time>
      </trkpt>
      <trkpt lat="47.19433" lon="-1.58122">
        <ele>50</ele>
        <time>2021-05-19T17:28:59.000Z</time>
      </trkpt>
      <trkpt lat="47.19423" lon="-1.58133">
        <ele>51</ele>
        <time>2021-05-19T17:29:01.000Z</time>
      </trkpt>
      <trkpt lat="47.19413" lon="-1.58145">
        <ele>52</ele>
        <time>2021-05-19T17:29:03.000Z</time>
      </trkpt>
      <trkpt lat="47.19405" lon="-1.58157">
        <ele>53</ele>
        <time>2021-05-19T17:29:05.000Z</time>
      </trkpt>
      <trkpt lat="47.19398" lon="-1.58171">
        <ele>52</ele>
        <time>2021-05-19T17:29:07.000Z</time>
      </trkpt>
      <trkpt lat="47.19392" lon="-1.58185">
        <ele>52</ele>
        <time>2021-05-19T17:29:09.000Z</time>
      </trkpt>
      <trkpt lat="47.19383" lon="-1.58207">
        <ele>53</ele>
        <time>2021-05-19T17:29:12.000Z</time>
      </trkpt>
      <trkpt lat="47.19377" lon="-1.58222">
        <ele>52</ele>
        <time>2021-05-19T17:29:14.000Z</time>
      </trkpt>
      <trkpt lat="47.19372" lon="-1.58235">
        <ele>52</ele>
        <time>2021-05-19T17:29:16.000Z</time>
      </trkpt>
      <trkpt lat="47.19366" lon="-1.58251">
        <ele>52</ele>
        <time>2021-05-19T17:29:18.000Z</time>
      </trkpt>
      <trkpt lat="47.19352" lon="-1.58278">
        <ele>52</ele>
        <time>2021-05-19T17:29:22.000Z</time>
      </trkpt>
      <trkpt lat="47.19344" lon="-1.58289">
        <ele>52</ele>
        <time>2021-05-19T17:29:24.000Z</time>
      </trkpt>
      <trkpt lat="47.19335" lon="-1.58299">
        <ele>52</ele>
        <time>2021-05-19T17:29:26.000Z</time>
      </trkpt>
      <trkpt lat="47.19324" lon="-1.58309">
        <ele>52</ele>
        <time>2021-05-19T17:29:28.000Z</time>
      </trkpt>
      <trkpt lat="47.19314" lon="-1.58318">
        <ele>52</ele>
        <time>2021-05-19T17:29:30.000Z</time>
      </trkpt>
      <trkpt lat="47.19304" lon="-1.58327">
        <ele>52</ele>
        <time>2021-05-19T17:29:32.000Z</time>
      </trkpt>
      <trkpt lat="47.19297" lon="-1.58335">
        <ele>53</ele>
        <time>2021-05-19T17:29:34.000Z</time>
      </trkpt>
      <trkpt lat="47.19288" lon="-1.58341">
        <ele>53</ele>
        <time>2021-05-19T17:29:37.000Z</time>
      </trkpt>
      <trkpt lat="47.1928" lon="-1.58348">
        <ele>53</ele>
        <time>2021-05-19T17:29:40.000Z</time>
      </trkpt>
      <trkpt lat="47.19267" lon="-1.5836">
        <ele>53</ele>
        <time>2021-05-19T17:29:43.000Z</time>
      </trkpt>
      <trkpt lat="47.19257" lon="-1.58369">
        <ele>54</ele>
        <time>2021-05-19T17:29:45.000Z</time>
      </trkpt>
      <trkpt lat="47.19248" lon="-1.58378">
        <ele>54</ele>
        <time>2021-05-19T17:29:47.000Z</time>
      </trkpt>
      <trkpt lat="47.19238" lon="-1.58387">
        <ele>54</ele>
        <time>2021-05-19T17:29:49.000Z</time>
      </trkpt>
      <trkpt lat="47.19229" lon="-1.58396">
        <ele>54</ele>
        <time>2021-05-19T17:29:51.000Z</time>
      </trkpt>
      <trkpt lat="47.19219" lon="-1.58405">
        <ele>53</ele>
        <time>2021-05-19T17:29:53.000Z</time>
      </trkpt>
      <trkpt lat="47.19209" lon="-1.58413">
        <ele>54</ele>
        <time>2021-05-19T17:29:55.000Z</time>
      </trkpt>
      <trkpt lat="47.19199" lon="-1.58423">
        <ele>54</ele>
        <time>2021-05-19T17:29:57.000Z</time>
      </trkpt>
      <trkpt lat="47.19189" lon="-1.58432">
        <ele>54</ele>
        <time>2021-05-19T17:29:59.000Z</time>
      </trkpt>
      <trkpt lat="47.19179" lon="-1.58441">
        <ele>54</ele>
        <time>2021-05-19T17:30:01.000Z</time>
      </trkpt>
      <trkpt lat="47.1917" lon="-1.58451">
        <ele>53</ele>
        <time>2021-05-19T17:30:03.000Z</time>
      </trkpt>
      <trkpt lat="47.19161" lon="-1.5846">
        <ele>54</ele>
        <time>2021-05-19T17:30:05.000Z</time>
      </trkpt>
      <trkpt lat="47.19153" lon="-1.58469">
        <ele>53</ele>
        <time>2021-05-19T17:30:07.000Z</time>
      </trkpt>
      <trkpt lat="47.19145" lon="-1.58476">
        <ele>53</ele>
        <time>2021-05-19T17:30:09.000Z</time>
      </trkpt>
      <trkpt lat="47.19136" lon="-1.58485">
        <ele>54</ele>
        <time>2021-05-19T17:30:11.000Z</time>
      </trkpt>
      <trkpt lat="47.19122" lon="-1.58501">
        <ele>51</ele>
        <time>2021-05-19T17:30:14.000Z</time>
      </trkpt>
      <trkpt lat="47.19112" lon="-1.58509">
        <ele>52</ele>
        <time>2021-05-19T17:30:16.000Z</time>
      </trkpt>
      <trkpt lat="47.19102" lon="-1.58519">
        <ele>52</ele>
        <time>2021-05-19T17:30:18.000Z</time>
      </trkpt>
      <trkpt lat="47.19092" lon="-1.58527">
        <ele>52</ele>
        <time>2021-05-19T17:30:20.000Z</time>
      </trkpt>
      <trkpt lat="47.19083" lon="-1.58536">
        <ele>52</ele>
        <time>2021-05-19T17:30:22.000Z</time>
      </trkpt>
      <trkpt lat="47.19072" lon="-1.58545">
        <ele>52</ele>
        <time>2021-05-19T17:30:24.000Z</time>
      </trkpt>
      <trkpt lat="47.19062" lon="-1.58555">
        <ele>50</ele>
        <time>2021-05-19T17:30:26.000Z</time>
      </trkpt>
      <trkpt lat="47.19054" lon="-1.58566">
        <ele>49</ele>
        <time>2021-05-19T17:30:28.000Z</time>
      </trkpt>
      <trkpt lat="47.19044" lon="-1.58576">
        <ele>51</ele>
        <time>2021-05-19T17:30:30.000Z</time>
      </trkpt>
      <trkpt lat="47.19034" lon="-1.58587">
        <ele>51</ele>
        <time>2021-05-19T17:30:32.000Z</time>
      </trkpt>
      <trkpt lat="47.19024" lon="-1.58598">
        <ele>52</ele>
        <time>2021-05-19T17:30:34.000Z</time>
      </trkpt>
      <trkpt lat="47.19013" lon="-1.58609">
        <ele>53</ele>
        <time>2021-05-19T17:30:36.000Z</time>
      </trkpt>
      <trkpt lat="47.19002" lon="-1.5862">
        <ele>52</ele>
        <time>2021-05-19T17:30:38.000Z</time>
      </trkpt>
      <trkpt lat="47.18991" lon="-1.5863">
        <ele>54</ele>
        <time>2021-05-19T17:30:40.000Z</time>
      </trkpt>
      <trkpt lat="47.1898" lon="-1.58641">
        <ele>54</ele>
        <time>2021-05-19T17:30:42.000Z</time>
      </trkpt>
      <trkpt lat="47.1897" lon="-1.58651">
        <ele>54</ele>
        <time>2021-05-19T17:30:44.000Z</time>
      </trkpt>
      <trkpt lat="47.18959" lon="-1.58661">
        <ele>55</ele>
        <time>2021-05-19T17:30:46.000Z</time>
      </trkpt>
      <trkpt lat="47.1895" lon="-1.58671">
        <ele>55</ele>
        <time>2021-05-19T17:30:48.000Z</time>
      </trkpt>
      <trkpt lat="47.1894" lon="-1.5868">
        <ele>54</ele>
        <time>2021-05-19T17:30:50.000Z</time>
      </trkpt>
      <trkpt lat="47.18931" lon="-1.5869">
        <ele>52</ele>
        <time>2021-05-19T17:30:52.000Z</time>
      </trkpt>
      <trkpt lat="47.18921" lon="-1.58699">
        <ele>51</ele>
        <time>2021-05-19T17:30:54.000Z</time>
      </trkpt>
      <trkpt lat="47.18905" lon="-1.58711">
        <ele>51</ele>
        <time>2021-05-19T17:30:57.000Z</time>
      </trkpt>
      <trkpt lat="47.18894" lon="-1.58718">
        <ele>51</ele>
        <time>2021-05-19T17:30:59.000Z</time>
      </trkpt>
      <trkpt lat="47.18883" lon="-1.58724">
        <ele>51</ele>
        <time>2021-05-19T17:31:01.000Z</time>
      </trkpt>
      <trkpt lat="47.18872" lon="-1.58728">
        <ele>52</ele>
        <time>2021-05-19T17:31:03.000Z</time>
      </trkpt>
      <trkpt lat="47.18861" lon="-1.58731">
        <ele>52</ele>
        <time>2021-05-19T17:31:05.000Z</time>
      </trkpt>
      <trkpt lat="47.1885" lon="-1.5874">
        <ele>53</ele>
        <time>2021-05-19T17:31:07.000Z</time>
      </trkpt>
      <trkpt lat="47.1884" lon="-1.58747">
        <ele>53</ele>
        <time>2021-05-19T17:31:09.000Z</time>
      </trkpt>
      <trkpt lat="47.18833" lon="-1.58759">
        <ele>53</ele>
        <time>2021-05-19T17:31:11.000Z</time>
      </trkpt>
      <trkpt lat="47.1883" lon="-1.58775">
        <ele>53</ele>
        <time>2021-05-19T17:31:13.000Z</time>
      </trkpt>
      <trkpt lat="47.18825" lon="-1.58789">
        <ele>54</ele>
        <time>2021-05-19T17:31:15.000Z</time>
      </trkpt>
      <trkpt lat="47.18817" lon="-1.588">
        <ele>54</ele>
        <time>2021-05-19T17:31:17.000Z</time>
      </trkpt>
      <trkpt lat="47.18807" lon="-1.58809">
        <ele>54</ele>
        <time>2021-05-19T17:31:19.000Z</time>
      </trkpt>
      <trkpt lat="47.18792" lon="-1.58821">
        <ele>54</ele>
        <time>2021-05-19T17:31:22.000Z</time>
      </trkpt>
      <trkpt lat="47.18788" lon="-1.58836">
        <ele>53</ele>
        <time>2021-05-19T17:31:24.000Z</time>
      </trkpt>
      <trkpt lat="47.18784" lon="-1.58853">
        <ele>52</ele>
        <time>2021-05-19T17:31:26.000Z</time>
      </trkpt>
      <trkpt lat="47.18781" lon="-1.58872">
        <ele>49</ele>
        <time>2021-05-19T17:31:28.000Z</time>
      </trkpt>
      <trkpt lat="47.18776" lon="-1.5889">
        <ele>49</ele>
        <time>2021-05-19T17:31:30.000Z</time>
      </trkpt>
      <trkpt lat="47.18774" lon="-1.58905">
        <ele>49</ele>
        <time>2021-05-19T17:31:32.000Z</time>
      </trkpt>
      <trkpt lat="47.18773" lon="-1.58922">
        <ele>51</ele>
        <time>2021-05-19T17:31:34.000Z</time>
      </trkpt>
      <trkpt lat="47.18772" lon="-1.58943">
        <ele>49</ele>
        <time>2021-05-19T17:31:36.000Z</time>
      </trkpt>
      <trkpt lat="47.18768" lon="-1.5896">
        <ele>49</ele>
        <time>2021-05-19T17:31:38.000Z</time>
      </trkpt>
      <trkpt lat="47.18766" lon="-1.58975">
        <ele>50</ele>
        <time>2021-05-19T17:31:40.000Z</time>
      </trkpt>
      <trkpt lat="47.18765" lon="-1.58989">
        <ele>52</ele>
        <time>2021-05-19T17:31:42.000Z</time>
      </trkpt>
      <trkpt lat="47.18763" lon="-1.59005">
        <ele>53</ele>
        <time>2021-05-19T17:31:44.000Z</time>
      </trkpt>
      <trkpt lat="47.18761" lon="-1.59023">
        <ele>53</ele>
        <time>2021-05-19T17:31:46.000Z</time>
      </trkpt>
      <trkpt lat="47.1876" lon="-1.59038">
        <ele>54</ele>
        <time>2021-05-19T17:31:48.000Z</time>
      </trkpt>
      <trkpt lat="47.18759" lon="-1.59055">
        <ele>54</ele>
        <time>2021-05-19T17:31:50.000Z</time>
      </trkpt>
      <trkpt lat="47.18757" lon="-1.5907">
        <ele>54</ele>
        <time>2021-05-19T17:31:52.000Z</time>
      </trkpt>
      <trkpt lat="47.18755" lon="-1.59087">
        <ele>54</ele>
        <time>2021-05-19T17:31:54.000Z</time>
      </trkpt>
      <trkpt lat="47.18754" lon="-1.59103">
        <ele>54</ele>
        <time>2021-05-19T17:31:56.000Z</time>
      </trkpt>
      <trkpt lat="47.18752" lon="-1.59119">
        <ele>54</ele>
        <time>2021-05-19T17:31:58.000Z</time>
      </trkpt>
      <trkpt lat="47.18751" lon="-1.59135">
        <ele>54</ele>
        <time>2021-05-19T17:32:00.000Z</time>
      </trkpt>
      <trkpt lat="47.18749" lon="-1.59151">
        <ele>54</ele>
        <time>2021-05-19T17:32:02.000Z</time>
      </trkpt>
      <trkpt lat="47.18747" lon="-1.59169">
        <ele>54</ele>
        <time>2021-05-19T17:32:04.000Z</time>
      </trkpt>
      <trkpt lat="47.18744" lon="-1.59197">
        <ele>51</ele>
        <time>2021-05-19T17:32:07.000Z</time>
      </trkpt>
      <trkpt lat="47.18742" lon="-1.59211">
        <ele>53</ele>
        <time>2021-05-19T17:32:09.000Z</time>
      </trkpt>
      <trkpt lat="47.1874" lon="-1.59226">
        <ele>51</ele>
        <time>2021-05-19T17:32:11.000Z</time>
      </trkpt>
      <trkpt lat="47.18738" lon="-1.59246">
        <ele>50</ele>
        <time>2021-05-19T17:32:13.000Z</time>
      </trkpt>
      <trkpt lat="47.18736" lon="-1.5926">
        <ele>51</ele>
        <time>2021-05-19T17:32:15.000Z</time>
      </trkpt>
      <trkpt lat="47.18735" lon="-1.59275">
        <ele>52</ele>
        <time>2021-05-19T17:32:17.000Z</time>
      </trkpt>
      <trkpt lat="47.18732" lon="-1.593">
        <ele>54</ele>
        <time>2021-05-19T17:32:20.000Z</time>
      </trkpt>
      <trkpt lat="47.1873" lon="-1.59316">
        <ele>54</ele>
        <time>2021-05-19T17:32:22.000Z</time>
      </trkpt>
      <trkpt lat="47.18728" lon="-1.59333">
        <ele>54</ele>
        <time>2021-05-19T17:32:24.000Z</time>
      </trkpt>
      <trkpt lat="47.18726" lon="-1.5935">
        <ele>55</ele>
        <time>2021-05-19T17:32:26.000Z</time>
      </trkpt>
      <trkpt lat="47.18724" lon="-1.59367">
        <ele>55</ele>
        <time>2021-05-19T17:32:28.000Z</time>
      </trkpt>
      <trkpt lat="47.18723" lon="-1.59383">
        <ele>55</ele>
        <time>2021-05-19T17:32:30.000Z</time>
      </trkpt>
      <trkpt lat="47.18721" lon="-1.59399">
        <ele>55</ele>
        <time>2021-05-19T17:32:32.000Z</time>
      </trkpt>
      <trkpt lat="47.18719" lon="-1.59417">
        <ele>55</ele>
        <time>2021-05-19T17:32:34.000Z</time>
      </trkpt>
      <trkpt lat="47.18717" lon="-1.59442">
        <ele>55</ele>
        <time>2021-05-19T17:32:37.000Z</time>
      </trkpt>
      <trkpt lat="47.18713" lon="-1.59467">
        <ele>55</ele>
        <time>2021-05-19T17:32:40.000Z</time>
      </trkpt>
      <trkpt lat="47.18713" lon="-1.59483">
        <ele>55</ele>
        <time>2021-05-19T17:32:42.000Z</time>
      </trkpt>
      <trkpt lat="47.18712" lon="-1.59499">
        <ele>55</ele>
        <time>2021-05-19T17:32:44.000Z</time>
      </trkpt>
      <trkpt lat="47.18709" lon="-1.59516">
        <ele>55</ele>
        <time>2021-05-19T17:32:46.000Z</time>
      </trkpt>
      <trkpt lat="47.18706" lon="-1.59534">
        <ele>54</ele>
        <time>2021-05-19T17:32:48.000Z</time>
      </trkpt>
      <trkpt lat="47.18704" lon="-1.59551">
        <ele>53</ele>
        <time>2021-05-19T17:32:50.000Z</time>
      </trkpt>
      <trkpt lat="47.18703" lon="-1.59566">
        <ele>54</ele>
        <time>2021-05-19T17:32:52.000Z</time>
      </trkpt>
      <trkpt lat="47.18701" lon="-1.59582">
        <ele>55</ele>
        <time>2021-05-19T17:32:54.000Z</time>
      </trkpt>
      <trkpt lat="47.18699" lon="-1.59601">
        <ele>52</ele>
        <time>2021-05-19T17:32:56.000Z</time>
      </trkpt>
      <trkpt lat="47.18697" lon="-1.59615">
        <ele>53</ele>
        <time>2021-05-19T17:32:58.000Z</time>
      </trkpt>
      <trkpt lat="47.18695" lon="-1.5963">
        <ele>53</ele>
        <time>2021-05-19T17:33:00.000Z</time>
      </trkpt>
      <trkpt lat="47.18694" lon="-1.59646">
        <ele>53</ele>
        <time>2021-05-19T17:33:02.000Z</time>
      </trkpt>
      <trkpt lat="47.18692" lon="-1.59662">
        <ele>54</ele>
        <time>2021-05-19T17:33:04.000Z</time>
      </trkpt>
      <trkpt lat="47.18687" lon="-1.59685">
        <ele>54</ele>
        <time>2021-05-19T17:33:07.000Z</time>
      </trkpt>
      <trkpt lat="47.18685" lon="-1.59702">
        <ele>53</ele>
        <time>2021-05-19T17:33:09.000Z</time>
      </trkpt>
      <trkpt lat="47.18684" lon="-1.59717">
        <ele>54</ele>
        <time>2021-05-19T17:33:11.000Z</time>
      </trkpt>
      <trkpt lat="47.18684" lon="-1.59734">
        <ele>54</ele>
        <time>2021-05-19T17:33:13.000Z</time>
      </trkpt>
      <trkpt lat="47.18684" lon="-1.5975">
        <ele>53</ele>
        <time>2021-05-19T17:33:15.000Z</time>
      </trkpt>
      <trkpt lat="47.18686" lon="-1.59766">
        <ele>54</ele>
        <time>2021-05-19T17:33:17.000Z</time>
      </trkpt>
      <trkpt lat="47.18691" lon="-1.59782">
        <ele>54</ele>
        <time>2021-05-19T17:33:19.000Z</time>
      </trkpt>
      <trkpt lat="47.18691" lon="-1.59806">
        <ele>56</ele>
        <time>2021-05-19T17:33:22.000Z</time>
      </trkpt>
      <trkpt lat="47.18684" lon="-1.59823">
        <ele>56</ele>
        <time>2021-05-19T17:33:24.000Z</time>
      </trkpt>
      <trkpt lat="47.18675" lon="-1.59838">
        <ele>56</ele>
        <time>2021-05-19T17:33:26.000Z</time>
      </trkpt>
      <trkpt lat="47.18663" lon="-1.59845">
        <ele>55</ele>
        <time>2021-05-19T17:33:28.000Z</time>
      </trkpt>
      <trkpt lat="47.1865" lon="-1.59846">
        <ele>55</ele>
        <time>2021-05-19T17:33:30.000Z</time>
      </trkpt>
      <trkpt lat="47.18637" lon="-1.59838">
        <ele>55</ele>
        <time>2021-05-19T17:33:32.000Z</time>
      </trkpt>
      <trkpt lat="47.18624" lon="-1.59832">
        <ele>54</ele>
        <time>2021-05-19T17:33:34.000Z</time>
      </trkpt>
      <trkpt lat="47.18615" lon="-1.59842">
        <ele>53</ele>
        <time>2021-05-19T17:33:36.000Z</time>
      </trkpt>
      <trkpt lat="47.18613" lon="-1.59859">
        <ele>52</ele>
        <time>2021-05-19T17:33:38.000Z</time>
      </trkpt>
      <trkpt lat="47.18618" lon="-1.59874">
        <ele>54</ele>
        <time>2021-05-19T17:33:40.000Z</time>
      </trkpt>
      <trkpt lat="47.18617" lon="-1.59888">
        <ele>54</ele>
        <time>2021-05-19T17:33:42.000Z</time>
      </trkpt>
      <trkpt lat="47.18613" lon="-1.59915">
        <ele>54</ele>
        <time>2021-05-19T17:33:45.000Z</time>
      </trkpt>
      <trkpt lat="47.18611" lon="-1.59933">
        <ele>55</ele>
        <time>2021-05-19T17:33:47.000Z</time>
      </trkpt>
      <trkpt lat="47.18606" lon="-1.59947">
        <ele>54</ele>
        <time>2021-05-19T17:33:49.000Z</time>
      </trkpt>
      <trkpt lat="47.18601" lon="-1.59962">
        <ele>54</ele>
        <time>2021-05-19T17:33:51.000Z</time>
      </trkpt>
      <trkpt lat="47.18596" lon="-1.59977">
        <ele>54</ele>
        <time>2021-05-19T17:33:53.000Z</time>
      </trkpt>
      <trkpt lat="47.18589" lon="-1.59994">
        <ele>53</ele>
        <time>2021-05-19T17:33:55.000Z</time>
      </trkpt>
      <trkpt lat="47.18585" lon="-1.6001">
        <ele>54</ele>
        <time>2021-05-19T17:33:57.000Z</time>
      </trkpt>
      <trkpt lat="47.18579" lon="-1.60025">
        <ele>53</ele>
        <time>2021-05-19T17:33:59.000Z</time>
      </trkpt>
      <trkpt lat="47.18574" lon="-1.60039">
        <ele>53</ele>
        <time>2021-05-19T17:34:01.000Z</time>
      </trkpt>
      <trkpt lat="47.18569" lon="-1.60054">
        <ele>53</ele>
        <time>2021-05-19T17:34:03.000Z</time>
      </trkpt>
      <trkpt lat="47.18563" lon="-1.60069">
        <ele>53</ele>
        <time>2021-05-19T17:34:05.000Z</time>
      </trkpt>
      <trkpt lat="47.18556" lon="-1.60091">
        <ele>50</ele>
        <time>2021-05-19T17:34:08.000Z</time>
      </trkpt>
      <trkpt lat="47.1855" lon="-1.60104">
        <ele>51</ele>
        <time>2021-05-19T17:34:10.000Z</time>
      </trkpt>
      <trkpt lat="47.18543" lon="-1.60119">
        <ele>51</ele>
        <time>2021-05-19T17:34:12.000Z</time>
      </trkpt>
      <trkpt lat="47.18537" lon="-1.60134">
        <ele>51</ele>
        <time>2021-05-19T17:34:14.000Z</time>
      </trkpt>
      <trkpt lat="47.18532" lon="-1.6015">
        <ele>50</ele>
        <time>2021-05-19T17:34:16.000Z</time>
      </trkpt>
      <trkpt lat="47.18522" lon="-1.60169">
        <ele>51</ele>
        <time>2021-05-19T17:34:19.000Z</time>
      </trkpt>
      <trkpt lat="47.18515" lon="-1.60182">
        <ele>51</ele>
        <time>2021-05-19T17:34:21.000Z</time>
      </trkpt>
      <trkpt lat="47.18506" lon="-1.602">
        <ele>49</ele>
        <time>2021-05-19T17:34:23.000Z</time>
      </trkpt>
      <trkpt lat="47.18498" lon="-1.60215">
        <ele>49</ele>
        <time>2021-05-19T17:34:25.000Z</time>
      </trkpt>
      <trkpt lat="47.18489" lon="-1.6023">
        <ele>50</ele>
        <time>2021-05-19T17:34:28.000Z</time>
      </trkpt>
      <trkpt lat="47.18483" lon="-1.60243">
        <ele>52</ele>
        <time>2021-05-19T17:34:30.000Z</time>
      </trkpt>
      <trkpt lat="47.18477" lon="-1.60256">
        <ele>49</ele>
        <time>2021-05-19T17:34:32.000Z</time>
      </trkpt>
      <trkpt lat="47.18469" lon="-1.6027">
        <ele>48</ele>
        <time>2021-05-19T17:34:34.000Z</time>
      </trkpt>
      <trkpt lat="47.18461" lon="-1.60281">
        <ele>49</ele>
        <time>2021-05-19T17:34:36.000Z</time>
      </trkpt>
      <trkpt lat="47.18454" lon="-1.60293">
        <ele>50</ele>
        <time>2021-05-19T17:34:38.000Z</time>
      </trkpt>
      <trkpt lat="47.18442" lon="-1.60314">
        <ele>50</ele>
        <time>2021-05-19T17:34:41.000Z</time>
      </trkpt>
      <trkpt lat="47.18435" lon="-1.60326">
        <ele>51</ele>
        <time>2021-05-19T17:34:43.000Z</time>
      </trkpt>
      <trkpt lat="47.18427" lon="-1.60338">
        <ele>52</ele>
        <time>2021-05-19T17:34:45.000Z</time>
      </trkpt>
      <trkpt lat="47.1842" lon="-1.60351">
        <ele>50</ele>
        <time>2021-05-19T17:34:47.000Z</time>
      </trkpt>
      <trkpt lat="47.18407" lon="-1.6037">
        <ele>48</ele>
        <time>2021-05-19T17:34:50.000Z</time>
      </trkpt>
      <trkpt lat="47.18398" lon="-1.60379">
        <ele>50</ele>
        <time>2021-05-19T17:34:52.000Z</time>
      </trkpt>
      <trkpt lat="47.18389" lon="-1.6039">
        <ele>51</ele>
        <time>2021-05-19T17:34:54.000Z</time>
      </trkpt>
      <trkpt lat="47.18379" lon="-1.60399">
        <ele>50</ele>
        <time>2021-05-19T17:34:56.000Z</time>
      </trkpt>
      <trkpt lat="47.18366" lon="-1.60415">
        <ele>48</ele>
        <time>2021-05-19T17:34:59.000Z</time>
      </trkpt>
      <trkpt lat="47.18353" lon="-1.60434">
        <ele>47</ele>
        <time>2021-05-19T17:35:02.000Z</time>
      </trkpt>
      <trkpt lat="47.18344" lon="-1.60446">
        <ele>49</ele>
        <time>2021-05-19T17:35:04.000Z</time>
      </trkpt>
      <trkpt lat="47.18336" lon="-1.60458">
        <ele>50</ele>
        <time>2021-05-19T17:35:06.000Z</time>
      </trkpt>
      <trkpt lat="47.18327" lon="-1.60468">
        <ele>50</ele>
        <time>2021-05-19T17:35:08.000Z</time>
      </trkpt>
      <trkpt lat="47.18318" lon="-1.6048">
        <ele>49</ele>
        <time>2021-05-19T17:35:10.000Z</time>
      </trkpt>
      <trkpt lat="47.1831" lon="-1.6049">
        <ele>50</ele>
        <time>2021-05-19T17:35:12.000Z</time>
      </trkpt>
      <trkpt lat="47.183" lon="-1.605">
        <ele>50</ele>
        <time>2021-05-19T17:35:14.000Z</time>
      </trkpt>
      <trkpt lat="47.18291" lon="-1.6051">
        <ele>51</ele>
        <time>2021-05-19T17:35:16.000Z</time>
      </trkpt>
      <trkpt lat="47.18281" lon="-1.60521">
        <ele>52</ele>
        <time>2021-05-19T17:35:18.000Z</time>
      </trkpt>
      <trkpt lat="47.18268" lon="-1.60535">
        <ele>51</ele>
        <time>2021-05-19T17:35:20.000Z</time>
      </trkpt>
      <trkpt lat="47.18256" lon="-1.60544">
        <ele>51</ele>
        <time>2021-05-19T17:35:22.000Z</time>
      </trkpt>
      <trkpt lat="47.18247" lon="-1.60551">
        <ele>52</ele>
        <time>2021-05-19T17:35:24.000Z</time>
      </trkpt>
      <trkpt lat="47.18231" lon="-1.60562">
        <ele>54</ele>
        <time>2021-05-19T17:35:27.000Z</time>
      </trkpt>
      <trkpt lat="47.1822" lon="-1.60569">
        <ele>54</ele>
        <time>2021-05-19T17:35:29.000Z</time>
      </trkpt>
      <trkpt lat="47.18204" lon="-1.60575">
        <ele>54</ele>
        <time>2021-05-19T17:35:32.000Z</time>
      </trkpt>
      <trkpt lat="47.18195" lon="-1.60578">
        <ele>54</ele>
        <time>2021-05-19T17:35:34.000Z</time>
      </trkpt>
      <trkpt lat="47.18189" lon="-1.6059">
        <ele>52</ele>
        <time>2021-05-19T17:35:37.000Z</time>
      </trkpt>
      <trkpt lat="47.18181" lon="-1.60604">
        <ele>52</ele>
        <time>2021-05-19T17:35:40.000Z</time>
      </trkpt>
      <trkpt lat="47.18171" lon="-1.60606">
        <ele>53</ele>
        <time>2021-05-19T17:35:42.000Z</time>
      </trkpt>
      <trkpt lat="47.18153" lon="-1.60607">
        <ele>53</ele>
        <time>2021-05-19T17:35:45.000Z</time>
      </trkpt>
      <trkpt lat="47.18138" lon="-1.60605">
        <ele>54</ele>
        <time>2021-05-19T17:35:48.000Z</time>
      </trkpt>
      <trkpt lat="47.18126" lon="-1.60601">
        <ele>54</ele>
        <time>2021-05-19T17:35:50.000Z</time>
      </trkpt>
      <trkpt lat="47.18114" lon="-1.60597">
        <ele>54</ele>
        <time>2021-05-19T17:35:52.000Z</time>
      </trkpt>
      <trkpt lat="47.18102" lon="-1.60592">
        <ele>54</ele>
        <time>2021-05-19T17:35:54.000Z</time>
      </trkpt>
      <trkpt lat="47.1809" lon="-1.60587">
        <ele>54</ele>
        <time>2021-05-19T17:35:56.000Z</time>
      </trkpt>
      <trkpt lat="47.18078" lon="-1.6058">
        <ele>53</ele>
        <time>2021-05-19T17:35:58.000Z</time>
      </trkpt>
      <trkpt lat="47.18066" lon="-1.60574">
        <ele>53</ele>
        <time>2021-05-19T17:36:00.000Z</time>
      </trkpt>
      <trkpt lat="47.18055" lon="-1.60567">
        <ele>53</ele>
        <time>2021-05-19T17:36:02.000Z</time>
      </trkpt>
      <trkpt lat="47.18043" lon="-1.60562">
        <ele>54</ele>
        <time>2021-05-19T17:36:04.000Z</time>
      </trkpt>
      <trkpt lat="47.18032" lon="-1.60558">
        <ele>53</ele>
        <time>2021-05-19T17:36:06.000Z</time>
      </trkpt>
      <trkpt lat="47.18017" lon="-1.60554">
        <ele>53</ele>
        <time>2021-05-19T17:36:09.000Z</time>
      </trkpt>
      <trkpt lat="47.17999" lon="-1.60558">
        <ele>54</ele>
        <time>2021-05-19T17:36:12.000Z</time>
      </trkpt>
      <trkpt lat="47.17983" lon="-1.60565">
        <ele>51</ele>
        <time>2021-05-19T17:36:15.000Z</time>
      </trkpt>
      <trkpt lat="47.17974" lon="-1.60567">
        <ele>50</ele>
        <time>2021-05-19T17:36:17.000Z</time>
      </trkpt>
      <trkpt lat="47.17953" lon="-1.60577">
        <ele>49</ele>
        <time>2021-05-19T17:36:20.000Z</time>
      </trkpt>
      <trkpt lat="47.17944" lon="-1.60583">
        <ele>53</ele>
        <time>2021-05-19T17:36:22.000Z</time>
      </trkpt>
      <trkpt lat="47.17935" lon="-1.6059">
        <ele>52</ele>
        <time>2021-05-19T17:36:24.000Z</time>
      </trkpt>
      <trkpt lat="47.17924" lon="-1.60592">
        <ele>54</ele>
        <time>2021-05-19T17:36:27.000Z</time>
      </trkpt>
      <trkpt lat="47.17911" lon="-1.60596">
        <ele>49</ele>
        <time>2021-05-19T17:36:35.000Z</time>
      </trkpt>
      <trkpt lat="47.17905" lon="-1.60607">
        <ele>50</ele>
        <time>2021-05-19T17:36:37.000Z</time>
      </trkpt>
      <trkpt lat="47.179" lon="-1.6063">
        <ele>48</ele>
        <time>2021-05-19T17:36:40.000Z</time>
      </trkpt>
      <trkpt lat="47.17897" lon="-1.60647">
        <ele>48</ele>
        <time>2021-05-19T17:36:42.000Z</time>
      </trkpt>
      <trkpt lat="47.1789" lon="-1.60661">
        <ele>51</ele>
        <time>2021-05-19T17:36:44.000Z</time>
      </trkpt>
      <trkpt lat="47.17884" lon="-1.60677">
        <ele>49</ele>
        <time>2021-05-19T17:36:46.000Z</time>
      </trkpt>
      <trkpt lat="47.17877" lon="-1.60705">
        <ele>47</ele>
        <time>2021-05-19T17:36:49.000Z</time>
      </trkpt>
      <trkpt lat="47.17871" lon="-1.6072">
        <ele>50</ele>
        <time>2021-05-19T17:36:51.000Z</time>
      </trkpt>
      <trkpt lat="47.17868" lon="-1.60736">
        <ele>52</ele>
        <time>2021-05-19T17:36:53.000Z</time>
      </trkpt>
      <trkpt lat="47.17865" lon="-1.60752">
        <ele>52</ele>
        <time>2021-05-19T17:36:55.000Z</time>
      </trkpt>
      <trkpt lat="47.17861" lon="-1.60769">
        <ele>52</ele>
        <time>2021-05-19T17:36:57.000Z</time>
      </trkpt>
      <trkpt lat="47.17858" lon="-1.60784">
        <ele>52</ele>
        <time>2021-05-19T17:36:59.000Z</time>
      </trkpt>
      <trkpt lat="47.17854" lon="-1.60799">
        <ele>53</ele>
        <time>2021-05-19T17:37:01.000Z</time>
      </trkpt>
      <trkpt lat="47.1785" lon="-1.60815">
        <ele>53</ele>
        <time>2021-05-19T17:37:03.000Z</time>
      </trkpt>
      <trkpt lat="47.17846" lon="-1.6083">
        <ele>53</ele>
        <time>2021-05-19T17:37:05.000Z</time>
      </trkpt>
      <trkpt lat="47.17841" lon="-1.60845">
        <ele>54</ele>
        <time>2021-05-19T17:37:07.000Z</time>
      </trkpt>
      <trkpt lat="47.17834" lon="-1.60859">
        <ele>54</ele>
        <time>2021-05-19T17:37:09.000Z</time>
      </trkpt>
      <trkpt lat="47.17826" lon="-1.60871">
        <ele>53</ele>
        <time>2021-05-19T17:37:11.000Z</time>
      </trkpt>
      <trkpt lat="47.17817" lon="-1.60884">
        <ele>53</ele>
        <time>2021-05-19T17:37:13.000Z</time>
      </trkpt>
      <trkpt lat="47.17808" lon="-1.60894">
        <ele>52</ele>
        <time>2021-05-19T17:37:15.000Z</time>
      </trkpt>
      <trkpt lat="47.17798" lon="-1.60902">
        <ele>52</ele>
        <time>2021-05-19T17:37:17.000Z</time>
      </trkpt>
      <trkpt lat="47.17782" lon="-1.60913">
        <ele>51</ele>
        <time>2021-05-19T17:37:20.000Z</time>
      </trkpt>
      <trkpt lat="47.1777" lon="-1.60923">
        <ele>50</ele>
        <time>2021-05-19T17:37:22.000Z</time>
      </trkpt>
      <trkpt lat="47.17761" lon="-1.60931">
        <ele>50</ele>
        <time>2021-05-19T17:37:24.000Z</time>
      </trkpt>
      <trkpt lat="47.17751" lon="-1.60939">
        <ele>50</ele>
        <time>2021-05-19T17:37:26.000Z</time>
      </trkpt>
      <trkpt lat="47.17742" lon="-1.60946">
        <ele>52</ele>
        <time>2021-05-19T17:37:28.000Z</time>
      </trkpt>
      <trkpt lat="47.1773" lon="-1.60955">
        <ele>49</ele>
        <time>2021-05-19T17:37:30.000Z</time>
      </trkpt>
      <trkpt lat="47.17721" lon="-1.60962">
        <ele>50</ele>
        <time>2021-05-19T17:37:32.000Z</time>
      </trkpt>
      <trkpt lat="47.17711" lon="-1.60969">
        <ele>51</ele>
        <time>2021-05-19T17:37:34.000Z</time>
      </trkpt>
      <trkpt lat="47.17701" lon="-1.60974">
        <ele>50</ele>
        <time>2021-05-19T17:37:36.000Z</time>
      </trkpt>
      <trkpt lat="47.17691" lon="-1.60979">
        <ele>50</ele>
        <time>2021-05-19T17:37:38.000Z</time>
      </trkpt>
      <trkpt lat="47.17679" lon="-1.60976">
        <ele>49</ele>
        <time>2021-05-19T17:37:40.000Z</time>
      </trkpt>
      <trkpt lat="47.17665" lon="-1.60975">
        <ele>49</ele>
        <time>2021-05-19T17:37:42.000Z</time>
      </trkpt>
      <trkpt lat="47.17654" lon="-1.6098">
        <ele>50</ele>
        <time>2021-05-19T17:37:44.000Z</time>
      </trkpt>
      <trkpt lat="47.17644" lon="-1.60988">
        <ele>50</ele>
        <time>2021-05-19T17:37:46.000Z</time>
      </trkpt>
      <trkpt lat="47.17634" lon="-1.60998">
        <ele>51</ele>
        <time>2021-05-19T17:37:48.000Z</time>
      </trkpt>
      <trkpt lat="47.17624" lon="-1.61006">
        <ele>51</ele>
        <time>2021-05-19T17:37:50.000Z</time>
      </trkpt>
      <trkpt lat="47.17614" lon="-1.61014">
        <ele>51</ele>
        <time>2021-05-19T17:37:52.000Z</time>
      </trkpt>
      <trkpt lat="47.176" lon="-1.61028">
        <ele>51</ele>
        <time>2021-05-19T17:37:55.000Z</time>
      </trkpt>
      <trkpt lat="47.17586" lon="-1.61037">
        <ele>49</ele>
        <time>2021-05-19T17:37:57.000Z</time>
      </trkpt>
      <trkpt lat="47.17572" lon="-1.61048">
        <ele>51</ele>
        <time>2021-05-19T17:38:01.000Z</time>
      </trkpt>
      <trkpt lat="47.17554" lon="-1.61064">
        <ele>52</ele>
        <time>2021-05-19T17:38:05.000Z</time>
      </trkpt>
      <trkpt lat="47.17544" lon="-1.61072">
        <ele>50</ele>
        <time>2021-05-19T17:38:07.000Z</time>
      </trkpt>
      <trkpt lat="47.17536" lon="-1.6108">
        <ele>51</ele>
        <time>2021-05-19T17:38:09.000Z</time>
      </trkpt>
      <trkpt lat="47.17527" lon="-1.61089">
        <ele>53</ele>
        <time>2021-05-19T17:38:11.000Z</time>
      </trkpt>
      <trkpt lat="47.17517" lon="-1.61098">
        <ele>54</ele>
        <time>2021-05-19T17:38:13.000Z</time>
      </trkpt>
      <trkpt lat="47.17506" lon="-1.61104">
        <ele>54</ele>
        <time>2021-05-19T17:38:15.000Z</time>
      </trkpt>
      <trkpt lat="47.17489" lon="-1.61106">
        <ele>54</ele>
        <time>2021-05-19T17:38:18.000Z</time>
      </trkpt>
      <trkpt lat="47.17478" lon="-1.61104">
        <ele>54</ele>
        <time>2021-05-19T17:38:20.000Z</time>
      </trkpt>
      <trkpt lat="47.17468" lon="-1.61098">
        <ele>53</ele>
        <time>2021-05-19T17:38:22.000Z</time>
      </trkpt>
      <trkpt lat="47.17459" lon="-1.6109">
        <ele>53</ele>
        <time>2021-05-19T17:38:24.000Z</time>
      </trkpt>
      <trkpt lat="47.1745" lon="-1.61082">
        <ele>55</ele>
        <time>2021-05-19T17:38:26.000Z</time>
      </trkpt>
      <trkpt lat="47.17444" lon="-1.61069">
        <ele>55</ele>
        <time>2021-05-19T17:38:28.000Z</time>
      </trkpt>
      <trkpt lat="47.17438" lon="-1.61054">
        <ele>55</ele>
        <time>2021-05-19T17:38:30.000Z</time>
      </trkpt>
      <trkpt lat="47.17434" lon="-1.61041">
        <ele>54</ele>
        <time>2021-05-19T17:38:32.000Z</time>
      </trkpt>
      <trkpt lat="47.17431" lon="-1.61026">
        <ele>57</ele>
        <time>2021-05-19T17:38:35.000Z</time>
      </trkpt>
      <trkpt lat="47.17421" lon="-1.61026">
        <ele>56</ele>
        <time>2021-05-19T17:38:38.000Z</time>
      </trkpt>
      <trkpt lat="47.17423" lon="-1.6104">
        <ele>53</ele>
        <time>2021-05-19T17:38:41.000Z</time>
      </trkpt>
      <trkpt lat="47.17428" lon="-1.61059">
        <ele>55</ele>
        <time>2021-05-19T17:38:44.000Z</time>
      </trkpt>
      <trkpt lat="47.17434" lon="-1.61074">
        <ele>56</ele>
        <time>2021-05-19T17:38:46.000Z</time>
      </trkpt>
      <trkpt lat="47.17439" lon="-1.61088">
        <ele>57</ele>
        <time>2021-05-19T17:38:48.000Z</time>
      </trkpt>
      <trkpt lat="47.17445" lon="-1.61103">
        <ele>56</ele>
        <time>2021-05-19T17:38:50.000Z</time>
      </trkpt>
      <trkpt lat="47.17453" lon="-1.61119">
        <ele>57</ele>
        <time>2021-05-19T17:38:53.000Z</time>
      </trkpt>
      <trkpt lat="47.1746" lon="-1.61134">
        <ele>55</ele>
        <time>2021-05-19T17:38:56.000Z</time>
      </trkpt>
      <trkpt lat="47.17465" lon="-1.61147">
        <ele>56</ele>
        <time>2021-05-19T17:38:58.000Z</time>
      </trkpt>
      <trkpt lat="47.17473" lon="-1.61166">
        <ele>58</ele>
        <time>2021-05-19T17:39:01.000Z</time>
      </trkpt>
      <trkpt lat="47.17477" lon="-1.61178">
        <ele>59</ele>
        <time>2021-05-19T17:39:03.000Z</time>
      </trkpt>
      <trkpt lat="47.17481" lon="-1.61192">
        <ele>60</ele>
        <time>2021-05-19T17:39:05.000Z</time>
      </trkpt>
      <trkpt lat="47.17486" lon="-1.61204">
        <ele>60</ele>
        <time>2021-05-19T17:39:07.000Z</time>
      </trkpt>
      <trkpt lat="47.17493" lon="-1.61224">
        <ele>60</ele>
        <time>2021-05-19T17:39:10.000Z</time>
      </trkpt>
      <trkpt lat="47.175" lon="-1.61241">
        <ele>58</ele>
        <time>2021-05-19T17:39:13.000Z</time>
      </trkpt>
      <trkpt lat="47.17508" lon="-1.61251">
        <ele>59</ele>
        <time>2021-05-19T17:39:15.000Z</time>
      </trkpt>
      <trkpt lat="47.17514" lon="-1.61261">
        <ele>59</ele>
        <time>2021-05-19T17:39:17.000Z</time>
      </trkpt>
      <trkpt lat="47.17521" lon="-1.61273">
        <ele>58</ele>
        <time>2021-05-19T17:39:19.000Z</time>
      </trkpt>
      <trkpt lat="47.17529" lon="-1.61283">
        <ele>58</ele>
        <time>2021-05-19T17:39:21.000Z</time>
      </trkpt>
      <trkpt lat="47.1754" lon="-1.61293">
        <ele>60</ele>
        <time>2021-05-19T17:39:24.000Z</time>
      </trkpt>
      <trkpt lat="47.17552" lon="-1.613">
        <ele>58</ele>
        <time>2021-05-19T17:39:27.000Z</time>
      </trkpt>
      <trkpt lat="47.1756" lon="-1.61311">
        <ele>56</ele>
        <time>2021-05-19T17:39:29.000Z</time>
      </trkpt>
      <trkpt lat="47.1756" lon="-1.61329">
        <ele>57</ele>
        <time>2021-05-19T17:39:31.000Z</time>
      </trkpt>
      <trkpt lat="47.17556" lon="-1.61344">
        <ele>58</ele>
        <time>2021-05-19T17:39:33.000Z</time>
      </trkpt>
      <trkpt lat="47.17549" lon="-1.61354">
        <ele>59</ele>
        <time>2021-05-19T17:39:35.000Z</time>
      </trkpt>
      <trkpt lat="47.17539" lon="-1.61362">
        <ele>59</ele>
        <time>2021-05-19T17:39:37.000Z</time>
      </trkpt>
      <trkpt lat="47.17532" lon="-1.61373">
        <ele>58</ele>
        <time>2021-05-19T17:39:39.000Z</time>
      </trkpt>
      <trkpt lat="47.17528" lon="-1.61387">
        <ele>59</ele>
        <time>2021-05-19T17:39:41.000Z</time>
      </trkpt>
      <trkpt lat="47.17525" lon="-1.61401">
        <ele>59</ele>
        <time>2021-05-19T17:39:43.000Z</time>
      </trkpt>
      <trkpt lat="47.17521" lon="-1.61413">
        <ele>60</ele>
        <time>2021-05-19T17:39:45.000Z</time>
      </trkpt>
      <trkpt lat="47.17518" lon="-1.61427">
        <ele>60</ele>
        <time>2021-05-19T17:39:47.000Z</time>
      </trkpt>
      <trkpt lat="47.17516" lon="-1.61443">
        <ele>61</ele>
        <time>2021-05-19T17:39:50.000Z</time>
      </trkpt>
      <trkpt lat="47.17513" lon="-1.61463">
        <ele>62</ele>
        <time>2021-05-19T17:39:56.000Z</time>
      </trkpt>
      <trkpt lat="47.17503" lon="-1.61464">
        <ele>60</ele>
        <time>2021-05-19T17:39:58.000Z</time>
      </trkpt>
      <trkpt lat="47.17492" lon="-1.61468">
        <ele>60</ele>
        <time>2021-05-19T17:40:00.000Z</time>
      </trkpt>
      <trkpt lat="47.17479" lon="-1.61474">
        <ele>61</ele>
        <time>2021-05-19T17:40:03.000Z</time>
      </trkpt>
      <trkpt lat="47.1747" lon="-1.61477">
        <ele>62</ele>
        <time>2021-05-19T17:40:05.000Z</time>
      </trkpt>
      <trkpt lat="47.17461" lon="-1.61481">
        <ele>61</ele>
        <time>2021-05-19T17:40:07.000Z</time>
      </trkpt>
      <trkpt lat="47.17451" lon="-1.61484">
        <ele>60</ele>
        <time>2021-05-19T17:40:09.000Z</time>
      </trkpt>
      <trkpt lat="47.17442" lon="-1.6149">
        <ele>62</ele>
        <time>2021-05-19T17:40:11.000Z</time>
      </trkpt>
      <trkpt lat="47.17433" lon="-1.61496">
        <ele>63</ele>
        <time>2021-05-19T17:40:13.000Z</time>
      </trkpt>
      <trkpt lat="47.17421" lon="-1.61504">
        <ele>61</ele>
        <time>2021-05-19T17:40:16.000Z</time>
      </trkpt>
      <trkpt lat="47.1741" lon="-1.61514">
        <ele>62</ele>
        <time>2021-05-19T17:40:19.000Z</time>
      </trkpt>
      <trkpt lat="47.17397" lon="-1.61523">
        <ele>65</ele>
        <time>2021-05-19T17:40:22.000Z</time>
      </trkpt>
      <trkpt lat="47.1739" lon="-1.6153">
        <ele>66</ele>
        <time>2021-05-19T17:40:24.000Z</time>
      </trkpt>
      <trkpt lat="47.1738" lon="-1.61539">
        <ele>64</ele>
        <time>2021-05-19T17:40:26.000Z</time>
      </trkpt>
      <trkpt lat="47.1737" lon="-1.61551">
        <ele>68</ele>
        <time>2021-05-19T17:40:29.000Z</time>
      </trkpt>
      <trkpt lat="47.17361" lon="-1.61558">
        <ele>69</ele>
        <time>2021-05-19T17:40:31.000Z</time>
      </trkpt>
      <trkpt lat="47.17354" lon="-1.61566">
        <ele>69</ele>
        <time>2021-05-19T17:40:33.000Z</time>
      </trkpt>
      <trkpt lat="47.17346" lon="-1.61575">
        <ele>69</ele>
        <time>2021-05-19T17:40:35.000Z</time>
      </trkpt>
      <trkpt lat="47.17339" lon="-1.61583">
        <ele>69</ele>
        <time>2021-05-19T17:40:37.000Z</time>
      </trkpt>
      <trkpt lat="47.17332" lon="-1.61592">
        <ele>69</ele>
        <time>2021-05-19T17:40:39.000Z</time>
      </trkpt>
      <trkpt lat="47.17319" lon="-1.61608">
        <ele>68</ele>
        <time>2021-05-19T17:40:42.000Z</time>
      </trkpt>
      <trkpt lat="47.17312" lon="-1.61618">
        <ele>68</ele>
        <time>2021-05-19T17:40:44.000Z</time>
      </trkpt>
      <trkpt lat="47.17303" lon="-1.61632">
        <ele>67</ele>
        <time>2021-05-19T17:40:47.000Z</time>
      </trkpt>
      <trkpt lat="47.17297" lon="-1.61643">
        <ele>67</ele>
        <time>2021-05-19T17:40:49.000Z</time>
      </trkpt>
      <trkpt lat="47.17291" lon="-1.61654">
        <ele>68</ele>
        <time>2021-05-19T17:40:51.000Z</time>
      </trkpt>
      <trkpt lat="47.17283" lon="-1.61672">
        <ele>68</ele>
        <time>2021-05-19T17:40:54.000Z</time>
      </trkpt>
      <trkpt lat="47.17277" lon="-1.61684">
        <ele>67</ele>
        <time>2021-05-19T17:40:56.000Z</time>
      </trkpt>
      <trkpt lat="47.1727" lon="-1.61697">
        <ele>69</ele>
        <time>2021-05-19T17:40:58.000Z</time>
      </trkpt>
      <trkpt lat="47.17264" lon="-1.6171">
        <ele>69</ele>
        <time>2021-05-19T17:41:00.000Z</time>
      </trkpt>
      <trkpt lat="47.17257" lon="-1.61722">
        <ele>68</ele>
        <time>2021-05-19T17:41:02.000Z</time>
      </trkpt>
      <trkpt lat="47.17249" lon="-1.61739">
        <ele>68</ele>
        <time>2021-05-19T17:41:05.000Z</time>
      </trkpt>
      <trkpt lat="47.17247" lon="-1.61754">
        <ele>70</ele>
        <time>2021-05-19T17:41:07.000Z</time>
      </trkpt>
      <trkpt lat="47.17244" lon="-1.6177">
        <ele>70</ele>
        <time>2021-05-19T17:41:09.000Z</time>
      </trkpt>
      <trkpt lat="47.17234" lon="-1.61787">
        <ele>69</ele>
        <time>2021-05-19T17:41:12.000Z</time>
      </trkpt>
      <trkpt lat="47.17224" lon="-1.61796">
        <ele>69</ele>
        <time>2021-05-19T17:41:14.000Z</time>
      </trkpt>
      <trkpt lat="47.17214" lon="-1.61805">
        <ele>69</ele>
        <time>2021-05-19T17:41:16.000Z</time>
      </trkpt>
      <trkpt lat="47.17204" lon="-1.61814">
        <ele>70</ele>
        <time>2021-05-19T17:41:18.000Z</time>
      </trkpt>
      <trkpt lat="47.17195" lon="-1.61822">
        <ele>70</ele>
        <time>2021-05-19T17:41:20.000Z</time>
      </trkpt>
      <trkpt lat="47.17186" lon="-1.61831">
        <ele>69</ele>
        <time>2021-05-19T17:41:22.000Z</time>
      </trkpt>
      <trkpt lat="47.17178" lon="-1.6184">
        <ele>70</ele>
        <time>2021-05-19T17:41:24.000Z</time>
      </trkpt>
      <trkpt lat="47.17168" lon="-1.61848">
        <ele>70</ele>
        <time>2021-05-19T17:41:26.000Z</time>
      </trkpt>
      <trkpt lat="47.17159" lon="-1.61858">
        <ele>67</ele>
        <time>2021-05-19T17:41:28.000Z</time>
      </trkpt>
      <trkpt lat="47.17148" lon="-1.61866">
        <ele>68</ele>
        <time>2021-05-19T17:41:30.000Z</time>
      </trkpt>
      <trkpt lat="47.17139" lon="-1.61874">
        <ele>68</ele>
        <time>2021-05-19T17:41:32.000Z</time>
      </trkpt>
      <trkpt lat="47.17129" lon="-1.61883">
        <ele>68</ele>
        <time>2021-05-19T17:41:34.000Z</time>
      </trkpt>
      <trkpt lat="47.17121" lon="-1.61891">
        <ele>68</ele>
        <time>2021-05-19T17:41:36.000Z</time>
      </trkpt>
      <trkpt lat="47.17112" lon="-1.61901">
        <ele>68</ele>
        <time>2021-05-19T17:41:38.000Z</time>
      </trkpt>
      <trkpt lat="47.17098" lon="-1.61914">
        <ele>69</ele>
        <time>2021-05-19T17:41:41.000Z</time>
      </trkpt>
      <trkpt lat="47.17089" lon="-1.61922">
        <ele>69</ele>
        <time>2021-05-19T17:41:43.000Z</time>
      </trkpt>
      <trkpt lat="47.1708" lon="-1.61931">
        <ele>69</ele>
        <time>2021-05-19T17:41:45.000Z</time>
      </trkpt>
      <trkpt lat="47.17072" lon="-1.61939">
        <ele>68</ele>
        <time>2021-05-19T17:41:47.000Z</time>
      </trkpt>
      <trkpt lat="47.17065" lon="-1.61948">
        <ele>69</ele>
        <time>2021-05-19T17:41:49.000Z</time>
      </trkpt>
      <trkpt lat="47.17056" lon="-1.61958">
        <ele>69</ele>
        <time>2021-05-19T17:41:51.000Z</time>
      </trkpt>
      <trkpt lat="47.17049" lon="-1.61969">
        <ele>69</ele>
        <time>2021-05-19T17:41:53.000Z</time>
      </trkpt>
      <trkpt lat="47.17041" lon="-1.6198">
        <ele>69</ele>
        <time>2021-05-19T17:41:55.000Z</time>
      </trkpt>
      <trkpt lat="47.17034" lon="-1.61991">
        <ele>69</ele>
        <time>2021-05-19T17:41:57.000Z</time>
      </trkpt>
      <trkpt lat="47.17026" lon="-1.62002">
        <ele>69</ele>
        <time>2021-05-19T17:41:59.000Z</time>
      </trkpt>
      <trkpt lat="47.17019" lon="-1.62013">
        <ele>69</ele>
        <time>2021-05-19T17:42:01.000Z</time>
      </trkpt>
      <trkpt lat="47.17011" lon="-1.62023">
        <ele>69</ele>
        <time>2021-05-19T17:42:03.000Z</time>
      </trkpt>
      <trkpt lat="47.17004" lon="-1.62035">
        <ele>69</ele>
        <time>2021-05-19T17:42:05.000Z</time>
      </trkpt>
      <trkpt lat="47.16997" lon="-1.62048">
        <ele>69</ele>
        <time>2021-05-19T17:42:07.000Z</time>
      </trkpt>
      <trkpt lat="47.1699" lon="-1.6206">
        <ele>69</ele>
        <time>2021-05-19T17:42:09.000Z</time>
      </trkpt>
      <trkpt lat="47.16983" lon="-1.62073">
        <ele>69</ele>
        <time>2021-05-19T17:42:11.000Z</time>
      </trkpt>
      <trkpt lat="47.16976" lon="-1.62084">
        <ele>69</ele>
        <time>2021-05-19T17:42:13.000Z</time>
      </trkpt>
      <trkpt lat="47.1697" lon="-1.62096">
        <ele>69</ele>
        <time>2021-05-19T17:42:15.000Z</time>
      </trkpt>
      <trkpt lat="47.1696" lon="-1.62115">
        <ele>69</ele>
        <time>2021-05-19T17:42:18.000Z</time>
      </trkpt>
      <trkpt lat="47.16953" lon="-1.62127">
        <ele>70</ele>
        <time>2021-05-19T17:42:20.000Z</time>
      </trkpt>
      <trkpt lat="47.16947" lon="-1.6214">
        <ele>70</ele>
        <time>2021-05-19T17:42:22.000Z</time>
      </trkpt>
      <trkpt lat="47.16941" lon="-1.62152">
        <ele>70</ele>
        <time>2021-05-19T17:42:24.000Z</time>
      </trkpt>
      <trkpt lat="47.16935" lon="-1.62166">
        <ele>70</ele>
        <time>2021-05-19T17:42:26.000Z</time>
      </trkpt>
      <trkpt lat="47.16929" lon="-1.62179">
        <ele>70</ele>
        <time>2021-05-19T17:42:28.000Z</time>
      </trkpt>
      <trkpt lat="47.16922" lon="-1.62192">
        <ele>70</ele>
        <time>2021-05-19T17:42:30.000Z</time>
      </trkpt>
      <trkpt lat="47.16916" lon="-1.62203">
        <ele>70</ele>
        <time>2021-05-19T17:42:32.000Z</time>
      </trkpt>
      <trkpt lat="47.16909" lon="-1.62214">
        <ele>70</ele>
        <time>2021-05-19T17:42:34.000Z</time>
      </trkpt>
      <trkpt lat="47.16901" lon="-1.62225">
        <ele>70</ele>
        <time>2021-05-19T17:42:36.000Z</time>
      </trkpt>
      <trkpt lat="47.16892" lon="-1.62236">
        <ele>70</ele>
        <time>2021-05-19T17:42:38.000Z</time>
      </trkpt>
      <trkpt lat="47.16884" lon="-1.62246">
        <ele>70</ele>
        <time>2021-05-19T17:42:40.000Z</time>
      </trkpt>
      <trkpt lat="47.16875" lon="-1.62256">
        <ele>71</ele>
        <time>2021-05-19T17:42:42.000Z</time>
      </trkpt>
      <trkpt lat="47.16867" lon="-1.62266">
        <ele>70</ele>
        <time>2021-05-19T17:42:44.000Z</time>
      </trkpt>
      <trkpt lat="47.16859" lon="-1.62277">
        <ele>70</ele>
        <time>2021-05-19T17:42:46.000Z</time>
      </trkpt>
      <trkpt lat="47.16847" lon="-1.62292">
        <ele>70</ele>
        <time>2021-05-19T17:42:49.000Z</time>
      </trkpt>
      <trkpt lat="47.16838" lon="-1.62302">
        <ele>70</ele>
        <time>2021-05-19T17:42:51.000Z</time>
      </trkpt>
      <trkpt lat="47.1683" lon="-1.62311">
        <ele>70</ele>
        <time>2021-05-19T17:42:53.000Z</time>
      </trkpt>
      <trkpt lat="47.16821" lon="-1.62318">
        <ele>71</ele>
        <time>2021-05-19T17:42:55.000Z</time>
      </trkpt>
      <trkpt lat="47.16807" lon="-1.62326">
        <ele>67</ele>
        <time>2021-05-19T17:42:58.000Z</time>
      </trkpt>
      <trkpt lat="47.16796" lon="-1.62333">
        <ele>67</ele>
        <time>2021-05-19T17:43:00.000Z</time>
      </trkpt>
      <trkpt lat="47.16786" lon="-1.62339">
        <ele>68</ele>
        <time>2021-05-19T17:43:02.000Z</time>
      </trkpt>
      <trkpt lat="47.16776" lon="-1.62345">
        <ele>68</ele>
        <time>2021-05-19T17:43:04.000Z</time>
      </trkpt>
      <trkpt lat="47.16765" lon="-1.62352">
        <ele>68</ele>
        <time>2021-05-19T17:43:06.000Z</time>
      </trkpt>
      <trkpt lat="47.16755" lon="-1.6236">
        <ele>68</ele>
        <time>2021-05-19T17:43:08.000Z</time>
      </trkpt>
      <trkpt lat="47.16745" lon="-1.6237">
        <ele>68</ele>
        <time>2021-05-19T17:43:10.000Z</time>
      </trkpt>
      <trkpt lat="47.16737" lon="-1.62383">
        <ele>68</ele>
        <time>2021-05-19T17:43:12.000Z</time>
      </trkpt>
      <trkpt lat="47.16733" lon="-1.62397">
        <ele>68</ele>
        <time>2021-05-19T17:43:14.000Z</time>
      </trkpt>
      <trkpt lat="47.16729" lon="-1.6242">
        <ele>68</ele>
        <time>2021-05-19T17:43:17.000Z</time>
      </trkpt>
      <trkpt lat="47.16727" lon="-1.62435">
        <ele>68</ele>
        <time>2021-05-19T17:43:19.000Z</time>
      </trkpt>
      <trkpt lat="47.16724" lon="-1.62448">
        <ele>64</ele>
        <time>2021-05-19T17:43:21.000Z</time>
      </trkpt>
      <trkpt lat="47.16721" lon="-1.62463">
        <ele>65</ele>
        <time>2021-05-19T17:43:23.000Z</time>
      </trkpt>
      <trkpt lat="47.16718" lon="-1.62478">
        <ele>66</ele>
        <time>2021-05-19T17:43:25.000Z</time>
      </trkpt>
      <trkpt lat="47.16718" lon="-1.62493">
        <ele>65</ele>
        <time>2021-05-19T17:43:27.000Z</time>
      </trkpt>
      <trkpt lat="47.16733" lon="-1.62502">
        <ele>67</ele>
        <time>2021-05-19T17:43:30.000Z</time>
      </trkpt>
      <trkpt lat="47.16748" lon="-1.62507">
        <ele>68</ele>
        <time>2021-05-19T17:43:33.000Z</time>
      </trkpt>
      <trkpt lat="47.16759" lon="-1.62514">
        <ele>68</ele>
        <time>2021-05-19T17:43:35.000Z</time>
      </trkpt>
      <trkpt lat="47.16769" lon="-1.62517">
        <ele>65</ele>
        <time>2021-05-19T17:43:37.000Z</time>
      </trkpt>
      <trkpt lat="47.16778" lon="-1.62524">
        <ele>67</ele>
        <time>2021-05-19T17:43:39.000Z</time>
      </trkpt>
      <trkpt lat="47.16789" lon="-1.62533">
        <ele>67</ele>
        <time>2021-05-19T17:43:41.000Z</time>
      </trkpt>
      <trkpt lat="47.16799" lon="-1.6254">
        <ele>67</ele>
        <time>2021-05-19T17:43:43.000Z</time>
      </trkpt>
      <trkpt lat="47.16808" lon="-1.62547">
        <ele>67</ele>
        <time>2021-05-19T17:43:45.000Z</time>
      </trkpt>
      <trkpt lat="47.16818" lon="-1.62555">
        <ele>67</ele>
        <time>2021-05-19T17:43:47.000Z</time>
      </trkpt>
      <trkpt lat="47.16827" lon="-1.62566">
        <ele>68</ele>
        <time>2021-05-19T17:43:49.000Z</time>
      </trkpt>
      <trkpt lat="47.16833" lon="-1.6258">
        <ele>68</ele>
        <time>2021-05-19T17:43:51.000Z</time>
      </trkpt>
      <trkpt lat="47.16829" lon="-1.62593">
        <ele>69</ele>
        <time>2021-05-19T17:43:53.000Z</time>
      </trkpt>
      <trkpt lat="47.16821" lon="-1.62605">
        <ele>69</ele>
        <time>2021-05-19T17:43:55.000Z</time>
      </trkpt>
      <trkpt lat="47.16814" lon="-1.62617">
        <ele>70</ele>
        <time>2021-05-19T17:43:57.000Z</time>
      </trkpt>
      <trkpt lat="47.16807" lon="-1.62628">
        <ele>70</ele>
        <time>2021-05-19T17:43:59.000Z</time>
      </trkpt>
      <trkpt lat="47.16802" lon="-1.62639">
        <ele>70</ele>
        <time>2021-05-19T17:44:01.000Z</time>
      </trkpt>
      <trkpt lat="47.16795" lon="-1.62649">
        <ele>70</ele>
        <time>2021-05-19T17:44:03.000Z</time>
      </trkpt>
      <trkpt lat="47.16787" lon="-1.62663">
        <ele>70</ele>
        <time>2021-05-19T17:44:06.000Z</time>
      </trkpt>
      <trkpt lat="47.16779" lon="-1.62656">
        <ele>70</ele>
        <time>2021-05-19T17:44:10.000Z</time>
      </trkpt>
    </trkseg>
  </trk>
</gpx>